<?xml version='1.0' encoding='UTF-8'?><gpx version="1.1" creator="JPX - https://github.com/jenetics/jpx" xmlns="http://www.topografix.com/GPX/1/1"><trk><trkseg><trkpt lat="44.400458201807226" lon="10.474527938871946"><ele>406.99999999999994</ele><time>2026-04-18T08:35:29Z</time></trkpt><trkpt lat="44.40040176356927" lon="10.474422128933401"><ele>407.0</ele><time>2026-04-18T08:35:31Z</time></trkpt><trkpt lat="44.40037459285316" lon="10.474335521592346"><ele>407.0</ele><time>2026-04-18T08:35:32Z</time></trkpt><trkpt lat="44.400339621022745" lon="10.474230042985477"><ele>407.0</ele><time>2026-04-18T08:35:33Z</time></trkpt><trkpt lat="44.40030205111793" lon="10.474101585758932"><ele>406.99999999999994</ele><time>2026-04-18T08:35:34Z</time></trkpt><trkpt lat="44.400271749530106" lon="10.473968357772199"><ele>407.0</ele><time>2026-04-18T08:35:35Z</time></trkpt><trkpt lat="44.40025334486642" lon="10.473826725586747"><ele>405.75</ele><time>2026-04-18T08:35:36Z</time></trkpt><trkpt lat="44.400244141677824" lon="10.473668033416173"><ele>404.5</ele><time>2026-04-18T08:35:37Z</time></trkpt><trkpt lat="44.40025218436178" lon="10.47349765387813"><ele>403.25</ele><time>2026-04-18T08:35:38Z</time></trkpt><trkpt lat="44.4002697465425" lon="10.473325914735842"><ele>402.0</ele><time>2026-04-18T08:35:39Z</time></trkpt><trkpt lat="44.4003068899903" lon="10.473135715849786"><ele>399.0</ele><time>2026-04-18T08:35:40Z</time></trkpt><trkpt lat="44.40036184826667" lon="10.472923745819031"><ele>396.0</ele><time>2026-04-18T08:35:41Z</time></trkpt><trkpt lat="44.40043302626241" lon="10.472700403775374"><ele>393.0</ele><time>2026-04-18T08:35:42Z</time></trkpt><trkpt lat="44.40051635181794" lon="10.472460762465081"><ele>391.33333333333337</ele><time>2026-04-18T08:35:43Z</time></trkpt><trkpt lat="44.400597430945034" lon="10.472218941216164"><ele>389.6666666666667</ele><time>2026-04-18T08:35:44Z</time></trkpt><trkpt lat="44.40067312516477" lon="10.471989829135657"><ele>388.0</ele><time>2026-04-18T08:35:45Z</time></trkpt><trkpt lat="44.400744759988775" lon="10.471767344061194"><ele>388.0</ele><time>2026-04-18T08:35:46Z</time></trkpt><trkpt lat="44.400816408653036" lon="10.471547857427215"><ele>388.0</ele><time>2026-04-18T08:35:47Z</time></trkpt><trkpt lat="44.40088644740665" lon="10.471346063215018"><ele>388.0</ele><time>2026-04-18T08:35:48Z</time></trkpt><trkpt lat="44.40094631723846" lon="10.47116858108149"><ele>389.25</ele><time>2026-04-18T08:35:49Z</time></trkpt><trkpt lat="44.40100150522235" lon="10.471001137589495"><ele>390.5</ele><time>2026-04-18T08:35:50Z</time></trkpt><trkpt lat="44.40105991481417" lon="10.470820563313458"><ele>391.75</ele><time>2026-04-18T08:35:51Z</time></trkpt><trkpt lat="44.40112082561217" lon="10.470630880430402"><ele>393.0</ele><time>2026-04-18T08:35:52Z</time></trkpt><trkpt lat="44.401183908962274" lon="10.470434503104219"><ele>394.0</ele><time>2026-04-18T08:35:53Z</time></trkpt><trkpt lat="44.401249197033984" lon="10.47023050343519"><ele>395.0</ele><time>2026-04-18T08:35:54Z</time></trkpt><trkpt lat="44.401316422487895" lon="10.47002025830249"><ele>396.0</ele><time>2026-04-18T08:35:55Z</time></trkpt><trkpt lat="44.40138585492289" lon="10.469811683690859"><ele>396.66666666666663</ele><time>2026-04-18T08:35:56Z</time></trkpt><trkpt lat="44.40145755192721" lon="10.469600119350426"><ele>397.3333333333333</ele><time>2026-04-18T08:35:57Z</time></trkpt><trkpt lat="44.401524602296156" lon="10.469393139174189"><ele>398.0</ele><time>2026-04-18T08:35:58Z</time></trkpt><trkpt lat="44.401588921655986" lon="10.469186903931353"><ele>398.0</ele><time>2026-04-18T08:35:59Z</time></trkpt><trkpt lat="44.401656712272846" lon="10.468995376757814"><ele>398.0</ele><time>2026-04-18T08:36:00Z</time></trkpt><trkpt lat="44.401722893245896" lon="10.468806550479018"><ele>398.0</ele><time>2026-04-18T08:36:01Z</time></trkpt><trkpt lat="44.40176449769727" lon="10.468611337911737"><ele>398.0</ele><time>2026-04-18T08:36:02Z</time></trkpt><trkpt lat="44.4017937913555" lon="10.468396905194695"><ele>398.3333333333333</ele><time>2026-04-18T08:36:03Z</time></trkpt><trkpt lat="44.40178974914571" lon="10.468159259678554"><ele>398.66666666666663</ele><time>2026-04-18T08:36:04Z</time></trkpt><trkpt lat="44.4017583491025" lon="10.467939799857902"><ele>399.0</ele><time>2026-04-18T08:36:05Z</time></trkpt><trkpt lat="44.40173407548011" lon="10.46774334840552"><ele>399.0</ele><time>2026-04-18T08:36:06Z</time></trkpt><trkpt lat="44.401742930728865" lon="10.467547176829598"><ele>399.0</ele><time>2026-04-18T08:36:07Z</time></trkpt><trkpt lat="44.401771988257764" lon="10.467361487083004"><ele>399.0</ele><time>2026-04-18T08:36:08Z</time></trkpt><trkpt lat="44.401834317543" lon="10.467193773717732"><ele>399.0</ele><time>2026-04-18T08:36:09Z</time></trkpt><trkpt lat="44.40192980060425" lon="10.467043451507436"><ele>397.0</ele><time>2026-04-18T08:36:10Z</time></trkpt><trkpt lat="44.4020650818196" lon="10.466893680095469"><ele>395.0</ele><time>2026-04-18T08:36:11Z</time></trkpt><trkpt lat="44.40225686273435" lon="10.466768210155571"><ele>393.0</ele><time>2026-04-18T08:36:12Z</time></trkpt><trkpt lat="44.40248442515668" lon="10.466559898680545"><ele>388.5</ele><time>2026-04-18T08:36:13Z</time></trkpt><trkpt lat="44.402721264529895" lon="10.466343456960207"><ele>384.0</ele><time>2026-04-18T08:36:14Z</time></trkpt><trkpt lat="44.40291864745682" lon="10.466163081366762"><ele>384.0</ele><time>2026-04-18T08:36:15Z</time></trkpt><trkpt lat="44.40310102677747" lon="10.465996513558485"><ele>384.0</ele><time>2026-04-18T08:36:16Z</time></trkpt><trkpt lat="44.40327267901909" lon="10.465840555066151"><ele>384.0</ele><time>2026-04-18T08:36:17Z</time></trkpt><trkpt lat="44.403422430715494" lon="10.465696144623331"><ele>384.0</ele><time>2026-04-18T08:36:18Z</time></trkpt><trkpt lat="44.403565843960656" lon="10.46562225201072"><ele>384.0</ele><time>2026-04-18T08:36:19Z</time></trkpt><trkpt lat="44.40372112189177" lon="10.465634235045474"><ele>384.0</ele><time>2026-04-18T08:36:20Z</time></trkpt><trkpt lat="44.40391761088803" lon="10.46562634345524"><ele>386.75</ele><time>2026-04-18T08:36:21Z</time></trkpt><trkpt lat="44.4040928474437" lon="10.465630225100265"><ele>389.5</ele><time>2026-04-18T08:36:22Z</time></trkpt><trkpt lat="44.404229501988155" lon="10.465652392858992"><ele>392.25</ele><time>2026-04-18T08:36:23Z</time></trkpt><trkpt lat="44.404337522664804" lon="10.46572162822718"><ele>395.0</ele><time>2026-04-18T08:36:24Z</time></trkpt><trkpt lat="44.40447196526221" lon="10.465868162587773"><ele>395.0</ele><time>2026-04-18T08:36:25Z</time></trkpt><trkpt lat="44.40464617852182" lon="10.466051979836113"><ele>395.0</ele><time>2026-04-18T08:36:26Z</time></trkpt><trkpt lat="44.40480420484168" lon="10.46621550359795"><ele>395.0</ele><time>2026-04-18T08:36:27Z</time></trkpt><trkpt lat="44.404925753922896" lon="10.466340643168524"><ele>393.5</ele><time>2026-04-18T08:36:28Z</time></trkpt><trkpt lat="44.40503683056691" lon="10.466435220263794"><ele>392.0</ele><time>2026-04-18T08:36:29Z</time></trkpt><trkpt lat="44.40515039110909" lon="10.46650202458929"><ele>390.5</ele><time>2026-04-18T08:36:30Z</time></trkpt><trkpt lat="44.40528961581921" lon="10.46650057331196"><ele>389.0</ele><time>2026-04-18T08:36:31Z</time></trkpt><trkpt lat="44.40543891598713" lon="10.466451992645407"><ele>389.3333333333333</ele><time>2026-04-18T08:36:32Z</time></trkpt><trkpt lat="44.4056178032697" lon="10.466352070846025"><ele>389.66666666666663</ele><time>2026-04-18T08:36:33Z</time></trkpt><trkpt lat="44.40583231079247" lon="10.4661977956882"><ele>390.0</ele><time>2026-04-18T08:36:34Z</time></trkpt><trkpt lat="44.406064464498925" lon="10.466080609609676"><ele>393.66666666666663</ele><time>2026-04-18T08:36:35Z</time></trkpt><trkpt lat="44.406263263969485" lon="10.465977833652387"><ele>397.3333333333333</ele><time>2026-04-18T08:36:36Z</time></trkpt><trkpt lat="44.40644049204543" lon="10.465901332193951"><ele>401.0</ele><time>2026-04-18T08:36:37Z</time></trkpt><trkpt lat="44.40659746972917" lon="10.465834645464536"><ele>401.0</ele><time>2026-04-18T08:36:38Z</time></trkpt><trkpt lat="44.406746377363554" lon="10.465771064266782"><ele>401.0</ele><time>2026-04-18T08:36:39Z</time></trkpt><trkpt lat="44.40687966684521" lon="10.465718967848968"><ele>401.0</ele><time>2026-04-18T08:36:40Z</time></trkpt><trkpt lat="44.40700022075725" lon="10.465685458481822"><ele>401.0</ele><time>2026-04-18T08:36:41Z</time></trkpt><trkpt lat="44.407124852223795" lon="10.465671476317434"><ele>399.0</ele><time>2026-04-18T08:36:42Z</time></trkpt><trkpt lat="44.407234927665286" lon="10.465658512826497"><ele>397.0</ele><time>2026-04-18T08:36:43Z</time></trkpt><trkpt lat="44.40737147679982" lon="10.46560933467274"><ele>395.0</ele><time>2026-04-18T08:36:44Z</time></trkpt><trkpt lat="44.407556511068286" lon="10.465464999317144"><ele>398.66666666666663</ele><time>2026-04-18T08:36:45Z</time></trkpt><trkpt lat="44.407709089311204" lon="10.465317047470036"><ele>402.33333333333337</ele><time>2026-04-18T08:36:46Z</time></trkpt><trkpt lat="44.40782520814846" lon="10.465204450926771"><ele>406.0</ele><time>2026-04-18T08:36:47Z</time></trkpt><trkpt lat="44.40794555310964" lon="10.465056038181949"><ele>406.0</ele><time>2026-04-18T08:36:48Z</time></trkpt><trkpt lat="44.408085370124205" lon="10.464903456037176"><ele>406.0</ele><time>2026-04-18T08:36:49Z</time></trkpt><trkpt lat="44.408214699354545" lon="10.464739962095235"><ele>406.0</ele><time>2026-04-18T08:36:50Z</time></trkpt><trkpt lat="44.408344539065446" lon="10.464578409859099"><ele>406.0</ele><time>2026-04-18T08:36:51Z</time></trkpt><trkpt lat="44.40847037210774" lon="10.464419451890597"><ele>406.0</ele><time>2026-04-18T08:36:52Z</time></trkpt><trkpt lat="44.40859275236477" lon="10.464264482364387"><ele>406.0</ele><time>2026-04-18T08:36:53Z</time></trkpt><trkpt lat="44.40871576200307" lon="10.464142680362784"><ele>404.0</ele><time>2026-04-18T08:36:54Z</time></trkpt><trkpt lat="44.40885107073794" lon="10.464055922489353"><ele>402.0</ele><time>2026-04-18T08:36:55Z</time></trkpt><trkpt lat="44.409003857844674" lon="10.464004669979937"><ele>400.0</ele><time>2026-04-18T08:36:56Z</time></trkpt><trkpt lat="44.409169286290854" lon="10.464002380604695"><ele>400.0</ele><time>2026-04-18T08:36:57Z</time></trkpt><trkpt lat="44.409329790259314" lon="10.463968255951718"><ele>400.0</ele><time>2026-04-18T08:36:58Z</time></trkpt><trkpt lat="44.40949213758761" lon="10.46385983647835"><ele>400.0</ele><time>2026-04-18T08:36:59Z</time></trkpt><trkpt lat="44.40966011982918" lon="10.463742939322486"><ele>402.0</ele><time>2026-04-18T08:37:00Z</time></trkpt><trkpt lat="44.40982213816261" lon="10.463625843062616"><ele>404.0</ele><time>2026-04-18T08:37:01Z</time></trkpt><trkpt lat="44.40997994923334" lon="10.463521348718247"><ele>406.0</ele><time>2026-04-18T08:37:02Z</time></trkpt><trkpt lat="44.41012743019592" lon="10.463413473576573"><ele>406.0</ele><time>2026-04-18T08:37:03Z</time></trkpt><trkpt lat="44.41026829953964" lon="10.463264600522576"><ele>406.0</ele><time>2026-04-18T08:37:04Z</time></trkpt><trkpt lat="44.41040324929498" lon="10.463070985182494"><ele>406.0</ele><time>2026-04-18T08:37:05Z</time></trkpt><trkpt lat="44.41051816557534" lon="10.462859812151354"><ele>404.6666666666667</ele><time>2026-04-18T08:37:06.001Z</time></trkpt><trkpt lat="44.41062482987055" lon="10.46265464783269"><ele>403.33333333333337</ele><time>2026-04-18T08:37:07.001Z</time></trkpt><trkpt lat="44.41071837262845" lon="10.462471232460748"><ele>402.0</ele><time>2026-04-18T08:37:08.001Z</time></trkpt><trkpt lat="44.41081128918161" lon="10.462315983257236"><ele>402.0</ele><time>2026-04-18T08:37:09.001Z</time></trkpt><trkpt lat="44.41091547518482" lon="10.462189569234248"><ele>402.0</ele><time>2026-04-18T08:37:10.001Z</time></trkpt><trkpt lat="44.41104800009245" lon="10.462102605768827"><ele>402.0</ele><time>2026-04-18T08:37:11.001Z</time></trkpt><trkpt lat="44.411191833179835" lon="10.461979008173639"><ele>405.0</ele><time>2026-04-18T08:37:12.001Z</time></trkpt><trkpt lat="44.411364302333396" lon="10.46185302565984"><ele>408.0</ele><time>2026-04-18T08:37:13.001Z</time></trkpt><trkpt lat="44.41153282180208" lon="10.46163826616185"><ele>411.0</ele><time>2026-04-18T08:37:14.001Z</time></trkpt><trkpt lat="44.41166870775303" lon="10.46139167857655"><ele>409.33333333333337</ele><time>2026-04-18T08:37:15.001Z</time></trkpt><trkpt lat="44.41181453800102" lon="10.461148819379178"><ele>407.6666666666667</ele><time>2026-04-18T08:37:16.001Z</time></trkpt><trkpt lat="44.41198020378448" lon="10.460956852889101"><ele>406.0</ele><time>2026-04-18T08:37:17.001Z</time></trkpt><trkpt lat="44.41219595090899" lon="10.46080049968969"><ele>407.5</ele><time>2026-04-18T08:37:18.001Z</time></trkpt><trkpt lat="44.41243754181306" lon="10.460589905095382"><ele>409.0</ele><time>2026-04-18T08:37:19.001Z</time></trkpt><trkpt lat="44.412654625924766" lon="10.460427693221105"><ele>409.0</ele><time>2026-04-18T08:37:20.001Z</time></trkpt><trkpt lat="44.412850744418904" lon="10.460270477723551"><ele>409.0</ele><time>2026-04-18T08:37:21.001Z</time></trkpt><trkpt lat="44.41301623994976" lon="10.46011262551168"><ele>409.0</ele><time>2026-04-18T08:37:22.001Z</time></trkpt><trkpt lat="44.41315082138307" lon="10.459955395282751"><ele>409.5</ele><time>2026-04-18T08:37:23.001Z</time></trkpt><trkpt lat="44.41326625603352" lon="10.459804274549462"><ele>410.0</ele><time>2026-04-18T08:37:24.001Z</time></trkpt><trkpt lat="44.41333968391512" lon="10.45963990294963"><ele>410.5</ele><time>2026-04-18T08:37:25.001Z</time></trkpt><trkpt lat="44.41340924568729" lon="10.459477125340335"><ele>411.0</ele><time>2026-04-18T08:37:26.001Z</time></trkpt><trkpt lat="44.413551094204614" lon="10.459407678714019"><ele>411.0</ele><time>2026-04-18T08:37:27.001Z</time></trkpt><trkpt lat="44.4136840205336" lon="10.459360455813705"><ele>411.0</ele><time>2026-04-18T08:37:28.001Z</time></trkpt><trkpt lat="44.41381248653792" lon="10.45929601328509"><ele>411.0</ele><time>2026-04-18T08:37:29.001Z</time></trkpt><trkpt lat="44.41391860252769" lon="10.45926792344196"><ele>411.0</ele><time>2026-04-18T08:37:30.001Z</time></trkpt><trkpt lat="44.414024660640735" lon="10.45923917886549"><ele>412.75</ele><time>2026-04-18T08:37:31.001Z</time></trkpt><trkpt lat="44.414139454437844" lon="10.459237730452731"><ele>414.5</ele><time>2026-04-18T08:37:32.001Z</time></trkpt><trkpt lat="44.41425967460137" lon="10.459233675119679"><ele>416.25</ele><time>2026-04-18T08:37:33.001Z</time></trkpt><trkpt lat="44.41438574237121" lon="10.459211434291406"><ele>418.0</ele><time>2026-04-18T08:37:34.001Z</time></trkpt><trkpt lat="44.41451167613015" lon="10.459223823356334"><ele>418.0</ele><time>2026-04-18T08:37:35.001Z</time></trkpt><trkpt lat="44.41463183839257" lon="10.459226738915005"><ele>418.0</ele><time>2026-04-18T08:37:36.001Z</time></trkpt><trkpt lat="44.41475166880866" lon="10.459189778293526"><ele>418.0</ele><time>2026-04-18T08:37:37.001Z</time></trkpt><trkpt lat="44.414879418715685" lon="10.459089768919563"><ele>418.0</ele><time>2026-04-18T08:37:38.001Z</time></trkpt><trkpt lat="44.41499850235878" lon="10.458933118195919"><ele>417.75</ele><time>2026-04-18T08:37:39.001Z</time></trkpt><trkpt lat="44.41509612940631" lon="10.458791350489873"><ele>417.5</ele><time>2026-04-18T08:37:40.001Z</time></trkpt><trkpt lat="44.41519261132288" lon="10.458660610120967"><ele>417.25</ele><time>2026-04-18T08:37:41.001Z</time></trkpt><trkpt lat="44.41527899195003" lon="10.458540592205877"><ele>417.0</ele><time>2026-04-18T08:37:42.001Z</time></trkpt><trkpt lat="44.415370820535585" lon="10.458422773032517"><ele>417.0</ele><time>2026-04-18T08:37:43.001Z</time></trkpt><trkpt lat="44.415483058792034" lon="10.458323593946671"><ele>417.0</ele><time>2026-04-18T08:37:44.001Z</time></trkpt><trkpt lat="44.41562258929213" lon="10.458273537246848"><ele>417.0</ele><time>2026-04-18T08:37:45.001Z</time></trkpt><trkpt lat="44.41576854171669" lon="10.458253967926806"><ele>417.0</ele><time>2026-04-18T08:37:46.001Z</time></trkpt><trkpt lat="44.41591282950265" lon="10.458259377290695"><ele>419.0</ele><time>2026-04-18T08:37:47.001Z</time></trkpt><trkpt lat="44.416051720504" lon="10.458265817725314"><ele>421.0</ele><time>2026-04-18T08:37:48.001Z</time></trkpt><trkpt lat="44.41618171329481" lon="10.458243500533436"><ele>423.0</ele><time>2026-04-18T08:37:49.001Z</time></trkpt><trkpt lat="44.416304739890585" lon="10.458235196068596"><ele>425.0</ele><time>2026-04-18T08:37:50.001Z</time></trkpt><trkpt lat="44.41642930528371" lon="10.45819726322823"><ele>424.75</ele><time>2026-04-18T08:37:51.001Z</time></trkpt><trkpt lat="44.41654741334158" lon="10.458122874109671"><ele>424.5</ele><time>2026-04-18T08:37:52.001Z</time></trkpt><trkpt lat="44.416653918619176" lon="10.458014273234202"><ele>424.25</ele><time>2026-04-18T08:37:53.001Z</time></trkpt><trkpt lat="44.41674427071692" lon="10.45787250441713"><ele>424.0</ele><time>2026-04-18T08:37:54.001Z</time></trkpt><trkpt lat="44.41683096421082" lon="10.457721865722359"><ele>424.0</ele><time>2026-04-18T08:37:55.001Z</time></trkpt><trkpt lat="44.41692453500045" lon="10.457566756595723"><ele>424.0</ele><time>2026-04-18T08:37:56.001Z</time></trkpt><trkpt lat="44.41701523901554" lon="10.457409756451641"><ele>424.0</ele><time>2026-04-18T08:37:57.001Z</time></trkpt><trkpt lat="44.417093615674524" lon="10.457238466141234"><ele>424.0</ele><time>2026-04-18T08:37:58.001Z</time></trkpt><trkpt lat="44.4171450067321" lon="10.45704925269479"><ele>427.5</ele><time>2026-04-18T08:37:59.001Z</time></trkpt><trkpt lat="44.41717517719518" lon="10.45686132102184"><ele>431.0</ele><time>2026-04-18T08:38:00.001Z</time></trkpt><trkpt lat="44.41722701454007" lon="10.456678505237193"><ele>434.5</ele><time>2026-04-18T08:38:01.001Z</time></trkpt><trkpt lat="44.41730916261265" lon="10.456516065530625"><ele>438.0</ele><time>2026-04-18T08:38:02.001Z</time></trkpt><trkpt lat="44.41741394021145" lon="10.456378599353686"><ele>435.5</ele><time>2026-04-18T08:38:03.001Z</time></trkpt><trkpt lat="44.417523987708236" lon="10.456247200300757"><ele>433.0</ele><time>2026-04-18T08:38:04.001Z</time></trkpt><trkpt lat="44.41762550645495" lon="10.456119908806981"><ele>430.5</ele><time>2026-04-18T08:38:05.001Z</time></trkpt><trkpt lat="44.41772549651811" lon="10.455997551415367"><ele>428.0</ele><time>2026-04-18T08:38:06.001Z</time></trkpt><trkpt lat="44.41783294232421" lon="10.455905239092969"><ele>428.0</ele><time>2026-04-18T08:38:07.001Z</time></trkpt><trkpt lat="44.417960912013896" lon="10.455853958926351"><ele>428.0</ele><time>2026-04-18T08:38:08Z</time></trkpt><trkpt lat="44.41810070621728" lon="10.455841983594453"><ele>428.0</ele><time>2026-04-18T08:38:09Z</time></trkpt><trkpt lat="44.41824715100678" lon="10.455853003976694"><ele>428.0</ele><time>2026-04-18T08:38:10Z</time></trkpt><trkpt lat="44.41839486879978" lon="10.455896033368752"><ele>428.0</ele><time>2026-04-18T08:38:11Z</time></trkpt><trkpt lat="44.4185411671904" lon="10.455905390732703"><ele>428.0</ele><time>2026-04-18T08:38:12Z</time></trkpt><trkpt lat="44.41867827126439" lon="10.455952799734888"><ele>428.0</ele><time>2026-04-18T08:38:13Z</time></trkpt><trkpt lat="44.41880867598505" lon="10.45600656798931"><ele>428.0</ele><time>2026-04-18T08:38:14Z</time></trkpt><trkpt lat="44.41893574750117" lon="10.456081817889647"><ele>428.0</ele><time>2026-04-18T08:38:15Z</time></trkpt><trkpt lat="44.41905708577601" lon="10.456169634376462"><ele>428.0</ele><time>2026-04-18T08:38:16Z</time></trkpt><trkpt lat="44.41917300880179" lon="10.456269342975068"><ele>428.0</ele><time>2026-04-18T08:38:17Z</time></trkpt><trkpt lat="44.41930693209496" lon="10.45632380974196"><ele>428.0</ele><time>2026-04-18T08:38:18Z</time></trkpt><trkpt lat="44.41944926064116" lon="10.456364663485232"><ele>428.75</ele><time>2026-04-18T08:38:19Z</time></trkpt><trkpt lat="44.419591806097756" lon="10.456403604693552"><ele>429.5</ele><time>2026-04-18T08:38:20Z</time></trkpt><trkpt lat="44.41972962093245" lon="10.4564696572401"><ele>430.25</ele><time>2026-04-18T08:38:21Z</time></trkpt><trkpt lat="44.419852222474745" lon="10.456572297843424"><ele>431.0</ele><time>2026-04-18T08:38:22Z</time></trkpt><trkpt lat="44.41997568065364" lon="10.456659428969717"><ele>431.5</ele><time>2026-04-18T08:38:23Z</time></trkpt><trkpt lat="44.42009235419312" lon="10.45672592102002"><ele>432.0</ele><time>2026-04-18T08:38:24Z</time></trkpt><trkpt lat="44.42021363227368" lon="10.4567163353462"><ele>432.5</ele><time>2026-04-18T08:38:25Z</time></trkpt><trkpt lat="44.42032723068274" lon="10.456650666526022"><ele>433.0</ele><time>2026-04-18T08:38:26Z</time></trkpt><trkpt lat="44.420450806295214" lon="10.456607617328789"><ele>436.0</ele><time>2026-04-18T08:38:27Z</time></trkpt><trkpt lat="44.420557138386066" lon="10.456566190385537"><ele>438.99999999999994</ele><time>2026-04-18T08:38:28Z</time></trkpt><trkpt lat="44.42065431500443" lon="10.456541802011564"><ele>441.99999999999994</ele><time>2026-04-18T08:38:29Z</time></trkpt><trkpt lat="44.42075249243747" lon="10.45654630028717"><ele>445.0</ele><time>2026-04-18T08:38:30Z</time></trkpt><trkpt lat="44.420845811640255" lon="10.456586134845747"><ele>448.0</ele><time>2026-04-18T08:38:31Z</time></trkpt><trkpt lat="44.42093234377465" lon="10.456647765894946"><ele>448.0</ele><time>2026-04-18T08:38:32Z</time></trkpt><trkpt lat="44.42111855793047" lon="10.45681241537724"><ele>448.0</ele><time>2026-04-18T08:38:33Z</time></trkpt><trkpt lat="44.4212127013265" lon="10.456924647082555"><ele>448.0</ele><time>2026-04-18T08:38:34Z</time></trkpt><trkpt lat="44.4212859048042" lon="10.457042810502694"><ele>449.75</ele><time>2026-04-18T08:38:35Z</time></trkpt><trkpt lat="44.42133903148772" lon="10.457183005515793"><ele>451.5</ele><time>2026-04-18T08:38:36Z</time></trkpt><trkpt lat="44.42138643713965" lon="10.45732820596543"><ele>453.25</ele><time>2026-04-18T08:38:37Z</time></trkpt><trkpt lat="44.42144448223892" lon="10.457483270363765"><ele>455.0</ele><time>2026-04-18T08:38:38Z</time></trkpt><trkpt lat="44.421542413303754" lon="10.457583041747833"><ele>455.0</ele><time>2026-04-18T08:38:39Z</time></trkpt><trkpt lat="44.42164919954654" lon="10.457680068843766"><ele>455.0</ele><time>2026-04-18T08:38:40Z</time></trkpt><trkpt lat="44.42175848198067" lon="10.457763735426385"><ele>455.0</ele><time>2026-04-18T08:38:41Z</time></trkpt><trkpt lat="44.4218579761386" lon="10.457849626090761"><ele>455.0</ele><time>2026-04-18T08:38:42Z</time></trkpt><trkpt lat="44.421947081843534" lon="10.457947573468452"><ele>456.25</ele><time>2026-04-18T08:38:43Z</time></trkpt><trkpt lat="44.42204380188955" lon="10.458046384310032"><ele>457.5</ele><time>2026-04-18T08:38:44Z</time></trkpt><trkpt lat="44.422138612661" lon="10.458158118727956"><ele>458.75</ele><time>2026-04-18T08:38:45Z</time></trkpt><trkpt lat="44.422248841489996" lon="10.458254608576322"><ele>460.0</ele><time>2026-04-18T08:38:46Z</time></trkpt><trkpt lat="44.42236538498922" lon="10.458318745132383"><ele>460.0</ele><time>2026-04-18T08:38:47.001Z</time></trkpt><trkpt lat="44.42249032809539" lon="10.458360694222582"><ele>460.0</ele><time>2026-04-18T08:38:48.001Z</time></trkpt><trkpt lat="44.42264597119113" lon="10.458361121946602"><ele>460.0</ele><time>2026-04-18T08:38:49.001Z</time></trkpt><trkpt lat="44.42282658698492" lon="10.458367424558237"><ele>462.0</ele><time>2026-04-18T08:38:50.001Z</time></trkpt><trkpt lat="44.423061392312825" lon="10.458377727019991"><ele>464.0</ele><time>2026-04-18T08:38:51.001Z</time></trkpt><trkpt lat="44.423342138143276" lon="10.458381967871277"><ele>464.0</ele><time>2026-04-18T08:38:52.001Z</time></trkpt><trkpt lat="44.42364864755648" lon="10.458408139347597"><ele>464.0</ele><time>2026-04-18T08:38:53.001Z</time></trkpt><trkpt lat="44.42390546918609" lon="10.458408268712088"><ele>466.66666666666663</ele><time>2026-04-18T08:38:54.001Z</time></trkpt><trkpt lat="44.42412670818222" lon="10.458397281284727"><ele>469.33333333333337</ele><time>2026-04-18T08:38:55.001Z</time></trkpt><trkpt lat="44.42431820878016" lon="10.458388487003159"><ele>472.0</ele><time>2026-04-18T08:38:56.001Z</time></trkpt><trkpt lat="44.424483227773266" lon="10.458379708292274"><ele>472.0</ele><time>2026-04-18T08:38:57.001Z</time></trkpt><trkpt lat="44.424626309155165" lon="10.458358437997946"><ele>472.0</ele><time>2026-04-18T08:38:58.001Z</time></trkpt><trkpt lat="44.42475387324151" lon="10.458246854768767"><ele>472.0</ele><time>2026-04-18T08:38:59.001Z</time></trkpt><trkpt lat="44.42489212757724" lon="10.45807437942884"><ele>479.33333333333337</ele><time>2026-04-18T08:39:00.001Z</time></trkpt><trkpt lat="44.42506485043629" lon="10.457925353296352"><ele>486.66666666666663</ele><time>2026-04-18T08:39:01.001Z</time></trkpt><trkpt lat="44.425261567898765" lon="10.457852933393161"><ele>494.0</ele><time>2026-04-18T08:39:02.001Z</time></trkpt><trkpt lat="44.4254405320701" lon="10.457850470926754"><ele>493.3333333333333</ele><time>2026-04-18T08:39:03.001Z</time></trkpt><trkpt lat="44.425644162720275" lon="10.457820060978744"><ele>492.66666666666663</ele><time>2026-04-18T08:39:04.001Z</time></trkpt><trkpt lat="44.425866905534434" lon="10.457729901731541"><ele>492.0</ele><time>2026-04-18T08:39:05.001Z</time></trkpt><trkpt lat="44.42609492699779" lon="10.457646126822914"><ele>488.0</ele><time>2026-04-18T08:39:06.001Z</time></trkpt><trkpt lat="44.426334576058785" lon="10.45755467917044"><ele>484.0</ele><time>2026-04-18T08:39:07.001Z</time></trkpt><trkpt lat="44.42657699327693" lon="10.457460639902093"><ele>484.0</ele><time>2026-04-18T08:39:08.001Z</time></trkpt><trkpt lat="44.426863441084315" lon="10.457348092430584"><ele>484.0</ele><time>2026-04-18T08:39:09.001Z</time></trkpt><trkpt lat="44.427116754552706" lon="10.457240569134447"><ele>486.5</ele><time>2026-04-18T08:39:10.001Z</time></trkpt><trkpt lat="44.42735086141679" lon="10.457129497206802"><ele>489.0</ele><time>2026-04-18T08:39:11.001Z</time></trkpt><trkpt lat="44.42759083563504" lon="10.457093681607008"><ele>492.0</ele><time>2026-04-18T08:39:12.001Z</time></trkpt><trkpt lat="44.427803174336916" lon="10.457055746986931"><ele>495.0</ele><time>2026-04-18T08:39:13.001Z</time></trkpt><trkpt lat="44.4279972855721" lon="10.457026553528047"><ele>498.0</ele><time>2026-04-18T08:39:14.001Z</time></trkpt><trkpt lat="44.428168196431656" lon="10.456985757814223"><ele>498.0</ele><time>2026-04-18T08:39:15.001Z</time></trkpt><trkpt lat="44.428301229884525" lon="10.456964660330135"><ele>498.0</ele><time>2026-04-18T08:39:16.001Z</time></trkpt><trkpt lat="44.42841290970719" lon="10.45690404355021"><ele>498.0</ele><time>2026-04-18T08:39:17.001Z</time></trkpt><trkpt lat="44.42851810596563" lon="10.456783764252727"><ele>498.0</ele><time>2026-04-18T08:39:18.001Z</time></trkpt><trkpt lat="44.428629887263135" lon="10.456570409735555"><ele>498.0</ele><time>2026-04-18T08:39:19.001Z</time></trkpt><trkpt lat="44.42870568705329" lon="10.456328998323192"><ele>498.0</ele><time>2026-04-18T08:39:20.001Z</time></trkpt><trkpt lat="44.428789758075126" lon="10.45614105827933"><ele>498.0</ele><time>2026-04-18T08:39:21.001Z</time></trkpt><trkpt lat="44.42889117104661" lon="10.456011638422195"><ele>501.0</ele><time>2026-04-18T08:39:22.001Z</time></trkpt><trkpt lat="44.42901769551574" lon="10.455977168070765"><ele>504.0</ele><time>2026-04-18T08:39:23.001Z</time></trkpt><trkpt lat="44.42914205282" lon="10.456009348228168"><ele>507.0</ele><time>2026-04-18T08:39:24.001Z</time></trkpt><trkpt lat="44.4293006303899" lon="10.456030817404795"><ele>510.0</ele><time>2026-04-18T08:39:25.001Z</time></trkpt><trkpt lat="44.42944280567697" lon="10.45602064756053"><ele>510.0</ele><time>2026-04-18T08:39:26.001Z</time></trkpt><trkpt lat="44.42957883734251" lon="10.455997729864047"><ele>510.0</ele><time>2026-04-18T08:39:27.001Z</time></trkpt><trkpt lat="44.42970459554168" lon="10.455877725318455"><ele>510.0</ele><time>2026-04-18T08:39:28.001Z</time></trkpt><trkpt lat="44.42983491259158" lon="10.455676858035286"><ele>511.66666666666663</ele><time>2026-04-18T08:39:29.001Z</time></trkpt><trkpt lat="44.429939791964514" lon="10.455401361815266"><ele>513.3333333333333</ele><time>2026-04-18T08:39:30.001Z</time></trkpt><trkpt lat="44.43004809752022" lon="10.455168417553594"><ele>515.0</ele><time>2026-04-18T08:39:31.001Z</time></trkpt><trkpt lat="44.43022052633039" lon="10.454963602348988"><ele>515.0</ele><time>2026-04-18T08:39:32.001Z</time></trkpt><trkpt lat="44.43043805238666" lon="10.454748820072618"><ele>515.0</ele><time>2026-04-18T08:39:33.001Z</time></trkpt><trkpt lat="44.43064171670369" lon="10.454542999760355"><ele>513.0</ele><time>2026-04-18T08:39:34.001Z</time></trkpt><trkpt lat="44.43081881137793" lon="10.45438643625526"><ele>511.0</ele><time>2026-04-18T08:39:35.001Z</time></trkpt><trkpt lat="44.43104476997316" lon="10.454219135960578"><ele>511.0</ele><time>2026-04-18T08:39:36.001Z</time></trkpt><trkpt lat="44.431266631576015" lon="10.454060208933301"><ele>511.0</ele><time>2026-04-18T08:39:37.001Z</time></trkpt><trkpt lat="44.4314595317924" lon="10.453909796415495"><ele>512.3333333333334</ele><time>2026-04-18T08:39:38.001Z</time></trkpt><trkpt lat="44.43164941822229" lon="10.453745005267352"><ele>513.6666666666666</ele><time>2026-04-18T08:39:39.001Z</time></trkpt><trkpt lat="44.43181861285746" lon="10.453593454783354"><ele>515.0</ele><time>2026-04-18T08:39:40.001Z</time></trkpt><trkpt lat="44.43197741737033" lon="10.453493114528372"><ele>515.0</ele><time>2026-04-18T08:39:41.001Z</time></trkpt><trkpt lat="44.43212673172415" lon="10.45346285981002"><ele>515.0</ele><time>2026-04-18T08:39:42.001Z</time></trkpt><trkpt lat="44.43230410544097" lon="10.453425090045922"><ele>515.0</ele><time>2026-04-18T08:39:43.001Z</time></trkpt><trkpt lat="44.43247198134943" lon="10.453361596795414"><ele>514.0</ele><time>2026-04-18T08:39:44.001Z</time></trkpt><trkpt lat="44.43261976975713" lon="10.453299076778782"><ele>513.0</ele><time>2026-04-18T08:39:45.001Z</time></trkpt><trkpt lat="44.43277309444488" lon="10.453148599322057"><ele>512.0</ele><time>2026-04-18T08:39:46.001Z</time></trkpt><trkpt lat="44.432957284476124" lon="10.452921584036167"><ele>512.6666666666666</ele><time>2026-04-18T08:39:47.001Z</time></trkpt><trkpt lat="44.43311169394594" lon="10.452739866168672"><ele>513.3333333333334</ele><time>2026-04-18T08:39:48.001Z</time></trkpt><trkpt lat="44.43323735314853" lon="10.452588807453521"><ele>514.0</ele><time>2026-04-18T08:39:49.001Z</time></trkpt><trkpt lat="44.43334253634949" lon="10.452421186338842"><ele>514.0</ele><time>2026-04-18T08:39:50.001Z</time></trkpt><trkpt lat="44.433423321893535" lon="10.452210817516942"><ele>514.0</ele><time>2026-04-18T08:39:51.001Z</time></trkpt><trkpt lat="44.433480325101115" lon="10.452011831164436"><ele>514.0</ele><time>2026-04-18T08:39:52.001Z</time></trkpt><trkpt lat="44.43354290563125" lon="10.451864168764684"><ele>514.0</ele><time>2026-04-18T08:39:53.001Z</time></trkpt><trkpt lat="44.433644597804765" lon="10.45179889946532"><ele>513.0</ele><time>2026-04-18T08:39:54.001Z</time></trkpt><trkpt lat="44.43375935314413" lon="10.45179590090238"><ele>512.0</ele><time>2026-04-18T08:39:55.001Z</time></trkpt><trkpt lat="44.43389974559759" lon="10.451762669496842"><ele>511.0</ele><time>2026-04-18T08:39:56.001Z</time></trkpt><trkpt lat="44.43403026712395" lon="10.451706872378088"><ele>510.0</ele><time>2026-04-18T08:39:57.001Z</time></trkpt><trkpt lat="44.434139613762994" lon="10.451671097732095"><ele>510.0</ele><time>2026-04-18T08:39:58.001Z</time></trkpt><trkpt lat="44.434218946715156" lon="10.451557734542334"><ele>510.0</ele><time>2026-04-18T08:39:59.001Z</time></trkpt><trkpt lat="44.434271753955535" lon="10.4513230315317"><ele>510.0</ele><time>2026-04-18T08:40:00.001Z</time></trkpt><trkpt lat="44.43429950849111" lon="10.451051857087984"><ele>511.0</ele><time>2026-04-18T08:40:01.001Z</time></trkpt><trkpt lat="44.43429519864548" lon="10.450746553512028"><ele>512.0</ele><time>2026-04-18T08:40:02.001Z</time></trkpt><trkpt lat="44.43428567673157" lon="10.450514030179683"><ele>513.0</ele><time>2026-04-18T08:40:03.001Z</time></trkpt><trkpt lat="44.43431309581172" lon="10.450332795301259"><ele>513.6666666666666</ele><time>2026-04-18T08:40:04.001Z</time></trkpt><trkpt lat="44.43436953497364" lon="10.45015494636233"><ele>514.3333333333333</ele><time>2026-04-18T08:40:05.001Z</time></trkpt><trkpt lat="44.43448330507468" lon="10.450022133281568"><ele>515.0</ele><time>2026-04-18T08:40:06.001Z</time></trkpt><trkpt lat="44.434635219273076" lon="10.449880967735965"><ele>517.3333333333333</ele><time>2026-04-18T08:40:07.001Z</time></trkpt><trkpt lat="44.43480500377793" lon="10.44973005155936"><ele>519.6666666666666</ele><time>2026-04-18T08:40:08Z</time></trkpt><trkpt lat="44.43494892743225" lon="10.449616846669203"><ele>522.0</ele><time>2026-04-18T08:40:09Z</time></trkpt><trkpt lat="44.435090892656774" lon="10.44953649654975"><ele>522.0</ele><time>2026-04-18T08:40:10Z</time></trkpt><trkpt lat="44.43528068681063" lon="10.449501425161813"><ele>522.0</ele><time>2026-04-18T08:40:11Z</time></trkpt><trkpt lat="44.43550458601225" lon="10.449453341796104"><ele>522.0</ele><time>2026-04-18T08:40:12Z</time></trkpt><trkpt lat="44.43574243659579" lon="10.449422447871344"><ele>527.0</ele><time>2026-04-18T08:40:13Z</time></trkpt><trkpt lat="44.43600913119282" lon="10.449412677373827"><ele>532.0</ele><time>2026-04-18T08:40:14Z</time></trkpt><trkpt lat="44.43632672700617" lon="10.449383400111524"><ele>534.5</ele><time>2026-04-18T08:40:15Z</time></trkpt><trkpt lat="44.436623756753875" lon="10.44937298126888"><ele>537.0</ele><time>2026-04-18T08:40:16Z</time></trkpt><trkpt lat="44.436872953771775" lon="10.449362282514425"><ele>537.0</ele><time>2026-04-18T08:40:17Z</time></trkpt><trkpt lat="44.437091866963264" lon="10.449358590627597"><ele>537.0</ele><time>2026-04-18T08:40:18Z</time></trkpt><trkpt lat="44.43727514049303" lon="10.449357019081441"><ele>537.0</ele><time>2026-04-18T08:40:19Z</time></trkpt><trkpt lat="44.43743825661068" lon="10.449335512011224"><ele>538.3333333333334</ele><time>2026-04-18T08:40:20Z</time></trkpt><trkpt lat="44.43763043614268" lon="10.449253674967704"><ele>539.6666666666667</ele><time>2026-04-18T08:40:21Z</time></trkpt><trkpt lat="44.437837408363" lon="10.449095211216175"><ele>541.0</ele><time>2026-04-18T08:40:22Z</time></trkpt><trkpt lat="44.43801328314708" lon="10.448929807474334"><ele>541.5</ele><time>2026-04-18T08:40:23Z</time></trkpt><trkpt lat="44.43815412752653" lon="10.448830343706172"><ele>542.0</ele><time>2026-04-18T08:40:24Z</time></trkpt><trkpt lat="44.43827118477967" lon="10.448831776509946"><ele>542.5</ele><time>2026-04-18T08:40:25Z</time></trkpt><trkpt lat="44.438369495041286" lon="10.448833589415731"><ele>543.0</ele><time>2026-04-18T08:40:26Z</time></trkpt><trkpt lat="44.438433652710415" lon="10.448977883693724"><ele>543.0</ele><time>2026-04-18T08:40:27Z</time></trkpt><trkpt lat="44.438549794015636" lon="10.449124885687784"><ele>543.0</ele><time>2026-04-18T08:40:28Z</time></trkpt><trkpt lat="44.43870164739662" lon="10.449247590197565"><ele>543.0</ele><time>2026-04-18T08:40:29Z</time></trkpt><trkpt lat="44.43885824113924" lon="10.449357863268418"><ele>548.0</ele><time>2026-04-18T08:40:30Z</time></trkpt><trkpt lat="44.43901496808195" lon="10.44943260838463"><ele>553.0</ele><time>2026-04-18T08:40:31Z</time></trkpt><trkpt lat="44.43915380025761" lon="10.449505625519727"><ele>558.0</ele><time>2026-04-18T08:40:32Z</time></trkpt><trkpt lat="44.439358374377555" lon="10.449511196652033"><ele>558.0</ele><time>2026-04-18T08:40:33Z</time></trkpt><trkpt lat="44.43956409822167" lon="10.449463956783099"><ele>558.0</ele><time>2026-04-18T08:40:34Z</time></trkpt><trkpt lat="44.4397405422973" lon="10.449511350228807"><ele>558.0</ele><time>2026-04-18T08:40:35Z</time></trkpt><trkpt lat="44.43991890027766" lon="10.44959572433238"><ele>559.0</ele><time>2026-04-18T08:40:36Z</time></trkpt><trkpt lat="44.44012189063186" lon="10.449705102008322"><ele>560.0</ele><time>2026-04-18T08:40:37Z</time></trkpt><trkpt lat="44.44029486777289" lon="10.44981898715604"><ele>561.0</ele><time>2026-04-18T08:40:38Z</time></trkpt><trkpt lat="44.44043491991699" lon="10.449885690238695"><ele>562.75</ele><time>2026-04-18T08:40:39Z</time></trkpt><trkpt lat="44.44056685014294" lon="10.44992178004327"><ele>564.5</ele><time>2026-04-18T08:40:40Z</time></trkpt><trkpt lat="44.4406994752674" lon="10.449919968557579"><ele>566.25</ele><time>2026-04-18T08:40:41Z</time></trkpt><trkpt lat="44.440847949345226" lon="10.449865912776467"><ele>568.0</ele><time>2026-04-18T08:40:42Z</time></trkpt><trkpt lat="44.44104223997118" lon="10.449765360858194"><ele>568.0</ele><time>2026-04-18T08:40:43Z</time></trkpt><trkpt lat="44.44125922529494" lon="10.449685722626903"><ele>568.0</ele><time>2026-04-18T08:40:44Z</time></trkpt><trkpt lat="44.44150949022543" lon="10.449671581967827"><ele>571.5</ele><time>2026-04-18T08:40:45Z</time></trkpt><trkpt lat="44.441750052961766" lon="10.449654446667711"><ele>575.0</ele><time>2026-04-18T08:40:46Z</time></trkpt><trkpt lat="44.441958423478354" lon="10.449625454332915"><ele>578.3333333333333</ele><time>2026-04-18T08:40:47Z</time></trkpt><trkpt lat="44.442165954934495" lon="10.44955695980636"><ele>581.6666666666666</ele><time>2026-04-18T08:40:48Z</time></trkpt><trkpt lat="44.44236714936299" lon="10.449472880951925"><ele>585.0</ele><time>2026-04-18T08:40:49Z</time></trkpt><trkpt lat="44.4425611060991" lon="10.449431765458225"><ele>585.0</ele><time>2026-04-18T08:40:50Z</time></trkpt><trkpt lat="44.44272316869334" lon="10.449368248240466"><ele>585.0</ele><time>2026-04-18T08:40:51Z</time></trkpt><trkpt lat="44.442890922279915" lon="10.449244452922061"><ele>585.0</ele><time>2026-04-18T08:40:52Z</time></trkpt><trkpt lat="44.443059364001144" lon="10.449098310580112"><ele>585.6666666666666</ele><time>2026-04-18T08:40:53Z</time></trkpt><trkpt lat="44.44320261012741" lon="10.448944706082724"><ele>586.3333333333333</ele><time>2026-04-18T08:40:54Z</time></trkpt><trkpt lat="44.443341134384" lon="10.448751250283257"><ele>587.0</ele><time>2026-04-18T08:40:55Z</time></trkpt><trkpt lat="44.443461308396174" lon="10.448536235781223"><ele>589.75</ele><time>2026-04-18T08:40:56Z</time></trkpt><trkpt lat="44.443547841600285" lon="10.448362438986312"><ele>592.5</ele><time>2026-04-18T08:40:57Z</time></trkpt><trkpt lat="44.443631171135145" lon="10.448208877912762"><ele>595.25</ele><time>2026-04-18T08:40:58Z</time></trkpt><trkpt lat="44.443725419394234" lon="10.448109275341995"><ele>598.0</ele><time>2026-04-18T08:40:59Z</time></trkpt><trkpt lat="44.44381716867241" lon="10.44807719923218"><ele>599.25</ele><time>2026-04-18T08:41:00Z</time></trkpt><trkpt lat="44.44392142960849" lon="10.448141255899127"><ele>600.5</ele><time>2026-04-18T08:41:01Z</time></trkpt><trkpt lat="44.44400948139235" lon="10.448224613355384"><ele>601.75</ele><time>2026-04-18T08:41:02Z</time></trkpt><trkpt lat="44.444060637139934" lon="10.448384145254234"><ele>603.0</ele><time>2026-04-18T08:41:03Z</time></trkpt><trkpt lat="44.44416001208879" lon="10.448552556190064"><ele>603.0</ele><time>2026-04-18T08:41:04Z</time></trkpt><trkpt lat="44.44429559483706" lon="10.448688096701114"><ele>603.0</ele><time>2026-04-18T08:41:05Z</time></trkpt><trkpt lat="44.44448097004216" lon="10.448773775134171"><ele>603.0</ele><time>2026-04-18T08:41:06Z</time></trkpt><trkpt lat="44.44465103544089" lon="10.448833888756162"><ele>601.6666666666666</ele><time>2026-04-18T08:41:07Z</time></trkpt><trkpt lat="44.44481753325398" lon="10.448870973589807"><ele>600.3333333333333</ele><time>2026-04-18T08:41:08Z</time></trkpt><trkpt lat="44.445031676723275" lon="10.448858907465738"><ele>599.0</ele><time>2026-04-18T08:41:09Z</time></trkpt><trkpt lat="44.44529374168036" lon="10.448795815253849"><ele>604.0</ele><time>2026-04-18T08:41:10Z</time></trkpt><trkpt lat="44.44557327089684" lon="10.44872939960248"><ele>609.0</ele><time>2026-04-18T08:41:11Z</time></trkpt><trkpt lat="44.44583406074369" lon="10.448679954846869"><ele>609.0</ele><time>2026-04-18T08:41:12Z</time></trkpt><trkpt lat="44.44604507381351" lon="10.448640337551915"><ele>609.0</ele><time>2026-04-18T08:41:13Z</time></trkpt><trkpt lat="44.44624490689136" lon="10.44860466638116"><ele>609.0</ele><time>2026-04-18T08:41:14Z</time></trkpt><trkpt lat="44.446454609620986" lon="10.448577261940388"><ele>611.0</ele><time>2026-04-18T08:41:15Z</time></trkpt><trkpt lat="44.44666256386372" lon="10.448545705332018"><ele>613.0</ele><time>2026-04-18T08:41:16Z</time></trkpt><trkpt lat="44.446868011376026" lon="10.448503650509242"><ele>615.0</ele><time>2026-04-18T08:41:17Z</time></trkpt><trkpt lat="44.4470620289417" lon="10.448449657823874"><ele>618.0</ele><time>2026-04-18T08:41:18Z</time></trkpt><trkpt lat="44.44723087563545" lon="10.448388297497273"><ele>621.0</ele><time>2026-04-18T08:41:19Z</time></trkpt><trkpt lat="44.44737710761625" lon="10.448324504626433"><ele>624.0</ele><time>2026-04-18T08:41:20Z</time></trkpt><trkpt lat="44.447497083773825" lon="10.448225214331583"><ele>624.0</ele><time>2026-04-18T08:41:21Z</time></trkpt><trkpt lat="44.44761135440115" lon="10.448129224067447"><ele>624.0</ele><time>2026-04-18T08:41:22Z</time></trkpt><trkpt lat="44.44770962973039" lon="10.448014976320211"><ele>624.0</ele><time>2026-04-18T08:41:23Z</time></trkpt><trkpt lat="44.44776813316294" lon="10.447842776992246"><ele>624.0</ele><time>2026-04-18T08:41:24Z</time></trkpt><trkpt lat="44.44777960815619" lon="10.447665727458057"><ele>627.0</ele><time>2026-04-18T08:41:25Z</time></trkpt><trkpt lat="44.44774800770807" lon="10.447481976112748"><ele>630.0</ele><time>2026-04-18T08:41:26.001Z</time></trkpt><trkpt lat="44.447674376454444" lon="10.447330610178009"><ele>633.0</ele><time>2026-04-18T08:41:27.001Z</time></trkpt><trkpt lat="44.44756745926595" lon="10.447217429706619"><ele>636.0</ele><time>2026-04-18T08:41:28.001Z</time></trkpt><trkpt lat="44.44743978545218" lon="10.447160553354303"><ele>636.0</ele><time>2026-04-18T08:41:29.001Z</time></trkpt><trkpt lat="44.44730562354706" lon="10.447169235863615"><ele>636.0</ele><time>2026-04-18T08:41:30.001Z</time></trkpt><trkpt lat="44.447183971630565" lon="10.447240381459872"><ele>636.0</ele><time>2026-04-18T08:41:31.001Z</time></trkpt><trkpt lat="44.44709665803179" lon="10.447350580393286"><ele>636.0</ele><time>2026-04-18T08:41:32.001Z</time></trkpt><trkpt lat="44.447025273083916" lon="10.447474408963865"><ele>634.25</ele><time>2026-04-18T08:41:33.001Z</time></trkpt><trkpt lat="44.44694382876008" lon="10.447601140528679"><ele>632.5</ele><time>2026-04-18T08:41:34.001Z</time></trkpt><trkpt lat="44.44685260218652" lon="10.447701265405163"><ele>630.75</ele><time>2026-04-18T08:41:35.001Z</time></trkpt><trkpt lat="44.44675153382827" lon="10.447756891269902"><ele>629.0</ele><time>2026-04-18T08:41:36.001Z</time></trkpt><trkpt lat="44.44662734034032" lon="10.447767115399657"><ele>629.0</ele><time>2026-04-18T08:41:37.001Z</time></trkpt><trkpt lat="44.446496265199144" lon="10.447712799199085"><ele>629.0</ele><time>2026-04-18T08:41:38.001Z</time></trkpt><trkpt lat="44.44635404385999" lon="10.447610690519532"><ele>629.0</ele><time>2026-04-18T08:41:39.001Z</time></trkpt><trkpt lat="44.446188274369185" lon="10.44746982649685"><ele>626.3333333333333</ele><time>2026-04-18T08:41:40.001Z</time></trkpt><trkpt lat="44.44599812661662" lon="10.447332825693968"><ele>623.6666666666666</ele><time>2026-04-18T08:41:41.001Z</time></trkpt><trkpt lat="44.44584635324312" lon="10.44722786590301"><ele>621.0</ele><time>2026-04-18T08:41:42.001Z</time></trkpt><trkpt lat="44.44571164499271" lon="10.447139735743905"><ele>623.0</ele><time>2026-04-18T08:41:43.001Z</time></trkpt><trkpt lat="44.4455816688461" lon="10.447064081737944"><ele>625.0</ele><time>2026-04-18T08:41:44.001Z</time></trkpt><trkpt lat="44.445460095702195" lon="10.446974419311793"><ele>627.0</ele><time>2026-04-18T08:41:45.001Z</time></trkpt><trkpt lat="44.44534387795473" lon="10.44688105716702"><ele>629.0</ele><time>2026-04-18T08:41:46.001Z</time></trkpt><trkpt lat="44.44522418016557" lon="10.44678706571792"><ele>629.0</ele><time>2026-04-18T08:41:47.001Z</time></trkpt><trkpt lat="44.44510219547435" lon="10.446675304198203"><ele>629.0</ele><time>2026-04-18T08:41:48.001Z</time></trkpt><trkpt lat="44.44499099249202" lon="10.446534709009532"><ele>629.0</ele><time>2026-04-18T08:41:49.001Z</time></trkpt><trkpt lat="44.44489801129856" lon="10.446378129553189"><ele>629.0</ele><time>2026-04-18T08:41:50.001Z</time></trkpt><trkpt lat="44.444790531223234" lon="10.446201566598432"><ele>629.3333333333333</ele><time>2026-04-18T08:41:51.001Z</time></trkpt><trkpt lat="44.44467915420307" lon="10.44603618122685"><ele>629.6666666666666</ele><time>2026-04-18T08:41:52.001Z</time></trkpt><trkpt lat="44.444564675168" lon="10.445865950371049"><ele>630.0</ele><time>2026-04-18T08:41:53.001Z</time></trkpt><trkpt lat="44.444450299492615" lon="10.445695780790778"><ele>630.0</ele><time>2026-04-18T08:41:54.001Z</time></trkpt><trkpt lat="44.44432858209213" lon="10.445522193943447"><ele>630.0</ele><time>2026-04-18T08:41:55.001Z</time></trkpt><trkpt lat="44.444203554467556" lon="10.445340986111276"><ele>630.0</ele><time>2026-04-18T08:41:56.001Z</time></trkpt><trkpt lat="44.44407452269078" lon="10.445162147060556"><ele>629.3333333333334</ele><time>2026-04-18T08:41:57.001Z</time></trkpt><trkpt lat="44.443938165843974" lon="10.444970720603175"><ele>628.6666666666667</ele><time>2026-04-18T08:41:58.001Z</time></trkpt><trkpt lat="44.44379309670024" lon="10.44476527153512"><ele>628.0</ele><time>2026-04-18T08:41:59.001Z</time></trkpt><trkpt lat="44.44364657913326" lon="10.444554265947842"><ele>629.6666666666667</ele><time>2026-04-18T08:42:00.001Z</time></trkpt><trkpt lat="44.443501160639386" lon="10.444334602185403"><ele>631.3333333333334</ele><time>2026-04-18T08:42:01.001Z</time></trkpt><trkpt lat="44.44335544396333" lon="10.444109359083289"><ele>633.0</ele><time>2026-04-18T08:42:02.001Z</time></trkpt><trkpt lat="44.44321677989596" lon="10.443898257406243"><ele>632.6666666666666</ele><time>2026-04-18T08:42:03.001Z</time></trkpt><trkpt lat="44.443099916591066" lon="10.44372828155626"><ele>632.3333333333333</ele><time>2026-04-18T08:42:04.001Z</time></trkpt><trkpt lat="44.443000773971875" lon="10.443576207204769"><ele>632.0</ele><time>2026-04-18T08:42:05.001Z</time></trkpt><trkpt lat="44.442909447179304" lon="10.443432905911035"><ele>632.0</ele><time>2026-04-18T08:42:06.001Z</time></trkpt><trkpt lat="44.44280991674651" lon="10.443297072229525"><ele>632.0</ele><time>2026-04-18T08:42:07.001Z</time></trkpt><trkpt lat="44.442708576419285" lon="10.44317843624484"><ele>632.0</ele><time>2026-04-18T08:42:08.001Z</time></trkpt><trkpt lat="44.44260125577597" lon="10.443090664731239"><ele>632.0</ele><time>2026-04-18T08:42:09.001Z</time></trkpt><trkpt lat="44.44248712962909" lon="10.443031021822971"><ele>632.0</ele><time>2026-04-18T08:42:10.001Z</time></trkpt><trkpt lat="44.44237122385947" lon="10.442989581378766"><ele>632.0</ele><time>2026-04-18T08:42:11.001Z</time></trkpt><trkpt lat="44.44226238936438" lon="10.442923900855826"><ele>632.0</ele><time>2026-04-18T08:42:12.001Z</time></trkpt><trkpt lat="44.44216365791494" lon="10.44283500098105"><ele>632.0</ele><time>2026-04-18T08:42:13.001Z</time></trkpt><trkpt lat="44.442079153772106" lon="10.442729595055976"><ele>632.75</ele><time>2026-04-18T08:42:14Z</time></trkpt><trkpt lat="44.44199694164771" lon="10.44259214222752"><ele>633.5</ele><time>2026-04-18T08:42:15Z</time></trkpt><trkpt lat="44.441927023535705" lon="10.442424171893117"><ele>634.25</ele><time>2026-04-18T08:42:16Z</time></trkpt><trkpt lat="44.44188250889666" lon="10.442211457490252"><ele>635.0</ele><time>2026-04-18T08:42:17Z</time></trkpt><trkpt lat="44.44186865491995" lon="10.441997807507821"><ele>635.0</ele><time>2026-04-18T08:42:18Z</time></trkpt><trkpt lat="44.44186172999885" lon="10.441799822666601"><ele>635.0</ele><time>2026-04-18T08:42:19Z</time></trkpt><trkpt lat="44.44183346319604" lon="10.441621205458478"><ele>635.0</ele><time>2026-04-18T08:42:20Z</time></trkpt><trkpt lat="44.44175753563553" lon="10.441391063092235"><ele>638.0</ele><time>2026-04-18T08:42:21Z</time></trkpt><trkpt lat="44.44163916798752" lon="10.441093217874"><ele>641.0</ele><time>2026-04-18T08:42:22Z</time></trkpt><trkpt lat="44.44151319971026" lon="10.440851984335378"><ele>641.0</ele><time>2026-04-18T08:42:23Z</time></trkpt><trkpt lat="44.44140110491392" lon="10.440638209314843"><ele>641.0</ele><time>2026-04-18T08:42:24Z</time></trkpt><trkpt lat="44.44131168151324" lon="10.440411704294103"><ele>641.0</ele><time>2026-04-18T08:42:25Z</time></trkpt><trkpt lat="44.441257413439075" lon="10.440190612751097"><ele>640.0</ele><time>2026-04-18T08:42:26Z</time></trkpt><trkpt lat="44.441213086843184" lon="10.439921289310236"><ele>639.0</ele><time>2026-04-18T08:42:27Z</time></trkpt><trkpt lat="44.44116087926751" lon="10.439626075585668"><ele>638.0</ele><time>2026-04-18T08:42:28Z</time></trkpt><trkpt lat="44.44106736612783" lon="10.439373039396598"><ele>638.0</ele><time>2026-04-18T08:42:29Z</time></trkpt><trkpt lat="44.44094926987233" lon="10.439102921595609"><ele>638.0</ele><time>2026-04-18T08:42:30Z</time></trkpt><trkpt lat="44.44081876164765" lon="10.438836078439948"><ele>640.0</ele><time>2026-04-18T08:42:31Z</time></trkpt><trkpt lat="44.44067487401432" lon="10.438574120443668"><ele>642.0</ele><time>2026-04-18T08:42:32Z</time></trkpt><trkpt lat="44.440516201002055" lon="10.438324099792082"><ele>641.0</ele><time>2026-04-18T08:42:33Z</time></trkpt><trkpt lat="44.44036263502229" lon="10.438107849728242"><ele>640.0</ele><time>2026-04-18T08:42:34Z</time></trkpt><trkpt lat="44.440212318882075" lon="10.437919200015346"><ele>639.0</ele><time>2026-04-18T08:42:35Z</time></trkpt><trkpt lat="44.440077643094035" lon="10.437760915742517"><ele>644.6666666666666</ele><time>2026-04-18T08:42:36Z</time></trkpt><trkpt lat="44.43994210445292" lon="10.437599975893134"><ele>650.3333333333333</ele><time>2026-04-18T08:42:37Z</time></trkpt><trkpt lat="44.439806925755455" lon="10.43743484193181"><ele>656.0</ele><time>2026-04-18T08:42:38Z</time></trkpt><trkpt lat="44.43966619325212" lon="10.437273138455554"><ele>659.3333333333333</ele><time>2026-04-18T08:42:39Z</time></trkpt><trkpt lat="44.439530430696344" lon="10.437120136950337"><ele>662.6666666666666</ele><time>2026-04-18T08:42:40Z</time></trkpt><trkpt lat="44.43939605902201" lon="10.436959972265086"><ele>666.0</ele><time>2026-04-18T08:42:41Z</time></trkpt><trkpt lat="44.439248308504716" lon="10.436782093153987"><ele>666.0</ele><time>2026-04-18T08:42:42Z</time></trkpt><trkpt lat="44.43910318606196" lon="10.436617616287254"><ele>666.0</ele><time>2026-04-18T08:42:43.05Z</time></trkpt><trkpt lat="44.4389650339675" lon="10.436460288377873"><ele>666.0</ele><time>2026-04-18T08:42:44.051Z</time></trkpt><trkpt lat="44.438842200036504" lon="10.43628147405775"><ele>673.0</ele><time>2026-04-18T08:42:45.048Z</time></trkpt><trkpt lat="44.43744211249499" lon="10.434267657570535"><ele>671.0</ele><time>2026-04-18T08:42:49.034Z</time></trkpt><trkpt lat="44.4372110794111" lon="10.433400973261255"><ele>671.0</ele><time>2026-04-18T08:43:00Z</time></trkpt><trkpt lat="44.43715600843335" lon="10.433190038478736"><ele>671.0</ele><time>2026-04-18T08:43:01Z</time></trkpt><trkpt lat="44.437114586217724" lon="10.433033671430815"><ele>671.0</ele><time>2026-04-18T08:43:02Z</time></trkpt><trkpt lat="44.437057825304564" lon="10.432873347261232"><ele>671.0</ele><time>2026-04-18T08:43:03Z</time></trkpt><trkpt lat="44.43701342729905" lon="10.432697994307162"><ele>668.25</ele><time>2026-04-18T08:43:04Z</time></trkpt><trkpt lat="44.436995335298" lon="10.432516601998074"><ele>665.5</ele><time>2026-04-18T08:43:05Z</time></trkpt><trkpt lat="44.43697772722598" lon="10.432331110284087"><ele>662.75</ele><time>2026-04-18T08:43:06Z</time></trkpt><trkpt lat="44.43697204431794" lon="10.4321619812973"><ele>660.0</ele><time>2026-04-18T08:43:07Z</time></trkpt><trkpt lat="44.43695708371702" lon="10.431987044110919"><ele>660.0</ele><time>2026-04-18T08:43:08Z</time></trkpt><trkpt lat="44.43693514862922" lon="10.43181361570373"><ele>660.0</ele><time>2026-04-18T08:43:09Z</time></trkpt><trkpt lat="44.4369247030173" lon="10.43163489691472"><ele>660.0</ele><time>2026-04-18T08:43:10Z</time></trkpt><trkpt lat="44.436914700791604" lon="10.431445660968377"><ele>660.0</ele><time>2026-04-18T08:43:11Z</time></trkpt><trkpt lat="44.43690599919718" lon="10.431220011366923"><ele>661.0</ele><time>2026-04-18T08:43:12Z</time></trkpt><trkpt lat="44.43688852009395" lon="10.430945027655856"><ele>662.0</ele><time>2026-04-18T08:43:13Z</time></trkpt><trkpt lat="44.436836928827915" lon="10.430673047989842"><ele>663.0</ele><time>2026-04-18T08:43:14Z</time></trkpt><trkpt lat="44.436751569527296" lon="10.430413238708487"><ele>664.3333333333334</ele><time>2026-04-18T08:43:15Z</time></trkpt><trkpt lat="44.436660326192786" lon="10.430176151678818"><ele>665.6666666666667</ele><time>2026-04-18T08:43:16Z</time></trkpt><trkpt lat="44.43658291295648" lon="10.430005614550435"><ele>667.0</ele><time>2026-04-18T08:43:17Z</time></trkpt><trkpt lat="44.43650678535903" lon="10.429813972093536"><ele>667.0</ele><time>2026-04-18T08:43:18Z</time></trkpt><trkpt lat="44.436446206776345" lon="10.429647332144421"><ele>667.0</ele><time>2026-04-18T08:43:19Z</time></trkpt><trkpt lat="44.43640461829036" lon="10.429488515825069"><ele>667.0</ele><time>2026-04-18T08:43:20Z</time></trkpt><trkpt lat="44.43637467726864" lon="10.429309837260764"><ele>667.0</ele><time>2026-04-18T08:43:21Z</time></trkpt><trkpt lat="44.43636414195434" lon="10.429102353836402"><ele>667.6666666666667</ele><time>2026-04-18T08:43:22Z</time></trkpt><trkpt lat="44.43636372509004" lon="10.428894034006673"><ele>668.3333333333334</ele><time>2026-04-18T08:43:23.001Z</time></trkpt><trkpt lat="44.43635310849705" lon="10.428669065628666"><ele>669.0</ele><time>2026-04-18T08:43:24.001Z</time></trkpt><trkpt lat="44.43634554166633" lon="10.428398862975664"><ele>669.0</ele><time>2026-04-18T08:43:25.001Z</time></trkpt><trkpt lat="44.436330469190075" lon="10.428141849422856"><ele>669.0</ele><time>2026-04-18T08:43:26.001Z</time></trkpt><trkpt lat="44.43631184612752" lon="10.427839512119357"><ele>669.0</ele><time>2026-04-18T08:43:27.001Z</time></trkpt><trkpt lat="44.4362944437292" lon="10.42752939735494"><ele>666.0</ele><time>2026-04-18T08:43:28.001Z</time></trkpt><trkpt lat="44.43628091975714" lon="10.427245564345009"><ele>663.0</ele><time>2026-04-18T08:43:29.001Z</time></trkpt><trkpt lat="44.4362545999347" lon="10.426983293304671"><ele>660.0</ele><time>2026-04-18T08:43:30.001Z</time></trkpt><trkpt lat="44.43618962679425" lon="10.42672092703767"><ele>660.0</ele><time>2026-04-18T08:43:31.001Z</time></trkpt><trkpt lat="44.43608920832298" lon="10.426465857106368"><ele>660.0</ele><time>2026-04-18T08:43:32.001Z</time></trkpt><trkpt lat="44.43599074399254" lon="10.426236598479985"><ele>660.0</ele><time>2026-04-18T08:43:33.001Z</time></trkpt><trkpt lat="44.435904390964836" lon="10.426038640902041"><ele>660.0</ele><time>2026-04-18T08:43:34.001Z</time></trkpt><trkpt lat="44.43581574810179" lon="10.42586356035069"><ele>660.0</ele><time>2026-04-18T08:43:35.001Z</time></trkpt><trkpt lat="44.43571438378273" lon="10.425710063107346"><ele>660.0</ele><time>2026-04-18T08:43:36.001Z</time></trkpt><trkpt lat="44.43560926352131" lon="10.425586556117644"><ele>660.0</ele><time>2026-04-18T08:43:37.001Z</time></trkpt><trkpt lat="44.435518266551064" lon="10.425474408360177"><ele>660.0</ele><time>2026-04-18T08:43:38.001Z</time></trkpt><trkpt lat="44.4354693456975" lon="10.425347772679654"><ele>660.0</ele><time>2026-04-18T08:43:39.001Z</time></trkpt><trkpt lat="44.435453016119766" lon="10.425209111845728"><ele>660.0</ele><time>2026-04-18T08:43:40.001Z</time></trkpt><trkpt lat="44.435471284583336" lon="10.42504228731761"><ele>660.0</ele><time>2026-04-18T08:43:41.001Z</time></trkpt><trkpt lat="44.43549412318057" lon="10.424836495245911"><ele>659.0</ele><time>2026-04-18T08:43:42.001Z</time></trkpt><trkpt lat="44.43552045419243" lon="10.42456845476164"><ele>658.0</ele><time>2026-04-18T08:43:43.001Z</time></trkpt><trkpt lat="44.43556842841338" lon="10.424343970504186"><ele>657.0</ele><time>2026-04-18T08:43:44.001Z</time></trkpt><trkpt lat="44.43557935845397" lon="10.424084875029985"><ele>657.5</ele><time>2026-04-18T08:43:45.001Z</time></trkpt><trkpt lat="44.43554047911044" lon="10.423788778455535"><ele>658.0</ele><time>2026-04-18T08:43:46.001Z</time></trkpt><trkpt lat="44.43545752998164" lon="10.423476271009294"><ele>664.0</ele><time>2026-04-18T08:43:47.001Z</time></trkpt><trkpt lat="44.43534865777713" lon="10.423179690474395"><ele>670.0</ele><time>2026-04-18T08:43:48.001Z</time></trkpt><trkpt lat="44.43524001060814" lon="10.422905570505042"><ele>670.0</ele><time>2026-04-18T08:43:49.001Z</time></trkpt><trkpt lat="44.43515737793256" lon="10.422638537204168"><ele>670.0</ele><time>2026-04-18T08:43:50.001Z</time></trkpt><trkpt lat="44.435094724242774" lon="10.422354956167382"><ele>670.0</ele><time>2026-04-18T08:43:51.001Z</time></trkpt><trkpt lat="44.435053479171955" lon="10.422087669747205"><ele>669.3333333333334</ele><time>2026-04-18T08:43:52.001Z</time></trkpt><trkpt lat="44.43501378304574" lon="10.421821755378327"><ele>668.6666666666666</ele><time>2026-04-18T08:43:53.001Z</time></trkpt><trkpt lat="44.43497477279449" lon="10.421566938359494"><ele>668.0</ele><time>2026-04-18T08:43:54.001Z</time></trkpt><trkpt lat="44.43492786593403" lon="10.421318190854835"><ele>667.3333333333333</ele><time>2026-04-18T08:43:55.001Z</time></trkpt><trkpt lat="44.434871248945235" lon="10.421072556792065"><ele>666.6666666666666</ele><time>2026-04-18T08:43:56.001Z</time></trkpt><trkpt lat="44.43476363515681" lon="10.42078506637258"><ele>666.0</ele><time>2026-04-18T08:43:57.001Z</time></trkpt><trkpt lat="44.434617961205454" lon="10.420428664451906"><ele>673.5</ele><time>2026-04-18T08:43:58.001Z</time></trkpt><trkpt lat="44.43447032478398" lon="10.420086967651123"><ele>681.0</ele><time>2026-04-18T08:43:59.001Z</time></trkpt><trkpt lat="44.43436835434119" lon="10.419771626000456"><ele>681.5</ele><time>2026-04-18T08:44:00.001Z</time></trkpt><trkpt lat="44.43428686613003" lon="10.419450500749445"><ele>682.0</ele><time>2026-04-18T08:44:01.001Z</time></trkpt><trkpt lat="44.43422203081487" lon="10.419127628633676"><ele>682.0</ele><time>2026-04-18T08:44:02.001Z</time></trkpt><trkpt lat="44.4341695156477" lon="10.41884897358414"><ele>682.0</ele><time>2026-04-18T08:44:03.001Z</time></trkpt><trkpt lat="44.434096899693905" lon="10.418580398661652"><ele>682.0</ele><time>2026-04-18T08:44:04.001Z</time></trkpt><trkpt lat="44.43400531815931" lon="10.418324281268367"><ele>682.0</ele><time>2026-04-18T08:44:05.001Z</time></trkpt><trkpt lat="44.433900211964854" lon="10.418078189685678"><ele>682.0</ele><time>2026-04-18T08:44:06.001Z</time></trkpt><trkpt lat="44.43378854004122" lon="10.417841880906762"><ele>682.0</ele><time>2026-04-18T08:44:07.001Z</time></trkpt><trkpt lat="44.43369175429238" lon="10.417626860266726"><ele>685.0</ele><time>2026-04-18T08:44:08.001Z</time></trkpt><trkpt lat="44.43360342525036" lon="10.417428172970471"><ele>688.0</ele><time>2026-04-18T08:44:09.001Z</time></trkpt><trkpt lat="44.4335211216107" lon="10.417247586745814"><ele>691.0</ele><time>2026-04-18T08:44:10.001Z</time></trkpt><trkpt lat="44.43345140712098" lon="10.417098205965075"><ele>694.0</ele><time>2026-04-18T08:44:11.001Z</time></trkpt><trkpt lat="44.433407139041655" lon="10.416956443725496"><ele>694.0</ele><time>2026-04-18T08:44:12.001Z</time></trkpt><trkpt lat="44.43338686126741" lon="10.416825604593798"><ele>694.0</ele><time>2026-04-18T08:44:13.001Z</time></trkpt><trkpt lat="44.433383250311444" lon="10.416697515250979"><ele>694.0</ele><time>2026-04-18T08:44:14.001Z</time></trkpt><trkpt lat="44.433388361210866" lon="10.416573859568992"><ele>694.0</ele><time>2026-04-18T08:44:15.001Z</time></trkpt><trkpt lat="44.433401868288406" lon="10.416468984159438"><ele>694.0</ele><time>2026-04-18T08:44:16.001Z</time></trkpt><trkpt lat="44.43344024414721" lon="10.41630825496115"><ele>692.6</ele><time>2026-04-18T08:44:18.001Z</time></trkpt><trkpt lat="44.433456476969766" lon="10.416144249727704"><ele>691.2</ele><time>2026-04-18T08:44:20.001Z</time></trkpt><trkpt lat="44.43342801629514" lon="10.41606087885937"><ele>689.8000000000001</ele><time>2026-04-18T08:44:21.001Z</time></trkpt><trkpt lat="44.43335197095501" lon="10.415991875717715"><ele>688.4000000000001</ele><time>2026-04-18T08:44:22.001Z</time></trkpt><trkpt lat="44.43322377913981" lon="10.415912864391835"><ele>687.0</ele><time>2026-04-18T08:44:23.001Z</time></trkpt><trkpt lat="44.43308861097508" lon="10.415838664792004"><ele>687.0</ele><time>2026-04-18T08:44:24.001Z</time></trkpt><trkpt lat="44.433005852957585" lon="10.415655849892005"><ele>687.0</ele><time>2026-04-18T08:44:25.001Z</time></trkpt><trkpt lat="44.432939046337495" lon="10.415479670462561"><ele>687.0</ele><time>2026-04-18T08:44:26.001Z</time></trkpt><trkpt lat="44.432913237109105" lon="10.415260804125815"><ele>695.0</ele><time>2026-04-18T08:44:27.001Z</time></trkpt><trkpt lat="44.43288808836971" lon="10.415008294270734"><ele>703.0</ele><time>2026-04-18T08:44:28.001Z</time></trkpt><trkpt lat="44.432874221297986" lon="10.414736675647365"><ele>711.0</ele><time>2026-04-18T08:44:29.001Z</time></trkpt><trkpt lat="44.4328664033777" lon="10.41445058189214"><ele>712.0</ele><time>2026-04-18T08:44:30.001Z</time></trkpt><trkpt lat="44.4329097839284" lon="10.414135849542708"><ele>713.0</ele><time>2026-04-18T08:44:31.001Z</time></trkpt><trkpt lat="44.43298580889671" lon="10.413812085256291"><ele>708.0</ele><time>2026-04-18T08:44:32.001Z</time></trkpt><trkpt lat="44.43306224957719" lon="10.413523587877012"><ele>703.0</ele><time>2026-04-18T08:44:33Z</time></trkpt><trkpt lat="44.433140777870804" lon="10.413271832742334"><ele>698.0</ele><time>2026-04-18T08:44:34Z</time></trkpt><trkpt lat="44.43319275769643" lon="10.413040040185198"><ele>700.3333333333333</ele><time>2026-04-18T08:44:35Z</time></trkpt><trkpt lat="44.433229582508616" lon="10.412814071694156"><ele>702.6666666666666</ele><time>2026-04-18T08:44:36Z</time></trkpt><trkpt lat="44.433246394816756" lon="10.412569104509208"><ele>705.0</ele><time>2026-04-18T08:44:37Z</time></trkpt><trkpt lat="44.43323390262645" lon="10.412330740636126"><ele>709.0</ele><time>2026-04-18T08:44:38Z</time></trkpt><trkpt lat="44.433202530623106" lon="10.41210271734776"><ele>713.0</ele><time>2026-04-18T08:44:39Z</time></trkpt><trkpt lat="44.433142971605285" lon="10.411879886469132"><ele>717.0</ele><time>2026-04-18T08:44:40Z</time></trkpt><trkpt lat="44.433054499610215" lon="10.411677496968606"><ele>716.5</ele><time>2026-04-18T08:44:41Z</time></trkpt><trkpt lat="44.43296045856584" lon="10.411505522425959"><ele>716.0</ele><time>2026-04-18T08:44:42Z</time></trkpt><trkpt lat="44.43288103683165" lon="10.411361972990683"><ele>715.5</ele><time>2026-04-18T08:44:43Z</time></trkpt><trkpt lat="44.43281562858068" lon="10.411244403570825"><ele>715.0</ele><time>2026-04-18T08:44:44Z</time></trkpt><trkpt lat="44.43275897269923" lon="10.411157363693945"><ele>715.5714285714286</ele><time>2026-04-18T08:44:45Z</time></trkpt><trkpt lat="44.432699165129684" lon="10.41107266917997"><ele>716.1428571428571</ele><time>2026-04-18T08:44:46Z</time></trkpt><trkpt lat="44.432641579632495" lon="10.410987091029623"><ele>716.7142857142857</ele><time>2026-04-18T08:44:47Z</time></trkpt><trkpt lat="44.43259191037866" lon="10.410922687031396"><ele>717.2857142857142</ele><time>2026-04-18T08:44:48Z</time></trkpt><trkpt lat="44.43254639574325" lon="10.410859315176348"><ele>717.8571428571429</ele><time>2026-04-18T08:44:49Z</time></trkpt><trkpt lat="44.43250851439862" lon="10.410786093531215"><ele>718.4285714285713</ele><time>2026-04-18T08:44:50Z</time></trkpt><trkpt lat="44.43248756074452" lon="10.410701317748634"><ele>719.0</ele><time>2026-04-18T08:44:51Z</time></trkpt><trkpt lat="44.43248309415492" lon="10.410608228584133"><ele>719.0</ele><time>2026-04-18T08:44:52Z</time></trkpt><trkpt lat="44.43248295660557" lon="10.4105012630835"><ele>719.0</ele><time>2026-04-18T08:44:53Z</time></trkpt><trkpt lat="44.43248364709214" lon="10.41035275153367"><ele>719.0</ele><time>2026-04-18T08:44:54Z</time></trkpt><trkpt lat="44.43250229573947" lon="10.410164988315723"><ele>719.0</ele><time>2026-04-18T08:44:55Z</time></trkpt><trkpt lat="44.43253893440455" lon="10.409962125340085"><ele>719.3333333333333</ele><time>2026-04-18T08:44:56Z</time></trkpt><trkpt lat="44.43259068027664" lon="10.409742522612103"><ele>719.6666666666666</ele><time>2026-04-18T08:44:57Z</time></trkpt><trkpt lat="44.432651608099654" lon="10.409529188830557"><ele>720.0</ele><time>2026-04-18T08:44:58Z</time></trkpt><trkpt lat="44.43271434893247" lon="10.409313332933191"><ele>719.5</ele><time>2026-04-18T08:44:59Z</time></trkpt><trkpt lat="44.43277308094994" lon="10.409108702689299"><ele>719.0</ele><time>2026-04-18T08:45:00Z</time></trkpt><trkpt lat="44.432825360252416" lon="10.408928672776879"><ele>718.5</ele><time>2026-04-18T08:45:01Z</time></trkpt><trkpt lat="44.43287769271124" lon="10.408763208922512"><ele>718.0</ele><time>2026-04-18T08:45:02Z</time></trkpt><trkpt lat="44.432929244337714" lon="10.408613800683023"><ele>715.4</ele><time>2026-04-18T08:45:03Z</time></trkpt><trkpt lat="44.43300388596978" lon="10.408498631122807"><ele>712.8</ele><time>2026-04-18T08:45:04Z</time></trkpt><trkpt lat="44.43306916317381" lon="10.408392731397957"><ele>710.2</ele><time>2026-04-18T08:45:05Z</time></trkpt><trkpt lat="44.433160426873485" lon="10.408312040407793"><ele>707.6</ele><time>2026-04-18T08:45:06Z</time></trkpt><trkpt lat="44.43324569601045" lon="10.408254271872636"><ele>705.0</ele><time>2026-04-18T08:45:07Z</time></trkpt><trkpt lat="44.433321462794005" lon="10.408199202459844"><ele>705.0</ele><time>2026-04-18T08:45:08Z</time></trkpt><trkpt lat="44.433384674156535" lon="10.408176436466285"><ele>705.0</ele><time>2026-04-18T08:45:09Z</time></trkpt><trkpt lat="44.43349585168451" lon="10.408100980447257"><ele>705.0</ele><time>2026-04-18T08:45:11Z</time></trkpt><trkpt lat="44.43356739366132" lon="10.408050208998873"><ele>705.0</ele><time>2026-04-18T08:45:13Z</time></trkpt><trkpt lat="44.433647977072454" lon="10.407990709622277"><ele>705.0</ele><time>2026-04-18T08:45:15Z</time></trkpt><trkpt lat="44.433737267391884" lon="10.407973151609323"><ele>704.3333333333334</ele><time>2026-04-18T08:45:17Z</time></trkpt><trkpt lat="44.43381459525441" lon="10.407958547069867"><ele>703.6666666666666</ele><time>2026-04-18T08:45:19.001Z</time></trkpt><trkpt lat="44.433870913813664" lon="10.407844056226997"><ele>703.0</ele><time>2026-04-18T08:45:21.001Z</time></trkpt><trkpt lat="44.43385770324202" lon="10.407756457577143"><ele>702.3333333333333</ele><time>2026-04-18T08:45:22.001Z</time></trkpt><trkpt lat="44.43383162227683" lon="10.407655606435288"><ele>701.6666666666666</ele><time>2026-04-18T08:45:23.001Z</time></trkpt><trkpt lat="44.43381965407576" lon="10.407530875004817"><ele>701.0</ele><time>2026-04-18T08:45:24.001Z</time></trkpt><trkpt lat="44.43383192860062" lon="10.407399068561316"><ele>701.0</ele><time>2026-04-18T08:45:25.001Z</time></trkpt><trkpt lat="44.43386417258376" lon="10.407282832237803"><ele>701.0</ele><time>2026-04-18T08:45:26.001Z</time></trkpt><trkpt lat="44.43389689650232" lon="10.40717397085867"><ele>701.0</ele><time>2026-04-18T08:45:27.001Z</time></trkpt><trkpt lat="44.43392495004916" lon="10.407059847356997"><ele>701.0</ele><time>2026-04-18T08:45:28.001Z</time></trkpt><trkpt lat="44.433948676203215" lon="10.406945825562355"><ele>701.0</ele><time>2026-04-18T08:45:29.001Z</time></trkpt><trkpt lat="44.43397477327975" lon="10.406828673261028"><ele>701.0</ele><time>2026-04-18T08:45:30.001Z</time></trkpt><trkpt lat="44.43400043416316" lon="10.406711280046393"><ele>700.6666666666666</ele><time>2026-04-18T08:45:31.001Z</time></trkpt><trkpt lat="44.43402760826235" lon="10.40659040979524"><ele>700.3333333333333</ele><time>2026-04-18T08:45:32.001Z</time></trkpt><trkpt lat="44.43405301963907" lon="10.406470980578487"><ele>700.0</ele><time>2026-04-18T08:45:33.001Z</time></trkpt><trkpt lat="44.43407141900659" lon="10.40635324845887"><ele>699.6666666666666</ele><time>2026-04-18T08:45:34.001Z</time></trkpt><trkpt lat="44.434084856505486" lon="10.406252480056851"><ele>699.3333333333334</ele><time>2026-04-18T08:45:35.001Z</time></trkpt><trkpt lat="44.434092169107075" lon="10.406164337641933"><ele>699.0</ele><time>2026-04-18T08:45:36.001Z</time></trkpt><trkpt lat="44.43410097308311" lon="10.406001558989974"><ele>698.75</ele><time>2026-04-18T08:45:38.001Z</time></trkpt><trkpt lat="44.43409571047872" lon="10.405867070204557"><ele>698.5</ele><time>2026-04-18T08:45:40.001Z</time></trkpt><trkpt lat="44.43407238329083" lon="10.405752020397792"><ele>698.25</ele><time>2026-04-18T08:45:42.001Z</time></trkpt><trkpt lat="44.434038686681795" lon="10.405539638834847"><ele>698.0</ele><time>2026-04-18T08:45:44.001Z</time></trkpt><trkpt lat="44.434000031424" lon="10.405337525967905"><ele>698.0</ele><time>2026-04-18T08:45:45.001Z</time></trkpt><trkpt lat="44.43393155367635" lon="10.405128663226968"><ele>698.0</ele><time>2026-04-18T08:45:46.001Z</time></trkpt><trkpt lat="44.43383427629995" lon="10.40492242812029"><ele>698.0</ele><time>2026-04-18T08:45:47.001Z</time></trkpt><trkpt lat="44.433740134177214" lon="10.404720018441267"><ele>696.3333333333333</ele><time>2026-04-18T08:45:48.001Z</time></trkpt><trkpt lat="44.43365274694485" lon="10.404515440549446"><ele>694.6666666666666</ele><time>2026-04-18T08:45:49.001Z</time></trkpt><trkpt lat="44.433573740542" lon="10.404325287139992"><ele>693.0</ele><time>2026-04-18T08:45:50.001Z</time></trkpt><trkpt lat="44.43349537659715" lon="10.404145794418593"><ele>693.0</ele><time>2026-04-18T08:45:51.001Z</time></trkpt><trkpt lat="44.433425311933654" lon="10.403977362998921"><ele>693.0</ele><time>2026-04-18T08:45:52.001Z</time></trkpt><trkpt lat="44.43334202494824" lon="10.403796294847027"><ele>693.0</ele><time>2026-04-18T08:45:53.001Z</time></trkpt><trkpt lat="44.43327141632317" lon="10.403638170978613"><ele>693.0</ele><time>2026-04-18T08:45:54.001Z</time></trkpt><trkpt lat="44.4332101742284" lon="10.403509091457805"><ele>694.1666666666666</ele><time>2026-04-18T08:45:55.001Z</time></trkpt><trkpt lat="44.43316020027505" lon="10.403399600977126"><ele>695.3333333333334</ele><time>2026-04-18T08:45:56.001Z</time></trkpt><trkpt lat="44.43311442092369" lon="10.403302535847986"><ele>696.5</ele><time>2026-04-18T08:45:57.001Z</time></trkpt><trkpt lat="44.433077303835795" lon="10.403224550554937"><ele>697.6666666666667</ele><time>2026-04-18T08:45:58.001Z</time></trkpt><trkpt lat="44.433029523688894" lon="10.40313358363556"><ele>698.8333333333334</ele><time>2026-04-18T08:46:01.001Z</time></trkpt><trkpt lat="44.43297266309149" lon="10.403064815386081"><ele>700.0</ele><time>2026-04-18T08:46:05.001Z</time></trkpt><trkpt lat="44.432842690143545" lon="10.403198912542974"><ele>698.4</ele><time>2026-04-18T08:46:11.001Z</time></trkpt><trkpt lat="44.432783590926164" lon="10.403107148371948"><ele>696.8</ele><time>2026-04-18T08:46:14.001Z</time></trkpt><trkpt lat="44.432888358501714" lon="10.403146057856068"><ele>695.2</ele><time>2026-04-18T08:52:35.001Z</time></trkpt><trkpt lat="44.4329079178108" lon="10.40304127363704"><ele>693.6</ele><time>2026-04-18T08:52:48.001Z</time></trkpt><trkpt lat="44.4328235863589" lon="10.402933238346032"><ele>692.0</ele><time>2026-04-18T08:52:51Z</time></trkpt><trkpt lat="44.432851330247644" lon="10.402795218539632"><ele>692.0</ele><time>2026-04-18T08:52:52Z</time></trkpt><trkpt lat="44.4328147151927" lon="10.402713996867604"><ele>692.0</ele><time>2026-04-18T08:52:53Z</time></trkpt><trkpt lat="44.43277950247085" lon="10.402631255425373"><ele>692.0</ele><time>2026-04-18T08:52:54Z</time></trkpt><trkpt lat="44.43274217397581" lon="10.402545020483943"><ele>692.0</ele><time>2026-04-18T08:52:55Z</time></trkpt><trkpt lat="44.43270720344895" lon="10.402461858315755"><ele>692.0</ele><time>2026-04-18T08:52:56Z</time></trkpt><trkpt lat="44.432672205873246" lon="10.402372571159713"><ele>692.0</ele><time>2026-04-18T08:52:57Z</time></trkpt><trkpt lat="44.43263765735411" lon="10.40228133441474"><ele>692.0</ele><time>2026-04-18T08:52:58Z</time></trkpt><trkpt lat="44.4326027799856" lon="10.402203026286466"><ele>692.4000000000001</ele><time>2026-04-18T08:52:59Z</time></trkpt><trkpt lat="44.432565925387436" lon="10.40213075470135"><ele>692.8000000000001</ele><time>2026-04-18T08:53:00Z</time></trkpt><trkpt lat="44.43250298218092" lon="10.401996884867375"><ele>693.2</ele><time>2026-04-18T08:53:02Z</time></trkpt><trkpt lat="44.43243684920498" lon="10.401841347789357"><ele>693.6</ele><time>2026-04-18T08:53:04Z</time></trkpt><trkpt lat="44.43239847029426" lon="10.401758775717495"><ele>694.0</ele><time>2026-04-18T08:53:05Z</time></trkpt><trkpt lat="44.43236226143083" lon="10.401671261652213"><ele>694.0</ele><time>2026-04-18T08:53:06Z</time></trkpt><trkpt lat="44.43232743367041" lon="10.401587972219575"><ele>694.0</ele><time>2026-04-18T08:53:07Z</time></trkpt><trkpt lat="44.4322877489386" lon="10.401498730614955"><ele>694.0</ele><time>2026-04-18T08:53:08Z</time></trkpt><trkpt lat="44.43224753789227" lon="10.401408952998889"><ele>694.0</ele><time>2026-04-18T08:53:09Z</time></trkpt><trkpt lat="44.432210711406206" lon="10.40132189723513"><ele>694.0</ele><time>2026-04-18T08:53:10Z</time></trkpt><trkpt lat="44.43217485576923" lon="10.40123950931762"><ele>694.0</ele><time>2026-04-18T08:53:11Z</time></trkpt><trkpt lat="44.43214057663439" lon="10.401161593525014"><ele>694.0</ele><time>2026-04-18T08:53:12Z</time></trkpt><trkpt lat="44.43208093677503" lon="10.401029753627373"><ele>694.0</ele><time>2026-04-18T08:53:14Z</time></trkpt><trkpt lat="44.43202458467185" lon="10.400906147176949"><ele>694.0</ele><time>2026-04-18T08:53:16Z</time></trkpt><trkpt lat="44.431963866462375" lon="10.400762637963725"><ele>694.0</ele><time>2026-04-18T08:53:18Z</time></trkpt><trkpt lat="44.43189649058057" lon="10.400607132034358"><ele>694.0</ele><time>2026-04-18T08:53:20Z</time></trkpt><trkpt lat="44.431857461832415" lon="10.400519377889182"><ele>694.0</ele><time>2026-04-18T08:53:21Z</time></trkpt><trkpt lat="44.431818091635755" lon="10.40042838536306"><ele>694.0</ele><time>2026-04-18T08:53:22Z</time></trkpt><trkpt lat="44.43177137462864" lon="10.400322707917923"><ele>694.0</ele><time>2026-04-18T08:53:23Z</time></trkpt><trkpt lat="44.431714699495465" lon="10.400199755382726"><ele>694.0</ele><time>2026-04-18T08:53:24Z</time></trkpt><trkpt lat="44.431663310893256" lon="10.400081926577599"><ele>694.0</ele><time>2026-04-18T08:53:25Z</time></trkpt><trkpt lat="44.4316126372044" lon="10.399967773471696"><ele>694.0</ele><time>2026-04-18T08:53:26Z</time></trkpt><trkpt lat="44.43156303191423" lon="10.399852924074263"><ele>694.0</ele><time>2026-04-18T08:53:27Z</time></trkpt><trkpt lat="44.43151550349177" lon="10.399741950312801"><ele>694.0</ele><time>2026-04-18T08:53:28Z</time></trkpt><trkpt lat="44.43147386431098" lon="10.399647494842952"><ele>694.0</ele><time>2026-04-18T08:53:29Z</time></trkpt><trkpt lat="44.43141832660216" lon="10.399536228901644"><ele>694.0</ele><time>2026-04-18T08:53:31Z</time></trkpt><trkpt lat="44.431323881448265" lon="10.399355601370038"><ele>694.0</ele><time>2026-04-18T08:53:33Z</time></trkpt><trkpt lat="44.43125102507372" lon="10.399189378586115"><ele>693.6666666666667</ele><time>2026-04-18T08:53:34Z</time></trkpt><trkpt lat="44.43116756489662" lon="10.398924617492622"><ele>693.3333333333334</ele><time>2026-04-18T08:53:35Z</time></trkpt><trkpt lat="44.43109439872111" lon="10.398676813580312"><ele>693.0</ele><time>2026-04-18T08:53:36Z</time></trkpt><trkpt lat="44.43103180048023" lon="10.39849376658961"><ele>693.0</ele><time>2026-04-18T08:53:37Z</time></trkpt><trkpt lat="44.43101649219168" lon="10.398344065477618"><ele>693.0</ele><time>2026-04-18T08:53:38Z</time></trkpt><trkpt lat="44.43101948743857" lon="10.398214006611397"><ele>693.0</ele><time>2026-04-18T08:53:39Z</time></trkpt><trkpt lat="44.43102745515388" lon="10.398098610843673"><ele>693.0</ele><time>2026-04-18T08:53:40Z</time></trkpt><trkpt lat="44.43103968904864" lon="10.398006229286004"><ele>693.0</ele><time>2026-04-18T08:53:41Z</time></trkpt><trkpt lat="44.431055630142765" lon="10.397905315798146"><ele>693.0</ele><time>2026-04-18T08:53:42Z</time></trkpt><trkpt lat="44.431077213565196" lon="10.397797234399581"><ele>692.4</ele><time>2026-04-18T08:53:43Z</time></trkpt><trkpt lat="44.431109116819115" lon="10.397665179363178"><ele>691.8</ele><time>2026-04-18T08:53:44Z</time></trkpt><trkpt lat="44.43114080627308" lon="10.397536390445337"><ele>691.2</ele><time>2026-04-18T08:53:45Z</time></trkpt><trkpt lat="44.431171163852426" lon="10.39739929274656"><ele>690.6</ele><time>2026-04-18T08:53:46Z</time></trkpt><trkpt lat="44.431199804982406" lon="10.397267830701628"><ele>690.0</ele><time>2026-04-18T08:53:47Z</time></trkpt><trkpt lat="44.43122321876514" lon="10.397164273007041"><ele>689.1666666666666</ele><time>2026-04-18T08:53:48Z</time></trkpt><trkpt lat="44.431239852837535" lon="10.3970774932415"><ele>688.3333333333334</ele><time>2026-04-18T08:53:49Z</time></trkpt><trkpt lat="44.431272872925035" lon="10.39691562025094"><ele>687.5</ele><time>2026-04-18T08:53:51Z</time></trkpt><trkpt lat="44.43129307019793" lon="10.396826145712058"><ele>686.6666666666667</ele><time>2026-04-18T08:53:52Z</time></trkpt><trkpt lat="44.431317623486706" lon="10.396721844819556"><ele>685.8333333333334</ele><time>2026-04-18T08:53:53Z</time></trkpt><trkpt lat="44.43134198099278" lon="10.396623055132569"><ele>685.0</ele><time>2026-04-18T08:53:54Z</time></trkpt><trkpt lat="44.431362175768925" lon="10.396531660994565"><ele>688.2</ele><time>2026-04-18T08:53:55Z</time></trkpt><trkpt lat="44.4313940608231" lon="10.396378604974693"><ele>691.4</ele><time>2026-04-18T08:53:57Z</time></trkpt><trkpt lat="44.43141648318797" lon="10.39623844205147"><ele>694.5999999999999</ele><time>2026-04-18T08:53:59Z</time></trkpt><trkpt lat="44.43142266983056" lon="10.396100593950203"><ele>697.8</ele><time>2026-04-18T08:54:01Z</time></trkpt><trkpt lat="44.431425452353714" lon="10.395933803650447"><ele>701.0</ele><time>2026-04-18T08:54:03Z</time></trkpt><trkpt lat="44.43142435939276" lon="10.395825083473206"><ele>701.0</ele><time>2026-04-18T08:54:04Z</time></trkpt><trkpt lat="44.43142016911768" lon="10.39570673690346"><ele>701.0</ele><time>2026-04-18T08:54:05Z</time></trkpt><trkpt lat="44.431407694393975" lon="10.395578974586869"><ele>701.0</ele><time>2026-04-18T08:54:06Z</time></trkpt><trkpt lat="44.43137178690273" lon="10.39545837787712"><ele>701.0</ele><time>2026-04-18T08:54:07Z</time></trkpt><trkpt lat="44.43132330706646" lon="10.395351545559564"><ele>701.0</ele><time>2026-04-18T08:54:08Z</time></trkpt><trkpt lat="44.431276061467436" lon="10.395258038842913"><ele>701.0</ele><time>2026-04-18T08:54:09Z</time></trkpt><trkpt lat="44.431229373238324" lon="10.39517873959303"><ele>699.5999999999999</ele><time>2026-04-18T08:54:10Z</time></trkpt><trkpt lat="44.43118220538032" lon="10.395114224457716"><ele>698.2</ele><time>2026-04-18T08:54:11Z</time></trkpt><trkpt lat="44.43110191107243" lon="10.395008403126068"><ele>696.8</ele><time>2026-04-18T08:54:13Z</time></trkpt><trkpt lat="44.43102920525545" lon="10.394922269067301"><ele>695.4000000000001</ele><time>2026-04-18T08:54:15Z</time></trkpt><trkpt lat="44.430948093602765" lon="10.39483018658693"><ele>694.0</ele><time>2026-04-18T08:54:17Z</time></trkpt><trkpt lat="44.43084961766082" lon="10.394717909638173"><ele>693.4000000000001</ele><time>2026-04-18T08:54:19Z</time></trkpt><trkpt lat="44.43080032123257" lon="10.394662443759449"><ele>692.8</ele><time>2026-04-18T08:54:20Z</time></trkpt><trkpt lat="44.4307052629769" lon="10.394549592958871"><ele>692.2</ele><time>2026-04-18T08:54:22Z</time></trkpt><trkpt lat="44.430617890559006" lon="10.3944367868352"><ele>691.5999999999999</ele><time>2026-04-18T08:54:24Z</time></trkpt><trkpt lat="44.43053434006451" lon="10.394328164432384"><ele>691.0</ele><time>2026-04-18T08:54:26Z</time></trkpt><trkpt lat="44.43045385799117" lon="10.394249445434216"><ele>691.0</ele><time>2026-04-18T08:54:28Z</time></trkpt><trkpt lat="44.430373380587945" lon="10.394162854046707"><ele>691.0</ele><time>2026-04-18T08:54:30Z</time></trkpt><trkpt lat="44.43032266009898" lon="10.394102487072132"><ele>691.0</ele><time>2026-04-18T08:54:31Z</time></trkpt><trkpt lat="44.43026920123549" lon="10.394036208630082"><ele>691.0</ele><time>2026-04-18T08:54:32Z</time></trkpt><trkpt lat="44.43021254260123" lon="10.393972000373026"><ele>691.0</ele><time>2026-04-18T08:54:33Z</time></trkpt><trkpt lat="44.430146299793876" lon="10.393899731683597"><ele>691.0</ele><time>2026-04-18T08:54:34Z</time></trkpt><trkpt lat="44.430077190021706" lon="10.393815955650895"><ele>693.75</ele><time>2026-04-18T08:54:35Z</time></trkpt><trkpt lat="44.430007470503405" lon="10.39370886861909"><ele>696.5</ele><time>2026-04-18T08:54:36Z</time></trkpt><trkpt lat="44.42993737769243" lon="10.393582683713879"><ele>699.25</ele><time>2026-04-18T08:54:37Z</time></trkpt><trkpt lat="44.42986989056651" lon="10.393426554439014"><ele>702.0</ele><time>2026-04-18T08:54:38Z</time></trkpt><trkpt lat="44.42980114353925" lon="10.393235276060064"><ele>702.0</ele><time>2026-04-18T08:54:39Z</time></trkpt><trkpt lat="44.42973795204702" lon="10.39302698402093"><ele>702.0</ele><time>2026-04-18T08:54:40Z</time></trkpt><trkpt lat="44.42967894668755" lon="10.392823836859296"><ele>702.0</ele><time>2026-04-18T08:54:41Z</time></trkpt><trkpt lat="44.4296137440991" lon="10.392622811237564"><ele>698.0</ele><time>2026-04-18T08:54:42Z</time></trkpt><trkpt lat="44.429549900650294" lon="10.3924243188121"><ele>694.0</ele><time>2026-04-18T08:54:43Z</time></trkpt><trkpt lat="44.429488695523276" lon="10.39222391435793"><ele>690.0</ele><time>2026-04-18T08:54:44Z</time></trkpt><trkpt lat="44.4294301501559" lon="10.392024710334784"><ele>690.0</ele><time>2026-04-18T08:54:45Z</time></trkpt><trkpt lat="44.42937128676558" lon="10.391827358178654"><ele>690.0</ele><time>2026-04-18T08:54:46Z</time></trkpt><trkpt lat="44.429305990219994" lon="10.391621299345147"><ele>690.0</ele><time>2026-04-18T08:54:47Z</time></trkpt><trkpt lat="44.42924032657604" lon="10.391416585345608"><ele>691.0</ele><time>2026-04-18T08:54:48Z</time></trkpt><trkpt lat="44.42917583462249" lon="10.39121523969046"><ele>692.0</ele><time>2026-04-18T08:54:49Z</time></trkpt><trkpt lat="44.4291157041344" lon="10.391020273051407"><ele>693.0</ele><time>2026-04-18T08:54:50Z</time></trkpt><trkpt lat="44.42905690111726" lon="10.390841723529958"><ele>693.0</ele><time>2026-04-18T08:54:51Z</time></trkpt><trkpt lat="44.429008215268" lon="10.390671523468058"><ele>693.0</ele><time>2026-04-18T08:54:52Z</time></trkpt><trkpt lat="44.42897332026761" lon="10.390495682440697"><ele>693.0</ele><time>2026-04-18T08:54:53Z</time></trkpt><trkpt lat="44.428959685966646" lon="10.39031746929866"><ele>693.0</ele><time>2026-04-18T08:54:54Z</time></trkpt><trkpt lat="44.42895982444952" lon="10.390130520997683"><ele>692.5</ele><time>2026-04-18T08:54:55Z</time></trkpt><trkpt lat="44.4289790081644" lon="10.389939765103552"><ele>692.0</ele><time>2026-04-18T08:54:56Z</time></trkpt><trkpt lat="44.429025278163074" lon="10.389753055953033"><ele>691.5</ele><time>2026-04-18T08:54:57Z</time></trkpt><trkpt lat="44.429099017175595" lon="10.389559383089717"><ele>691.0</ele><time>2026-04-18T08:54:58Z</time></trkpt><trkpt lat="44.42919700007202" lon="10.389365632222383"><ele>687.6666666666667</ele><time>2026-04-18T08:54:59Z</time></trkpt><trkpt lat="44.42930845108269" lon="10.389189611457995"><ele>684.3333333333334</ele><time>2026-04-18T08:55:00Z</time></trkpt><trkpt lat="44.42943016203091" lon="10.389007066901211"><ele>681.0</ele><time>2026-04-18T08:55:01Z</time></trkpt><trkpt lat="44.42953539189004" lon="10.388816731103075"><ele>679.3333333333334</ele><time>2026-04-18T08:55:02Z</time></trkpt><trkpt lat="44.429616037258214" lon="10.388628469136366"><ele>677.6666666666667</ele><time>2026-04-18T08:55:03Z</time></trkpt><trkpt lat="44.4296663769417" lon="10.388425918164586"><ele>676.0</ele><time>2026-04-18T08:55:04Z</time></trkpt><trkpt lat="44.42969812283509" lon="10.38820630296377"><ele>675.3333333333334</ele><time>2026-04-18T08:55:05Z</time></trkpt><trkpt lat="44.429706627009914" lon="10.387994862786794"><ele>674.6666666666666</ele><time>2026-04-18T08:55:06Z</time></trkpt><trkpt lat="44.42968556382569" lon="10.387784647224871"><ele>674.0</ele><time>2026-04-18T08:55:07Z</time></trkpt><trkpt lat="44.42963085227328" lon="10.3875861911298"><ele>674.0</ele><time>2026-04-18T08:55:08Z</time></trkpt><trkpt lat="44.42956304268925" lon="10.38741002642194"><ele>674.0</ele><time>2026-04-18T08:55:09Z</time></trkpt><trkpt lat="44.42948584475412" lon="10.38725521178593"><ele>674.0</ele><time>2026-04-18T08:55:10Z</time></trkpt><trkpt lat="44.42940542382769" lon="10.387125369956962"><ele>674.0</ele><time>2026-04-18T08:55:11Z</time></trkpt><trkpt lat="44.42931052427258" lon="10.38700949901299"><ele>675.0</ele><time>2026-04-18T08:55:12Z</time></trkpt><trkpt lat="44.42921815371463" lon="10.386898155766604"><ele>676.0</ele><time>2026-04-18T08:55:13Z</time></trkpt><trkpt lat="44.42913085273711" lon="10.386776611294202"><ele>677.0</ele><time>2026-04-18T08:55:14Z</time></trkpt><trkpt lat="44.42903344527196" lon="10.386637459820443"><ele>678.0</ele><time>2026-04-18T08:55:15Z</time></trkpt><trkpt lat="44.428936460435764" lon="10.386502702459454"><ele>678.0</ele><time>2026-04-18T08:55:16Z</time></trkpt><trkpt lat="44.42882528704492" lon="10.386351395022634"><ele>678.0</ele><time>2026-04-18T08:55:17Z</time></trkpt><trkpt lat="44.42870843493898" lon="10.386210282880525"><ele>678.0</ele><time>2026-04-18T08:55:18Z</time></trkpt><trkpt lat="44.4285749103661" lon="10.38604600515381"><ele>675.5</ele><time>2026-04-18T08:55:19Z</time></trkpt><trkpt lat="44.428424634097304" lon="10.385854556658504"><ele>673.0</ele><time>2026-04-18T08:55:20Z</time></trkpt><trkpt lat="44.42824100928134" lon="10.38561243484631"><ele>672.3333333333334</ele><time>2026-04-18T08:55:21Z</time></trkpt><trkpt lat="44.42808668237058" lon="10.385396568558736"><ele>671.6666666666666</ele><time>2026-04-18T08:55:22Z</time></trkpt><trkpt lat="44.427950013084995" lon="10.385192390828331"><ele>671.0</ele><time>2026-04-18T08:55:23Z</time></trkpt><trkpt lat="44.42781873549166" lon="10.38501632564943"><ele>671.0</ele><time>2026-04-18T08:55:24Z</time></trkpt><trkpt lat="44.42769675752222" lon="10.384855794191218"><ele>671.0</ele><time>2026-04-18T08:55:25Z</time></trkpt><trkpt lat="44.4275814217405" lon="10.384692379852375"><ele>671.0</ele><time>2026-04-18T08:55:26Z</time></trkpt><trkpt lat="44.427476651057226" lon="10.3845102720625"><ele>672.3333333333333</ele><time>2026-04-18T08:55:27Z</time></trkpt><trkpt lat="44.427385901822326" lon="10.384301908676576"><ele>673.6666666666666</ele><time>2026-04-18T08:55:28Z</time></trkpt><trkpt lat="44.42731544431376" lon="10.384069412380809"><ele>675.0</ele><time>2026-04-18T08:55:29Z</time></trkpt><trkpt lat="44.42725049430646" lon="10.38382572436226"><ele>675.0</ele><time>2026-04-18T08:55:30Z</time></trkpt><trkpt lat="44.4271945097294" lon="10.383587905180292"><ele>675.0</ele><time>2026-04-18T08:55:31Z</time></trkpt><trkpt lat="44.42714002318776" lon="10.38334523244807"><ele>675.0</ele><time>2026-04-18T08:55:32Z</time></trkpt><trkpt lat="44.427085866693766" lon="10.383113094759427"><ele>676.25</ele><time>2026-04-18T08:55:33Z</time></trkpt><trkpt lat="44.427042130927845" lon="10.382909645000366"><ele>677.5</ele><time>2026-04-18T08:55:34Z</time></trkpt><trkpt lat="44.42700396834991" lon="10.38273382885431"><ele>678.75</ele><time>2026-04-18T08:55:35Z</time></trkpt><trkpt lat="44.42694910520661" lon="10.382555345270292"><ele>680.0</ele><time>2026-04-18T08:55:36Z</time></trkpt><trkpt lat="44.426866865874906" lon="10.382390702458622"><ele>680.0</ele><time>2026-04-18T08:55:37Z</time></trkpt><trkpt lat="44.42676037280074" lon="10.382240212468899"><ele>680.0</ele><time>2026-04-18T08:55:38Z</time></trkpt><trkpt lat="44.42664139798956" lon="10.382108527779511"><ele>680.0</ele><time>2026-04-18T08:55:39Z</time></trkpt><trkpt lat="44.42651693253112" lon="10.381977686410927"><ele>680.0</ele><time>2026-04-18T08:55:40Z</time></trkpt><trkpt lat="44.426404381105186" lon="10.38183871445488"><ele>680.0</ele><time>2026-04-18T08:55:41Z</time></trkpt><trkpt lat="44.42628782590873" lon="10.381709568616621"><ele>680.0</ele><time>2026-04-18T08:55:42Z</time></trkpt><trkpt lat="44.42615974827739" lon="10.38159043476334"><ele>680.0</ele><time>2026-04-18T08:55:43Z</time></trkpt><trkpt lat="44.426018255893396" lon="10.381494713484779"><ele>680.0</ele><time>2026-04-18T08:55:44Z</time></trkpt><trkpt lat="44.42585369728411" lon="10.38142331030508"><ele>680.0</ele><time>2026-04-18T08:55:45Z</time></trkpt><trkpt lat="44.42566804085559" lon="10.381361416166595"><ele>677.6666666666666</ele><time>2026-04-18T08:55:46Z</time></trkpt><trkpt lat="44.42547885579604" lon="10.381293385652105"><ele>675.3333333333334</ele><time>2026-04-18T08:55:47Z</time></trkpt><trkpt lat="44.42530187019216" lon="10.381200142345413"><ele>673.0</ele><time>2026-04-18T08:55:48Z</time></trkpt><trkpt lat="44.42513386492221" lon="10.381092568106249"><ele>673.0</ele><time>2026-04-18T08:55:49Z</time></trkpt><trkpt lat="44.42496251556306" lon="10.380989880262737"><ele>673.0</ele><time>2026-04-18T08:55:50Z</time></trkpt><trkpt lat="44.424790470740454" lon="10.380896546644214"><ele>673.0</ele><time>2026-04-18T08:55:51Z</time></trkpt><trkpt lat="44.42461565396006" lon="10.380810803327519"><ele>675.3333333333334</ele><time>2026-04-18T08:55:52Z</time></trkpt><trkpt lat="44.42444020220135" lon="10.380736780960264"><ele>677.6666666666666</ele><time>2026-04-18T08:55:53Z</time></trkpt><trkpt lat="44.42426942631613" lon="10.380656532794493"><ele>680.0</ele><time>2026-04-18T08:55:54Z</time></trkpt><trkpt lat="44.424099799098876" lon="10.380566172251097"><ele>678.5</ele><time>2026-04-18T08:55:55Z</time></trkpt><trkpt lat="44.423872151303264" lon="10.380363203917916"><ele>677.0</ele><time>2026-04-18T08:55:56Z</time></trkpt><trkpt lat="44.42369331545854" lon="10.38023359168589"><ele>679.6666666666666</ele><time>2026-04-18T08:55:57Z</time></trkpt><trkpt lat="44.42354587279209" lon="10.380113446608314"><ele>682.3333333333334</ele><time>2026-04-18T08:55:58Z</time></trkpt><trkpt lat="44.42340889841185" lon="10.380005506964093"><ele>685.0</ele><time>2026-04-18T08:55:59Z</time></trkpt><trkpt lat="44.423286840416644" lon="10.379890226824912"><ele>685.0</ele><time>2026-04-18T08:56:00Z</time></trkpt><trkpt lat="44.423166750007404" lon="10.379775134822186"><ele>685.0</ele><time>2026-04-18T08:56:01Z</time></trkpt><trkpt lat="44.423042783383245" lon="10.379656616672566"><ele>685.0</ele><time>2026-04-18T08:56:02Z</time></trkpt><trkpt lat="44.422912027626495" lon="10.379538827268114"><ele>686.3333333333334</ele><time>2026-04-18T08:56:03Z</time></trkpt><trkpt lat="44.42277890774471" lon="10.379422713294273"><ele>687.6666666666666</ele><time>2026-04-18T08:56:04Z</time></trkpt><trkpt lat="44.422645514456505" lon="10.379307941313776"><ele>689.0</ele><time>2026-04-18T08:56:05Z</time></trkpt><trkpt lat="44.422515929299436" lon="10.379189266037555"><ele>689.0</ele><time>2026-04-18T08:56:06Z</time></trkpt><trkpt lat="44.422382589564194" lon="10.379061876020799"><ele>689.0</ele><time>2026-04-18T08:56:07Z</time></trkpt><trkpt lat="44.42225323703053" lon="10.37893432882329"><ele>689.0</ele><time>2026-04-18T08:56:08Z</time></trkpt><trkpt lat="44.42211910227957" lon="10.378803452871674"><ele>690.0</ele><time>2026-04-18T08:56:09Z</time></trkpt><trkpt lat="44.42197385899056" lon="10.378690911125075"><ele>691.0</ele><time>2026-04-18T08:56:10Z</time></trkpt><trkpt lat="44.42182123957746" lon="10.378582062322137"><ele>692.0</ele><time>2026-04-18T08:56:11Z</time></trkpt><trkpt lat="44.42167386564765" lon="10.378446690624429"><ele>692.0</ele><time>2026-04-18T08:56:12Z</time></trkpt><trkpt lat="44.42153525382114" lon="10.378289147799773"><ele>692.0</ele><time>2026-04-18T08:56:13Z</time></trkpt><trkpt lat="44.42140385787637" lon="10.378117711778243"><ele>692.0</ele><time>2026-04-18T08:56:14Z</time></trkpt><trkpt lat="44.421275460112874" lon="10.377943591344065"><ele>693.3333333333333</ele><time>2026-04-18T08:56:15Z</time></trkpt><trkpt lat="44.42115134734257" lon="10.377783635908207"><ele>694.6666666666666</ele><time>2026-04-18T08:56:16Z</time></trkpt><trkpt lat="44.421034082822686" lon="10.377634970736667"><ele>696.0</ele><time>2026-04-18T08:56:17Z</time></trkpt><trkpt lat="44.42092142972723" lon="10.377488252497942"><ele>696.0</ele><time>2026-04-18T08:56:18Z</time></trkpt><trkpt lat="44.42081492312264" lon="10.377339999675241"><ele>696.0</ele><time>2026-04-18T08:56:19Z</time></trkpt><trkpt lat="44.42071096116149" lon="10.377178081369626"><ele>696.0</ele><time>2026-04-18T08:56:20Z</time></trkpt><trkpt lat="44.420619828806444" lon="10.376986922177393"><ele>694.6666666666666</ele><time>2026-04-18T08:56:21Z</time></trkpt><trkpt lat="44.42054824259557" lon="10.376786690503916"><ele>693.3333333333333</ele><time>2026-04-18T08:56:22Z</time></trkpt><trkpt lat="44.42048555321151" lon="10.37658722387802"><ele>692.0</ele><time>2026-04-18T08:56:23Z</time></trkpt><trkpt lat="44.4204197083364" lon="10.376389638960584"><ele>692.6666666666666</ele><time>2026-04-18T08:56:24Z</time></trkpt><trkpt lat="44.42035556554921" lon="10.376213208177845"><ele>693.3333333333334</ele><time>2026-04-18T08:56:25Z</time></trkpt><trkpt lat="44.420291685526735" lon="10.376019697967308"><ele>694.0</ele><time>2026-04-18T08:56:26Z</time></trkpt><trkpt lat="44.420223869948785" lon="10.375818541853558"><ele>694.0</ele><time>2026-04-18T08:56:27Z</time></trkpt><trkpt lat="44.420157444269485" lon="10.375616352624917"><ele>694.0</ele><time>2026-04-18T08:56:28Z</time></trkpt><trkpt lat="44.42010271722195" lon="10.37541322658624"><ele>694.0</ele><time>2026-04-18T08:56:29Z</time></trkpt><trkpt lat="44.420053549080606" lon="10.375218115402323"><ele>694.0</ele><time>2026-04-18T08:56:30Z</time></trkpt><trkpt lat="44.42000374115581" lon="10.375031033727083"><ele>694.0</ele><time>2026-04-18T08:56:31Z</time></trkpt><trkpt lat="44.41995173813894" lon="10.3748666751985"><ele>694.0</ele><time>2026-04-18T08:56:32Z</time></trkpt><trkpt lat="44.41989935384002" lon="10.374699035426644"><ele>694.0</ele><time>2026-04-18T08:56:33Z</time></trkpt><trkpt lat="44.41984108934059" lon="10.374543541392026"><ele>694.0</ele><time>2026-04-18T08:56:34Z</time></trkpt><trkpt lat="44.419765680927796" lon="10.374410886610686"><ele>694.0</ele><time>2026-04-18T08:56:35Z</time></trkpt><trkpt lat="44.419686493917666" lon="10.374276127208338"><ele>694.0</ele><time>2026-04-18T08:56:36Z</time></trkpt><trkpt lat="44.419605784527015" lon="10.374142595963542"><ele>694.0</ele><time>2026-04-18T08:56:37Z</time></trkpt><trkpt lat="44.41953663745416" lon="10.373992967728425"><ele>696.5</ele><time>2026-04-18T08:56:38Z</time></trkpt><trkpt lat="44.41946808809529" lon="10.37385125907746"><ele>699.0</ele><time>2026-04-18T08:56:39Z</time></trkpt><trkpt lat="44.4194018542257" lon="10.373721370477613"><ele>701.5</ele><time>2026-04-18T08:56:40Z</time></trkpt><trkpt lat="44.41933531132068" lon="10.37359824771605"><ele>704.0</ele><time>2026-04-18T08:56:41Z</time></trkpt><trkpt lat="44.41925607654711" lon="10.3734988949505"><ele>704.0</ele><time>2026-04-18T08:56:42Z</time></trkpt><trkpt lat="44.41918365917444" lon="10.37340675609751"><ele>704.0</ele><time>2026-04-18T08:56:43Z</time></trkpt><trkpt lat="44.41913009124281" lon="10.373347593128"><ele>704.0</ele><time>2026-04-18T08:56:44Z</time></trkpt><trkpt lat="44.4190764048905" lon="10.373264592359117"><ele>704.0</ele><time>2026-04-18T08:56:47Z</time></trkpt><trkpt lat="44.41901648252033" lon="10.373181685181404"><ele>704.0</ele><time>2026-04-18T08:56:49Z</time></trkpt><trkpt lat="44.41893810238805" lon="10.373070946928516"><ele>704.0</ele><time>2026-04-18T08:56:51Z</time></trkpt><trkpt lat="44.41887436672473" lon="10.372899662053449"><ele>705.25</ele><time>2026-04-18T08:56:53Z</time></trkpt><trkpt lat="44.418861201457204" lon="10.372775225475802"><ele>706.5</ele><time>2026-04-18T08:56:54Z</time></trkpt><trkpt lat="44.418922950097155" lon="10.372642761964608"><ele>707.75</ele><time>2026-04-18T08:56:55Z</time></trkpt><trkpt lat="44.418978076952015" lon="10.372478264526416"><ele>709.0</ele><time>2026-04-18T08:56:56Z</time></trkpt><trkpt lat="44.4190430322348" lon="10.372275561824253"><ele>711.3333333333334</ele><time>2026-04-18T08:56:57Z</time></trkpt><trkpt lat="44.4191292722098" lon="10.371984337611655"><ele>713.6666666666666</ele><time>2026-04-18T08:56:58Z</time></trkpt><trkpt lat="44.419168152745094" lon="10.37170818183827"><ele>716.0</ele><time>2026-04-18T08:56:59Z</time></trkpt><trkpt lat="44.419178705168385" lon="10.37148244991482"><ele>718.5</ele><time>2026-04-18T08:57:00Z</time></trkpt><trkpt lat="44.41919618276054" lon="10.371310896006312"><ele>721.0</ele><time>2026-04-18T08:57:01Z</time></trkpt><trkpt lat="44.41926539158771" lon="10.371251763331761"><ele>723.5</ele><time>2026-04-18T08:57:02Z</time></trkpt><trkpt lat="44.41936206800694" lon="10.371264882418707"><ele>726.0</ele><time>2026-04-18T08:57:03Z</time></trkpt><trkpt lat="44.419519532169886" lon="10.371241353658926"><ele>727.5</ele><time>2026-04-18T08:57:04Z</time></trkpt><trkpt lat="44.419750067544236" lon="10.371186230680978"><ele>729.0</ele><time>2026-04-18T08:57:05Z</time></trkpt><trkpt lat="44.42000987448257" lon="10.371124524136993"><ele>729.0</ele><time>2026-04-18T08:57:06Z</time></trkpt><trkpt lat="44.42028739218535" lon="10.371057947246241"><ele>729.0</ele><time>2026-04-18T08:57:07Z</time></trkpt><trkpt lat="44.42051558128538" lon="10.371010685461865"><ele>730.6666666666666</ele><time>2026-04-18T08:57:08Z</time></trkpt><trkpt lat="44.42070075886818" lon="10.370967249691853"><ele>732.3333333333333</ele><time>2026-04-18T08:57:09Z</time></trkpt><trkpt lat="44.42087552049587" lon="10.37091832775917"><ele>734.0</ele><time>2026-04-18T08:57:10Z</time></trkpt><trkpt lat="44.421063716561484" lon="10.37089437910624"><ele>734.0</ele><time>2026-04-18T08:57:11Z</time></trkpt><trkpt lat="44.421245396311235" lon="10.37087255186236"><ele>734.0</ele><time>2026-04-18T08:57:12Z</time></trkpt><trkpt lat="44.421442674466746" lon="10.370901936134326"><ele>734.0</ele><time>2026-04-18T08:57:13Z</time></trkpt><trkpt lat="44.4216608798231" lon="10.370964590964912"><ele>735.0</ele><time>2026-04-18T08:57:14Z</time></trkpt><trkpt lat="44.42184514843813" lon="10.371005297941354"><ele>736.0</ele><time>2026-04-18T08:57:15Z</time></trkpt><trkpt lat="44.4219779296137" lon="10.371060187452736"><ele>737.0</ele><time>2026-04-18T08:57:16Z</time></trkpt><trkpt lat="44.42208277859202" lon="10.371097393523744"><ele>738.0</ele><time>2026-04-18T08:57:17Z</time></trkpt><trkpt lat="44.42216193831713" lon="10.37109585190308"><ele>738.0</ele><time>2026-04-18T08:57:18Z</time></trkpt><trkpt lat="44.42221356754912" lon="10.37104093770625"><ele>738.0</ele><time>2026-04-18T08:57:19Z</time></trkpt><trkpt lat="44.42222871615391" lon="10.37095120502077"><ele>738.0</ele><time>2026-04-18T08:57:20Z</time></trkpt><trkpt lat="44.422126585963916" lon="10.370767787758771"><ele>738.0</ele><time>2026-04-18T08:57:22Z</time></trkpt><trkpt lat="44.42201128357844" lon="10.37069876759279"><ele>738.0</ele><time>2026-04-18T08:57:23Z</time></trkpt><trkpt lat="44.42186807788454" lon="10.37058509982108"><ele>742.0</ele><time>2026-04-18T08:57:24Z</time></trkpt><trkpt lat="44.42176325608812" lon="10.370399607874976"><ele>746.0</ele><time>2026-04-18T08:57:25Z</time></trkpt><trkpt lat="44.421672013368976" lon="10.370175157790586"><ele>750.0</ele><time>2026-04-18T08:57:26Z</time></trkpt><trkpt lat="44.4215504482549" lon="10.370012008118163"><ele>750.0</ele><time>2026-04-18T08:57:27Z</time></trkpt><trkpt lat="44.42135841306263" lon="10.369867362422362"><ele>750.0</ele><time>2026-04-18T08:57:28Z</time></trkpt><trkpt lat="44.421146873809725" lon="10.36973625550306"><ele>750.0</ele><time>2026-04-18T08:57:29Z</time></trkpt><trkpt lat="44.42099715595312" lon="10.369622781639924"><ele>751.75</ele><time>2026-04-18T08:57:30Z</time></trkpt><trkpt lat="44.42084666661688" lon="10.369537713055164"><ele>753.5</ele><time>2026-04-18T08:57:31Z</time></trkpt><trkpt lat="44.42069528636949" lon="10.36950399146803"><ele>755.25</ele><time>2026-04-18T08:57:32Z</time></trkpt><trkpt lat="44.420585103907996" lon="10.369469229747269"><ele>757.0</ele><time>2026-04-18T08:57:33Z</time></trkpt><trkpt lat="44.420516370721785" lon="10.369369119913902"><ele>757.0</ele><time>2026-04-18T08:57:34Z</time></trkpt><trkpt lat="44.420477790002714" lon="10.369232412378256"><ele>757.0</ele><time>2026-04-18T08:57:35Z</time></trkpt><trkpt lat="44.42048877468725" lon="10.369073271216127"><ele>757.0</ele><time>2026-04-18T08:57:36Z</time></trkpt><trkpt lat="44.42055635398366" lon="10.36891174008964"><ele>757.0</ele><time>2026-04-18T08:57:37Z</time></trkpt><trkpt lat="44.42058541794734" lon="10.368741988319158"><ele>758.75</ele><time>2026-04-18T08:57:38Z</time></trkpt><trkpt lat="44.42058345017273" lon="10.368591121053289"><ele>760.5</ele><time>2026-04-18T08:57:39Z</time></trkpt><trkpt lat="44.42049465753955" lon="10.368448516004838"><ele>762.25</ele><time>2026-04-18T08:57:40Z</time></trkpt><trkpt lat="44.4203734134404" lon="10.36832163272746"><ele>764.0</ele><time>2026-04-18T08:57:41Z</time></trkpt><trkpt lat="44.42019452078089" lon="10.368226410853168"><ele>764.5</ele><time>2026-04-18T08:57:42Z</time></trkpt><trkpt lat="44.42004333922709" lon="10.368156136411413"><ele>765.0</ele><time>2026-04-18T08:57:43Z</time></trkpt><trkpt lat="44.419942499020124" lon="10.368082471726519"><ele>765.5</ele><time>2026-04-18T08:57:44Z</time></trkpt><trkpt lat="44.41985859010854" lon="10.367972884951959"><ele>766.0</ele><time>2026-04-18T08:57:45Z</time></trkpt><trkpt lat="44.41978061004747" lon="10.367848381003256"><ele>767.0</ele><time>2026-04-18T08:57:46Z</time></trkpt><trkpt lat="44.419699939077304" lon="10.36772711025175"><ele>768.0</ele><time>2026-04-18T08:57:47Z</time></trkpt><trkpt lat="44.41960333493015" lon="10.367589800375553"><ele>769.0</ele><time>2026-04-18T08:57:48Z</time></trkpt><trkpt lat="44.419501561962775" lon="10.367445506439143"><ele>770.0</ele><time>2026-04-18T08:57:49Z</time></trkpt><trkpt lat="44.419399303869056" lon="10.367298817730523"><ele>773.0</ele><time>2026-04-18T08:57:50Z</time></trkpt><trkpt lat="44.419304434342614" lon="10.367163516026562"><ele>776.0</ele><time>2026-04-18T08:57:51Z</time></trkpt><trkpt lat="44.41921657737871" lon="10.367036637607873"><ele>779.0</ele><time>2026-04-18T08:57:52Z</time></trkpt><trkpt lat="44.41913659007488" lon="10.36691193934747"><ele>782.0</ele><time>2026-04-18T08:57:53Z</time></trkpt><trkpt lat="44.419049690795596" lon="10.366802554243215"><ele>782.0</ele><time>2026-04-18T08:57:54Z</time></trkpt><trkpt lat="44.41896069077695" lon="10.3667063021046"><ele>782.0</ele><time>2026-04-18T08:57:55Z</time></trkpt><trkpt lat="44.418852224200705" lon="10.366631146215507"><ele>782.0</ele><time>2026-04-18T08:57:56Z</time></trkpt><trkpt lat="44.41872426472893" lon="10.366586873979431"><ele>782.0</ele><time>2026-04-18T08:57:57Z</time></trkpt><trkpt lat="44.41859935023859" lon="10.36653804823098"><ele>780.5</ele><time>2026-04-18T08:57:58Z</time></trkpt><trkpt lat="44.41849172194805" lon="10.36644723476586"><ele>779.0</ele><time>2026-04-18T08:57:59Z</time></trkpt><trkpt lat="44.41839613649235" lon="10.366292885139064"><ele>777.5</ele><time>2026-04-18T08:58:00Z</time></trkpt><trkpt lat="44.418315611325305" lon="10.366115433133789"><ele>776.0</ele><time>2026-04-18T08:58:01Z</time></trkpt><trkpt lat="44.41826013097465" lon="10.365936114604468"><ele>779.75</ele><time>2026-04-18T08:58:02Z</time></trkpt><trkpt lat="44.41820421565761" lon="10.365782140614948"><ele>783.5</ele><time>2026-04-18T08:58:03Z</time></trkpt><trkpt lat="44.41813816205936" lon="10.365628744791254"><ele>787.25</ele><time>2026-04-18T08:58:04Z</time></trkpt><trkpt lat="44.4180756388404" lon="10.365470510009466"><ele>791.0</ele><time>2026-04-18T08:58:05Z</time></trkpt><trkpt lat="44.41802875382851" lon="10.365292343741814"><ele>790.25</ele><time>2026-04-18T08:58:06Z</time></trkpt><trkpt lat="44.417991076703466" lon="10.365122784220056"><ele>789.5</ele><time>2026-04-18T08:58:07Z</time></trkpt><trkpt lat="44.417941621101484" lon="10.364956103707154"><ele>788.75</ele><time>2026-04-18T08:58:08Z</time></trkpt><trkpt lat="44.41790470787816" lon="10.36480720379088"><ele>788.0</ele><time>2026-04-18T08:58:09Z</time></trkpt><trkpt lat="44.417889882063136" lon="10.364647767347389"><ele>788.0</ele><time>2026-04-18T08:58:10Z</time></trkpt><trkpt lat="44.417888420222845" lon="10.364479707485163"><ele>788.0</ele><time>2026-04-18T08:58:11Z</time></trkpt><trkpt lat="44.41789540922737" lon="10.364297173830062"><ele>788.0</ele><time>2026-04-18T08:58:12Z</time></trkpt><trkpt lat="44.417910192104344" lon="10.36411405502192"><ele>788.0</ele><time>2026-04-18T08:58:13Z</time></trkpt><trkpt lat="44.41792916774211" lon="10.363926734410917"><ele>790.3333333333334</ele><time>2026-04-18T08:58:14Z</time></trkpt><trkpt lat="44.41795222147858" lon="10.363729361930305"><ele>792.6666666666667</ele><time>2026-04-18T08:58:15Z</time></trkpt><trkpt lat="44.418009110775834" lon="10.363471003947458"><ele>795.0</ele><time>2026-04-18T08:58:16Z</time></trkpt><trkpt lat="44.41807012191127" lon="10.36312573422344"><ele>803.5</ele><time>2026-04-18T08:58:17Z</time></trkpt><trkpt lat="44.41812082217063" lon="10.362791519546775"><ele>812.0</ele><time>2026-04-18T08:58:18Z</time></trkpt><trkpt lat="44.418187515330196" lon="10.362497429174843"><ele>812.0</ele><time>2026-04-18T08:58:19Z</time></trkpt><trkpt lat="44.41824313366737" lon="10.362215458223716"><ele>812.0</ele><time>2026-04-18T08:58:20Z</time></trkpt><trkpt lat="44.41829033241718" lon="10.361969057440657"><ele>812.0</ele><time>2026-04-18T08:58:21Z</time></trkpt><trkpt lat="44.41834300965671" lon="10.361758117956906"><ele>812.75</ele><time>2026-04-18T08:58:22Z</time></trkpt><trkpt lat="44.41839317703799" lon="10.361575987972534"><ele>813.5</ele><time>2026-04-18T08:58:23Z</time></trkpt><trkpt lat="44.418428685637636" lon="10.36142761229082"><ele>814.25</ele><time>2026-04-18T08:58:24Z</time></trkpt><trkpt lat="44.41843475118508" lon="10.36126523118801"><ele>815.0</ele><time>2026-04-18T08:58:25Z</time></trkpt><trkpt lat="44.418385846794145" lon="10.361115758558531"><ele>815.0</ele><time>2026-04-18T08:58:26Z</time></trkpt><trkpt lat="44.418281759680546" lon="10.360948664407212"><ele>815.0</ele><time>2026-04-18T08:58:27Z</time></trkpt><trkpt lat="44.41811180588641" lon="10.360783478624759"><ele>815.0</ele><time>2026-04-18T08:58:28Z</time></trkpt><trkpt lat="44.417925661129374" lon="10.360587332997314"><ele>821.0</ele><time>2026-04-18T08:58:29Z</time></trkpt><trkpt lat="44.4177806494113" lon="10.360331036927683"><ele>827.0</ele><time>2026-04-18T08:58:30Z</time></trkpt><trkpt lat="44.41764128268468" lon="10.360055682393082"><ele>827.0</ele><time>2026-04-18T08:58:31Z</time></trkpt><trkpt lat="44.417508340129686" lon="10.359839204267763"><ele>827.0</ele><time>2026-04-18T08:58:32Z</time></trkpt><trkpt lat="44.41734128581108" lon="10.359693430937318"><ele>827.0</ele><time>2026-04-18T08:58:33Z</time></trkpt><trkpt lat="44.417135503967806" lon="10.359576537157446"><ele>830.0</ele><time>2026-04-18T08:58:34Z</time></trkpt><trkpt lat="44.41697798264629" lon="10.359442797080755"><ele>833.0</ele><time>2026-04-18T08:58:35Z</time></trkpt><trkpt lat="44.41683684364209" lon="10.359269510689376"><ele>836.0</ele><time>2026-04-18T08:58:36Z</time></trkpt><trkpt lat="44.416725585489296" lon="10.359050221769245"><ele>840.0</ele><time>2026-04-18T08:58:37Z</time></trkpt><trkpt lat="44.41661808018733" lon="10.358859067613812"><ele>844.0</ele><time>2026-04-18T08:58:38Z</time></trkpt><trkpt lat="44.41643372146119" lon="10.358721121966804"><ele>848.0</ele><time>2026-04-18T08:58:39Z</time></trkpt><trkpt lat="44.41623343672721" lon="10.358589794414815"><ele>848.0</ele><time>2026-04-18T08:58:40Z</time></trkpt><trkpt lat="44.4159332674171" lon="10.35847314124756"><ele>848.0</ele><time>2026-04-18T08:58:41Z</time></trkpt><trkpt lat="44.415742768373136" lon="10.358382825438468"><ele>848.0</ele><time>2026-04-18T08:58:42Z</time></trkpt><trkpt lat="44.41556568054855" lon="10.358285569255436"><ele>848.0</ele><time>2026-04-18T08:58:43Z</time></trkpt><trkpt lat="44.41542850408459" lon="10.358195646337338"><ele>848.0</ele><time>2026-04-18T08:58:44Z</time></trkpt><trkpt lat="44.41531460030085" lon="10.358154806336088"><ele>847.5</ele><time>2026-04-18T08:58:45Z</time></trkpt><trkpt lat="44.41522577323165" lon="10.35811759680551"><ele>847.0</ele><time>2026-04-18T08:58:46Z</time></trkpt><trkpt lat="44.41511953637609" lon="10.358014414650903"><ele>846.5</ele><time>2026-04-18T08:58:47Z</time></trkpt><trkpt lat="44.415042488480964" lon="10.35783740300187"><ele>846.0</ele><time>2026-04-18T08:58:48Z</time></trkpt><trkpt lat="44.414981067204884" lon="10.357624306612697"><ele>847.75</ele><time>2026-04-18T08:58:49Z</time></trkpt><trkpt lat="44.414970187755706" lon="10.357435317387644"><ele>849.5</ele><time>2026-04-18T08:58:50Z</time></trkpt><trkpt lat="44.41500245658664" lon="10.357246372515599"><ele>851.25</ele><time>2026-04-18T08:58:51Z</time></trkpt><trkpt lat="44.415075497947235" lon="10.357070693855276"><ele>853.0</ele><time>2026-04-18T08:58:52Z</time></trkpt><trkpt lat="44.41518279093992" lon="10.356938842875284"><ele>855.75</ele><time>2026-04-18T08:58:53Z</time></trkpt><trkpt lat="44.41528645047435" lon="10.35684538294148"><ele>858.5</ele><time>2026-04-18T08:58:54Z</time></trkpt><trkpt lat="44.415418616921386" lon="10.356777187022361"><ele>861.25</ele><time>2026-04-18T08:58:55Z</time></trkpt><trkpt lat="44.415568329769634" lon="10.356773317148907"><ele>864.0</ele><time>2026-04-18T08:58:56Z</time></trkpt><trkpt lat="44.41572430578143" lon="10.356751814008724"><ele>865.3333333333333</ele><time>2026-04-18T08:58:57Z</time></trkpt><trkpt lat="44.41590802004173" lon="10.356745619380453"><ele>866.6666666666666</ele><time>2026-04-18T08:58:58Z</time></trkpt><trkpt lat="44.41606672433734" lon="10.35674531397868"><ele>868.0</ele><time>2026-04-18T08:58:59Z</time></trkpt><trkpt lat="44.416210455223215" lon="10.356736976652558"><ele>868.0</ele><time>2026-04-18T08:59:00Z</time></trkpt><trkpt lat="44.416310738134364" lon="10.356732520124115"><ele>868.0</ele><time>2026-04-18T08:59:01Z</time></trkpt><trkpt lat="44.41642570374708" lon="10.356728669240884"><ele>868.0</ele><time>2026-04-18T08:59:02Z</time></trkpt><trkpt lat="44.41653685671007" lon="10.35673423502029"><ele>868.0</ele><time>2026-04-18T08:59:03Z</time></trkpt><trkpt lat="44.41663609293878" lon="10.356747257111897"><ele>868.0</ele><time>2026-04-18T08:59:04Z</time></trkpt><trkpt lat="44.41673054441747" lon="10.35676140672118"><ele>868.4</ele><time>2026-04-18T08:59:05Z</time></trkpt><trkpt lat="44.41679908635911" lon="10.356744373195218"><ele>868.8</ele><time>2026-04-18T08:59:06Z</time></trkpt><trkpt lat="44.41685549621668" lon="10.35659769744994"><ele>869.2</ele><time>2026-04-18T08:59:08Z</time></trkpt><trkpt lat="44.416822189867545" lon="10.356486625630597"><ele>869.6</ele><time>2026-04-18T08:59:09Z</time></trkpt><trkpt lat="44.41673808720781" lon="10.356384781813501"><ele>870.0</ele><time>2026-04-18T08:59:10Z</time></trkpt><trkpt lat="44.416631234962225" lon="10.356213990465182"><ele>872.0</ele><time>2026-04-18T08:59:11Z</time></trkpt><trkpt lat="44.416531675623666" lon="10.35610812269588"><ele>874.0</ele><time>2026-04-18T08:59:12Z</time></trkpt><trkpt lat="44.41616707127227" lon="10.35581936953015"><ele>876.3333333333333</ele><time>2026-04-18T08:59:13Z</time></trkpt><trkpt lat="44.41602304077934" lon="10.355642559356959"><ele>878.6666666666667</ele><time>2026-04-18T08:59:14Z</time></trkpt><trkpt lat="44.415883173402534" lon="10.355496027398035"><ele>881.0</ele><time>2026-04-18T08:59:15Z</time></trkpt><trkpt lat="44.415783687716335" lon="10.355412964754224"><ele>882.75</ele><time>2026-04-18T08:59:16Z</time></trkpt><trkpt lat="44.41567256629327" lon="10.35532624229436"><ele>884.5</ele><time>2026-04-18T08:59:17Z</time></trkpt><trkpt lat="44.41555496839362" lon="10.35527124612466"><ele>886.25</ele><time>2026-04-18T08:59:18Z</time></trkpt><trkpt lat="44.41544699535587" lon="10.355237854282423"><ele>888.0</ele><time>2026-04-18T08:59:19Z</time></trkpt><trkpt lat="44.41534792420122" lon="10.355201017204203"><ele>888.0</ele><time>2026-04-18T08:59:20Z</time></trkpt><trkpt lat="44.41524836767071" lon="10.355149279261555"><ele>888.0</ele><time>2026-04-18T08:59:21Z</time></trkpt><trkpt lat="44.415141362676486" lon="10.35510341270698"><ele>888.0</ele><time>2026-04-18T08:59:22Z</time></trkpt><trkpt lat="44.41503894223371" lon="10.355057252366512"><ele>888.0</ele><time>2026-04-18T08:59:23Z</time></trkpt><trkpt lat="44.414943970269526" lon="10.354981377969983"><ele>888.0</ele><time>2026-04-18T08:59:24Z</time></trkpt><trkpt lat="44.41488488300657" lon="10.354847052759494"><ele>888.0</ele><time>2026-04-18T08:59:25Z</time></trkpt><trkpt lat="44.41481934227634" lon="10.354718339526913"><ele>888.0</ele><time>2026-04-18T08:59:26Z</time></trkpt><trkpt lat="44.414765631558055" lon="10.354599262938626"><ele>888.0</ele><time>2026-04-18T08:59:27Z</time></trkpt><trkpt lat="44.41471519961812" lon="10.354498556098875"><ele>888.0</ele><time>2026-04-18T08:59:28Z</time></trkpt><trkpt lat="44.41466935860029" lon="10.354422288617112"><ele>888.0</ele><time>2026-04-18T08:59:29Z</time></trkpt><trkpt lat="44.414627149438275" lon="10.354347766616714"><ele>888.0</ele><time>2026-04-18T08:59:30Z</time></trkpt><trkpt lat="44.41456789380965" lon="10.354207176201774"><ele>888.4</ele><time>2026-04-18T08:59:32Z</time></trkpt><trkpt lat="44.41454905272402" lon="10.354119731245056"><ele>888.8</ele><time>2026-04-18T08:59:33Z</time></trkpt><trkpt lat="44.414571849199895" lon="10.354020287833679"><ele>889.2</ele><time>2026-04-18T08:59:34Z</time></trkpt><trkpt lat="44.41464049891419" lon="10.353933071241274"><ele>889.6</ele><time>2026-04-18T08:59:35Z</time></trkpt><trkpt lat="44.41475242559808" lon="10.353917185327939"><ele>890.0</ele><time>2026-04-18T08:59:36Z</time></trkpt><trkpt lat="44.414883044436245" lon="10.353866966946114"><ele>892.75</ele><time>2026-04-18T08:59:37Z</time></trkpt><trkpt lat="44.41503350394522" lon="10.35383656980846"><ele>895.5</ele><time>2026-04-18T08:59:38Z</time></trkpt><trkpt lat="44.41517535711868" lon="10.353784520633697"><ele>898.25</ele><time>2026-04-18T08:59:39Z</time></trkpt><trkpt lat="44.41531135684532" lon="10.35374066631574"><ele>901.0</ele><time>2026-04-18T08:59:40Z</time></trkpt><trkpt lat="44.41544201715368" lon="10.35370167644319"><ele>901.5999999999999</ele><time>2026-04-18T08:59:41Z</time></trkpt><trkpt lat="44.415556698383575" lon="10.353661553427603"><ele>902.1999999999999</ele><time>2026-04-18T08:59:42Z</time></trkpt><trkpt lat="44.415661361938625" lon="10.35362490677013"><ele>902.8000000000001</ele><time>2026-04-18T08:59:43Z</time></trkpt><trkpt lat="44.415771342487815" lon="10.353589173423384"><ele>903.4000000000001</ele><time>2026-04-18T08:59:44Z</time></trkpt><trkpt lat="44.41587452514893" lon="10.35354387377695"><ele>904.0</ele><time>2026-04-18T08:59:45Z</time></trkpt><trkpt lat="44.415959318160795" lon="10.353469671218722"><ele>904.0</ele><time>2026-04-18T08:59:46Z</time></trkpt><trkpt lat="44.41602285241445" lon="10.353350152949286"><ele>904.0</ele><time>2026-04-18T08:59:47Z</time></trkpt><trkpt lat="44.4160603911493" lon="10.353199422817116"><ele>904.0</ele><time>2026-04-18T08:59:48Z</time></trkpt><trkpt lat="44.41607939288594" lon="10.353032573615161"><ele>904.0</ele><time>2026-04-18T08:59:49Z</time></trkpt><trkpt lat="44.41608939368753" lon="10.352823890376486"><ele>906.6666666666666</ele><time>2026-04-18T08:59:50Z</time></trkpt><trkpt lat="44.41612292633543" lon="10.352531771428229"><ele>909.3333333333333</ele><time>2026-04-18T08:59:51Z</time></trkpt><trkpt lat="44.41614863670302" lon="10.352230983056176"><ele>912.0</ele><time>2026-04-18T08:59:52Z</time></trkpt><trkpt lat="44.416186121507785" lon="10.352012985930136"><ele>912.75</ele><time>2026-04-18T08:59:53Z</time></trkpt><trkpt lat="44.41622990123816" lon="10.351836021363328"><ele>913.5</ele><time>2026-04-18T08:59:54Z</time></trkpt><trkpt lat="44.41632417739268" lon="10.351677656555397"><ele>914.25</ele><time>2026-04-18T08:59:55Z</time></trkpt><trkpt lat="44.41646463542896" lon="10.351568714102953"><ele>915.0</ele><time>2026-04-18T08:59:56Z</time></trkpt><trkpt lat="44.41660248365964" lon="10.351456916286992"><ele>915.0</ele><time>2026-04-18T08:59:57Z</time></trkpt><trkpt lat="44.41670711464445" lon="10.351375159821524"><ele>915.0</ele><time>2026-04-18T08:59:58Z</time></trkpt><trkpt lat="44.41676105812034" lon="10.351277841914762"><ele>915.0</ele><time>2026-04-18T08:59:59Z</time></trkpt><trkpt lat="44.416776339501396" lon="10.35118141053115"><ele>915.0</ele><time>2026-04-18T09:00:00Z</time></trkpt><trkpt lat="44.41674550876044" lon="10.35110024491183"><ele>915.0</ele><time>2026-04-18T09:00:01Z</time></trkpt><trkpt lat="44.41657317790149" lon="10.351017395454914"><ele>916.3333333333333</ele><time>2026-04-18T09:00:03Z</time></trkpt><trkpt lat="44.41644278922821" lon="10.3510653754271"><ele>917.6666666666666</ele><time>2026-04-18T09:00:04Z</time></trkpt><trkpt lat="44.416269036949274" lon="10.351150837371309"><ele>919.0</ele><time>2026-04-18T09:00:05Z</time></trkpt><trkpt lat="44.416062178277606" lon="10.35122035989591"><ele>922.75</ele><time>2026-04-18T09:00:06Z</time></trkpt><trkpt lat="44.41588882521106" lon="10.351268464010884"><ele>926.5</ele><time>2026-04-18T09:00:07Z</time></trkpt><trkpt lat="44.415749767906696" lon="10.351308252066856"><ele>930.25</ele><time>2026-04-18T09:00:08Z</time></trkpt><trkpt lat="44.415631307660185" lon="10.351345261309158"><ele>934.0</ele><time>2026-04-18T09:00:09Z</time></trkpt><trkpt lat="44.41550920088405" lon="10.351367095001269"><ele>935.75</ele><time>2026-04-18T09:00:10Z</time></trkpt><trkpt lat="44.41536702337479" lon="10.351343013638953"><ele>937.5</ele><time>2026-04-18T09:00:11Z</time></trkpt><trkpt lat="44.41521570977293" lon="10.351282078969092"><ele>939.25</ele><time>2026-04-18T09:00:12Z</time></trkpt><trkpt lat="44.41508457099882" lon="10.35122760877147"><ele>941.0</ele><time>2026-04-18T09:00:13Z</time></trkpt><trkpt lat="44.41496121892685" lon="10.351189513203936"><ele>941.0</ele><time>2026-04-18T09:00:14Z</time></trkpt><trkpt lat="44.414833347722904" lon="10.3511290554596"><ele>941.0</ele><time>2026-04-18T09:00:15Z</time></trkpt><trkpt lat="44.41470463200831" lon="10.35100710823916"><ele>941.0</ele><time>2026-04-18T09:00:16Z</time></trkpt><trkpt lat="44.41459094273802" lon="10.350837442671956"><ele>943.0</ele><time>2026-04-18T09:00:17Z</time></trkpt><trkpt lat="44.41448345180734" lon="10.350667061486831"><ele>945.0</ele><time>2026-04-18T09:00:18Z</time></trkpt><trkpt lat="44.41438655214082" lon="10.350501295551556"><ele>947.0</ele><time>2026-04-18T09:00:19Z</time></trkpt><trkpt lat="44.41429190629825" lon="10.350335337766909"><ele>947.0</ele><time>2026-04-18T09:00:20Z</time></trkpt><trkpt lat="44.41415332724829" lon="10.350192522855444"><ele>947.0</ele><time>2026-04-18T09:00:21Z</time></trkpt><trkpt lat="44.41401801587161" lon="10.350114697975705"><ele>947.0</ele><time>2026-04-18T09:00:22Z</time></trkpt><trkpt lat="44.413900226126465" lon="10.35003106686383"><ele>948.6666666666667</ele><time>2026-04-18T09:00:23Z</time></trkpt><trkpt lat="44.41379400458398" lon="10.349865944406714"><ele>950.3333333333333</ele><time>2026-04-18T09:00:24Z</time></trkpt><trkpt lat="44.41370066335196" lon="10.349607070696829"><ele>952.0</ele><time>2026-04-18T09:00:25Z</time></trkpt><trkpt lat="44.41361105942445" lon="10.349359794170782"><ele>952.0</ele><time>2026-04-18T09:00:26Z</time></trkpt><trkpt lat="44.41355312769864" lon="10.349127430448451"><ele>952.0</ele><time>2026-04-18T09:00:27Z</time></trkpt><trkpt lat="44.41346495033039" lon="10.348914330995331"><ele>952.0</ele><time>2026-04-18T09:00:28Z</time></trkpt><trkpt lat="44.41336880872812" lon="10.348723352389563"><ele>956.3333333333333</ele><time>2026-04-18T09:00:29Z</time></trkpt><trkpt lat="44.413261567088206" lon="10.348565830049157"><ele>960.6666666666667</ele><time>2026-04-18T09:00:30Z</time></trkpt><trkpt lat="44.413205075420066" lon="10.348375257157164"><ele>965.0</ele><time>2026-04-18T09:00:31Z</time></trkpt><trkpt lat="44.41316697647039" lon="10.348156849925815"><ele>965.6666666666667</ele><time>2026-04-18T09:00:32Z</time></trkpt><trkpt lat="44.41311784797525" lon="10.347922246785144"><ele>966.3333333333333</ele><time>2026-04-18T09:00:33Z</time></trkpt><trkpt lat="44.41306691347539" lon="10.347699178331085"><ele>967.0</ele><time>2026-04-18T09:00:34Z</time></trkpt><trkpt lat="44.41302171674414" lon="10.347486062234996"><ele>968.3333333333333</ele><time>2026-04-18T09:00:35Z</time></trkpt><trkpt lat="44.41297583250616" lon="10.347279103641077"><ele>969.6666666666667</ele><time>2026-04-18T09:00:36Z</time></trkpt><trkpt lat="44.412926086434744" lon="10.347062328500678"><ele>971.0</ele><time>2026-04-18T09:00:37Z</time></trkpt><trkpt lat="44.41287908349282" lon="10.346845379267316"><ele>973.0</ele><time>2026-04-18T09:00:38Z</time></trkpt><trkpt lat="44.41283122611815" lon="10.346630459549669"><ele>975.0</ele><time>2026-04-18T09:00:39Z</time></trkpt><trkpt lat="44.41276575657523" lon="10.346413470736092"><ele>977.0</ele><time>2026-04-18T09:00:40Z</time></trkpt><trkpt lat="44.4126835372681" lon="10.346210123975775"><ele>973.0</ele><time>2026-04-18T09:00:41Z</time></trkpt><trkpt lat="44.41257529676415" lon="10.346025003929663"><ele>969.0</ele><time>2026-04-18T09:00:42Z</time></trkpt><trkpt lat="44.41245536992827" lon="10.345851333636366"><ele>965.0</ele><time>2026-04-18T09:00:43Z</time></trkpt><trkpt lat="44.41230113624087" lon="10.345690237796443"><ele>963.5</ele><time>2026-04-18T09:00:44Z</time></trkpt><trkpt lat="44.41211797989099" lon="10.34554080880206"><ele>962.0</ele><time>2026-04-18T09:00:45Z</time></trkpt><trkpt lat="44.41190432114045" lon="10.34538763541488"><ele>962.0</ele><time>2026-04-18T09:00:46Z</time></trkpt><trkpt lat="44.41168969129467" lon="10.345242842261698"><ele>962.0</ele><time>2026-04-18T09:00:47Z</time></trkpt><trkpt lat="44.41148953871651" lon="10.345091918058808"><ele>961.3333333333334</ele><time>2026-04-18T09:00:48Z</time></trkpt><trkpt lat="44.41131909648129" lon="10.34496468683144"><ele>960.6666666666667</ele><time>2026-04-18T09:00:49Z</time></trkpt><trkpt lat="44.411156289930396" lon="10.34482452590867"><ele>960.0</ele><time>2026-04-18T09:00:50Z</time></trkpt><trkpt lat="44.41097534194662" lon="10.344686567124498"><ele>960.0</ele><time>2026-04-18T09:00:51Z</time></trkpt><trkpt lat="44.41074712995542" lon="10.34452598285826"><ele>960.0</ele><time>2026-04-18T09:00:52Z</time></trkpt><trkpt lat="44.410477159004664" lon="10.344326594829338"><ele>966.6666666666667</ele><time>2026-04-18T09:00:53Z</time></trkpt><trkpt lat="44.41026498309949" lon="10.344184511875406"><ele>973.3333333333334</ele><time>2026-04-18T09:00:54Z</time></trkpt><trkpt lat="44.41010438532422" lon="10.34404955120882"><ele>980.0</ele><time>2026-04-18T09:00:55Z</time></trkpt><trkpt lat="44.40995624017345" lon="10.343937552646038"><ele>979.6666666666667</ele><time>2026-04-18T09:00:56Z</time></trkpt><trkpt lat="44.40979706583545" lon="10.343826374722694"><ele>979.3333333333333</ele><time>2026-04-18T09:00:57Z</time></trkpt><trkpt lat="44.409645153313164" lon="10.343632918751613"><ele>979.0</ele><time>2026-04-18T09:00:58Z</time></trkpt><trkpt lat="44.4094693773665" lon="10.343358725186807"><ele>973.5</ele><time>2026-04-18T09:00:59Z</time></trkpt><trkpt lat="44.40927116502641" lon="10.343031351252748"><ele>968.0</ele><time>2026-04-18T09:01:00Z</time></trkpt><trkpt lat="44.40909867318117" lon="10.342747108338346"><ele>968.0</ele><time>2026-04-18T09:01:01Z</time></trkpt><trkpt lat="44.408973384073974" lon="10.34252328154884"><ele>968.0</ele><time>2026-04-18T09:01:02Z</time></trkpt><trkpt lat="44.408848526927194" lon="10.342282486738737"><ele>968.0</ele><time>2026-04-18T09:01:03Z</time></trkpt><trkpt lat="44.40870007462968" lon="10.342104989625701"><ele>968.0</ele><time>2026-04-18T09:01:04Z</time></trkpt><trkpt lat="44.40860363635329" lon="10.34190985048366"><ele>968.0</ele><time>2026-04-18T09:01:05Z</time></trkpt><trkpt lat="44.408467684140504" lon="10.341671956501717"><ele>968.0</ele><time>2026-04-18T09:01:06Z</time></trkpt><trkpt lat="44.40838851783532" lon="10.341396556022621"><ele>968.0</ele><time>2026-04-18T09:01:07Z</time></trkpt><trkpt lat="44.408330113360904" lon="10.341143132999173"><ele>968.0</ele><time>2026-04-18T09:01:08Z</time></trkpt><trkpt lat="44.40829689818893" lon="10.340901425300915"><ele>968.0</ele><time>2026-04-18T09:01:09Z</time></trkpt><trkpt lat="44.408269446567104" lon="10.340518556919932"><ele>968.0</ele><time>2026-04-18T09:01:10Z</time></trkpt><trkpt lat="44.40825608072396" lon="10.340122103974311"><ele>968.0</ele><time>2026-04-18T09:01:11Z</time></trkpt><trkpt lat="44.4082316049457" lon="10.339795107027356"><ele>967.0</ele><time>2026-04-18T09:01:12Z</time></trkpt><trkpt lat="44.40821047113987" lon="10.339502058384852"><ele>966.0</ele><time>2026-04-18T09:01:13Z</time></trkpt><trkpt lat="44.40818824260038" lon="10.339229777293232"><ele>965.0</ele><time>2026-04-18T09:01:14Z</time></trkpt><trkpt lat="44.408168558812456" lon="10.338980547877911"><ele>965.0</ele><time>2026-04-18T09:01:15Z</time></trkpt><trkpt lat="44.408154167571595" lon="10.338735903281949"><ele>965.0</ele><time>2026-04-18T09:01:16Z</time></trkpt><trkpt lat="44.40812661040779" lon="10.33849082416053"><ele>965.0</ele><time>2026-04-18T09:01:17Z</time></trkpt><trkpt lat="44.408067197728776" lon="10.338258258808718"><ele>964.0</ele><time>2026-04-18T09:01:18Z</time></trkpt><trkpt lat="44.40795862251313" lon="10.33804584312538"><ele>963.0</ele><time>2026-04-18T09:01:19Z</time></trkpt><trkpt lat="44.407798576532" lon="10.337850323192322"><ele>962.0</ele><time>2026-04-18T09:01:20Z</time></trkpt><trkpt lat="44.407627852598225" lon="10.337703975338036"><ele>962.0</ele><time>2026-04-18T09:01:21Z</time></trkpt><trkpt lat="44.407430293873325" lon="10.337620502847734"><ele>962.0</ele><time>2026-04-18T09:01:22Z</time></trkpt><trkpt lat="44.40719904453125" lon="10.33758237159437"><ele>962.0</ele><time>2026-04-18T09:01:23Z</time></trkpt><trkpt lat="44.40700672904289" lon="10.337545202020973"><ele>963.6666666666667</ele><time>2026-04-18T09:01:24Z</time></trkpt><trkpt lat="44.406845493479764" lon="10.337407388574597"><ele>965.3333333333333</ele><time>2026-04-18T09:01:25Z</time></trkpt><trkpt lat="44.406644233757724" lon="10.337197546250202"><ele>967.0</ele><time>2026-04-18T09:01:26Z</time></trkpt><trkpt lat="44.40642315439883" lon="10.336961206119787"><ele>964.0</ele><time>2026-04-18T09:01:27Z</time></trkpt><trkpt lat="44.406256551158506" lon="10.336787753128283"><ele>961.0</ele><time>2026-04-18T09:01:28Z</time></trkpt><trkpt lat="44.40610100095493" lon="10.336635441623748"><ele>958.0</ele><time>2026-04-18T09:01:29Z</time></trkpt><trkpt lat="44.405981205960636" lon="10.336495909970319"><ele>960.0</ele><time>2026-04-18T09:01:30Z</time></trkpt><trkpt lat="44.40590067635373" lon="10.336343979687603"><ele>962.0</ele><time>2026-04-18T09:01:31Z</time></trkpt><trkpt lat="44.40581988190786" lon="10.33615173577849"><ele>964.0</ele><time>2026-04-18T09:01:32Z</time></trkpt><trkpt lat="44.40576963197285" lon="10.335900974935447"><ele>964.0</ele><time>2026-04-18T09:01:33Z</time></trkpt><trkpt lat="44.40570704628755" lon="10.335611134077899"><ele>964.0</ele><time>2026-04-18T09:01:34Z</time></trkpt><trkpt lat="44.405631164027305" lon="10.335306465877672"><ele>964.0</ele><time>2026-04-18T09:01:35Z</time></trkpt><trkpt lat="44.40547768966339" lon="10.334978631537908"><ele>960.0</ele><time>2026-04-18T09:01:36Z</time></trkpt><trkpt lat="44.40531988876051" lon="10.33465511636977"><ele>956.0</ele><time>2026-04-18T09:01:37Z</time></trkpt><trkpt lat="44.4051913019152" lon="10.334332002795822"><ele>956.0</ele><time>2026-04-18T09:01:38Z</time></trkpt><trkpt lat="44.40505809482616" lon="10.334009819247246"><ele>956.0</ele><time>2026-04-18T09:01:39Z</time></trkpt><trkpt lat="44.40490785720799" lon="10.333674357060895"><ele>953.5</ele><time>2026-04-18T09:01:40Z</time></trkpt><trkpt lat="44.40476269773086" lon="10.333332146931477"><ele>951.0</ele><time>2026-04-18T09:01:41Z</time></trkpt><trkpt lat="44.40461717425023" lon="10.332993102122877"><ele>951.0</ele><time>2026-04-18T09:01:42Z</time></trkpt><trkpt lat="44.40447826560722" lon="10.3326813259256"><ele>951.0</ele><time>2026-04-18T09:01:43Z</time></trkpt><trkpt lat="44.404304539387375" lon="10.332348909876163"><ele>954.5</ele><time>2026-04-18T09:01:44Z</time></trkpt><trkpt lat="44.40409394094303" lon="10.331965537160272"><ele>958.0</ele><time>2026-04-18T09:01:45Z</time></trkpt><trkpt lat="44.40386118596763" lon="10.331576075020758"><ele>958.5</ele><time>2026-04-18T09:01:46Z</time></trkpt><trkpt lat="44.40367848025052" lon="10.331241361636689"><ele>959.0</ele><time>2026-04-18T09:01:47Z</time></trkpt><trkpt lat="44.4035161522122" lon="10.330947036288919"><ele>959.0</ele><time>2026-04-18T09:01:48Z</time></trkpt><trkpt lat="44.40337261830199" lon="10.330689102841376"><ele>959.0</ele><time>2026-04-18T09:01:49Z</time></trkpt><trkpt lat="44.40324386157104" lon="10.330455314441066"><ele>959.0</ele><time>2026-04-18T09:01:50Z</time></trkpt><trkpt lat="44.403128992247225" lon="10.3302613456275"><ele>961.0</ele><time>2026-04-18T09:01:51Z</time></trkpt><trkpt lat="44.40300946652928" lon="10.330136409965103"><ele>963.0</ele><time>2026-04-18T09:01:52Z</time></trkpt><trkpt lat="44.40285723021454" lon="10.330058885787631"><ele>965.0</ele><time>2026-04-18T09:01:53Z</time></trkpt><trkpt lat="44.40268011620263" lon="10.330059959629034"><ele>966.3333333333334</ele><time>2026-04-18T09:01:54Z</time></trkpt><trkpt lat="44.40249253797102" lon="10.330189371203625"><ele>967.6666666666667</ele><time>2026-04-18T09:01:55Z</time></trkpt><trkpt lat="44.40229631385546" lon="10.330331580258392"><ele>969.0</ele><time>2026-04-18T09:01:56Z</time></trkpt><trkpt lat="44.40212800869875" lon="10.330433495999333"><ele>970.0</ele><time>2026-04-18T09:01:57Z</time></trkpt><trkpt lat="44.40196132498818" lon="10.330467082999617"><ele>971.0</ele><time>2026-04-18T09:01:58Z</time></trkpt><trkpt lat="44.40179014730098" lon="10.330459011455252"><ele>972.0</ele><time>2026-04-18T09:01:59Z</time></trkpt><trkpt lat="44.401558725717564" lon="10.330356316621524"><ele>967.5</ele><time>2026-04-18T09:02:00Z</time></trkpt><trkpt lat="44.40130228593273" lon="10.330256812050036"><ele>963.0</ele><time>2026-04-18T09:02:01Z</time></trkpt><trkpt lat="44.40107133258797" lon="10.330164800139853"><ele>963.0</ele><time>2026-04-18T09:02:02Z</time></trkpt><trkpt lat="44.40081813464966" lon="10.330006449763436"><ele>963.0</ele><time>2026-04-18T09:02:03Z</time></trkpt><trkpt lat="44.40050322181294" lon="10.329783047454503"><ele>963.5</ele><time>2026-04-18T09:02:04Z</time></trkpt><trkpt lat="44.40021448517543" lon="10.329580090543214"><ele>964.0</ele><time>2026-04-18T09:02:05Z</time></trkpt><trkpt lat="44.399971288005474" lon="10.32941087285449"><ele>964.0</ele><time>2026-04-18T09:02:06Z</time></trkpt><trkpt lat="44.399755516580306" lon="10.329267547185184"><ele>964.0</ele><time>2026-04-18T09:02:07Z</time></trkpt><trkpt lat="44.39950849680003" lon="10.329139627379417"><ele>961.5</ele><time>2026-04-18T09:02:08Z</time></trkpt><trkpt lat="44.39919876285614" lon="10.3290377766455"><ele>959.0</ele><time>2026-04-18T09:02:09Z</time></trkpt><trkpt lat="44.398924269224615" lon="10.32895733502132"><ele>961.3333333333334</ele><time>2026-04-18T09:02:10Z</time></trkpt><trkpt lat="44.398711321434156" lon="10.328874924427941"><ele>963.6666666666667</ele><time>2026-04-18T09:02:11Z</time></trkpt><trkpt lat="44.39849517642716" lon="10.32882932202293"><ele>966.0</ele><time>2026-04-18T09:02:12Z</time></trkpt><trkpt lat="44.39824897812993" lon="10.328832234326976"><ele>962.0</ele><time>2026-04-18T09:02:13Z</time></trkpt><trkpt lat="44.39795999190883" lon="10.3289009117794"><ele>958.0</ele><time>2026-04-18T09:02:14Z</time></trkpt><trkpt lat="44.397647360215835" lon="10.329012319207719"><ele>958.0</ele><time>2026-04-18T09:02:15Z</time></trkpt><trkpt lat="44.39737971611457" lon="10.329116226554335"><ele>958.0</ele><time>2026-04-18T09:02:16Z</time></trkpt><trkpt lat="44.397150778302105" lon="10.32918638883097"><ele>957.3333333333333</ele><time>2026-04-18T09:02:17Z</time></trkpt><trkpt lat="44.39693329805595" lon="10.329228102908509"><ele>956.6666666666667</ele><time>2026-04-18T09:02:18Z</time></trkpt><trkpt lat="44.396720565628996" lon="10.329229272073016"><ele>956.0</ele><time>2026-04-18T09:02:19Z</time></trkpt><trkpt lat="44.39649896951911" lon="10.329159616015591"><ele>955.0</ele><time>2026-04-18T09:02:20Z</time></trkpt><trkpt lat="44.39627934777609" lon="10.329052519924414"><ele>954.0</ele><time>2026-04-18T09:02:21Z</time></trkpt><trkpt lat="44.39606048612083" lon="10.328901467411367"><ele>954.6666666666667</ele><time>2026-04-18T09:02:22Z</time></trkpt><trkpt lat="44.39584666886121" lon="10.328763508983144"><ele>955.3333333333334</ele><time>2026-04-18T09:02:23Z</time></trkpt><trkpt lat="44.39564803079712" lon="10.32865299517012"><ele>956.0</ele><time>2026-04-18T09:02:24Z</time></trkpt><trkpt lat="44.39546885278683" lon="10.328555977903656"><ele>956.0</ele><time>2026-04-18T09:02:25Z</time></trkpt><trkpt lat="44.395300314712244" lon="10.328465604098923"><ele>956.0</ele><time>2026-04-18T09:02:26Z</time></trkpt><trkpt lat="44.39511147682696" lon="10.32837379465851"><ele>956.0</ele><time>2026-04-18T09:02:27Z</time></trkpt><trkpt lat="44.3949147169828" lon="10.328309051127341"><ele>956.0</ele><time>2026-04-18T09:02:28Z</time></trkpt><trkpt lat="44.394706386991096" lon="10.328264067279438"><ele>956.0</ele><time>2026-04-18T09:02:29Z</time></trkpt><trkpt lat="44.39450005616559" lon="10.328256470898417"><ele>956.0</ele><time>2026-04-18T09:02:30Z</time></trkpt><trkpt lat="44.39431201361432" lon="10.328254958178762"><ele>956.0</ele><time>2026-04-18T09:02:31Z</time></trkpt><trkpt lat="44.39413841263936" lon="10.328255664340894"><ele>956.0</ele><time>2026-04-18T09:02:32Z</time></trkpt><trkpt lat="44.3939684509229" lon="10.32823522353422"><ele>956.0</ele><time>2026-04-18T09:02:33Z</time></trkpt><trkpt lat="44.39380081333696" lon="10.328216949319845"><ele>952.6666666666667</ele><time>2026-04-18T09:02:34Z</time></trkpt><trkpt lat="44.393640368734864" lon="10.328214972816852"><ele>949.3333333333333</ele><time>2026-04-18T09:02:35Z</time></trkpt><trkpt lat="44.393458904831334" lon="10.328180411903102"><ele>946.0</ele><time>2026-04-18T09:02:36Z</time></trkpt><trkpt lat="44.39330189656879" lon="10.328100473220713"><ele>947.3333333333333</ele><time>2026-04-18T09:02:37Z</time></trkpt><trkpt lat="44.393155458716876" lon="10.327976905968548"><ele>948.6666666666667</ele><time>2026-04-18T09:02:38Z</time></trkpt><trkpt lat="44.39302694065856" lon="10.32780928517601"><ele>950.0</ele><time>2026-04-18T09:02:39Z</time></trkpt><trkpt lat="44.39292074467071" lon="10.32762513779159"><ele>950.0</ele><time>2026-04-18T09:02:40Z</time></trkpt><trkpt lat="44.3928304340891" lon="10.327460025300988"><ele>950.0</ele><time>2026-04-18T09:02:41Z</time></trkpt><trkpt lat="44.39272910337771" lon="10.327335879264504"><ele>950.0</ele><time>2026-04-18T09:02:42Z</time></trkpt><trkpt lat="44.39261622773762" lon="10.327238859554742"><ele>950.0</ele><time>2026-04-18T09:02:43Z</time></trkpt><trkpt lat="44.392482085510345" lon="10.327172061849085"><ele>951.25</ele><time>2026-04-18T09:02:44Z</time></trkpt><trkpt lat="44.392339103746224" lon="10.327158117675607"><ele>952.5</ele><time>2026-04-18T09:02:45Z</time></trkpt><trkpt lat="44.39219427120558" lon="10.327205146472995"><ele>953.75</ele><time>2026-04-18T09:02:46Z</time></trkpt><trkpt lat="44.39206529593508" lon="10.327300632875726"><ele>955.0</ele><time>2026-04-18T09:02:47Z</time></trkpt><trkpt lat="44.39194322860677" lon="10.327411626555026"><ele>955.0</ele><time>2026-04-18T09:02:48Z</time></trkpt><trkpt lat="44.39178500268321" lon="10.32758645191465"><ele>955.0</ele><time>2026-04-18T09:02:49Z</time></trkpt><trkpt lat="44.39156259847221" lon="10.327821624742134"><ele>954.0</ele><time>2026-04-18T09:02:50Z</time></trkpt><trkpt lat="44.391328881625874" lon="10.328050061001361"><ele>953.0</ele><time>2026-04-18T09:02:51Z</time></trkpt><trkpt lat="44.39112627956773" lon="10.328251492966114"><ele>953.0</ele><time>2026-04-18T09:02:52Z</time></trkpt><trkpt lat="44.39091741651436" lon="10.328413326794008"><ele>953.0</ele><time>2026-04-18T09:02:53Z</time></trkpt><trkpt lat="44.39073852761523" lon="10.328587339509589"><ele>953.0</ele><time>2026-04-18T09:02:54Z</time></trkpt><trkpt lat="44.390583555164625" lon="10.328761464184216"><ele>953.0</ele><time>2026-04-18T09:02:55Z</time></trkpt><trkpt lat="44.39041887653996" lon="10.328876784709454"><ele>953.0</ele><time>2026-04-18T09:02:56Z</time></trkpt><trkpt lat="44.39024885492403" lon="10.328938112943716"><ele>955.0</ele><time>2026-04-18T09:02:57Z</time></trkpt><trkpt lat="44.39008663151013" lon="10.328920546018635"><ele>957.0</ele><time>2026-04-18T09:02:58Z</time></trkpt><trkpt lat="44.38989485976273" lon="10.328860442206203"><ele>959.0</ele><time>2026-04-18T09:02:59Z</time></trkpt><trkpt lat="44.389683229460886" lon="10.328727868065304"><ele>957.5</ele><time>2026-04-18T09:03:00Z</time></trkpt><trkpt lat="44.3894577531053" lon="10.32864384914858"><ele>956.0</ele><time>2026-04-18T09:03:01Z</time></trkpt><trkpt lat="44.389245627318395" lon="10.32858219171804"><ele>956.0</ele><time>2026-04-18T09:03:02Z</time></trkpt><trkpt lat="44.38899532837326" lon="10.328585468524254"><ele>956.0</ele><time>2026-04-18T09:03:03Z</time></trkpt><trkpt lat="44.38869922320945" lon="10.328666153907113"><ele>956.5</ele><time>2026-04-18T09:03:04Z</time></trkpt><trkpt lat="44.388355809348106" lon="10.32878270824454"><ele>957.0</ele><time>2026-04-18T09:03:05Z</time></trkpt><trkpt lat="44.388069665456655" lon="10.328878166602236"><ele>946.0</ele><time>2026-04-18T09:03:06Z</time></trkpt><trkpt lat="44.387799815072455" lon="10.328964399269175"><ele>935.0</ele><time>2026-04-18T09:03:07Z</time></trkpt><trkpt lat="44.38755868529038" lon="10.329039733750648"><ele>935.0</ele><time>2026-04-18T09:03:08Z</time></trkpt><trkpt lat="44.387342356594694" lon="10.32910238027102"><ele>935.0</ele><time>2026-04-18T09:03:09Z</time></trkpt><trkpt lat="44.38713851264368" lon="10.32914126612609"><ele>935.0</ele><time>2026-04-18T09:03:10Z</time></trkpt><trkpt lat="44.386883877638574" lon="10.329148053043946"><ele>933.0</ele><time>2026-04-18T09:03:11Z</time></trkpt><trkpt lat="44.386552350677185" lon="10.329127822005129"><ele>931.0</ele><time>2026-04-18T09:03:12Z</time></trkpt><trkpt lat="44.38619280051958" lon="10.32906563512573"><ele>929.5</ele><time>2026-04-18T09:03:13Z</time></trkpt><trkpt lat="44.385899746345956" lon="10.3290097325985"><ele>928.0</ele><time>2026-04-18T09:03:14Z</time></trkpt><trkpt lat="44.38564858671847" lon="10.328984563186332"><ele>926.5</ele><time>2026-04-18T09:03:15Z</time></trkpt><trkpt lat="44.38540269792726" lon="10.328947052314218"><ele>925.0</ele><time>2026-04-18T09:03:16Z</time></trkpt><trkpt lat="44.3851405849002" lon="10.328916549970161"><ele>927.0</ele><time>2026-04-18T09:03:17Z</time></trkpt><trkpt lat="44.384908917637915" lon="10.328882136373469"><ele>929.0</ele><time>2026-04-18T09:03:18Z</time></trkpt><trkpt lat="44.38469508489004" lon="10.328857289001173"><ele>931.0</ele><time>2026-04-18T09:03:19Z</time></trkpt><trkpt lat="44.38449856983285" lon="10.328837114887053"><ele>931.0</ele><time>2026-04-18T09:03:20Z</time></trkpt><trkpt lat="44.38429951246293" lon="10.328855055408184"><ele>931.0</ele><time>2026-04-18T09:03:21Z</time></trkpt><trkpt lat="44.38408662850966" lon="10.328944487402877"><ele>931.0</ele><time>2026-04-18T09:03:22Z</time></trkpt><trkpt lat="44.383896471426084" lon="10.329146813185083"><ele>929.0</ele><time>2026-04-18T09:03:23Z</time></trkpt><trkpt lat="44.383739686416654" lon="10.329331044872653"><ele>927.0</ele><time>2026-04-18T09:03:24Z</time></trkpt><trkpt lat="44.38360465479508" lon="10.329631364447685"><ele>924.0</ele><time>2026-04-18T09:03:25Z</time></trkpt><trkpt lat="44.383462503958" lon="10.330004080253907"><ele>921.0</ele><time>2026-04-18T09:03:26Z</time></trkpt><trkpt lat="44.3833111157013" lon="10.330406786533171"><ele>926.0</ele><time>2026-04-18T09:03:27Z</time></trkpt><trkpt lat="44.383175316870826" lon="10.33078174619608"><ele>931.0</ele><time>2026-04-18T09:03:28Z</time></trkpt><trkpt lat="44.3829715455444" lon="10.331150912656051"><ele>927.0</ele><time>2026-04-18T09:03:29Z</time></trkpt><trkpt lat="44.38274661954992" lon="10.331560336391666"><ele>923.0</ele><time>2026-04-18T09:03:30Z</time></trkpt><trkpt lat="44.38256937860181" lon="10.33188042948786"><ele>923.0</ele><time>2026-04-18T09:03:31Z</time></trkpt><trkpt lat="44.38240537463572" lon="10.332178081685138"><ele>923.0</ele><time>2026-04-18T09:03:32Z</time></trkpt><trkpt lat="44.382255680425224" lon="10.332480052266574"><ele>921.0</ele><time>2026-04-18T09:03:33Z</time></trkpt><trkpt lat="44.382108530367105" lon="10.332736015092516"><ele>919.0</ele><time>2026-04-18T09:03:34Z</time></trkpt><trkpt lat="44.381992630254366" lon="10.33296601443589"><ele>917.0</ele><time>2026-04-18T09:03:35Z</time></trkpt><trkpt lat="44.381874271607984" lon="10.333130501290189"><ele>917.0</ele><time>2026-04-18T09:03:36Z</time></trkpt><trkpt lat="44.381765561298224" lon="10.333289950708302"><ele>917.0</ele><time>2026-04-18T09:03:37Z</time></trkpt><trkpt lat="44.38158519839771" lon="10.333429503089658"><ele>917.0</ele><time>2026-04-18T09:03:38Z</time></trkpt><trkpt lat="44.38138670860102" lon="10.333508044328175"><ele>921.5</ele><time>2026-04-18T09:03:39Z</time></trkpt><trkpt lat="44.38115385644442" lon="10.333531070239458"><ele>926.0</ele><time>2026-04-18T09:03:40Z</time></trkpt><trkpt lat="44.38087683649541" lon="10.333520292181161"><ele>926.0</ele><time>2026-04-18T09:03:41Z</time></trkpt><trkpt lat="44.38063943158334" lon="10.333526095143228"><ele>926.0</ele><time>2026-04-18T09:03:42Z</time></trkpt><trkpt lat="44.38045180913549" lon="10.33360527092818"><ele>926.0</ele><time>2026-04-18T09:03:43Z</time></trkpt><trkpt lat="44.38034190314764" lon="10.333579593389377"><ele>920.6666666666667</ele><time>2026-04-18T09:03:44Z</time></trkpt><trkpt lat="44.38019809308762" lon="10.333510582953672"><ele>915.3333333333333</ele><time>2026-04-18T09:03:45Z</time></trkpt><trkpt lat="44.38000227873686" lon="10.33339120630889"><ele>910.0</ele><time>2026-04-18T09:03:46Z</time></trkpt><trkpt lat="44.37986199679562" lon="10.333257382314981"><ele>910.0</ele><time>2026-04-18T09:03:47Z</time></trkpt><trkpt lat="44.37978349625322" lon="10.333138836542066"><ele>910.0</ele><time>2026-04-18T09:03:48Z</time></trkpt><trkpt lat="44.37975813999048" lon="10.33299390373166"><ele>910.0</ele><time>2026-04-18T09:03:49Z</time></trkpt><trkpt lat="44.379769008782134" lon="10.33283033775687"><ele>910.0</ele><time>2026-04-18T09:03:50Z</time></trkpt><trkpt lat="44.3798309147903" lon="10.332623868781758"><ele>913.0</ele><time>2026-04-18T09:03:51Z</time></trkpt><trkpt lat="44.379922994788416" lon="10.332403918828211"><ele>916.0</ele><time>2026-04-18T09:03:52Z</time></trkpt><trkpt lat="44.38000257807034" lon="10.332195331297774"><ele>919.0</ele><time>2026-04-18T09:03:53Z</time></trkpt><trkpt lat="44.380018017336106" lon="10.331974280403424"><ele>921.6666666666666</ele><time>2026-04-18T09:03:54Z</time></trkpt><trkpt lat="44.37997033789052" lon="10.331723987447257"><ele>924.3333333333333</ele><time>2026-04-18T09:03:55Z</time></trkpt><trkpt lat="44.37983424485073" lon="10.331486392067964"><ele>927.0</ele><time>2026-04-18T09:03:56Z</time></trkpt><trkpt lat="44.379678963255046" lon="10.331189337015537"><ele>919.0</ele><time>2026-04-18T09:03:57Z</time></trkpt><trkpt lat="44.37955248578354" lon="10.331033832079916"><ele>911.0</ele><time>2026-04-18T09:03:58Z</time></trkpt><trkpt lat="44.37945225604746" lon="10.330909890588773"><ele>903.0</ele><time>2026-04-18T09:03:59Z</time></trkpt><trkpt lat="44.379384677175786" lon="10.330775173941415"><ele>895.0</ele><time>2026-04-18T09:04:00Z</time></trkpt><trkpt lat="44.37940931559992" lon="10.330583657317908"><ele>896.3333333333333</ele><time>2026-04-18T09:04:01Z</time></trkpt><trkpt lat="44.37945388720458" lon="10.330381696682387"><ele>897.6666666666667</ele><time>2026-04-18T09:04:02Z</time></trkpt><trkpt lat="44.379566221522325" lon="10.330101283485194"><ele>899.0</ele><time>2026-04-18T09:04:03Z</time></trkpt><trkpt lat="44.37966736446045" lon="10.329775639134036"><ele>901.0</ele><time>2026-04-18T09:04:04Z</time></trkpt><trkpt lat="44.3797358324842" lon="10.329612564204728"><ele>903.0</ele><time>2026-04-18T09:04:05Z</time></trkpt><trkpt lat="44.379769520258755" lon="10.329461481446378"><ele>905.0</ele><time>2026-04-18T09:04:06Z</time></trkpt><trkpt lat="44.37973121437187" lon="10.329313601601653"><ele>907.0</ele><time>2026-04-18T09:04:07Z</time></trkpt><trkpt lat="44.3796288299195" lon="10.329146244844809"><ele>907.0</ele><time>2026-04-18T09:04:08Z</time></trkpt><trkpt lat="44.37954281836036" lon="10.328977510948734"><ele>907.0</ele><time>2026-04-18T09:04:09Z</time></trkpt><trkpt lat="44.379499803292184" lon="10.328725586654661"><ele>907.0</ele><time>2026-04-18T09:04:10Z</time></trkpt><trkpt lat="44.37950509691218" lon="10.328424596100461"><ele>910.6666666666666</ele><time>2026-04-18T09:04:11Z</time></trkpt><trkpt lat="44.37952516897777" lon="10.328167630259514"><ele>914.3333333333333</ele><time>2026-04-18T09:04:12Z</time></trkpt><trkpt lat="44.379530734263504" lon="10.327955454232008"><ele>918.0</ele><time>2026-04-18T09:04:13Z</time></trkpt><trkpt lat="44.37946815667052" lon="10.32771281801865"><ele>923.0</ele><time>2026-04-18T09:04:14Z</time></trkpt><trkpt lat="44.37934043452912" lon="10.327430452103869"><ele>928.0</ele><time>2026-04-18T09:04:15Z</time></trkpt><trkpt lat="44.379209094252005" lon="10.327121052853007"><ele>932.0</ele><time>2026-04-18T09:04:16Z</time></trkpt><trkpt lat="44.37915553748402" lon="10.326816228909108"><ele>936.0</ele><time>2026-04-18T09:04:17Z</time></trkpt><trkpt lat="44.3791102718378" lon="10.326492998330938"><ele>936.75</ele><time>2026-04-18T09:04:18Z</time></trkpt><trkpt lat="44.37906552163878" lon="10.32623709139982"><ele>937.5</ele><time>2026-04-18T09:04:19Z</time></trkpt><trkpt lat="44.379031076240814" lon="10.326046385814761"><ele>938.25</ele><time>2026-04-18T09:04:20Z</time></trkpt><trkpt lat="44.37897903488682" lon="10.32592044196813"><ele>939.0</ele><time>2026-04-18T09:04:21Z</time></trkpt><trkpt lat="44.37887093651357" lon="10.325865829453761"><ele>939.3333333333333</ele><time>2026-04-18T09:04:22Z</time></trkpt><trkpt lat="44.37870644295002" lon="10.325828175296898"><ele>939.6666666666666</ele><time>2026-04-18T09:04:23Z</time></trkpt><trkpt lat="44.37853168751688" lon="10.325865604605863"><ele>940.0</ele><time>2026-04-18T09:04:24Z</time></trkpt><trkpt lat="44.378408239559576" lon="10.325946979738054"><ele>940.0</ele><time>2026-04-18T09:04:25Z</time></trkpt><trkpt lat="44.3783184489956" lon="10.326102704433643"><ele>940.0</ele><time>2026-04-18T09:04:26Z</time></trkpt><trkpt lat="44.37820884803413" lon="10.32640960278462"><ele>940.0</ele><time>2026-04-18T09:04:27Z</time></trkpt><trkpt lat="44.37808843798009" lon="10.326725394751303"><ele>940.0</ele><time>2026-04-18T09:04:28Z</time></trkpt><trkpt lat="44.378007712420334" lon="10.326977538427117"><ele>940.0</ele><time>2026-04-18T09:04:29Z</time></trkpt><trkpt lat="44.37800232002647" lon="10.327259125116697"><ele>940.0</ele><time>2026-04-18T09:04:30Z</time></trkpt><trkpt lat="44.377977579441804" lon="10.327543238184534"><ele>940.0</ele><time>2026-04-18T09:04:31Z</time></trkpt><trkpt lat="44.37795355961527" lon="10.327752137873153"><ele>940.0</ele><time>2026-04-18T09:04:32Z</time></trkpt><trkpt lat="44.377884195177145" lon="10.327965509014897"><ele>940.0</ele><time>2026-04-18T09:04:33Z</time></trkpt><trkpt lat="44.37778343188796" lon="10.328170672693274"><ele>937.5</ele><time>2026-04-18T09:04:34Z</time></trkpt><trkpt lat="44.37769236221804" lon="10.32835834839974"><ele>935.0</ele><time>2026-04-18T09:04:35Z</time></trkpt><trkpt lat="44.377632830167705" lon="10.328419828901723"><ele>932.5</ele><time>2026-04-18T09:04:36Z</time></trkpt><trkpt lat="44.37751888158784" lon="10.328452206496966"><ele>930.0</ele><time>2026-04-18T09:04:37Z</time></trkpt><trkpt lat="44.377411561953686" lon="10.3284517364644"><ele>930.0</ele><time>2026-04-18T09:04:38Z</time></trkpt><trkpt lat="44.37720209337244" lon="10.328412842506665"><ele>930.0</ele><time>2026-04-18T09:04:39Z</time></trkpt><trkpt lat="44.37694528602781" lon="10.32843645351227"><ele>930.0</ele><time>2026-04-18T09:04:40Z</time></trkpt><trkpt lat="44.37676961795486" lon="10.328470473496385"><ele>930.0</ele><time>2026-04-18T09:04:41Z</time></trkpt><trkpt lat="44.3766078661691" lon="10.328430009246151"><ele>930.0</ele><time>2026-04-18T09:04:42Z</time></trkpt><trkpt lat="44.37646474990858" lon="10.328342177392646"><ele>931.6666666666667</ele><time>2026-04-18T09:04:43Z</time></trkpt><trkpt lat="44.37633645601466" lon="10.328179466326544"><ele>933.3333333333334</ele><time>2026-04-18T09:04:44Z</time></trkpt><trkpt lat="44.376202179264915" lon="10.328035921040124"><ele>935.0</ele><time>2026-04-18T09:04:45Z</time></trkpt><trkpt lat="44.376039616241464" lon="10.327980698985277"><ele>935.0</ele><time>2026-04-18T09:04:46Z</time></trkpt><trkpt lat="44.375846400334325" lon="10.3279827169589"><ele>935.0</ele><time>2026-04-18T09:04:47Z</time></trkpt><trkpt lat="44.37568943852631" lon="10.327990270278208"><ele>935.0</ele><time>2026-04-18T09:04:48Z</time></trkpt><trkpt lat="44.37558905988827" lon="10.328022482132717"><ele>931.3333333333334</ele><time>2026-04-18T09:04:49Z</time></trkpt><trkpt lat="44.37547828337713" lon="10.328116161902981"><ele>927.6666666666667</ele><time>2026-04-18T09:04:50Z</time></trkpt><trkpt lat="44.37533813997522" lon="10.328265162442612"><ele>924.0</ele><time>2026-04-18T09:04:51Z</time></trkpt><trkpt lat="44.375226790354624" lon="10.32848969477381"><ele>924.0</ele><time>2026-04-18T09:04:52Z</time></trkpt><trkpt lat="44.37514926141123" lon="10.328686310103032"><ele>924.0</ele><time>2026-04-18T09:04:53Z</time></trkpt><trkpt lat="44.375064265030616" lon="10.328813959928894"><ele>924.0</ele><time>2026-04-18T09:04:54Z</time></trkpt><trkpt lat="44.374954879629925" lon="10.328874976482856"><ele>924.0</ele><time>2026-04-18T09:04:55Z</time></trkpt><trkpt lat="44.374827597549995" lon="10.328889555120135"><ele>920.3333333333333</ele><time>2026-04-18T09:04:56Z</time></trkpt><trkpt lat="44.37465617913632" lon="10.328831528143954"><ele>916.6666666666666</ele><time>2026-04-18T09:04:57Z</time></trkpt><trkpt lat="44.374456149443056" lon="10.328651349308064"><ele>913.0</ele><time>2026-04-18T09:04:58Z</time></trkpt><trkpt lat="44.374189479819755" lon="10.328470930453822"><ele>913.0</ele><time>2026-04-18T09:04:59Z</time></trkpt><trkpt lat="44.37392932749157" lon="10.32829860030981"><ele>913.0</ele><time>2026-04-18T09:05:00Z</time></trkpt><trkpt lat="44.37372848095413" lon="10.328178774546455"><ele>914.3333333333333</ele><time>2026-04-18T09:05:01Z</time></trkpt><trkpt lat="44.37354330709218" lon="10.328071743057059"><ele>915.6666666666667</ele><time>2026-04-18T09:05:02Z</time></trkpt><trkpt lat="44.37336644846701" lon="10.327953179927006"><ele>917.0</ele><time>2026-04-18T09:05:03Z</time></trkpt><trkpt lat="44.373196704051054" lon="10.327768703710369"><ele>917.0</ele><time>2026-04-18T09:05:04Z</time></trkpt><trkpt lat="44.37302905675224" lon="10.327600937085851"><ele>917.0</ele><time>2026-04-18T09:05:05Z</time></trkpt><trkpt lat="44.3728898588242" lon="10.327423388452805"><ele>917.0</ele><time>2026-04-18T09:05:06Z</time></trkpt><trkpt lat="44.37276394949959" lon="10.32728053140353"><ele>920.3333333333334</ele><time>2026-04-18T09:05:07Z</time></trkpt><trkpt lat="44.372610877098175" lon="10.32718708978705"><ele>923.6666666666667</ele><time>2026-04-18T09:05:08Z</time></trkpt><trkpt lat="44.372418172760725" lon="10.327167038096448"><ele>927.0</ele><time>2026-04-18T09:05:09Z</time></trkpt><trkpt lat="44.37218830173748" lon="10.327250030754481"><ele>917.6666666666667</ele><time>2026-04-18T09:05:10Z</time></trkpt><trkpt lat="44.3719577914726" lon="10.327366566247797"><ele>908.3333333333334</ele><time>2026-04-18T09:05:11Z</time></trkpt><trkpt lat="44.37177574538368" lon="10.327404316860745"><ele>899.0</ele><time>2026-04-18T09:05:12Z</time></trkpt><trkpt lat="44.371618155337366" lon="10.32740967767499"><ele>899.0</ele><time>2026-04-18T09:05:13Z</time></trkpt><trkpt lat="44.37146897359237" lon="10.327356292361117"><ele>899.0</ele><time>2026-04-18T09:05:14Z</time></trkpt><trkpt lat="44.3713171660513" lon="10.327269011537979"><ele>899.0</ele><time>2026-04-18T09:05:15Z</time></trkpt><trkpt lat="44.37114575309966" lon="10.327114485474048"><ele>900.5</ele><time>2026-04-18T09:05:16Z</time></trkpt><trkpt lat="44.370909929129745" lon="10.326896248394116"><ele>902.0</ele><time>2026-04-18T09:05:17Z</time></trkpt><trkpt lat="44.3706579846908" lon="10.326658819549444"><ele>896.5</ele><time>2026-04-18T09:05:18Z</time></trkpt><trkpt lat="44.37044482266546" lon="10.326457732688597"><ele>891.0</ele><time>2026-04-18T09:05:18.999Z</time></trkpt><trkpt lat="44.37025925965981" lon="10.326283970847777"><ele>891.0</ele><time>2026-04-18T09:05:19.999Z</time></trkpt><trkpt lat="44.370096691900144" lon="10.32612910415718"><ele>891.0</ele><time>2026-04-18T09:05:20.999Z</time></trkpt><trkpt lat="44.369957071579854" lon="10.325982647632573"><ele>891.0</ele><time>2026-04-18T09:05:21.999Z</time></trkpt><trkpt lat="44.36984765025281" lon="10.325814762855455"><ele>891.0</ele><time>2026-04-18T09:05:22.999Z</time></trkpt><trkpt lat="44.36977138407573" lon="10.32563702189967"><ele>891.0</ele><time>2026-04-18T09:05:23.999Z</time></trkpt><trkpt lat="44.36971165370838" lon="10.325449035954628"><ele>891.0</ele><time>2026-04-18T09:05:24.999Z</time></trkpt><trkpt lat="44.36968266105851" lon="10.325263686155614"><ele>891.0</ele><time>2026-04-18T09:05:25.999Z</time></trkpt><trkpt lat="44.369669397460555" lon="10.325046514765612"><ele>893.0</ele><time>2026-04-18T09:05:26.999Z</time></trkpt><trkpt lat="44.36969997122843" lon="10.324769429614939"><ele>895.0</ele><time>2026-04-18T09:05:27.999Z</time></trkpt><trkpt lat="44.36974175818557" lon="10.324387284067672"><ele>895.0</ele><time>2026-04-18T09:05:28.999Z</time></trkpt><trkpt lat="44.369815663088666" lon="10.324010913562363"><ele>895.0</ele><time>2026-04-18T09:05:29.999Z</time></trkpt><trkpt lat="44.369862982681326" lon="10.323713298269551"><ele>894.0</ele><time>2026-04-18T09:05:30.999Z</time></trkpt><trkpt lat="44.369899730065306" lon="10.323447984870521"><ele>893.0</ele><time>2026-04-18T09:05:32Z</time></trkpt><trkpt lat="44.36991044583206" lon="10.323138394260216"><ele>892.0</ele><time>2026-04-18T09:05:33Z</time></trkpt><trkpt lat="44.369875851092026" lon="10.322727923703708"><ele>892.0</ele><time>2026-04-18T09:05:34Z</time></trkpt><trkpt lat="44.369850062666686" lon="10.322281669956967"><ele>892.0</ele><time>2026-04-18T09:05:35Z</time></trkpt><trkpt lat="44.3698395099618" lon="10.321897058580472"><ele>892.0</ele><time>2026-04-18T09:05:36Z</time></trkpt><trkpt lat="44.36982959068886" lon="10.321583368963339"><ele>892.0</ele><time>2026-04-18T09:05:37Z</time></trkpt><trkpt lat="44.36981285309296" lon="10.32133189035303"><ele>892.0</ele><time>2026-04-18T09:05:38Z</time></trkpt><trkpt lat="44.3697628272642" lon="10.321071405003895"><ele>887.0</ele><time>2026-04-18T09:05:39Z</time></trkpt><trkpt lat="44.369647846921644" lon="10.320822035839662"><ele>882.0</ele><time>2026-04-18T09:05:40Z</time></trkpt><trkpt lat="44.36950738508895" lon="10.32056926462089"><ele>877.0</ele><time>2026-04-18T09:05:41Z</time></trkpt><trkpt lat="44.36941242693165" lon="10.320383402316622"><ele>877.0</ele><time>2026-04-18T09:05:42Z</time></trkpt><trkpt lat="44.36937177648131" lon="10.320182938246196"><ele>877.0</ele><time>2026-04-18T09:05:43Z</time></trkpt><trkpt lat="44.36938585681681" lon="10.319965864454446"><ele>877.0</ele><time>2026-04-18T09:05:44Z</time></trkpt><trkpt lat="44.36942635751728" lon="10.319732548616127"><ele>881.6666666666666</ele><time>2026-04-18T09:05:45Z</time></trkpt><trkpt lat="44.36951445447124" lon="10.31952560677065"><ele>886.3333333333333</ele><time>2026-04-18T09:05:46Z</time></trkpt><trkpt lat="44.36964088142085" lon="10.319342839875528"><ele>891.0</ele><time>2026-04-18T09:05:47Z</time></trkpt><trkpt lat="44.36981501936773" lon="10.31912823146888"><ele>883.0</ele><time>2026-04-18T09:05:48Z</time></trkpt><trkpt lat="44.370031060794005" lon="10.31885500023795"><ele>875.0</ele><time>2026-04-18T09:05:49Z</time></trkpt><trkpt lat="44.37023136937748" lon="10.31860370081756"><ele>875.0</ele><time>2026-04-18T09:05:50Z</time></trkpt><trkpt lat="44.370382623065126" lon="10.318435364858663"><ele>875.0</ele><time>2026-04-18T09:05:51Z</time></trkpt><trkpt lat="44.37050219099406" lon="10.318256112939801"><ele>875.0</ele><time>2026-04-18T09:05:52Z</time></trkpt><trkpt lat="44.370617195253885" lon="10.318034805936874"><ele>877.3333333333334</ele><time>2026-04-18T09:05:53Z</time></trkpt><trkpt lat="44.37072743951291" lon="10.317779249180619"><ele>879.6666666666667</ele><time>2026-04-18T09:05:54Z</time></trkpt><trkpt lat="44.37081571954844" lon="10.317562952038033"><ele>882.0</ele><time>2026-04-18T09:05:55Z</time></trkpt><trkpt lat="44.37089205329599" lon="10.31740263970019"><ele>882.0</ele><time>2026-04-18T09:05:56Z</time></trkpt><trkpt lat="44.37099983594108" lon="10.317273817388244"><ele>882.0</ele><time>2026-04-18T09:05:57Z</time></trkpt><trkpt lat="44.37113360791325" lon="10.317165629090026"><ele>882.0</ele><time>2026-04-18T09:05:58Z</time></trkpt><trkpt lat="44.37128760355654" lon="10.317127596815974"><ele>879.0</ele><time>2026-04-18T09:05:59Z</time></trkpt><trkpt lat="44.3714621496088" lon="10.317129732886364"><ele>876.0</ele><time>2026-04-18T09:06:00Z</time></trkpt><trkpt lat="44.37165468752309" lon="10.317098921816736"><ele>873.0</ele><time>2026-04-18T09:06:01Z</time></trkpt><trkpt lat="44.37188636306654" lon="10.317044349909425"><ele>873.0</ele><time>2026-04-18T09:06:02Z</time></trkpt><trkpt lat="44.37215281955258" lon="10.3170388344067"><ele>873.0</ele><time>2026-04-18T09:06:03Z</time></trkpt><trkpt lat="44.37239632133411" lon="10.317031813946793"><ele>875.6666666666667</ele><time>2026-04-18T09:06:04Z</time></trkpt><trkpt lat="44.37258878156587" lon="10.317035516673263"><ele>878.3333333333334</ele><time>2026-04-18T09:06:05Z</time></trkpt><trkpt lat="44.37274268926273" lon="10.317039609894918"><ele>881.0</ele><time>2026-04-18T09:06:06Z</time></trkpt><trkpt lat="44.37287669896911" lon="10.317035249964897"><ele>881.0</ele><time>2026-04-18T09:06:07Z</time></trkpt><trkpt lat="44.372994771848404" lon="10.316990083716384"><ele>881.0</ele><time>2026-04-18T09:06:08Z</time></trkpt><trkpt lat="44.37308920943879" lon="10.316858609822315"><ele>881.0</ele><time>2026-04-18T09:06:09Z</time></trkpt><trkpt lat="44.373214059693794" lon="10.316620148281416"><ele>883.3333333333334</ele><time>2026-04-18T09:06:10Z</time></trkpt><trkpt lat="44.37332630480515" lon="10.316407195800455"><ele>885.6666666666667</ele><time>2026-04-18T09:06:11Z</time></trkpt><trkpt lat="44.373404429728964" lon="10.316238552277662"><ele>888.0</ele><time>2026-04-18T09:06:12Z</time></trkpt><trkpt lat="44.37343004097939" lon="10.316059903560138"><ele>888.0</ele><time>2026-04-18T09:06:13Z</time></trkpt><trkpt lat="44.3734003966877" lon="10.315861378147984"><ele>888.0</ele><time>2026-04-18T09:06:14Z</time></trkpt><trkpt lat="44.37334738173633" lon="10.315662097580939"><ele>888.0</ele><time>2026-04-18T09:06:15Z</time></trkpt><trkpt lat="44.37324864761638" lon="10.315449918225713"><ele>883.5</ele><time>2026-04-18T09:06:16Z</time></trkpt><trkpt lat="44.37308075018166" lon="10.315223924628082"><ele>879.0</ele><time>2026-04-18T09:06:17Z</time></trkpt><trkpt lat="44.37288705896552" lon="10.314966939692626"><ele>886.0</ele><time>2026-04-18T09:06:18Z</time></trkpt><trkpt lat="44.372676588170755" lon="10.314735083636831"><ele>893.0</ele><time>2026-04-18T09:06:19Z</time></trkpt><trkpt lat="44.37246979613752" lon="10.314508875550649"><ele>893.0</ele><time>2026-04-18T09:06:20Z</time></trkpt><trkpt lat="44.37226085360328" lon="10.31434026478893"><ele>893.0</ele><time>2026-04-18T09:06:21Z</time></trkpt><trkpt lat="44.37212097200936" lon="10.314201526309573"><ele>893.0</ele><time>2026-04-18T09:06:22Z</time></trkpt><trkpt lat="44.37202377044063" lon="10.31410665566088"><ele>890.5</ele><time>2026-04-18T09:06:23Z</time></trkpt><trkpt lat="44.37191734643048" lon="10.314098717117846"><ele>888.0</ele><time>2026-04-18T09:06:24Z</time></trkpt><trkpt lat="44.37177345421437" lon="10.314137394000289"><ele>885.5</ele><time>2026-04-18T09:06:25Z</time></trkpt><trkpt lat="44.371600957026004" lon="10.31422113096995"><ele>883.0</ele><time>2026-04-18T09:06:26Z</time></trkpt><trkpt lat="44.37142590345136" lon="10.314287611043982"><ele>880.3333333333333</ele><time>2026-04-18T09:06:27Z</time></trkpt><trkpt lat="44.37124786088595" lon="10.314267544072914"><ele>877.6666666666667</ele><time>2026-04-18T09:06:28Z</time></trkpt><trkpt lat="44.371089628534364" lon="10.314142516816238"><ele>875.0</ele><time>2026-04-18T09:06:29Z</time></trkpt><trkpt lat="44.37095820905555" lon="10.314003356013554"><ele>881.3333333333334</ele><time>2026-04-18T09:06:30Z</time></trkpt><trkpt lat="44.370822985682615" lon="10.313848307484472"><ele>887.6666666666667</ele><time>2026-04-18T09:06:31Z</time></trkpt><trkpt lat="44.370686252005065" lon="10.313660121621217"><ele>894.0</ele><time>2026-04-18T09:06:32Z</time></trkpt><trkpt lat="44.37057758077787" lon="10.313490757313511"><ele>890.0</ele><time>2026-04-18T09:06:33Z</time></trkpt><trkpt lat="44.370478966430504" lon="10.313355229850583"><ele>886.0</ele><time>2026-04-18T09:06:34Z</time></trkpt><trkpt lat="44.37039862709236" lon="10.31325837800187"><ele>882.0</ele><time>2026-04-18T09:06:35Z</time></trkpt><trkpt lat="44.37032589993945" lon="10.313170074789813"><ele>878.0</ele><time>2026-04-18T09:06:36Z</time></trkpt><trkpt lat="44.3702196845685" lon="10.31308344349512"><ele>881.0</ele><time>2026-04-18T09:06:37Z</time></trkpt><trkpt lat="44.370068781336215" lon="10.313030055891037"><ele>884.0</ele><time>2026-04-18T09:06:38Z</time></trkpt><trkpt lat="44.369837928791284" lon="10.312960252439902"><ele>887.0</ele><time>2026-04-18T09:06:39Z</time></trkpt><trkpt lat="44.369513215184945" lon="10.312915596857792"><ele>887.0</ele><time>2026-04-18T09:06:40Z</time></trkpt><trkpt lat="44.36917706818155" lon="10.312849365532825"><ele>887.0</ele><time>2026-04-18T09:06:41Z</time></trkpt><trkpt lat="44.36890232588459" lon="10.312798510172994"><ele>884.0</ele><time>2026-04-18T09:06:42Z</time></trkpt><trkpt lat="44.36866761908731" lon="10.312761475066749"><ele>881.0</ele><time>2026-04-18T09:06:43Z</time></trkpt><trkpt lat="44.36846128629568" lon="10.312742785539772"><ele>878.0</ele><time>2026-04-18T09:06:44Z</time></trkpt><trkpt lat="44.36828411368988" lon="10.31271792452593"><ele>878.0</ele><time>2026-04-18T09:06:45Z</time></trkpt><trkpt lat="44.368149838141896" lon="10.31269041615723"><ele>878.0</ele><time>2026-04-18T09:06:46Z</time></trkpt><trkpt lat="44.36805379544219" lon="10.312636103160532"><ele>878.0</ele><time>2026-04-18T09:06:47Z</time></trkpt><trkpt lat="44.3679928737084" lon="10.312523641300045"><ele>878.0</ele><time>2026-04-18T09:06:48Z</time></trkpt><trkpt lat="44.367963019951084" lon="10.312379712578814"><ele>878.0</ele><time>2026-04-18T09:06:49Z</time></trkpt><trkpt lat="44.36798464186375" lon="10.31214766325015"><ele>881.0</ele><time>2026-04-18T09:06:50Z</time></trkpt><trkpt lat="44.368041273471064" lon="10.311847385708623"><ele>884.0</ele><time>2026-04-18T09:06:51Z</time></trkpt><trkpt lat="44.368072695679125" lon="10.311572693799972"><ele>887.0</ele><time>2026-04-18T09:06:52Z</time></trkpt><trkpt lat="44.36809090911482" lon="10.311338448301814"><ele>885.75</ele><time>2026-04-18T09:06:53Z</time></trkpt><trkpt lat="44.36808957446908" lon="10.311180677389412"><ele>884.5</ele><time>2026-04-18T09:06:54Z</time></trkpt><trkpt lat="44.36805831471387" lon="10.311020850936996"><ele>883.25</ele><time>2026-04-18T09:06:55Z</time></trkpt><trkpt lat="44.36797438953999" lon="10.310877507889076"><ele>882.0</ele><time>2026-04-18T09:06:56Z</time></trkpt><trkpt lat="44.36785234996321" lon="10.310808158908356"><ele>882.0</ele><time>2026-04-18T09:06:57Z</time></trkpt><trkpt lat="44.36768239009366" lon="10.310795978998911"><ele>882.0</ele><time>2026-04-18T09:06:58Z</time></trkpt><trkpt lat="44.367472516734736" lon="10.310845870781574"><ele>882.0</ele><time>2026-04-18T09:06:59Z</time></trkpt><trkpt lat="44.36728913392453" lon="10.310865911120963"><ele>887.3333333333333</ele><time>2026-04-18T09:07:00Z</time></trkpt><trkpt lat="44.36713057879483" lon="10.310813371361807"><ele>892.6666666666666</ele><time>2026-04-18T09:07:01Z</time></trkpt><trkpt lat="44.36698571897603" lon="10.310654539567214"><ele>898.0</ele><time>2026-04-18T09:07:02Z</time></trkpt><trkpt lat="44.366809770985405" lon="10.310518236781421"><ele>898.0</ele><time>2026-04-18T09:07:03Z</time></trkpt><trkpt lat="44.366614454556824" lon="10.31044672899717"><ele>898.0</ele><time>2026-04-18T09:07:04Z</time></trkpt><trkpt lat="44.36644001678836" lon="10.310390010370861"><ele>898.0</ele><time>2026-04-18T09:07:05Z</time></trkpt><trkpt lat="44.36627823257755" lon="10.310323753512655"><ele>889.0</ele><time>2026-04-18T09:07:06Z</time></trkpt><trkpt lat="44.36615687319153" lon="10.31024190332785"><ele>880.0</ele><time>2026-04-18T09:07:07Z</time></trkpt><trkpt lat="44.36607257969585" lon="10.310113853185152"><ele>871.0</ele><time>2026-04-18T09:07:08Z</time></trkpt><trkpt lat="44.36601723049781" lon="10.30994401140299"><ele>862.0</ele><time>2026-04-18T09:07:09Z</time></trkpt><trkpt lat="44.365949953002776" lon="10.309743037520425"><ele>858.3333333333333</ele><time>2026-04-18T09:07:10Z</time></trkpt><trkpt lat="44.365815118776595" lon="10.30958859684925"><ele>854.6666666666667</ele><time>2026-04-18T09:07:11Z</time></trkpt><trkpt lat="44.36560214674149" lon="10.30944801935059"><ele>851.0</ele><time>2026-04-18T09:07:12Z</time></trkpt><trkpt lat="44.365415885647764" lon="10.309305653442765"><ele>851.0</ele><time>2026-04-18T09:07:13Z</time></trkpt><trkpt lat="44.36529346174213" lon="10.309172518902626"><ele>851.0</ele><time>2026-04-18T09:07:14Z</time></trkpt><trkpt lat="44.36520345766428" lon="10.309026949381694"><ele>851.0</ele><time>2026-04-18T09:07:15Z</time></trkpt><trkpt lat="44.36512272337238" lon="10.308814391265948"><ele>853.0</ele><time>2026-04-18T09:07:16Z</time></trkpt><trkpt lat="44.36505339095342" lon="10.308551708962456"><ele>855.0</ele><time>2026-04-18T09:07:17Z</time></trkpt><trkpt lat="44.36498562438526" lon="10.308330414039947"><ele>857.0</ele><time>2026-04-18T09:07:18Z</time></trkpt><trkpt lat="44.36495138392212" lon="10.30813249172873"><ele>856.3333333333334</ele><time>2026-04-18T09:07:19Z</time></trkpt><trkpt lat="44.364961573668324" lon="10.307889815055125"><ele>855.6666666666667</ele><time>2026-04-18T09:07:20Z</time></trkpt><trkpt lat="44.365030078679396" lon="10.30758547533457"><ele>855.0</ele><time>2026-04-18T09:07:21Z</time></trkpt><trkpt lat="44.36506950000513" lon="10.307273407835378"><ele>855.0</ele><time>2026-04-18T09:07:22Z</time></trkpt><trkpt lat="44.36506126012695" lon="10.306950663920496"><ele>855.0</ele><time>2026-04-18T09:07:23Z</time></trkpt><trkpt lat="44.36501208195217" lon="10.306686415925531"><ele>855.0</ele><time>2026-04-18T09:07:24Z</time></trkpt><trkpt lat="44.36495397883807" lon="10.306446592330484"><ele>856.5</ele><time>2026-04-18T09:07:24.999Z</time></trkpt><trkpt lat="44.3649108251691" lon="10.306222476092362"><ele>858.0</ele><time>2026-04-18T09:07:25.999Z</time></trkpt><trkpt lat="44.364874925292625" lon="10.306023000125666"><ele>859.5</ele><time>2026-04-18T09:07:26.999Z</time></trkpt><trkpt lat="44.364840227748395" lon="10.305865941592728"><ele>861.0</ele><time>2026-04-18T09:07:27.999Z</time></trkpt><trkpt lat="44.36483444937426" lon="10.305757253982184"><ele>861.0</ele><time>2026-04-18T09:07:29Z</time></trkpt><trkpt lat="44.36483404910069" lon="10.305664153376316"><ele>861.0</ele><time>2026-04-18T09:07:31Z</time></trkpt><trkpt lat="44.36483193631955" lon="10.30557154403507"><ele>861.0</ele><time>2026-04-18T09:07:35Z</time></trkpt><trkpt lat="44.364830074263494" lon="10.305469603446108"><ele>861.0</ele><time>2026-04-18T09:07:52Z</time></trkpt><trkpt lat="44.36482432647368" lon="10.305299739532854"><ele>861.0</ele><time>2026-04-18T09:07:54Z</time></trkpt><trkpt lat="44.36482254350893" lon="10.305181510605422"><ele>861.0</ele><time>2026-04-18T09:07:55Z</time></trkpt><trkpt lat="44.36482603987986" lon="10.305061305503695"><ele>861.5</ele><time>2026-04-18T09:07:56Z</time></trkpt><trkpt lat="44.36483087290832" lon="10.304963253665331"><ele>862.0</ele><time>2026-04-18T09:07:57Z</time></trkpt><trkpt lat="44.36483147948206" lon="10.304789970934193"><ele>862.5</ele><time>2026-04-18T09:07:59Z</time></trkpt><trkpt lat="44.36482446320592" lon="10.304698508001445"><ele>863.0</ele><time>2026-04-18T09:08:00Z</time></trkpt><trkpt lat="44.36481460093662" lon="10.30459130490966"><ele>863.5</ele><time>2026-04-18T09:08:01Z</time></trkpt><trkpt lat="44.36480225636085" lon="10.304482269281792"><ele>864.0</ele><time>2026-04-18T09:08:02Z</time></trkpt><trkpt lat="44.36477268913295" lon="10.304377253088425"><ele>864.0</ele><time>2026-04-18T09:08:03Z</time></trkpt><trkpt lat="44.364727039428395" lon="10.304274884056802"><ele>864.0</ele><time>2026-04-18T09:08:04Z</time></trkpt><trkpt lat="44.36467897683046" lon="10.304187695353864"><ele>864.0</ele><time>2026-04-18T09:08:05Z</time></trkpt><trkpt lat="44.36462690609775" lon="10.304094671851214"><ele>864.0</ele><time>2026-04-18T09:08:06Z</time></trkpt><trkpt lat="44.36458043822236" lon="10.303985489942662"><ele>864.0</ele><time>2026-04-18T09:08:07Z</time></trkpt><trkpt lat="44.36454606488155" lon="10.303865558335255"><ele>864.0</ele><time>2026-04-18T09:08:08Z</time></trkpt><trkpt lat="44.36453187176167" lon="10.303724434479799"><ele>855.3333333333333</ele><time>2026-04-18T09:08:09Z</time></trkpt><trkpt lat="44.36453776063725" lon="10.303564774964691"><ele>846.6666666666666</ele><time>2026-04-18T09:08:10Z</time></trkpt><trkpt lat="44.36456675894009" lon="10.30341433538562"><ele>838.0</ele><time>2026-04-18T09:08:11Z</time></trkpt><trkpt lat="44.36463546000001" lon="10.30305385"><ele>841.5999999999999</ele><time>2026-04-18T09:08:13.88Z</time></trkpt><trkpt lat="44.36480706404072" lon="10.303014517387558"><ele>845.1999999999999</ele><time>2026-04-18T09:08:15Z</time></trkpt><trkpt lat="44.36484158069541" lon="10.302929566203725"><ele>848.8</ele><time>2026-04-18T09:08:16Z</time></trkpt><trkpt lat="44.36486542074737" lon="10.30277074445722"><ele>852.4</ele><time>2026-04-18T09:08:18Z</time></trkpt><trkpt lat="44.36484168505822" lon="10.302675915617598"><ele>856.0</ele><time>2026-04-18T09:08:19Z</time></trkpt><trkpt lat="44.3647905121885" lon="10.302587174811842"><ele>856.0</ele><time>2026-04-18T09:08:20Z</time></trkpt><trkpt lat="44.36473846047739" lon="10.302490705097004"><ele>855.9999999999999</ele><time>2026-04-18T09:08:21Z</time></trkpt><trkpt lat="44.36466606774738" lon="10.302394880381541"><ele>855.9999999999999</ele><time>2026-04-18T09:08:22Z</time></trkpt><trkpt lat="44.36458764821108" lon="10.302316068025599"><ele>856.0</ele><time>2026-04-18T09:08:23Z</time></trkpt><trkpt lat="44.36450671722747" lon="10.302257227028177"><ele>856.0</ele><time>2026-04-18T09:08:24Z</time></trkpt><trkpt lat="44.3644066873724" lon="10.30220268911513"><ele>854.75</ele><time>2026-04-18T09:08:25Z</time></trkpt><trkpt lat="44.364301560284574" lon="10.302131847899695"><ele>853.5</ele><time>2026-04-18T09:08:26Z</time></trkpt><trkpt lat="44.36419628935503" lon="10.30204224830952"><ele>852.25</ele><time>2026-04-18T09:08:27Z</time></trkpt><trkpt lat="44.36408998826115" lon="10.30194420745942"><ele>851.0</ele><time>2026-04-18T09:08:28Z</time></trkpt><trkpt lat="44.363981640855854" lon="10.301846231757299"><ele>851.0</ele><time>2026-04-18T09:08:29Z</time></trkpt><trkpt lat="44.36387158563502" lon="10.301747543083241"><ele>851.0</ele><time>2026-04-18T09:08:30Z</time></trkpt><trkpt lat="44.363760156812496" lon="10.301654798060085"><ele>851.0</ele><time>2026-04-18T09:08:31Z</time></trkpt><trkpt lat="44.36364771149981" lon="10.3015608378617"><ele>851.0</ele><time>2026-04-18T09:08:32Z</time></trkpt><trkpt lat="44.363536825866376" lon="10.301462214718143"><ele>849.75</ele><time>2026-04-18T09:08:33Z</time></trkpt><trkpt lat="44.36342586450021" lon="10.301364476990084"><ele>848.5</ele><time>2026-04-18T09:08:34Z</time></trkpt><trkpt lat="44.363314958557055" lon="10.301268826919857"><ele>847.25</ele><time>2026-04-18T09:08:35Z</time></trkpt><trkpt lat="44.36320483738262" lon="10.301174037204918"><ele>846.0</ele><time>2026-04-18T09:08:36Z</time></trkpt><trkpt lat="44.363094190445004" lon="10.301080350793912"><ele>847.25</ele><time>2026-04-18T09:08:37Z</time></trkpt><trkpt lat="44.36297132119788" lon="10.300998260627699"><ele>848.5</ele><time>2026-04-18T09:08:38Z</time></trkpt><trkpt lat="44.362839980256716" lon="10.300946853726682"><ele>849.75</ele><time>2026-04-18T09:08:39Z</time></trkpt><trkpt lat="44.362699242906395" lon="10.300919147098586"><ele>851.0</ele><time>2026-04-18T09:08:40Z</time></trkpt><trkpt lat="44.36255541697147" lon="10.300926859917926"><ele>851.0</ele><time>2026-04-18T09:08:41Z</time></trkpt><trkpt lat="44.362410731390405" lon="10.300976535402338"><ele>851.0</ele><time>2026-04-18T09:08:42Z</time></trkpt><trkpt lat="44.36225701196309" lon="10.300993216322796"><ele>851.0</ele><time>2026-04-18T09:08:43Z</time></trkpt><trkpt lat="44.362115820260875" lon="10.301021379433209"><ele>851.0</ele><time>2026-04-18T09:08:44Z</time></trkpt><trkpt lat="44.36197981182499" lon="10.301028089378615"><ele>848.5</ele><time>2026-04-18T09:08:45Z</time></trkpt><trkpt lat="44.361850080041734" lon="10.301018454808444"><ele>846.0</ele><time>2026-04-18T09:08:46Z</time></trkpt><trkpt lat="44.361716958574725" lon="10.301000033287458"><ele>843.5</ele><time>2026-04-18T09:08:47Z</time></trkpt><trkpt lat="44.361577509068304" lon="10.300970294951476"><ele>841.0</ele><time>2026-04-18T09:08:48Z</time></trkpt><trkpt lat="44.361442537299475" lon="10.300931262811684"><ele>838.75</ele><time>2026-04-18T09:08:49Z</time></trkpt><trkpt lat="44.36131948999528" lon="10.300867388599285"><ele>836.5</ele><time>2026-04-18T09:08:50Z</time></trkpt><trkpt lat="44.36119917301479" lon="10.300809119864239"><ele>834.25</ele><time>2026-04-18T09:08:51Z</time></trkpt><trkpt lat="44.361087098106616" lon="10.300751640215513"><ele>832.0</ele><time>2026-04-18T09:08:52Z</time></trkpt><trkpt lat="44.36095608171893" lon="10.30072315937646"><ele>832.0</ele><time>2026-04-18T09:08:53Z</time></trkpt><trkpt lat="44.36082276638937" lon="10.300792834149451"><ele>832.0</ele><time>2026-04-18T09:08:54Z</time></trkpt><trkpt lat="44.36069660602688" lon="10.300908853771706"><ele>832.0</ele><time>2026-04-18T09:08:55Z</time></trkpt><trkpt lat="44.36057807182106" lon="10.301043079355537"><ele>832.0</ele><time>2026-04-18T09:08:56Z</time></trkpt><trkpt lat="44.36045326233539" lon="10.301159861060833"><ele>834.0</ele><time>2026-04-18T09:08:57Z</time></trkpt><trkpt lat="44.360328997295305" lon="10.30125706901694"><ele>836.0</ele><time>2026-04-18T09:08:58Z</time></trkpt><trkpt lat="44.360217765914896" lon="10.30132948698313"><ele>838.0</ele><time>2026-04-18T09:08:59Z</time></trkpt><trkpt lat="44.36011011365542" lon="10.301372196393109"><ele>840.0</ele><time>2026-04-18T09:09:00Z</time></trkpt><trkpt lat="44.359986423136256" lon="10.30134388962819"><ele>840.0</ele><time>2026-04-18T09:09:01Z</time></trkpt><trkpt lat="44.35983242791584" lon="10.301272037328378"><ele>840.0</ele><time>2026-04-18T09:09:02Z</time></trkpt><trkpt lat="44.35965053318122" lon="10.301195703081358"><ele>840.0</ele><time>2026-04-18T09:09:03Z</time></trkpt><trkpt lat="44.3594666648226" lon="10.301147945468717"><ele>838.3333333333333</ele><time>2026-04-18T09:09:04Z</time></trkpt><trkpt lat="44.3592912156079" lon="10.30118210569571"><ele>836.6666666666666</ele><time>2026-04-18T09:09:05Z</time></trkpt><trkpt lat="44.3591150291393" lon="10.301201348576463"><ele>835.0</ele><time>2026-04-18T09:09:06Z</time></trkpt><trkpt lat="44.35894521896748" lon="10.30123893440824"><ele>831.0</ele><time>2026-04-18T09:09:07Z</time></trkpt><trkpt lat="44.35878730878564" lon="10.301258857701058"><ele>827.0</ele><time>2026-04-18T09:09:08Z</time></trkpt><trkpt lat="44.358635192843906" lon="10.301255634062072"><ele>823.0</ele><time>2026-04-18T09:09:09Z</time></trkpt><trkpt lat="44.35848426234093" lon="10.301253495831897"><ele>823.0</ele><time>2026-04-18T09:09:10Z</time></trkpt><trkpt lat="44.358341805572145" lon="10.301246768319753"><ele>823.0</ele><time>2026-04-18T09:09:11Z</time></trkpt><trkpt lat="44.35819942332914" lon="10.301224995791813"><ele>823.0</ele><time>2026-04-18T09:09:12Z</time></trkpt><trkpt lat="44.358057697460694" lon="10.301170995265036"><ele>823.0</ele><time>2026-04-18T09:09:13Z</time></trkpt><trkpt lat="44.35790540153897" lon="10.301114614952112"><ele>816.0</ele><time>2026-04-18T09:09:14Z</time></trkpt><trkpt lat="44.357775854641595" lon="10.301011541278498"><ele>809.0</ele><time>2026-04-18T09:09:15Z</time></trkpt><trkpt lat="44.35765668386126" lon="10.300928410607888"><ele>802.0</ele><time>2026-04-18T09:09:16Z</time></trkpt><trkpt lat="44.35756700331596" lon="10.300818256386266"><ele>795.0</ele><time>2026-04-18T09:09:17Z</time></trkpt><trkpt lat="44.35748028318741" lon="10.30067342015942"><ele>799.25</ele><time>2026-04-18T09:09:18Z</time></trkpt><trkpt lat="44.357391936273764" lon="10.30051441527759"><ele>803.5</ele><time>2026-04-18T09:09:19Z</time></trkpt><trkpt lat="44.35730359592945" lon="10.300354377034584"><ele>807.75</ele><time>2026-04-18T09:09:20Z</time></trkpt><trkpt lat="44.35721521104766" lon="10.300192688206192"><ele>812.0</ele><time>2026-04-18T09:09:21Z</time></trkpt><trkpt lat="44.357128175362334" lon="10.30003384311987"><ele>804.0</ele><time>2026-04-18T09:09:22Z</time></trkpt><trkpt lat="44.35704345460304" lon="10.299880531618818"><ele>796.0</ele><time>2026-04-18T09:09:23Z</time></trkpt><trkpt lat="44.35694727465754" lon="10.299737795571005"><ele>788.0</ele><time>2026-04-18T09:09:24Z</time></trkpt><trkpt lat="44.35689288460148" lon="10.299573152012233"><ele>780.0</ele><time>2026-04-18T09:09:25Z</time></trkpt><trkpt lat="44.35688192097518" lon="10.29941125586957"><ele>780.0</ele><time>2026-04-18T09:09:26Z</time></trkpt><trkpt lat="44.3569188894558" lon="10.299225601420071"><ele>780.0</ele><time>2026-04-18T09:09:27Z</time></trkpt><trkpt lat="44.35698966601739" lon="10.299022552696806"><ele>780.0</ele><time>2026-04-18T09:09:28Z</time></trkpt><trkpt lat="44.35702193901303" lon="10.298816758618376"><ele>778.0</ele><time>2026-04-18T09:09:29Z</time></trkpt><trkpt lat="44.3570478212372" lon="10.29863190290863"><ele>776.0</ele><time>2026-04-18T09:09:30Z</time></trkpt><trkpt lat="44.357124783376406" lon="10.298480592375334"><ele>774.0</ele><time>2026-04-18T09:09:31Z</time></trkpt><trkpt lat="44.357232303840014" lon="10.2983427320655"><ele>772.0</ele><time>2026-04-18T09:09:32Z</time></trkpt><trkpt lat="44.357316603749545" lon="10.298216994021795"><ele>776.0</ele><time>2026-04-18T09:09:33Z</time></trkpt><trkpt lat="44.35734845002393" lon="10.298061653715362"><ele>780.0</ele><time>2026-04-18T09:09:34Z</time></trkpt><trkpt lat="44.35733035501888" lon="10.297901099852654"><ele>784.0</ele><time>2026-04-18T09:09:35Z</time></trkpt><trkpt lat="44.35728214331516" lon="10.297709903641891"><ele>788.0</ele><time>2026-04-18T09:09:36Z</time></trkpt><trkpt lat="44.35723900441959" lon="10.297502669047729"><ele>788.0</ele><time>2026-04-18T09:09:37Z</time></trkpt><trkpt lat="44.35721884413152" lon="10.297259666146338"><ele>788.0</ele><time>2026-04-18T09:09:38Z</time></trkpt><trkpt lat="44.357173370028214" lon="10.29694045699917"><ele>788.0</ele><time>2026-04-18T09:09:39Z</time></trkpt><trkpt lat="44.3571037380633" lon="10.296680489366757"><ele>781.6666666666667</ele><time>2026-04-18T09:09:40Z</time></trkpt><trkpt lat="44.35704441741241" lon="10.296450094008415"><ele>775.3333333333333</ele><time>2026-04-18T09:09:41Z</time></trkpt><trkpt lat="44.35697270573033" lon="10.296246827820298"><ele>769.0</ele><time>2026-04-18T09:09:42Z</time></trkpt><trkpt lat="44.35690011817186" lon="10.29606649106482"><ele>769.0</ele><time>2026-04-18T09:09:43Z</time></trkpt><trkpt lat="44.356841935663724" lon="10.295894612971596"><ele>769.0</ele><time>2026-04-18T09:09:44Z</time></trkpt><trkpt lat="44.35682197761493" lon="10.295725005377998"><ele>769.0</ele><time>2026-04-18T09:09:45Z</time></trkpt><trkpt lat="44.3568317998696" lon="10.295550282559264"><ele>769.0</ele><time>2026-04-18T09:09:46Z</time></trkpt><trkpt lat="44.35685641311441" lon="10.295380227588405"><ele>769.25</ele><time>2026-04-18T09:09:47Z</time></trkpt><trkpt lat="44.35689219338434" lon="10.295223642517822"><ele>769.5</ele><time>2026-04-18T09:09:48Z</time></trkpt><trkpt lat="44.35689365516033" lon="10.295043288357894"><ele>769.75</ele><time>2026-04-18T09:09:49Z</time></trkpt><trkpt lat="44.35685110819239" lon="10.294838384247058"><ele>770.0</ele><time>2026-04-18T09:09:50Z</time></trkpt><trkpt lat="44.356799994023476" lon="10.294652028449047"><ele>770.75</ele><time>2026-04-18T09:09:51Z</time></trkpt><trkpt lat="44.35673922912243" lon="10.294484318123411"><ele>771.5</ele><time>2026-04-18T09:09:52Z</time></trkpt><trkpt lat="44.35667793916066" lon="10.294325835810728"><ele>772.25</ele><time>2026-04-18T09:09:53Z</time></trkpt><trkpt lat="44.35661922433628" lon="10.294169411508737"><ele>773.0</ele><time>2026-04-18T09:09:54Z</time></trkpt><trkpt lat="44.356566471451885" lon="10.294003907518857"><ele>775.0</ele><time>2026-04-18T09:09:55Z</time></trkpt><trkpt lat="44.35651255901348" lon="10.293833657185557"><ele>777.0</ele><time>2026-04-18T09:09:56Z</time></trkpt><trkpt lat="44.3564643582145" lon="10.293673214626075"><ele>779.0</ele><time>2026-04-18T09:09:57Z</time></trkpt><trkpt lat="44.35641824221383" lon="10.293510359840607"><ele>781.0</ele><time>2026-04-18T09:09:58Z</time></trkpt><trkpt lat="44.35637301278941" lon="10.293348287892407"><ele>776.5</ele><time>2026-04-18T09:09:59Z</time></trkpt><trkpt lat="44.35632887584588" lon="10.293190518019282"><ele>772.0</ele><time>2026-04-18T09:10:00Z</time></trkpt><trkpt lat="44.35628552466914" lon="10.293032503659775"><ele>767.5</ele><time>2026-04-18T09:10:01Z</time></trkpt><trkpt lat="44.35623924194073" lon="10.292875346975384"><ele>763.0</ele><time>2026-04-18T09:10:02Z</time></trkpt><trkpt lat="44.35619383516982" lon="10.292712008908296"><ele>763.0</ele><time>2026-04-18T09:10:03Z</time></trkpt><trkpt lat="44.356144987951986" lon="10.292549658515028"><ele>763.0</ele><time>2026-04-18T09:10:04Z</time></trkpt><trkpt lat="44.35609128242547" lon="10.292385684895104"><ele>763.0</ele><time>2026-04-18T09:10:05Z</time></trkpt><trkpt lat="44.35603203316837" lon="10.292227200134684"><ele>763.0</ele><time>2026-04-18T09:10:06Z</time></trkpt><trkpt lat="44.35597000469931" lon="10.292064839539474"><ele>765.5</ele><time>2026-04-18T09:10:07Z</time></trkpt><trkpt lat="44.35591053203541" lon="10.291896189441799"><ele>768.0</ele><time>2026-04-18T09:10:08Z</time></trkpt><trkpt lat="44.35588324214698" lon="10.291713438565585"><ele>770.5</ele><time>2026-04-18T09:10:09Z</time></trkpt><trkpt lat="44.35589199675169" lon="10.291518786573672"><ele>773.0</ele><time>2026-04-18T09:10:10Z</time></trkpt><trkpt lat="44.35593268451428" lon="10.291331490895681"><ele>773.75</ele><time>2026-04-18T09:10:11Z</time></trkpt><trkpt lat="44.35596839745397" lon="10.291162855405522"><ele>774.5</ele><time>2026-04-18T09:10:12Z</time></trkpt><trkpt lat="44.35598439094117" lon="10.29100640083656"><ele>775.25</ele><time>2026-04-18T09:10:13Z</time></trkpt><trkpt lat="44.355981648075264" lon="10.290846270297504"><ele>776.0</ele><time>2026-04-18T09:10:14Z</time></trkpt><trkpt lat="44.35595217747738" lon="10.290686751899182"><ele>782.5</ele><time>2026-04-18T09:10:15Z</time></trkpt><trkpt lat="44.35589069192579" lon="10.290550259617653"><ele>789.0</ele><time>2026-04-18T09:10:16Z</time></trkpt><trkpt lat="44.35580210602175" lon="10.290440476704983"><ele>795.5</ele><time>2026-04-18T09:10:17Z</time></trkpt><trkpt lat="44.35568406730302" lon="10.290369278798275"><ele>802.0</ele><time>2026-04-18T09:10:18Z</time></trkpt><trkpt lat="44.35557917242172" lon="10.290322805835553"><ele>797.6</ele><time>2026-04-18T09:10:19Z</time></trkpt><trkpt lat="44.35547979258878" lon="10.290294244954056"><ele>793.2</ele><time>2026-04-18T09:10:20Z</time></trkpt><trkpt lat="44.35538558865746" lon="10.290324905381835"><ele>788.8</ele><time>2026-04-18T09:10:21Z</time></trkpt><trkpt lat="44.35529171108882" lon="10.290367967024023"><ele>784.4</ele><time>2026-04-18T09:10:22Z</time></trkpt><trkpt lat="44.3552259550661" lon="10.290432422155028"><ele>780.0</ele><time>2026-04-18T09:10:23Z</time></trkpt><trkpt lat="44.35516670918407" lon="10.290500036754242"><ele>780.0</ele><time>2026-04-18T09:10:24Z</time></trkpt><trkpt lat="44.35511983188947" lon="10.290572169258168"><ele>780.0</ele><time>2026-04-18T09:10:25Z</time></trkpt><trkpt lat="44.355053237251774" lon="10.290581793044275"><ele>780.0</ele><time>2026-04-18T09:10:26Z</time></trkpt><trkpt lat="44.354995323714945" lon="10.290539920664836"><ele>780.0</ele><time>2026-04-18T09:10:27Z</time></trkpt><trkpt lat="44.354958804859194" lon="10.29043629429421"><ele>780.0</ele><time>2026-04-18T09:10:28Z</time></trkpt><trkpt lat="44.3549412720721" lon="10.29029640521316"><ele>780.0</ele><time>2026-04-18T09:10:29Z</time></trkpt><trkpt lat="44.3549171190491" lon="10.290147017428415"><ele>780.0</ele><time>2026-04-18T09:10:30Z</time></trkpt><trkpt lat="44.35487228556508" lon="10.289996004187742"><ele>780.0</ele><time>2026-04-18T09:10:31Z</time></trkpt><trkpt lat="44.354798548009235" lon="10.28986089265491"><ele>780.0</ele><time>2026-04-18T09:10:32Z</time></trkpt><trkpt lat="44.35469752600059" lon="10.289759516329768"><ele>780.0</ele><time>2026-04-18T09:10:33Z</time></trkpt><trkpt lat="44.35458990639265" lon="10.289692687255137"><ele>778.0</ele><time>2026-04-18T09:10:34Z</time></trkpt><trkpt lat="44.354486157976275" lon="10.289659776961217"><ele>776.0</ele><time>2026-04-18T09:10:35Z</time></trkpt><trkpt lat="44.354383780596535" lon="10.289638503041537"><ele>774.0</ele><time>2026-04-18T09:10:36Z</time></trkpt><trkpt lat="44.35427224665107" lon="10.289585516797136"><ele>772.0</ele><time>2026-04-18T09:10:37Z</time></trkpt><trkpt lat="44.354175466733516" lon="10.289501622658898"><ele>770.0</ele><time>2026-04-18T09:10:38Z</time></trkpt><trkpt lat="44.35411321803933" lon="10.28938190632358"><ele>770.0</ele><time>2026-04-18T09:10:39Z</time></trkpt><trkpt lat="44.35407048815444" lon="10.289230961597092"><ele>770.0</ele><time>2026-04-18T09:10:40Z</time></trkpt><trkpt lat="44.35403915426372" lon="10.289075341286999"><ele>770.0</ele><time>2026-04-18T09:10:41Z</time></trkpt><trkpt lat="44.353993056983185" lon="10.288908568654966"><ele>770.0</ele><time>2026-04-18T09:10:42Z</time></trkpt><trkpt lat="44.35392924134135" lon="10.28875273799926"><ele>767.0</ele><time>2026-04-18T09:10:43Z</time></trkpt><trkpt lat="44.35385703275891" lon="10.288632174708388"><ele>764.0</ele><time>2026-04-18T09:10:44Z</time></trkpt><trkpt lat="44.35378152690527" lon="10.28852878031918"><ele>761.0</ele><time>2026-04-18T09:10:45Z</time></trkpt><trkpt lat="44.353697705210706" lon="10.28841131776509"><ele>758.0</ele><time>2026-04-18T09:10:46Z</time></trkpt><trkpt lat="44.35361040022571" lon="10.288280606859207"><ele>758.0</ele><time>2026-04-18T09:10:47Z</time></trkpt><trkpt lat="44.35352337210414" lon="10.288155523877268"><ele>758.0</ele><time>2026-04-18T09:10:48Z</time></trkpt><trkpt lat="44.353441126555154" lon="10.288036184096214"><ele>758.0</ele><time>2026-04-18T09:10:49Z</time></trkpt><trkpt lat="44.35335734852066" lon="10.28794959532423"><ele>758.0</ele><time>2026-04-18T09:10:50Z</time></trkpt><trkpt lat="44.353254806598606" lon="10.287920957001218"><ele>757.25</ele><time>2026-04-18T09:10:51Z</time></trkpt><trkpt lat="44.353148952785595" lon="10.287948039534987"><ele>756.5</ele><time>2026-04-18T09:10:52Z</time></trkpt><trkpt lat="44.35303837808514" lon="10.28802263518404"><ele>755.75</ele><time>2026-04-18T09:10:53Z</time></trkpt><trkpt lat="44.3529380549999" lon="10.288104655376419"><ele>755.0</ele><time>2026-04-18T09:10:54Z</time></trkpt><trkpt lat="44.3528409299683" lon="10.28815247748798"><ele>755.0</ele><time>2026-04-18T09:10:55Z</time></trkpt><trkpt lat="44.352736539270744" lon="10.288159048228131"><ele>755.0</ele><time>2026-04-18T09:10:56Z</time></trkpt><trkpt lat="44.35262134185408" lon="10.28812285706985"><ele>755.0</ele><time>2026-04-18T09:10:57Z</time></trkpt><trkpt lat="44.35251489205881" lon="10.288038784062886"><ele>755.0</ele><time>2026-04-18T09:10:58Z</time></trkpt><trkpt lat="44.35243597114047" lon="10.287919253353753"><ele>755.0</ele><time>2026-04-18T09:10:59Z</time></trkpt><trkpt lat="44.352377680239755" lon="10.287775954582065"><ele>755.0</ele><time>2026-04-18T09:11:00Z</time></trkpt><trkpt lat="44.352312149042405" lon="10.28762438661103"><ele>755.0</ele><time>2026-04-18T09:11:01Z</time></trkpt><trkpt lat="44.35223531701358" lon="10.287457839488727"><ele>755.0</ele><time>2026-04-18T09:11:02Z</time></trkpt><trkpt lat="44.35215749702562" lon="10.287294060102575"><ele>752.25</ele><time>2026-04-18T09:11:03Z</time></trkpt><trkpt lat="44.35208578338081" lon="10.28713955270943"><ele>749.5</ele><time>2026-04-18T09:11:04Z</time></trkpt><trkpt lat="44.35201326206634" lon="10.286987553804648"><ele>746.75</ele><time>2026-04-18T09:11:05Z</time></trkpt><trkpt lat="44.35195725431211" lon="10.286821174455158"><ele>744.0</ele><time>2026-04-18T09:11:06Z</time></trkpt><trkpt lat="44.35194505921691" lon="10.28662677861589"><ele>744.0</ele><time>2026-04-18T09:11:07Z</time></trkpt><trkpt lat="44.35197022080612" lon="10.286440650028103"><ele>744.0</ele><time>2026-04-18T09:11:08Z</time></trkpt><trkpt lat="44.352010253758934" lon="10.286264012504867"><ele>744.0</ele><time>2026-04-18T09:11:09Z</time></trkpt><trkpt lat="44.35208120468567" lon="10.2861015952802"><ele>744.0</ele><time>2026-04-18T09:11:10Z</time></trkpt><trkpt lat="44.35216896162836" lon="10.285954313372418"><ele>744.5</ele><time>2026-04-18T09:11:11Z</time></trkpt><trkpt lat="44.35226571279163" lon="10.285820128835837"><ele>745.0</ele><time>2026-04-18T09:11:12Z</time></trkpt><trkpt lat="44.3523850252915" lon="10.285724101952933"><ele>745.5</ele><time>2026-04-18T09:11:13Z</time></trkpt><trkpt lat="44.35250777170239" lon="10.285658212053871"><ele>746.0</ele><time>2026-04-18T09:11:14Z</time></trkpt><trkpt lat="44.35258920510107" lon="10.285560607838583"><ele>743.0</ele><time>2026-04-18T09:11:15Z</time></trkpt><trkpt lat="44.35262554804669" lon="10.285409008027298"><ele>740.0</ele><time>2026-04-18T09:11:16Z</time></trkpt><trkpt lat="44.352625351360246" lon="10.285199570799657"><ele>737.0</ele><time>2026-04-18T09:11:17Z</time></trkpt><trkpt lat="44.352604970291196" lon="10.284946711115952"><ele>734.0</ele><time>2026-04-18T09:11:18Z</time></trkpt><trkpt lat="44.35261221682053" lon="10.284688430164955"><ele>732.5</ele><time>2026-04-18T09:11:19Z</time></trkpt><trkpt lat="44.35261308479737" lon="10.284475325069096"><ele>731.0</ele><time>2026-04-18T09:11:20Z</time></trkpt><trkpt lat="44.35261173129825" lon="10.284271102899362"><ele>729.5</ele><time>2026-04-18T09:11:21Z</time></trkpt><trkpt lat="44.35261544754834" lon="10.284069883176578"><ele>728.0</ele><time>2026-04-18T09:11:22Z</time></trkpt><trkpt lat="44.352641011045115" lon="10.283871341153192"><ele>724.75</ele><time>2026-04-18T09:11:23Z</time></trkpt><trkpt lat="44.352656596273334" lon="10.283697582857286"><ele>721.5</ele><time>2026-04-18T09:11:24Z</time></trkpt><trkpt lat="44.35267907630362" lon="10.28352210878473"><ele>718.25</ele><time>2026-04-18T09:11:25Z</time></trkpt><trkpt lat="44.35271031171521" lon="10.283355632396285"><ele>715.0</ele><time>2026-04-18T09:11:26Z</time></trkpt><trkpt lat="44.3527757959871" lon="10.2832264783216"><ele>715.0</ele><time>2026-04-18T09:11:27Z</time></trkpt><trkpt lat="44.35285988188647" lon="10.283126745137073"><ele>715.0</ele><time>2026-04-18T09:11:28Z</time></trkpt><trkpt lat="44.35294305014596" lon="10.283037771535179"><ele>715.0</ele><time>2026-04-18T09:11:29Z</time></trkpt><trkpt lat="44.35300776890796" lon="10.282915012832008"><ele>715.0</ele><time>2026-04-18T09:11:30Z</time></trkpt><trkpt lat="44.353041083546984" lon="10.282751959959716"><ele>715.0</ele><time>2026-04-18T09:11:31Z</time></trkpt><trkpt lat="44.35304241629059" lon="10.282565137433517"><ele>716.25</ele><time>2026-04-18T09:11:32Z</time></trkpt><trkpt lat="44.35301553122572" lon="10.282383149130194"><ele>717.5</ele><time>2026-04-18T09:11:33Z</time></trkpt><trkpt lat="44.3529438811518" lon="10.282227817475656"><ele>718.75</ele><time>2026-04-18T09:11:34Z</time></trkpt><trkpt lat="44.35282723256297" lon="10.282107662607245"><ele>720.0</ele><time>2026-04-18T09:11:35Z</time></trkpt><trkpt lat="44.3526919576242" lon="10.28204791820731"><ele>720.0</ele><time>2026-04-18T09:11:36Z</time></trkpt><trkpt lat="44.35253161354216" lon="10.282002483533049"><ele>720.0</ele><time>2026-04-18T09:11:37Z</time></trkpt><trkpt lat="44.352371837148766" lon="10.281935018941356"><ele>720.0</ele><time>2026-04-18T09:11:38Z</time></trkpt><trkpt lat="44.352210033479444" lon="10.281873513173533"><ele>725.0</ele><time>2026-04-18T09:11:39Z</time></trkpt><trkpt lat="44.35204990809849" lon="10.28180892570042"><ele>730.0</ele><time>2026-04-18T09:11:40Z</time></trkpt><trkpt lat="44.351889330865596" lon="10.281753947084832"><ele>735.0</ele><time>2026-04-18T09:11:41Z</time></trkpt><trkpt lat="44.35172916586673" lon="10.28174521732816"><ele>735.0</ele><time>2026-04-18T09:11:42Z</time></trkpt><trkpt lat="44.351568503021866" lon="10.281758743955404"><ele>735.0</ele><time>2026-04-18T09:11:43Z</time></trkpt><trkpt lat="44.351416621753295" lon="10.281802616887973"><ele>735.0</ele><time>2026-04-18T09:11:44Z</time></trkpt><trkpt lat="44.35126596445129" lon="10.281880095993289"><ele>735.5</ele><time>2026-04-18T09:11:45Z</time></trkpt><trkpt lat="44.351117522735365" lon="10.281939379082957"><ele>736.0</ele><time>2026-04-18T09:11:46Z</time></trkpt><trkpt lat="44.35096565195798" lon="10.281951032870374"><ele>736.5</ele><time>2026-04-18T09:11:47Z</time></trkpt><trkpt lat="44.350825822554846" lon="10.281938469381199"><ele>737.0</ele><time>2026-04-18T09:11:48Z</time></trkpt><trkpt lat="44.35067410940218" lon="10.281893187676392"><ele>736.3333333333333</ele><time>2026-04-18T09:11:49Z</time></trkpt><trkpt lat="44.35048842966874" lon="10.28182284018644"><ele>735.6666666666666</ele><time>2026-04-18T09:11:50Z</time></trkpt><trkpt lat="44.350273373209916" lon="10.28172946546599"><ele>735.0</ele><time>2026-04-18T09:11:51Z</time></trkpt><trkpt lat="44.35010271132109" lon="10.281641417577909"><ele>735.0</ele><time>2026-04-18T09:11:52Z</time></trkpt><trkpt lat="44.349906552368836" lon="10.281680259825686"><ele>735.0</ele><time>2026-04-18T09:11:53Z</time></trkpt><trkpt lat="44.349699238141085" lon="10.281723168016974"><ele>735.0</ele><time>2026-04-18T09:11:54Z</time></trkpt><trkpt lat="44.34944804310285" lon="10.281733277686484"><ele>738.5</ele><time>2026-04-18T09:11:55Z</time></trkpt><trkpt lat="44.349189078426164" lon="10.281681234095965"><ele>742.0</ele><time>2026-04-18T09:11:56Z</time></trkpt><trkpt lat="44.34889606259169" lon="10.28156166877609"><ele>746.5</ele><time>2026-04-18T09:11:57Z</time></trkpt><trkpt lat="44.348646159758005" lon="10.281479557848035"><ele>751.0</ele><time>2026-04-18T09:11:58Z</time></trkpt><trkpt lat="44.34844520976106" lon="10.281431609014739"><ele>754.3333333333334</ele><time>2026-04-18T09:11:59Z</time></trkpt><trkpt lat="44.34826279256723" lon="10.281363381474641"><ele>757.6666666666666</ele><time>2026-04-18T09:12:00Z</time></trkpt><trkpt lat="44.348082828954475" lon="10.281286359624795"><ele>761.0</ele><time>2026-04-18T09:12:01Z</time></trkpt><trkpt lat="44.34790602530368" lon="10.281186635661134"><ele>761.0</ele><time>2026-04-18T09:12:02Z</time></trkpt><trkpt lat="44.347705211906195" lon="10.281049858618546"><ele>761.0</ele><time>2026-04-18T09:12:03Z</time></trkpt><trkpt lat="44.34750849437848" lon="10.280873591098326"><ele>761.0</ele><time>2026-04-18T09:12:04Z</time></trkpt><trkpt lat="44.34732435441344" lon="10.280684717388311"><ele>761.0</ele><time>2026-04-18T09:12:05Z</time></trkpt><trkpt lat="44.34718529441579" lon="10.280504756643156"><ele>761.0</ele><time>2026-04-18T09:12:06Z</time></trkpt><trkpt lat="44.34698339549257" lon="10.280194525099919"><ele>764.0</ele><time>2026-04-18T09:12:07Z</time></trkpt><trkpt lat="44.34680002554989" lon="10.279884945762864"><ele>767.0</ele><time>2026-04-18T09:12:08Z</time></trkpt><trkpt lat="44.3466133310365" lon="10.279583849999023"><ele>767.0</ele><time>2026-04-18T09:12:09Z</time></trkpt><trkpt lat="44.34642678639253" lon="10.279250170821244"><ele>767.0</ele><time>2026-04-18T09:12:10Z</time></trkpt><trkpt lat="44.34624500557496" lon="10.27891197187475"><ele>768.5</ele><time>2026-04-18T09:12:11Z</time></trkpt><trkpt lat="44.346069168529816" lon="10.27857552989397"><ele>770.0</ele><time>2026-04-18T09:12:12Z</time></trkpt><trkpt lat="44.3458817696302" lon="10.278244448162875"><ele>768.0</ele><time>2026-04-18T09:12:13Z</time></trkpt><trkpt lat="44.345702479709445" lon="10.277923677904298"><ele>766.0</ele><time>2026-04-18T09:12:14Z</time></trkpt><trkpt lat="44.34553049307806" lon="10.277613749509921"><ele>770.0</ele><time>2026-04-18T09:12:15Z</time></trkpt><trkpt lat="44.345333649952394" lon="10.277267463229682"><ele>774.0</ele><time>2026-04-18T09:12:16Z</time></trkpt><trkpt lat="44.34514834493033" lon="10.276934975589471"><ele>774.0</ele><time>2026-04-18T09:12:17Z</time></trkpt><trkpt lat="44.34499167608235" lon="10.276656346784721"><ele>774.0</ele><time>2026-04-18T09:12:18Z</time></trkpt><trkpt lat="44.34483268729827" lon="10.276374608770384"><ele>770.0</ele><time>2026-04-18T09:12:19Z</time></trkpt><trkpt lat="44.34467977240348" lon="10.276100200221967"><ele>766.0</ele><time>2026-04-18T09:12:20Z</time></trkpt><trkpt lat="44.344523972748604" lon="10.275845646904889"><ele>770.0</ele><time>2026-04-18T09:12:21Z</time></trkpt><trkpt lat="44.34438036866654" lon="10.275575012168686"><ele>774.0</ele><time>2026-04-18T09:12:22Z</time></trkpt><trkpt lat="44.34423933854827" lon="10.275319341184709"><ele>774.0</ele><time>2026-04-18T09:12:23Z</time></trkpt><trkpt lat="44.344089184935996" lon="10.27505331697957"><ele>774.0</ele><time>2026-04-18T09:12:24Z</time></trkpt><trkpt lat="44.343948186178686" lon="10.274799716631458"><ele>777.0</ele><time>2026-04-18T09:12:25Z</time></trkpt><trkpt lat="44.34379672014072" lon="10.274534263478204"><ele>780.0</ele><time>2026-04-18T09:12:26Z</time></trkpt><trkpt lat="44.34364931109203" lon="10.274273322162426"><ele>780.0</ele><time>2026-04-18T09:12:27Z</time></trkpt><trkpt lat="44.34350293981178" lon="10.274006184475853"><ele>780.0</ele><time>2026-04-18T09:12:28Z</time></trkpt><trkpt lat="44.34336437007588" lon="10.273755242909118"><ele>783.0</ele><time>2026-04-18T09:12:29Z</time></trkpt><trkpt lat="44.34323173874759" lon="10.273515410862553"><ele>786.0</ele><time>2026-04-18T09:12:30Z</time></trkpt><trkpt lat="44.34310652642651" lon="10.273284994156787"><ele>789.0</ele><time>2026-04-18T09:12:31Z</time></trkpt><trkpt lat="44.34298224651551" lon="10.273041343426051"><ele>789.0</ele><time>2026-04-18T09:12:32Z</time></trkpt><trkpt lat="44.342870219345436" lon="10.2727919236727"><ele>789.0</ele><time>2026-04-18T09:12:33Z</time></trkpt><trkpt lat="44.342767414098994" lon="10.272524173308001"><ele>789.0</ele><time>2026-04-18T09:12:34Z</time></trkpt><trkpt lat="44.342681869658975" lon="10.27224900690993"><ele>792.3333333333333</ele><time>2026-04-18T09:12:35Z</time></trkpt><trkpt lat="44.34260357885966" lon="10.271971342498873"><ele>795.6666666666666</ele><time>2026-04-18T09:12:36Z</time></trkpt><trkpt lat="44.34254247695787" lon="10.271693406493235"><ele>799.0</ele><time>2026-04-18T09:12:37Z</time></trkpt><trkpt lat="44.34248787601631" lon="10.27140068195552"><ele>800.6666666666666</ele><time>2026-04-18T09:12:38Z</time></trkpt><trkpt lat="44.342450195530965" lon="10.271100989950835"><ele>802.3333333333333</ele><time>2026-04-18T09:12:39Z</time></trkpt><trkpt lat="44.34242358682133" lon="10.270791293588932"><ele>804.0</ele><time>2026-04-18T09:12:40Z</time></trkpt><trkpt lat="44.342406309621566" lon="10.27048162963379"><ele>806.0</ele><time>2026-04-18T09:12:41Z</time></trkpt><trkpt lat="44.34239212659359" lon="10.27017267088119"><ele>808.0</ele><time>2026-04-18T09:12:42Z</time></trkpt><trkpt lat="44.34237056718322" lon="10.26985799026396"><ele>810.0</ele><time>2026-04-18T09:12:43Z</time></trkpt><trkpt lat="44.3423568725789" lon="10.269565498650609"><ele>810.0</ele><time>2026-04-18T09:12:44Z</time></trkpt><trkpt lat="44.342339856040226" lon="10.26928396851558"><ele>810.0</ele><time>2026-04-18T09:12:45Z</time></trkpt><trkpt lat="44.34232614572579" lon="10.269018385818233"><ele>810.0</ele><time>2026-04-18T09:12:46Z</time></trkpt><trkpt lat="44.342314053220406" lon="10.268759899045076"><ele>810.0</ele><time>2026-04-18T09:12:47Z</time></trkpt><trkpt lat="44.342294992963666" lon="10.268515308922508"><ele>810.0</ele><time>2026-04-18T09:12:48Z</time></trkpt><trkpt lat="44.342256692055024" lon="10.268275630861954"><ele>810.0</ele><time>2026-04-18T09:12:49Z</time></trkpt><trkpt lat="44.342202964062444" lon="10.268034571138344"><ele>805.0</ele><time>2026-04-18T09:12:50Z</time></trkpt><trkpt lat="44.342137717487766" lon="10.267798922938905"><ele>800.0</ele><time>2026-04-18T09:12:51Z</time></trkpt><trkpt lat="44.34206739080595" lon="10.26756724980343"><ele>795.0</ele><time>2026-04-18T09:12:52Z</time></trkpt><trkpt lat="44.34198548605789" lon="10.267349321440719"><ele>799.0</ele><time>2026-04-18T09:12:53Z</time></trkpt><trkpt lat="44.341893810070985" lon="10.267147626924505"><ele>803.0</ele><time>2026-04-18T09:12:54Z</time></trkpt><trkpt lat="44.341786037749145" lon="10.266964035996557"><ele>807.0</ele><time>2026-04-18T09:12:55Z</time></trkpt><trkpt lat="44.34167902002663" lon="10.266780740428546"><ele>807.0</ele><time>2026-04-18T09:12:56Z</time></trkpt><trkpt lat="44.341560412239055" lon="10.266605970325843"><ele>807.0</ele><time>2026-04-18T09:12:57Z</time></trkpt><trkpt lat="44.341429542379544" lon="10.266444450915465"><ele>807.0</ele><time>2026-04-18T09:12:58Z</time></trkpt><trkpt lat="44.34129447007537" lon="10.266308243697932"><ele>806.3333333333333</ele><time>2026-04-18T09:12:59Z</time></trkpt><trkpt lat="44.34115339829658" lon="10.26617278942447"><ele>805.6666666666666</ele><time>2026-04-18T09:13:00Z</time></trkpt><trkpt lat="44.34100975193665" lon="10.266051800890878"><ele>805.0</ele><time>2026-04-18T09:13:01Z</time></trkpt><trkpt lat="44.34086589630494" lon="10.265956656473147"><ele>805.0</ele><time>2026-04-18T09:13:02Z</time></trkpt><trkpt lat="44.3407213324609" lon="10.265873528909053"><ele>805.0</ele><time>2026-04-18T09:13:03Z</time></trkpt><trkpt lat="44.340575900298745" lon="10.265801979376128"><ele>805.0</ele><time>2026-04-18T09:13:04Z</time></trkpt><trkpt lat="44.340439097357944" lon="10.265737837783817"><ele>804.0</ele><time>2026-04-18T09:13:05Z</time></trkpt><trkpt lat="44.340300606301476" lon="10.265666715427722"><ele>803.0</ele><time>2026-04-18T09:13:06Z</time></trkpt><trkpt lat="44.340169508967875" lon="10.265589761045678"><ele>802.0</ele><time>2026-04-18T09:13:07Z</time></trkpt><trkpt lat="44.34005349420264" lon="10.265513524662923"><ele>801.0</ele><time>2026-04-18T09:13:08Z</time></trkpt><trkpt lat="44.33995228475899" lon="10.265432454050828"><ele>801.4</ele><time>2026-04-18T09:13:09Z</time></trkpt><trkpt lat="44.33986273924232" lon="10.26535192442982"><ele>801.8</ele><time>2026-04-18T09:13:10Z</time></trkpt><trkpt lat="44.339785263999936" lon="10.265269893006826"><ele>802.1999999999999</ele><time>2026-04-18T09:13:11Z</time></trkpt><trkpt lat="44.339719699048715" lon="10.265182350367594"><ele>802.5999999999999</ele><time>2026-04-18T09:13:12Z</time></trkpt><trkpt lat="44.33965278889266" lon="10.265108317577429"><ele>803.0</ele><time>2026-04-18T09:13:13Z</time></trkpt><trkpt lat="44.339584481733255" lon="10.26505165257053"><ele>803.0</ele><time>2026-04-18T09:13:14Z</time></trkpt><trkpt lat="44.3395253788012" lon="10.264959940569359"><ele>803.0</ele><time>2026-04-18T09:13:15Z</time></trkpt><trkpt lat="44.33947977225175" lon="10.264835349379165"><ele>803.0</ele><time>2026-04-18T09:13:16Z</time></trkpt><trkpt lat="44.33946833661651" lon="10.26469324633059"><ele>803.0</ele><time>2026-04-18T09:13:17Z</time></trkpt><trkpt lat="44.339484269378055" lon="10.264531352545907"><ele>803.0</ele><time>2026-04-18T09:13:18Z</time></trkpt><trkpt lat="44.33951788230398" lon="10.264365463498075"><ele>801.25</ele><time>2026-04-18T09:13:19Z</time></trkpt><trkpt lat="44.339545194668325" lon="10.264190693356998"><ele>799.5</ele><time>2026-04-18T09:13:20Z</time></trkpt><trkpt lat="44.33954531005524" lon="10.263992997840749"><ele>797.75</ele><time>2026-04-18T09:13:21Z</time></trkpt><trkpt lat="44.339520594732555" lon="10.263785866651748"><ele>796.0</ele><time>2026-04-18T09:13:22Z</time></trkpt><trkpt lat="44.33948968776266" lon="10.263587898974894"><ele>796.0</ele><time>2026-04-18T09:13:23Z</time></trkpt><trkpt lat="44.33946166512677" lon="10.263408116478866"><ele>796.0</ele><time>2026-04-18T09:13:24Z</time></trkpt><trkpt lat="44.339459781789316" lon="10.263235314102838"><ele>796.0</ele><time>2026-04-18T09:13:25Z</time></trkpt><trkpt lat="44.33950234334813" lon="10.26308145056107"><ele>796.0</ele><time>2026-04-18T09:13:26Z</time></trkpt><trkpt lat="44.33957752879877" lon="10.262938495024123"><ele>796.1999999999999</ele><time>2026-04-18T09:13:27Z</time></trkpt><trkpt lat="44.33966159811896" lon="10.262833451932252"><ele>796.4</ele><time>2026-04-18T09:13:28Z</time></trkpt><trkpt lat="44.33973050773918" lon="10.262724145220941"><ele>796.6</ele><time>2026-04-18T09:13:29Z</time></trkpt><trkpt lat="44.3397534087694" lon="10.26257294228833"><ele>796.8</ele><time>2026-04-18T09:13:30Z</time></trkpt><trkpt lat="44.33972566866774" lon="10.262420548985187"><ele>797.0</ele><time>2026-04-18T09:13:31Z</time></trkpt><trkpt lat="44.3396570195978" lon="10.262272116686539"><ele>797.0</ele><time>2026-04-18T09:13:32Z</time></trkpt><trkpt lat="44.33957457296113" lon="10.262132373638922"><ele>797.0</ele><time>2026-04-18T09:13:33Z</time></trkpt><trkpt lat="44.339473212922734" lon="10.262010624452657"><ele>797.0</ele><time>2026-04-18T09:13:34Z</time></trkpt><trkpt lat="44.33935041668185" lon="10.261909002712654"><ele>797.0</ele><time>2026-04-18T09:13:35Z</time></trkpt><trkpt lat="44.339224939154235" lon="10.261830271264076"><ele>797.0</ele><time>2026-04-18T09:13:36Z</time></trkpt><trkpt lat="44.33912596528918" lon="10.261703326437763"><ele>797.0</ele><time>2026-04-18T09:13:37Z</time></trkpt><trkpt lat="44.33905567637884" lon="10.261539134671132"><ele>797.0</ele><time>2026-04-18T09:13:38Z</time></trkpt><trkpt lat="44.33899741253374" lon="10.261383912282302"><ele>797.0</ele><time>2026-04-18T09:13:39Z</time></trkpt><trkpt lat="44.338957925945124" lon="10.261204316353913"><ele>796.5</ele><time>2026-04-18T09:13:40Z</time></trkpt><trkpt lat="44.33895521561975" lon="10.260996312610594"><ele>796.0</ele><time>2026-04-18T09:13:41Z</time></trkpt><trkpt lat="44.33897993570871" lon="10.260784629228489"><ele>795.5</ele><time>2026-04-18T09:13:42Z</time></trkpt><trkpt lat="44.33900239335725" lon="10.260592985694235"><ele>795.0</ele><time>2026-04-18T09:13:43Z</time></trkpt><trkpt lat="44.339041575972395" lon="10.260411823467056"><ele>795.0</ele><time>2026-04-18T09:13:44Z</time></trkpt><trkpt lat="44.3390910896939" lon="10.26023954825748"><ele>795.0</ele><time>2026-04-18T09:13:45Z</time></trkpt><trkpt lat="44.33911713758151" lon="10.260063120239405"><ele>795.0</ele><time>2026-04-18T09:13:46Z</time></trkpt><trkpt lat="44.33908555438471" lon="10.259871695905083"><ele>795.0</ele><time>2026-04-18T09:13:47Z</time></trkpt><trkpt lat="44.339037738777385" lon="10.2596834463578"><ele>798.6666666666667</ele><time>2026-04-18T09:13:48Z</time></trkpt><trkpt lat="44.3389770726264" lon="10.259499147408317"><ele>802.3333333333334</ele><time>2026-04-18T09:13:49Z</time></trkpt><trkpt lat="44.33888331197989" lon="10.25932412099239"><ele>806.0</ele><time>2026-04-18T09:13:50Z</time></trkpt><trkpt lat="44.338753213221935" lon="10.259177689770876"><ele>803.3333333333334</ele><time>2026-04-18T09:13:51Z</time></trkpt><trkpt lat="44.33860432215172" lon="10.25907549944053"><ele>800.6666666666667</ele><time>2026-04-18T09:13:52Z</time></trkpt><trkpt lat="44.33845096460938" lon="10.25899237267839"><ele>798.0</ele><time>2026-04-18T09:13:53Z</time></trkpt><trkpt lat="44.33830475518077" lon="10.258928813433998"><ele>798.0</ele><time>2026-04-18T09:13:54Z</time></trkpt><trkpt lat="44.33817191305125" lon="10.258850711247826"><ele>798.0</ele><time>2026-04-18T09:13:55Z</time></trkpt><trkpt lat="44.338055507341956" lon="10.258742650875751"><ele>798.0</ele><time>2026-04-18T09:13:56Z</time></trkpt><trkpt lat="44.337951491139634" lon="10.258595729899005"><ele>798.0</ele><time>2026-04-18T09:13:57Z</time></trkpt><trkpt lat="44.33787357138817" lon="10.258415776092914"><ele>794.0</ele><time>2026-04-18T09:13:58Z</time></trkpt><trkpt lat="44.337825916101" lon="10.258214432451455"><ele>790.0</ele><time>2026-04-18T09:13:59Z</time></trkpt><trkpt lat="44.33778670703748" lon="10.257997048479126"><ele>786.0</ele><time>2026-04-18T09:14:00Z</time></trkpt><trkpt lat="44.33772497949265" lon="10.257690172724688"><ele>786.0</ele><time>2026-04-18T09:14:01Z</time></trkpt><trkpt lat="44.33767549661451" lon="10.25734925571643"><ele>786.0</ele><time>2026-04-18T09:14:02Z</time></trkpt><trkpt lat="44.337643946052694" lon="10.257078070292433"><ele>786.0</ele><time>2026-04-18T09:14:03Z</time></trkpt><trkpt lat="44.33760976555901" lon="10.256824836139845"><ele>788.25</ele><time>2026-04-18T09:14:04Z</time></trkpt><trkpt lat="44.337578687412666" lon="10.25660673584523"><ele>790.5</ele><time>2026-04-18T09:14:05Z</time></trkpt><trkpt lat="44.33753697267207" lon="10.256411676002639"><ele>792.75</ele><time>2026-04-18T09:14:06Z</time></trkpt><trkpt lat="44.33747062221576" lon="10.256234276916574"><ele>795.0</ele><time>2026-04-18T09:14:07Z</time></trkpt><trkpt lat="44.33737482341508" lon="10.256083982608107"><ele>796.5</ele><time>2026-04-18T09:14:08Z</time></trkpt><trkpt lat="44.337257409213336" lon="10.255972370174621"><ele>798.0</ele><time>2026-04-18T09:14:09Z</time></trkpt><trkpt lat="44.33714008092278" lon="10.255911664342454"><ele>799.5</ele><time>2026-04-18T09:14:10Z</time></trkpt><trkpt lat="44.33707234746018" lon="10.255819027748439"><ele>801.0</ele><time>2026-04-18T09:14:11Z</time></trkpt><trkpt lat="44.33704440786923" lon="10.255699097764426"><ele>797.5</ele><time>2026-04-18T09:14:12Z</time></trkpt><trkpt lat="44.33705605800721" lon="10.255577735626405"><ele>794.0</ele><time>2026-04-18T09:14:13Z</time></trkpt><trkpt lat="44.337116498985786" lon="10.255468631412231"><ele>790.5</ele><time>2026-04-18T09:14:14Z</time></trkpt><trkpt lat="44.3372413748895" lon="10.255291833678903"><ele>787.0</ele><time>2026-04-18T09:14:15Z</time></trkpt><trkpt lat="44.33738507108503" lon="10.255071607411788"><ele>787.0</ele><time>2026-04-18T09:14:16Z</time></trkpt><trkpt lat="44.33748028641202" lon="10.254835609862196"><ele>787.0</ele><time>2026-04-18T09:14:17Z</time></trkpt><trkpt lat="44.337524135035544" lon="10.254562942297603"><ele>787.0</ele><time>2026-04-18T09:14:18Z</time></trkpt><trkpt lat="44.337551853688424" lon="10.254307946848472"><ele>784.0</ele><time>2026-04-18T09:14:19Z</time></trkpt><trkpt lat="44.33755512824095" lon="10.254100892564841"><ele>781.0</ele><time>2026-04-18T09:14:20Z</time></trkpt><trkpt lat="44.33752133134436" lon="10.253908077673588"><ele>778.0</ele><time>2026-04-18T09:14:21Z</time></trkpt><trkpt lat="44.33742270832944" lon="10.253720018054008"><ele>778.0</ele><time>2026-04-18T09:14:22Z</time></trkpt><trkpt lat="44.337274222285764" lon="10.25352602992647"><ele>778.0</ele><time>2026-04-18T09:14:23Z</time></trkpt><trkpt lat="44.33716464698976" lon="10.25338623912077"><ele>778.0</ele><time>2026-04-18T09:14:24Z</time></trkpt><trkpt lat="44.3369565682508" lon="10.253080190874568"><ele>783.6666666666666</ele><time>2026-04-18T09:14:25Z</time></trkpt><trkpt lat="44.3367952763386" lon="10.25284047953854"><ele>789.3333333333333</ele><time>2026-04-18T09:14:26Z</time></trkpt><trkpt lat="44.33665347175222" lon="10.25262367367935"><ele>795.0</ele><time>2026-04-18T09:14:27Z</time></trkpt><trkpt lat="44.33654366328337" lon="10.252463757036265"><ele>795.0</ele><time>2026-04-18T09:14:28Z</time></trkpt><trkpt lat="44.33648996730453" lon="10.252364892683824"><ele>795.0</ele><time>2026-04-18T09:14:29Z</time></trkpt><trkpt lat="44.336351234368784" lon="10.252396504551735"><ele>795.0</ele><time>2026-04-18T09:14:31Z</time></trkpt><trkpt lat="44.3362823326435" lon="10.252533584615655"><ele>795.0</ele><time>2026-04-18T09:14:32Z</time></trkpt><trkpt lat="44.336192473442665" lon="10.25271738857053"><ele>797.75</ele><time>2026-04-18T09:14:33Z</time></trkpt><trkpt lat="44.33608015969888" lon="10.252949031685676"><ele>800.5</ele><time>2026-04-18T09:14:34Z</time></trkpt><trkpt lat="44.336044371870614" lon="10.253172867632369"><ele>803.25</ele><time>2026-04-18T09:14:35Z</time></trkpt><trkpt lat="44.336007838679905" lon="10.253271543093662"><ele>806.0</ele><time>2026-04-18T09:14:37Z</time></trkpt><trkpt lat="44.33595323544686" lon="10.253369784178211"><ele>806.0</ele><time>2026-04-18T09:14:39Z</time></trkpt><trkpt lat="44.33588613669754" lon="10.253314561220856"><ele>806.0</ele><time>2026-04-18T09:14:40Z</time></trkpt><trkpt lat="44.33586016561039" lon="10.253213621518434"><ele>806.0</ele><time>2026-04-18T09:14:41Z</time></trkpt><trkpt lat="44.33590668027925" lon="10.253107882843159"><ele>806.0</ele><time>2026-04-18T09:14:42Z</time></trkpt><trkpt lat="44.33597766963964" lon="10.252935509777728"><ele>806.0</ele><time>2026-04-18T09:14:43Z</time></trkpt><trkpt lat="44.33607020591883" lon="10.252693649649226"><ele>813.5</ele><time>2026-04-18T09:14:44Z</time></trkpt><trkpt lat="44.33619322039543" lon="10.252376930454053"><ele>821.0</ele><time>2026-04-18T09:14:45Z</time></trkpt><trkpt lat="44.336340087903714" lon="10.252012450181342"><ele>821.0</ele><time>2026-04-18T09:14:46Z</time></trkpt><trkpt lat="44.33645086622984" lon="10.251732863416734"><ele>821.0</ele><time>2026-04-18T09:14:47Z</time></trkpt><trkpt lat="44.336545192481864" lon="10.251498483226326"><ele>821.0</ele><time>2026-04-18T09:14:48Z</time></trkpt><trkpt lat="44.33662019793836" lon="10.25130982744733"><ele>821.0</ele><time>2026-04-18T09:14:49Z</time></trkpt><trkpt lat="44.33666775275913" lon="10.251165004366396"><ele>821.0</ele><time>2026-04-18T09:14:50Z</time></trkpt><trkpt lat="44.33668885934098" lon="10.251061650956789"><ele>821.0</ele><time>2026-04-18T09:14:51Z</time></trkpt><trkpt lat="44.33664440316665" lon="10.250933221098288"><ele>821.0</ele><time>2026-04-18T09:14:53Z</time></trkpt><trkpt lat="44.33650805898853" lon="10.251020407774668"><ele>821.0</ele><time>2026-04-18T09:14:55Z</time></trkpt><trkpt lat="44.336438479155156" lon="10.25115940403514"><ele>827.6666666666667</ele><time>2026-04-18T09:14:56Z</time></trkpt><trkpt lat="44.33635887389405" lon="10.251372566924355"><ele>834.3333333333333</ele><time>2026-04-18T09:14:57Z</time></trkpt><trkpt lat="44.33623196606256" lon="10.25161971629394"><ele>841.0</ele><time>2026-04-18T09:14:58Z</time></trkpt><trkpt lat="44.33599772588901" lon="10.251950104099409"><ele>841.0</ele><time>2026-04-18T09:14:59Z</time></trkpt><trkpt lat="44.335810269718614" lon="10.25225767345934"><ele>841.0</ele><time>2026-04-18T09:15:00Z</time></trkpt><trkpt lat="44.33556554281115" lon="10.252633422019654"><ele>842.5</ele><time>2026-04-18T09:15:01Z</time></trkpt><trkpt lat="44.335309899904544" lon="10.253006554982438"><ele>844.0</ele><time>2026-04-18T09:15:02Z</time></trkpt><trkpt lat="44.33509080623246" lon="10.253308420635191"><ele>844.0</ele><time>2026-04-18T09:15:03Z</time></trkpt><trkpt lat="44.33492151698212" lon="10.253550396941458"><ele>844.0</ele><time>2026-04-18T09:15:04Z</time></trkpt><trkpt lat="44.3347536518884" lon="10.253753843692547"><ele>850.6666666666666</ele><time>2026-04-18T09:15:05Z</time></trkpt><trkpt lat="44.334607501347044" lon="10.253949409710208"><ele>857.3333333333333</ele><time>2026-04-18T09:15:06Z</time></trkpt><trkpt lat="44.33446820255889" lon="10.254138741546386"><ele>864.0</ele><time>2026-04-18T09:15:07Z</time></trkpt><trkpt lat="44.33438633098704" lon="10.2542978519094"><ele>864.0</ele><time>2026-04-18T09:15:08Z</time></trkpt><trkpt lat="44.334326312748864" lon="10.254446933671007"><ele>864.0</ele><time>2026-04-18T09:15:09Z</time></trkpt><trkpt lat="44.3343005069692" lon="10.25463354189876"><ele>864.0</ele><time>2026-04-18T09:15:10Z</time></trkpt><trkpt lat="44.33430746474151" lon="10.254847438208458"><ele>864.0</ele><time>2026-04-18T09:15:11Z</time></trkpt><trkpt lat="44.334298095781406" lon="10.255014071938506"><ele>864.0</ele><time>2026-04-18T09:15:12Z</time></trkpt><trkpt lat="44.33428810753263" lon="10.255119889559317"><ele>864.0000000000001</ele><time>2026-04-18T09:15:13Z</time></trkpt><trkpt lat="44.334235396353556" lon="10.255198733204256"><ele>864.0000000000001</ele><time>2026-04-18T09:15:15Z</time></trkpt><trkpt lat="44.3341950148231" lon="10.255083806543434"><ele>864.0</ele><time>2026-04-18T09:15:17Z</time></trkpt><trkpt lat="44.33416918754699" lon="10.254987134425823"><ele>864.0</ele><time>2026-04-18T09:15:18Z</time></trkpt><trkpt lat="44.33422178592396" lon="10.254698624592233"><ele>864.0</ele><time>2026-04-18T09:15:20Z</time></trkpt><trkpt lat="44.33424678656903" lon="10.254484259883334"><ele>864.0</ele><time>2026-04-18T09:15:21Z</time></trkpt><trkpt lat="44.33428595671518" lon="10.254335620789435"><ele>864.0</ele><time>2026-04-18T09:15:22Z</time></trkpt><trkpt lat="44.33431504000995" lon="10.254224126966555"><ele>864.0</ele><time>2026-04-18T09:15:23Z</time></trkpt><trkpt lat="44.33432041904823" lon="10.254058715554892"><ele>864.0</ele><time>2026-04-18T09:15:25Z</time></trkpt><trkpt lat="44.33421123976557" lon="10.254005353910507"><ele>864.0000000000001</ele><time>2026-04-18T09:15:27Z</time></trkpt><trkpt lat="44.33415559483373" lon="10.254066583873023"><ele>864.0000000000001</ele><time>2026-04-18T09:15:28Z</time></trkpt><trkpt lat="44.33411269988062" lon="10.254201251054624"><ele>864.0</ele><time>2026-04-18T09:15:29Z</time></trkpt><trkpt lat="44.33406707704312" lon="10.254389030073659"><ele>864.0</ele><time>2026-04-18T09:15:30Z</time></trkpt><trkpt lat="44.334001137800186" lon="10.254588966035252"><ele>864.0</ele><time>2026-04-18T09:15:31Z</time></trkpt><trkpt lat="44.33393233956744" lon="10.254770939599327"><ele>864.0</ele><time>2026-04-18T09:15:32Z</time></trkpt><trkpt lat="44.33386819626441" lon="10.254921912409584"><ele>864.0</ele><time>2026-04-18T09:15:33Z</time></trkpt><trkpt lat="44.333798020157985" lon="10.255086530877795"><ele>864.0</ele><time>2026-04-18T09:15:34Z</time></trkpt><trkpt lat="44.33374538617862" lon="10.25518833563544"><ele>870.0</ele><time>2026-04-18T09:15:35Z</time></trkpt><trkpt lat="44.333675478669825" lon="10.255286178391218"><ele>876.0</ele><time>2026-04-18T09:15:36Z</time></trkpt><trkpt lat="44.33355470916667" lon="10.255332178881076"><ele>882.0</ele><time>2026-04-18T09:15:37Z</time></trkpt><trkpt lat="44.333451242663564" lon="10.255431648153158"><ele>888.0</ele><time>2026-04-18T09:15:38Z</time></trkpt><trkpt lat="44.33337003995325" lon="10.255586086169014"><ele>893.0</ele><time>2026-04-18T09:15:39Z</time></trkpt><trkpt lat="44.33328017284994" lon="10.255809730125362"><ele>898.0</ele><time>2026-04-18T09:15:40Z</time></trkpt><trkpt lat="44.33315449636017" lon="10.255992183498552"><ele>903.0</ele><time>2026-04-18T09:15:41Z</time></trkpt><trkpt lat="44.33298783316017" lon="10.25613926543771"><ele>903.0</ele><time>2026-04-18T09:15:42Z</time></trkpt><trkpt lat="44.33279667267521" lon="10.256367600763411"><ele>903.0</ele><time>2026-04-18T09:15:43Z</time></trkpt><trkpt lat="44.332598387429904" lon="10.2566148416231"><ele>896.0</ele><time>2026-04-18T09:15:44Z</time></trkpt><trkpt lat="44.332462896148265" lon="10.256821786159904"><ele>889.0</ele><time>2026-04-18T09:15:45.001Z</time></trkpt><trkpt lat="44.332346701606156" lon="10.256948335907298"><ele>882.0</ele><time>2026-04-18T09:15:46.001Z</time></trkpt><trkpt lat="44.33223384997518" lon="10.257027375407551"><ele>887.0</ele><time>2026-04-18T09:15:47.001Z</time></trkpt><trkpt lat="44.33208129858023" lon="10.25702891498527"><ele>892.0</ele><time>2026-04-18T09:15:48.001Z</time></trkpt><trkpt lat="44.33187783605974" lon="10.257051162336024"><ele>897.0</ele><time>2026-04-18T09:15:48.999Z</time></trkpt><trkpt lat="44.33172176673411" lon="10.25704818734431"><ele>897.0</ele><time>2026-04-18T09:15:49.999Z</time></trkpt><trkpt lat="44.331627614133076" lon="10.256993190460944"><ele>897.0</ele><time>2026-04-18T09:15:50.999Z</time></trkpt><trkpt lat="44.331552102878376" lon="10.256872460245972"><ele>897.0</ele><time>2026-04-18T09:15:51.999Z</time></trkpt><trkpt lat="44.331424919057824" lon="10.256695783015184"><ele>897.0</ele><time>2026-04-18T09:15:52.999Z</time></trkpt><trkpt lat="44.33127899174533" lon="10.256529158790569"><ele>903.6666666666667</ele><time>2026-04-18T09:15:53.999Z</time></trkpt><trkpt lat="44.33110296371608" lon="10.256410817736858"><ele>910.3333333333334</ele><time>2026-04-18T09:15:54.999Z</time></trkpt><trkpt lat="44.33086647974508" lon="10.256315206091958"><ele>917.0</ele><time>2026-04-18T09:15:55.999Z</time></trkpt><trkpt lat="44.33064026297204" lon="10.256134942005648"><ele>910.0</ele><time>2026-04-18T09:15:56.999Z</time></trkpt><trkpt lat="44.33048686709733" lon="10.256022086693829"><ele>903.0</ele><time>2026-04-18T09:15:57.999Z</time></trkpt><trkpt lat="44.330377105319876" lon="10.255949374522638"><ele>896.0</ele><time>2026-04-18T09:15:58.999Z</time></trkpt><trkpt lat="44.33030161181979" lon="10.255840807413929"><ele>889.0</ele><time>2026-04-18T09:15:59.999Z</time></trkpt><trkpt lat="44.330284452856105" lon="10.255696384502109"><ele>899.5</ele><time>2026-04-18T09:16:00.999Z</time></trkpt><trkpt lat="44.330284441292456" lon="10.255526520908573"><ele>910.0</ele><time>2026-04-18T09:16:02Z</time></trkpt><trkpt lat="44.33026109694273" lon="10.255377436021703"><ele>920.5</ele><time>2026-04-18T09:16:03Z</time></trkpt><trkpt lat="44.33017707522648" lon="10.255293403959014"><ele>931.0</ele><time>2026-04-18T09:16:04Z</time></trkpt><trkpt lat="44.33003196849452" lon="10.255312738414208"><ele>931.0</ele><time>2026-04-18T09:16:05Z</time></trkpt><trkpt lat="44.32983731988081" lon="10.255363956026477"><ele>931.0</ele><time>2026-04-18T09:16:06Z</time></trkpt><trkpt lat="44.32965360006789" lon="10.25539962286119"><ele>931.0</ele><time>2026-04-18T09:16:07Z</time></trkpt><trkpt lat="44.32954964400435" lon="10.255408419696405"><ele>932.8</ele><time>2026-04-18T09:16:08Z</time></trkpt><trkpt lat="44.329487524829844" lon="10.255389788496629"><ele>934.5999999999999</ele><time>2026-04-18T09:16:09Z</time></trkpt><trkpt lat="44.329444286630356" lon="10.255309524531112"><ele>936.4</ele><time>2026-04-18T09:16:10Z</time></trkpt><trkpt lat="44.32942612173373" lon="10.25516089908611"><ele>938.2</ele><time>2026-04-18T09:16:11Z</time></trkpt><trkpt lat="44.32945805835935" lon="10.254953853258716"><ele>940.0</ele><time>2026-04-18T09:16:12Z</time></trkpt><trkpt lat="44.32949541064176" lon="10.254742906892844"><ele>940.0</ele><time>2026-04-18T09:16:13Z</time></trkpt><trkpt lat="44.32948307578736" lon="10.254594025414889"><ele>940.0</ele><time>2026-04-18T09:16:14Z</time></trkpt><trkpt lat="44.32943501943281" lon="10.25450748091709"><ele>940.0</ele><time>2026-04-18T09:16:15Z</time></trkpt><trkpt lat="44.329321343981995" lon="10.254452861676459"><ele>940.0</ele><time>2026-04-18T09:16:16Z</time></trkpt><trkpt lat="44.329183821661616" lon="10.25444081238489"><ele>940.0</ele><time>2026-04-18T09:16:17Z</time></trkpt><trkpt lat="44.329057898312165" lon="10.254450286526254"><ele>940.0</ele><time>2026-04-18T09:16:18Z</time></trkpt><trkpt lat="44.32894799323694" lon="10.254404058575558"><ele>940.0</ele><time>2026-04-18T09:16:19Z</time></trkpt><trkpt lat="44.32887951246808" lon="10.254236145711971"><ele>940.0</ele><time>2026-04-18T09:16:20Z</time></trkpt><trkpt lat="44.328781036776014" lon="10.254072948044128"><ele>940.0</ele><time>2026-04-18T09:16:21Z</time></trkpt><trkpt lat="44.32865190650588" lon="10.254066589193984"><ele>938.5</ele><time>2026-04-18T09:16:22Z</time></trkpt><trkpt lat="44.32857928253996" lon="10.254049667627703"><ele>937.0</ele><time>2026-04-18T09:16:23Z</time></trkpt><trkpt lat="44.328456777405606" lon="10.25394986895544"><ele>935.5</ele><time>2026-04-18T09:16:25Z</time></trkpt><trkpt lat="44.32846789927586" lon="10.253768555477464"><ele>934.0</ele><time>2026-04-18T09:16:26Z</time></trkpt><trkpt lat="44.32847628587586" lon="10.25357989296854"><ele>934.0</ele><time>2026-04-18T09:16:27Z</time></trkpt><trkpt lat="44.32841581889139" lon="10.253466848901898"><ele>934.0</ele><time>2026-04-18T09:16:28Z</time></trkpt><trkpt lat="44.32830165179146" lon="10.253402491256885"><ele>934.0</ele><time>2026-04-18T09:16:29Z</time></trkpt><trkpt lat="44.32816921710438" lon="10.253398658774929"><ele>934.0</ele><time>2026-04-18T09:16:30Z</time></trkpt><trkpt lat="44.32808349992115" lon="10.253339100630638"><ele>927.3333333333333</ele><time>2026-04-18T09:16:31Z</time></trkpt><trkpt lat="44.327979228498" lon="10.253177314957252"><ele>920.6666666666667</ele><time>2026-04-18T09:16:32Z</time></trkpt><trkpt lat="44.327856168638085" lon="10.252936134995716"><ele>914.0</ele><time>2026-04-18T09:16:33Z</time></trkpt><trkpt lat="44.32774808433659" lon="10.25278028698547"><ele>914.0</ele><time>2026-04-18T09:16:34Z</time></trkpt><trkpt lat="44.3276808680079" lon="10.252639237508484"><ele>914.0000000000001</ele><time>2026-04-18T09:16:35Z</time></trkpt><trkpt lat="44.327664171548946" lon="10.252497965006265"><ele>914.0000000000001</ele><time>2026-04-18T09:16:36Z</time></trkpt><trkpt lat="44.327696474718884" lon="10.25236983777324"><ele>914.0</ele><time>2026-04-18T09:16:37Z</time></trkpt><trkpt lat="44.32770902609125" lon="10.252261910092392"><ele>914.0</ele><time>2026-04-18T09:16:38Z</time></trkpt><trkpt lat="44.32766146079183" lon="10.252160259682174"><ele>910.25</ele><time>2026-04-18T09:16:39Z</time></trkpt><trkpt lat="44.32758102520104" lon="10.252119064951861"><ele>906.5</ele><time>2026-04-18T09:16:40Z</time></trkpt><trkpt lat="44.32750688230949" lon="10.252058504491874"><ele>902.75</ele><time>2026-04-18T09:16:41Z</time></trkpt><trkpt lat="44.3273842949902" lon="10.251983313075957"><ele>899.0</ele><time>2026-04-18T09:16:42Z</time></trkpt><trkpt lat="44.32721051739912" lon="10.251856386571259"><ele>899.0</ele><time>2026-04-18T09:16:43Z</time></trkpt><trkpt lat="44.32701989097088" lon="10.251751769175705"><ele>899.0</ele><time>2026-04-18T09:16:44Z</time></trkpt><trkpt lat="44.32689437684023" lon="10.25169052227232"><ele>899.0</ele><time>2026-04-18T09:16:45Z</time></trkpt><trkpt lat="44.326810389398204" lon="10.251627101391511"><ele>899.0</ele><time>2026-04-18T09:16:46Z</time></trkpt><trkpt lat="44.32676333001706" lon="10.25151582095417"><ele>904.0</ele><time>2026-04-18T09:16:47Z</time></trkpt><trkpt lat="44.32673878104986" lon="10.251273965289027"><ele>909.0</ele><time>2026-04-18T09:16:48Z</time></trkpt><trkpt lat="44.3266743447253" lon="10.250970941607047"><ele>914.0</ele><time>2026-04-18T09:16:49Z</time></trkpt><trkpt lat="44.326550954263816" lon="10.25065572854562"><ele>914.0</ele><time>2026-04-18T09:16:50Z</time></trkpt><trkpt lat="44.326444655717054" lon="10.250422053923213"><ele>914.0</ele><time>2026-04-18T09:16:51Z</time></trkpt><trkpt lat="44.32637267216728" lon="10.250241442823018"><ele>914.0</ele><time>2026-04-18T09:16:52Z</time></trkpt><trkpt lat="44.32631530697002" lon="10.250128429302112"><ele>914.0</ele><time>2026-04-18T09:16:53Z</time></trkpt><trkpt lat="44.32635774791662" lon="10.249959675796942"><ele>914.0</ele><time>2026-04-18T09:16:55Z</time></trkpt><trkpt lat="44.326460178989926" lon="10.249874496174153"><ele>914.0</ele><time>2026-04-18T09:16:56Z</time></trkpt><trkpt lat="44.32656870330885" lon="10.249785278649702"><ele>914.0</ele><time>2026-04-18T09:16:57Z</time></trkpt><trkpt lat="44.32662232508742" lon="10.249634259578693"><ele>914.0</ele><time>2026-04-18T09:16:58Z</time></trkpt><trkpt lat="44.326602912383926" lon="10.249459994995865"><ele>916.3333333333334</ele><time>2026-04-18T09:16:59Z</time></trkpt><trkpt lat="44.32652734723231" lon="10.2492635035975"><ele>918.6666666666667</ele><time>2026-04-18T09:17:00Z</time></trkpt><trkpt lat="44.32639443554297" lon="10.249068646693628"><ele>921.0</ele><time>2026-04-18T09:17:01Z</time></trkpt><trkpt lat="44.326252853959616" lon="10.24886909305842"><ele>910.3333333333333</ele><time>2026-04-18T09:17:02Z</time></trkpt><trkpt lat="44.32615104028506" lon="10.248725652676182"><ele>899.6666666666666</ele><time>2026-04-18T09:17:03Z</time></trkpt><trkpt lat="44.32608216484743" lon="10.248533414126449"><ele>889.0</ele><time>2026-04-18T09:17:04Z</time></trkpt><trkpt lat="44.32603782869096" lon="10.24820667904467"><ele>890.6666666666666</ele><time>2026-04-18T09:17:05Z</time></trkpt><trkpt lat="44.325984079432956" lon="10.247861817444656"><ele>892.3333333333333</ele><time>2026-04-18T09:17:06Z</time></trkpt><trkpt lat="44.32593388996202" lon="10.247625019559427"><ele>894.0</ele><time>2026-04-18T09:17:07Z</time></trkpt><trkpt lat="44.325885429581525" lon="10.24742834154323"><ele>893.3333333333333</ele><time>2026-04-18T09:17:08Z</time></trkpt><trkpt lat="44.32577599702304" lon="10.247257159495181"><ele>892.6666666666666</ele><time>2026-04-18T09:17:09Z</time></trkpt><trkpt lat="44.32560848563153" lon="10.247071483172432"><ele>892.0</ele><time>2026-04-18T09:17:10Z</time></trkpt><trkpt lat="44.32538950642733" lon="10.24691740812151"><ele>892.0</ele><time>2026-04-18T09:17:11Z</time></trkpt><trkpt lat="44.32521592131702" lon="10.246733568774607"><ele>892.0</ele><time>2026-04-18T09:17:12Z</time></trkpt><trkpt lat="44.32510093298829" lon="10.24660054494932"><ele>892.0</ele><time>2026-04-18T09:17:13Z</time></trkpt><trkpt lat="44.32502651114125" lon="10.24647600098353"><ele>893.25</ele><time>2026-04-18T09:17:14Z</time></trkpt><trkpt lat="44.32495498196452" lon="10.246361116502786"><ele>894.5</ele><time>2026-04-18T09:17:15Z</time></trkpt><trkpt lat="44.32490662603523" lon="10.24616959258849"><ele>895.75</ele><time>2026-04-18T09:17:16Z</time></trkpt><trkpt lat="44.324869346719744" lon="10.245946089371996"><ele>897.0</ele><time>2026-04-18T09:17:17Z</time></trkpt><trkpt lat="44.324774740273035" lon="10.245525008374944"><ele>890.0</ele><time>2026-04-18T09:17:18Z</time></trkpt><trkpt lat="44.324688770523466" lon="10.245063325712355"><ele>883.0</ele><time>2026-04-18T09:17:19Z</time></trkpt><trkpt lat="44.32462722578428" lon="10.244676543039628"><ele>883.0</ele><time>2026-04-18T09:17:20Z</time></trkpt><trkpt lat="44.3245644113644" lon="10.24435750523111"><ele>883.0</ele><time>2026-04-18T09:17:21Z</time></trkpt><trkpt lat="44.324516369110576" lon="10.2440700923995"><ele>883.0</ele><time>2026-04-18T09:17:22Z</time></trkpt><trkpt lat="44.32446789943138" lon="10.243829681841405"><ele>889.5</ele><time>2026-04-18T09:17:23Z</time></trkpt><trkpt lat="44.32437214891056" lon="10.243565598052284"><ele>896.0</ele><time>2026-04-18T09:17:24Z</time></trkpt><trkpt lat="44.324226608421874" lon="10.243297200687655"><ele>893.5</ele><time>2026-04-18T09:17:25Z</time></trkpt><trkpt lat="44.324040488140525" lon="10.2429504317383"><ele>891.0</ele><time>2026-04-18T09:17:26Z</time></trkpt><trkpt lat="44.32386638142797" lon="10.242662253996349"><ele>891.0</ele><time>2026-04-18T09:17:27Z</time></trkpt><trkpt lat="44.323693225865" lon="10.242422354950754"><ele>891.0</ele><time>2026-04-18T09:17:28Z</time></trkpt><trkpt lat="44.32352445379191" lon="10.24221492988833"><ele>893.6666666666667</ele><time>2026-04-18T09:17:29Z</time></trkpt><trkpt lat="44.323393238114015" lon="10.242017757053791"><ele>896.3333333333334</ele><time>2026-04-18T09:17:30Z</time></trkpt><trkpt lat="44.32329605966943" lon="10.241833524782134"><ele>899.0</ele><time>2026-04-18T09:17:31Z</time></trkpt><trkpt lat="44.32318933364635" lon="10.241552507140945"><ele>901.0</ele><time>2026-04-18T09:17:32Z</time></trkpt><trkpt lat="44.323082251574505" lon="10.241227734289522"><ele>903.0</ele><time>2026-04-18T09:17:33Z</time></trkpt><trkpt lat="44.322935966643605" lon="10.240808005090827"><ele>908.0</ele><time>2026-04-18T09:17:34Z</time></trkpt><trkpt lat="44.32286360357612" lon="10.240503700791601"><ele>913.0</ele><time>2026-04-18T09:17:35Z</time></trkpt><trkpt lat="44.32278040048133" lon="10.240260891791538"><ele>918.0</ele><time>2026-04-18T09:17:36Z</time></trkpt><trkpt lat="44.32271276378021" lon="10.240059788711845"><ele>918.0</ele><time>2026-04-18T09:17:37Z</time></trkpt><trkpt lat="44.322646705736716" lon="10.239906907770111"><ele>918.0</ele><time>2026-04-18T09:17:38Z</time></trkpt><trkpt lat="44.3225556923936" lon="10.239827751538549"><ele>918.0</ele><time>2026-04-18T09:17:39Z</time></trkpt><trkpt lat="44.322425204860274" lon="10.239805566189034"><ele>918.0</ele><time>2026-04-18T09:17:40Z</time></trkpt><trkpt lat="44.322302218847966" lon="10.23974908616903"><ele>923.0</ele><time>2026-04-18T09:17:41Z</time></trkpt><trkpt lat="44.322169623752366" lon="10.239747857354299"><ele>928.0</ele><time>2026-04-18T09:17:42Z</time></trkpt><trkpt lat="44.322095277377464" lon="10.239606498517086"><ele>933.0</ele><time>2026-04-18T09:17:43Z</time></trkpt><trkpt lat="44.322053639530495" lon="10.239459380518152"><ele>938.0</ele><time>2026-04-18T09:17:44Z</time></trkpt><trkpt lat="44.321984438817296" lon="10.239382849395259"><ele>938.0</ele><time>2026-04-18T09:17:45Z</time></trkpt><trkpt lat="44.32188532729771" lon="10.239392620811591"><ele>938.0</ele><time>2026-04-18T09:17:46Z</time></trkpt><trkpt lat="44.32179684229433" lon="10.239470805046851"><ele>938.0</ele><time>2026-04-18T09:17:47.001Z</time></trkpt><trkpt lat="44.321686687788386" lon="10.23959232301769"><ele>938.0</ele><time>2026-04-18T09:17:48.001Z</time></trkpt><trkpt lat="44.32159787653321" lon="10.239707952411585"><ele>938.0</ele><time>2026-04-18T09:17:49.001Z</time></trkpt><trkpt lat="44.32145367703633" lon="10.239712769556627"><ele>938.0</ele><time>2026-04-18T09:17:50.001Z</time></trkpt><trkpt lat="44.32126158699821" lon="10.23965280102026"><ele>938.0</ele><time>2026-04-18T09:17:51.001Z</time></trkpt><trkpt lat="44.32104477896243" lon="10.239599921117732"><ele>938.0</ele><time>2026-04-18T09:17:52.001Z</time></trkpt><trkpt lat="44.3208554928654" lon="10.23951977329123"><ele>938.0</ele><time>2026-04-18T09:17:53.001Z</time></trkpt><trkpt lat="44.320659826792294" lon="10.239393090326988"><ele>938.0</ele><time>2026-04-18T09:17:54.001Z</time></trkpt><trkpt lat="44.32050870219039" lon="10.239277079179935"><ele>939.3333333333334</ele><time>2026-04-18T09:17:54.999Z</time></trkpt><trkpt lat="44.320378683480676" lon="10.239172824544585"><ele>940.6666666666667</ele><time>2026-04-18T09:17:55.999Z</time></trkpt><trkpt lat="44.32025734564278" lon="10.238969496628526"><ele>942.0</ele><time>2026-04-18T09:17:56.999Z</time></trkpt><trkpt lat="44.320095503615725" lon="10.238711556653897"><ele>942.0</ele><time>2026-04-18T09:17:57.999Z</time></trkpt><trkpt lat="44.31989133543705" lon="10.238513539130237"><ele>942.0</ele><time>2026-04-18T09:17:58.999Z</time></trkpt><trkpt lat="44.31963093233429" lon="10.238351759233938"><ele>940.3333333333333</ele><time>2026-04-18T09:17:59.999Z</time></trkpt><trkpt lat="44.31942483389801" lon="10.238238067817257"><ele>938.6666666666666</ele><time>2026-04-18T09:18:00.999Z</time></trkpt><trkpt lat="44.31925819236029" lon="10.238134531939584"><ele>937.0</ele><time>2026-04-18T09:18:01.999Z</time></trkpt><trkpt lat="44.31906873170357" lon="10.238091044846882"><ele>942.0</ele><time>2026-04-18T09:18:02.999Z</time></trkpt><trkpt lat="44.31881826728367" lon="10.23807340133607"><ele>947.0</ele><time>2026-04-18T09:18:04Z</time></trkpt><trkpt lat="44.31859933106007" lon="10.238065763304697"><ele>947.0</ele><time>2026-04-18T09:18:05Z</time></trkpt><trkpt lat="44.31843434027347" lon="10.2380414110821"><ele>947.0</ele><time>2026-04-18T09:18:06Z</time></trkpt><trkpt lat="44.31831524265168" lon="10.238028104014955"><ele>947.0</ele><time>2026-04-18T09:18:07Z</time></trkpt><trkpt lat="44.31820527666051" lon="10.23810278109822"><ele>947.0</ele><time>2026-04-18T09:18:08Z</time></trkpt><trkpt lat="44.3181032439293" lon="10.238233855511666"><ele>949.75</ele><time>2026-04-18T09:18:09Z</time></trkpt><trkpt lat="44.31799875313685" lon="10.23835642771914"><ele>952.5</ele><time>2026-04-18T09:18:10Z</time></trkpt><trkpt lat="44.31789979226909" lon="10.238402396991836"><ele>955.25</ele><time>2026-04-18T09:18:11Z</time></trkpt><trkpt lat="44.31780727155903" lon="10.23836346800244"><ele>958.0</ele><time>2026-04-18T09:18:12Z</time></trkpt><trkpt lat="44.317684432554174" lon="10.238249070238433"><ele>955.3333333333333</ele><time>2026-04-18T09:18:13Z</time></trkpt><trkpt lat="44.31756751684723" lon="10.23810478356604"><ele>952.6666666666667</ele><time>2026-04-18T09:18:14Z</time></trkpt><trkpt lat="44.317485881461735" lon="10.237928145076022"><ele>950.0</ele><time>2026-04-18T09:18:15Z</time></trkpt><trkpt lat="44.31743595023724" lon="10.237675204277295"><ele>950.0</ele><time>2026-04-18T09:18:16Z</time></trkpt><trkpt lat="44.317412647876644" lon="10.23737687707517"><ele>950.0</ele><time>2026-04-18T09:18:17Z</time></trkpt><trkpt lat="44.317387230069016" lon="10.237148376799754"><ele>950.0</ele><time>2026-04-18T09:18:18Z</time></trkpt><trkpt lat="44.317316686208066" lon="10.236967251464174"><ele>953.5</ele><time>2026-04-18T09:18:19Z</time></trkpt><trkpt lat="44.317224494582966" lon="10.236807025904616"><ele>957.0</ele><time>2026-04-18T09:18:20Z</time></trkpt><trkpt lat="44.31710361580551" lon="10.236681631216312"><ele>960.5</ele><time>2026-04-18T09:18:21Z</time></trkpt><trkpt lat="44.31696830006789" lon="10.236605551916497"><ele>964.0</ele><time>2026-04-18T09:18:22Z</time></trkpt><trkpt lat="44.316815666867065" lon="10.236599684297895"><ele>964.0</ele><time>2026-04-18T09:18:23Z</time></trkpt><trkpt lat="44.316634769111616" lon="10.236650064294789"><ele>964.0</ele><time>2026-04-18T09:18:24Z</time></trkpt><trkpt lat="44.3164422852701" lon="10.236675977648767"><ele>964.0</ele><time>2026-04-18T09:18:25Z</time></trkpt><trkpt lat="44.316266435148464" lon="10.236634006620063"><ele>966.6666666666666</ele><time>2026-04-18T09:18:26Z</time></trkpt><trkpt lat="44.316116541368835" lon="10.236528794676905"><ele>969.3333333333333</ele><time>2026-04-18T09:18:27Z</time></trkpt><trkpt lat="44.31594928707063" lon="10.236331840252998"><ele>972.0</ele><time>2026-04-18T09:18:28Z</time></trkpt><trkpt lat="44.315813927238416" lon="10.236148651539347"><ele>972.0</ele><time>2026-04-18T09:18:29Z</time></trkpt><trkpt lat="44.31572561913683" lon="10.235987026761787"><ele>972.0</ele><time>2026-04-18T09:18:30Z</time></trkpt><trkpt lat="44.31568412380097" lon="10.23586721752591"><ele>972.0</ele><time>2026-04-18T09:18:31Z</time></trkpt><trkpt lat="44.315624224493156" lon="10.235782066575297"><ele>972.0</ele><time>2026-04-18T09:18:33Z</time></trkpt><trkpt lat="44.3155604065034" lon="10.235827655245664"><ele>972.0</ele><time>2026-04-18T09:18:34Z</time></trkpt><trkpt lat="44.31552916522815" lon="10.235908106260243"><ele>972.0</ele><time>2026-04-18T09:18:35Z</time></trkpt><trkpt lat="44.315545128548074" lon="10.236002200350297"><ele>972.0</ele><time>2026-04-18T09:18:36Z</time></trkpt><trkpt lat="44.31559899702242" lon="10.236085504519933"><ele>972.0</ele><time>2026-04-18T09:18:37Z</time></trkpt><trkpt lat="44.315694646009156" lon="10.236201239779252"><ele>972.0</ele><time>2026-04-18T09:18:38Z</time></trkpt><trkpt lat="44.31581692060266" lon="10.236378431822596"><ele>980.5</ele><time>2026-04-18T09:18:39Z</time></trkpt><trkpt lat="44.31592127718615" lon="10.236636634421584"><ele>989.0</ele><time>2026-04-18T09:18:40Z</time></trkpt><trkpt lat="44.31601970406959" lon="10.23694188399715"><ele>989.0</ele><time>2026-04-18T09:18:41Z</time></trkpt><trkpt lat="44.31611817935568" lon="10.237265181261744"><ele>989.0</ele><time>2026-04-18T09:18:42Z</time></trkpt><trkpt lat="44.31619475644882" lon="10.237530672884239"><ele>993.25</ele><time>2026-04-18T09:18:43Z</time></trkpt><trkpt lat="44.31624634377974" lon="10.237747177846142"><ele>997.5</ele><time>2026-04-18T09:18:44Z</time></trkpt><trkpt lat="44.31627562896151" lon="10.237927380496673"><ele>1001.75</ele><time>2026-04-18T09:18:45Z</time></trkpt><trkpt lat="44.31631756975332" lon="10.238071638054139"><ele>1006.0</ele><time>2026-04-18T09:18:46Z</time></trkpt><trkpt lat="44.316375694184146" lon="10.2381732427436"><ele>1008.6666666666666</ele><time>2026-04-18T09:18:47Z</time></trkpt><trkpt lat="44.31641949991739" lon="10.238249318352533"><ele>1011.3333333333333</ele><time>2026-04-18T09:18:48Z</time></trkpt><trkpt lat="44.31646844166543" lon="10.238367446316932"><ele>1014.0</ele><time>2026-04-18T09:18:50Z</time></trkpt><trkpt lat="44.316494592760144" lon="10.238461300962298"><ele>1016.6666666666667</ele><time>2026-04-18T09:18:52Z</time></trkpt><trkpt lat="44.31640056055303" lon="10.238483248579138"><ele>1019.3333333333334</ele><time>2026-04-18T09:18:54Z</time></trkpt><trkpt lat="44.316356068496006" lon="10.238416851559657"><ele>1022.0</ele><time>2026-04-18T09:18:55Z</time></trkpt><trkpt lat="44.3163249624336" lon="10.238282360844567"><ele>1018.0</ele><time>2026-04-18T09:18:56Z</time></trkpt><trkpt lat="44.31629058731446" lon="10.238099478431861"><ele>1014.0</ele><time>2026-04-18T09:18:57Z</time></trkpt><trkpt lat="44.316217301334504" lon="10.237901730511116"><ele>1010.0</ele><time>2026-04-18T09:18:58Z</time></trkpt><trkpt lat="44.31614303866275" lon="10.237733608195061"><ele>1006.0</ele><time>2026-04-18T09:18:59Z</time></trkpt><trkpt lat="44.31607715623337" lon="10.23760896847646"><ele>1006.0</ele><time>2026-04-18T09:19:00Z</time></trkpt><trkpt lat="44.31596364673009" lon="10.237500135397386"><ele>1006.0</ele><time>2026-04-18T09:19:01Z</time></trkpt><trkpt lat="44.31578211109842" lon="10.237354768045183"><ele>1006.0</ele><time>2026-04-18T09:19:02Z</time></trkpt><trkpt lat="44.31558327108975" lon="10.23717691577615"><ele>1014.5</ele><time>2026-04-18T09:19:03Z</time></trkpt><trkpt lat="44.31540986769026" lon="10.236942521871995"><ele>1023.0</ele><time>2026-04-18T09:19:04Z</time></trkpt><trkpt lat="44.31524805199992" lon="10.236679209996584"><ele>1015.5</ele><time>2026-04-18T09:19:05Z</time></trkpt><trkpt lat="44.315069880503714" lon="10.236336546411922"><ele>1008.0</ele><time>2026-04-18T09:19:06Z</time></trkpt><trkpt lat="44.31491227815623" lon="10.236055114279463"><ele>1008.0</ele><time>2026-04-18T09:19:07Z</time></trkpt><trkpt lat="44.31479508668633" lon="10.235838084427963"><ele>1008.0</ele><time>2026-04-18T09:19:08Z</time></trkpt><trkpt lat="44.31470316287726" lon="10.235676263776535"><ele>1008.0</ele><time>2026-04-18T09:19:09Z</time></trkpt><trkpt lat="44.31460654974391" lon="10.235511068420246"><ele>1011.8</ele><time>2026-04-18T09:19:10Z</time></trkpt><trkpt lat="44.31452724085759" lon="10.235362790726144"><ele>1015.5999999999999</ele><time>2026-04-18T09:19:11Z</time></trkpt><trkpt lat="44.314457456225384" lon="10.235248539541356"><ele>1019.4000000000001</ele><time>2026-04-18T09:19:12Z</time></trkpt><trkpt lat="44.31439223389682" lon="10.235133674833156"><ele>1023.2</ele><time>2026-04-18T09:19:13Z</time></trkpt><trkpt lat="44.3143347727888" lon="10.23503217180456"><ele>1027.0</ele><time>2026-04-18T09:19:14Z</time></trkpt><trkpt lat="44.314287459395764" lon="10.234939119444029"><ele>1027.0</ele><time>2026-04-18T09:19:15Z</time></trkpt><trkpt lat="44.31423812739721" lon="10.234861786514157"><ele>1027.0</ele><time>2026-04-18T09:19:16Z</time></trkpt><trkpt lat="44.31411573931019" lon="10.234837483557648"><ele>1027.0</ele><time>2026-04-18T09:19:18Z</time></trkpt><trkpt lat="44.314064883767685" lon="10.234924726494516"><ele>1027.0</ele><time>2026-04-18T09:19:19Z</time></trkpt><trkpt lat="44.31405930991234" lon="10.235042898143606"><ele>1027.0</ele><time>2026-04-18T09:19:20Z</time></trkpt><trkpt lat="44.314102340019275" lon="10.235163704671479"><ele>1027.0</ele><time>2026-04-18T09:19:21Z</time></trkpt><trkpt lat="44.31419092265377" lon="10.23532471202932"><ele>1027.0</ele><time>2026-04-18T09:19:22Z</time></trkpt><trkpt lat="44.31428349006524" lon="10.235572399448563"><ele>1027.0</ele><time>2026-04-18T09:19:23Z</time></trkpt><trkpt lat="44.31436207904393" lon="10.235893207424262"><ele>1031.0</ele><time>2026-04-18T09:19:24Z</time></trkpt><trkpt lat="44.3144152470852" lon="10.236215550960003"><ele>1035.0</ele><time>2026-04-18T09:19:25Z</time></trkpt><trkpt lat="44.31444347898379" lon="10.236470823765334"><ele>1039.0</ele><time>2026-04-18T09:19:26Z</time></trkpt><trkpt lat="44.314449376319914" lon="10.236691748143471"><ele>1042.25</ele><time>2026-04-18T09:19:27Z</time></trkpt><trkpt lat="44.31444183398539" lon="10.236841789213317"><ele>1045.5</ele><time>2026-04-18T09:19:28Z</time></trkpt><trkpt lat="44.31441521363021" lon="10.236974994921333"><ele>1048.75</ele><time>2026-04-18T09:19:30Z</time></trkpt><trkpt lat="44.314334098562874" lon="10.236937773857855"><ele>1052.0</ele><time>2026-04-18T09:19:32Z</time></trkpt><trkpt lat="44.31431204054089" lon="10.236718492783789"><ele>1052.0</ele><time>2026-04-18T09:19:34Z</time></trkpt><trkpt lat="44.3143392981885" lon="10.236515397066485"><ele>1052.0</ele><time>2026-04-18T09:19:35Z</time></trkpt><trkpt lat="44.31429540765007" lon="10.23630628281098"><ele>1052.0</ele><time>2026-04-18T09:19:36Z</time></trkpt><trkpt lat="44.314193871862614" lon="10.236135219217365"><ele>1047.6666666666667</ele><time>2026-04-18T09:19:37.001Z</time></trkpt><trkpt lat="44.31402498389062" lon="10.235978471815164"><ele>1043.3333333333333</ele><time>2026-04-18T09:19:38.001Z</time></trkpt><trkpt lat="44.31386917306357" lon="10.235813285476734"><ele>1039.0</ele><time>2026-04-18T09:19:39.001Z</time></trkpt><trkpt lat="44.31376355966158" lon="10.235672383491625"><ele>1048.6666666666665</ele><time>2026-04-18T09:19:40.001Z</time></trkpt><trkpt lat="44.31371996624583" lon="10.235529542105978"><ele>1058.3333333333333</ele><time>2026-04-18T09:19:41.001Z</time></trkpt><trkpt lat="44.31369822925855" lon="10.2353040632954"><ele>1068.0</ele><time>2026-04-18T09:19:42.001Z</time></trkpt><trkpt lat="44.31365583647857" lon="10.235035843385056"><ele>1064.6666666666667</ele><time>2026-04-18T09:19:43.001Z</time></trkpt><trkpt lat="44.3135564288936" lon="10.234768474437299"><ele>1061.3333333333335</ele><time>2026-04-18T09:19:44.001Z</time></trkpt><trkpt lat="44.313461355156285" lon="10.23457205417172"><ele>1058.0</ele><time>2026-04-18T09:19:45.001Z</time></trkpt><trkpt lat="44.313376521436226" lon="10.2344639692565"><ele>1058.0</ele><time>2026-04-18T09:19:46.001Z</time></trkpt><trkpt lat="44.31326820498132" lon="10.234376276739411"><ele>1058.0</ele><time>2026-04-18T09:19:47.001Z</time></trkpt><trkpt lat="44.313105791900185" lon="10.234300400453092"><ele>1058.0</ele><time>2026-04-18T09:19:48.001Z</time></trkpt><trkpt lat="44.31297177425638" lon="10.23426796728762"><ele>1058.0</ele><time>2026-04-18T09:19:49.001Z</time></trkpt><trkpt lat="44.312893005794166" lon="10.234212949550345"><ele>1058.4</ele><time>2026-04-18T09:19:50.001Z</time></trkpt><trkpt lat="44.3128642265232" lon="10.234126774364555"><ele>1058.8</ele><time>2026-04-18T09:19:51.001Z</time></trkpt><trkpt lat="44.31287647395704" lon="10.234029220786438"><ele>1059.2</ele><time>2026-04-18T09:19:52.001Z</time></trkpt><trkpt lat="44.31293639240185" lon="10.233937248118353"><ele>1059.6</ele><time>2026-04-18T09:19:53.001Z</time></trkpt><trkpt lat="44.31304663939625" lon="10.233858821579435"><ele>1060.0</ele><time>2026-04-18T09:19:54.001Z</time></trkpt><trkpt lat="44.31315092277145" lon="10.233803394003516"><ele>1060.0</ele><time>2026-04-18T09:19:55.001Z</time></trkpt><trkpt lat="44.313215376144456" lon="10.233672348730206"><ele>1060.0</ele><time>2026-04-18T09:19:56.001Z</time></trkpt><trkpt lat="44.31322469709625" lon="10.233502881600101"><ele>1060.0</ele><time>2026-04-18T09:19:57.001Z</time></trkpt><trkpt lat="44.31317152551569" lon="10.233351273958576"><ele>1060.0</ele><time>2026-04-18T09:19:58.001Z</time></trkpt><trkpt lat="44.3130661545633" lon="10.233182290683132"><ele>1071.5</ele><time>2026-04-18T09:19:59.001Z</time></trkpt><trkpt lat="44.31289932910902" lon="10.232954243278408"><ele>1083.0</ele><time>2026-04-18T09:20:00.001Z</time></trkpt><trkpt lat="44.312700425862516" lon="10.232680433056395"><ele>1083.0</ele><time>2026-04-18T09:20:01Z</time></trkpt><trkpt lat="44.31250965144971" lon="10.232373116369777"><ele>1083.0</ele><time>2026-04-18T09:20:02Z</time></trkpt><trkpt lat="44.312357888917425" lon="10.232065301447578"><ele>1086.0</ele><time>2026-04-18T09:20:03Z</time></trkpt><trkpt lat="44.312241072753466" lon="10.231847735109076"><ele>1089.0</ele><time>2026-04-18T09:20:04Z</time></trkpt><trkpt lat="44.31214161345552" lon="10.231694292203338"><ele>1092.0</ele><time>2026-04-18T09:20:05Z</time></trkpt><trkpt lat="44.31202662585127" lon="10.231578442158918"><ele>1092.0</ele><time>2026-04-18T09:20:06Z</time></trkpt><trkpt lat="44.311860000875576" lon="10.23149762133872"><ele>1092.0</ele><time>2026-04-18T09:20:07Z</time></trkpt><trkpt lat="44.311630066923684" lon="10.23146220076752"><ele>1092.0</ele><time>2026-04-18T09:20:08Z</time></trkpt><trkpt lat="44.311437225444344" lon="10.231411509953116"><ele>1095.6666666666667</ele><time>2026-04-18T09:20:09Z</time></trkpt><trkpt lat="44.311287294166604" lon="10.231275546125975"><ele>1099.3333333333335</ele><time>2026-04-18T09:20:10Z</time></trkpt><trkpt lat="44.31115258352264" lon="10.231066869471523"><ele>1103.0</ele><time>2026-04-18T09:20:11Z</time></trkpt><trkpt lat="44.31103744726261" lon="10.230829636396509"><ele>1103.0</ele><time>2026-04-18T09:20:12Z</time></trkpt><trkpt lat="44.310953451148485" lon="10.230647731974688"><ele>1103.0</ele><time>2026-04-18T09:20:13Z</time></trkpt><trkpt lat="44.3108594553406" lon="10.230534045808145"><ele>1103.0</ele><time>2026-04-18T09:20:14Z</time></trkpt><trkpt lat="44.31074407225523" lon="10.230474716536769"><ele>1103.0</ele><time>2026-04-18T09:20:15Z</time></trkpt><trkpt lat="44.310566804122985" lon="10.230448202079526"><ele>1106.4</ele><time>2026-04-18T09:20:16Z</time></trkpt><trkpt lat="44.3104532233445" lon="10.23040494459475"><ele>1109.8</ele><time>2026-04-18T09:20:17Z</time></trkpt><trkpt lat="44.31041097523002" lon="10.230334384575155"><ele>1113.2</ele><time>2026-04-18T09:20:18Z</time></trkpt><trkpt lat="44.31041084941161" lon="10.230233196550873"><ele>1116.6</ele><time>2026-04-18T09:20:19Z</time></trkpt><trkpt lat="44.31045325696661" lon="10.23012118614243"><ele>1120.0</ele><time>2026-04-18T09:20:20Z</time></trkpt><trkpt lat="44.31053466676631" lon="10.23001846595383"><ele>1120.6666666666665</ele><time>2026-04-18T09:20:21Z</time></trkpt><trkpt lat="44.31067291293994" lon="10.229890063177397"><ele>1121.3333333333333</ele><time>2026-04-18T09:20:22Z</time></trkpt><trkpt lat="44.31085079954449" lon="10.2296968675644"><ele>1122.0</ele><time>2026-04-18T09:20:23Z</time></trkpt><trkpt lat="44.31099321825555" lon="10.229540122163176"><ele>1122.0</ele><time>2026-04-18T09:20:24Z</time></trkpt><trkpt lat="44.31113251921138" lon="10.229459334979456"><ele>1122.0</ele><time>2026-04-18T09:20:25Z</time></trkpt><trkpt lat="44.311281318396446" lon="10.22943074734613"><ele>1122.0</ele><time>2026-04-18T09:20:26Z</time></trkpt><trkpt lat="44.31140671350575" lon="10.229362053159543"><ele>1122.0</ele><time>2026-04-18T09:20:27Z</time></trkpt><trkpt lat="44.3115103095257" lon="10.229188005545492"><ele>1119.3333333333333</ele><time>2026-04-18T09:20:28Z</time></trkpt><trkpt lat="44.311617279142766" lon="10.228909920713756"><ele>1116.6666666666665</ele><time>2026-04-18T09:20:29Z</time></trkpt><trkpt lat="44.31172534925531" lon="10.228684398939736"><ele>1114.0</ele><time>2026-04-18T09:20:30Z</time></trkpt><trkpt lat="44.31177219756361" lon="10.228558821874504"><ele>1114.0</ele><time>2026-04-18T09:20:31Z</time></trkpt><trkpt lat="44.31178000879374" lon="10.228454849458505"><ele>1114.0</ele><time>2026-04-18T09:20:32Z</time></trkpt><trkpt lat="44.31175776873954" lon="10.228263513101723"><ele>1114.0</ele><time>2026-04-18T09:20:33Z</time></trkpt><trkpt lat="44.311705177945186" lon="10.227991098570174"><ele>1114.0</ele><time>2026-04-18T09:20:34Z</time></trkpt><trkpt lat="44.311635443426404" lon="10.227770705094075"><ele>1114.0</ele><time>2026-04-18T09:20:35Z</time></trkpt><trkpt lat="44.31152542478492" lon="10.227587663144412"><ele>1114.0</ele><time>2026-04-18T09:20:36Z</time></trkpt><trkpt lat="44.311366574827545" lon="10.227412933829017"><ele>1114.0</ele><time>2026-04-18T09:20:37Z</time></trkpt><trkpt lat="44.311157967129326" lon="10.227236139378405"><ele>1118.5</ele><time>2026-04-18T09:20:38Z</time></trkpt><trkpt lat="44.3109512887982" lon="10.226994340833246"><ele>1123.0</ele><time>2026-04-18T09:20:39Z</time></trkpt><trkpt lat="44.31073021085841" lon="10.226664252179017"><ele>1129.0</ele><time>2026-04-18T09:20:40Z</time></trkpt><trkpt lat="44.31050847795636" lon="10.226326025783786"><ele>1135.0</ele><time>2026-04-18T09:20:41Z</time></trkpt><trkpt lat="44.31033605634908" lon="10.226078341944156"><ele>1135.0</ele><time>2026-04-18T09:20:42Z</time></trkpt><trkpt lat="44.31020972358842" lon="10.22586796994494"><ele>1135.0</ele><time>2026-04-18T09:20:43Z</time></trkpt><trkpt lat="44.310072468304604" lon="10.225668225902677"><ele>1135.0</ele><time>2026-04-18T09:20:44Z</time></trkpt><trkpt lat="44.309876230699764" lon="10.225474278382157"><ele>1136.5</ele><time>2026-04-18T09:20:45Z</time></trkpt><trkpt lat="44.309639530220906" lon="10.225311643454107"><ele>1138.0</ele><time>2026-04-18T09:20:46Z</time></trkpt><trkpt lat="44.309365898176516" lon="10.225180036108997"><ele>1138.0</ele><time>2026-04-18T09:20:47Z</time></trkpt><trkpt lat="44.30907014725443" lon="10.225039959307496"><ele>1138.0</ele><time>2026-04-18T09:20:48Z</time></trkpt><trkpt lat="44.30885027478566" lon="10.224910675854465"><ele>1137.3333333333333</ele><time>2026-04-18T09:20:49Z</time></trkpt><trkpt lat="44.30867233687841" lon="10.22480299642097"><ele>1136.6666666666667</ele><time>2026-04-18T09:20:50Z</time></trkpt><trkpt lat="44.30850899435448" lon="10.224717782890792"><ele>1136.0</ele><time>2026-04-18T09:20:51Z</time></trkpt><trkpt lat="44.30832916394699" lon="10.224663800492971"><ele>1136.0</ele><time>2026-04-18T09:20:52Z</time></trkpt><trkpt lat="44.308131277501616" lon="10.224631686118503"><ele>1136.0</ele><time>2026-04-18T09:20:53Z</time></trkpt><trkpt lat="44.30792722516541" lon="10.224622780727385"><ele>1136.0</ele><time>2026-04-18T09:20:54Z</time></trkpt><trkpt lat="44.30772920158349" lon="10.224633274892678"><ele>1139.5</ele><time>2026-04-18T09:20:55Z</time></trkpt><trkpt lat="44.30750098499322" lon="10.224698223931385"><ele>1143.0</ele><time>2026-04-18T09:20:56Z</time></trkpt><trkpt lat="44.307218534232874" lon="10.22480046353971"><ele>1151.5</ele><time>2026-04-18T09:20:57Z</time></trkpt><trkpt lat="44.30694534478183" lon="10.224902401330773"><ele>1160.0</ele><time>2026-04-18T09:20:58Z</time></trkpt><trkpt lat="44.306712663995334" lon="10.224962921604801"><ele>1160.0</ele><time>2026-04-18T09:20:59Z</time></trkpt><trkpt lat="44.306485094072826" lon="10.224994235601656"><ele>1160.0</ele><time>2026-04-18T09:21:00Z</time></trkpt><trkpt lat="44.30625967684321" lon="10.2250174128243"><ele>1159.3333333333335</ele><time>2026-04-18T09:21:01Z</time></trkpt><trkpt lat="44.30605529664924" lon="10.225049507852342"><ele>1158.6666666666667</ele><time>2026-04-18T09:21:02Z</time></trkpt><trkpt lat="44.305865274229866" lon="10.22511611220231"><ele>1158.0</ele><time>2026-04-18T09:21:03Z</time></trkpt><trkpt lat="44.30568975022359" lon="10.225206168902782"><ele>1158.6666666666667</ele><time>2026-04-18T09:21:04Z</time></trkpt><trkpt lat="44.30552100618804" lon="10.225305546786117"><ele>1159.3333333333335</ele><time>2026-04-18T09:21:05Z</time></trkpt><trkpt lat="44.3053520442489" lon="10.2254339716709"><ele>1160.0</ele><time>2026-04-18T09:21:06Z</time></trkpt><trkpt lat="44.30519270922396" lon="10.225601088027075"><ele>1163.0</ele><time>2026-04-18T09:21:07Z</time></trkpt><trkpt lat="44.305058802139094" lon="10.225745054975297"><ele>1166.0</ele><time>2026-04-18T09:21:08Z</time></trkpt><trkpt lat="44.30493510237844" lon="10.225822753509728"><ele>1169.0</ele><time>2026-04-18T09:21:09Z</time></trkpt><trkpt lat="44.304825303269105" lon="10.225842844612984"><ele>1172.0</ele><time>2026-04-18T09:21:10Z</time></trkpt><trkpt lat="44.30473927787181" lon="10.225807196048478"><ele>1174.25</ele><time>2026-04-18T09:21:11Z</time></trkpt><trkpt lat="44.30467362155697" lon="10.225714366719385"><ele>1176.5</ele><time>2026-04-18T09:21:12Z</time></trkpt><trkpt lat="44.304633997168494" lon="10.225576831810077"><ele>1178.75</ele><time>2026-04-18T09:21:13Z</time></trkpt><trkpt lat="44.30461538120478" lon="10.225401419422832"><ele>1181.0</ele><time>2026-04-18T09:21:14Z</time></trkpt><trkpt lat="44.30460695922135" lon="10.225194177018825"><ele>1181.3333333333335</ele><time>2026-04-18T09:21:15Z</time></trkpt><trkpt lat="44.304577582082366" lon="10.22493903833899"><ele>1181.6666666666667</ele><time>2026-04-18T09:21:16Z</time></trkpt><trkpt lat="44.30454236768982" lon="10.224702312930754"><ele>1182.0</ele><time>2026-04-18T09:21:17Z</time></trkpt><trkpt lat="44.304541897871545" lon="10.22447539403943"><ele>1185.6666666666667</ele><time>2026-04-18T09:21:18Z</time></trkpt><trkpt lat="44.3045817394268" lon="10.22423849311524"><ele>1189.3333333333335</ele><time>2026-04-18T09:21:19.001Z</time></trkpt><trkpt lat="44.30465551089702" lon="10.224018012099348"><ele>1193.0</ele><time>2026-04-18T09:21:20.001Z</time></trkpt><trkpt lat="44.30473857513529" lon="10.223832612084154"><ele>1191.6666666666667</ele><time>2026-04-18T09:21:21.001Z</time></trkpt><trkpt lat="44.30483470981137" lon="10.223674940638736"><ele>1190.3333333333333</ele><time>2026-04-18T09:21:22.001Z</time></trkpt><trkpt lat="44.304975952958735" lon="10.22353575296791"><ele>1189.0</ele><time>2026-04-18T09:21:23.001Z</time></trkpt><trkpt lat="44.30513081627398" lon="10.22340457664702"><ele>1189.0</ele><time>2026-04-18T09:21:24.001Z</time></trkpt><trkpt lat="44.30526609833268" lon="10.223178291388205"><ele>1189.0</ele><time>2026-04-18T09:21:25.001Z</time></trkpt><trkpt lat="44.305414055728164" lon="10.222878343604481"><ele>1187.3333333333333</ele><time>2026-04-18T09:21:26.001Z</time></trkpt><trkpt lat="44.30553484404429" lon="10.222644318908763"><ele>1185.6666666666667</ele><time>2026-04-18T09:21:27.001Z</time></trkpt><trkpt lat="44.30565525992339" lon="10.222365500388202"><ele>1184.0</ele><time>2026-04-18T09:21:28.001Z</time></trkpt><trkpt lat="44.30572995173974" lon="10.22209602797539"><ele>1189.75</ele><time>2026-04-18T09:21:29.001Z</time></trkpt><trkpt lat="44.30576312768193" lon="10.221875255629689"><ele>1195.5</ele><time>2026-04-18T09:21:30.001Z</time></trkpt><trkpt lat="44.30581795309674" lon="10.221699544161138"><ele>1201.25</ele><time>2026-04-18T09:21:31.001Z</time></trkpt><trkpt lat="44.30591414865646" lon="10.221564284075368"><ele>1207.0</ele><time>2026-04-18T09:21:32.001Z</time></trkpt><trkpt lat="44.306045692448336" lon="10.221477569274057"><ele>1209.6666666666665</ele><time>2026-04-18T09:21:33.001Z</time></trkpt><trkpt lat="44.306228826684105" lon="10.22144052430476"><ele>1212.3333333333333</ele><time>2026-04-18T09:21:34.001Z</time></trkpt><trkpt lat="44.30646930700519" lon="10.221433981102303"><ele>1215.0</ele><time>2026-04-18T09:21:35.001Z</time></trkpt><trkpt lat="44.306677913387354" lon="10.221418509492448"><ele>1215.0</ele><time>2026-04-18T09:21:36.001Z</time></trkpt><trkpt lat="44.30686279583996" lon="10.221363823862754"><ele>1215.0</ele><time>2026-04-18T09:21:37.001Z</time></trkpt><trkpt lat="44.30706148668815" lon="10.221213713435377"><ele>1215.0</ele><time>2026-04-18T09:21:38.001Z</time></trkpt><trkpt lat="44.30727519232503" lon="10.220995777100553"><ele>1215.0</ele><time>2026-04-18T09:21:39.001Z</time></trkpt><trkpt lat="44.30745359715242" lon="10.2207799378157"><ele>1215.0</ele><time>2026-04-18T09:21:40.001Z</time></trkpt><trkpt lat="44.30757652330724" lon="10.220655139794431"><ele>1215.0</ele><time>2026-04-18T09:21:41.001Z</time></trkpt><trkpt lat="44.30766312971546" lon="10.220551588582943"><ele>1215.0</ele><time>2026-04-18T09:21:42.001Z</time></trkpt><trkpt lat="44.307704396239814" lon="10.220406851311116"><ele>1215.0</ele><time>2026-04-18T09:21:43.001Z</time></trkpt><trkpt lat="44.307687134585215" lon="10.220228366809284"><ele>1215.0</ele><time>2026-04-18T09:21:44.001Z</time></trkpt><trkpt lat="44.30760830932735" lon="10.220054013739416"><ele>1215.0</ele><time>2026-04-18T09:21:45.001Z</time></trkpt><trkpt lat="44.30747623574503" lon="10.219930222067344"><ele>1215.0</ele><time>2026-04-18T09:21:46.001Z</time></trkpt><trkpt lat="44.30730280349341" lon="10.219851697580735"><ele>1215.0</ele><time>2026-04-18T09:21:47.001Z</time></trkpt><trkpt lat="44.307123541645666" lon="10.219776053047458"><ele>1215.0</ele><time>2026-04-18T09:21:48.001Z</time></trkpt><trkpt lat="44.306950350957116" lon="10.21973140134627"><ele>1217.5</ele><time>2026-04-18T09:21:49.001Z</time></trkpt><trkpt lat="44.30671474044647" lon="10.219759107085515"><ele>1220.0</ele><time>2026-04-18T09:21:50.001Z</time></trkpt><trkpt lat="44.30643183633044" lon="10.219814342984048"><ele>1223.6666666666667</ele><time>2026-04-18T09:21:51.001Z</time></trkpt><trkpt lat="44.30621741507783" lon="10.219776743358679"><ele>1227.3333333333333</ele><time>2026-04-18T09:21:52.001Z</time></trkpt><trkpt lat="44.30602331324622" lon="10.219713804256905"><ele>1231.0</ele><time>2026-04-18T09:21:53.001Z</time></trkpt><trkpt lat="44.30586240383752" lon="10.219639936929488"><ele>1231.0</ele><time>2026-04-18T09:21:54.001Z</time></trkpt><trkpt lat="44.30572223917256" lon="10.2195577619664"><ele>1231.0</ele><time>2026-04-18T09:21:55.001Z</time></trkpt><trkpt lat="44.30563013196096" lon="10.219436725515695"><ele>1231.0</ele><time>2026-04-18T09:21:56.001Z</time></trkpt><trkpt lat="44.305596172229464" lon="10.219286536619666"><ele>1231.0</ele><time>2026-04-18T09:21:57.001Z</time></trkpt><trkpt lat="44.30560301078368" lon="10.219102289582358"><ele>1232.0</ele><time>2026-04-18T09:21:58.001Z</time></trkpt><trkpt lat="44.305649474961484" lon="10.218900752033242"><ele>1233.0</ele><time>2026-04-18T09:21:59.001Z</time></trkpt><trkpt lat="44.30572170821069" lon="10.218710461340622"><ele>1234.0</ele><time>2026-04-18T09:22:00.001Z</time></trkpt><trkpt lat="44.3057753725346" lon="10.218555338831477"><ele>1235.0</ele><time>2026-04-18T09:22:01.001Z</time></trkpt><trkpt lat="44.30580177299928" lon="10.218420966564837"><ele>1235.0</ele><time>2026-04-18T09:22:02.001Z</time></trkpt><trkpt lat="44.30580206750827" lon="10.218300163311621"><ele>1235.0</ele><time>2026-04-18T09:22:03.001Z</time></trkpt><trkpt lat="44.305762157458574" lon="10.218184602068098"><ele>1235.0</ele><time>2026-04-18T09:22:04.001Z</time></trkpt><trkpt lat="44.30565219462934" lon="10.218081519243187"><ele>1235.0</ele><time>2026-04-18T09:22:05.001Z</time></trkpt><trkpt lat="44.305506415840824" lon="10.217928712800568"><ele>1239.5</ele><time>2026-04-18T09:22:06.001Z</time></trkpt><trkpt lat="44.3053273970502" lon="10.21772992507615"><ele>1244.0</ele><time>2026-04-18T09:22:07Z</time></trkpt><trkpt lat="44.305164609281775" lon="10.217488188590353"><ele>1241.0</ele><time>2026-04-18T09:22:08Z</time></trkpt><trkpt lat="44.30502944011465" lon="10.217314038426933"><ele>1238.0</ele><time>2026-04-18T09:22:09Z</time></trkpt><trkpt lat="44.304899529032284" lon="10.21717199576244"><ele>1235.0</ele><time>2026-04-18T09:22:10Z</time></trkpt><trkpt lat="44.30478419363707" lon="10.217049920622609"><ele>1237.1666666666667</ele><time>2026-04-18T09:22:11Z</time></trkpt><trkpt lat="44.30468218784553" lon="10.216981258609211"><ele>1239.3333333333335</ele><time>2026-04-18T09:22:12Z</time></trkpt><trkpt lat="44.30459620100313" lon="10.21693908744125"><ele>1241.5</ele><time>2026-04-18T09:22:13Z</time></trkpt><trkpt lat="44.304523758819215" lon="10.21692286111609"><ele>1243.6666666666667</ele><time>2026-04-18T09:22:14Z</time></trkpt><trkpt lat="44.304461979221024" lon="10.216895867069478"><ele>1245.8333333333333</ele><time>2026-04-18T09:22:15Z</time></trkpt><trkpt lat="44.304376643556346" lon="10.21683397506057"><ele>1248.0</ele><time>2026-04-18T09:22:17Z</time></trkpt><trkpt lat="44.30429996833363" lon="10.21683074802234"><ele>1248.0</ele><time>2026-04-18T09:22:20Z</time></trkpt><trkpt lat="44.304244400300455" lon="10.2169135174434"><ele>1248.0</ele><time>2026-04-18T09:26:15.001Z</time></trkpt><trkpt lat="44.304168619899784" lon="10.21700917161176"><ele>1248.0</ele><time>2026-04-18T09:26:17.001Z</time></trkpt><trkpt lat="44.30412162831498" lon="10.217087868216671"><ele>1248.0</ele><time>2026-04-18T09:26:19.001Z</time></trkpt><trkpt lat="44.30412475829387" lon="10.217275288731175"><ele>1248.0</ele><time>2026-04-18T09:26:21.001Z</time></trkpt><trkpt lat="44.30414782055607" lon="10.21745548518204"><ele>1249.6666666666667</ele><time>2026-04-18T09:26:22.001Z</time></trkpt><trkpt lat="44.304198615543285" lon="10.21766536290519"><ele>1251.3333333333335</ele><time>2026-04-18T09:26:23.001Z</time></trkpt><trkpt lat="44.30426162121735" lon="10.21797874130179"><ele>1253.0</ele><time>2026-04-18T09:26:24.001Z</time></trkpt><trkpt lat="44.30432024078028" lon="10.218262778718282"><ele>1254.0</ele><time>2026-04-18T09:26:25.001Z</time></trkpt><trkpt lat="44.304368772703626" lon="10.218488531411065"><ele>1255.0</ele><time>2026-04-18T09:26:26.001Z</time></trkpt><trkpt lat="44.30441320566229" lon="10.218693259373527"><ele>1256.0</ele><time>2026-04-18T09:26:27.001Z</time></trkpt><trkpt lat="44.30445123355575" lon="10.218872906514594"><ele>1256.5</ele><time>2026-04-18T09:26:28.001Z</time></trkpt><trkpt lat="44.304473283485734" lon="10.21903683465529"><ele>1257.0</ele><time>2026-04-18T09:26:29.001Z</time></trkpt><trkpt lat="44.30445985489818" lon="10.219246011541298"><ele>1257.5</ele><time>2026-04-18T09:26:30.001Z</time></trkpt><trkpt lat="44.30440136251176" lon="10.21948321766088"><ele>1258.0</ele><time>2026-04-18T09:26:31.001Z</time></trkpt><trkpt lat="44.30431464390898" lon="10.219816567182082"><ele>1256.5</ele><time>2026-04-18T09:26:32.001Z</time></trkpt><trkpt lat="44.30422477568382" lon="10.220209821592674"><ele>1255.0</ele><time>2026-04-18T09:26:33.001Z</time></trkpt><trkpt lat="44.30414074459498" lon="10.220532838963374"><ele>1254.6666666666665</ele><time>2026-04-18T09:26:34.001Z</time></trkpt><trkpt lat="44.30408397337109" lon="10.220773338758995"><ele>1254.3333333333333</ele><time>2026-04-18T09:26:35.001Z</time></trkpt><trkpt lat="44.30403220860714" lon="10.220982198134742"><ele>1254.0</ele><time>2026-04-18T09:26:36.001Z</time></trkpt><trkpt lat="44.303976355306034" lon="10.221158389384893"><ele>1255.25</ele><time>2026-04-18T09:26:37.001Z</time></trkpt><trkpt lat="44.303904988807886" lon="10.221307223371692"><ele>1256.5</ele><time>2026-04-18T09:26:38.001Z</time></trkpt><trkpt lat="44.3038040767085" lon="10.221451017916248"><ele>1257.75</ele><time>2026-04-18T09:26:39.001Z</time></trkpt><trkpt lat="44.303671546055774" lon="10.2216060990792"><ele>1259.0</ele><time>2026-04-18T09:26:40.001Z</time></trkpt><trkpt lat="44.30348534108209" lon="10.221821811196216"><ele>1259.5</ele><time>2026-04-18T09:26:41.001Z</time></trkpt><trkpt lat="44.3032663816556" lon="10.22206715998344"><ele>1260.0</ele><time>2026-04-18T09:26:42.001Z</time></trkpt><trkpt lat="44.3030765196603" lon="10.222287386302993"><ele>1258.3333333333333</ele><time>2026-04-18T09:26:43.001Z</time></trkpt><trkpt lat="44.30289734708778" lon="10.222463074919759"><ele>1256.6666666666665</ele><time>2026-04-18T09:26:44.001Z</time></trkpt><trkpt lat="44.30273412512627" lon="10.22261510372984"><ele>1255.0</ele><time>2026-04-18T09:26:45.001Z</time></trkpt><trkpt lat="44.302531789887176" lon="10.222771083852127"><ele>1255.0</ele><time>2026-04-18T09:26:46.001Z</time></trkpt><trkpt lat="44.302308152249616" lon="10.222962515483168"><ele>1255.0</ele><time>2026-04-18T09:26:47.001Z</time></trkpt><trkpt lat="44.30211513245717" lon="10.223130184077716"><ele>1255.6666666666665</ele><time>2026-04-18T09:26:48.001Z</time></trkpt><trkpt lat="44.301964946309695" lon="10.223290842699885"><ele>1256.3333333333333</ele><time>2026-04-18T09:26:49.001Z</time></trkpt><trkpt lat="44.301797640838814" lon="10.223484144965324"><ele>1257.0</ele><time>2026-04-18T09:26:50.001Z</time></trkpt><trkpt lat="44.30162695473682" lon="10.223754764003504"><ele>1257.3333333333333</ele><time>2026-04-18T09:26:51.001Z</time></trkpt><trkpt lat="44.301499930968575" lon="10.223996496825961"><ele>1257.6666666666665</ele><time>2026-04-18T09:26:52.001Z</time></trkpt><trkpt lat="44.301383604695204" lon="10.2241573683703"><ele>1258.0</ele><time>2026-04-18T09:26:53.001Z</time></trkpt><trkpt lat="44.301261087788504" lon="10.22430351290435"><ele>1258.0</ele><time>2026-04-18T09:26:54.001Z</time></trkpt><trkpt lat="44.30109790070463" lon="10.224416527760782"><ele>1258.0</ele><time>2026-04-18T09:26:55.001Z</time></trkpt><trkpt lat="44.3008715644532" lon="10.224529415466371"><ele>1258.0</ele><time>2026-04-18T09:26:56.001Z</time></trkpt><trkpt lat="44.300640464901186" lon="10.224633697455378"><ele>1257.5</ele><time>2026-04-18T09:26:57.001Z</time></trkpt><trkpt lat="44.300462599650004" lon="10.224726547624643"><ele>1257.0</ele><time>2026-04-18T09:26:58.001Z</time></trkpt><trkpt lat="44.300326730837185" lon="10.22479106014525"><ele>1256.5</ele><time>2026-04-18T09:26:59.001Z</time></trkpt><trkpt lat="44.30022427478367" lon="10.224864765006947"><ele>1256.0</ele><time>2026-04-18T09:27:00.001Z</time></trkpt><trkpt lat="44.30017291566481" lon="10.224990306149644"><ele>1258.0</ele><time>2026-04-18T09:27:01.001Z</time></trkpt><trkpt lat="44.30015024101068" lon="10.22516976128166"><ele>1260.0</ele><time>2026-04-18T09:27:02.001Z</time></trkpt><trkpt lat="44.30017830509077" lon="10.225341798132348"><ele>1262.0</ele><time>2026-04-18T09:27:03.001Z</time></trkpt><trkpt lat="44.30025754391154" lon="10.225468490657272"><ele>1264.0</ele><time>2026-04-18T09:27:04.001Z</time></trkpt><trkpt lat="44.30038678412009" lon="10.225575721558426"><ele>1269.0</ele><time>2026-04-18T09:27:05.001Z</time></trkpt><trkpt lat="44.300569493527064" lon="10.225716348410195"><ele>1274.0</ele><time>2026-04-18T09:27:06.001Z</time></trkpt><trkpt lat="44.30077026232321" lon="10.225904664340186"><ele>1274.0</ele><time>2026-04-18T09:27:07.001Z</time></trkpt><trkpt lat="44.30091863513009" lon="10.226048376558284"><ele>1274.0</ele><time>2026-04-18T09:27:08.001Z</time></trkpt><trkpt lat="44.300997713361" lon="10.226172343846748"><ele>1274.0</ele><time>2026-04-18T09:27:09.001Z</time></trkpt><trkpt lat="44.3010586755821" lon="10.2263263715348"><ele>1274.0</ele><time>2026-04-18T09:27:10.001Z</time></trkpt><trkpt lat="44.30108280698822" lon="10.226549976813606"><ele>1282.5</ele><time>2026-04-18T09:27:11.001Z</time></trkpt><trkpt lat="44.30112434702131" lon="10.226858240932671"><ele>1291.0</ele><time>2026-04-18T09:27:12.001Z</time></trkpt><trkpt lat="44.3012104199356" lon="10.22718198458586"><ele>1294.3333333333333</ele><time>2026-04-18T09:27:13.001Z</time></trkpt><trkpt lat="44.301319321616525" lon="10.227423727145407"><ele>1297.6666666666667</ele><time>2026-04-18T09:27:14.001Z</time></trkpt><trkpt lat="44.30141507094774" lon="10.227617035342032"><ele>1301.0</ele><time>2026-04-18T09:27:15.001Z</time></trkpt><trkpt lat="44.301458782319955" lon="10.227808888811829"><ele>1295.3333333333335</ele><time>2026-04-18T09:27:16.001Z</time></trkpt><trkpt lat="44.30147425936743" lon="10.227999363487372"><ele>1289.6666666666667</ele><time>2026-04-18T09:27:17.001Z</time></trkpt><trkpt lat="44.30146644990687" lon="10.22826037519507"><ele>1284.0</ele><time>2026-04-18T09:27:18.001Z</time></trkpt><trkpt lat="44.301436173241314" lon="10.228487206306689"><ele>1291.3333333333333</ele><time>2026-04-18T09:27:19.001Z</time></trkpt><trkpt lat="44.30137324093142" lon="10.228686201720445"><ele>1298.6666666666665</ele><time>2026-04-18T09:27:20.001Z</time></trkpt><trkpt lat="44.30127044989984" lon="10.228894171693543"><ele>1306.0</ele><time>2026-04-18T09:27:21.001Z</time></trkpt><trkpt lat="44.30113584230965" lon="10.229156747973379"><ele>1306.3333333333333</ele><time>2026-04-18T09:27:22.001Z</time></trkpt><trkpt lat="44.301005481956295" lon="10.229391463868122"><ele>1306.6666666666667</ele><time>2026-04-18T09:27:23.001Z</time></trkpt><trkpt lat="44.30088036110781" lon="10.229556756028119"><ele>1307.0</ele><time>2026-04-18T09:27:24.001Z</time></trkpt><trkpt lat="44.30072124962561" lon="10.229667121759064"><ele>1309.75</ele><time>2026-04-18T09:27:25.001Z</time></trkpt><trkpt lat="44.3005699970339" lon="10.229766661916376"><ele>1312.5</ele><time>2026-04-18T09:27:26.001Z</time></trkpt><trkpt lat="44.30046434344964" lon="10.229872706636307"><ele>1315.25</ele><time>2026-04-18T09:27:27.001Z</time></trkpt><trkpt lat="44.300399916769855" lon="10.230001893207767"><ele>1318.0</ele><time>2026-04-18T09:27:28.001Z</time></trkpt><trkpt lat="44.30037917079944" lon="10.230169962866364"><ele>1318.0</ele><time>2026-04-18T09:27:29.001Z</time></trkpt><trkpt lat="44.300398381527856" lon="10.230317249355997"><ele>1318.0</ele><time>2026-04-18T09:27:30.001Z</time></trkpt><trkpt lat="44.30049993368221" lon="10.230474255200098"><ele>1318.0</ele><time>2026-04-18T09:27:31.001Z</time></trkpt><trkpt lat="44.30062724024546" lon="10.230657849350635"><ele>1318.0</ele><time>2026-04-18T09:27:32.001Z</time></trkpt><trkpt lat="44.30073731446875" lon="10.230830188578288"><ele>1317.3333333333333</ele><time>2026-04-18T09:27:33.001Z</time></trkpt><trkpt lat="44.30078058216498" lon="10.231007263279476"><ele>1316.6666666666667</ele><time>2026-04-18T09:27:34.001Z</time></trkpt><trkpt lat="44.300775420905026" lon="10.231213536754375"><ele>1316.0</ele><time>2026-04-18T09:27:35.001Z</time></trkpt><trkpt lat="44.30073445897704" lon="10.231492962562577"><ele>1316.0</ele><time>2026-04-18T09:27:36.001Z</time></trkpt><trkpt lat="44.30062959636072" lon="10.231826557365745"><ele>1316.0</ele><time>2026-04-18T09:27:37.001Z</time></trkpt><trkpt lat="44.3005587506483" lon="10.23220676431732"><ele>1327.0</ele><time>2026-04-18T09:27:38.001Z</time></trkpt><trkpt lat="44.30048660794323" lon="10.232569445654942"><ele>1338.0</ele><time>2026-04-18T09:27:39.001Z</time></trkpt><trkpt lat="44.3003944433283" lon="10.232882419818209"><ele>1337.0</ele><time>2026-04-18T09:27:40.001Z</time></trkpt><trkpt lat="44.30029107222216" lon="10.233196824740812"><ele>1336.0</ele><time>2026-04-18T09:27:41.001Z</time></trkpt><trkpt lat="44.300209176520625" lon="10.233469320594923"><ele>1336.0</ele><time>2026-04-18T09:27:42.001Z</time></trkpt><trkpt lat="44.30014211613821" lon="10.233678990355005"><ele>1336.0</ele><time>2026-04-18T09:27:43.001Z</time></trkpt><trkpt lat="44.30009111238453" lon="10.233844693190772"><ele>1336.0</ele><time>2026-04-18T09:27:44.001Z</time></trkpt><trkpt lat="44.30006869721155" lon="10.23403555329324"><ele>1336.0</ele><time>2026-04-18T09:27:45.001Z</time></trkpt><trkpt lat="44.300147565911" lon="10.23426545177582"><ele>1336.3333333333333</ele><time>2026-04-18T09:27:46.001Z</time></trkpt><trkpt lat="44.3002278330774" lon="10.234511429060206"><ele>1336.6666666666667</ele><time>2026-04-18T09:27:47.001Z</time></trkpt><trkpt lat="44.300336498082146" lon="10.23480280421571"><ele>1337.0</ele><time>2026-04-18T09:27:48.001Z</time></trkpt><trkpt lat="44.30047203865566" lon="10.23506069039555"><ele>1332.5</ele><time>2026-04-18T09:27:49.001Z</time></trkpt><trkpt lat="44.300686573422865" lon="10.235454821816283"><ele>1328.0</ele><time>2026-04-18T09:27:50.001Z</time></trkpt><trkpt lat="44.30086331932404" lon="10.235722734899934"><ele>1328.0</ele><time>2026-04-18T09:27:51.001Z</time></trkpt><trkpt lat="44.30100435847966" lon="10.23590618336755"><ele>1328.0</ele><time>2026-04-18T09:27:52.001Z</time></trkpt><trkpt lat="44.30103416558466" lon="10.236085253530769"><ele>1328.0</ele><time>2026-04-18T09:27:53.001Z</time></trkpt><trkpt lat="44.301026776180265" lon="10.23621811063169"><ele>1328.0</ele><time>2026-04-18T09:27:54.001Z</time></trkpt><trkpt lat="44.301021818451716" lon="10.23648081510273"><ele>1331.3333333333335</ele><time>2026-04-18T09:27:55.001Z</time></trkpt><trkpt lat="44.30100501006292" lon="10.236718098303333"><ele>1334.6666666666667</ele><time>2026-04-18T09:27:56.001Z</time></trkpt><trkpt lat="44.30093167647315" lon="10.236919225564357"><ele>1338.0</ele><time>2026-04-18T09:27:57.001Z</time></trkpt><trkpt lat="44.30084848555054" lon="10.237049241796779"><ele>1338.0</ele><time>2026-04-18T09:27:58.001Z</time></trkpt><trkpt lat="44.30071405214868" lon="10.237190117699022"><ele>1338.0</ele><time>2026-04-18T09:27:59.001Z</time></trkpt><trkpt lat="44.300557571846284" lon="10.23733622900058"><ele>1338.0</ele><time>2026-04-18T09:28:00.001Z</time></trkpt><trkpt lat="44.30034072199808" lon="10.237549351017263"><ele>1340.0</ele><time>2026-04-18T09:28:01.001Z</time></trkpt><trkpt lat="44.300072736187396" lon="10.237804112507037"><ele>1342.0</ele><time>2026-04-18T09:28:02.001Z</time></trkpt><trkpt lat="44.2998506139249" lon="10.238011242382361"><ele>1341.0</ele><time>2026-04-18T09:28:03.001Z</time></trkpt><trkpt lat="44.299639478729546" lon="10.238231863816125"><ele>1340.0</ele><time>2026-04-18T09:28:04.001Z</time></trkpt><trkpt lat="44.2994213838291" lon="10.238402439058575"><ele>1340.0</ele><time>2026-04-18T09:28:05.001Z</time></trkpt><trkpt lat="44.299283201524815" lon="10.238499244177417"><ele>1340.0</ele><time>2026-04-18T09:28:06.001Z</time></trkpt><trkpt lat="44.299109439977315" lon="10.238622225340968"><ele>1340.0</ele><time>2026-04-18T09:28:07.001Z</time></trkpt><trkpt lat="44.29895751065978" lon="10.23873069573337"><ele>1341.5</ele><time>2026-04-18T09:28:08.001Z</time></trkpt><trkpt lat="44.29880752707949" lon="10.238852691545498"><ele>1343.0</ele><time>2026-04-18T09:28:09.001Z</time></trkpt><trkpt lat="44.298675541940426" lon="10.23894820703612"><ele>1344.5</ele><time>2026-04-18T09:28:10.001Z</time></trkpt><trkpt lat="44.29857957670947" lon="10.239041204770297"><ele>1346.0</ele><time>2026-04-18T09:28:11.001Z</time></trkpt><trkpt lat="44.29853482200903" lon="10.23917020509572"><ele>1346.0</ele><time>2026-04-18T09:28:12.001Z</time></trkpt><trkpt lat="44.29851839357289" lon="10.23933057757506"><ele>1346.0</ele><time>2026-04-18T09:28:13.001Z</time></trkpt><trkpt lat="44.29853934819818" lon="10.239510681839423"><ele>1346.0</ele><time>2026-04-18T09:28:14.001Z</time></trkpt><trkpt lat="44.29860495052996" lon="10.239665902062923"><ele>1346.0</ele><time>2026-04-18T09:28:15.001Z</time></trkpt><trkpt lat="44.29867426819636" lon="10.239846146838536"><ele>1346.75</ele><time>2026-04-18T09:28:16.001Z</time></trkpt><trkpt lat="44.29873036881687" lon="10.24003237479417"><ele>1347.5</ele><time>2026-04-18T09:28:17.001Z</time></trkpt><trkpt lat="44.298774827729844" lon="10.24021125080696"><ele>1348.25</ele><time>2026-04-18T09:28:18.001Z</time></trkpt><trkpt lat="44.298759839592805" lon="10.240377403297938"><ele>1349.0</ele><time>2026-04-18T09:28:19.001Z</time></trkpt><trkpt lat="44.298707399826064" lon="10.240493425848914"><ele>1349.0</ele><time>2026-04-18T09:28:20.001Z</time></trkpt><trkpt lat="44.298664762258" lon="10.240596369566758"><ele>1349.0</ele><time>2026-04-18T09:28:21.001Z</time></trkpt><trkpt lat="44.298626562072656" lon="10.240703237643778"><ele>1349.0</ele><time>2026-04-18T09:28:22.001Z</time></trkpt><trkpt lat="44.29859232577522" lon="10.240858628021186"><ele>1349.0</ele><time>2026-04-18T09:28:23.001Z</time></trkpt><trkpt lat="44.29862987754489" lon="10.24105521588536"><ele>1349.0</ele><time>2026-04-18T09:28:24.001Z</time></trkpt><trkpt lat="44.29869747592113" lon="10.241236812811882"><ele>1351.0</ele><time>2026-04-18T09:28:25Z</time></trkpt><trkpt lat="44.29880039217578" lon="10.241370792156061"><ele>1353.0</ele><time>2026-04-18T09:28:26Z</time></trkpt><trkpt lat="44.29890783944147" lon="10.241484397765635"><ele>1355.0</ele><time>2026-04-18T09:28:27Z</time></trkpt><trkpt lat="44.29898425175448" lon="10.241627960406149"><ele>1357.0</ele><time>2026-04-18T09:28:28Z</time></trkpt><trkpt lat="44.29896435455817" lon="10.241786249556856"><ele>1356.5</ele><time>2026-04-18T09:28:29Z</time></trkpt><trkpt lat="44.298911055442844" lon="10.241886463445127"><ele>1356.0</ele><time>2026-04-18T09:28:30Z</time></trkpt><trkpt lat="44.29885012603789" lon="10.24199819421934"><ele>1355.5</ele><time>2026-04-18T09:28:31Z</time></trkpt><trkpt lat="44.298758373537595" lon="10.242141095317354"><ele>1355.0</ele><time>2026-04-18T09:28:32Z</time></trkpt><trkpt lat="44.298657441024055" lon="10.242301137265143"><ele>1355.0</ele><time>2026-04-18T09:28:33Z</time></trkpt><trkpt lat="44.29856293171961" lon="10.242452993272803"><ele>1355.0</ele><time>2026-04-18T09:28:34Z</time></trkpt><trkpt lat="44.298435659256796" lon="10.242639925436613"><ele>1355.0</ele><time>2026-04-18T09:28:35Z</time></trkpt><trkpt lat="44.2982607156667" lon="10.242857011125686"><ele>1355.0</ele><time>2026-04-18T09:28:36Z</time></trkpt><trkpt lat="44.29806955711957" lon="10.243070641042264"><ele>1355.0</ele><time>2026-04-18T09:28:37Z</time></trkpt><trkpt lat="44.29791987230562" lon="10.243254626342585"><ele>1355.0</ele><time>2026-04-18T09:28:38Z</time></trkpt><trkpt lat="44.29782891642166" lon="10.243423029088484"><ele>1355.0</ele><time>2026-04-18T09:28:39Z</time></trkpt><trkpt lat="44.29774225284776" lon="10.243528348909637"><ele>1355.0</ele><time>2026-04-18T09:28:40Z</time></trkpt><trkpt lat="44.2977310722867" lon="10.243630937670975"><ele>1355.0</ele><time>2026-04-18T09:28:41Z</time></trkpt><trkpt lat="44.29770263229556" lon="10.243795140497395"><ele>1355.0</ele><time>2026-04-18T09:28:43Z</time></trkpt><trkpt lat="44.2977211336074" lon="10.243940931268666"><ele>1355.0</ele><time>2026-04-18T09:28:45Z</time></trkpt><trkpt lat="44.29771677079913" lon="10.244028879927802"><ele>1355.0000000000002</ele><time>2026-04-18T09:28:47Z</time></trkpt><trkpt lat="44.29764627683628" lon="10.244053881066849"><ele>1355.0</ele><time>2026-04-18T09:33:04.001Z</time></trkpt><trkpt lat="44.2977024310775" lon="10.244002534657271"><ele>1355.0</ele><time>2026-04-18T09:33:34.001Z</time></trkpt><trkpt lat="44.297643561574944" lon="10.244034282404247"><ele>1355.0</ele><time>2026-04-18T09:33:54.001Z</time></trkpt><trkpt lat="44.29771048411209" lon="10.244034765914003"><ele>1355.0</ele><time>2026-04-18T09:47:46.999Z</time></trkpt><trkpt lat="44.29778660865396" lon="10.244074844160906"><ele>1355.0000000000002</ele><time>2026-04-18T09:56:32Z</time></trkpt><trkpt lat="44.2978197638021" lon="10.243987967161749"><ele>1355.0</ele><time>2026-04-18T09:56:34Z</time></trkpt><trkpt lat="44.297822443374876" lon="10.243850357545888"><ele>1355.0</ele><time>2026-04-18T09:56:35Z</time></trkpt><trkpt lat="44.297818102952625" lon="10.243733322901162"><ele>1355.0</ele><time>2026-04-18T09:56:36Z</time></trkpt><trkpt lat="44.29782474123617" lon="10.243619672055555"><ele>1355.0</ele><time>2026-04-18T09:56:37Z</time></trkpt><trkpt lat="44.297849670733655" lon="10.243504305035477"><ele>1355.0</ele><time>2026-04-18T09:56:38Z</time></trkpt><trkpt lat="44.29788570297812" lon="10.243397162283438"><ele>1355.0</ele><time>2026-04-18T09:56:39Z</time></trkpt><trkpt lat="44.29793451482376" lon="10.243288007439988"><ele>1355.0</ele><time>2026-04-18T09:56:40Z</time></trkpt><trkpt lat="44.29800000438182" lon="10.243192158267092"><ele>1355.0</ele><time>2026-04-18T09:56:41Z</time></trkpt><trkpt lat="44.298077574364" lon="10.243094965583625"><ele>1355.0</ele><time>2026-04-18T09:56:42Z</time></trkpt><trkpt lat="44.29818334030055" lon="10.242976510822736"><ele>1355.0</ele><time>2026-04-18T09:56:43Z</time></trkpt><trkpt lat="44.29830373719676" lon="10.242843147773783"><ele>1355.0</ele><time>2026-04-18T09:56:44Z</time></trkpt><trkpt lat="44.29841195609385" lon="10.242705772391258"><ele>1355.0</ele><time>2026-04-18T09:56:45Z</time></trkpt><trkpt lat="44.29851464946342" lon="10.242561724373955"><ele>1355.0</ele><time>2026-04-18T09:56:46Z</time></trkpt><trkpt lat="44.298605537981985" lon="10.24242660050192"><ele>1355.0</ele><time>2026-04-18T09:56:47Z</time></trkpt><trkpt lat="44.29869064343163" lon="10.242298634218816"><ele>1355.0</ele><time>2026-04-18T09:56:48Z</time></trkpt><trkpt lat="44.29877333724114" lon="10.242165763021875"><ele>1356.2</ele><time>2026-04-18T09:56:49Z</time></trkpt><trkpt lat="44.298853007188875" lon="10.242059142821928"><ele>1357.4</ele><time>2026-04-18T09:56:50Z</time></trkpt><trkpt lat="44.29891519917341" lon="10.241949709400856"><ele>1358.6</ele><time>2026-04-18T09:56:51Z</time></trkpt><trkpt lat="44.29896771882157" lon="10.241812076531259"><ele>1359.8</ele><time>2026-04-18T09:56:52Z</time></trkpt><trkpt lat="44.29899076787842" lon="10.241670056283354"><ele>1361.0</ele><time>2026-04-18T09:56:53Z</time></trkpt><trkpt lat="44.29897066233553" lon="10.241530292358368"><ele>1360.0</ele><time>2026-04-18T09:56:54Z</time></trkpt><trkpt lat="44.298914824036395" lon="10.241386378477404"><ele>1359.0</ele><time>2026-04-18T09:56:55Z</time></trkpt><trkpt lat="44.298827103211025" lon="10.241249443810224"><ele>1358.0</ele><time>2026-04-18T09:56:56Z</time></trkpt><trkpt lat="44.2987308312184" lon="10.241116270577661"><ele>1357.0</ele><time>2026-04-18T09:56:57Z</time></trkpt><trkpt lat="44.298662037237385" lon="10.240966701005144"><ele>1357.0</ele><time>2026-04-18T09:56:58Z</time></trkpt><trkpt lat="44.29864609171924" lon="10.240813385717672"><ele>1357.0</ele><time>2026-04-18T09:56:59Z</time></trkpt><trkpt lat="44.29866136719522" lon="10.240667710476497"><ele>1357.0</ele><time>2026-04-18T09:57:00Z</time></trkpt><trkpt lat="44.29872838889405" lon="10.240539000549443"><ele>1357.0</ele><time>2026-04-18T09:57:01Z</time></trkpt><trkpt lat="44.298768996254545" lon="10.24039090177664"><ele>1357.0</ele><time>2026-04-18T09:57:02Z</time></trkpt><trkpt lat="44.29881138884087" lon="10.24023888958728"><ele>1355.0</ele><time>2026-04-18T09:57:03Z</time></trkpt><trkpt lat="44.298807038350915" lon="10.240073803452413"><ele>1353.0</ele><time>2026-04-18T09:57:04Z</time></trkpt><trkpt lat="44.29876381016309" lon="10.239900730090804"><ele>1351.0</ele><time>2026-04-18T09:57:05Z</time></trkpt><trkpt lat="44.298698002884926" lon="10.239722392379704"><ele>1349.0</ele><time>2026-04-18T09:57:06Z</time></trkpt><trkpt lat="44.298623238306014" lon="10.239551218552943"><ele>1349.2</ele><time>2026-04-18T09:57:07Z</time></trkpt><trkpt lat="44.298586707541645" lon="10.23937210461107"><ele>1349.4</ele><time>2026-04-18T09:57:08Z</time></trkpt><trkpt lat="44.29858726448588" lon="10.23921646382028"><ele>1349.6</ele><time>2026-04-18T09:57:09Z</time></trkpt><trkpt lat="44.29862075256186" lon="10.239089653721846"><ele>1349.8</ele><time>2026-04-18T09:57:10Z</time></trkpt><trkpt lat="44.29868246967971" lon="10.238981094331686"><ele>1350.0</ele><time>2026-04-18T09:57:11Z</time></trkpt><trkpt lat="44.29876794592094" lon="10.238892212736483"><ele>1350.0</ele><time>2026-04-18T09:57:12Z</time></trkpt><trkpt lat="44.29887572828522" lon="10.238817768337944"><ele>1350.0</ele><time>2026-04-18T09:57:13Z</time></trkpt><trkpt lat="44.299001024832926" lon="10.238736005308906"><ele>1350.0</ele><time>2026-04-18T09:57:14Z</time></trkpt><trkpt lat="44.299116136868996" lon="10.238649908767375"><ele>1350.0</ele><time>2026-04-18T09:57:15Z</time></trkpt><trkpt lat="44.29921968062977" lon="10.238574772965949"><ele>1348.0</ele><time>2026-04-18T09:57:16Z</time></trkpt><trkpt lat="44.29931731769771" lon="10.238504619972886"><ele>1346.0</ele><time>2026-04-18T09:57:17Z</time></trkpt><trkpt lat="44.29940097840705" lon="10.23844448187514"><ele>1344.0</ele><time>2026-04-18T09:57:18Z</time></trkpt><trkpt lat="44.29947526689451" lon="10.238391847588852"><ele>1342.0</ele><time>2026-04-18T09:57:19Z</time></trkpt><trkpt lat="44.299555603676076" lon="10.23833339587967"><ele>1340.0</ele><time>2026-04-18T09:57:20Z</time></trkpt><trkpt lat="44.29964204172306" lon="10.238263189208793"><ele>1340.0</ele><time>2026-04-18T09:57:21Z</time></trkpt><trkpt lat="44.299730585240816" lon="10.238183145353432"><ele>1340.0</ele><time>2026-04-18T09:57:22Z</time></trkpt><trkpt lat="44.29981937229685" lon="10.238091798306575"><ele>1340.0</ele><time>2026-04-18T09:57:23Z</time></trkpt><trkpt lat="44.29991463568847" lon="10.23799467859292"><ele>1340.0</ele><time>2026-04-18T09:57:24Z</time></trkpt><trkpt lat="44.30001647616159" lon="10.237900473118536"><ele>1340.5</ele><time>2026-04-18T09:57:25Z</time></trkpt><trkpt lat="44.3001174896287" lon="10.237809226880497"><ele>1341.0</ele><time>2026-04-18T09:57:26Z</time></trkpt><trkpt lat="44.30021740524602" lon="10.237720518029864"><ele>1341.5</ele><time>2026-04-18T09:57:27Z</time></trkpt><trkpt lat="44.300313233152366" lon="10.237629381595783"><ele>1342.0</ele><time>2026-04-18T09:57:28Z</time></trkpt><trkpt lat="44.300408344093555" lon="10.237538842995978"><ele>1342.0</ele><time>2026-04-18T09:57:29Z</time></trkpt><trkpt lat="44.300497363670765" lon="10.237453049422726"><ele>1342.0</ele><time>2026-04-18T09:57:30Z</time></trkpt><trkpt lat="44.300578951955494" lon="10.237373373608214"><ele>1342.0</ele><time>2026-04-18T09:57:31Z</time></trkpt><trkpt lat="44.30066784232847" lon="10.237289162621517"><ele>1342.0</ele><time>2026-04-18T09:57:32Z</time></trkpt><trkpt lat="44.30075117927032" lon="10.237207464891865"><ele>1342.0</ele><time>2026-04-18T09:57:33Z</time></trkpt><trkpt lat="44.300827552301314" lon="10.23712812202757"><ele>1341.1999999999998</ele><time>2026-04-18T09:57:34Z</time></trkpt><trkpt lat="44.30089106373325" lon="10.237046771854107"><ele>1340.4</ele><time>2026-04-18T09:57:35Z</time></trkpt><trkpt lat="44.300945827954855" lon="10.236948174113989"><ele>1339.6</ele><time>2026-04-18T09:57:36Z</time></trkpt><trkpt lat="44.30099077583514" lon="10.23683062909811"><ele>1338.8000000000002</ele><time>2026-04-18T09:57:37Z</time></trkpt><trkpt lat="44.30102582033628" lon="10.236695860513219"><ele>1338.0</ele><time>2026-04-18T09:57:38Z</time></trkpt><trkpt lat="44.30104565660804" lon="10.236550281484204"><ele>1335.5</ele><time>2026-04-18T09:57:39Z</time></trkpt><trkpt lat="44.30105398225573" lon="10.2363899683106"><ele>1333.0</ele><time>2026-04-18T09:57:40Z</time></trkpt><trkpt lat="44.301054436213064" lon="10.236220446033808"><ele>1330.5</ele><time>2026-04-18T09:57:41Z</time></trkpt><trkpt lat="44.301049037173044" lon="10.236038451226667"><ele>1328.0</ele><time>2026-04-18T09:57:42Z</time></trkpt><trkpt lat="44.300998807933" lon="10.23585489533918"><ele>1328.0</ele><time>2026-04-18T09:57:43Z</time></trkpt><trkpt lat="44.30090278602854" lon="10.235661534497929"><ele>1328.0</ele><time>2026-04-18T09:57:44Z</time></trkpt><trkpt lat="44.300764544073644" lon="10.235453911409131"><ele>1328.0</ele><time>2026-04-18T09:57:45Z</time></trkpt><trkpt lat="44.300613843083696" lon="10.23523134282143"><ele>1329.6666666666667</ele><time>2026-04-18T09:57:46Z</time></trkpt><trkpt lat="44.30048507165425" lon="10.234986440164567"><ele>1331.3333333333333</ele><time>2026-04-18T09:57:47Z</time></trkpt><trkpt lat="44.30037352015674" lon="10.234734006338552"><ele>1333.0</ele><time>2026-04-18T09:57:48Z</time></trkpt><trkpt lat="44.30027968700081" lon="10.234511412905865"><ele>1333.0</ele><time>2026-04-18T09:57:49Z</time></trkpt><trkpt lat="44.30019594172225" lon="10.23432042866278"><ele>1333.0</ele><time>2026-04-18T09:57:50Z</time></trkpt><trkpt lat="44.30014088492416" lon="10.234145150001236"><ele>1333.0</ele><time>2026-04-18T09:57:51Z</time></trkpt><trkpt lat="44.30012157567598" lon="10.233969614331665"><ele>1333.0</ele><time>2026-04-18T09:57:52Z</time></trkpt><trkpt lat="44.30013815797065" lon="10.23378101607449"><ele>1334.0</ele><time>2026-04-18T09:57:53Z</time></trkpt><trkpt lat="44.300193942842775" lon="10.233566652702839"><ele>1335.0</ele><time>2026-04-18T09:57:54Z</time></trkpt><trkpt lat="44.30028560795095" lon="10.233300232265538"><ele>1336.0</ele><time>2026-04-18T09:57:55Z</time></trkpt><trkpt lat="44.300395754744955" lon="10.232972991177508"><ele>1337.0</ele><time>2026-04-18T09:57:56Z</time></trkpt><trkpt lat="44.30049541433594" lon="10.232629354257668"><ele>1338.0</ele><time>2026-04-18T09:57:57Z</time></trkpt><trkpt lat="44.300574209414876" lon="10.232336654685758"><ele>1330.6666666666667</ele><time>2026-04-18T09:57:58Z</time></trkpt><trkpt lat="44.30063182062056" lon="10.23205985686727"><ele>1323.3333333333335</ele><time>2026-04-18T09:57:59Z</time></trkpt><trkpt lat="44.30067388992064" lon="10.231800145906373"><ele>1316.0</ele><time>2026-04-18T09:58:00Z</time></trkpt><trkpt lat="44.30069970880724" lon="10.23156301629222"><ele>1315.25</ele><time>2026-04-18T09:58:01Z</time></trkpt><trkpt lat="44.30074448230741" lon="10.231339295818612"><ele>1314.5</ele><time>2026-04-18T09:58:02Z</time></trkpt><trkpt lat="44.300785495449915" lon="10.231142283385388"><ele>1313.75</ele><time>2026-04-18T09:58:03Z</time></trkpt><trkpt lat="44.30080003434798" lon="10.230963880351753"><ele>1313.0</ele><time>2026-04-18T09:58:04Z</time></trkpt><trkpt lat="44.300760923821684" lon="10.230804656006196"><ele>1313.0</ele><time>2026-04-18T09:58:05Z</time></trkpt><trkpt lat="44.300692360700914" lon="10.230654864154202"><ele>1313.0</ele><time>2026-04-18T09:58:06Z</time></trkpt><trkpt lat="44.300617806517295" lon="10.230542805313124"><ele>1313.0</ele><time>2026-04-18T09:58:07Z</time></trkpt><trkpt lat="44.30055439668854" lon="10.230465037019883"><ele>1313.0</ele><time>2026-04-18T09:58:08Z</time></trkpt><trkpt lat="44.300505416058584" lon="10.23039663553192"><ele>1313.0</ele><time>2026-04-18T09:58:09Z</time></trkpt><trkpt lat="44.30044054760362" lon="10.230271128746002"><ele>1314.0</ele><time>2026-04-18T09:58:11Z</time></trkpt><trkpt lat="44.30042129526069" lon="10.230098832864584"><ele>1315.0</ele><time>2026-04-18T09:58:13Z</time></trkpt><trkpt lat="44.30039511703248" lon="10.23001390563476"><ele>1316.0</ele><time>2026-04-18T09:58:14Z</time></trkpt><trkpt lat="44.300484234502555" lon="10.229893887671405"><ele>1317.0</ele><time>2026-04-18T09:58:15Z</time></trkpt><trkpt lat="44.3005559507156" lon="10.229812123023265"><ele>1318.0</ele><time>2026-04-18T09:58:16Z</time></trkpt><trkpt lat="44.30064755602902" lon="10.229750759798868"><ele>1315.8000000000002</ele><time>2026-04-18T09:58:17Z</time></trkpt><trkpt lat="44.300737629758814" lon="10.229705048036415"><ele>1313.6</ele><time>2026-04-18T09:58:18Z</time></trkpt><trkpt lat="44.30082133146362" lon="10.229654915096631"><ele>1311.4</ele><time>2026-04-18T09:58:19Z</time></trkpt><trkpt lat="44.30088968684594" lon="10.229594592617316"><ele>1309.1999999999998</ele><time>2026-04-18T09:58:20Z</time></trkpt><trkpt lat="44.300954286053695" lon="10.229519524838837"><ele>1307.0</ele><time>2026-04-18T09:58:21Z</time></trkpt><trkpt lat="44.30104344701772" lon="10.229370090046395"><ele>1307.0</ele><time>2026-04-18T09:58:22Z</time></trkpt><trkpt lat="44.30116983420194" lon="10.229131700633413"><ele>1307.0</ele><time>2026-04-18T09:58:23Z</time></trkpt><trkpt lat="44.30129323860891" lon="10.22893531654045"><ele>1307.0</ele><time>2026-04-18T09:58:24Z</time></trkpt><trkpt lat="44.301398684149156" lon="10.22875059506407"><ele>1299.3333333333335</ele><time>2026-04-18T09:58:25Z</time></trkpt><trkpt lat="44.30147522733265" lon="10.228557678338811"><ele>1291.6666666666667</ele><time>2026-04-18T09:58:26Z</time></trkpt><trkpt lat="44.301523105108096" lon="10.228330805824218"><ele>1284.0</ele><time>2026-04-18T09:58:27Z</time></trkpt><trkpt lat="44.30153118226121" lon="10.228094115166924"><ele>1282.0</ele><time>2026-04-18T09:58:28Z</time></trkpt><trkpt lat="44.30151869772143" lon="10.227877244879188"><ele>1280.0</ele><time>2026-04-18T09:58:29Z</time></trkpt><trkpt lat="44.30146610173875" lon="10.227660330640594"><ele>1278.0</ele><time>2026-04-18T09:58:30Z</time></trkpt><trkpt lat="44.30139974182095" lon="10.227451052054544"><ele>1282.3333333333333</ele><time>2026-04-18T09:58:31Z</time></trkpt><trkpt lat="44.30128882431589" lon="10.22724159565329"><ele>1286.6666666666665</ele><time>2026-04-18T09:58:32Z</time></trkpt><trkpt lat="44.30120233119807" lon="10.227027336027614"><ele>1291.0</ele><time>2026-04-18T09:58:33Z</time></trkpt><trkpt lat="44.30114955597617" lon="10.226800584362252"><ele>1291.0</ele><time>2026-04-18T09:58:34Z</time></trkpt><trkpt lat="44.30113403666347" lon="10.226561824032567"><ele>1291.0</ele><time>2026-04-18T09:58:35Z</time></trkpt><trkpt lat="44.301107884709076" lon="10.226345339831191"><ele>1291.0</ele><time>2026-04-18T09:58:36Z</time></trkpt><trkpt lat="44.301051090505965" lon="10.226154252003049"><ele>1285.3333333333333</ele><time>2026-04-18T09:58:37Z</time></trkpt><trkpt lat="44.30095488955614" lon="10.22598746788548"><ele>1279.6666666666667</ele><time>2026-04-18T09:58:38Z</time></trkpt><trkpt lat="44.30081449624086" lon="10.225841642575313"><ele>1274.0</ele><time>2026-04-18T09:58:39Z</time></trkpt><trkpt lat="44.30062816670221" lon="10.225689449973894"><ele>1270.6666666666667</ele><time>2026-04-18T09:58:40Z</time></trkpt><trkpt lat="44.30046493533033" lon="10.225564605730968"><ele>1267.3333333333333</ele><time>2026-04-18T09:58:41Z</time></trkpt><trkpt lat="44.30033763091524" lon="10.225456826898398"><ele>1264.0</ele><time>2026-04-18T09:58:42Z</time></trkpt><trkpt lat="44.30025444200412" lon="10.225341021952694"><ele>1264.0</ele><time>2026-04-18T09:58:43Z</time></trkpt><trkpt lat="44.30021558786799" lon="10.225221165067422"><ele>1264.0</ele><time>2026-04-18T09:58:44Z</time></trkpt><trkpt lat="44.300210596844366" lon="10.225105976445274"><ele>1264.0</ele><time>2026-04-18T09:58:45Z</time></trkpt><trkpt lat="44.30022790844463" lon="10.224977539093619"><ele>1264.0</ele><time>2026-04-18T09:58:46Z</time></trkpt><trkpt lat="44.30028919268042" lon="10.224864239148479"><ele>1264.0</ele><time>2026-04-18T09:58:47Z</time></trkpt><trkpt lat="44.300386562046285" lon="10.224806127566506"><ele>1262.5</ele><time>2026-04-18T09:58:48Z</time></trkpt><trkpt lat="44.300488216829365" lon="10.22473264894397"><ele>1261.0</ele><time>2026-04-18T09:58:49Z</time></trkpt><trkpt lat="44.30060064460663" lon="10.2246918535255"><ele>1259.5</ele><time>2026-04-18T09:58:50Z</time></trkpt><trkpt lat="44.30074622557951" lon="10.22462330495311"><ele>1258.0</ele><time>2026-04-18T09:58:51Z</time></trkpt><trkpt lat="44.300913620575" lon="10.224544674973725"><ele>1258.0</ele><time>2026-04-18T09:58:52Z</time></trkpt><trkpt lat="44.30107027349533" lon="10.224486833865571"><ele>1258.0</ele><time>2026-04-18T09:58:53Z</time></trkpt><trkpt lat="44.30120236360709" lon="10.22439467495976"><ele>1258.0</ele><time>2026-04-18T09:58:54Z</time></trkpt><trkpt lat="44.30133947099262" lon="10.224260959046415"><ele>1257.5</ele><time>2026-04-18T09:58:55Z</time></trkpt><trkpt lat="44.30149300587033" lon="10.22404255648029"><ele>1257.0</ele><time>2026-04-18T09:58:56Z</time></trkpt><trkpt lat="44.30166585776859" lon="10.223754948507892"><ele>1257.0</ele><time>2026-04-18T09:58:57Z</time></trkpt><trkpt lat="44.30182137365012" lon="10.223514240665953"><ele>1257.0</ele><time>2026-04-18T09:58:58Z</time></trkpt><trkpt lat="44.30197423619572" lon="10.223321812949939"><ele>1257.0</ele><time>2026-04-18T09:58:59Z</time></trkpt><trkpt lat="44.30217833969505" lon="10.22313162111675"><ele>1256.0</ele><time>2026-04-18T09:59:00Z</time></trkpt><trkpt lat="44.30241890039262" lon="10.222920263511597"><ele>1255.0</ele><time>2026-04-18T09:59:01Z</time></trkpt><trkpt lat="44.30264910442461" lon="10.222723999469007"><ele>1255.0</ele><time>2026-04-18T09:59:02Z</time></trkpt><trkpt lat="44.3028431771604" lon="10.222552240840136"><ele>1255.0</ele><time>2026-04-18T09:59:03Z</time></trkpt><trkpt lat="44.30302564484529" lon="10.222382623555307"><ele>1255.0</ele><time>2026-04-18T09:59:04Z</time></trkpt><trkpt lat="44.30321358276776" lon="10.222187683115429"><ele>1256.6666666666665</ele><time>2026-04-18T09:59:05Z</time></trkpt><trkpt lat="44.303387224720765" lon="10.221975199266364"><ele>1258.3333333333333</ele><time>2026-04-18T09:59:06Z</time></trkpt><trkpt lat="44.303537560614494" lon="10.221788914716985"><ele>1260.0</ele><time>2026-04-18T09:59:07Z</time></trkpt><trkpt lat="44.303674695380984" lon="10.221623197708961"><ele>1260.0</ele><time>2026-04-18T09:59:08Z</time></trkpt><trkpt lat="44.30380039802138" lon="10.221485458021663"><ele>1260.0</ele><time>2026-04-18T09:59:09Z</time></trkpt><trkpt lat="44.3039104608094" lon="10.221355971410063"><ele>1260.0</ele><time>2026-04-18T09:59:10Z</time></trkpt><trkpt lat="44.30401381310268" lon="10.221162277970425"><ele>1257.5</ele><time>2026-04-18T09:59:11Z</time></trkpt><trkpt lat="44.304108160803366" lon="10.220875857955242"><ele>1255.0</ele><time>2026-04-18T09:59:12Z</time></trkpt><trkpt lat="44.30419570657729" lon="10.220513617183068"><ele>1255.0</ele><time>2026-04-18T09:59:13Z</time></trkpt><trkpt lat="44.30428083232142" lon="10.22012462990847"><ele>1255.0</ele><time>2026-04-18T09:59:14Z</time></trkpt><trkpt lat="44.30435884881991" lon="10.219791269569509"><ele>1256.0</ele><time>2026-04-18T09:59:15Z</time></trkpt><trkpt lat="44.304434127934414" lon="10.2195392824977"><ele>1257.0</ele><time>2026-04-18T09:59:16Z</time></trkpt><trkpt lat="44.30448712455078" lon="10.219347329543295"><ele>1258.0</ele><time>2026-04-18T09:59:17Z</time></trkpt><trkpt lat="44.3045199923531" lon="10.219193936257474"><ele>1258.0</ele><time>2026-04-18T09:59:18Z</time></trkpt><trkpt lat="44.304520491782164" lon="10.219037895755395"><ele>1258.0</ele><time>2026-04-18T09:59:19Z</time></trkpt><trkpt lat="44.30449396036384" lon="10.218860948916134"><ele>1258.0</ele><time>2026-04-18T09:59:20Z</time></trkpt><trkpt lat="44.30444899653677" lon="10.218657932531075"><ele>1258.0</ele><time>2026-04-18T09:59:21Z</time></trkpt><trkpt lat="44.304395029930404" lon="10.218416281467505"><ele>1256.3333333333333</ele><time>2026-04-18T09:59:22Z</time></trkpt><trkpt lat="44.304322248298966" lon="10.218097486047673"><ele>1254.6666666666667</ele><time>2026-04-18T09:59:23Z</time></trkpt><trkpt lat="44.30427152888352" lon="10.217821747499869"><ele>1253.0</ele><time>2026-04-18T09:59:24Z</time></trkpt><trkpt lat="44.3042323781184" lon="10.217618781993359"><ele>1253.0</ele><time>2026-04-18T09:59:25Z</time></trkpt><trkpt lat="44.304201181163464" lon="10.217437333981598"><ele>1253.0</ele><time>2026-04-18T09:59:26Z</time></trkpt><trkpt lat="44.30416263898636" lon="10.21729802372995"><ele>1253.0</ele><time>2026-04-18T09:59:27Z</time></trkpt><trkpt lat="44.304137313685374" lon="10.217206913428749"><ele>1253.0</ele><time>2026-04-18T09:59:28Z</time></trkpt><trkpt lat="44.30410711961059" lon="10.217108305998853"><ele>1253.0</ele><time>2026-04-18T09:59:30Z</time></trkpt><trkpt lat="44.304211013709036" lon="10.21709609100932"><ele>1251.75</ele><time>2026-04-18T09:59:31Z</time></trkpt><trkpt lat="44.304301178971535" lon="10.21701296331742"><ele>1250.5</ele><time>2026-04-18T09:59:32Z</time></trkpt><trkpt lat="44.304459675216435" lon="10.216976781317944"><ele>1249.25</ele><time>2026-04-18T09:59:33Z</time></trkpt><trkpt lat="44.30460260363633" lon="10.216975454768246"><ele>1248.0</ele><time>2026-04-18T09:59:34Z</time></trkpt><trkpt lat="44.30473371289246" lon="10.21704049933001"><ele>1246.6666666666667</ele><time>2026-04-18T09:59:35Z</time></trkpt><trkpt lat="44.30484990096287" lon="10.217205338203287"><ele>1245.3333333333335</ele><time>2026-04-18T09:59:36Z</time></trkpt><trkpt lat="44.305042951867556" lon="10.217431464449612"><ele>1244.0</ele><time>2026-04-18T09:59:37Z</time></trkpt><trkpt lat="44.30525338723613" lon="10.217674274587"><ele>1244.0</ele><time>2026-04-18T09:59:38Z</time></trkpt><trkpt lat="44.30542081637684" lon="10.21786738224031"><ele>1244.0</ele><time>2026-04-18T09:59:39Z</time></trkpt><trkpt lat="44.30556343324157" lon="10.218031872352109"><ele>1244.0</ele><time>2026-04-18T09:59:40Z</time></trkpt><trkpt lat="44.30566695800492" lon="10.218161365846072"><ele>1242.2</ele><time>2026-04-18T09:59:41Z</time></trkpt><trkpt lat="44.30572960334444" lon="10.21827676489793"><ele>1240.4</ele><time>2026-04-18T09:59:42Z</time></trkpt><trkpt lat="44.30574946703789" lon="10.21838807675691"><ele>1238.6</ele><time>2026-04-18T09:59:43Z</time></trkpt><trkpt lat="44.30573816688291" lon="10.218520882855671"><ele>1236.8</ele><time>2026-04-18T09:59:44Z</time></trkpt><trkpt lat="44.30567389752183" lon="10.218726502594446"><ele>1235.0</ele><time>2026-04-18T09:59:45Z</time></trkpt><trkpt lat="44.30560794447725" lon="10.218961670228484"><ele>1234.0</ele><time>2026-04-18T09:59:46Z</time></trkpt><trkpt lat="44.30558205310115" lon="10.219149370366514"><ele>1233.0</ele><time>2026-04-18T09:59:47Z</time></trkpt><trkpt lat="44.305586258709276" lon="10.219311114868184"><ele>1232.0</ele><time>2026-04-18T09:59:48Z</time></trkpt><trkpt lat="44.30564647484142" lon="10.219462160725769"><ele>1231.0</ele><time>2026-04-18T09:59:49Z</time></trkpt><trkpt lat="44.3057583437284" lon="10.219613141178561"><ele>1231.0</ele><time>2026-04-18T09:59:50Z</time></trkpt><trkpt lat="44.30593640476839" lon="10.219698091463128"><ele>1231.0</ele><time>2026-04-18T09:59:51Z</time></trkpt><trkpt lat="44.306154362592665" lon="10.21979579773531"><ele>1231.0</ele><time>2026-04-18T09:59:51.999Z</time></trkpt><trkpt lat="44.30641927043901" lon="10.219829880149971"><ele>1225.5</ele><time>2026-04-18T09:59:52.999Z</time></trkpt><trkpt lat="44.30670479996259" lon="10.219793095009255"><ele>1220.0</ele><time>2026-04-18T09:59:53.999Z</time></trkpt><trkpt lat="44.3069361037579" lon="10.219795436880073"><ele>1220.6666666666667</ele><time>2026-04-18T09:59:54.999Z</time></trkpt><trkpt lat="44.30710245353168" lon="10.219822278937002"><ele>1221.3333333333333</ele><time>2026-04-18T09:59:55.999Z</time></trkpt><trkpt lat="44.30725011916591" lon="10.219888091100316"><ele>1222.0</ele><time>2026-04-18T09:59:56.999Z</time></trkpt><trkpt lat="44.307423780695125" lon="10.22000706125668"><ele>1220.25</ele><time>2026-04-18T09:59:57.999Z</time></trkpt><trkpt lat="44.30755209491489" lon="10.220099494101696"><ele>1218.5</ele><time>2026-04-18T09:59:58.999Z</time></trkpt><trkpt lat="44.30760882654027" lon="10.22016946155812"><ele>1216.75</ele><time>2026-04-18T09:59:59.999Z</time></trkpt><trkpt lat="44.30764186698398" lon="10.220371773102768"><ele>1215.0</ele><time>2026-04-18T10:00:01.999Z</time></trkpt><trkpt lat="44.30761665091492" lon="10.220505332947122"><ele>1215.0</ele><time>2026-04-18T10:00:02.999Z</time></trkpt><trkpt lat="44.30755629314721" lon="10.220638839422508"><ele>1215.0</ele><time>2026-04-18T10:00:03.999Z</time></trkpt><trkpt lat="44.3073957315555" lon="10.220804217757252"><ele>1215.0</ele><time>2026-04-18T10:00:04.999Z</time></trkpt><trkpt lat="44.307210076639684" lon="10.220999218545355"><ele>1215.0</ele><time>2026-04-18T10:00:05.999Z</time></trkpt><trkpt lat="44.30707556322296" lon="10.22114317220376"><ele>1215.0</ele><time>2026-04-18T10:00:06.999Z</time></trkpt><trkpt lat="44.306963340391654" lon="10.221213828739288"><ele>1215.0</ele><time>2026-04-18T10:00:07.999Z</time></trkpt><trkpt lat="44.30685809142014" lon="10.221301161437168"><ele>1215.0</ele><time>2026-04-18T10:00:08.999Z</time></trkpt><trkpt lat="44.30670061982721" lon="10.221357734947807"><ele>1215.0</ele><time>2026-04-18T10:00:09.999Z</time></trkpt><trkpt lat="44.30647296574871" lon="10.221422443375602"><ele>1215.0</ele><time>2026-04-18T10:00:10.999Z</time></trkpt><trkpt lat="44.30624632989383" lon="10.221444889409794"><ele>1213.0</ele><time>2026-04-18T10:00:11.999Z</time></trkpt><trkpt lat="44.30606626943387" lon="10.221455036380888"><ele>1211.0</ele><time>2026-04-18T10:00:12.999Z</time></trkpt><trkpt lat="44.30594527294965" lon="10.221492267957174"><ele>1209.0</ele><time>2026-04-18T10:00:13.999Z</time></trkpt><trkpt lat="44.3058450460688" lon="10.2216017722577"><ele>1207.0</ele><time>2026-04-18T10:00:14.999Z</time></trkpt><trkpt lat="44.30575114704703" lon="10.221795625967639"><ele>1207.0</ele><time>2026-04-18T10:00:15.999Z</time></trkpt><trkpt lat="44.30568611353493" lon="10.2220722623766"><ele>1207.0</ele><time>2026-04-18T10:00:16.999Z</time></trkpt><trkpt lat="44.30562393261192" lon="10.222396046265501"><ele>1207.0</ele><time>2026-04-18T10:00:17.999Z</time></trkpt><trkpt lat="44.305474602908795" lon="10.222680542477486"><ele>1207.3333333333333</ele><time>2026-04-18T10:00:18.999Z</time></trkpt><trkpt lat="44.305335267392024" lon="10.222953242772595"><ele>1207.6666666666667</ele><time>2026-04-18T10:00:19.999Z</time></trkpt><trkpt lat="44.30523525553028" lon="10.223185848147216"><ele>1208.0</ele><time>2026-04-18T10:00:20.999Z</time></trkpt><trkpt lat="44.30511912714414" lon="10.22334988213195"><ele>1209.3333333333335</ele><time>2026-04-18T10:00:21.999Z</time></trkpt><trkpt lat="44.30497099212069" lon="10.223506142544407"><ele>1210.6666666666667</ele><time>2026-04-18T10:00:22.999Z</time></trkpt><trkpt lat="44.304815906783304" lon="10.223645077127511"><ele>1212.0</ele><time>2026-04-18T10:00:23.999Z</time></trkpt><trkpt lat="44.30470137729133" lon="10.223799745737104"><ele>1205.6666666666667</ele><time>2026-04-18T10:00:24.999Z</time></trkpt><trkpt lat="44.30460676741565" lon="10.224020777893706"><ele>1199.3333333333335</ele><time>2026-04-18T10:00:25.999Z</time></trkpt><trkpt lat="44.304542935817445" lon="10.224250440315826"><ele>1193.0</ele><time>2026-04-18T10:00:26.999Z</time></trkpt><trkpt lat="44.30449525381158" lon="10.224440150484183"><ele>1193.0</ele><time>2026-04-18T10:00:27.999Z</time></trkpt><trkpt lat="44.30449723422079" lon="10.224665153748926"><ele>1193.0</ele><time>2026-04-18T10:00:28.999Z</time></trkpt><trkpt lat="44.304546101890736" lon="10.224965531445012"><ele>1193.0</ele><time>2026-04-18T10:00:29.999Z</time></trkpt><trkpt lat="44.30457658693647" lon="10.22526871417783"><ele>1190.25</ele><time>2026-04-18T10:00:30.999Z</time></trkpt><trkpt lat="44.30461257310314" lon="10.225496559104228"><ele>1187.5</ele><time>2026-04-18T10:00:31.999Z</time></trkpt><trkpt lat="44.304626052320614" lon="10.225662505244248"><ele>1184.75</ele><time>2026-04-18T10:00:32.999Z</time></trkpt><trkpt lat="44.30466240473551" lon="10.22579437290097"><ele>1182.0</ele><time>2026-04-18T10:00:33.999Z</time></trkpt><trkpt lat="44.30474468026631" lon="10.225867565841865"><ele>1178.6666666666667</ele><time>2026-04-18T10:00:34.999Z</time></trkpt><trkpt lat="44.30486851802876" lon="10.225891028490707"><ele>1175.3333333333335</ele><time>2026-04-18T10:00:35.999Z</time></trkpt><trkpt lat="44.30501234050735" lon="10.225836050002748"><ele>1172.0</ele><time>2026-04-18T10:00:36.999Z</time></trkpt><trkpt lat="44.3051715872682" lon="10.225700892992567"><ele>1166.0</ele><time>2026-04-18T10:00:37.999Z</time></trkpt><trkpt lat="44.30535252550607" lon="10.225494566891136"><ele>1160.0</ele><time>2026-04-18T10:00:38.999Z</time></trkpt><trkpt lat="44.30558565872545" lon="10.22532305137516"><ele>1159.0</ele><time>2026-04-18T10:00:39.999Z</time></trkpt><trkpt lat="44.305816502567005" lon="10.22520055265863"><ele>1158.0</ele><time>2026-04-18T10:00:40.999Z</time></trkpt><trkpt lat="44.30603349068917" lon="10.225102363897413"><ele>1158.0</ele><time>2026-04-18T10:00:41.999Z</time></trkpt><trkpt lat="44.306255038246675" lon="10.225065108677475"><ele>1158.0</ele><time>2026-04-18T10:00:42.999Z</time></trkpt><trkpt lat="44.306504637326576" lon="10.225030882904328"><ele>1159.0</ele><time>2026-04-18T10:00:43.999Z</time></trkpt><trkpt lat="44.306792725689" lon="10.22498671336298"><ele>1160.0</ele><time>2026-04-18T10:00:44.999Z</time></trkpt><trkpt lat="44.307054909797685" lon="10.224876747464855"><ele>1155.3333333333335</ele><time>2026-04-18T10:00:45.999Z</time></trkpt><trkpt lat="44.30727580532251" lon="10.224801818269427"><ele>1150.6666666666667</ele><time>2026-04-18T10:00:46.999Z</time></trkpt><trkpt lat="44.30746910506422" lon="10.224751672517609"><ele>1146.0</ele><time>2026-04-18T10:00:47.999Z</time></trkpt><trkpt lat="44.307650525430695" lon="10.224701328963093"><ele>1146.0</ele><time>2026-04-18T10:00:48.999Z</time></trkpt><trkpt lat="44.307841089347306" lon="10.224674128186084"><ele>1146.0</ele><time>2026-04-18T10:00:49.999Z</time></trkpt><trkpt lat="44.308057708513054" lon="10.224672993595338"><ele>1146.0</ele><time>2026-04-18T10:00:50.999Z</time></trkpt><trkpt lat="44.30827247284076" lon="10.224702937174435"><ele>1149.5</ele><time>2026-04-18T10:00:51.999Z</time></trkpt><trkpt lat="44.30847482599412" lon="10.224767446240218"><ele>1153.0</ele><time>2026-04-18T10:00:52.999Z</time></trkpt><trkpt lat="44.308704816914364" lon="10.224880220133752"><ele>1145.5</ele><time>2026-04-18T10:00:53.999Z</time></trkpt><trkpt lat="44.30899650239687" lon="10.225040324153255"><ele>1138.0</ele><time>2026-04-18T10:00:54.999Z</time></trkpt><trkpt lat="44.30929177569258" lon="10.225200878318663"><ele>1138.0</ele><time>2026-04-18T10:00:55.999Z</time></trkpt><trkpt lat="44.30952385053606" lon="10.225326936541128"><ele>1138.0</ele><time>2026-04-18T10:00:56.999Z</time></trkpt><trkpt lat="44.30970580371408" lon="10.225429891895224"><ele>1138.0</ele><time>2026-04-18T10:00:57.999Z</time></trkpt><trkpt lat="44.30987535617389" lon="10.22555298619442"><ele>1137.0</ele><time>2026-04-18T10:00:58.999Z</time></trkpt><trkpt lat="44.31003303270931" lon="10.22572088061892"><ele>1136.0</ele><time>2026-04-18T10:00:59.999Z</time></trkpt><trkpt lat="44.31019649999113" lon="10.225937222904564"><ele>1135.0</ele><time>2026-04-18T10:01:00.999Z</time></trkpt><trkpt lat="44.31039560267747" lon="10.22623260743515"><ele>1129.0</ele><time>2026-04-18T10:01:01.999Z</time></trkpt><trkpt lat="44.310616272725454" lon="10.226553143126363"><ele>1123.0</ele><time>2026-04-18T10:01:02.999Z</time></trkpt><trkpt lat="44.310812446084874" lon="10.22680901556572"><ele>1123.0</ele><time>2026-04-18T10:01:03.999Z</time></trkpt><trkpt lat="44.310960353755384" lon="10.227057417273134"><ele>1123.0</ele><time>2026-04-18T10:01:04.999Z</time></trkpt><trkpt lat="44.311112352613044" lon="10.227264610455318"><ele>1123.0</ele><time>2026-04-18T10:01:05.999Z</time></trkpt><trkpt lat="44.3112766825115" lon="10.227419374483121"><ele>1120.0</ele><time>2026-04-18T10:01:06.999Z</time></trkpt><trkpt lat="44.31142564032434" lon="10.22757144830376"><ele>1117.0</ele><time>2026-04-18T10:01:07.999Z</time></trkpt><trkpt lat="44.31152632510407" lon="10.227722917049693"><ele>1114.0</ele><time>2026-04-18T10:01:08.999Z</time></trkpt><trkpt lat="44.31160527425057" lon="10.227900478898066"><ele>1114.0</ele><time>2026-04-18T10:01:09.999Z</time></trkpt><trkpt lat="44.31167210063009" lon="10.228128214435015"><ele>1114.0</ele><time>2026-04-18T10:01:10.999Z</time></trkpt><trkpt lat="44.31170607779896" lon="10.228334357185638"><ele>1114.0</ele><time>2026-04-18T10:01:11.999Z</time></trkpt><trkpt lat="44.31173343590576" lon="10.22849368579292"><ele>1114.0</ele><time>2026-04-18T10:01:12.999Z</time></trkpt><trkpt lat="44.31173240540174" lon="10.228645595081154"><ele>1114.0</ele><time>2026-04-18T10:01:13.999Z</time></trkpt><trkpt lat="44.311663003453994" lon="10.22884304163007"><ele>1114.0</ele><time>2026-04-18T10:01:14.999Z</time></trkpt><trkpt lat="44.311520881651134" lon="10.229073325520288"><ele>1114.0</ele><time>2026-04-18T10:01:15.999Z</time></trkpt><trkpt lat="44.3114210479808" lon="10.229262311381532"><ele>1116.0</ele><time>2026-04-18T10:01:16.999Z</time></trkpt><trkpt lat="44.31132244626047" lon="10.229386649370678"><ele>1118.0</ele><time>2026-04-18T10:01:17.999Z</time></trkpt><trkpt lat="44.3112044506897" lon="10.229469410634142"><ele>1120.0</ele><time>2026-04-18T10:01:18.999Z</time></trkpt><trkpt lat="44.31105622091397" lon="10.229509575153314"><ele>1122.0</ele><time>2026-04-18T10:01:19.999Z</time></trkpt><trkpt lat="44.31088899226491" lon="10.229604430177691"><ele>1122.0</ele><time>2026-04-18T10:01:20.999Z</time></trkpt><trkpt lat="44.3107153420087" lon="10.229801919798309"><ele>1122.0</ele><time>2026-04-18T10:01:21.999Z</time></trkpt><trkpt lat="44.31057463452109" lon="10.229971087787941"><ele>1122.0</ele><time>2026-04-18T10:01:22.999Z</time></trkpt><trkpt lat="44.31046389014259" lon="10.230085875373858"><ele>1121.6</ele><time>2026-04-18T10:01:23.999Z</time></trkpt><trkpt lat="44.310396675269445" lon="10.230183942501169"><ele>1121.2</ele><time>2026-04-18T10:01:24.999Z</time></trkpt><trkpt lat="44.310372887689674" lon="10.230277911593998"><ele>1120.8</ele><time>2026-04-18T10:01:25.999Z</time></trkpt><trkpt lat="44.31041056969121" lon="10.230395907300668"><ele>1120.4</ele><time>2026-04-18T10:01:26.999Z</time></trkpt><trkpt lat="44.31049309127344" lon="10.230480067727447"><ele>1120.0</ele><time>2026-04-18T10:01:27.999Z</time></trkpt><trkpt lat="44.310615178132146" lon="10.230526544165405"><ele>1115.75</ele><time>2026-04-18T10:01:28.999Z</time></trkpt><trkpt lat="44.3107843321005" lon="10.230559676467637"><ele>1111.5</ele><time>2026-04-18T10:01:29.999Z</time></trkpt><trkpt lat="44.31090304056752" lon="10.230613433340476"><ele>1107.25</ele><time>2026-04-18T10:01:30.999Z</time></trkpt><trkpt lat="44.310996316015284" lon="10.23072829734462"><ele>1103.0</ele><time>2026-04-18T10:01:31.999Z</time></trkpt><trkpt lat="44.31108839373891" lon="10.230932570164205"><ele>1103.0</ele><time>2026-04-18T10:01:32.999Z</time></trkpt><trkpt lat="44.311212340325284" lon="10.231185800780036"><ele>1103.0</ele><time>2026-04-18T10:01:33.999Z</time></trkpt><trkpt lat="44.3113781385656" lon="10.231395709922873"><ele>1103.0</ele><time>2026-04-18T10:01:34.999Z</time></trkpt><trkpt lat="44.311531673263154" lon="10.231510068514112"><ele>1099.3333333333335</ele><time>2026-04-18T10:01:35.999Z</time></trkpt><trkpt lat="44.31169748913912" lon="10.231564489270976"><ele>1095.6666666666667</ele><time>2026-04-18T10:01:36.999Z</time></trkpt><trkpt lat="44.311881940179376" lon="10.231586833706318"><ele>1092.0</ele><time>2026-04-18T10:01:37.999Z</time></trkpt><trkpt lat="44.312036843492315" lon="10.231623685849426"><ele>1092.0</ele><time>2026-04-18T10:01:38.999Z</time></trkpt><trkpt lat="44.31214872008564" lon="10.231725521673377"><ele>1092.0</ele><time>2026-04-18T10:01:39.999Z</time></trkpt><trkpt lat="44.312256424111716" lon="10.231904119810489"><ele>1092.0</ele><time>2026-04-18T10:01:40.999Z</time></trkpt><trkpt lat="44.31237074383074" lon="10.232136589940312"><ele>1089.0</ele><time>2026-04-18T10:01:41.999Z</time></trkpt><trkpt lat="44.31249599521402" lon="10.232374735645946"><ele>1086.0</ele><time>2026-04-18T10:01:42.999Z</time></trkpt><trkpt lat="44.31260897409043" lon="10.232580531529058"><ele>1083.0</ele><time>2026-04-18T10:01:43.999Z</time></trkpt><trkpt lat="44.312711846292856" lon="10.232755617818155"><ele>1083.0</ele><time>2026-04-18T10:01:44.999Z</time></trkpt><trkpt lat="44.31281949130349" lon="10.23289786266984"><ele>1083.0</ele><time>2026-04-18T10:01:45.999Z</time></trkpt><trkpt lat="44.312937551459065" lon="10.233038410145829"><ele>1083.0</ele><time>2026-04-18T10:01:46.999Z</time></trkpt><trkpt lat="44.31303484475418" lon="10.233193917843169"><ele>1078.4</ele><time>2026-04-18T10:01:47.999Z</time></trkpt><trkpt lat="44.31311968427998" lon="10.233348436647615"><ele>1073.8</ele><time>2026-04-18T10:01:48.999Z</time></trkpt><trkpt lat="44.31317941204945" lon="10.233474338060363"><ele>1069.2</ele><time>2026-04-18T10:01:49.999Z</time></trkpt><trkpt lat="44.313202669680116" lon="10.233564218653335"><ele>1064.6</ele><time>2026-04-18T10:01:50.999Z</time></trkpt><trkpt lat="44.313158379232405" lon="10.233676468888207"><ele>1060.0</ele><time>2026-04-18T10:01:51.999Z</time></trkpt><trkpt lat="44.31310313987819" lon="10.233781680554104"><ele>1065.8333333333333</ele><time>2026-04-18T10:01:52.999Z</time></trkpt><trkpt lat="44.31303537666529" lon="10.233847005967316"><ele>1071.6666666666665</ele><time>2026-04-18T10:01:53.999Z</time></trkpt><trkpt lat="44.31294969109406" lon="10.233906994929978"><ele>1077.5</ele><time>2026-04-18T10:01:54.999Z</time></trkpt><trkpt lat="44.31287460001439" lon="10.233963771767813"><ele>1083.3333333333333</ele><time>2026-04-18T10:01:55.999Z</time></trkpt><trkpt lat="44.31284493179309" lon="10.234062986188517"><ele>1089.1666666666667</ele><time>2026-04-18T10:01:56.999Z</time></trkpt><trkpt lat="44.312856042246196" lon="10.23417040391105"><ele>1095.0</ele><time>2026-04-18T10:01:57.999Z</time></trkpt><trkpt lat="44.31290013687391" lon="10.234246046855601"><ele>1095.2</ele><time>2026-04-18T10:01:58.999Z</time></trkpt><trkpt lat="44.3129836828373" lon="10.234311598206531"><ele>1095.4</ele><time>2026-04-18T10:01:59.999Z</time></trkpt><trkpt lat="44.31309932333711" lon="10.234359192874239"><ele>1095.6</ele><time>2026-04-18T10:02:00.999Z</time></trkpt><trkpt lat="44.31321541827321" lon="10.234411707080033"><ele>1095.8</ele><time>2026-04-18T10:02:01.999Z</time></trkpt><trkpt lat="44.31330835263355" lon="10.234471822365375"><ele>1096.0</ele><time>2026-04-18T10:02:02.999Z</time></trkpt><trkpt lat="44.313385767326764" lon="10.234561852759153"><ele>1089.0</ele><time>2026-04-18T10:02:03.999Z</time></trkpt><trkpt lat="44.313455478328144" lon="10.234699093826926"><ele>1082.0</ele><time>2026-04-18T10:02:04.999Z</time></trkpt><trkpt lat="44.313513402299066" lon="10.234852114951533"><ele>1075.0</ele><time>2026-04-18T10:02:05.999Z</time></trkpt><trkpt lat="44.313576736766564" lon="10.23500344775042"><ele>1068.0</ele><time>2026-04-18T10:02:06.999Z</time></trkpt><trkpt lat="44.3136393578188" lon="10.2351702267539"><ele>1068.0</ele><time>2026-04-18T10:02:07.999Z</time></trkpt><trkpt lat="44.31368877281805" lon="10.23535296404433"><ele>1068.0</ele><time>2026-04-18T10:02:08.999Z</time></trkpt><trkpt lat="44.313720689532744" lon="10.235537538441621"><ele>1068.0</ele><time>2026-04-18T10:02:09.999Z</time></trkpt><trkpt lat="44.31375918939203" lon="10.235703779167466"><ele>1068.0</ele><time>2026-04-18T10:02:10.999Z</time></trkpt><trkpt lat="44.31384456873862" lon="10.235840357692425"><ele>1060.75</ele><time>2026-04-18T10:02:11.999Z</time></trkpt><trkpt lat="44.31395143530881" lon="10.23595804653353"><ele>1053.5</ele><time>2026-04-18T10:02:12.999Z</time></trkpt><trkpt lat="44.314037118030875" lon="10.236062626763268"><ele>1046.25</ele><time>2026-04-18T10:02:13.999Z</time></trkpt><trkpt lat="44.31411405558998" lon="10.236165148430619"><ele>1039.0</ele><time>2026-04-18T10:02:14.999Z</time></trkpt><trkpt lat="44.31418876275499" lon="10.23625791715348"><ele>1039.0</ele><time>2026-04-18T10:02:15.999Z</time></trkpt><trkpt lat="44.31425760047291" lon="10.236357087371633"><ele>1039.0</ele><time>2026-04-18T10:02:16.999Z</time></trkpt><trkpt lat="44.314297980056814" lon="10.236494158077132"><ele>1039.0</ele><time>2026-04-18T10:02:17.999Z</time></trkpt><trkpt lat="44.314305117670116" lon="10.23662912142242"><ele>1039.0</ele><time>2026-04-18T10:02:18.999Z</time></trkpt><trkpt lat="44.31429467398989" lon="10.236746145352495"><ele>1039.0</ele><time>2026-04-18T10:02:19.999Z</time></trkpt><trkpt lat="44.31428392293291" lon="10.236854914148815"><ele>1039.0</ele><time>2026-04-18T10:02:20.999Z</time></trkpt><trkpt lat="44.314298695865" lon="10.236946241353008"><ele>1039.0</ele><time>2026-04-18T10:02:21.999Z</time></trkpt><trkpt lat="44.31439883318167" lon="10.236977727902643"><ele>1039.0</ele><time>2026-04-18T10:02:23.999Z</time></trkpt><trkpt lat="44.31446480611113" lon="10.236806253990405"><ele>1039.0</ele><time>2026-04-18T10:02:25.999Z</time></trkpt><trkpt lat="44.31445409711735" lon="10.236613743424899"><ele>1039.0</ele><time>2026-04-18T10:02:26.999Z</time></trkpt><trkpt lat="44.31443898038008" lon="10.236371793768392"><ele>1039.0</ele><time>2026-04-18T10:02:27.999Z</time></trkpt><trkpt lat="44.31441954113391" lon="10.236136243939498"><ele>1039.0</ele><time>2026-04-18T10:02:28.999Z</time></trkpt><trkpt lat="44.3143650706193" lon="10.235869686635956"><ele>1039.0</ele><time>2026-04-18T10:02:29.999Z</time></trkpt><trkpt lat="44.314270158515946" lon="10.235588418762383"><ele>1036.6000000000001</ele><time>2026-04-18T10:02:30.999Z</time></trkpt><trkpt lat="44.31419665374062" lon="10.23535596364187"><ele>1034.2</ele><time>2026-04-18T10:02:31.999Z</time></trkpt><trkpt lat="44.314161405974076" lon="10.235212927918896"><ele>1031.8000000000002</ele><time>2026-04-18T10:02:32.999Z</time></trkpt><trkpt lat="44.314131683417834" lon="10.235115041422697"><ele>1029.4</ele><time>2026-04-18T10:02:33.999Z</time></trkpt><trkpt lat="44.314123697664" lon="10.23501318029586"><ele>1027.0</ele><time>2026-04-18T10:02:34.999Z</time></trkpt><trkpt lat="44.31416857293443" lon="10.234874837375843"><ele>1027.0</ele><time>2026-04-18T10:02:36.999Z</time></trkpt><trkpt lat="44.314312873928024" lon="10.234976885357012"><ele>1027.0</ele><time>2026-04-18T10:02:38.999Z</time></trkpt><trkpt lat="44.31444891286711" lon="10.235186223322502"><ele>1027.0</ele><time>2026-04-18T10:02:39.999Z</time></trkpt><trkpt lat="44.31462738975718" lon="10.235448689426972"><ele>1017.5</ele><time>2026-04-18T10:02:40.999Z</time></trkpt><trkpt lat="44.31482805851903" lon="10.235737966415545"><ele>1008.0</ele><time>2026-04-18T10:02:41.999Z</time></trkpt><trkpt lat="44.31504616505435" lon="10.236065183657699"><ele>1008.0</ele><time>2026-04-18T10:02:42.999Z</time></trkpt><trkpt lat="44.315183120602924" lon="10.236345131375556"><ele>1008.0</ele><time>2026-04-18T10:02:43.999Z</time></trkpt><trkpt lat="44.315313847980924" lon="10.236598045744724"><ele>1013.0</ele><time>2026-04-18T10:02:44.999Z</time></trkpt><trkpt lat="44.31540626911009" lon="10.236854237348256"><ele>1018.0</ele><time>2026-04-18T10:02:45.999Z</time></trkpt><trkpt lat="44.31551913342825" lon="10.237085881693382"><ele>1023.0</ele><time>2026-04-18T10:02:46.999Z</time></trkpt><trkpt lat="44.31565344183313" lon="10.237254652832734"><ele>1017.3333333333333</ele><time>2026-04-18T10:02:47.999Z</time></trkpt><trkpt lat="44.31581251754373" lon="10.237402377188854"><ele>1011.6666666666666</ele><time>2026-04-18T10:02:48.999Z</time></trkpt><trkpt lat="44.315945478475165" lon="10.237525904035717"><ele>1006.0</ele><time>2026-04-18T10:02:49.999Z</time></trkpt><trkpt lat="44.31605109464225" lon="10.237667201333288"><ele>1006.0</ele><time>2026-04-18T10:02:50.999Z</time></trkpt><trkpt lat="44.31614798472212" lon="10.23784197069608"><ele>1006.0</ele><time>2026-04-18T10:02:51.999Z</time></trkpt><trkpt lat="44.31624189301061" lon="10.238034306143117"><ele>1006.0</ele><time>2026-04-18T10:02:52.999Z</time></trkpt><trkpt lat="44.316322182632746" lon="10.23821386077146"><ele>1008.6666666666666</ele><time>2026-04-18T10:02:53.999Z</time></trkpt><trkpt lat="44.31636417047557" lon="10.238364148097507"><ele>1011.3333333333333</ele><time>2026-04-18T10:02:54.999Z</time></trkpt><trkpt lat="44.316375536670655" lon="10.238462546818159"><ele>1014.0</ele><time>2026-04-18T10:02:55.999Z</time></trkpt><trkpt lat="44.31647702760318" lon="10.238518806719785"><ele>1016.6666666666667</ele><time>2026-04-18T10:02:57.999Z</time></trkpt><trkpt lat="44.31652177639965" lon="10.238452960530733"><ele>1019.3333333333334</ele><time>2026-04-18T10:02:58.999Z</time></trkpt><trkpt lat="44.31651053891357" lon="10.238345998014163"><ele>1022.0</ele><time>2026-04-18T10:02:59.999Z</time></trkpt><trkpt lat="44.316444974684174" lon="10.238214222133339"><ele>1016.6666666666667</ele><time>2026-04-18T10:03:00.999Z</time></trkpt><trkpt lat="44.316347025218164" lon="10.238031193759738"><ele>1011.3333333333333</ele><time>2026-04-18T10:03:01.999Z</time></trkpt><trkpt lat="44.31627936021557" lon="10.237833790051711"><ele>1006.0</ele><time>2026-04-18T10:03:02.999Z</time></trkpt><trkpt lat="44.316212335487116" lon="10.237551817882155"><ele>1000.3333333333333</ele><time>2026-04-18T10:03:04Z</time></trkpt><trkpt lat="44.31615282109377" lon="10.237254605571385"><ele>994.6666666666667</ele><time>2026-04-18T10:03:05Z</time></trkpt><trkpt lat="44.3160819068739" lon="10.237005442959662"><ele>989.0</ele><time>2026-04-18T10:03:06Z</time></trkpt><trkpt lat="44.31601277109284" lon="10.236803534006425"><ele>989.0</ele><time>2026-04-18T10:03:07Z</time></trkpt><trkpt lat="44.315926849851515" lon="10.236594834273577"><ele>989.0</ele><time>2026-04-18T10:03:08Z</time></trkpt><trkpt lat="44.31583738159732" lon="10.23637693738029"><ele>989.0</ele><time>2026-04-18T10:03:09Z</time></trkpt><trkpt lat="44.31573704502408" lon="10.236192009979145"><ele>985.6</ele><time>2026-04-18T10:03:10Z</time></trkpt><trkpt lat="44.31566022002218" lon="10.236077177620347"><ele>982.2</ele><time>2026-04-18T10:03:11Z</time></trkpt><trkpt lat="44.31559086139087" lon="10.236013332452066"><ele>978.8000000000001</ele><time>2026-04-18T10:03:12Z</time></trkpt><trkpt lat="44.315551777499266" lon="10.235931517931405"><ele>975.4000000000001</ele><time>2026-04-18T10:03:13Z</time></trkpt><trkpt lat="44.31558785133999" lon="10.23583279936007"><ele>972.0</ele><time>2026-04-18T10:03:15Z</time></trkpt><trkpt lat="44.31570495871039" lon="10.235900841142628"><ele>972.0</ele><time>2026-04-18T10:03:17Z</time></trkpt><trkpt lat="44.31577752023705" lon="10.236085568295929"><ele>972.0</ele><time>2026-04-18T10:03:18Z</time></trkpt><trkpt lat="44.31589164694737" lon="10.236297976270503"><ele>972.0</ele><time>2026-04-18T10:03:19Z</time></trkpt><trkpt lat="44.31602401655465" lon="10.23644529337586"><ele>969.3333333333333</ele><time>2026-04-18T10:03:20Z</time></trkpt><trkpt lat="44.316150001999176" lon="10.236584845179427"><ele>966.6666666666666</ele><time>2026-04-18T10:03:21Z</time></trkpt><trkpt lat="44.31626868813511" lon="10.236669106716787"><ele>964.0</ele><time>2026-04-18T10:03:22Z</time></trkpt><trkpt lat="44.316424032132275" lon="10.236713470271068"><ele>964.0</ele><time>2026-04-18T10:03:23Z</time></trkpt><trkpt lat="44.31660315685681" lon="10.23672342598953"><ele>964.0</ele><time>2026-04-18T10:03:24Z</time></trkpt><trkpt lat="44.31678369840502" lon="10.236718690069173"><ele>964.0</ele><time>2026-04-18T10:03:25Z</time></trkpt><trkpt lat="44.31692695540202" lon="10.236682526854933"><ele>964.0</ele><time>2026-04-18T10:03:26Z</time></trkpt><trkpt lat="44.3170223210157" lon="10.236691041932097"><ele>964.0</ele><time>2026-04-18T10:03:27Z</time></trkpt><trkpt lat="44.31712751758453" lon="10.236805591137996"><ele>964.0</ele><time>2026-04-18T10:03:28Z</time></trkpt><trkpt lat="44.31722369444715" lon="10.23694100280817"><ele>964.0</ele><time>2026-04-18T10:03:29Z</time></trkpt><trkpt lat="44.31729810428568" lon="10.23712222553303"><ele>959.3333333333333</ele><time>2026-04-18T10:03:30Z</time></trkpt><trkpt lat="44.31736216790585" lon="10.237375017408835"><ele>954.6666666666667</ele><time>2026-04-18T10:03:31Z</time></trkpt><trkpt lat="44.31741196929199" lon="10.237643765570288"><ele>950.0</ele><time>2026-04-18T10:03:32Z</time></trkpt><trkpt lat="44.31745975867032" lon="10.237874932145104"><ele>950.0</ele><time>2026-04-18T10:03:33Z</time></trkpt><trkpt lat="44.31751299995041" lon="10.238052247475242"><ele>950.0</ele><time>2026-04-18T10:03:34Z</time></trkpt><trkpt lat="44.31761988182156" lon="10.238202045612367"><ele>950.0</ele><time>2026-04-18T10:03:35Z</time></trkpt><trkpt lat="44.31774144685996" lon="10.238295317931575"><ele>950.0</ele><time>2026-04-18T10:03:36Z</time></trkpt><trkpt lat="44.31786609076753" lon="10.238384958454574"><ele>949.25</ele><time>2026-04-18T10:03:37Z</time></trkpt><trkpt lat="44.31795870494236" lon="10.238427345607796"><ele>948.5</ele><time>2026-04-18T10:03:38Z</time></trkpt><trkpt lat="44.31807137918613" lon="10.238335169210307"><ele>947.75</ele><time>2026-04-18T10:03:39Z</time></trkpt><trkpt lat="44.31818919977806" lon="10.238224640110275"><ele>947.0</ele><time>2026-04-18T10:03:40Z</time></trkpt><trkpt lat="44.31829501695848" lon="10.238108333261584"><ele>947.0</ele><time>2026-04-18T10:03:41Z</time></trkpt><trkpt lat="44.31839462114056" lon="10.238042318857497"><ele>947.0</ele><time>2026-04-18T10:03:42Z</time></trkpt><trkpt lat="44.31850020561012" lon="10.238086284111665"><ele>947.0</ele><time>2026-04-18T10:03:43Z</time></trkpt><trkpt lat="44.318679246638645" lon="10.238104718518652"><ele>947.0</ele><time>2026-04-18T10:03:44Z</time></trkpt><trkpt lat="44.31893528247166" lon="10.238145578346575"><ele>943.6666666666667</ele><time>2026-04-18T10:03:45Z</time></trkpt><trkpt lat="44.319130389730454" lon="10.238190299002756"><ele>940.3333333333333</ele><time>2026-04-18T10:03:46Z</time></trkpt><trkpt lat="44.319294352395374" lon="10.238275420771446"><ele>937.0</ele><time>2026-04-18T10:03:47Z</time></trkpt><trkpt lat="44.319497722174816" lon="10.238387810267017"><ele>937.0</ele><time>2026-04-18T10:03:48Z</time></trkpt><trkpt lat="44.319716164950314" lon="10.238484576915262"><ele>937.0</ele><time>2026-04-18T10:03:49Z</time></trkpt><trkpt lat="44.319892571927255" lon="10.238580100436963"><ele>937.0</ele><time>2026-04-18T10:03:50Z</time></trkpt><trkpt lat="44.32004016389285" lon="10.238692235146402"><ele>938.6666666666666</ele><time>2026-04-18T10:03:51Z</time></trkpt><trkpt lat="44.32021635443453" lon="10.238860470908973"><ele>940.3333333333333</ele><time>2026-04-18T10:03:52Z</time></trkpt><trkpt lat="44.320354239583956" lon="10.23906515261178"><ele>942.0</ele><time>2026-04-18T10:03:53Z</time></trkpt><trkpt lat="44.320458961491724" lon="10.23920995392309"><ele>940.6666666666667</ele><time>2026-04-18T10:03:54Z</time></trkpt><trkpt lat="44.32058079696841" lon="10.239331893008268"><ele>939.3333333333334</ele><time>2026-04-18T10:03:55Z</time></trkpt><trkpt lat="44.320764364266566" lon="10.239446201027004"><ele>938.0</ele><time>2026-04-18T10:03:56Z</time></trkpt><trkpt lat="44.32095639840013" lon="10.239545033165761"><ele>938.0</ele><time>2026-04-18T10:03:57Z</time></trkpt><trkpt lat="44.321159612716556" lon="10.239622437343657"><ele>938.0</ele><time>2026-04-18T10:03:58Z</time></trkpt><trkpt lat="44.321368170004824" lon="10.239667360786404"><ele>938.0</ele><time>2026-04-18T10:03:59Z</time></trkpt><trkpt lat="44.321537254263355" lon="10.23969981742342"><ele>938.0</ele><time>2026-04-18T10:04:00Z</time></trkpt><trkpt lat="44.321660556878676" lon="10.239716136202162"><ele>938.0</ele><time>2026-04-18T10:04:01Z</time></trkpt><trkpt lat="44.32176454454727" lon="10.23969051469188"><ele>938.0</ele><time>2026-04-18T10:04:02Z</time></trkpt><trkpt lat="44.32184737445828" lon="10.239594223926222"><ele>938.0</ele><time>2026-04-18T10:04:03Z</time></trkpt><trkpt lat="44.32191434841121" lon="10.239468180637763"><ele>938.0</ele><time>2026-04-18T10:04:03.999Z</time></trkpt><trkpt lat="44.321983017740585" lon="10.239433272174082"><ele>938.0</ele><time>2026-04-18T10:04:04.999Z</time></trkpt><trkpt lat="44.32205140847712" lon="10.239476474535207"><ele>938.0</ele><time>2026-04-18T10:04:05.999Z</time></trkpt><trkpt lat="44.32210392797398" lon="10.239599794106741"><ele>938.0</ele><time>2026-04-18T10:04:06.999Z</time></trkpt><trkpt lat="44.322181677757094" lon="10.239786161636042"><ele>938.0</ele><time>2026-04-18T10:04:07.999Z</time></trkpt><trkpt lat="44.32225082910107" lon="10.23991170197786"><ele>938.0</ele><time>2026-04-18T10:04:08.999Z</time></trkpt><trkpt lat="44.32237932381868" lon="10.23993599970987"><ele>933.0</ele><time>2026-04-18T10:04:09.999Z</time></trkpt><trkpt lat="44.32251302352184" lon="10.239943238185997"><ele>928.0</ele><time>2026-04-18T10:04:10.999Z</time></trkpt><trkpt lat="44.32261823982432" lon="10.24001783702088"><ele>923.0</ele><time>2026-04-18T10:04:11.999Z</time></trkpt><trkpt lat="44.32270364519026" lon="10.240166764919154"><ele>918.0</ele><time>2026-04-18T10:04:12.999Z</time></trkpt><trkpt lat="44.32283324432312" lon="10.240217806499052"><ele>910.5</ele><time>2026-04-18T10:04:13.999Z</time></trkpt><trkpt lat="44.32288669445354" lon="10.240738002721844"><ele>903.0</ele><time>2026-04-18T10:04:14.999Z</time></trkpt><trkpt lat="44.32306470181736" lon="10.240482660515118"><ele>911.0</ele><time>2026-04-18T10:04:15.999Z</time></trkpt><trkpt lat="44.3231363784548" lon="10.241416898018473"><ele>907.0</ele><time>2026-04-18T10:04:16.999Z</time></trkpt><trkpt lat="44.32323403449003" lon="10.241731348134175"><ele>903.0</ele><time>2026-04-18T10:04:17.999Z</time></trkpt><trkpt lat="44.3233175331837" lon="10.241953138834694"><ele>899.0</ele><time>2026-04-18T10:04:18.999Z</time></trkpt><trkpt lat="44.323441171988584" lon="10.242181072019738"><ele>895.0</ele><time>2026-04-18T10:04:19.999Z</time></trkpt><trkpt lat="44.32361990948525" lon="10.242397618411013"><ele>891.0</ele><time>2026-04-18T10:04:20.999Z</time></trkpt><trkpt lat="44.32382590101307" lon="10.24267588857924"><ele>893.5</ele><time>2026-04-18T10:04:21.999Z</time></trkpt><trkpt lat="44.32400898645884" lon="10.242986128499957"><ele>896.0</ele><time>2026-04-18T10:04:22.999Z</time></trkpt><trkpt lat="44.32415834264917" lon="10.243263930860905"><ele>896.0</ele><time>2026-04-18T10:04:23.999Z</time></trkpt><trkpt lat="44.32431695908923" lon="10.243563824318985"><ele>896.0</ele><time>2026-04-18T10:04:24.999Z</time></trkpt><trkpt lat="44.32444838267197" lon="10.243812391533817"><ele>891.6666666666667</ele><time>2026-04-18T10:04:25.999Z</time></trkpt><trkpt lat="44.324533726484404" lon="10.244037974695676"><ele>887.3333333333333</ele><time>2026-04-18T10:04:26.999Z</time></trkpt><trkpt lat="44.324602920678224" lon="10.244370007147612"><ele>883.0</ele><time>2026-04-18T10:04:27.999Z</time></trkpt><trkpt lat="44.32466554624458" lon="10.244724902000414"><ele>895.0</ele><time>2026-04-18T10:04:28.999Z</time></trkpt><trkpt lat="44.32473026662803" lon="10.24517628955618"><ele>907.0</ele><time>2026-04-18T10:04:29.999Z</time></trkpt><trkpt lat="44.32478840255817" lon="10.245584756493974"><ele>902.0</ele><time>2026-04-18T10:04:30.999Z</time></trkpt><trkpt lat="44.32485391144876" lon="10.24594242255409"><ele>897.0</ele><time>2026-04-18T10:04:31.999Z</time></trkpt><trkpt lat="44.324902002181354" lon="10.246198153467459"><ele>897.0</ele><time>2026-04-18T10:04:32.999Z</time></trkpt><trkpt lat="44.324937500112384" lon="10.246422740895172"><ele>897.0</ele><time>2026-04-18T10:04:33.999Z</time></trkpt><trkpt lat="44.32496993667435" lon="10.246544482660099"><ele>897.0</ele><time>2026-04-18T10:04:34.999Z</time></trkpt><trkpt lat="44.32504733163193" lon="10.24669719305749"><ele>897.0</ele><time>2026-04-18T10:04:35.999Z</time></trkpt><trkpt lat="44.32516616045148" lon="10.246819775781278"><ele>894.5</ele><time>2026-04-18T10:04:36.999Z</time></trkpt><trkpt lat="44.32533976683611" lon="10.24695167306155"><ele>892.0</ele><time>2026-04-18T10:04:37.999Z</time></trkpt><trkpt lat="44.32560044517846" lon="10.247161623305887"><ele>892.6666666666666</ele><time>2026-04-18T10:04:38.999Z</time></trkpt><trkpt lat="44.325755929237936" lon="10.247354868577418"><ele>893.3333333333333</ele><time>2026-04-18T10:04:39.999Z</time></trkpt><trkpt lat="44.32585940291403" lon="10.247504329450898"><ele>894.0</ele><time>2026-04-18T10:04:40.999Z</time></trkpt><trkpt lat="44.32588089550697" lon="10.24769542945351"><ele>894.0</ele><time>2026-04-18T10:04:41.999Z</time></trkpt><trkpt lat="44.32594908183573" lon="10.248031087662467"><ele>894.0</ele><time>2026-04-18T10:04:42.999Z</time></trkpt><trkpt lat="44.32603701389981" lon="10.248353293609709"><ele>892.3333333333333</ele><time>2026-04-18T10:04:43.999Z</time></trkpt><trkpt lat="44.326075909611056" lon="10.248614985310706"><ele>890.6666666666666</ele><time>2026-04-18T10:04:44.999Z</time></trkpt><trkpt lat="44.32613095576283" lon="10.248792832268013"><ele>889.0</ele><time>2026-04-18T10:04:45.999Z</time></trkpt><trkpt lat="44.326244545099264" lon="10.248971700409907"><ele>885.3333333333333</ele><time>2026-04-18T10:04:46.999Z</time></trkpt><trkpt lat="44.326392414733796" lon="10.24919378467449"><ele>881.6666666666667</ele><time>2026-04-18T10:04:47.999Z</time></trkpt><trkpt lat="44.32650073735033" lon="10.24944245004479"><ele>878.0</ele><time>2026-04-18T10:04:48.999Z</time></trkpt><trkpt lat="44.32655187557787" lon="10.249658257760835"><ele>878.5</ele><time>2026-04-18T10:04:49.999Z</time></trkpt><trkpt lat="44.326474951841995" lon="10.24984609869261"><ele>879.0</ele><time>2026-04-18T10:04:51.999Z</time></trkpt><trkpt lat="44.32637060144367" lon="10.249928121699135"><ele>879.5</ele><time>2026-04-18T10:04:52.999Z</time></trkpt><trkpt lat="44.3262845683395" lon="10.250044871185958"><ele>880.0</ele><time>2026-04-18T10:04:53.999Z</time></trkpt><trkpt lat="44.32625169809026" lon="10.250175966218517"><ele>880.0</ele><time>2026-04-18T10:04:54.999Z</time></trkpt><trkpt lat="44.326322734274555" lon="10.250356322353861"><ele>880.0</ele><time>2026-04-18T10:04:56Z</time></trkpt><trkpt lat="44.326401960000766" lon="10.250531015186333"><ele>880.0</ele><time>2026-04-18T10:04:57Z</time></trkpt><trkpt lat="44.32651124464988" lon="10.25080005175512"><ele>897.0</ele><time>2026-04-18T10:04:58Z</time></trkpt><trkpt lat="44.32664251391933" lon="10.251144181631236"><ele>914.0</ele><time>2026-04-18T10:04:59Z</time></trkpt><trkpt lat="44.326732319944256" lon="10.251420288848985"><ele>910.25</ele><time>2026-04-18T10:05:00Z</time></trkpt><trkpt lat="44.32676155373848" lon="10.251598848019086"><ele>906.5</ele><time>2026-04-18T10:05:01Z</time></trkpt><trkpt lat="44.32680145806442" lon="10.251726766436565"><ele>902.75</ele><time>2026-04-18T10:05:02Z</time></trkpt><trkpt lat="44.32687182333016" lon="10.25179216374354"><ele>899.0</ele><time>2026-04-18T10:05:03Z</time></trkpt><trkpt lat="44.32701641264386" lon="10.251815762635237"><ele>899.0</ele><time>2026-04-18T10:05:04Z</time></trkpt><trkpt lat="44.32721722805939" lon="10.251924410898543"><ele>899.0</ele><time>2026-04-18T10:05:05Z</time></trkpt><trkpt lat="44.32740099233329" lon="10.252051706542666"><ele>899.0</ele><time>2026-04-18T10:05:06Z</time></trkpt><trkpt lat="44.32753844896226" lon="10.252167353110435"><ele>902.0</ele><time>2026-04-18T10:05:07Z</time></trkpt><trkpt lat="44.32764138533064" lon="10.2522688741708"><ele>905.0000000000001</ele><time>2026-04-18T10:05:08Z</time></trkpt><trkpt lat="44.327699028013114" lon="10.252348284540671"><ele>908.0000000000001</ele><time>2026-04-18T10:05:09Z</time></trkpt><trkpt lat="44.3276855454185" lon="10.252472513589343"><ele>911.0</ele><time>2026-04-18T10:05:10Z</time></trkpt><trkpt lat="44.327641952035165" lon="10.252611940438058"><ele>914.0</ele><time>2026-04-18T10:05:11Z</time></trkpt><trkpt lat="44.327658384314134" lon="10.252772516507177"><ele>914.0</ele><time>2026-04-18T10:05:12Z</time></trkpt><trkpt lat="44.32778785455977" lon="10.25295813647104"><ele>914.0</ele><time>2026-04-18T10:05:13Z</time></trkpt><trkpt lat="44.32795200223859" lon="10.253206879405782"><ele>914.0</ele><time>2026-04-18T10:05:14Z</time></trkpt><trkpt lat="44.32807491758719" lon="10.253403475028076"><ele>918.0</ele><time>2026-04-18T10:05:15Z</time></trkpt><trkpt lat="44.328157813328154" lon="10.253484750020437"><ele>922.0000000000001</ele><time>2026-04-18T10:05:16Z</time></trkpt><trkpt lat="44.32823587320731" lon="10.25353651642383"><ele>926.0000000000001</ele><time>2026-04-18T10:05:17Z</time></trkpt><trkpt lat="44.32836568564708" lon="10.253530681897836"><ele>930.0</ele><time>2026-04-18T10:05:18Z</time></trkpt><trkpt lat="44.328434478823155" lon="10.253614958968557"><ele>934.0</ele><time>2026-04-18T10:05:19Z</time></trkpt><trkpt lat="44.32845952257322" lon="10.253755528564298"><ele>934.0</ele><time>2026-04-18T10:05:20Z</time></trkpt><trkpt lat="44.328444790316745" lon="10.253941981406772"><ele>934.0000000000001</ele><time>2026-04-18T10:05:21Z</time></trkpt><trkpt lat="44.32846505345259" lon="10.25407962997095"><ele>934.0000000000001</ele><time>2026-04-18T10:05:22Z</time></trkpt><trkpt lat="44.32853854885395" lon="10.254141418925718"><ele>934.0</ele><time>2026-04-18T10:05:23Z</time></trkpt><trkpt lat="44.32864615168069" lon="10.254124509850708"><ele>934.0</ele><time>2026-04-18T10:05:24Z</time></trkpt><trkpt lat="44.32876521121966" lon="10.254139514606688"><ele>935.5</ele><time>2026-04-18T10:05:25Z</time></trkpt><trkpt lat="44.32886089648069" lon="10.254235264198924"><ele>937.0</ele><time>2026-04-18T10:05:26Z</time></trkpt><trkpt lat="44.32891629011111" lon="10.254384750002115"><ele>938.5</ele><time>2026-04-18T10:05:27Z</time></trkpt><trkpt lat="44.32900103048238" lon="10.254506863958047"><ele>940.0</ele><time>2026-04-18T10:05:28Z</time></trkpt><trkpt lat="44.329109108020965" lon="10.254543649161599"><ele>940.0</ele><time>2026-04-18T10:05:29Z</time></trkpt><trkpt lat="44.32925773257205" lon="10.254492407085738"><ele>940.0</ele><time>2026-04-18T10:05:30Z</time></trkpt><trkpt lat="44.32936840081481" lon="10.254514287787718"><ele>940.0</ele><time>2026-04-18T10:05:31Z</time></trkpt><trkpt lat="44.32943314540338" lon="10.254573324680374"><ele>940.0</ele><time>2026-04-18T10:05:32Z</time></trkpt><trkpt lat="44.329471895950185" lon="10.25467497548926"><ele>940.0</ele><time>2026-04-18T10:05:33Z</time></trkpt><trkpt lat="44.329422374553545" lon="10.254852157690518"><ele>928.75</ele><time>2026-04-18T10:05:34Z</time></trkpt><trkpt lat="44.32940097938574" lon="10.255117404179463"><ele>917.5</ele><time>2026-04-18T10:05:35Z</time></trkpt><trkpt lat="44.329371655929634" lon="10.25528077281275"><ele>906.25</ele><time>2026-04-18T10:05:36Z</time></trkpt><trkpt lat="44.32940504879515" lon="10.255378041793481"><ele>895.0</ele><time>2026-04-18T10:05:37Z</time></trkpt><trkpt lat="44.329487678961236" lon="10.255456476728504"><ele>895.0</ele><time>2026-04-18T10:05:38Z</time></trkpt><trkpt lat="44.32961434849732" lon="10.25547571491735"><ele>895.0</ele><time>2026-04-18T10:05:39Z</time></trkpt><trkpt lat="44.329796236560306" lon="10.25542945140461"><ele>895.0</ele><time>2026-04-18T10:05:40Z</time></trkpt><trkpt lat="44.32998902301497" lon="10.255385070869353"><ele>893.8</ele><time>2026-04-18T10:05:41Z</time></trkpt><trkpt lat="44.3301113653045" lon="10.25537274394863"><ele>892.6</ele><time>2026-04-18T10:05:42Z</time></trkpt><trkpt lat="44.3302037996565" lon="10.255383263947468"><ele>891.4000000000001</ele><time>2026-04-18T10:05:43Z</time></trkpt><trkpt lat="44.33025687715043" lon="10.255460512416414"><ele>890.2</ele><time>2026-04-18T10:05:44Z</time></trkpt><trkpt lat="44.330277863056665" lon="10.255578761102717"><ele>889.0</ele><time>2026-04-18T10:05:45Z</time></trkpt><trkpt lat="44.33028800180182" lon="10.255761371625027"><ele>889.0</ele><time>2026-04-18T10:05:46Z</time></trkpt><trkpt lat="44.330299392782024" lon="10.255909781834694"><ele>889.0</ele><time>2026-04-18T10:05:47Z</time></trkpt><trkpt lat="44.33038866662573" lon="10.256020092269841"><ele>889.0</ele><time>2026-04-18T10:05:48Z</time></trkpt><trkpt lat="44.33056101912387" lon="10.256146423752067"><ele>889.0</ele><time>2026-04-18T10:05:49Z</time></trkpt><trkpt lat="44.330785235386465" lon="10.256321547562626"><ele>881.3333333333333</ele><time>2026-04-18T10:05:50Z</time></trkpt><trkpt lat="44.33097106401389" lon="10.256436665159786"><ele>873.6666666666667</ele><time>2026-04-18T10:05:51Z</time></trkpt><trkpt lat="44.33115681347637" lon="10.256526227414998"><ele>866.0</ele><time>2026-04-18T10:05:52Z</time></trkpt><trkpt lat="44.33129537988464" lon="10.256591631871512"><ele>876.3333333333334</ele><time>2026-04-18T10:05:53Z</time></trkpt><trkpt lat="44.331408449908146" lon="10.256737565557506"><ele>886.6666666666667</ele><time>2026-04-18T10:05:54Z</time></trkpt><trkpt lat="44.33153739499368" lon="10.25691651614455"><ele>897.0</ele><time>2026-04-18T10:05:55Z</time></trkpt><trkpt lat="44.33165672361054" lon="10.25705399092556"><ele>897.0</ele><time>2026-04-18T10:05:56Z</time></trkpt><trkpt lat="44.33174548149943" lon="10.257121808062722"><ele>897.0</ele><time>2026-04-18T10:05:57Z</time></trkpt><trkpt lat="44.33187355418174" lon="10.25714277989727"><ele>897.0</ele><time>2026-04-18T10:05:58Z</time></trkpt><trkpt lat="44.33202804855647" lon="10.257105229916148"><ele>897.0</ele><time>2026-04-18T10:05:59Z</time></trkpt><trkpt lat="44.332171535860034" lon="10.257067973614403"><ele>893.25</ele><time>2026-04-18T10:06:00Z</time></trkpt><trkpt lat="44.33229141446634" lon="10.257020877022741"><ele>889.5</ele><time>2026-04-18T10:06:01Z</time></trkpt><trkpt lat="44.33238663004238" lon="10.256943058832245"><ele>885.75</ele><time>2026-04-18T10:06:02Z</time></trkpt><trkpt lat="44.332486392733465" lon="10.256825898158821"><ele>882.0</ele><time>2026-04-18T10:06:03Z</time></trkpt><trkpt lat="44.33262085311743" lon="10.256648212315383"><ele>892.5</ele><time>2026-04-18T10:06:04Z</time></trkpt><trkpt lat="44.33280255760247" lon="10.25640707474922"><ele>903.0</ele><time>2026-04-18T10:06:05Z</time></trkpt><trkpt lat="44.33296554640665" lon="10.256216249981398"><ele>891.0</ele><time>2026-04-18T10:06:06Z</time></trkpt><trkpt lat="44.33311315193665" lon="10.256079444898479"><ele>879.0</ele><time>2026-04-18T10:06:07Z</time></trkpt><trkpt lat="44.33324031538803" lon="10.25594194565393"><ele>867.0</ele><time>2026-04-18T10:06:08Z</time></trkpt><trkpt lat="44.33334853979342" lon="10.25580500307439"><ele>874.0</ele><time>2026-04-18T10:06:09Z</time></trkpt><trkpt lat="44.33341121303263" lon="10.255583714956853"><ele>881.0</ele><time>2026-04-18T10:06:09.999Z</time></trkpt><trkpt lat="44.33349261191123" lon="10.255404669076015"><ele>888.0</ele><time>2026-04-18T10:06:10.999Z</time></trkpt><trkpt lat="44.33362308635248" lon="10.255346177345453"><ele>888.0</ele><time>2026-04-18T10:06:11.999Z</time></trkpt><trkpt lat="44.33375075203269" lon="10.255222049970005"><ele>888.0</ele><time>2026-04-18T10:06:12.999Z</time></trkpt><trkpt lat="44.33387174652154" lon="10.255058808895274"><ele>888.0</ele><time>2026-04-18T10:06:13.999Z</time></trkpt><trkpt lat="44.33397949909082" lon="10.254787515052508"><ele>882.0</ele><time>2026-04-18T10:06:14.999Z</time></trkpt><trkpt lat="44.334057532365854" lon="10.254520618345223"><ele>876.0</ele><time>2026-04-18T10:06:15.999Z</time></trkpt><trkpt lat="44.33411508576863" lon="10.254361307917684"><ele>870.0</ele><time>2026-04-18T10:06:16.999Z</time></trkpt><trkpt lat="44.33416929831429" lon="10.25422185051641"><ele>864.0</ele><time>2026-04-18T10:06:17.999Z</time></trkpt><trkpt lat="44.33420673259867" lon="10.254140742257434"><ele>864.0</ele><time>2026-04-18T10:06:18.999Z</time></trkpt><trkpt lat="44.33427660531666" lon="10.254117664738013"><ele>864.0000000000001</ele><time>2026-04-18T10:06:20.999Z</time></trkpt><trkpt lat="44.334247147500136" lon="10.25423966117316"><ele>864.0000000000001</ele><time>2026-04-18T10:06:22.999Z</time></trkpt><trkpt lat="44.33418590388028" lon="10.25439775575472"><ele>864.0</ele><time>2026-04-18T10:06:23.999Z</time></trkpt><trkpt lat="44.3341112423811" lon="10.25457153678065"><ele>864.0</ele><time>2026-04-18T10:06:24.999Z</time></trkpt><trkpt lat="44.3341625334407" lon="10.254851315378378"><ele>860.4000000000001</ele><time>2026-04-18T10:06:25.999Z</time></trkpt><trkpt lat="44.33415208550852" lon="10.255025674134071"><ele>856.8000000000001</ele><time>2026-04-18T10:06:26.999Z</time></trkpt><trkpt lat="44.3341613995263" lon="10.255142504334165"><ele>853.2</ele><time>2026-04-18T10:06:27.999Z</time></trkpt><trkpt lat="44.33421361258363" lon="10.255224933034949"><ele>849.5999999999999</ele><time>2026-04-18T10:06:29.999Z</time></trkpt><trkpt lat="44.33430232548454" lon="10.255176191412144"><ele>846.0</ele><time>2026-04-18T10:06:30.999Z</time></trkpt><trkpt lat="44.334342756617964" lon="10.254884571160432"><ele>852.0</ele><time>2026-04-18T10:06:32.999Z</time></trkpt><trkpt lat="44.334349499928834" lon="10.254620146816713"><ele>858.0</ele><time>2026-04-18T10:06:33.999Z</time></trkpt><trkpt lat="44.33440315353877" lon="10.254369949396729"><ele>864.0</ele><time>2026-04-18T10:06:34.999Z</time></trkpt><trkpt lat="44.33449865820226" lon="10.254179437949555"><ele>864.0</ele><time>2026-04-18T10:06:35.999Z</time></trkpt><trkpt lat="44.334617227034045" lon="10.253985598823581"><ele>864.0</ele><time>2026-04-18T10:06:36.999Z</time></trkpt><trkpt lat="44.3347887794515" lon="10.253751806263974"><ele>864.0</ele><time>2026-04-18T10:06:37.999Z</time></trkpt><trkpt lat="44.33500562543664" lon="10.253478290525157"><ele>865.5</ele><time>2026-04-18T10:06:38.999Z</time></trkpt><trkpt lat="44.33521258380956" lon="10.253206378925185"><ele>867.0</ele><time>2026-04-18T10:06:39.999Z</time></trkpt><trkpt lat="44.335390087485536" lon="10.252990853167173"><ele>844.0</ele><time>2026-04-18T10:06:40.999Z</time></trkpt><trkpt lat="44.335558889080154" lon="10.25273435722283"><ele>821.0</ele><time>2026-04-18T10:06:41.999Z</time></trkpt><trkpt lat="44.33573981084817" lon="10.252453534441692"><ele>831.0</ele><time>2026-04-18T10:06:42.999Z</time></trkpt><trkpt lat="44.335897513769645" lon="10.252202138799097"><ele>841.0</ele><time>2026-04-18T10:06:43.999Z</time></trkpt><trkpt lat="44.33604448906716" lon="10.251973786123601"><ele>841.0</ele><time>2026-04-18T10:06:44.999Z</time></trkpt><trkpt lat="44.3361804449966" lon="10.251759907800245"><ele>841.0</ele><time>2026-04-18T10:06:46Z</time></trkpt><trkpt lat="44.33630837219902" lon="10.25155509979365"><ele>841.0</ele><time>2026-04-18T10:06:47Z</time></trkpt><trkpt lat="44.3364014493331" lon="10.2513763689631"><ele>837.0</ele><time>2026-04-18T10:06:48Z</time></trkpt><trkpt lat="44.336457662771934" lon="10.251218939264097"><ele>833.0</ele><time>2026-04-18T10:06:49Z</time></trkpt><trkpt lat="44.33649960137801" lon="10.251097735988214"><ele>829.0</ele><time>2026-04-18T10:06:50Z</time></trkpt><trkpt lat="44.33657928946178" lon="10.25100396154838"><ele>825.0</ele><time>2026-04-18T10:06:51Z</time></trkpt><trkpt lat="44.33663284986216" lon="10.251061253063485"><ele>821.0</ele><time>2026-04-18T10:06:53Z</time></trkpt><trkpt lat="44.336647146186394" lon="10.25115431232168"><ele>821.0</ele><time>2026-04-18T10:06:54Z</time></trkpt><trkpt lat="44.336621996287064" lon="10.251282199759332"><ele>821.0</ele><time>2026-04-18T10:06:55Z</time></trkpt><trkpt lat="44.336516755812866" lon="10.251474318089645"><ele>821.0</ele><time>2026-04-18T10:06:56Z</time></trkpt><trkpt lat="44.336414705138864" lon="10.251775940074621"><ele>821.0</ele><time>2026-04-18T10:06:57Z</time></trkpt><trkpt lat="44.33626571218015" lon="10.252133747846303"><ele>821.0</ele><time>2026-04-18T10:06:58Z</time></trkpt><trkpt lat="44.33612835795247" lon="10.252461298842594"><ele>821.0</ele><time>2026-04-18T10:06:59Z</time></trkpt><trkpt lat="44.33602834020686" lon="10.252704877836376"><ele>821.0</ele><time>2026-04-18T10:07:00Z</time></trkpt><trkpt lat="44.33594865122876" lon="10.252897260354429"><ele>821.0</ele><time>2026-04-18T10:07:01Z</time></trkpt><trkpt lat="44.33588459625156" lon="10.253053802631003"><ele>818.0</ele><time>2026-04-18T10:07:02Z</time></trkpt><trkpt lat="44.335842023484275" lon="10.253162739969378"><ele>815.0</ele><time>2026-04-18T10:07:03Z</time></trkpt><trkpt lat="44.33581954633655" lon="10.253251425200622"><ele>812.0</ele><time>2026-04-18T10:07:04Z</time></trkpt><trkpt lat="44.33586465659652" lon="10.253400892543919"><ele>809.0</ele><time>2026-04-18T10:07:06Z</time></trkpt><trkpt lat="44.335963899691066" lon="10.253445241742902"><ele>806.0</ele><time>2026-04-18T10:07:08Z</time></trkpt><trkpt lat="44.33603297078271" lon="10.253303201429938"><ele>806.0</ele><time>2026-04-18T10:07:09Z</time></trkpt><trkpt lat="44.33608272330933" lon="10.253134792770505"><ele>806.0</ele><time>2026-04-18T10:07:10Z</time></trkpt><trkpt lat="44.336154439294084" lon="10.252917035614159"><ele>806.0</ele><time>2026-04-18T10:07:11Z</time></trkpt><trkpt lat="44.336226463143085" lon="10.252713164130146"><ele>804.1666666666667</ele><time>2026-04-18T10:07:12Z</time></trkpt><trkpt lat="44.33628907142871" lon="10.25256708463752"><ele>802.3333333333334</ele><time>2026-04-18T10:07:13Z</time></trkpt><trkpt lat="44.33635325884325" lon="10.252481065838335"><ele>800.5</ele><time>2026-04-18T10:07:14Z</time></trkpt><trkpt lat="44.336415474349025" lon="10.252429890985507"><ele>798.6666666666667</ele><time>2026-04-18T10:07:15Z</time></trkpt><trkpt lat="44.33648936366929" lon="10.252431870920692"><ele>796.8333333333334</ele><time>2026-04-18T10:07:16Z</time></trkpt><trkpt lat="44.336567241287646" lon="10.252481125216626"><ele>795.0</ele><time>2026-04-18T10:07:17Z</time></trkpt><trkpt lat="44.33661291515127" lon="10.25262268239779"><ele>795.0</ele><time>2026-04-18T10:07:18Z</time></trkpt><trkpt lat="44.33670752560026" lon="10.252770302803304"><ele>795.0</ele><time>2026-04-18T10:07:19Z</time></trkpt><trkpt lat="44.3368404638878" lon="10.252965614346458"><ele>795.0</ele><time>2026-04-18T10:07:20Z</time></trkpt><trkpt lat="44.33699431887539" lon="10.253201157312294"><ele>791.0</ele><time>2026-04-18T10:07:21Z</time></trkpt><trkpt lat="44.33711691849737" lon="10.253407049464585"><ele>787.0</ele><time>2026-04-18T10:07:22Z</time></trkpt><trkpt lat="44.33720560230371" lon="10.253612581098293"><ele>783.0</ele><time>2026-04-18T10:07:23Z</time></trkpt><trkpt lat="44.33740907598006" lon="10.253850122757665"><ele>780.75</ele><time>2026-04-18T10:07:24Z</time></trkpt><trkpt lat="44.337479903939496" lon="10.254014743633068"><ele>778.5</ele><time>2026-04-18T10:07:25Z</time></trkpt><trkpt lat="44.33748992808751" lon="10.254204397240615"><ele>776.25</ele><time>2026-04-18T10:07:26Z</time></trkpt><trkpt lat="44.33747915546371" lon="10.254375955768841"><ele>774.0</ele><time>2026-04-18T10:07:27Z</time></trkpt><trkpt lat="44.3374550693057" lon="10.254600731477185"><ele>770.0</ele><time>2026-04-18T10:07:28Z</time></trkpt><trkpt lat="44.33737944568597" lon="10.254925388563562"><ele>766.0</ele><time>2026-04-18T10:07:29Z</time></trkpt><trkpt lat="44.33728687401162" lon="10.25516230275187"><ele>762.0</ele><time>2026-04-18T10:07:30Z</time></trkpt><trkpt lat="44.3371703684048" lon="10.255341769740866"><ele>762.0</ele><time>2026-04-18T10:07:31Z</time></trkpt><trkpt lat="44.33705241505776" lon="10.255492083847454"><ele>762.0</ele><time>2026-04-18T10:07:32Z</time></trkpt><trkpt lat="44.33699987804441" lon="10.25563456950857"><ele>762.0</ele><time>2026-04-18T10:07:33Z</time></trkpt><trkpt lat="44.33696151530637" lon="10.255790279159042"><ele>762.0</ele><time>2026-04-18T10:07:34Z</time></trkpt><trkpt lat="44.33701501983906" lon="10.255885451828995"><ele>762.3333333333334</ele><time>2026-04-18T10:07:35Z</time></trkpt><trkpt lat="44.337114183331735" lon="10.255976990321189"><ele>762.6666666666667</ele><time>2026-04-18T10:07:36Z</time></trkpt><trkpt lat="44.33729301845912" lon="10.256097797415935"><ele>763.0</ele><time>2026-04-18T10:07:37Z</time></trkpt><trkpt lat="44.33741651196603" lon="10.256272796806138"><ele>773.6666666666667</ele><time>2026-04-18T10:07:38Z</time></trkpt><trkpt lat="44.33747724904691" lon="10.256465946657958"><ele>784.3333333333334</ele><time>2026-04-18T10:07:39Z</time></trkpt><trkpt lat="44.3375237313961" lon="10.256690638682995"><ele>795.0</ele><time>2026-04-18T10:07:40Z</time></trkpt><trkpt lat="44.33757796914939" lon="10.257037397502241"><ele>792.0</ele><time>2026-04-18T10:07:41Z</time></trkpt><trkpt lat="44.33763144886909" lon="10.2573561585527"><ele>789.0</ele><time>2026-04-18T10:07:42Z</time></trkpt><trkpt lat="44.3376741490768" lon="10.257625141200272"><ele>786.0</ele><time>2026-04-18T10:07:43Z</time></trkpt><trkpt lat="44.33770869125182" lon="10.257844542734173"><ele>786.0</ele><time>2026-04-18T10:07:44Z</time></trkpt><trkpt lat="44.337750737977935" lon="10.258101175360919"><ele>786.0</ele><time>2026-04-18T10:07:45Z</time></trkpt><trkpt lat="44.337795330878215" lon="10.258350206566888"><ele>786.0</ele><time>2026-04-18T10:07:46Z</time></trkpt><trkpt lat="44.33786572015735" lon="10.258553480105196"><ele>785.0</ele><time>2026-04-18T10:07:47Z</time></trkpt><trkpt lat="44.337967887026814" lon="10.258749920056399"><ele>784.0</ele><time>2026-04-18T10:07:48Z</time></trkpt><trkpt lat="44.33808936795803" lon="10.258897246141554"><ele>783.0</ele><time>2026-04-18T10:07:49Z</time></trkpt><trkpt lat="44.33825626320934" lon="10.259017253855351"><ele>783.0</ele><time>2026-04-18T10:07:50Z</time></trkpt><trkpt lat="44.33847692922856" lon="10.259111858884687"><ele>783.0</ele><time>2026-04-18T10:07:51Z</time></trkpt><trkpt lat="44.33867093838249" lon="10.259190173232225"><ele>783.0</ele><time>2026-04-18T10:07:52Z</time></trkpt><trkpt lat="44.33879434135692" lon="10.259331812038264"><ele>787.0</ele><time>2026-04-18T10:07:53Z</time></trkpt><trkpt lat="44.33888849926738" lon="10.259475765392358"><ele>791.0</ele><time>2026-04-18T10:07:54Z</time></trkpt><trkpt lat="44.338954272572124" lon="10.259648409603514"><ele>795.0</ele><time>2026-04-18T10:07:55Z</time></trkpt><trkpt lat="44.33902410346971" lon="10.25988926628539"><ele>795.0</ele><time>2026-04-18T10:07:56Z</time></trkpt><trkpt lat="44.33905713942628" lon="10.260086754970521"><ele>795.0</ele><time>2026-04-18T10:07:57Z</time></trkpt><trkpt lat="44.3390422158989" lon="10.260240872704717"><ele>795.0</ele><time>2026-04-18T10:07:58Z</time></trkpt><trkpt lat="44.33898787087368" lon="10.260394845263015"><ele>795.0</ele><time>2026-04-18T10:07:59Z</time></trkpt><trkpt lat="44.33893454211544" lon="10.260673650946806"><ele>796.6666666666667</ele><time>2026-04-18T10:08:00Z</time></trkpt><trkpt lat="44.33890572325925" lon="10.260983280938383"><ele>798.3333333333334</ele><time>2026-04-18T10:08:01Z</time></trkpt><trkpt lat="44.33890205322421" lon="10.261216977995954"><ele>800.0</ele><time>2026-04-18T10:08:02Z</time></trkpt><trkpt lat="44.338935372856774" lon="10.261416700201545"><ele>799.0</ele><time>2026-04-18T10:08:03Z</time></trkpt><trkpt lat="44.33905412601834" lon="10.261659566201152"><ele>798.0</ele><time>2026-04-18T10:08:04Z</time></trkpt><trkpt lat="44.339167810620076" lon="10.261852031965729"><ele>797.0</ele><time>2026-04-18T10:08:05Z</time></trkpt><trkpt lat="44.339276954549696" lon="10.261953617620348"><ele>797.0</ele><time>2026-04-18T10:08:06Z</time></trkpt><trkpt lat="44.33943159299487" lon="10.26202531844588"><ele>797.0</ele><time>2026-04-18T10:08:07Z</time></trkpt><trkpt lat="44.33953251446729" lon="10.262168956309349"><ele>797.0</ele><time>2026-04-18T10:08:08Z</time></trkpt><trkpt lat="44.339636632085636" lon="10.262335719083767"><ele>795.75</ele><time>2026-04-18T10:08:09Z</time></trkpt><trkpt lat="44.3396992547965" lon="10.262499693685722"><ele>794.5</ele><time>2026-04-18T10:08:10Z</time></trkpt><trkpt lat="44.339711258917696" lon="10.262663559193417"><ele>793.25</ele><time>2026-04-18T10:08:11Z</time></trkpt><trkpt lat="44.339654656086125" lon="10.26280475731459"><ele>792.0</ele><time>2026-04-18T10:08:12Z</time></trkpt><trkpt lat="44.339553862906214" lon="10.262924728303513"><ele>792.0</ele><time>2026-04-18T10:08:13Z</time></trkpt><trkpt lat="44.339450931277064" lon="10.263088984406355"><ele>792.0</ele><time>2026-04-18T10:08:14Z</time></trkpt><trkpt lat="44.33939240807202" lon="10.263282359218948"><ele>792.0</ele><time>2026-04-18T10:08:15Z</time></trkpt><trkpt lat="44.33941125248525" lon="10.263519153673078"><ele>794.0</ele><time>2026-04-18T10:08:15.999Z</time></trkpt><trkpt lat="44.339473557071756" lon="10.26382740828243"><ele>796.0</ele><time>2026-04-18T10:08:16.999Z</time></trkpt><trkpt lat="44.33949775328569" lon="10.264159243693292"><ele>796.0</ele><time>2026-04-18T10:08:17.999Z</time></trkpt><trkpt lat="44.33946411951867" lon="10.264415518645235"><ele>796.0</ele><time>2026-04-18T10:08:18.999Z</time></trkpt><trkpt lat="44.339430570194374" lon="10.264617162198372"><ele>796.0</ele><time>2026-04-18T10:08:19.999Z</time></trkpt><trkpt lat="44.33943315175035" lon="10.264788858589768"><ele>797.4</ele><time>2026-04-18T10:08:20.999Z</time></trkpt><trkpt lat="44.33944334416965" lon="10.264967367373021"><ele>798.8</ele><time>2026-04-18T10:08:21.999Z</time></trkpt><trkpt lat="44.33945818012301" lon="10.265147627545284"><ele>800.1999999999999</ele><time>2026-04-18T10:08:22.999Z</time></trkpt><trkpt lat="44.33945875472488" lon="10.265279994560167"><ele>801.5999999999999</ele><time>2026-04-18T10:08:23.999Z</time></trkpt><trkpt lat="44.339467049570025" lon="10.265403184830667"><ele>803.0</ele><time>2026-04-18T10:08:24.999Z</time></trkpt><trkpt lat="44.33954184898106" lon="10.265473909052728"><ele>803.0</ele><time>2026-04-18T10:08:25.999Z</time></trkpt><trkpt lat="44.33964159848248" lon="10.265505055436103"><ele>803.0</ele><time>2026-04-18T10:08:26.999Z</time></trkpt><trkpt lat="44.33975784343834" lon="10.265479514766028"><ele>803.0</ele><time>2026-04-18T10:08:27.999Z</time></trkpt><trkpt lat="44.33989934087722" lon="10.265451800053917"><ele>803.0</ele><time>2026-04-18T10:08:28.999Z</time></trkpt><trkpt lat="44.34003811604708" lon="10.265514563160632"><ele>802.3333333333334</ele><time>2026-04-18T10:08:29.999Z</time></trkpt><trkpt lat="44.340178352067724" lon="10.265688570460055"><ele>801.6666666666667</ele><time>2026-04-18T10:08:31Z</time></trkpt><trkpt lat="44.34040093029451" lon="10.265780365328121"><ele>801.0</ele><time>2026-04-18T10:08:32Z</time></trkpt><trkpt lat="44.340641347349" lon="10.26588813040553"><ele>803.0</ele><time>2026-04-18T10:08:33Z</time></trkpt><trkpt lat="44.34088050499481" lon="10.266039499555776"><ele>805.0</ele><time>2026-04-18T10:08:34Z</time></trkpt><trkpt lat="44.34107130146648" lon="10.266181780263672"><ele>805.0</ele><time>2026-04-18T10:08:35Z</time></trkpt><trkpt lat="44.341240359255465" lon="10.266334100751031"><ele>805.0</ele><time>2026-04-18T10:08:36Z</time></trkpt><trkpt lat="44.341418122494694" lon="10.266494687850928"><ele>805.0</ele><time>2026-04-18T10:08:37Z</time></trkpt><trkpt lat="44.34157245186539" lon="10.266728215073282"><ele>806.0</ele><time>2026-04-18T10:08:38Z</time></trkpt><trkpt lat="44.341730933818184" lon="10.266972048968453"><ele>807.0</ele><time>2026-04-18T10:08:39Z</time></trkpt><trkpt lat="44.34187861298637" lon="10.267250999580117"><ele>801.0</ele><time>2026-04-18T10:08:40Z</time></trkpt><trkpt lat="44.34200374491218" lon="10.267558444725083"><ele>795.0</ele><time>2026-04-18T10:08:41Z</time></trkpt><trkpt lat="44.342105225571416" lon="10.2678709183884"><ele>792.0</ele><time>2026-04-18T10:08:42Z</time></trkpt><trkpt lat="44.34218590630134" lon="10.268193885932147"><ele>789.0</ele><time>2026-04-18T10:08:43Z</time></trkpt><trkpt lat="44.34224534662138" lon="10.268561108079044"><ele>800.0</ele><time>2026-04-18T10:08:44Z</time></trkpt><trkpt lat="44.342278756755626" lon="10.268970261287095"><ele>811.0</ele><time>2026-04-18T10:08:45Z</time></trkpt><trkpt lat="44.34230580246592" lon="10.269438266426704"><ele>810.5</ele><time>2026-04-18T10:08:46Z</time></trkpt><trkpt lat="44.34233010318424" lon="10.269886314303166"><ele>810.0</ele><time>2026-04-18T10:08:47Z</time></trkpt><trkpt lat="44.34236732686541" lon="10.270283473281044"><ele>807.0</ele><time>2026-04-18T10:08:48Z</time></trkpt><trkpt lat="44.342387337117486" lon="10.27064246531012"><ele>804.0</ele><time>2026-04-18T10:08:49Z</time></trkpt><trkpt lat="44.342406285957196" lon="10.270983484669976"><ele>804.0</ele><time>2026-04-18T10:08:50Z</time></trkpt><trkpt lat="44.342441683355126" lon="10.271336743235839"><ele>804.0</ele><time>2026-04-18T10:08:51Z</time></trkpt><trkpt lat="44.342506934573315" lon="10.271694720658962"><ele>801.5</ele><time>2026-04-18T10:08:52Z</time></trkpt><trkpt lat="44.34258631072791" lon="10.27203906427375"><ele>799.0</ele><time>2026-04-18T10:08:53Z</time></trkpt><trkpt lat="44.342663960327435" lon="10.272340974850634"><ele>794.0</ele><time>2026-04-18T10:08:54Z</time></trkpt><trkpt lat="44.3427581950835" lon="10.27262242163002"><ele>789.0</ele><time>2026-04-18T10:08:55Z</time></trkpt><trkpt lat="44.342896715451126" lon="10.27292721058553"><ele>791.0</ele><time>2026-04-18T10:08:56Z</time></trkpt><trkpt lat="44.34304989332227" lon="10.273272291028308"><ele>793.0</ele><time>2026-04-18T10:08:57Z</time></trkpt><trkpt lat="44.34324669721331" lon="10.27362830615974"><ele>786.5</ele><time>2026-04-18T10:08:58Z</time></trkpt><trkpt lat="44.34346794708662" lon="10.274016989684359"><ele>780.0</ele><time>2026-04-18T10:08:59Z</time></trkpt><trkpt lat="44.3436925879665" lon="10.274419904656762"><ele>777.0</ele><time>2026-04-18T10:09:00Z</time></trkpt><trkpt lat="44.34391528519005" lon="10.274787778457084"><ele>774.0</ele><time>2026-04-18T10:09:01Z</time></trkpt><trkpt lat="44.34412122986227" lon="10.275148609013458"><ele>774.0</ele><time>2026-04-18T10:09:02Z</time></trkpt><trkpt lat="44.34431600452962" lon="10.275503701134221"><ele>774.0</ele><time>2026-04-18T10:09:03Z</time></trkpt><trkpt lat="44.344507621993486" lon="10.275840933014232"><ele>774.0</ele><time>2026-04-18T10:09:04Z</time></trkpt><trkpt lat="44.34469214882163" lon="10.276172217923607"><ele>774.0</ele><time>2026-04-18T10:09:05Z</time></trkpt><trkpt lat="44.344874914371346" lon="10.276494683328409"><ele>774.0</ele><time>2026-04-18T10:09:06Z</time></trkpt><trkpt lat="44.345053425113" lon="10.276811841581678"><ele>774.0</ele><time>2026-04-18T10:09:07Z</time></trkpt><trkpt lat="44.34522539631661" lon="10.277120481186303"><ele>770.0</ele><time>2026-04-18T10:09:08Z</time></trkpt><trkpt lat="44.34538851035206" lon="10.277409031372644"><ele>766.0</ele><time>2026-04-18T10:09:09Z</time></trkpt><trkpt lat="44.34554356384061" lon="10.277689524747482"><ele>768.0</ele><time>2026-04-18T10:09:10Z</time></trkpt><trkpt lat="44.34570227231039" lon="10.277975732495952"><ele>770.0</ele><time>2026-04-18T10:09:11Z</time></trkpt><trkpt lat="44.34586214550219" lon="10.27826580233377"><ele>770.0</ele><time>2026-04-18T10:09:12Z</time></trkpt><trkpt lat="44.34601818359667" lon="10.278553943678334"><ele>770.0</ele><time>2026-04-18T10:09:13Z</time></trkpt><trkpt lat="44.3461691594499" lon="10.278830518561595"><ele>768.5</ele><time>2026-04-18T10:09:14Z</time></trkpt><trkpt lat="44.346309204838605" lon="10.279085598591081"><ele>767.0</ele><time>2026-04-18T10:09:15Z</time></trkpt><trkpt lat="44.34646295314385" lon="10.279356200631838"><ele>767.0</ele><time>2026-04-18T10:09:16Z</time></trkpt><trkpt lat="44.34660179843037" lon="10.279603257162854"><ele>767.0</ele><time>2026-04-18T10:09:17Z</time></trkpt><trkpt lat="44.34673156173858" lon="10.279838912010451"><ele>767.0</ele><time>2026-04-18T10:09:18Z</time></trkpt><trkpt lat="44.34685947004568" lon="10.280061947219567"><ele>765.0</ele><time>2026-04-18T10:09:19Z</time></trkpt><trkpt lat="44.346990341974546" lon="10.280257861929135"><ele>763.0</ele><time>2026-04-18T10:09:20Z</time></trkpt><trkpt lat="44.34711897240932" lon="10.280466755645165"><ele>761.0</ele><time>2026-04-18T10:09:21Z</time></trkpt><trkpt lat="44.34727555916466" lon="10.280667737504233"><ele>761.0</ele><time>2026-04-18T10:09:22Z</time></trkpt><trkpt lat="44.347438124234074" lon="10.280849007714"><ele>761.0</ele><time>2026-04-18T10:09:23Z</time></trkpt><trkpt lat="44.34760892759311" lon="10.281019433309753"><ele>761.0</ele><time>2026-04-18T10:09:24Z</time></trkpt><trkpt lat="44.347797331015606" lon="10.28117680743188"><ele>761.0</ele><time>2026-04-18T10:09:25Z</time></trkpt><trkpt lat="44.34799003905686" lon="10.281326849652169"><ele>761.0</ele><time>2026-04-18T10:09:26Z</time></trkpt><trkpt lat="44.348179866857755" lon="10.281477834685159"><ele>761.0</ele><time>2026-04-18T10:09:27Z</time></trkpt><trkpt lat="44.34841745640764" lon="10.281628911869722"><ele>757.6666666666666</ele><time>2026-04-18T10:09:28Z</time></trkpt><trkpt lat="44.34866928694918" lon="10.281609059892979"><ele>754.3333333333334</ele><time>2026-04-18T10:09:29Z</time></trkpt><trkpt lat="44.34883084637944" lon="10.281639072627813"><ele>751.0</ele><time>2026-04-18T10:09:30Z</time></trkpt><trkpt lat="44.348960539467726" lon="10.281666245601388"><ele>749.1999999999999</ele><time>2026-04-18T10:09:31Z</time></trkpt><trkpt lat="44.349061009519644" lon="10.281686086962612"><ele>747.4</ele><time>2026-04-18T10:09:32Z</time></trkpt><trkpt lat="44.349141653485326" lon="10.281696580641713"><ele>745.6</ele><time>2026-04-18T10:09:33Z</time></trkpt><trkpt lat="44.34921560401755" lon="10.281695678058183"><ele>743.8</ele><time>2026-04-18T10:09:34Z</time></trkpt><trkpt lat="44.34931518798377" lon="10.281731912305206"><ele>742.0</ele><time>2026-04-18T10:09:35Z</time></trkpt><trkpt lat="44.34942830956268" lon="10.281754518921002"><ele>742.0</ele><time>2026-04-18T10:09:36Z</time></trkpt><trkpt lat="44.34953568707397" lon="10.281779644969989"><ele>742.0</ele><time>2026-04-18T10:09:37Z</time></trkpt><trkpt lat="44.34964268699574" lon="10.281792038962958"><ele>742.0</ele><time>2026-04-18T10:09:38Z</time></trkpt><trkpt lat="44.34981630475456" lon="10.28175555271323"><ele>742.0</ele><time>2026-04-18T10:09:39Z</time></trkpt><trkpt lat="44.349994296474115" lon="10.281688275347742"><ele>739.6666666666667</ele><time>2026-04-18T10:09:40Z</time></trkpt><trkpt lat="44.35015086056424" lon="10.28168709108194"><ele>737.3333333333334</ele><time>2026-04-18T10:09:41Z</time></trkpt><trkpt lat="44.35028565476829" lon="10.281760426698996"><ele>735.0</ele><time>2026-04-18T10:09:42Z</time></trkpt><trkpt lat="44.3504522251332" lon="10.281833802089007"><ele>735.6666666666666</ele><time>2026-04-18T10:09:43Z</time></trkpt><trkpt lat="44.35063484869267" lon="10.281914288339697"><ele>736.3333333333333</ele><time>2026-04-18T10:09:44Z</time></trkpt><trkpt lat="44.35078506785857" lon="10.281983027645184"><ele>737.0</ele><time>2026-04-18T10:09:45Z</time></trkpt><trkpt lat="44.350923917913114" lon="10.281994836397992"><ele>737.0</ele><time>2026-04-18T10:09:46Z</time></trkpt><trkpt lat="44.35106695072369" lon="10.281986956000464"><ele>737.0</ele><time>2026-04-18T10:09:47Z</time></trkpt><trkpt lat="44.35123516205818" lon="10.28192694822988"><ele>737.0</ele><time>2026-04-18T10:09:48Z</time></trkpt><trkpt lat="44.351405512168924" lon="10.281830633469578"><ele>736.3333333333333</ele><time>2026-04-18T10:09:49Z</time></trkpt><trkpt lat="44.351565655167896" lon="10.281802146458828"><ele>735.6666666666666</ele><time>2026-04-18T10:09:50Z</time></trkpt><trkpt lat="44.35174972550643" lon="10.281808490071496"><ele>735.0</ele><time>2026-04-18T10:09:51Z</time></trkpt><trkpt lat="44.351937070681004" lon="10.281843035911397"><ele>735.0</ele><time>2026-04-18T10:09:52Z</time></trkpt><trkpt lat="44.35211717912483" lon="10.281912955980076"><ele>735.0</ele><time>2026-04-18T10:09:53Z</time></trkpt><trkpt lat="44.35232345091898" lon="10.281995599620307"><ele>735.0</ele><time>2026-04-18T10:09:54.001Z</time></trkpt><trkpt lat="44.35249800189137" lon="10.282063886765789"><ele>731.25</ele><time>2026-04-18T10:09:55Z</time></trkpt><trkpt lat="44.35264518169316" lon="10.282119955624951"><ele>727.5</ele><time>2026-04-18T10:09:56Z</time></trkpt><trkpt lat="44.352769014154475" lon="10.282171090952051"><ele>723.75</ele><time>2026-04-18T10:09:57Z</time></trkpt><trkpt lat="44.352870065568695" lon="10.282226910840286"><ele>720.0</ele><time>2026-04-18T10:09:58Z</time></trkpt><trkpt lat="44.35294414308353" lon="10.282323142616068"><ele>716.5</ele><time>2026-04-18T10:09:59Z</time></trkpt><trkpt lat="44.352981675404685" lon="10.282486899888106"><ele>713.0</ele><time>2026-04-18T10:10:00Z</time></trkpt><trkpt lat="44.352986736570585" lon="10.2826891033911"><ele>709.5</ele><time>2026-04-18T10:10:01Z</time></trkpt><trkpt lat="44.35297369086106" lon="10.282885721384842"><ele>706.0</ele><time>2026-04-18T10:10:02Z</time></trkpt><trkpt lat="44.35289747225459" lon="10.283034126282677"><ele>708.25</ele><time>2026-04-18T10:10:03Z</time></trkpt><trkpt lat="44.35277729969121" lon="10.283152622759523"><ele>710.5</ele><time>2026-04-18T10:10:04.001Z</time></trkpt><trkpt lat="44.35267348537509" lon="10.283303977088119"><ele>712.75</ele><time>2026-04-18T10:10:05.001Z</time></trkpt><trkpt lat="44.35263216275555" lon="10.283452891076434"><ele>715.0</ele><time>2026-04-18T10:10:06.001Z</time></trkpt><trkpt lat="44.35261857776149" lon="10.283651517541802"><ele>719.3333333333334</ele><time>2026-04-18T10:10:07.001Z</time></trkpt><trkpt lat="44.3525784677305" lon="10.2839369349523"><ele>723.6666666666666</ele><time>2026-04-18T10:10:08.001Z</time></trkpt><trkpt lat="44.352563753098835" lon="10.284264032726046"><ele>728.0</ele><time>2026-04-18T10:10:09.001Z</time></trkpt><trkpt lat="44.3525660212175" lon="10.28462146528692"><ele>730.0</ele><time>2026-04-18T10:10:10.001Z</time></trkpt><trkpt lat="44.35256992846867" lon="10.284969896432171"><ele>732.0</ele><time>2026-04-18T10:10:11.001Z</time></trkpt><trkpt lat="44.35257134775632" lon="10.285226542177465"><ele>734.0</ele><time>2026-04-18T10:10:12.001Z</time></trkpt><trkpt lat="44.35256870200241" lon="10.28541051087937"><ele>734.0</ele><time>2026-04-18T10:10:13.001Z</time></trkpt><trkpt lat="44.352545338838816" lon="10.285549903741577"><ele>734.0</ele><time>2026-04-18T10:10:14.001Z</time></trkpt><trkpt lat="44.35250960749701" lon="10.28564708385973"><ele>734.0</ele><time>2026-04-18T10:10:15.001Z</time></trkpt><trkpt lat="44.352373011691434" lon="10.285696108299314"><ele>734.0</ele><time>2026-04-18T10:10:16.001Z</time></trkpt><trkpt lat="44.352242076179" lon="10.28582192261766"><ele>734.6666666666666</ele><time>2026-04-18T10:10:17.001Z</time></trkpt><trkpt lat="44.352103087758394" lon="10.285997276929855"><ele>735.3333333333334</ele><time>2026-04-18T10:10:18.001Z</time></trkpt><trkpt lat="44.35198943980999" lon="10.286205157993352"><ele>736.0</ele><time>2026-04-18T10:10:19.001Z</time></trkpt><trkpt lat="44.351935312048774" lon="10.286398171035273"><ele>738.0</ele><time>2026-04-18T10:10:20.001Z</time></trkpt><trkpt lat="44.35191255138885" lon="10.286605776281798"><ele>740.0</ele><time>2026-04-18T10:10:21.001Z</time></trkpt><trkpt lat="44.35191950461023" lon="10.28679386030916"><ele>742.0</ele><time>2026-04-18T10:10:22Z</time></trkpt><trkpt lat="44.35196257512344" lon="10.286968836457785"><ele>744.0</ele><time>2026-04-18T10:10:23Z</time></trkpt><trkpt lat="44.3520700419084" lon="10.287204785156598"><ele>746.0</ele><time>2026-04-18T10:10:24Z</time></trkpt><trkpt lat="44.35219953517966" lon="10.287510664856237"><ele>748.0</ele><time>2026-04-18T10:10:25Z</time></trkpt><trkpt lat="44.3523234196099" lon="10.28778261454726"><ele>748.25</ele><time>2026-04-18T10:10:26Z</time></trkpt><trkpt lat="44.352418061972685" lon="10.287953520986575"><ele>748.5</ele><time>2026-04-18T10:10:27Z</time></trkpt><trkpt lat="44.352494796106" lon="10.288072658914572"><ele>748.75</ele><time>2026-04-18T10:10:28Z</time></trkpt><trkpt lat="44.35260903601731" lon="10.288166601270666"><ele>749.0</ele><time>2026-04-18T10:10:29Z</time></trkpt><trkpt lat="44.35274810450259" lon="10.288210988933653"><ele>749.0</ele><time>2026-04-18T10:10:30Z</time></trkpt><trkpt lat="44.352883707035325" lon="10.28819183795583"><ele>749.0</ele><time>2026-04-18T10:10:31Z</time></trkpt><trkpt lat="44.35302312628513" lon="10.288099806158094"><ele>749.0</ele><time>2026-04-18T10:10:32Z</time></trkpt><trkpt lat="44.35315759163375" lon="10.287966921248374"><ele>751.25</ele><time>2026-04-18T10:10:33Z</time></trkpt><trkpt lat="44.35327727957744" lon="10.287930968893614"><ele>753.5</ele><time>2026-04-18T10:10:34Z</time></trkpt><trkpt lat="44.353369227822704" lon="10.288006215916994"><ele>755.75</ele><time>2026-04-18T10:10:35Z</time></trkpt><trkpt lat="44.353448297551104" lon="10.28814249948903"><ele>758.0</ele><time>2026-04-18T10:10:36Z</time></trkpt><trkpt lat="44.35356820832662" lon="10.288317803937359"><ele>758.0</ele><time>2026-04-18T10:10:37Z</time></trkpt><trkpt lat="44.35372492447057" lon="10.288540540664739"><ele>758.0</ele><time>2026-04-18T10:10:38Z</time></trkpt><trkpt lat="44.35387856172826" lon="10.288766595614256"><ele>758.0</ele><time>2026-04-18T10:10:39Z</time></trkpt><trkpt lat="44.35395875989212" lon="10.288981458048006"><ele>761.0</ele><time>2026-04-18T10:10:40Z</time></trkpt><trkpt lat="44.35401348950185" lon="10.289184015656257"><ele>764.0</ele><time>2026-04-18T10:10:41Z</time></trkpt><trkpt lat="44.35405795937403" lon="10.289365617683277"><ele>767.0</ele><time>2026-04-18T10:10:42Z</time></trkpt><trkpt lat="44.35413875386946" lon="10.28951704281658"><ele>770.0</ele><time>2026-04-18T10:10:43Z</time></trkpt><trkpt lat="44.35424050653228" lon="10.289642681066486"><ele>770.0</ele><time>2026-04-18T10:10:44Z</time></trkpt><trkpt lat="44.35438633873137" lon="10.289702040937586"><ele>770.0</ele><time>2026-04-18T10:10:45Z</time></trkpt><trkpt lat="44.35456450362385" lon="10.289752595836449"><ele>770.0</ele><time>2026-04-18T10:10:46Z</time></trkpt><trkpt lat="44.354703841123246" lon="10.289816391749001"><ele>772.5</ele><time>2026-04-18T10:10:47Z</time></trkpt><trkpt lat="44.35478337229401" lon="10.28995540781916"><ele>775.0</ele><time>2026-04-18T10:10:48Z</time></trkpt><trkpt lat="44.3548469073645" lon="10.29012288199468"><ele>777.5</ele><time>2026-04-18T10:10:49Z</time></trkpt><trkpt lat="44.35488965730962" lon="10.29031892514883"><ele>780.0</ele><time>2026-04-18T10:10:50Z</time></trkpt><trkpt lat="44.354946972052524" lon="10.290490962936621"><ele>780.0</ele><time>2026-04-18T10:10:51Z</time></trkpt><trkpt lat="44.354973921414526" lon="10.290616693799386"><ele>780.0</ele><time>2026-04-18T10:10:52Z</time></trkpt><trkpt lat="44.35509690388055" lon="10.29064760171878"><ele>780.0</ele><time>2026-04-18T10:10:54Z</time></trkpt><trkpt lat="44.35517266328041" lon="10.29052571055759"><ele>780.0</ele><time>2026-04-18T10:10:55Z</time></trkpt><trkpt lat="44.355263712802554" lon="10.290450621257012"><ele>780.0</ele><time>2026-04-18T10:10:56Z</time></trkpt><trkpt lat="44.35534800757633" lon="10.29037872185907"><ele>780.0</ele><time>2026-04-18T10:10:57Z</time></trkpt><trkpt lat="44.35542249595812" lon="10.290336643335523"><ele>780.0</ele><time>2026-04-18T10:10:58Z</time></trkpt><trkpt lat="44.355502430462145" lon="10.290346011709236"><ele>780.0</ele><time>2026-04-18T10:10:59Z</time></trkpt><trkpt lat="44.355594098868366" lon="10.290398615306385"><ele>780.0</ele><time>2026-04-18T10:11:00Z</time></trkpt><trkpt lat="44.35570300118892" lon="10.290457462454293"><ele>780.0</ele><time>2026-04-18T10:11:01Z</time></trkpt><trkpt lat="44.355801826871705" lon="10.290535644437051"><ele>779.2</ele><time>2026-04-18T10:11:02Z</time></trkpt><trkpt lat="44.355875511623964" lon="10.290634536746467"><ele>778.4</ele><time>2026-04-18T10:11:03Z</time></trkpt><trkpt lat="44.355909976789505" lon="10.290765516532835"><ele>777.5999999999999</ele><time>2026-04-18T10:11:04Z</time></trkpt><trkpt lat="44.355915927822195" lon="10.290903625883809"><ele>776.8</ele><time>2026-04-18T10:11:05Z</time></trkpt><trkpt lat="44.355916546219845" lon="10.291055625983294"><ele>776.0</ele><time>2026-04-18T10:11:06Z</time></trkpt><trkpt lat="44.35591447245089" lon="10.29122145488025"><ele>776.0</ele><time>2026-04-18T10:11:07Z</time></trkpt><trkpt lat="44.355887850467944" lon="10.291374204985969"><ele>776.0</ele><time>2026-04-18T10:11:08Z</time></trkpt><trkpt lat="44.355865193590596" lon="10.291516878212407"><ele>776.0</ele><time>2026-04-18T10:11:09Z</time></trkpt><trkpt lat="44.355849922666124" lon="10.2916613303317"><ele>776.0</ele><time>2026-04-18T10:11:10Z</time></trkpt><trkpt lat="44.35583534523187" lon="10.291807119531613"><ele>776.0</ele><time>2026-04-18T10:11:11Z</time></trkpt><trkpt lat="44.355869105513904" lon="10.291961345721022"><ele>775.25</ele><time>2026-04-18T10:11:12Z</time></trkpt><trkpt lat="44.35592547840721" lon="10.292102281085128"><ele>774.5</ele><time>2026-04-18T10:11:13Z</time></trkpt><trkpt lat="44.35597762516433" lon="10.292243899606559"><ele>773.75</ele><time>2026-04-18T10:11:14Z</time></trkpt><trkpt lat="44.35602878318744" lon="10.292388115152509"><ele>773.0</ele><time>2026-04-18T10:11:15Z</time></trkpt><trkpt lat="44.35608864630793" lon="10.29251478863769"><ele>770.5</ele><time>2026-04-18T10:11:16Z</time></trkpt><trkpt lat="44.3561289344947" lon="10.292658162335368"><ele>768.0</ele><time>2026-04-18T10:11:17Z</time></trkpt><trkpt lat="44.356170302800855" lon="10.292805680857969"><ele>765.5</ele><time>2026-04-18T10:11:18Z</time></trkpt><trkpt lat="44.35621281354632" lon="10.292958584941536"><ele>763.0</ele><time>2026-04-18T10:11:19Z</time></trkpt><trkpt lat="44.356251831301904" lon="10.293114163717531"><ele>761.25</ele><time>2026-04-18T10:11:20Z</time></trkpt><trkpt lat="44.35629342269196" lon="10.2932601768248"><ele>759.5</ele><time>2026-04-18T10:11:21Z</time></trkpt><trkpt lat="44.35633913099782" lon="10.29342090065804"><ele>757.75</ele><time>2026-04-18T10:11:22Z</time></trkpt><trkpt lat="44.35639570638836" lon="10.29361057623419"><ele>756.0</ele><time>2026-04-18T10:11:23Z</time></trkpt><trkpt lat="44.35646253979768" lon="10.293821566068507"><ele>761.6666666666667</ele><time>2026-04-18T10:11:24Z</time></trkpt><trkpt lat="44.35652215969064" lon="10.294069458566923"><ele>767.3333333333334</ele><time>2026-04-18T10:11:25Z</time></trkpt><trkpt lat="44.35662704074373" lon="10.294306623916842"><ele>773.0</ele><time>2026-04-18T10:11:26Z</time></trkpt><trkpt lat="44.356702002204024" lon="10.294548239924708"><ele>773.0</ele><time>2026-04-18T10:11:27Z</time></trkpt><trkpt lat="44.35677336432567" lon="10.294744586434003"><ele>773.0</ele><time>2026-04-18T10:11:28Z</time></trkpt><trkpt lat="44.35683512183537" lon="10.294927315690666"><ele>773.0</ele><time>2026-04-18T10:11:29Z</time></trkpt><trkpt lat="44.35684041651171" lon="10.29515984701637"><ele>772.0</ele><time>2026-04-18T10:11:30.001Z</time></trkpt><trkpt lat="44.35682022526883" lon="10.295381091173326"><ele>771.0</ele><time>2026-04-18T10:11:31.001Z</time></trkpt><trkpt lat="44.35681973289076" lon="10.295635948688796"><ele>770.0</ele><time>2026-04-18T10:11:32.001Z</time></trkpt><trkpt lat="44.35681904419011" lon="10.295902264142816"><ele>769.6666666666667</ele><time>2026-04-18T10:11:33.001Z</time></trkpt><trkpt lat="44.35688329582424" lon="10.296128809798178"><ele>769.3333333333333</ele><time>2026-04-18T10:11:34.001Z</time></trkpt><trkpt lat="44.35698691442179" lon="10.296399028203506"><ele>769.0</ele><time>2026-04-18T10:11:35.001Z</time></trkpt><trkpt lat="44.35709535415157" lon="10.296722510683393"><ele>767.5</ele><time>2026-04-18T10:11:36.001Z</time></trkpt><trkpt lat="44.357158587732066" lon="10.29706971436221"><ele>766.0</ele><time>2026-04-18T10:11:37.001Z</time></trkpt><trkpt lat="44.35720624922045" lon="10.297421411366232"><ele>773.3333333333334</ele><time>2026-04-18T10:11:38.001Z</time></trkpt><trkpt lat="44.35725019757133" lon="10.297708160126199"><ele>780.6666666666667</ele><time>2026-04-18T10:11:39.001Z</time></trkpt><trkpt lat="44.357285610350445" lon="10.297918297131337"><ele>788.0</ele><time>2026-04-18T10:11:40.001Z</time></trkpt><trkpt lat="44.3573024621764" lon="10.298068536416396"><ele>790.5999999999999</ele><time>2026-04-18T10:11:41.001Z</time></trkpt><trkpt lat="44.3572817694581" lon="10.298188855029828"><ele>793.1999999999999</ele><time>2026-04-18T10:11:42.001Z</time></trkpt><trkpt lat="44.35723209927268" lon="10.298305313249957"><ele>795.8</ele><time>2026-04-18T10:11:43.001Z</time></trkpt><trkpt lat="44.3571374873079" lon="10.298418571733711"><ele>798.4</ele><time>2026-04-18T10:11:44.001Z</time></trkpt><trkpt lat="44.35705218034905" lon="10.298545769176528"><ele>801.0</ele><time>2026-04-18T10:11:45.001Z</time></trkpt><trkpt lat="44.356992202614244" lon="10.29870639296951"><ele>794.0</ele><time>2026-04-18T10:11:46.001Z</time></trkpt><trkpt lat="44.35697082162255" lon="10.298942249174248"><ele>787.0</ele><time>2026-04-18T10:11:47.001Z</time></trkpt><trkpt lat="44.356912688473535" lon="10.299170135092334"><ele>780.0</ele><time>2026-04-18T10:11:48.001Z</time></trkpt><trkpt lat="44.35686476053575" lon="10.29937250402111"><ele>780.0</ele><time>2026-04-18T10:11:49.001Z</time></trkpt><trkpt lat="44.356824277481955" lon="10.299502596169814"><ele>780.0</ele><time>2026-04-18T10:11:50.001Z</time></trkpt><trkpt lat="44.356890845409026" lon="10.299677269402112"><ele>780.0</ele><time>2026-04-18T10:11:51.001Z</time></trkpt><trkpt lat="44.35699711455541" lon="10.299877204627498"><ele>780.0</ele><time>2026-04-18T10:11:52.001Z</time></trkpt><trkpt lat="44.35714415566325" lon="10.300125722179928"><ele>787.5</ele><time>2026-04-18T10:11:53.001Z</time></trkpt><trkpt lat="44.3572867982156" lon="10.300400218237995"><ele>795.0</ele><time>2026-04-18T10:11:54.001Z</time></trkpt><trkpt lat="44.3574144864313" lon="10.300630789325258"><ele>795.0</ele><time>2026-04-18T10:11:55.001Z</time></trkpt><trkpt lat="44.357531963272336" lon="10.300802272143684"><ele>795.0</ele><time>2026-04-18T10:11:56.001Z</time></trkpt><trkpt lat="44.35760842597041" lon="10.300936497668578"><ele>795.0</ele><time>2026-04-18T10:11:57.001Z</time></trkpt><trkpt lat="44.357776971852616" lon="10.301063069573093"><ele>795.0</ele><time>2026-04-18T10:11:58.001Z</time></trkpt><trkpt lat="44.35798352125303" lon="10.301182144780352"><ele>795.0</ele><time>2026-04-18T10:11:59.001Z</time></trkpt><trkpt lat="44.358153975281105" lon="10.301263513981466"><ele>795.0</ele><time>2026-04-18T10:12:00.001Z</time></trkpt><trkpt lat="44.35832224449828" lon="10.301291518391835"><ele>809.0</ele><time>2026-04-18T10:12:01.001Z</time></trkpt><trkpt lat="44.358563584523765" lon="10.301299489504803"><ele>823.0</ele><time>2026-04-18T10:12:02.001Z</time></trkpt><trkpt lat="44.358835158659545" lon="10.301302768372558"><ele>827.0</ele><time>2026-04-18T10:12:03.001Z</time></trkpt><trkpt lat="44.359071207708105" lon="10.301258356690704"><ele>831.0</ele><time>2026-04-18T10:12:04.001Z</time></trkpt><trkpt lat="44.359263555948765" lon="10.301213437320866"><ele>835.0</ele><time>2026-04-18T10:12:05.001Z</time></trkpt><trkpt lat="44.35942883989919" lon="10.301194001571455"><ele>835.0</ele><time>2026-04-18T10:12:06.001Z</time></trkpt><trkpt lat="44.35961078105168" lon="10.301229784788344"><ele>835.0</ele><time>2026-04-18T10:12:07.001Z</time></trkpt><trkpt lat="44.359791927063256" lon="10.30130281701481"><ele>835.0</ele><time>2026-04-18T10:12:08.001Z</time></trkpt><trkpt lat="44.35995374481117" lon="10.301377898414614"><ele>834.25</ele><time>2026-04-18T10:12:09.001Z</time></trkpt><trkpt lat="44.36006961767454" lon="10.301417437909796"><ele>833.5</ele><time>2026-04-18T10:12:10.001Z</time></trkpt><trkpt lat="44.36019650284985" lon="10.301393586742968"><ele>832.75</ele><time>2026-04-18T10:12:11.001Z</time></trkpt><trkpt lat="44.360348283177956" lon="10.301297046619469"><ele>832.0</ele><time>2026-04-18T10:12:12.001Z</time></trkpt><trkpt lat="44.36053323785529" lon="10.301137535226811"><ele>832.0</ele><time>2026-04-18T10:12:13.001Z</time></trkpt><trkpt lat="44.36070132643589" lon="10.30095638597367"><ele>832.0</ele><time>2026-04-18T10:12:14.001Z</time></trkpt><trkpt lat="44.36083873695211" lon="10.300832360971972"><ele>832.0</ele><time>2026-04-18T10:12:15.001Z</time></trkpt><trkpt lat="44.360933751651" lon="10.300768567502482"><ele>832.0</ele><time>2026-04-18T10:12:16.001Z</time></trkpt><trkpt lat="44.36100871057811" lon="10.300745797049434"><ele>832.0</ele><time>2026-04-18T10:12:17.001Z</time></trkpt><trkpt lat="44.36109627070817" lon="10.300788452075933"><ele>832.0</ele><time>2026-04-18T10:12:18.001Z</time></trkpt><trkpt lat="44.361252021740526" lon="10.30087709127817"><ele>832.0</ele><time>2026-04-18T10:12:19.001Z</time></trkpt><trkpt lat="44.36144458493908" lon="10.300979086224528"><ele>835.0</ele><time>2026-04-18T10:12:20.001Z</time></trkpt><trkpt lat="44.3616360946292" lon="10.301017870074938"><ele>838.0</ele><time>2026-04-18T10:12:21.001Z</time></trkpt><trkpt lat="44.36183290064413" lon="10.301050524913974"><ele>841.0</ele><time>2026-04-18T10:12:22.001Z</time></trkpt><trkpt lat="44.36201311942733" lon="10.301067208863634"><ele>846.0</ele><time>2026-04-18T10:12:23.001Z</time></trkpt><trkpt lat="44.362253519045254" lon="10.301040958526281"><ele>851.0</ele><time>2026-04-18T10:12:24.001Z</time></trkpt><trkpt lat="44.36247327042812" lon="10.300979306613238"><ele>851.0</ele><time>2026-04-18T10:12:25.001Z</time></trkpt><trkpt lat="44.362645231902434" lon="10.300944340429972"><ele>851.0</ele><time>2026-04-18T10:12:26.001Z</time></trkpt><trkpt lat="44.36277366752123" lon="10.300970696041519"><ele>851.0</ele><time>2026-04-18T10:12:27.001Z</time></trkpt><trkpt lat="44.362895754878316" lon="10.301017786117107"><ele>851.0</ele><time>2026-04-18T10:12:28.001Z</time></trkpt><trkpt lat="44.36305936853621" lon="10.301090411048465"><ele>848.5</ele><time>2026-04-18T10:12:29.001Z</time></trkpt><trkpt lat="44.36323417266887" lon="10.30125975769653"><ele>846.0</ele><time>2026-04-18T10:12:30.001Z</time></trkpt><trkpt lat="44.36345078917961" lon="10.301433757290713"><ele>847.6666666666667</ele><time>2026-04-18T10:12:31.001Z</time></trkpt><trkpt lat="44.36365660450782" lon="10.301612871175372"><ele>849.3333333333334</ele><time>2026-04-18T10:12:32.001Z</time></trkpt><trkpt lat="44.36382341391766" lon="10.301772920049375"><ele>851.0</ele><time>2026-04-18T10:12:33.001Z</time></trkpt><trkpt lat="44.36396575007788" lon="10.301873853556895"><ele>851.0</ele><time>2026-04-18T10:12:34.001Z</time></trkpt><trkpt lat="44.36408010948179" lon="10.302002816964924"><ele>851.0</ele><time>2026-04-18T10:12:35.001Z</time></trkpt><trkpt lat="44.36420261309216" lon="10.30208982663608"><ele>851.0</ele><time>2026-04-18T10:12:36.001Z</time></trkpt><trkpt lat="44.364310370880915" lon="10.302189607363065"><ele>851.0</ele><time>2026-04-18T10:12:37.001Z</time></trkpt><trkpt lat="44.36440744421631" lon="10.302271615314632"><ele>852.0</ele><time>2026-04-18T10:12:38.001Z</time></trkpt><trkpt lat="44.364502907317274" lon="10.30231470477642"><ele>853.0</ele><time>2026-04-18T10:12:39.001Z</time></trkpt><trkpt lat="44.36458797229587" lon="10.302375914707438"><ele>853.9999999999999</ele><time>2026-04-18T10:12:40.001Z</time></trkpt><trkpt lat="44.36465846811616" lon="10.302474362104745"><ele>855.0</ele><time>2026-04-18T10:12:41.001Z</time></trkpt><trkpt lat="44.36471589765667" lon="10.302579023594538"><ele>856.0</ele><time>2026-04-18T10:12:42.001Z</time></trkpt><trkpt lat="44.36476749534135" lon="10.302673970893066"><ele>855.9999999999999</ele><time>2026-04-18T10:12:43.001Z</time></trkpt><trkpt lat="44.364806961997495" lon="10.302773856293728"><ele>856.0</ele><time>2026-04-18T10:12:44.001Z</time></trkpt><trkpt lat="44.36481180917854" lon="10.302884143049397"><ele>856.0</ele><time>2026-04-18T10:12:45.001Z</time></trkpt><trkpt lat="44.36477962936488" lon="10.302982979302003"><ele>856.0</ele><time>2026-04-18T10:12:46.001Z</time></trkpt><trkpt lat="44.36472333137022" lon="10.303070857896277"><ele>855.9999999999999</ele><time>2026-04-18T10:12:47.001Z</time></trkpt><trkpt lat="44.36465961215547" lon="10.303158838542354"><ele>856.0</ele><time>2026-04-18T10:12:48.001Z</time></trkpt><trkpt lat="44.364595682336436" lon="10.303265324973017"><ele>851.1999999999999</ele><time>2026-04-18T10:12:49.001Z</time></trkpt><trkpt lat="44.364536716368136" lon="10.303391724736331"><ele>846.3999999999999</ele><time>2026-04-18T10:12:50.001Z</time></trkpt><trkpt lat="44.36450496911628" lon="10.303519788556592"><ele>841.6</ele><time>2026-04-18T10:12:51.001Z</time></trkpt><trkpt lat="44.3644978613678" lon="10.303641788843835"><ele>836.8</ele><time>2026-04-18T10:12:52Z</time></trkpt><trkpt lat="44.3644819163618" lon="10.303772886672146"><ele>832.0</ele><time>2026-04-18T10:12:53Z</time></trkpt><trkpt lat="44.36450048173736" lon="10.303909252310467"><ele>831.0</ele><time>2026-04-18T10:12:54Z</time></trkpt><trkpt lat="44.36453639632765" lon="10.304037694726247"><ele>830.0</ele><time>2026-04-18T10:12:55Z</time></trkpt><trkpt lat="44.36459488647344" lon="10.304160825052968"><ele>829.0</ele><time>2026-04-18T10:12:56Z</time></trkpt><trkpt lat="44.36464918099458" lon="10.304257056266106"><ele>828.0</ele><time>2026-04-18T10:12:57Z</time></trkpt><trkpt lat="44.36469730076867" lon="10.304353276722669"><ele>827.0</ele><time>2026-04-18T10:12:58Z</time></trkpt><trkpt lat="44.364739510222144" lon="10.304456974843665"><ele>834.4000000000001</ele><time>2026-04-18T10:12:59Z</time></trkpt><trkpt lat="44.36475800763267" lon="10.304576665427058"><ele>841.8000000000001</ele><time>2026-04-18T10:13:00Z</time></trkpt><trkpt lat="44.364767915884634" lon="10.304704202500337"><ele>849.2</ele><time>2026-04-18T10:13:01Z</time></trkpt><trkpt lat="44.364771281793686" lon="10.304849953267787"><ele>856.6</ele><time>2026-04-18T10:13:02Z</time></trkpt><trkpt lat="44.36477047545616" lon="10.305032230391648"><ele>864.0</ele><time>2026-04-18T10:13:03Z</time></trkpt><trkpt lat="44.364768548239766" lon="10.305230845179624"><ele>864.3333333333333</ele><time>2026-04-18T10:13:04Z</time></trkpt><trkpt lat="44.364764718663466" lon="10.305444357144005"><ele>864.6666666666666</ele><time>2026-04-18T10:13:05Z</time></trkpt><trkpt lat="44.36477132822772" lon="10.305679874707177"><ele>865.0</ele><time>2026-04-18T10:13:06Z</time></trkpt><trkpt lat="44.36480433468626" lon="10.305929817510084"><ele>863.6666666666666</ele><time>2026-04-18T10:13:07Z</time></trkpt><trkpt lat="44.36484658398179" lon="10.30617974471119"><ele>862.3333333333333</ele><time>2026-04-18T10:13:08Z</time></trkpt><trkpt lat="44.36488921916064" lon="10.306427235705659"><ele>861.0</ele><time>2026-04-18T10:13:09Z</time></trkpt><trkpt lat="44.3649332633757" lon="10.30666141784846"><ele>859.5</ele><time>2026-04-18T10:13:10Z</time></trkpt><trkpt lat="44.36497391795201" lon="10.306882262943569"><ele>858.0</ele><time>2026-04-18T10:13:11Z</time></trkpt><trkpt lat="44.36499913829044" lon="10.307089861340348"><ele>856.5</ele><time>2026-04-18T10:13:12Z</time></trkpt><trkpt lat="44.36500455344949" lon="10.307279458185688"><ele>855.0</ele><time>2026-04-18T10:13:13Z</time></trkpt><trkpt lat="44.364977257848984" lon="10.307544884849774"><ele>855.0</ele><time>2026-04-18T10:13:14Z</time></trkpt><trkpt lat="44.36494734835963" lon="10.307802050028105"><ele>855.0</ele><time>2026-04-18T10:13:15Z</time></trkpt><trkpt lat="44.36493801575823" lon="10.308038144111912"><ele>855.0</ele><time>2026-04-18T10:13:16Z</time></trkpt><trkpt lat="44.364930421439865" lon="10.308237857291445"><ele>855.6666666666667</ele><time>2026-04-18T10:13:17.001Z</time></trkpt><trkpt lat="44.364966207053335" lon="10.30846052916027"><ele>856.3333333333334</ele><time>2026-04-18T10:13:18.001Z</time></trkpt><trkpt lat="44.36505525053219" lon="10.308702779916928"><ele>857.0</ele><time>2026-04-18T10:13:19.001Z</time></trkpt><trkpt lat="44.36513702311903" lon="10.308967945711101"><ele>855.5</ele><time>2026-04-18T10:13:20.001Z</time></trkpt><trkpt lat="44.365202093665005" lon="10.309101940105688"><ele>854.0</ele><time>2026-04-18T10:13:21.001Z</time></trkpt><trkpt lat="44.36528777743081" lon="10.30923771827655"><ele>852.5</ele><time>2026-04-18T10:13:22.001Z</time></trkpt><trkpt lat="44.365419914978304" lon="10.309382016114448"><ele>851.0</ele><time>2026-04-18T10:13:23.001Z</time></trkpt><trkpt lat="44.365590872930525" lon="10.30951324893628"><ele>854.6666666666667</ele><time>2026-04-18T10:13:24.001Z</time></trkpt><trkpt lat="44.365765252256246" lon="10.309634042846227"><ele>858.3333333333333</ele><time>2026-04-18T10:13:25.001Z</time></trkpt><trkpt lat="44.36589319828996" lon="10.309747625596573"><ele>862.0</ele><time>2026-04-18T10:13:26.001Z</time></trkpt><trkpt lat="44.36596517263111" lon="10.309884620116197"><ele>862.0</ele><time>2026-04-18T10:13:27.001Z</time></trkpt><trkpt lat="44.366002733702025" lon="10.310009545746126"><ele>862.0</ele><time>2026-04-18T10:13:28.001Z</time></trkpt><trkpt lat="44.366048123789476" lon="10.310144683605804"><ele>862.0</ele><time>2026-04-18T10:13:29.001Z</time></trkpt><trkpt lat="44.366127254525324" lon="10.31027344985738"><ele>862.0</ele><time>2026-04-18T10:13:30.001Z</time></trkpt><trkpt lat="44.36621684762685" lon="10.31037669065547"><ele>862.0</ele><time>2026-04-18T10:13:31.001Z</time></trkpt><trkpt lat="44.36632525721469" lon="10.310437387586289"><ele>860.75</ele><time>2026-04-18T10:13:32.001Z</time></trkpt><trkpt lat="44.36643720452034" lon="10.310474557586941"><ele>859.5</ele><time>2026-04-18T10:13:33.001Z</time></trkpt><trkpt lat="44.3665653932907" lon="10.310507259803485"><ele>858.25</ele><time>2026-04-18T10:13:34.001Z</time></trkpt><trkpt lat="44.36670422057071" lon="10.31053238878627"><ele>857.0</ele><time>2026-04-18T10:13:35.001Z</time></trkpt><trkpt lat="44.366831839786826" lon="10.31058380337021"><ele>857.0</ele><time>2026-04-18T10:13:36.001Z</time></trkpt><trkpt lat="44.366943783595985" lon="10.310668556794191"><ele>857.0</ele><time>2026-04-18T10:13:37.001Z</time></trkpt><trkpt lat="44.36706419982689" lon="10.310783629731215"><ele>857.0</ele><time>2026-04-18T10:13:38.001Z</time></trkpt><trkpt lat="44.36719532342955" lon="10.31086614394697"><ele>857.0</ele><time>2026-04-18T10:13:39.001Z</time></trkpt><trkpt lat="44.36733226730902" lon="10.31092068356938"><ele>865.3333333333334</ele><time>2026-04-18T10:13:40.001Z</time></trkpt><trkpt lat="44.36751893885375" lon="10.310894126070961"><ele>873.6666666666667</ele><time>2026-04-18T10:13:41.001Z</time></trkpt><trkpt lat="44.367686251589156" lon="10.310864438168515"><ele>882.0</ele><time>2026-04-18T10:13:42.001Z</time></trkpt><trkpt lat="44.36781739166596" lon="10.310879498543379"><ele>882.0</ele><time>2026-04-18T10:13:43.001Z</time></trkpt><trkpt lat="44.36790228686097" lon="10.310928579983226"><ele>882.0</ele><time>2026-04-18T10:13:44.001Z</time></trkpt><trkpt lat="44.367984371137254" lon="10.311010394945978"><ele>882.0</ele><time>2026-04-18T10:13:45.001Z</time></trkpt><trkpt lat="44.36802192843823" lon="10.311142123235083"><ele>882.0</ele><time>2026-04-18T10:13:46.001Z</time></trkpt><trkpt lat="44.36802808933141" lon="10.311299794805317"><ele>882.0</ele><time>2026-04-18T10:13:47.001Z</time></trkpt><trkpt lat="44.368022463097525" lon="10.311474344252533"><ele>874.0</ele><time>2026-04-18T10:13:48.001Z</time></trkpt><trkpt lat="44.368011587824896" lon="10.311676986041496"><ele>866.0</ele><time>2026-04-18T10:13:49.001Z</time></trkpt><trkpt lat="44.36799261677188" lon="10.31190805369322"><ele>858.0</ele><time>2026-04-18T10:13:50.001Z</time></trkpt><trkpt lat="44.367978933244764" lon="10.312144041628391"><ele>857.25</ele><time>2026-04-18T10:13:51.001Z</time></trkpt><trkpt lat="44.3679562118348" lon="10.312327165995274"><ele>856.5</ele><time>2026-04-18T10:13:52.001Z</time></trkpt><trkpt lat="44.36795372074655" lon="10.312477500486326"><ele>855.75</ele><time>2026-04-18T10:13:53.001Z</time></trkpt><trkpt lat="44.36799808587223" lon="10.31262315225889"><ele>855.0</ele><time>2026-04-18T10:13:54.001Z</time></trkpt><trkpt lat="44.36808901032209" lon="10.312735253325249"><ele>862.6666666666667</ele><time>2026-04-18T10:13:55.001Z</time></trkpt><trkpt lat="44.36823616380089" lon="10.312769560211647"><ele>870.3333333333334</ele><time>2026-04-18T10:13:56.001Z</time></trkpt><trkpt lat="44.368416965548604" lon="10.312779870365512"><ele>878.0</ele><time>2026-04-18T10:13:57.001Z</time></trkpt><trkpt lat="44.36864499514301" lon="10.312812117285382"><ele>882.5</ele><time>2026-04-18T10:13:58.001Z</time></trkpt><trkpt lat="44.36892877345473" lon="10.312862538827883"><ele>887.0</ele><time>2026-04-18T10:13:59.001Z</time></trkpt><trkpt lat="44.36922452185755" lon="10.312913766651276"><ele>887.0</ele><time>2026-04-18T10:14:00.001Z</time></trkpt><trkpt lat="44.369483052343625" lon="10.312954306299883"><ele>887.0</ele><time>2026-04-18T10:14:01.001Z</time></trkpt><trkpt lat="44.36968823095765" lon="10.312988974972486"><ele>888.3333333333334</ele><time>2026-04-18T10:14:02.001Z</time></trkpt><trkpt lat="44.36987207963468" lon="10.313018624152752"><ele>889.6666666666667</ele><time>2026-04-18T10:14:03.001Z</time></trkpt><trkpt lat="44.37002903858094" lon="10.313044095946514"><ele>891.0</ele><time>2026-04-18T10:14:04.001Z</time></trkpt><trkpt lat="44.37015515700663" lon="10.313089237819792"><ele>891.75</ele><time>2026-04-18T10:14:05.001Z</time></trkpt><trkpt lat="44.37026083799225" lon="10.313166755496786"><ele>892.5</ele><time>2026-04-18T10:14:06.001Z</time></trkpt><trkpt lat="44.37037375056912" lon="10.313296562698714"><ele>893.25</ele><time>2026-04-18T10:14:07.001Z</time></trkpt><trkpt lat="44.3704857698124" lon="10.313439130643005"><ele>894.0</ele><time>2026-04-18T10:14:08.001Z</time></trkpt><trkpt lat="44.370615757702225" lon="10.313601005845642"><ele>894.0</ele><time>2026-04-18T10:14:09.001Z</time></trkpt><trkpt lat="44.37077507754718" lon="10.313772036975433"><ele>894.0</ele><time>2026-04-18T10:14:10.001Z</time></trkpt><trkpt lat="44.37091700985887" lon="10.313962312222735"><ele>894.0</ele><time>2026-04-18T10:14:11.001Z</time></trkpt><trkpt lat="44.371040755100296" lon="10.314113220310412"><ele>890.3333333333333</ele><time>2026-04-18T10:14:12.001Z</time></trkpt><trkpt lat="44.371170399871694" lon="10.314229126995691"><ele>886.6666666666666</ele><time>2026-04-18T10:14:13.001Z</time></trkpt><trkpt lat="44.371326665415666" lon="10.314310708011458"><ele>883.0</ele><time>2026-04-18T10:14:14.001Z</time></trkpt><trkpt lat="44.37149350952862" lon="10.314328872026197"><ele>883.0</ele><time>2026-04-18T10:14:15.001Z</time></trkpt><trkpt lat="44.3716627851562" lon="10.314296670221339"><ele>883.0</ele><time>2026-04-18T10:14:16.001Z</time></trkpt><trkpt lat="44.37182674249819" lon="10.314190200298667"><ele>883.0</ele><time>2026-04-18T10:14:17.001Z</time></trkpt><trkpt lat="44.37195125417257" lon="10.314180346617023"><ele>883.0</ele><time>2026-04-18T10:14:18.001Z</time></trkpt><trkpt lat="44.37203509817271" lon="10.31420552273473"><ele>883.0</ele><time>2026-04-18T10:14:19.001Z</time></trkpt><trkpt lat="44.37212672708953" lon="10.314294860760521"><ele>883.0</ele><time>2026-04-18T10:14:20.001Z</time></trkpt><trkpt lat="44.372272972406215" lon="10.314434959169258"><ele>883.0</ele><time>2026-04-18T10:14:21.001Z</time></trkpt><trkpt lat="44.372470316005945" lon="10.314608224860176"><ele>881.0</ele><time>2026-04-18T10:14:22.001Z</time></trkpt><trkpt lat="44.37269623611229" lon="10.31483500824696"><ele>879.0</ele><time>2026-04-18T10:14:23.001Z</time></trkpt><trkpt lat="44.372860490864234" lon="10.315018971774842"><ele>879.0</ele><time>2026-04-18T10:14:24.001Z</time></trkpt><trkpt lat="44.37300187474319" lon="10.315234600955"><ele>879.0</ele><time>2026-04-18T10:14:25.001Z</time></trkpt><trkpt lat="44.373132325748564" lon="10.315431936869905"><ele>879.0</ele><time>2026-04-18T10:14:26.001Z</time></trkpt><trkpt lat="44.373226887717834" lon="10.315579147425202"><ele>881.25</ele><time>2026-04-18T10:14:27.001Z</time></trkpt><trkpt lat="44.37328138963737" lon="10.315683989577554"><ele>883.5</ele><time>2026-04-18T10:14:28.001Z</time></trkpt><trkpt lat="44.37331616072438" lon="10.315829702799041"><ele>885.75</ele><time>2026-04-18T10:14:29.001Z</time></trkpt><trkpt lat="44.37333874804749" lon="10.316033648442287"><ele>888.0</ele><time>2026-04-18T10:14:30.001Z</time></trkpt><trkpt lat="44.37335256902247" lon="10.316230823141664"><ele>888.0</ele><time>2026-04-18T10:14:31.001Z</time></trkpt><trkpt lat="44.37327508916615" lon="10.316383067011962"><ele>888.0</ele><time>2026-04-18T10:14:32.001Z</time></trkpt><trkpt lat="44.37316465196486" lon="10.316592608168419"><ele>888.0</ele><time>2026-04-18T10:14:33.001Z</time></trkpt><trkpt lat="44.373035433233404" lon="10.316775438567268"><ele>886.25</ele><time>2026-04-18T10:14:34Z</time></trkpt><trkpt lat="44.37292632682669" lon="10.31692408091524"><ele>884.5</ele><time>2026-04-18T10:14:35Z</time></trkpt><trkpt lat="44.372827131974795" lon="10.317002615914932"><ele>882.75</ele><time>2026-04-18T10:14:36Z</time></trkpt><trkpt lat="44.37269732800556" lon="10.316995080912742"><ele>881.0</ele><time>2026-04-18T10:14:37Z</time></trkpt><trkpt lat="44.37250282741385" lon="10.317012827593638"><ele>881.0</ele><time>2026-04-18T10:14:38Z</time></trkpt><trkpt lat="44.372271668316394" lon="10.317013506520098"><ele>881.0</ele><time>2026-04-18T10:14:39Z</time></trkpt><trkpt lat="44.37201618319317" lon="10.317046204771911"><ele>877.0</ele><time>2026-04-18T10:14:40Z</time></trkpt><trkpt lat="44.37173843272784" lon="10.317072911523015"><ele>873.0</ele><time>2026-04-18T10:14:41Z</time></trkpt><trkpt lat="44.371489526821776" lon="10.317115758116005"><ele>869.3333333333333</ele><time>2026-04-18T10:14:42Z</time></trkpt><trkpt lat="44.371273189653266" lon="10.317121128793586"><ele>865.6666666666666</ele><time>2026-04-18T10:14:43Z</time></trkpt><trkpt lat="44.37112697378792" lon="10.317149208953603"><ele>862.0</ele><time>2026-04-18T10:14:44Z</time></trkpt><trkpt lat="44.37101284223884" lon="10.317192017832538"><ele>868.6666666666666</ele><time>2026-04-18T10:14:45Z</time></trkpt><trkpt lat="44.37087605109434" lon="10.317328559766246"><ele>875.3333333333333</ele><time>2026-04-18T10:14:46Z</time></trkpt><trkpt lat="44.37076204612062" lon="10.317537262295064"><ele>882.0</ele><time>2026-04-18T10:14:47Z</time></trkpt><trkpt lat="44.370657093988214" lon="10.317829159042564"><ele>878.5</ele><time>2026-04-18T10:14:48Z</time></trkpt><trkpt lat="44.37055053425692" lon="10.318148003843703"><ele>875.0</ele><time>2026-04-18T10:14:49Z</time></trkpt><trkpt lat="44.37040724890732" lon="10.31839741013352"><ele>875.0</ele><time>2026-04-18T10:14:50Z</time></trkpt><trkpt lat="44.370249520235696" lon="10.31860896885046"><ele>875.0</ele><time>2026-04-18T10:14:51Z</time></trkpt><trkpt lat="44.37002270958972" lon="10.318866388249905"><ele>868.5</ele><time>2026-04-18T10:14:52Z</time></trkpt><trkpt lat="44.369818827117385" lon="10.319072846122204"><ele>862.0</ele><time>2026-04-18T10:14:53Z</time></trkpt><trkpt lat="44.36965318042202" lon="10.31924827876042"><ele>862.0</ele><time>2026-04-18T10:14:54Z</time></trkpt><trkpt lat="44.369518373301524" lon="10.319422206139388"><ele>862.0</ele><time>2026-04-18T10:14:55Z</time></trkpt><trkpt lat="44.369427703208935" lon="10.319567101616304"><ele>862.0</ele><time>2026-04-18T10:14:56Z</time></trkpt><trkpt lat="44.369358936536614" lon="10.319761244601217"><ele>867.0</ele><time>2026-04-18T10:14:57Z</time></trkpt><trkpt lat="44.36933863707372" lon="10.319995042949802"><ele>872.0</ele><time>2026-04-18T10:14:58Z</time></trkpt><trkpt lat="44.369348435091986" lon="10.320227823852694"><ele>877.0</ele><time>2026-04-18T10:14:59Z</time></trkpt><trkpt lat="44.369406242213266" lon="10.320462252775439"><ele>875.3333333333333</ele><time>2026-04-18T10:15:00Z</time></trkpt><trkpt lat="44.369527017550794" lon="10.320690215085797"><ele>873.6666666666667</ele><time>2026-04-18T10:15:01Z</time></trkpt><trkpt lat="44.36965027720032" lon="10.320953879716427"><ele>872.0</ele><time>2026-04-18T10:15:02Z</time></trkpt><trkpt lat="44.36973503077931" lon="10.32121059244638"><ele>878.6666666666667</ele><time>2026-04-18T10:15:03Z</time></trkpt><trkpt lat="44.36977750004081" lon="10.321485821106522"><ele>885.3333333333333</ele><time>2026-04-18T10:15:04Z</time></trkpt><trkpt lat="44.36979280571137" lon="10.321804245037566"><ele>892.0</ele><time>2026-04-18T10:15:05Z</time></trkpt><trkpt lat="44.36981137084378" lon="10.322223586285785"><ele>892.0</ele><time>2026-04-18T10:15:06Z</time></trkpt><trkpt lat="44.36982939484522" lon="10.322643040843728"><ele>892.0</ele><time>2026-04-18T10:15:07Z</time></trkpt><trkpt lat="44.369844742201856" lon="10.322974583634585"><ele>891.0</ele><time>2026-04-18T10:15:08Z</time></trkpt><trkpt lat="44.36985656094157" lon="10.323262327224112"><ele>890.0</ele><time>2026-04-18T10:15:09Z</time></trkpt><trkpt lat="44.369884475993416" lon="10.323541088095249"><ele>889.0</ele><time>2026-04-18T10:15:10Z</time></trkpt><trkpt lat="44.36984620224212" lon="10.323861786614655"><ele>892.0</ele><time>2026-04-18T10:15:11Z</time></trkpt><trkpt lat="44.36977371226483" lon="10.324247336221797"><ele>895.0</ele><time>2026-04-18T10:15:12Z</time></trkpt><trkpt lat="44.36970888491232" lon="10.324608447028233"><ele>885.3333333333333</ele><time>2026-04-18T10:15:13Z</time></trkpt><trkpt lat="44.36965068586022" lon="10.32488107903257"><ele>875.6666666666667</ele><time>2026-04-18T10:15:14Z</time></trkpt><trkpt lat="44.3696535563033" lon="10.325111022774296"><ele>866.0</ele><time>2026-04-18T10:15:15Z</time></trkpt><trkpt lat="44.36966714469885" lon="10.325364503400522"><ele>874.3333333333334</ele><time>2026-04-18T10:15:16Z</time></trkpt><trkpt lat="44.369724465215135" lon="10.325620371188842"><ele>882.6666666666667</ele><time>2026-04-18T10:15:17Z</time></trkpt><trkpt lat="44.36982760704447" lon="10.325862435800712"><ele>891.0</ele><time>2026-04-18T10:15:18Z</time></trkpt><trkpt lat="44.369979675809866" lon="10.32607754555316"><ele>891.0</ele><time>2026-04-18T10:15:19Z</time></trkpt><trkpt lat="44.37017663417112" lon="10.326275131276077"><ele>891.0</ele><time>2026-04-18T10:15:20Z</time></trkpt><trkpt lat="44.37042573393634" lon="10.32647214816328"><ele>896.5</ele><time>2026-04-18T10:15:21Z</time></trkpt><trkpt lat="44.3706632990811" lon="10.326719874930467"><ele>902.0</ele><time>2026-04-18T10:15:22Z</time></trkpt><trkpt lat="44.37087472052264" lon="10.326919615647139"><ele>902.0</ele><time>2026-04-18T10:15:23Z</time></trkpt><trkpt lat="44.37108401648662" lon="10.327114307306909"><ele>902.0</ele><time>2026-04-18T10:15:24Z</time></trkpt><trkpt lat="44.371245088706516" lon="10.327260022854707"><ele>902.0</ele><time>2026-04-18T10:15:25Z</time></trkpt><trkpt lat="44.371391268039936" lon="10.327345182996286"><ele>901.0</ele><time>2026-04-18T10:15:26Z</time></trkpt><trkpt lat="44.37153908798414" lon="10.327428344712411"><ele>900.0</ele><time>2026-04-18T10:15:27Z</time></trkpt><trkpt lat="44.37171911695402" lon="10.327454142905676"><ele>899.0</ele><time>2026-04-18T10:15:28Z</time></trkpt><trkpt lat="44.371921760156624" lon="10.327421004396468"><ele>899.0</ele><time>2026-04-18T10:15:29Z</time></trkpt><trkpt lat="44.37214059273112" lon="10.327329384752046"><ele>899.0</ele><time>2026-04-18T10:15:30Z</time></trkpt><trkpt lat="44.37233429954973" lon="10.327266012465586"><ele>899.0</ele><time>2026-04-18T10:15:31Z</time></trkpt><trkpt lat="44.37248698846669" lon="10.327243525177693"><ele>899.0</ele><time>2026-04-18T10:15:32Z</time></trkpt><trkpt lat="44.372634878632546" lon="10.32727026278831"><ele>899.0</ele><time>2026-04-18T10:15:33Z</time></trkpt><trkpt lat="44.372792047731096" lon="10.32736263912018"><ele>899.0</ele><time>2026-04-18T10:15:34Z</time></trkpt><trkpt lat="44.37292744465754" lon="10.327513960441925"><ele>905.0</ele><time>2026-04-18T10:15:35Z</time></trkpt><trkpt lat="44.373083292104475" lon="10.327699443084509"><ele>911.0</ele><time>2026-04-18T10:15:36Z</time></trkpt><trkpt lat="44.373266796188815" lon="10.327879997819782"><ele>917.0</ele><time>2026-04-18T10:15:37Z</time></trkpt><trkpt lat="44.37344131870901" lon="10.328043275098974"><ele>915.0</ele><time>2026-04-18T10:15:38Z</time></trkpt><trkpt lat="44.373689135648995" lon="10.328191953866353"><ele>913.0</ele><time>2026-04-18T10:15:39Z</time></trkpt><trkpt lat="44.37394341634183" lon="10.32835211746535"><ele>913.0</ele><time>2026-04-18T10:15:40Z</time></trkpt><trkpt lat="44.374179613705316" lon="10.328532692483494"><ele>913.0</ele><time>2026-04-18T10:15:41Z</time></trkpt><trkpt lat="44.374382193437995" lon="10.328656296548367"><ele>913.0</ele><time>2026-04-18T10:15:42Z</time></trkpt><trkpt lat="44.374536900535425" lon="10.328761125180806"><ele>913.0</ele><time>2026-04-18T10:15:43Z</time></trkpt><trkpt lat="44.37468680628851" lon="10.32885841988002"><ele>913.0</ele><time>2026-04-18T10:15:44Z</time></trkpt><trkpt lat="44.37480953629841" lon="10.328908128448978"><ele>912.0</ele><time>2026-04-18T10:15:45Z</time></trkpt><trkpt lat="44.37494390073986" lon="10.328933925231796"><ele>911.0</ele><time>2026-04-18T10:15:46Z</time></trkpt><trkpt lat="44.375081909551504" lon="10.328888287000169"><ele>910.0</ele><time>2026-04-18T10:15:47.001Z</time></trkpt><trkpt lat="44.37519967996542" lon="10.328739576840023"><ele>909.0</ele><time>2026-04-18T10:15:48.001Z</time></trkpt><trkpt lat="44.37528289913616" lon="10.32851482610783"><ele>911.25</ele><time>2026-04-18T10:15:49.001Z</time></trkpt><trkpt lat="44.375378234611254" lon="10.328287361965252"><ele>913.5</ele><time>2026-04-18T10:15:50.001Z</time></trkpt><trkpt lat="44.375463383410484" lon="10.328174809594245"><ele>915.75</ele><time>2026-04-18T10:15:51.001Z</time></trkpt><trkpt lat="44.375548142124224" lon="10.328107359344386"><ele>918.0</ele><time>2026-04-18T10:15:52.001Z</time></trkpt><trkpt lat="44.37577137702471" lon="10.328057431608258"><ele>918.0</ele><time>2026-04-18T10:15:53.001Z</time></trkpt><trkpt lat="44.375943739845326" lon="10.328073591598088"><ele>918.0</ele><time>2026-04-18T10:15:54.001Z</time></trkpt><trkpt lat="44.37615119043669" lon="10.328104235771335"><ele>918.0</ele><time>2026-04-18T10:15:55.001Z</time></trkpt><trkpt lat="44.37628391569383" lon="10.328159255966723"><ele>922.0</ele><time>2026-04-18T10:15:56.001Z</time></trkpt><trkpt lat="44.376385362481116" lon="10.328297003766496"><ele>926.0</ele><time>2026-04-18T10:15:57.001Z</time></trkpt><trkpt lat="44.37652996110895" lon="10.32843066070084"><ele>930.0</ele><time>2026-04-18T10:15:58.001Z</time></trkpt><trkpt lat="44.37670316870702" lon="10.328514142087455"><ele>930.0</ele><time>2026-04-18T10:15:59.001Z</time></trkpt><trkpt lat="44.376878710537355" lon="10.328547687909968"><ele>930.0</ele><time>2026-04-18T10:16:00.001Z</time></trkpt><trkpt lat="44.37707517927816" lon="10.328488953851592"><ele>930.0</ele><time>2026-04-18T10:16:01.001Z</time></trkpt><trkpt lat="44.37729274294529" lon="10.328443208851732"><ele>930.0</ele><time>2026-04-18T10:16:02.001Z</time></trkpt><trkpt lat="44.3774689684331" lon="10.328474170998096"><ele>930.0</ele><time>2026-04-18T10:16:03.001Z</time></trkpt><trkpt lat="44.377606273079664" lon="10.328455613675844"><ele>930.0</ele><time>2026-04-18T10:16:04.001Z</time></trkpt><trkpt lat="44.377709424771176" lon="10.328447883379086"><ele>930.0</ele><time>2026-04-18T10:16:05.001Z</time></trkpt><trkpt lat="44.37779504313098" lon="10.328350913205925"><ele>930.0</ele><time>2026-04-18T10:16:06.001Z</time></trkpt><trkpt lat="44.3778647780671" lon="10.32816593899657"><ele>930.0</ele><time>2026-04-18T10:16:07.001Z</time></trkpt><trkpt lat="44.37794245993246" lon="10.327920570839511"><ele>930.0</ele><time>2026-04-18T10:16:08.001Z</time></trkpt><trkpt lat="44.37803764049445" lon="10.327698219311953"><ele>929.0</ele><time>2026-04-18T10:16:09.001Z</time></trkpt><trkpt lat="44.378091125493874" lon="10.327498940126352"><ele>928.0</ele><time>2026-04-18T10:16:10.001Z</time></trkpt><trkpt lat="44.3780779429839" lon="10.327243558895043"><ele>927.0</ele><time>2026-04-18T10:16:11.001Z</time></trkpt><trkpt lat="44.37806510367011" lon="10.326956356506034"><ele>929.6666666666667</ele><time>2026-04-18T10:16:12.001Z</time></trkpt><trkpt lat="44.37810657033943" lon="10.326780564606047"><ele>932.3333333333334</ele><time>2026-04-18T10:16:13.001Z</time></trkpt><trkpt lat="44.378222399638865" lon="10.326536099540784"><ele>935.0</ele><time>2026-04-18T10:16:14.001Z</time></trkpt><trkpt lat="44.37831515733728" lon="10.326305898710535"><ele>936.25</ele><time>2026-04-18T10:16:15.001Z</time></trkpt><trkpt lat="44.37839618636657" lon="10.32613429111513"><ele>937.5</ele><time>2026-04-18T10:16:16.001Z</time></trkpt><trkpt lat="44.37846910932153" lon="10.326026275469127"><ele>938.75</ele><time>2026-04-18T10:16:17.001Z</time></trkpt><trkpt lat="44.37857584079573" lon="10.325979202131407"><ele>940.0</ele><time>2026-04-18T10:16:18.001Z</time></trkpt><trkpt lat="44.37868424554619" lon="10.326008808836873"><ele>939.75</ele><time>2026-04-18T10:16:19.001Z</time></trkpt><trkpt lat="44.37885465536377" lon="10.326033331210425"><ele>939.5</ele><time>2026-04-18T10:16:20.001Z</time></trkpt><trkpt lat="44.378946564940435" lon="10.326100422331187"><ele>939.25</ele><time>2026-04-18T10:16:21.001Z</time></trkpt><trkpt lat="44.3790200900048" lon="10.326227272518292"><ele>939.0</ele><time>2026-04-18T10:16:22.001Z</time></trkpt><trkpt lat="44.379037036945846" lon="10.32639756014656"><ele>938.0</ele><time>2026-04-18T10:16:23.001Z</time></trkpt><trkpt lat="44.37908200842415" lon="10.326651883440055"><ele>937.0</ele><time>2026-04-18T10:16:24.001Z</time></trkpt><trkpt lat="44.379120704831536" lon="10.32687050878806"><ele>936.0</ele><time>2026-04-18T10:16:25.001Z</time></trkpt><trkpt lat="44.37915989537926" lon="10.327081356575185"><ele>932.0</ele><time>2026-04-18T10:16:26.001Z</time></trkpt><trkpt lat="44.37922636393483" lon="10.327333774002279"><ele>928.0</ele><time>2026-04-18T10:16:27.001Z</time></trkpt><trkpt lat="44.379345657355465" lon="10.327668755118609"><ele>928.0</ele><time>2026-04-18T10:16:28.001Z</time></trkpt><trkpt lat="44.37943657487947" lon="10.327928222815466"><ele>928.0</ele><time>2026-04-18T10:16:29.001Z</time></trkpt><trkpt lat="44.379488654313995" lon="10.328156611126602"><ele>928.0</ele><time>2026-04-18T10:16:30.001Z</time></trkpt><trkpt lat="44.3794861517319" lon="10.328280083705476"><ele>924.6666666666666</ele><time>2026-04-18T10:16:31.001Z</time></trkpt><trkpt lat="44.37948044161313" lon="10.32850568144943"><ele>921.3333333333333</ele><time>2026-04-18T10:16:32.001Z</time></trkpt><trkpt lat="44.379485029021914" lon="10.328759112892579"><ele>918.0</ele><time>2026-04-18T10:16:33.001Z</time></trkpt><trkpt lat="44.37950478426876" lon="10.32900608653957"><ele>914.3333333333333</ele><time>2026-04-18T10:16:34.001Z</time></trkpt><trkpt lat="44.379546702695805" lon="10.329206014455497"><ele>910.6666666666666</ele><time>2026-04-18T10:16:35.001Z</time></trkpt><trkpt lat="44.37962326507423" lon="10.329415660474657"><ele>907.0</ele><time>2026-04-18T10:16:36.001Z</time></trkpt><trkpt lat="44.379714682976065" lon="10.32957732154148"><ele>905.0</ele><time>2026-04-18T10:16:37.001Z</time></trkpt><trkpt lat="44.379706677629834" lon="10.329705423928917"><ele>903.0</ele><time>2026-04-18T10:16:38.001Z</time></trkpt><trkpt lat="44.37964566095354" lon="10.329787835216544"><ele>901.0</ele><time>2026-04-18T10:16:39.001Z</time></trkpt><trkpt lat="44.37955716549827" lon="10.330075232717036"><ele>899.0</ele><time>2026-04-18T10:16:40Z</time></trkpt><trkpt lat="44.3794766108649" lon="10.330338794811567"><ele>898.0</ele><time>2026-04-18T10:16:41Z</time></trkpt><trkpt lat="44.37941280800996" lon="10.33057141061461"><ele>897.0</ele><time>2026-04-18T10:16:42Z</time></trkpt><trkpt lat="44.37937766429494" lon="10.330720422012632"><ele>896.0</ele><time>2026-04-18T10:16:43Z</time></trkpt><trkpt lat="44.379379872287295" lon="10.330868409436649"><ele>895.0</ele><time>2026-04-18T10:16:44Z</time></trkpt><trkpt lat="44.37942089439652" lon="10.331010071245789"><ele>895.0</ele><time>2026-04-18T10:16:45Z</time></trkpt><trkpt lat="44.37952362397272" lon="10.331148155071249"><ele>895.0</ele><time>2026-04-18T10:16:46Z</time></trkpt><trkpt lat="44.37970806206495" lon="10.331370835204945"><ele>895.0</ele><time>2026-04-18T10:16:47Z</time></trkpt><trkpt lat="44.37984990617363" lon="10.331703678468637"><ele>901.0</ele><time>2026-04-18T10:16:48Z</time></trkpt><trkpt lat="44.37993454777821" lon="10.331902835143438"><ele>907.0</ele><time>2026-04-18T10:16:49Z</time></trkpt><trkpt lat="44.3799831633213" lon="10.332086896460181"><ele>913.0</ele><time>2026-04-18T10:16:50Z</time></trkpt><trkpt lat="44.37998026367426" lon="10.332223159244085"><ele>919.0</ele><time>2026-04-18T10:16:51Z</time></trkpt><trkpt lat="44.37993832838362" lon="10.332355367606405"><ele>919.0</ele><time>2026-04-18T10:16:52Z</time></trkpt><trkpt lat="44.379881287580424" lon="10.3325737525812"><ele>919.0</ele><time>2026-04-18T10:16:53Z</time></trkpt><trkpt lat="44.37980710832373" lon="10.332863336054235"><ele>919.0</ele><time>2026-04-18T10:16:54Z</time></trkpt><trkpt lat="44.37978430388778" lon="10.333077100617968"><ele>916.75</ele><time>2026-04-18T10:16:55Z</time></trkpt><trkpt lat="44.37981561969314" lon="10.333184724296762"><ele>914.5</ele><time>2026-04-18T10:16:56Z</time></trkpt><trkpt lat="44.3799085959564" lon="10.333315579600614"><ele>912.25</ele><time>2026-04-18T10:16:57Z</time></trkpt><trkpt lat="44.38004476612887" lon="10.333412446627687"><ele>910.0</ele><time>2026-04-18T10:16:58Z</time></trkpt><trkpt lat="44.38022484962172" lon="10.3335545244375"><ele>910.0</ele><time>2026-04-18T10:16:59Z</time></trkpt><trkpt lat="44.380398515604" lon="10.333602341193096"><ele>910.0</ele><time>2026-04-18T10:17:00Z</time></trkpt><trkpt lat="44.38058603357882" lon="10.33359015136374"><ele>910.0</ele><time>2026-04-18T10:17:01Z</time></trkpt><trkpt lat="44.38083378793492" lon="10.333589003446667"><ele>912.3333333333333</ele><time>2026-04-18T10:17:02Z</time></trkpt><trkpt lat="44.381064164750995" lon="10.333589127225913"><ele>914.6666666666667</ele><time>2026-04-18T10:17:03Z</time></trkpt><trkpt lat="44.38126556754148" lon="10.333586348007058"><ele>917.0</ele><time>2026-04-18T10:17:04Z</time></trkpt><trkpt lat="44.38142184422568" lon="10.33355536213339"><ele>917.0</ele><time>2026-04-18T10:17:05Z</time></trkpt><trkpt lat="44.38157426053998" lon="10.33349224625411"><ele>917.0</ele><time>2026-04-18T10:17:06Z</time></trkpt><trkpt lat="44.381742683688245" lon="10.333381471599262"><ele>917.0</ele><time>2026-04-18T10:17:07Z</time></trkpt><trkpt lat="44.38190981827102" lon="10.333241437143455"><ele>915.0</ele><time>2026-04-18T10:17:08Z</time></trkpt><trkpt lat="44.38203594360097" lon="10.333029604746145"><ele>913.0</ele><time>2026-04-18T10:17:09Z</time></trkpt><trkpt lat="44.382170290463904" lon="10.332773963821642"><ele>911.0</ele><time>2026-04-18T10:17:10Z</time></trkpt><trkpt lat="44.38232624092361" lon="10.33245766602586"><ele>917.0</ele><time>2026-04-18T10:17:11Z</time></trkpt><trkpt lat="44.38252119607366" lon="10.332087269675753"><ele>923.0</ele><time>2026-04-18T10:17:12Z</time></trkpt><trkpt lat="44.38272088299458" lon="10.331708905146556"><ele>923.0</ele><time>2026-04-18T10:17:13Z</time></trkpt><trkpt lat="44.38289410485037" lon="10.331396205398548"><ele>923.0</ele><time>2026-04-18T10:17:14Z</time></trkpt><trkpt lat="44.38305367275277" lon="10.331109855336736"><ele>922.0</ele><time>2026-04-18T10:17:15Z</time></trkpt><trkpt lat="44.383190853945756" lon="10.33084171665527"><ele>921.0</ele><time>2026-04-18T10:17:16Z</time></trkpt><trkpt lat="44.38331690592793" lon="10.33054560097129"><ele>921.0</ele><time>2026-04-18T10:17:17Z</time></trkpt><trkpt lat="44.38344877332934" lon="10.330204958988789"><ele>921.0</ele><time>2026-04-18T10:17:18Z</time></trkpt><trkpt lat="44.38355872543161" lon="10.329887524858721"><ele>920.0</ele><time>2026-04-18T10:17:19Z</time></trkpt><trkpt lat="44.383656612434066" lon="10.329616247109524"><ele>919.0</ele><time>2026-04-18T10:17:20Z</time></trkpt><trkpt lat="44.383746989468776" lon="10.329381638795684"><ele>918.0</ele><time>2026-04-18T10:17:21Z</time></trkpt><trkpt lat="44.38387091592593" lon="10.329197530623336"><ele>918.0</ele><time>2026-04-18T10:17:22Z</time></trkpt><trkpt lat="44.383995494297835" lon="10.329078328429581"><ele>918.0</ele><time>2026-04-18T10:17:23Z</time></trkpt><trkpt lat="44.3841456951627" lon="10.328973351787948"><ele>918.0</ele><time>2026-04-18T10:17:24Z</time></trkpt><trkpt lat="44.38431962336336" lon="10.32888281387251"><ele>920.3333333333333</ele><time>2026-04-18T10:17:25Z</time></trkpt><trkpt lat="44.384504531489036" lon="10.32888981084419"><ele>922.6666666666666</ele><time>2026-04-18T10:17:26Z</time></trkpt><trkpt lat="44.38472179962393" lon="10.328908112196611"><ele>925.0</ele><time>2026-04-18T10:17:27Z</time></trkpt><trkpt lat="44.384996280436255" lon="10.328937384112667"><ele>925.0</ele><time>2026-04-18T10:17:28Z</time></trkpt><trkpt lat="44.38526682466891" lon="10.328968501520198"><ele>925.0</ele><time>2026-04-18T10:17:29Z</time></trkpt><trkpt lat="44.38548648679456" lon="10.328993766580934"><ele>926.5</ele><time>2026-04-18T10:17:30Z</time></trkpt><trkpt lat="44.385751126221386" lon="10.3290242048219"><ele>928.0</ele><time>2026-04-18T10:17:31Z</time></trkpt><trkpt lat="44.3860465672245" lon="10.329057834809431"><ele>928.0</ele><time>2026-04-18T10:17:32Z</time></trkpt><trkpt lat="44.3863111199039" lon="10.329087431914402"><ele>928.0</ele><time>2026-04-18T10:17:33Z</time></trkpt><trkpt lat="44.386548542172186" lon="10.329101968235669"><ele>929.0</ele><time>2026-04-18T10:17:34Z</time></trkpt><trkpt lat="44.386755401496316" lon="10.329141556956639"><ele>930.0</ele><time>2026-04-18T10:17:35Z</time></trkpt><trkpt lat="44.38695412347051" lon="10.329158017756567"><ele>931.0</ele><time>2026-04-18T10:17:36.001Z</time></trkpt><trkpt lat="44.387151193467886" lon="10.329159059599723"><ele>932.3333333333333</ele><time>2026-04-18T10:17:37.001Z</time></trkpt><trkpt lat="44.387352219040125" lon="10.329136960478243"><ele>933.6666666666667</ele><time>2026-04-18T10:17:38.001Z</time></trkpt><trkpt lat="44.38754788852141" lon="10.329075671029967"><ele>935.0</ele><time>2026-04-18T10:17:39.001Z</time></trkpt><trkpt lat="44.387743927473196" lon="10.329002200808885"><ele>935.0</ele><time>2026-04-18T10:17:40.001Z</time></trkpt><trkpt lat="44.387949373308366" lon="10.328937900893134"><ele>935.0</ele><time>2026-04-18T10:17:41.001Z</time></trkpt><trkpt lat="44.3881527538157" lon="10.328882596886753"><ele>935.0</ele><time>2026-04-18T10:17:42.001Z</time></trkpt><trkpt lat="44.388358852510706" lon="10.328825037725297"><ele>942.0</ele><time>2026-04-18T10:17:43.001Z</time></trkpt><trkpt lat="44.38856685230397" lon="10.328758834608303"><ele>949.0</ele><time>2026-04-18T10:17:44.001Z</time></trkpt><trkpt lat="44.38878515144459" lon="10.32868502545848"><ele>956.0</ele><time>2026-04-18T10:17:45.001Z</time></trkpt><trkpt lat="44.38900268351746" lon="10.32862518841582"><ele>956.0</ele><time>2026-04-18T10:17:46.001Z</time></trkpt><trkpt lat="44.389215115175666" lon="10.328641589021968"><ele>956.0</ele><time>2026-04-18T10:17:47.001Z</time></trkpt><trkpt lat="44.38943989250169" lon="10.328709445152613"><ele>956.0</ele><time>2026-04-18T10:17:48.001Z</time></trkpt><trkpt lat="44.3896719433557" lon="10.328808452157913"><ele>949.3333333333334</ele><time>2026-04-18T10:17:49.001Z</time></trkpt><trkpt lat="44.38986728247717" lon="10.328897092244235"><ele>942.6666666666667</ele><time>2026-04-18T10:17:50.001Z</time></trkpt><trkpt lat="44.39002495222173" lon="10.328965907684422"><ele>936.0</ele><time>2026-04-18T10:17:51.001Z</time></trkpt><trkpt lat="44.390174377914484" lon="10.32900056386444"><ele>936.0</ele><time>2026-04-18T10:17:52.001Z</time></trkpt><trkpt lat="44.390337834772865" lon="10.32897881907838"><ele>936.0</ele><time>2026-04-18T10:17:53.001Z</time></trkpt><trkpt lat="44.39048018130662" lon="10.32889744977682"><ele>936.0</ele><time>2026-04-18T10:17:54.001Z</time></trkpt><trkpt lat="44.39060670544128" lon="10.32878169081684"><ele>941.6666666666667</ele><time>2026-04-18T10:17:55.001Z</time></trkpt><trkpt lat="44.39069876086752" lon="10.32868221296367"><ele>947.3333333333334</ele><time>2026-04-18T10:17:56.001Z</time></trkpt><trkpt lat="44.39082775574642" lon="10.328557651600265"><ele>953.0</ele><time>2026-04-18T10:17:57.001Z</time></trkpt><trkpt lat="44.39101508691466" lon="10.328372809849787"><ele>953.0</ele><time>2026-04-18T10:17:58.001Z</time></trkpt><trkpt lat="44.39124201327246" lon="10.328136046749709"><ele>953.0</ele><time>2026-04-18T10:17:59.001Z</time></trkpt><trkpt lat="44.3914687504875" lon="10.327921969770005"><ele>953.6666666666667</ele><time>2026-04-18T10:18:00.001Z</time></trkpt><trkpt lat="44.391642637814705" lon="10.327729391625853"><ele>954.3333333333333</ele><time>2026-04-18T10:18:01.001Z</time></trkpt><trkpt lat="44.3918031106355" lon="10.327592364184738"><ele>955.0</ele><time>2026-04-18T10:18:02.001Z</time></trkpt><trkpt lat="44.39194103847903" lon="10.327460319357384"><ele>955.0</ele><time>2026-04-18T10:18:03.001Z</time></trkpt><trkpt lat="44.392084839692565" lon="10.327331880488257"><ele>955.0</ele><time>2026-04-18T10:18:04.001Z</time></trkpt><trkpt lat="44.392237118570996" lon="10.32724864349001"><ele>955.0</ele><time>2026-04-18T10:18:05.001Z</time></trkpt><trkpt lat="44.39238401423474" lon="10.327190270275132"><ele>953.3333333333333</ele><time>2026-04-18T10:18:06.001Z</time></trkpt><trkpt lat="44.39252474330447" lon="10.327253422864404"><ele>951.6666666666667</ele><time>2026-04-18T10:18:07.001Z</time></trkpt><trkpt lat="44.392656659945374" lon="10.327342335636102"><ele>950.0</ele><time>2026-04-18T10:18:08.001Z</time></trkpt><trkpt lat="44.39277983585825" lon="10.327507533454744"><ele>950.0</ele><time>2026-04-18T10:18:09.001Z</time></trkpt><trkpt lat="44.392930243916425" lon="10.327716000022217"><ele>950.0</ele><time>2026-04-18T10:18:10.001Z</time></trkpt><trkpt lat="44.39306010735379" lon="10.327931929606875"><ele>950.0</ele><time>2026-04-18T10:18:11.001Z</time></trkpt><trkpt lat="44.39318973240857" lon="10.328071283734847"><ele>948.6666666666667</ele><time>2026-04-18T10:18:12.001Z</time></trkpt><trkpt lat="44.393346138526255" lon="10.328171501448418"><ele>947.3333333333333</ele><time>2026-04-18T10:18:13.001Z</time></trkpt><trkpt lat="44.39354493516136" lon="10.328228717077966"><ele>946.0</ele><time>2026-04-18T10:18:14.001Z</time></trkpt><trkpt lat="44.393786390081274" lon="10.328262812973705"><ele>951.0</ele><time>2026-04-18T10:18:15.001Z</time></trkpt><trkpt lat="44.394069262386026" lon="10.328273059590451"><ele>956.0</ele><time>2026-04-18T10:18:16.001Z</time></trkpt><trkpt lat="44.394342743420346" lon="10.328312023011424"><ele>956.0</ele><time>2026-04-18T10:18:17.001Z</time></trkpt><trkpt lat="44.39458499405676" lon="10.328327946502895"><ele>956.0</ele><time>2026-04-18T10:18:18.001Z</time></trkpt><trkpt lat="44.39480049128795" lon="10.328326615129718"><ele>956.0</ele><time>2026-04-18T10:18:19.001Z</time></trkpt><trkpt lat="44.3950116000045" lon="10.328408183144216"><ele>956.0</ele><time>2026-04-18T10:18:20.001Z</time></trkpt><trkpt lat="44.39525559836839" lon="10.328507546041946"><ele>960.0</ele><time>2026-04-18T10:18:21.001Z</time></trkpt><trkpt lat="44.39552337751631" lon="10.328651341708404"><ele>964.0</ele><time>2026-04-18T10:18:22.001Z</time></trkpt><trkpt lat="44.39581073162942" lon="10.328809040998411"><ele>959.0</ele><time>2026-04-18T10:18:23.001Z</time></trkpt><trkpt lat="44.3960693420679" lon="10.328952319477077"><ele>954.0</ele><time>2026-04-18T10:18:24.001Z</time></trkpt><trkpt lat="44.39628360319356" lon="10.329070759273783"><ele>954.6666666666667</ele><time>2026-04-18T10:18:25.001Z</time></trkpt><trkpt lat="44.39648703315837" lon="10.329157507387588"><ele>955.3333333333334</ele><time>2026-04-18T10:18:26.001Z</time></trkpt><trkpt lat="44.3966619337672" lon="10.329247969700527"><ele>956.0</ele><time>2026-04-18T10:18:27.001Z</time></trkpt><trkpt lat="44.39683966296076" lon="10.329279165034466"><ele>956.0</ele><time>2026-04-18T10:18:28.001Z</time></trkpt><trkpt lat="44.397054470421814" lon="10.32925078741253"><ele>956.0</ele><time>2026-04-18T10:18:29.001Z</time></trkpt><trkpt lat="44.39729904322321" lon="10.3291705615725"><ele>957.0</ele><time>2026-04-18T10:18:30.001Z</time></trkpt><trkpt lat="44.39756092968275" lon="10.329076027745593"><ele>958.0</ele><time>2026-04-18T10:18:31.001Z</time></trkpt><trkpt lat="44.39783961689247" lon="10.329022759266888"><ele>958.0</ele><time>2026-04-18T10:18:32.001Z</time></trkpt><trkpt lat="44.39808554840872" lon="10.328939975215803"><ele>958.0</ele><time>2026-04-18T10:18:33.001Z</time></trkpt><trkpt lat="44.3983040053232" lon="10.328892973181182"><ele>958.0</ele><time>2026-04-18T10:18:34.001Z</time></trkpt><trkpt lat="44.398512084777636" lon="10.328875213035015"><ele>958.0</ele><time>2026-04-18T10:18:35.001Z</time></trkpt><trkpt lat="44.39871740923904" lon="10.328944842697577"><ele>958.0</ele><time>2026-04-18T10:18:36.001Z</time></trkpt><trkpt lat="44.39896750558445" lon="10.329028015227275"><ele>958.5</ele><time>2026-04-18T10:18:37.001Z</time></trkpt><trkpt lat="44.399240014594675" lon="10.329117588526483"><ele>959.0</ele><time>2026-04-18T10:18:38.001Z</time></trkpt><trkpt lat="44.39947342741971" lon="10.329186367365807"><ele>961.5</ele><time>2026-04-18T10:18:39.001Z</time></trkpt><trkpt lat="44.39969033571549" lon="10.32929101987938"><ele>964.0</ele><time>2026-04-18T10:18:40.001Z</time></trkpt><trkpt lat="44.39992491601342" lon="10.32944671929072"><ele>964.0</ele><time>2026-04-18T10:18:41.001Z</time></trkpt><trkpt lat="44.400188097884126" lon="10.32962327830259"><ele>964.0</ele><time>2026-04-18T10:18:42.001Z</time></trkpt><trkpt lat="44.4004569803842" lon="10.329780006303073"><ele>963.5</ele><time>2026-04-18T10:18:43.001Z</time></trkpt><trkpt lat="44.40067444268708" lon="10.329926574433744"><ele>963.0</ele><time>2026-04-18T10:18:44.001Z</time></trkpt><trkpt lat="44.40086611006333" lon="10.330077510734782"><ele>963.0</ele><time>2026-04-18T10:18:45.001Z</time></trkpt><trkpt lat="44.40106018910796" lon="10.330182291959288"><ele>963.0</ele><time>2026-04-18T10:18:46.001Z</time></trkpt><trkpt lat="44.401288519746444" lon="10.330305371260339"><ele>966.0</ele><time>2026-04-18T10:18:47.001Z</time></trkpt><trkpt lat="44.40152838700564" lon="10.330388212679534"><ele>969.0</ele><time>2026-04-18T10:18:48.001Z</time></trkpt><trkpt lat="44.401717628643965" lon="10.330456579615715"><ele>972.0</ele><time>2026-04-18T10:18:49.001Z</time></trkpt><trkpt lat="44.40187934067861" lon="10.33051290668803"><ele>971.0</ele><time>2026-04-18T10:18:50.001Z</time></trkpt><trkpt lat="44.40202868054953" lon="10.33057974481322"><ele>970.0</ele><time>2026-04-18T10:18:51.001Z</time></trkpt><trkpt lat="44.40223627767059" lon="10.330427620709846"><ele>969.0</ele><time>2026-04-18T10:18:52.001Z</time></trkpt><trkpt lat="44.40243091798137" lon="10.330293505397911"><ele>969.0</ele><time>2026-04-18T10:18:53.001Z</time></trkpt><trkpt lat="44.40258463203465" lon="10.330152781662493"><ele>969.0</ele><time>2026-04-18T10:18:54.001Z</time></trkpt><trkpt lat="44.402715872268445" lon="10.330082750974213"><ele>969.0</ele><time>2026-04-18T10:18:55.001Z</time></trkpt><trkpt lat="44.402867544983074" lon="10.330098172321408"><ele>967.6666666666667</ele><time>2026-04-18T10:18:56.001Z</time></trkpt><trkpt lat="44.403016660204905" lon="10.330173247522756"><ele>966.3333333333334</ele><time>2026-04-18T10:18:57.001Z</time></trkpt><trkpt lat="44.40313329051498" lon="10.330300631958316"><ele>965.0</ele><time>2026-04-18T10:18:58.001Z</time></trkpt><trkpt lat="44.40326716977818" lon="10.330521186706518"><ele>962.0</ele><time>2026-04-18T10:18:59.001Z</time></trkpt><trkpt lat="44.403405813582914" lon="10.330848375730662"><ele>959.0</ele><time>2026-04-18T10:19:00.001Z</time></trkpt><trkpt lat="44.40360910432424" lon="10.33118030911396"><ele>958.5</ele><time>2026-04-18T10:19:01.001Z</time></trkpt><trkpt lat="44.40380337116328" lon="10.331532705553956"><ele>958.0</ele><time>2026-04-18T10:19:02.001Z</time></trkpt><trkpt lat="44.40398180153979" lon="10.33184304612574"><ele>958.0</ele><time>2026-04-18T10:19:03.001Z</time></trkpt><trkpt lat="44.40414619955207" lon="10.332132558291669"><ele>958.0</ele><time>2026-04-18T10:19:04.001Z</time></trkpt><trkpt lat="44.40430138067557" lon="10.332421640414246"><ele>954.5</ele><time>2026-04-18T10:19:05.001Z</time></trkpt><trkpt lat="44.40444308240903" lon="10.332716356382107"><ele>951.0</ele><time>2026-04-18T10:19:06.001Z</time></trkpt><trkpt lat="44.40458790684649" lon="10.333005742487709"><ele>956.5</ele><time>2026-04-18T10:19:07.001Z</time></trkpt><trkpt lat="44.40472375241137" lon="10.333325735955842"><ele>962.0</ele><time>2026-04-18T10:19:08.001Z</time></trkpt><trkpt lat="44.40485947507053" lon="10.333636730702853"><ele>959.0</ele><time>2026-04-18T10:19:09.001Z</time></trkpt><trkpt lat="44.40498356854289" lon="10.333956894219229"><ele>956.0</ele><time>2026-04-18T10:19:10.001Z</time></trkpt><trkpt lat="44.40513548620516" lon="10.334264106283568"><ele>956.0</ele><time>2026-04-18T10:19:11.001Z</time></trkpt><trkpt lat="44.405281170274996" lon="10.334595190803968"><ele>956.0</ele><time>2026-04-18T10:19:12.001Z</time></trkpt><trkpt lat="44.405423559690234" lon="10.33491136233938"><ele>958.6666666666667</ele><time>2026-04-18T10:19:13.001Z</time></trkpt><trkpt lat="44.40554442786063" lon="10.335187899501335"><ele>961.3333333333333</ele><time>2026-04-18T10:19:14.001Z</time></trkpt><trkpt lat="44.405613585119774" lon="10.3354300913989"><ele>964.0</ele><time>2026-04-18T10:19:15.001Z</time></trkpt><trkpt lat="44.405675455223935" lon="10.335638361750044"><ele>964.0</ele><time>2026-04-18T10:19:16.001Z</time></trkpt><trkpt lat="44.40572913387067" lon="10.335876420431614"><ele>964.0</ele><time>2026-04-18T10:19:17.001Z</time></trkpt><trkpt lat="44.405790573033556" lon="10.336122884569047"><ele>964.0</ele><time>2026-04-18T10:19:18.001Z</time></trkpt><trkpt lat="44.40585910765435" lon="10.336321382351198"><ele>961.0</ele><time>2026-04-18T10:19:19.001Z</time></trkpt><trkpt lat="44.40599566495866" lon="10.336522016658696"><ele>958.0</ele><time>2026-04-18T10:19:20.001Z</time></trkpt><trkpt lat="44.406193082728905" lon="10.33674982390949"><ele>956.5</ele><time>2026-04-18T10:19:21.001Z</time></trkpt><trkpt lat="44.40642090875042" lon="10.337016904711133"><ele>955.0</ele><time>2026-04-18T10:19:22.001Z</time></trkpt><trkpt lat="44.40663847805718" lon="10.337250431798067"><ele>955.0</ele><time>2026-04-18T10:19:23.001Z</time></trkpt><trkpt lat="44.406795970111375" lon="10.337418340639445"><ele>955.0</ele><time>2026-04-18T10:19:24.001Z</time></trkpt><trkpt lat="44.40693376793408" lon="10.337517810998735"><ele>955.0</ele><time>2026-04-18T10:19:25.001Z</time></trkpt><trkpt lat="44.40709317074932" lon="10.337600340806544"><ele>957.3333333333333</ele><time>2026-04-18T10:19:26.001Z</time></trkpt><trkpt lat="44.407295089564464" lon="10.337644638589984"><ele>959.6666666666667</ele><time>2026-04-18T10:19:27.001Z</time></trkpt><trkpt lat="44.407499025443194" lon="10.337688696439903"><ele>962.0</ele><time>2026-04-18T10:19:28.001Z</time></trkpt><trkpt lat="44.40765955218478" lon="10.337786936337759"><ele>962.0</ele><time>2026-04-18T10:19:29.001Z</time></trkpt><trkpt lat="44.407800776791916" lon="10.337934954086588"><ele>962.0</ele><time>2026-04-18T10:19:30.001Z</time></trkpt><trkpt lat="44.407928003164685" lon="10.338105122525885"><ele>962.0</ele><time>2026-04-18T10:19:31.001Z</time></trkpt><trkpt lat="44.40801650752852" lon="10.338287929338492"><ele>963.0</ele><time>2026-04-18T10:19:32.001Z</time></trkpt><trkpt lat="44.40808082010793" lon="10.338502442449844"><ele>964.0</ele><time>2026-04-18T10:19:33.001Z</time></trkpt><trkpt lat="44.40811114344098" lon="10.338798821397226"><ele>965.0</ele><time>2026-04-18T10:19:34.001Z</time></trkpt><trkpt lat="44.40814051543904" lon="10.339196237200476"><ele>965.0</ele><time>2026-04-18T10:19:35.001Z</time></trkpt><trkpt lat="44.408174600813275" lon="10.339650519454747"><ele>965.0</ele><time>2026-04-18T10:19:36.001Z</time></trkpt><trkpt lat="44.408206208417575" lon="10.340067913042622"><ele>966.0</ele><time>2026-04-18T10:19:37.001Z</time></trkpt><trkpt lat="44.40822858714911" lon="10.340371659291009"><ele>967.0</ele><time>2026-04-18T10:19:38.001Z</time></trkpt><trkpt lat="44.4082488126591" lon="10.340648622052731"><ele>968.0</ele><time>2026-04-18T10:19:39.001Z</time></trkpt><trkpt lat="44.408289332650014" lon="10.340920831880544"><ele>968.0</ele><time>2026-04-18T10:19:40.001Z</time></trkpt><trkpt lat="44.40833684950735" lon="10.341213741947987"><ele>968.0</ele><time>2026-04-18T10:19:41.001Z</time></trkpt><trkpt lat="44.408411868960656" lon="10.341500977518727"><ele>968.0</ele><time>2026-04-18T10:19:42.001Z</time></trkpt><trkpt lat="44.40850247112794" lon="10.341755694077259"><ele>968.0</ele><time>2026-04-18T10:19:43.001Z</time></trkpt><trkpt lat="44.40860320483714" lon="10.341967303152412"><ele>968.0</ele><time>2026-04-18T10:19:44.001Z</time></trkpt><trkpt lat="44.40874974923195" lon="10.342228988476585"><ele>968.0</ele><time>2026-04-18T10:19:45.001Z</time></trkpt><trkpt lat="44.40894139959647" lon="10.342559049233323"><ele>968.0</ele><time>2026-04-18T10:19:46.001Z</time></trkpt><trkpt lat="44.40915805014421" lon="10.342916834046862"><ele>968.0</ele><time>2026-04-18T10:19:47.001Z</time></trkpt><trkpt lat="44.409330354455165" lon="10.343200768266557"><ele>967.3333333333334</ele><time>2026-04-18T10:19:48.001Z</time></trkpt><trkpt lat="44.409444668775606" lon="10.343389142827517"><ele>966.6666666666667</ele><time>2026-04-18T10:19:49.001Z</time></trkpt><trkpt lat="44.40955314691872" lon="10.343559069579186"><ele>966.0</ele><time>2026-04-18T10:19:50.001Z</time></trkpt><trkpt lat="44.409665143482826" lon="10.343723319485102"><ele>973.0</ele><time>2026-04-18T10:19:51.001Z</time></trkpt><trkpt lat="44.40982716208349" lon="10.343891693926674"><ele>980.0</ele><time>2026-04-18T10:19:52.001Z</time></trkpt><trkpt lat="44.41005105517707" lon="10.34406643739879"><ele>980.0</ele><time>2026-04-18T10:19:53.001Z</time></trkpt><trkpt lat="44.41035471821661" lon="10.344289599293779"><ele>980.0</ele><time>2026-04-18T10:19:54.001Z</time></trkpt><trkpt lat="44.41065894253643" lon="10.344513154807284"><ele>979.0</ele><time>2026-04-18T10:19:55.001Z</time></trkpt><trkpt lat="44.4109132733067" lon="10.344701869547432"><ele>978.0</ele><time>2026-04-18T10:19:56.001Z</time></trkpt><trkpt lat="44.4111374773997" lon="10.344868080534166"><ele>972.6666666666667</ele><time>2026-04-18T10:19:57.001Z</time></trkpt><trkpt lat="44.41134148835777" lon="10.345019229183887"><ele>967.3333333333334</ele><time>2026-04-18T10:19:58.001Z</time></trkpt><trkpt lat="44.411528974817855" lon="10.345158135103548"><ele>962.0</ele><time>2026-04-18T10:19:59.001Z</time></trkpt><trkpt lat="44.411698674605304" lon="10.345283863147339"><ele>962.0</ele><time>2026-04-18T10:20:00.001Z</time></trkpt><trkpt lat="44.41185074783678" lon="10.34539779746508"><ele>962.0</ele><time>2026-04-18T10:20:01.001Z</time></trkpt><trkpt lat="44.41201262110934" lon="10.345499817644203"><ele>962.0</ele><time>2026-04-18T10:20:02.001Z</time></trkpt><trkpt lat="44.41216791190578" lon="10.345621239588969"><ele>963.0</ele><time>2026-04-18T10:20:03.001Z</time></trkpt><trkpt lat="44.41231228594037" lon="10.345777523203742"><ele>964.0</ele><time>2026-04-18T10:20:04.001Z</time></trkpt><trkpt lat="44.41245181411298" lon="10.34592957179523"><ele>965.0</ele><time>2026-04-18T10:20:05.001Z</time></trkpt><trkpt lat="44.41258040151344" lon="10.346116406131665"><ele>965.0</ele><time>2026-04-18T10:20:06.001Z</time></trkpt><trkpt lat="44.41268265167272" lon="10.346321107492013"><ele>965.0</ele><time>2026-04-18T10:20:07.001Z</time></trkpt><trkpt lat="44.41275905443255" lon="10.3465293106275"><ele>965.0</ele><time>2026-04-18T10:20:08.001Z</time></trkpt><trkpt lat="44.412833587420934" lon="10.346732462895952"><ele>967.0</ele><time>2026-04-18T10:20:09.001Z</time></trkpt><trkpt lat="44.41288315542119" lon="10.346968125612147"><ele>969.0</ele><time>2026-04-18T10:20:10.001Z</time></trkpt><trkpt lat="44.4129299890982" lon="10.347198845734606"><ele>971.0</ele><time>2026-04-18T10:20:11.001Z</time></trkpt><trkpt lat="44.412977664266656" lon="10.347412734449943"><ele>969.6666666666667</ele><time>2026-04-18T10:20:12.001Z</time></trkpt><trkpt lat="44.41303059283161" lon="10.34765277685781"><ele>968.3333333333333</ele><time>2026-04-18T10:20:13.001Z</time></trkpt><trkpt lat="44.41307998957546" lon="10.347891747756393"><ele>967.0</ele><time>2026-04-18T10:20:14.001Z</time></trkpt><trkpt lat="44.41313408143826" lon="10.348138437462373"><ele>966.3333333333333</ele><time>2026-04-18T10:20:15.001Z</time></trkpt><trkpt lat="44.41318801656592" lon="10.3483660320764"><ele>965.6666666666667</ele><time>2026-04-18T10:20:16.001Z</time></trkpt><trkpt lat="44.41324323377132" lon="10.348610172035826"><ele>965.0</ele><time>2026-04-18T10:20:17.001Z</time></trkpt><trkpt lat="44.413387069358784" lon="10.348837712264249"><ele>960.6666666666667</ele><time>2026-04-18T10:20:18.001Z</time></trkpt><trkpt lat="44.41348751778592" lon="10.349093755785772"><ele>956.3333333333333</ele><time>2026-04-18T10:20:19.001Z</time></trkpt><trkpt lat="44.413578694720506" lon="10.349317166095659"><ele>952.0</ele><time>2026-04-18T10:20:20.001Z</time></trkpt><trkpt lat="44.413644296873635" lon="10.349539668799908"><ele>950.3333333333333</ele><time>2026-04-18T10:20:21.001Z</time></trkpt><trkpt lat="44.413720959170455" lon="10.349758020142454"><ele>948.6666666666667</ele><time>2026-04-18T10:20:22.001Z</time></trkpt><trkpt lat="44.41382096528032" lon="10.349972034537203"><ele>947.0</ele><time>2026-04-18T10:20:23.001Z</time></trkpt><trkpt lat="44.41397981539143" lon="10.350160977631408"><ele>947.0</ele><time>2026-04-18T10:20:24.001Z</time></trkpt><trkpt lat="44.41418804551702" lon="10.350330394980288"><ele>947.0</ele><time>2026-04-18T10:20:25.001Z</time></trkpt><trkpt lat="44.41437463040577" lon="10.350513340655509"><ele>945.0</ele><time>2026-04-18T10:20:26.001Z</time></trkpt><trkpt lat="44.41449247177977" lon="10.350755751719833"><ele>943.0</ele><time>2026-04-18T10:20:27.001Z</time></trkpt><trkpt lat="44.41463243386295" lon="10.350940154771049"><ele>941.0</ele><time>2026-04-18T10:20:28.001Z</time></trkpt><trkpt lat="44.414757193942485" lon="10.351104826817584"><ele>941.0</ele><time>2026-04-18T10:20:29.001Z</time></trkpt><trkpt lat="44.41489320282004" lon="10.351227914258729"><ele>941.0</ele><time>2026-04-18T10:20:30.001Z</time></trkpt><trkpt lat="44.415062686223045" lon="10.351305903059332"><ele>941.0</ele><time>2026-04-18T10:20:31.001Z</time></trkpt><trkpt lat="44.415233837506534" lon="10.351323731215842"><ele>938.6666666666667</ele><time>2026-04-18T10:20:32.001Z</time></trkpt><trkpt lat="44.41540430623031" lon="10.351380917559645"><ele>936.3333333333333</ele><time>2026-04-18T10:20:33.001Z</time></trkpt><trkpt lat="44.415559823581816" lon="10.351403345247721"><ele>934.0</ele><time>2026-04-18T10:20:34.001Z</time></trkpt><trkpt lat="44.41571939678788" lon="10.351373053428777"><ele>934.0</ele><time>2026-04-18T10:20:35.001Z</time></trkpt><trkpt lat="44.415879442286766" lon="10.35131779755299"><ele>934.0</ele><time>2026-04-18T10:20:36.001Z</time></trkpt><trkpt lat="44.416024438509886" lon="10.35127971720988"><ele>934.0</ele><time>2026-04-18T10:20:37.001Z</time></trkpt><trkpt lat="44.41616015333227" lon="10.351242140288402"><ele>934.0</ele><time>2026-04-18T10:20:38.001Z</time></trkpt><trkpt lat="44.416295555953994" lon="10.351192243852308"><ele>934.0</ele><time>2026-04-18T10:20:39.001Z</time></trkpt><trkpt lat="44.41642467145134" lon="10.3511758592269"><ele>934.0</ele><time>2026-04-18T10:20:40.001Z</time></trkpt><trkpt lat="44.416534963640586" lon="10.35113587641795"><ele>934.0</ele><time>2026-04-18T10:20:41.001Z</time></trkpt><trkpt lat="44.41661642717513" lon="10.351118913768856"><ele>931.0</ele><time>2026-04-18T10:20:42.001Z</time></trkpt><trkpt lat="44.41671702050032" lon="10.351134390300786"><ele>928.0000000000001</ele><time>2026-04-18T10:20:44.001Z</time></trkpt><trkpt lat="44.416686789531994" lon="10.351288919875085"><ele>925.0000000000001</ele><time>2026-04-18T10:20:46.001Z</time></trkpt><trkpt lat="44.41662659784102" lon="10.351375076838773"><ele>922.0</ele><time>2026-04-18T10:20:47.001Z</time></trkpt><trkpt lat="44.41653795410949" lon="10.351450015722438"><ele>919.0</ele><time>2026-04-18T10:20:48.001Z</time></trkpt><trkpt lat="44.41644300450525" lon="10.351528054718985"><ele>918.2</ele><time>2026-04-18T10:20:49.001Z</time></trkpt><trkpt lat="44.416354683684915" lon="10.35159792335105"><ele>917.4000000000001</ele><time>2026-04-18T10:20:50.001Z</time></trkpt><trkpt lat="44.416268309225615" lon="10.351688881352676"><ele>916.6</ele><time>2026-04-18T10:20:51.001Z</time></trkpt><trkpt lat="44.41620325551563" lon="10.351801773668479"><ele>915.8</ele><time>2026-04-18T10:20:52.001Z</time></trkpt><trkpt lat="44.416166767187086" lon="10.35194735215649"><ele>915.0</ele><time>2026-04-18T10:20:53.001Z</time></trkpt><trkpt lat="44.41614452703276" lon="10.352117230302019"><ele>914.25</ele><time>2026-04-18T10:20:54.001Z</time></trkpt><trkpt lat="44.41612402427216" lon="10.352295597202497"><ele>913.5</ele><time>2026-04-18T10:20:55.001Z</time></trkpt><trkpt lat="44.41610423131276" lon="10.352482231647887"><ele>912.75</ele><time>2026-04-18T10:20:56.001Z</time></trkpt><trkpt lat="44.41608337977073" lon="10.352674394540404"><ele>912.0</ele><time>2026-04-18T10:20:57.001Z</time></trkpt><trkpt lat="44.416061917369134" lon="10.352869931799189"><ele>910.0</ele><time>2026-04-18T10:20:58.001Z</time></trkpt><trkpt lat="44.41604129954085" lon="10.353059267340601"><ele>908.0</ele><time>2026-04-18T10:20:59.001Z</time></trkpt><trkpt lat="44.416020616230895" lon="10.353221339236232"><ele>906.0</ele><time>2026-04-18T10:21:00.001Z</time></trkpt><trkpt lat="44.41597895643623" lon="10.353354050495305"><ele>904.0</ele><time>2026-04-18T10:21:01Z</time></trkpt><trkpt lat="44.415908298819616" lon="10.35345689900386"><ele>904.0</ele><time>2026-04-18T10:21:02Z</time></trkpt><trkpt lat="44.415802553467" lon="10.353536669509205"><ele>904.0</ele><time>2026-04-18T10:21:03Z</time></trkpt><trkpt lat="44.41566804850527" lon="10.353591758192877"><ele>904.0</ele><time>2026-04-18T10:21:04Z</time></trkpt><trkpt lat="44.41550329711165" lon="10.35363508803353"><ele>904.0</ele><time>2026-04-18T10:21:05Z</time></trkpt><trkpt lat="44.415335877706205" lon="10.353688681030603"><ele>903.0</ele><time>2026-04-18T10:21:06Z</time></trkpt><trkpt lat="44.41516246438212" lon="10.35375404283079"><ele>902.0</ele><time>2026-04-18T10:21:07Z</time></trkpt><trkpt lat="44.415005889352855" lon="10.353811253012589"><ele>901.0</ele><time>2026-04-18T10:21:08Z</time></trkpt><trkpt lat="44.41485977961965" lon="10.353848646017427"><ele>899.5999999999999</ele><time>2026-04-18T10:21:09Z</time></trkpt><trkpt lat="44.41473265339349" lon="10.353884021733792"><ele>898.1999999999999</ele><time>2026-04-18T10:21:10Z</time></trkpt><trkpt lat="44.41462492264041" lon="10.353932172091586"><ele>896.8000000000001</ele><time>2026-04-18T10:21:11Z</time></trkpt><trkpt lat="44.41454690275063" lon="10.35396287109177"><ele>895.4000000000001</ele><time>2026-04-18T10:21:12Z</time></trkpt><trkpt lat="44.41452095134367" lon="10.354104546219096"><ele>894.0</ele><time>2026-04-18T10:21:13Z</time></trkpt><trkpt lat="44.414533774032094" lon="10.35423090164051"><ele>894.0</ele><time>2026-04-18T10:21:14Z</time></trkpt><trkpt lat="44.4145969535826" lon="10.354388086049742"><ele>894.0</ele><time>2026-04-18T10:21:15Z</time></trkpt><trkpt lat="44.41469737199354" lon="10.354580517987188"><ele>894.0</ele><time>2026-04-18T10:21:16Z</time></trkpt><trkpt lat="44.41480134836271" lon="10.354748438094186"><ele>892.5</ele><time>2026-04-18T10:21:17Z</time></trkpt><trkpt lat="44.41487695455408" lon="10.354914906278136"><ele>891.0</ele><time>2026-04-18T10:21:18Z</time></trkpt><trkpt lat="44.41496383061015" lon="10.355050360675033"><ele>889.5</ele><time>2026-04-18T10:21:19Z</time></trkpt><trkpt lat="44.41508973970934" lon="10.355157666779808"><ele>888.0</ele><time>2026-04-18T10:21:20Z</time></trkpt><trkpt lat="44.41527154133044" lon="10.355236739067957"><ele>888.0</ele><time>2026-04-18T10:21:21Z</time></trkpt><trkpt lat="44.41547981369477" lon="10.355297312081126"><ele>888.0</ele><time>2026-04-18T10:21:22Z</time></trkpt><trkpt lat="44.415670889539086" lon="10.355403355654262"><ele>888.0</ele><time>2026-04-18T10:21:23Z</time></trkpt><trkpt lat="44.415834828044254" lon="10.355528761612845"><ele>885.6666666666667</ele><time>2026-04-18T10:21:24Z</time></trkpt><trkpt lat="44.41597474525364" lon="10.3556692582307"><ele>883.3333333333334</ele><time>2026-04-18T10:21:25Z</time></trkpt><trkpt lat="44.416129140658505" lon="10.355821874489925"><ele>881.0</ele><time>2026-04-18T10:21:26Z</time></trkpt><trkpt lat="44.41626110277941" lon="10.355985436176645"><ele>878.6666666666667</ele><time>2026-04-18T10:21:27Z</time></trkpt><trkpt lat="44.416395870997846" lon="10.356143082067003"><ele>876.3333333333333</ele><time>2026-04-18T10:21:28Z</time></trkpt><trkpt lat="44.416538548125466" lon="10.35629322758742"><ele>874.0</ele><time>2026-04-18T10:21:29Z</time></trkpt><trkpt lat="44.41665083577118" lon="10.356403578512076"><ele>873.2</ele><time>2026-04-18T10:21:30Z</time></trkpt><trkpt lat="44.41671582344504" lon="10.356472795515954"><ele>872.4000000000001</ele><time>2026-04-18T10:21:31Z</time></trkpt><trkpt lat="44.41676027870329" lon="10.35653969295231"><ele>871.6</ele><time>2026-04-18T10:21:32Z</time></trkpt><trkpt lat="44.41675513284996" lon="10.356630324103064"><ele>870.8</ele><time>2026-04-18T10:21:33Z</time></trkpt><trkpt lat="44.416647825659155" lon="10.356720657371975"><ele>870.0</ele><time>2026-04-18T10:21:35Z</time></trkpt><trkpt lat="44.41653342070207" lon="10.356706499368041"><ele>870.0</ele><time>2026-04-18T10:21:36Z</time></trkpt><trkpt lat="44.41634016021908" lon="10.3566879878109"><ele>870.0</ele><time>2026-04-18T10:21:37Z</time></trkpt><trkpt lat="44.41611517444854" lon="10.356686387918172"><ele>870.0</ele><time>2026-04-18T10:21:38Z</time></trkpt><trkpt lat="44.41588160752079" lon="10.356705021291804"><ele>869.3333333333333</ele><time>2026-04-18T10:21:39Z</time></trkpt><trkpt lat="44.41568316773545" lon="10.35671421542197"><ele>868.6666666666666</ele><time>2026-04-18T10:21:40Z</time></trkpt><trkpt lat="44.41551263375141" lon="10.356717619730475"><ele>868.0</ele><time>2026-04-18T10:21:41Z</time></trkpt><trkpt lat="44.415361504983075" lon="10.356735254490834"><ele>867.0</ele><time>2026-04-18T10:21:42.001Z</time></trkpt><trkpt lat="44.41523130906276" lon="10.356789069533763"><ele>866.0</ele><time>2026-04-18T10:21:43.001Z</time></trkpt><trkpt lat="44.41511476778873" lon="10.356905113092793"><ele>865.0</ele><time>2026-04-18T10:21:44.001Z</time></trkpt><trkpt lat="44.41501048444674" lon="10.357071258353017"><ele>864.0</ele><time>2026-04-18T10:21:45.001Z</time></trkpt><trkpt lat="44.41496071335528" lon="10.35729754922926"><ele>860.3333333333333</ele><time>2026-04-18T10:21:46.001Z</time></trkpt><trkpt lat="44.414936804467516" lon="10.357516404840851"><ele>856.6666666666666</ele><time>2026-04-18T10:21:47.001Z</time></trkpt><trkpt lat="44.41496189953606" lon="10.357728290822875"><ele>853.0</ele><time>2026-04-18T10:21:48.001Z</time></trkpt><trkpt lat="44.41503239628922" lon="10.357911280386707"><ele>850.6666666666666</ele><time>2026-04-18T10:21:49.001Z</time></trkpt><trkpt lat="44.41513287725875" lon="10.358070664132203"><ele>848.3333333333333</ele><time>2026-04-18T10:21:50.001Z</time></trkpt><trkpt lat="44.415271360296714" lon="10.358208738748813"><ele>846.0</ele><time>2026-04-18T10:21:51.001Z</time></trkpt><trkpt lat="44.415466495754536" lon="10.35831733969933"><ele>847.0</ele><time>2026-04-18T10:21:52.001Z</time></trkpt><trkpt lat="44.41571798735844" lon="10.358456272338627"><ele>848.0</ele><time>2026-04-18T10:21:53.001Z</time></trkpt><trkpt lat="44.41590849450152" lon="10.35856995053096"><ele>848.0</ele><time>2026-04-18T10:21:54.001Z</time></trkpt><trkpt lat="44.41610831413234" lon="10.358686832921455"><ele>848.0</ele><time>2026-04-18T10:21:55.001Z</time></trkpt><trkpt lat="44.41629075239518" lon="10.358782049470431"><ele>848.0</ele><time>2026-04-18T10:21:56.001Z</time></trkpt><trkpt lat="44.41644249402523" lon="10.358878272204558"><ele>844.0</ele><time>2026-04-18T10:21:57.001Z</time></trkpt><trkpt lat="44.416575706559975" lon="10.358966546469091"><ele>840.0</ele><time>2026-04-18T10:21:58.001Z</time></trkpt><trkpt lat="44.416693094660445" lon="10.359068546874006"><ele>836.0</ele><time>2026-04-18T10:21:59.001Z</time></trkpt><trkpt lat="44.416864355144725" lon="10.359131553278228"><ele>836.0</ele><time>2026-04-18T10:22:00.001Z</time></trkpt><trkpt lat="44.41690857031397" lon="10.359410541157402"><ele>836.0</ele><time>2026-04-18T10:22:01.001Z</time></trkpt><trkpt lat="44.41701126282788" lon="10.359553111881471"><ele>836.0</ele><time>2026-04-18T10:22:02.001Z</time></trkpt><trkpt lat="44.41715687091709" lon="10.359657764043222"><ele>833.0</ele><time>2026-04-18T10:22:03.001Z</time></trkpt><trkpt lat="44.4173189744557" lon="10.35974441900281"><ele>830.0</ele><time>2026-04-18T10:22:04.001Z</time></trkpt><trkpt lat="44.41745019735247" lon="10.359888480913156"><ele>827.0</ele><time>2026-04-18T10:22:05.001Z</time></trkpt><trkpt lat="44.417586741035784" lon="10.360073500665818"><ele>827.0</ele><time>2026-04-18T10:22:06.001Z</time></trkpt><trkpt lat="44.417696305076156" lon="10.360269016783743"><ele>827.0</ele><time>2026-04-18T10:22:07.001Z</time></trkpt><trkpt lat="44.41779848233961" lon="10.360460072466257"><ele>827.0</ele><time>2026-04-18T10:22:08.001Z</time></trkpt><trkpt lat="44.41790511966354" lon="10.360641700191868"><ele>825.75</ele><time>2026-04-18T10:22:09.001Z</time></trkpt><trkpt lat="44.41802894713869" lon="10.36081646850587"><ele>824.5</ele><time>2026-04-18T10:22:10.001Z</time></trkpt><trkpt lat="44.41814163781515" lon="10.360934930233636"><ele>823.25</ele><time>2026-04-18T10:22:11.001Z</time></trkpt><trkpt lat="44.418239300751175" lon="10.361039901283139"><ele>822.0</ele><time>2026-04-18T10:22:12.001Z</time></trkpt><trkpt lat="44.41832473184259" lon="10.361148030855857"><ele>822.0</ele><time>2026-04-18T10:22:13.001Z</time></trkpt><trkpt lat="44.41837229359806" lon="10.361281943275074"><ele>822.0</ele><time>2026-04-18T10:22:14.001Z</time></trkpt><trkpt lat="44.4183978975583" lon="10.361442649299137"><ele>822.0</ele><time>2026-04-18T10:22:15.001Z</time></trkpt><trkpt lat="44.41836772126449" lon="10.361624041740106"><ele>822.0</ele><time>2026-04-18T10:22:16.001Z</time></trkpt><trkpt lat="44.418313499281055" lon="10.361803431173332"><ele>820.25</ele><time>2026-04-18T10:22:17.001Z</time></trkpt><trkpt lat="44.41827064390332" lon="10.361999299209097"><ele>818.5</ele><time>2026-04-18T10:22:18.001Z</time></trkpt><trkpt lat="44.4182121826105" lon="10.36218598755067"><ele>816.75</ele><time>2026-04-18T10:22:19.001Z</time></trkpt><trkpt lat="44.41818538258721" lon="10.36239616729875"><ele>815.0</ele><time>2026-04-18T10:22:20.001Z</time></trkpt><trkpt lat="44.41814617691598" lon="10.362604360710183"><ele>814.0</ele><time>2026-04-18T10:22:21.001Z</time></trkpt><trkpt lat="44.41810613549076" lon="10.362824850355759"><ele>813.0</ele><time>2026-04-18T10:22:22.001Z</time></trkpt><trkpt lat="44.4180498383158" lon="10.363046470466923"><ele>812.0</ele><time>2026-04-18T10:22:23.001Z</time></trkpt><trkpt lat="44.41802471735132" lon="10.363283438584563"><ele>806.3333333333334</ele><time>2026-04-18T10:22:24.001Z</time></trkpt><trkpt lat="44.41798292992122" lon="10.363503583794705"><ele>800.6666666666667</ele><time>2026-04-18T10:22:25.001Z</time></trkpt><trkpt lat="44.41794582915732" lon="10.363714678272085"><ele>795.0</ele><time>2026-04-18T10:22:26.001Z</time></trkpt><trkpt lat="44.41791667803357" lon="10.363897392438115"><ele>793.25</ele><time>2026-04-18T10:22:27.001Z</time></trkpt><trkpt lat="44.41787885247714" lon="10.364087408970178"><ele>791.5</ele><time>2026-04-18T10:22:28.001Z</time></trkpt><trkpt lat="44.41786289743477" lon="10.364283123650686"><ele>789.75</ele><time>2026-04-18T10:22:29.001Z</time></trkpt><trkpt lat="44.41786519621628" lon="10.364502195083226"><ele>788.0</ele><time>2026-04-18T10:22:30.001Z</time></trkpt><trkpt lat="44.41789400457842" lon="10.36471739700174"><ele>786.5</ele><time>2026-04-18T10:22:31.001Z</time></trkpt><trkpt lat="44.41791650904383" lon="10.364916698578385"><ele>785.0</ele><time>2026-04-18T10:22:32.001Z</time></trkpt><trkpt lat="44.41794467672363" lon="10.36509946911996"><ele>783.5</ele><time>2026-04-18T10:22:33.001Z</time></trkpt><trkpt lat="44.417980682559644" lon="10.36526824340876"><ele>782.0</ele><time>2026-04-18T10:22:34.001Z</time></trkpt><trkpt lat="44.418025484676505" lon="10.365434451469746"><ele>784.25</ele><time>2026-04-18T10:22:35.001Z</time></trkpt><trkpt lat="44.41808111684986" lon="10.365593167521657"><ele>786.5</ele><time>2026-04-18T10:22:36.001Z</time></trkpt><trkpt lat="44.41814555912848" lon="10.36574184069633"><ele>788.75</ele><time>2026-04-18T10:22:37.001Z</time></trkpt><trkpt lat="44.418197007820616" lon="10.36590366563268"><ele>791.0</ele><time>2026-04-18T10:22:38.001Z</time></trkpt><trkpt lat="44.4182594171146" lon="10.366057063047421"><ele>791.0</ele><time>2026-04-18T10:22:39.001Z</time></trkpt><trkpt lat="44.41832193302548" lon="10.366205004394974"><ele>791.0</ele><time>2026-04-18T10:22:40.001Z</time></trkpt><trkpt lat="44.41838233191912" lon="10.366331549239373"><ele>791.0</ele><time>2026-04-18T10:22:41.001Z</time></trkpt><trkpt lat="44.41844360357864" lon="10.366437234558408"><ele>791.0</ele><time>2026-04-18T10:22:42.001Z</time></trkpt><trkpt lat="44.4185046613684" lon="10.366510902781798"><ele>791.0</ele><time>2026-04-18T10:22:43.001Z</time></trkpt><trkpt lat="44.418575288378356" lon="10.366571230500469"><ele>789.1999999999999</ele><time>2026-04-18T10:22:44.001Z</time></trkpt><trkpt lat="44.418667138177035" lon="10.366617011172087"><ele>787.4</ele><time>2026-04-18T10:22:45.001Z</time></trkpt><trkpt lat="44.41875800843484" lon="10.366653760305603"><ele>785.6</ele><time>2026-04-18T10:22:46.001Z</time></trkpt><trkpt lat="44.418847306817575" lon="10.366699628988965"><ele>783.8</ele><time>2026-04-18T10:22:47.001Z</time></trkpt><trkpt lat="44.4189340742409" lon="10.366761381168132"><ele>782.0</ele><time>2026-04-18T10:22:48.001Z</time></trkpt><trkpt lat="44.41901777861015" lon="10.366845874562946"><ele>782.0</ele><time>2026-04-18T10:22:49.001Z</time></trkpt><trkpt lat="44.4191401499829" lon="10.367014070284737"><ele>782.0</ele><time>2026-04-18T10:22:50.001Z</time></trkpt><trkpt lat="44.41922157042245" lon="10.36713106724974"><ele>782.0</ele><time>2026-04-18T10:22:51.001Z</time></trkpt><trkpt lat="44.419309943098554" lon="10.36725805433886"><ele>782.0</ele><time>2026-04-18T10:22:52.001Z</time></trkpt><trkpt lat="44.41942109900469" lon="10.367416958203096"><ele>782.0</ele><time>2026-04-18T10:22:53.001Z</time></trkpt><trkpt lat="44.41955429329748" lon="10.367605758948475"><ele>782.0</ele><time>2026-04-18T10:22:54.001Z</time></trkpt><trkpt lat="44.4196759714474" lon="10.36777823577798"><ele>782.0</ele><time>2026-04-18T10:22:55.001Z</time></trkpt><trkpt lat="44.41979305303875" lon="10.367910813041055"><ele>776.6666666666667</ele><time>2026-04-18T10:22:56.001Z</time></trkpt><trkpt lat="44.419892353249104" lon="10.36807535208982"><ele>771.3333333333334</ele><time>2026-04-18T10:22:57.001Z</time></trkpt><trkpt lat="44.42004493525055" lon="10.36822215345164"><ele>766.0</ele><time>2026-04-18T10:22:58.001Z</time></trkpt><trkpt lat="44.420200221829774" lon="10.368317271673165"><ele>766.0</ele><time>2026-04-18T10:22:59.001Z</time></trkpt><trkpt lat="44.42034313650918" lon="10.368407999121489"><ele>766.0</ele><time>2026-04-18T10:23:00.001Z</time></trkpt><trkpt lat="44.42044987769731" lon="10.368498555316123"><ele>766.0</ele><time>2026-04-18T10:23:01.001Z</time></trkpt><trkpt lat="44.420533099712856" lon="10.368593828603045"><ele>766.0</ele><time>2026-04-18T10:23:02.001Z</time></trkpt><trkpt lat="44.4205555028173" lon="10.36873066489426"><ele>763.75</ele><time>2026-04-18T10:23:03Z</time></trkpt><trkpt lat="44.42053503844496" lon="10.368889573980644"><ele>761.5</ele><time>2026-04-18T10:23:04Z</time></trkpt><trkpt lat="44.420487400240894" lon="10.369057414430369"><ele>759.25</ele><time>2026-04-18T10:23:05Z</time></trkpt><trkpt lat="44.42046334325731" lon="10.369218327754952"><ele>757.0</ele><time>2026-04-18T10:23:06Z</time></trkpt><trkpt lat="44.4204945261084" lon="10.369376442642972"><ele>757.0</ele><time>2026-04-18T10:23:07Z</time></trkpt><trkpt lat="44.42056743691198" lon="10.369495320690241"><ele>757.0</ele><time>2026-04-18T10:23:08Z</time></trkpt><trkpt lat="44.42067517640463" lon="10.369562839092994"><ele>757.0</ele><time>2026-04-18T10:23:09Z</time></trkpt><trkpt lat="44.42082506139838" lon="10.369607385604095"><ele>757.0</ele><time>2026-04-18T10:23:10Z</time></trkpt><trkpt lat="44.42101934079907" lon="10.369714233474491"><ele>754.6666666666667</ele><time>2026-04-18T10:23:11Z</time></trkpt><trkpt lat="44.421201006333256" lon="10.369846213632773"><ele>752.3333333333334</ele><time>2026-04-18T10:23:12Z</time></trkpt><trkpt lat="44.42137595307113" lon="10.369975196794712"><ele>750.0</ele><time>2026-04-18T10:23:13Z</time></trkpt><trkpt lat="44.42153011863397" lon="10.37009153319286"><ele>750.0</ele><time>2026-04-18T10:23:14Z</time></trkpt><trkpt lat="44.42164305584055" lon="10.370201385686144"><ele>750.0</ele><time>2026-04-18T10:23:15Z</time></trkpt><trkpt lat="44.42171487920906" lon="10.370347812829207"><ele>750.0</ele><time>2026-04-18T10:23:16Z</time></trkpt><trkpt lat="44.42178460435863" lon="10.370515366884877"><ele>750.0</ele><time>2026-04-18T10:23:17Z</time></trkpt><trkpt lat="44.42188886922485" lon="10.370669631137279"><ele>747.6</ele><time>2026-04-18T10:23:18Z</time></trkpt><trkpt lat="44.42200359447923" lon="10.370791635633518"><ele>745.2</ele><time>2026-04-18T10:23:19Z</time></trkpt><trkpt lat="44.42209863892063" lon="10.370864730369473"><ele>742.8</ele><time>2026-04-18T10:23:20Z</time></trkpt><trkpt lat="44.42216580610119" lon="10.37092180232981"><ele>740.4</ele><time>2026-04-18T10:23:21Z</time></trkpt><trkpt lat="44.422172898297035" lon="10.371032176732259"><ele>738.0</ele><time>2026-04-18T10:23:23Z</time></trkpt><trkpt lat="44.42202663157375" lon="10.371045804558275"><ele>738.0</ele><time>2026-04-18T10:23:25Z</time></trkpt><trkpt lat="44.42190641009039" lon="10.371001988151127"><ele>738.0</ele><time>2026-04-18T10:23:26Z</time></trkpt><trkpt lat="44.42178592192043" lon="10.370954235264207"><ele>738.0</ele><time>2026-04-18T10:23:27Z</time></trkpt><trkpt lat="44.421642375678275" lon="10.370910264264104"><ele>738.0</ele><time>2026-04-18T10:23:28Z</time></trkpt><trkpt lat="44.421490226370345" lon="10.370865990109388"><ele>738.0</ele><time>2026-04-18T10:23:29Z</time></trkpt><trkpt lat="44.42134026146645" lon="10.370820742960147"><ele>738.0</ele><time>2026-04-18T10:23:30Z</time></trkpt><trkpt lat="44.42118768968884" lon="10.37079360569214"><ele>738.0</ele><time>2026-04-18T10:23:31Z</time></trkpt><trkpt lat="44.42099095806499" lon="10.370843120812943"><ele>736.0</ele><time>2026-04-18T10:23:32Z</time></trkpt><trkpt lat="44.420772716999274" lon="10.370922006408954"><ele>734.0</ele><time>2026-04-18T10:23:33Z</time></trkpt><trkpt lat="44.42054786369282" lon="10.370962855517844"><ele>732.3333333333333</ele><time>2026-04-18T10:23:34Z</time></trkpt><trkpt lat="44.42034046142796" lon="10.371013211433274"><ele>730.6666666666666</ele><time>2026-04-18T10:23:35Z</time></trkpt><trkpt lat="44.42015297081227" lon="10.371053428535438"><ele>729.0</ele><time>2026-04-18T10:23:36Z</time></trkpt><trkpt lat="44.41996580563955" lon="10.371095527312844"><ele>729.0</ele><time>2026-04-18T10:23:37Z</time></trkpt><trkpt lat="44.419775844073236" lon="10.371133485803195"><ele>729.0</ele><time>2026-04-18T10:23:38Z</time></trkpt><trkpt lat="44.419594607845724" lon="10.371173023391187"><ele>729.0</ele><time>2026-04-18T10:23:39Z</time></trkpt><trkpt lat="44.41943812782455" lon="10.371201286336246"><ele>728.4000000000001</ele><time>2026-04-18T10:23:40Z</time></trkpt><trkpt lat="44.41930650609916" lon="10.371224798400839"><ele>727.8</ele><time>2026-04-18T10:23:41Z</time></trkpt><trkpt lat="44.41920453606583" lon="10.371259537497854"><ele>727.2</ele><time>2026-04-18T10:23:42Z</time></trkpt><trkpt lat="44.4191430179378" lon="10.371347881001315"><ele>726.5999999999999</ele><time>2026-04-18T10:23:43Z</time></trkpt><trkpt lat="44.419119581954504" lon="10.371495126365687"><ele>726.0</ele><time>2026-04-18T10:23:44Z</time></trkpt><trkpt lat="44.41914896502777" lon="10.371711836788409"><ele>722.6666666666666</ele><time>2026-04-18T10:23:45Z</time></trkpt><trkpt lat="44.41910821598974" lon="10.371928790087772"><ele>719.3333333333333</ele><time>2026-04-18T10:23:46Z</time></trkpt><trkpt lat="44.41906432150749" lon="10.372144324108712"><ele>716.0</ele><time>2026-04-18T10:23:47Z</time></trkpt><trkpt lat="44.41899284993009" lon="10.372375248064643"><ele>714.25</ele><time>2026-04-18T10:23:48Z</time></trkpt><trkpt lat="44.41891392016634" lon="10.372562681412026"><ele>712.5</ele><time>2026-04-18T10:23:49Z</time></trkpt><trkpt lat="44.41887738665128" lon="10.372727432798534"><ele>710.75</ele><time>2026-04-18T10:23:50Z</time></trkpt><trkpt lat="44.41883375327626" lon="10.372860734434171"><ele>709.0</ele><time>2026-04-18T10:23:51Z</time></trkpt><trkpt lat="44.418838632805965" lon="10.373008016812998"><ele>707.3333333333334</ele><time>2026-04-18T10:23:52Z</time></trkpt><trkpt lat="44.41893123198178" lon="10.373162646518624"><ele>705.6666666666666</ele><time>2026-04-18T10:23:53Z</time></trkpt><trkpt lat="44.419057616836575" lon="10.37331218332261"><ele>704.0</ele><time>2026-04-18T10:23:54Z</time></trkpt><trkpt lat="44.41922016293369" lon="10.373477148549368"><ele>704.0</ele><time>2026-04-18T10:23:55Z</time></trkpt><trkpt lat="44.41936773814326" lon="10.373696674124846"><ele>704.0</ele><time>2026-04-18T10:23:56Z</time></trkpt><trkpt lat="44.41948784391411" lon="10.37392987753201"><ele>704.0</ele><time>2026-04-18T10:23:57Z</time></trkpt><trkpt lat="44.419571118292325" lon="10.37416186306226"><ele>700.6666666666666</ele><time>2026-04-18T10:23:58Z</time></trkpt><trkpt lat="44.41965535832509" lon="10.374368363782896"><ele>697.3333333333334</ele><time>2026-04-18T10:23:59Z</time></trkpt><trkpt lat="44.41977186681928" lon="10.37455184760258"><ele>694.0</ele><time>2026-04-18T10:24:00Z</time></trkpt><trkpt lat="44.41985205856623" lon="10.374729045547197"><ele>694.0</ele><time>2026-04-18T10:24:01Z</time></trkpt><trkpt lat="44.419925522444096" lon="10.374900542708026"><ele>694.0</ele><time>2026-04-18T10:24:02Z</time></trkpt><trkpt lat="44.41999360809085" lon="10.37514281206202"><ele>694.0</ele><time>2026-04-18T10:24:03Z</time></trkpt><trkpt lat="44.42007321284926" lon="10.375396184959312"><ele>694.0</ele><time>2026-04-18T10:24:04Z</time></trkpt><trkpt lat="44.42012866281466" lon="10.375655490104558"><ele>694.0</ele><time>2026-04-18T10:24:05Z</time></trkpt><trkpt lat="44.420228570010515" lon="10.375912071749381"><ele>694.0</ele><time>2026-04-18T10:24:06Z</time></trkpt><trkpt lat="44.420312040664115" lon="10.37616722045515"><ele>693.3333333333334</ele><time>2026-04-18T10:24:07.001Z</time></trkpt><trkpt lat="44.42040504310615" lon="10.376422313612576"><ele>692.6666666666666</ele><time>2026-04-18T10:24:08.001Z</time></trkpt><trkpt lat="44.420500064036794" lon="10.376699415847565"><ele>692.0</ele><time>2026-04-18T10:24:09.001Z</time></trkpt><trkpt lat="44.420560075030636" lon="10.376945778127112"><ele>691.6666666666666</ele><time>2026-04-18T10:24:10.001Z</time></trkpt><trkpt lat="44.42065451924948" lon="10.377146874814429"><ele>691.3333333333334</ele><time>2026-04-18T10:24:11.001Z</time></trkpt><trkpt lat="44.42078155583359" lon="10.377349498450387"><ele>691.0</ele><time>2026-04-18T10:24:12.001Z</time></trkpt><trkpt lat="44.42093261261904" lon="10.37757963753502"><ele>693.5</ele><time>2026-04-18T10:24:13.001Z</time></trkpt><trkpt lat="44.421100239017086" lon="10.377800114861975"><ele>696.0</ele><time>2026-04-18T10:24:14.001Z</time></trkpt><trkpt lat="44.421274627334384" lon="10.378001960044026"><ele>694.6666666666666</ele><time>2026-04-18T10:24:15.001Z</time></trkpt><trkpt lat="44.42142320925457" lon="10.378202898113358"><ele>693.3333333333333</ele><time>2026-04-18T10:24:16.001Z</time></trkpt><trkpt lat="44.421562076050485" lon="10.378380736482045"><ele>692.0</ele><time>2026-04-18T10:24:17.001Z</time></trkpt><trkpt lat="44.421716572574745" lon="10.378569631944504"><ele>692.0</ele><time>2026-04-18T10:24:18.001Z</time></trkpt><trkpt lat="44.421908863999576" lon="10.378693396095755"><ele>692.0</ele><time>2026-04-18T10:24:19.001Z</time></trkpt><trkpt lat="44.42209504639065" lon="10.378832307861611"><ele>692.0</ele><time>2026-04-18T10:24:20.001Z</time></trkpt><trkpt lat="44.422268199880314" lon="10.378990996969678"><ele>691.0</ele><time>2026-04-18T10:24:21.001Z</time></trkpt><trkpt lat="44.42242985372299" lon="10.379182815028264"><ele>690.0</ele><time>2026-04-18T10:24:22.001Z</time></trkpt><trkpt lat="44.422582439228414" lon="10.37932854525526"><ele>689.0</ele><time>2026-04-18T10:24:23.001Z</time></trkpt><trkpt lat="44.422755542276064" lon="10.379481565623388"><ele>689.0</ele><time>2026-04-18T10:24:24.001Z</time></trkpt><trkpt lat="44.42291785218471" lon="10.379625249295335"><ele>689.0</ele><time>2026-04-18T10:24:25.001Z</time></trkpt><trkpt lat="44.423078350035375" lon="10.379770182700522"><ele>689.0</ele><time>2026-04-18T10:24:26.001Z</time></trkpt><trkpt lat="44.423240149993774" lon="10.379915810129848"><ele>687.6666666666666</ele><time>2026-04-18T10:24:27.001Z</time></trkpt><trkpt lat="44.42340027913123" lon="10.380058274647201"><ele>686.3333333333334</ele><time>2026-04-18T10:24:28.001Z</time></trkpt><trkpt lat="44.42356116589398" lon="10.380196455675248"><ele>685.0</ele><time>2026-04-18T10:24:29.001Z</time></trkpt><trkpt lat="44.42372715907883" lon="10.380329824985123"><ele>683.3333333333334</ele><time>2026-04-18T10:24:30.001Z</time></trkpt><trkpt lat="44.423903796198395" lon="10.380463016148488"><ele>681.6666666666666</ele><time>2026-04-18T10:24:31.001Z</time></trkpt><trkpt lat="44.42409729503364" lon="10.380591292773458"><ele>680.0</ele><time>2026-04-18T10:24:32.001Z</time></trkpt><trkpt lat="44.42431619799035" lon="10.380709023718264"><ele>680.0</ele><time>2026-04-18T10:24:33.001Z</time></trkpt><trkpt lat="44.42452607071364" lon="10.380811244595012"><ele>680.0</ele><time>2026-04-18T10:24:34.001Z</time></trkpt><trkpt lat="44.42472713512561" lon="10.380886803954473"><ele>680.0</ele><time>2026-04-18T10:24:35.001Z</time></trkpt><trkpt lat="44.4249017705327" lon="10.380992794642209"><ele>677.6666666666666</ele><time>2026-04-18T10:24:36.001Z</time></trkpt><trkpt lat="44.425069808867384" lon="10.381102106104285"><ele>675.3333333333334</ele><time>2026-04-18T10:24:37.001Z</time></trkpt><trkpt lat="44.425228599672764" lon="10.381205272281472"><ele>673.0</ele><time>2026-04-18T10:24:38.001Z</time></trkpt><trkpt lat="44.42539047762153" lon="10.381298614393481"><ele>675.3333333333334</ele><time>2026-04-18T10:24:39.001Z</time></trkpt><trkpt lat="44.42554545062196" lon="10.381401735995201"><ele>677.6666666666666</ele><time>2026-04-18T10:24:40.001Z</time></trkpt><trkpt lat="44.42572638820812" lon="10.381429256906497"><ele>680.0</ele><time>2026-04-18T10:24:41.001Z</time></trkpt><trkpt lat="44.42590024903338" lon="10.381486703177512"><ele>680.0</ele><time>2026-04-18T10:24:42.001Z</time></trkpt><trkpt lat="44.42605988162067" lon="10.381579249592848"><ele>680.0</ele><time>2026-04-18T10:24:43.001Z</time></trkpt><trkpt lat="44.426199987803955" lon="10.381701003080936"><ele>680.0</ele><time>2026-04-18T10:24:44.001Z</time></trkpt><trkpt lat="44.4263320109781" lon="10.38183891965749"><ele>680.0</ele><time>2026-04-18T10:24:45.001Z</time></trkpt><trkpt lat="44.42644483929959" lon="10.381970640062892"><ele>680.0</ele><time>2026-04-18T10:24:46.001Z</time></trkpt><trkpt lat="44.426556219218625" lon="10.382095779814131"><ele>680.0</ele><time>2026-04-18T10:24:47.001Z</time></trkpt><trkpt lat="44.42666580286182" lon="10.382214977419373"><ele>680.0</ele><time>2026-04-18T10:24:48.001Z</time></trkpt><trkpt lat="44.426760768977196" lon="10.382325020877893"><ele>680.0</ele><time>2026-04-18T10:24:49.001Z</time></trkpt><trkpt lat="44.42684064542953" lon="10.382449621400518"><ele>680.0</ele><time>2026-04-18T10:24:50.001Z</time></trkpt><trkpt lat="44.42690817007792" lon="10.382591791543918"><ele>680.0</ele><time>2026-04-18T10:24:51.001Z</time></trkpt><trkpt lat="44.42695080908633" lon="10.38276722035139"><ele>680.0</ele><time>2026-04-18T10:24:52.001Z</time></trkpt><trkpt lat="44.42699345263301" lon="10.382947874538502"><ele>679.0</ele><time>2026-04-18T10:24:53.001Z</time></trkpt><trkpt lat="44.427054371563656" lon="10.38313045997269"><ele>678.0</ele><time>2026-04-18T10:24:54.001Z</time></trkpt><trkpt lat="44.42710066553681" lon="10.38333742945338"><ele>677.0</ele><time>2026-04-18T10:24:55.001Z</time></trkpt><trkpt lat="44.42715062433694" lon="10.383551968317258"><ele>676.6666666666666</ele><time>2026-04-18T10:24:56.001Z</time></trkpt><trkpt lat="44.42720170672904" lon="10.383765827959285"><ele>676.3333333333334</ele><time>2026-04-18T10:24:57.001Z</time></trkpt><trkpt lat="44.42725599384547" lon="10.383982858168297"><ele>676.0</ele><time>2026-04-18T10:24:58.001Z</time></trkpt><trkpt lat="44.427323040090364" lon="10.384201973584716"><ele>676.0</ele><time>2026-04-18T10:24:59.001Z</time></trkpt><trkpt lat="44.42740074269907" lon="10.384414525523814"><ele>676.0</ele><time>2026-04-18T10:25:00.001Z</time></trkpt><trkpt lat="44.427497539592466" lon="10.384612416063352"><ele>676.0</ele><time>2026-04-18T10:25:01.001Z</time></trkpt><trkpt lat="44.42761876100987" lon="10.38480204524225"><ele>674.3333333333334</ele><time>2026-04-18T10:25:02.001Z</time></trkpt><trkpt lat="44.427754922792616" lon="10.384988702691082"><ele>672.6666666666666</ele><time>2026-04-18T10:25:03.001Z</time></trkpt><trkpt lat="44.42789370877308" lon="10.385178613743626"><ele>671.0</ele><time>2026-04-18T10:25:04.001Z</time></trkpt><trkpt lat="44.428032544490364" lon="10.38536664608956"><ele>671.6666666666666</ele><time>2026-04-18T10:25:05.001Z</time></trkpt><trkpt lat="44.42817328127741" lon="10.38555351737017"><ele>672.3333333333334</ele><time>2026-04-18T10:25:06.001Z</time></trkpt><trkpt lat="44.42831091476373" lon="10.385736526884008"><ele>673.0</ele><time>2026-04-18T10:25:07.001Z</time></trkpt><trkpt lat="44.428445763100264" lon="10.385914800405164"><ele>673.0</ele><time>2026-04-18T10:25:08.001Z</time></trkpt><trkpt lat="44.428580979027444" lon="10.386090291328461"><ele>673.0</ele><time>2026-04-18T10:25:09.001Z</time></trkpt><trkpt lat="44.428712216195805" lon="10.3862654455041"><ele>673.0</ele><time>2026-04-18T10:25:10.001Z</time></trkpt><trkpt lat="44.428840603752704" lon="10.3864401456708"><ele>674.6666666666667</ele><time>2026-04-18T10:25:11.001Z</time></trkpt><trkpt lat="44.428962606527165" lon="10.386600278619543"><ele>676.3333333333334</ele><time>2026-04-18T10:25:12Z</time></trkpt><trkpt lat="44.4290768291236" lon="10.386757294836569"><ele>678.0</ele><time>2026-04-18T10:25:13Z</time></trkpt><trkpt lat="44.42918461556806" lon="10.386902844782314"><ele>678.0</ele><time>2026-04-18T10:25:14Z</time></trkpt><trkpt lat="44.429288248307564" lon="10.38704861747867"><ele>678.0</ele><time>2026-04-18T10:25:15Z</time></trkpt><trkpt lat="44.429388491956246" lon="10.387193452484338"><ele>678.0</ele><time>2026-04-18T10:25:16Z</time></trkpt><trkpt lat="44.42948272884988" lon="10.387337165142167"><ele>678.0</ele><time>2026-04-18T10:25:17Z</time></trkpt><trkpt lat="44.429558002395666" lon="10.387499721497697"><ele>677.0</ele><time>2026-04-18T10:25:18Z</time></trkpt><trkpt lat="44.42961592757564" lon="10.387677882585693"><ele>676.0</ele><time>2026-04-18T10:25:19Z</time></trkpt><trkpt lat="44.42965113421277" lon="10.387853840069594"><ele>675.0</ele><time>2026-04-18T10:25:20Z</time></trkpt><trkpt lat="44.429669435264735" lon="10.388038859359773"><ele>674.0</ele><time>2026-04-18T10:25:21Z</time></trkpt><trkpt lat="44.42964925123242" lon="10.388221377389124"><ele>674.5</ele><time>2026-04-18T10:25:22Z</time></trkpt><trkpt lat="44.42963433841069" lon="10.388406327649925"><ele>675.0</ele><time>2026-04-18T10:25:23Z</time></trkpt><trkpt lat="44.42958298810714" lon="10.38858759943381"><ele>675.5</ele><time>2026-04-18T10:25:24Z</time></trkpt><trkpt lat="44.42951170891975" lon="10.388757435595984"><ele>676.0</ele><time>2026-04-18T10:25:25Z</time></trkpt><trkpt lat="44.42941241144762" lon="10.388936416661208"><ele>677.6666666666667</ele><time>2026-04-18T10:25:26Z</time></trkpt><trkpt lat="44.42929884524895" lon="10.389114656827319"><ele>679.3333333333334</ele><time>2026-04-18T10:25:27Z</time></trkpt><trkpt lat="44.42917385123373" lon="10.389305389456156"><ele>681.0</ele><time>2026-04-18T10:25:28Z</time></trkpt><trkpt lat="44.42906613813432" lon="10.389519665708699"><ele>684.3333333333334</ele><time>2026-04-18T10:25:29Z</time></trkpt><trkpt lat="44.42898318741187" lon="10.389742905100102"><ele>687.6666666666667</ele><time>2026-04-18T10:25:30Z</time></trkpt><trkpt lat="44.4289329549231" lon="10.389976761074568"><ele>691.0</ele><time>2026-04-18T10:25:31Z</time></trkpt><trkpt lat="44.42891652794992" lon="10.390219956800523"><ele>691.0</ele><time>2026-04-18T10:25:32Z</time></trkpt><trkpt lat="44.428930087830835" lon="10.390441432206144"><ele>691.0</ele><time>2026-04-18T10:25:33Z</time></trkpt><trkpt lat="44.42895663669278" lon="10.390668001863535"><ele>691.0</ele><time>2026-04-18T10:25:34Z</time></trkpt><trkpt lat="44.42903733260981" lon="10.390922686591942"><ele>690.5</ele><time>2026-04-18T10:25:35Z</time></trkpt><trkpt lat="44.42914150996586" lon="10.391212728639408"><ele>690.0</ele><time>2026-04-18T10:25:36Z</time></trkpt><trkpt lat="44.42923933205819" lon="10.391513184815864"><ele>690.0</ele><time>2026-04-18T10:25:37Z</time></trkpt><trkpt lat="44.42932613479601" lon="10.391790810121915"><ele>690.0</ele><time>2026-04-18T10:25:38Z</time></trkpt><trkpt lat="44.42938944259813" lon="10.392046978528825"><ele>690.0</ele><time>2026-04-18T10:25:39Z</time></trkpt><trkpt lat="44.42947551121629" lon="10.392265915017848"><ele>689.6666666666666</ele><time>2026-04-18T10:25:40Z</time></trkpt><trkpt lat="44.42953928973987" lon="10.39248467001269"><ele>689.3333333333333</ele><time>2026-04-18T10:25:41Z</time></trkpt><trkpt lat="44.42960772547721" lon="10.392702034128595"><ele>689.0</ele><time>2026-04-18T10:25:42Z</time></trkpt><trkpt lat="44.4296753767676" lon="10.392928317338853"><ele>693.3333333333333</ele><time>2026-04-18T10:25:43Z</time></trkpt><trkpt lat="44.4297418845312" lon="10.393152325817562"><ele>697.6666666666666</ele><time>2026-04-18T10:25:44Z</time></trkpt><trkpt lat="44.42980947020573" lon="10.39337532373703"><ele>702.0</ele><time>2026-04-18T10:25:45Z</time></trkpt><trkpt lat="44.42987309092548" lon="10.393572961866665"><ele>702.0</ele><time>2026-04-18T10:25:46Z</time></trkpt><trkpt lat="44.42996419357216" lon="10.393768433545288"><ele>702.0</ele><time>2026-04-18T10:25:47Z</time></trkpt><trkpt lat="44.4300780948181" lon="10.39394598679282"><ele>702.0</ele><time>2026-04-18T10:25:48Z</time></trkpt><trkpt lat="44.43020744564921" lon="10.394100484871998"><ele>702.3333333333334</ele><time>2026-04-18T10:25:49Z</time></trkpt><trkpt lat="44.43033997828383" lon="10.394233793199616"><ele>702.6666666666667</ele><time>2026-04-18T10:25:50Z</time></trkpt><trkpt lat="44.430457800181614" lon="10.394369681087607"><ele>703.0</ele><time>2026-04-18T10:25:51Z</time></trkpt><trkpt lat="44.43057220570048" lon="10.394492427257541"><ele>703.0</ele><time>2026-04-18T10:25:52Z</time></trkpt><trkpt lat="44.430679498862446" lon="10.394606711805922"><ele>703.0</ele><time>2026-04-18T10:25:53Z</time></trkpt><trkpt lat="44.430780195373096" lon="10.394717492517508"><ele>703.0</ele><time>2026-04-18T10:25:54Z</time></trkpt><trkpt lat="44.43087011212978" lon="10.394845585471137"><ele>703.0</ele><time>2026-04-18T10:25:55Z</time></trkpt><trkpt lat="44.43097383430449" lon="10.394938166890814"><ele>703.0</ele><time>2026-04-18T10:25:56Z</time></trkpt><trkpt lat="44.43106595394427" lon="10.395056807572171"><ele>703.0</ele><time>2026-04-18T10:25:57Z</time></trkpt><trkpt lat="44.43114951606486" lon="10.395177604529097"><ele>703.0</ele><time>2026-04-18T10:25:58Z</time></trkpt><trkpt lat="44.4312420137657" lon="10.39529868882655"><ele>703.0</ele><time>2026-04-18T10:25:59Z</time></trkpt><trkpt lat="44.43132452632866" lon="10.395435026143087"><ele>702.5</ele><time>2026-04-18T10:26:00Z</time></trkpt><trkpt lat="44.431382795520804" lon="10.39559627389517"><ele>702.0</ele><time>2026-04-18T10:26:01Z</time></trkpt><trkpt lat="44.431385608807304" lon="10.395745391675131"><ele>701.5</ele><time>2026-04-18T10:26:02Z</time></trkpt><trkpt lat="44.43137411170818" lon="10.395897849183926"><ele>701.0</ele><time>2026-04-18T10:26:04Z</time></trkpt><trkpt lat="44.43130966429147" lon="10.396026505251939"><ele>701.0</ele><time>2026-04-18T10:26:06Z</time></trkpt><trkpt lat="44.431345026526785" lon="10.396158845442669"><ele>701.0</ele><time>2026-04-18T10:26:08Z</time></trkpt><trkpt lat="44.43136084946272" lon="10.396329814795658"><ele>701.0</ele><time>2026-04-18T10:26:10Z</time></trkpt><trkpt lat="44.43134037223428" lon="10.396425452890854"><ele>701.0</ele><time>2026-04-18T10:26:11Z</time></trkpt><trkpt lat="44.43131819564413" lon="10.396526118631922"><ele>701.0</ele><time>2026-04-18T10:26:12Z</time></trkpt><trkpt lat="44.431293698031475" lon="10.396637134936103"><ele>698.8</ele><time>2026-04-18T10:26:13Z</time></trkpt><trkpt lat="44.431266321940214" lon="10.396764207858848"><ele>696.5999999999999</ele><time>2026-04-18T10:26:14Z</time></trkpt><trkpt lat="44.43124897327999" lon="10.396906396027887"><ele>694.4</ele><time>2026-04-18T10:26:15Z</time></trkpt><trkpt lat="44.43121303539772" lon="10.397038134400429"><ele>692.2</ele><time>2026-04-18T10:26:16Z</time></trkpt><trkpt lat="44.431182896337496" lon="10.397190221948065"><ele>690.0</ele><time>2026-04-18T10:26:17Z</time></trkpt><trkpt lat="44.4311524628029" lon="10.397340424711315"><ele>690.0</ele><time>2026-04-18T10:26:18Z</time></trkpt><trkpt lat="44.431114212062774" lon="10.397497795608558"><ele>690.0</ele><time>2026-04-18T10:26:19Z</time></trkpt><trkpt lat="44.43107784067577" lon="10.397663809806538"><ele>690.0</ele><time>2026-04-18T10:26:20Z</time></trkpt><trkpt lat="44.431044522152675" lon="10.39782162884308"><ele>690.0</ele><time>2026-04-18T10:26:21Z</time></trkpt><trkpt lat="44.43101639227818" lon="10.397956906297592"><ele>690.6</ele><time>2026-04-18T10:26:22Z</time></trkpt><trkpt lat="44.430992461963896" lon="10.398089181260378"><ele>691.2</ele><time>2026-04-18T10:26:23Z</time></trkpt><trkpt lat="44.43098214892813" lon="10.398224813355101"><ele>691.8</ele><time>2026-04-18T10:26:24Z</time></trkpt><trkpt lat="44.43098434498148" lon="10.398376497574414"><ele>692.4</ele><time>2026-04-18T10:26:25Z</time></trkpt><trkpt lat="44.43099665730845" lon="10.398538483337836"><ele>693.0</ele><time>2026-04-18T10:26:26Z</time></trkpt><trkpt lat="44.431027370632144" lon="10.398698308872365"><ele>692.8</ele><time>2026-04-18T10:26:27Z</time></trkpt><trkpt lat="44.43107376115159" lon="10.398840026489339"><ele>692.5999999999999</ele><time>2026-04-18T10:26:28Z</time></trkpt><trkpt lat="44.43112708155168" lon="10.398971129117333"><ele>692.4000000000001</ele><time>2026-04-18T10:26:29Z</time></trkpt><trkpt lat="44.43118720863648" lon="10.39908894218541"><ele>692.2</ele><time>2026-04-18T10:26:30Z</time></trkpt><trkpt lat="44.4312453217955" lon="10.399203111902127"><ele>692.0</ele><time>2026-04-18T10:26:31Z</time></trkpt><trkpt lat="44.43129869374185" lon="10.399323907933756"><ele>692.4000000000001</ele><time>2026-04-18T10:26:32Z</time></trkpt><trkpt lat="44.431351489228135" lon="10.399449487563766"><ele>692.8000000000001</ele><time>2026-04-18T10:26:33Z</time></trkpt><trkpt lat="44.43140585856157" lon="10.39957561447397"><ele>693.2</ele><time>2026-04-18T10:26:34Z</time></trkpt><trkpt lat="44.431464483984236" lon="10.39970521239299"><ele>693.6</ele><time>2026-04-18T10:26:35Z</time></trkpt><trkpt lat="44.43152576108428" lon="10.399835958801773"><ele>694.0</ele><time>2026-04-18T10:26:36Z</time></trkpt><trkpt lat="44.43158612514632" lon="10.399970311000601"><ele>694.0</ele><time>2026-04-18T10:26:37Z</time></trkpt><trkpt lat="44.431646943366324" lon="10.400105509751338"><ele>694.0</ele><time>2026-04-18T10:26:38Z</time></trkpt><trkpt lat="44.431692020623125" lon="10.400244947514778"><ele>694.0</ele><time>2026-04-18T10:26:39Z</time></trkpt><trkpt lat="44.4317466116402" lon="10.400369024828928"><ele>694.0</ele><time>2026-04-18T10:26:40Z</time></trkpt><trkpt lat="44.431798880925314" lon="10.400487825001889"><ele>694.0</ele><time>2026-04-18T10:26:41Z</time></trkpt><trkpt lat="44.43184731576366" lon="10.400597910414985"><ele>693.5</ele><time>2026-04-18T10:26:42Z</time></trkpt><trkpt lat="44.43189393110155" lon="10.400703366174358"><ele>693.0</ele><time>2026-04-18T10:26:43Z</time></trkpt><trkpt lat="44.43193333514871" lon="10.40079170896527"><ele>692.5</ele><time>2026-04-18T10:26:44Z</time></trkpt><trkpt lat="44.43197974056597" lon="10.400854172770602"><ele>692.0</ele><time>2026-04-18T10:26:45Z</time></trkpt><trkpt lat="44.43203786316239" lon="10.400988572257386"><ele>691.5</ele><time>2026-04-18T10:26:47Z</time></trkpt><trkpt lat="44.43206850581509" lon="10.401065799151258"><ele>691.0</ele><time>2026-04-18T10:26:48.001Z</time></trkpt><trkpt lat="44.43210436857609" lon="10.401144020847983"><ele>691.5999999999999</ele><time>2026-04-18T10:26:49.001Z</time></trkpt><trkpt lat="44.4321650472006" lon="10.401272998929628"><ele>692.2</ele><time>2026-04-18T10:26:51.001Z</time></trkpt><trkpt lat="44.432197539514604" lon="10.401386977194504"><ele>692.8</ele><time>2026-04-18T10:26:53.001Z</time></trkpt><trkpt lat="44.4322394200435" lon="10.401481912894978"><ele>693.4000000000001</ele><time>2026-04-18T10:26:55.001Z</time></trkpt><trkpt lat="44.432279736816376" lon="10.401573303828036"><ele>694.0</ele><time>2026-04-18T10:26:57.001Z</time></trkpt><trkpt lat="44.43235068812952" lon="10.401691368419565"><ele>694.0</ele><time>2026-04-18T10:26:59.001Z</time></trkpt><trkpt lat="44.43237351521513" lon="10.401785882642193"><ele>694.0</ele><time>2026-04-18T10:27:00.001Z</time></trkpt><trkpt lat="44.43242584664584" lon="10.40186381972762"><ele>694.0</ele><time>2026-04-18T10:27:01.001Z</time></trkpt><trkpt lat="44.43245496607474" lon="10.401970228369018"><ele>694.0</ele><time>2026-04-18T10:27:02.001Z</time></trkpt><trkpt lat="44.43251114206109" lon="10.402056164274676"><ele>694.0</ele><time>2026-04-18T10:27:03.001Z</time></trkpt><trkpt lat="44.43255582803666" lon="10.402154991359026"><ele>694.0</ele><time>2026-04-18T10:27:04.001Z</time></trkpt><trkpt lat="44.43258792130009" lon="10.402272091871957"><ele>693.6</ele><time>2026-04-18T10:27:05.001Z</time></trkpt><trkpt lat="44.43263939234996" lon="10.40238935062709"><ele>693.2</ele><time>2026-04-18T10:27:06.001Z</time></trkpt><trkpt lat="44.43270429491212" lon="10.402495410637327"><ele>692.8000000000001</ele><time>2026-04-18T10:27:07.001Z</time></trkpt><trkpt lat="44.432759419876085" lon="10.402620999147572"><ele>692.4000000000001</ele><time>2026-04-18T10:27:08.001Z</time></trkpt><trkpt lat="44.432812802015505" lon="10.402740024908805"><ele>692.0</ele><time>2026-04-18T10:27:09Z</time></trkpt><trkpt lat="44.43286925772347" lon="10.402866806640107"><ele>692.0</ele><time>2026-04-18T10:27:10Z</time></trkpt><trkpt lat="44.43292667195119" lon="10.402995782620536"><ele>692.0</ele><time>2026-04-18T10:27:11Z</time></trkpt><trkpt lat="44.43296916084172" lon="10.403136486468698"><ele>692.0</ele><time>2026-04-18T10:27:12Z</time></trkpt><trkpt lat="44.4330255077802" lon="10.403263994475633"><ele>692.0</ele><time>2026-04-18T10:27:13Z</time></trkpt><trkpt lat="44.433097624264306" lon="10.403383793363734"><ele>692.0</ele><time>2026-04-18T10:27:14Z</time></trkpt><trkpt lat="44.43315870249774" lon="10.403525219657503"><ele>692.25</ele><time>2026-04-18T10:27:15Z</time></trkpt><trkpt lat="44.433218790677856" lon="10.403663529182387"><ele>692.5</ele><time>2026-04-18T10:27:16Z</time></trkpt><trkpt lat="44.433281723752174" lon="10.403804183554705"><ele>692.75</ele><time>2026-04-18T10:27:17Z</time></trkpt><trkpt lat="44.4333311935826" lon="10.403957255983208"><ele>693.0</ele><time>2026-04-18T10:27:18Z</time></trkpt><trkpt lat="44.43340120943519" lon="10.404078674092444"><ele>693.0</ele><time>2026-04-18T10:27:19Z</time></trkpt><trkpt lat="44.4334652640381" lon="10.404217673610788"><ele>693.0</ele><time>2026-04-18T10:27:20Z</time></trkpt><trkpt lat="44.433523011955906" lon="10.404353909633823"><ele>693.0</ele><time>2026-04-18T10:27:21Z</time></trkpt><trkpt lat="44.43358475296585" lon="10.40449401171167"><ele>693.0</ele><time>2026-04-18T10:27:22Z</time></trkpt><trkpt lat="44.43364583365362" lon="10.404631835997957"><ele>692.75</ele><time>2026-04-18T10:27:23Z</time></trkpt><trkpt lat="44.433695121632134" lon="10.404779621721337"><ele>692.5</ele><time>2026-04-18T10:27:24Z</time></trkpt><trkpt lat="44.43375510341023" lon="10.404915242569905"><ele>692.25</ele><time>2026-04-18T10:27:25Z</time></trkpt><trkpt lat="44.43382378430606" lon="10.405027038261125"><ele>692.0</ele><time>2026-04-18T10:27:26Z</time></trkpt><trkpt lat="44.43388365676314" lon="10.405165567547868"><ele>693.0</ele><time>2026-04-18T10:27:27Z</time></trkpt><trkpt lat="44.43393656813389" lon="10.405311825803416"><ele>694.0</ele><time>2026-04-18T10:27:28Z</time></trkpt><trkpt lat="44.43398529510363" lon="10.405460226244514"><ele>695.0</ele><time>2026-04-18T10:27:29Z</time></trkpt><trkpt lat="44.4340228791843" lon="10.405617955216604"><ele>696.0</ele><time>2026-04-18T10:27:30Z</time></trkpt><trkpt lat="44.43403225270661" lon="10.405778271556866"><ele>696.0</ele><time>2026-04-18T10:27:31Z</time></trkpt><trkpt lat="44.43405822483139" lon="10.40593770094817"><ele>696.0</ele><time>2026-04-18T10:27:32Z</time></trkpt><trkpt lat="44.43405734332359" lon="10.406099625242767"><ele>696.0</ele><time>2026-04-18T10:27:33Z</time></trkpt><trkpt lat="44.43405042736205" lon="10.40626369416686"><ele>696.0</ele><time>2026-04-18T10:27:34Z</time></trkpt><trkpt lat="44.4340308413421" lon="10.406414712687345"><ele>696.5999999999999</ele><time>2026-04-18T10:27:35Z</time></trkpt><trkpt lat="44.4339864004046" lon="10.40655956202364"><ele>697.2</ele><time>2026-04-18T10:27:36Z</time></trkpt><trkpt lat="44.43395962367269" lon="10.406683600255757"><ele>697.8</ele><time>2026-04-18T10:27:37Z</time></trkpt><trkpt lat="44.43393803414955" lon="10.40678360950162"><ele>698.4000000000001</ele><time>2026-04-18T10:27:38Z</time></trkpt><trkpt lat="44.433902498922436" lon="10.40694510894659"><ele>699.0</ele><time>2026-04-18T10:27:40Z</time></trkpt><trkpt lat="44.433866503964005" lon="10.407105791686602"><ele>699.3333333333334</ele><time>2026-04-18T10:27:42Z</time></trkpt><trkpt lat="44.43384698728188" lon="10.407192914236607"><ele>699.6666666666666</ele><time>2026-04-18T10:27:43Z</time></trkpt><trkpt lat="44.43382799218726" lon="10.407279903521777"><ele>700.0</ele><time>2026-04-18T10:27:44Z</time></trkpt><trkpt lat="44.43380866060192" lon="10.40744286400893"><ele>700.3333333333333</ele><time>2026-04-18T10:27:46Z</time></trkpt><trkpt lat="44.433763720124595" lon="10.40760025073948"><ele>700.6666666666666</ele><time>2026-04-18T10:27:48Z</time></trkpt><trkpt lat="44.433729986318454" lon="10.407682184488277"><ele>701.0</ele><time>2026-04-18T10:27:49Z</time></trkpt><trkpt lat="44.43367593639927" lon="10.40778818477378"><ele>702.0</ele><time>2026-04-18T10:27:50Z</time></trkpt><trkpt lat="44.43360517420709" lon="10.407914993283462"><ele>703.0</ele><time>2026-04-18T10:27:51Z</time></trkpt><trkpt lat="44.43350894928091" lon="10.408032710972126"><ele>704.0</ele><time>2026-04-18T10:27:52Z</time></trkpt><trkpt lat="44.43339021101979" lon="10.408137735054968"><ele>705.0</ele><time>2026-04-18T10:27:53Z</time></trkpt><trkpt lat="44.43327465162992" lon="10.408199439611224"><ele>705.0</ele><time>2026-04-18T10:27:54Z</time></trkpt><trkpt lat="44.43318137461351" lon="10.408274235353105"><ele>705.0</ele><time>2026-04-18T10:27:55Z</time></trkpt><trkpt lat="44.43310139380573" lon="10.408322527723747"><ele>705.0</ele><time>2026-04-18T10:27:56Z</time></trkpt><trkpt lat="44.43303127403594" lon="10.408393973090341"><ele>705.0</ele><time>2026-04-18T10:27:57Z</time></trkpt><trkpt lat="44.43296775800293" lon="10.408482683799422"><ele>705.0</ele><time>2026-04-18T10:27:58Z</time></trkpt><trkpt lat="44.43291529889169" lon="10.408594235932972"><ele>707.25</ele><time>2026-04-18T10:27:59Z</time></trkpt><trkpt lat="44.43286944171922" lon="10.408745340018513"><ele>709.5</ele><time>2026-04-18T10:28:00Z</time></trkpt><trkpt lat="44.43279662636525" lon="10.40891677289127"><ele>711.75</ele><time>2026-04-18T10:28:01Z</time></trkpt><trkpt lat="44.432727545113494" lon="10.409141217119128"><ele>714.0</ele><time>2026-04-18T10:28:02Z</time></trkpt><trkpt lat="44.43267608276751" lon="10.409360279405865"><ele>715.0</ele><time>2026-04-18T10:28:03Z</time></trkpt><trkpt lat="44.43262342702664" lon="10.409526402488941"><ele>716.0</ele><time>2026-04-18T10:28:04Z</time></trkpt><trkpt lat="44.43258461421443" lon="10.409678275066787"><ele>717.0</ele><time>2026-04-18T10:28:05Z</time></trkpt><trkpt lat="44.432550291400595" lon="10.409818146573736"><ele>718.0</ele><time>2026-04-18T10:28:06Z</time></trkpt><trkpt lat="44.43252243898605" lon="10.409956456431747"><ele>718.1666666666667</ele><time>2026-04-18T10:28:07Z</time></trkpt><trkpt lat="44.43249863312947" lon="10.41007699202575"><ele>718.3333333333334</ele><time>2026-04-18T10:28:08Z</time></trkpt><trkpt lat="44.43248359118116" lon="10.41017459679733"><ele>718.5</ele><time>2026-04-18T10:28:09Z</time></trkpt><trkpt lat="44.43247055199756" lon="10.41026567354524"><ele>718.6666666666666</ele><time>2026-04-18T10:28:10Z</time></trkpt><trkpt lat="44.43244327229448" lon="10.410402631255055"><ele>718.8333333333333</ele><time>2026-04-18T10:28:12Z</time></trkpt><trkpt lat="44.43238942757744" lon="10.41051531873141"><ele>719.0</ele><time>2026-04-18T10:28:14Z</time></trkpt><trkpt lat="44.43230267374205" lon="10.410602753943603"><ele>719.0</ele><time>2026-04-18T10:28:16Z</time></trkpt><trkpt lat="44.43227194500848" lon="10.410730134470679"><ele>719.0</ele><time>2026-04-18T10:28:18Z</time></trkpt><trkpt lat="44.432353350272045" lon="10.410826182093254"><ele>719.0</ele><time>2026-04-18T10:28:20Z</time></trkpt><trkpt lat="44.43241565184367" lon="10.410864515373058"><ele>719.0</ele><time>2026-04-18T10:28:21Z</time></trkpt><trkpt lat="44.432491108945015" lon="10.41090333403191"><ele>719.0</ele><time>2026-04-18T10:28:22Z</time></trkpt><trkpt lat="44.43258086455219" lon="10.410972962659832"><ele>719.0</ele><time>2026-04-18T10:28:23Z</time></trkpt><trkpt lat="44.43269242717281" lon="10.411091921850469"><ele>719.0</ele><time>2026-04-18T10:28:24Z</time></trkpt><trkpt lat="44.43278557595831" lon="10.411315869873002"><ele>719.0</ele><time>2026-04-18T10:28:25Z</time></trkpt><trkpt lat="44.43290927862634" lon="10.411536047486212"><ele>718.3333333333333</ele><time>2026-04-18T10:28:26Z</time></trkpt><trkpt lat="44.43300847200851" lon="10.411712692833847"><ele>717.6666666666666</ele><time>2026-04-18T10:28:27Z</time></trkpt><trkpt lat="44.43307876976146" lon="10.411896001052193"><ele>717.0</ele><time>2026-04-18T10:28:28Z</time></trkpt><trkpt lat="44.4331484257978" lon="10.412094897089187"><ele>714.0</ele><time>2026-04-18T10:28:29Z</time></trkpt><trkpt lat="44.4331948125654" lon="10.412286036326336"><ele>711.0</ele><time>2026-04-18T10:28:30Z</time></trkpt><trkpt lat="44.43319372086484" lon="10.41248927161739"><ele>708.0</ele><time>2026-04-18T10:28:31Z</time></trkpt><trkpt lat="44.433190399461864" lon="10.412705144682441"><ele>705.0</ele><time>2026-04-18T10:28:32Z</time></trkpt><trkpt lat="44.43318240643799" lon="10.41292989798608"><ele>702.6666666666666</ele><time>2026-04-18T10:28:33Z</time></trkpt><trkpt lat="44.43313687873389" lon="10.413132857130316"><ele>700.3333333333333</ele><time>2026-04-18T10:28:34Z</time></trkpt><trkpt lat="44.43307546794429" lon="10.413344416868487"><ele>698.0</ele><time>2026-04-18T10:28:35Z</time></trkpt><trkpt lat="44.433015369355104" lon="10.413582122824506"><ele>702.0</ele><time>2026-04-18T10:28:36Z</time></trkpt><trkpt lat="44.43295812624162" lon="10.4138069294687"><ele>706.0</ele><time>2026-04-18T10:28:37Z</time></trkpt><trkpt lat="44.432915891499746" lon="10.414032631898381"><ele>710.0</ele><time>2026-04-18T10:28:38Z</time></trkpt><trkpt lat="44.43287229745045" lon="10.414261446743852"><ele>710.3333333333333</ele><time>2026-04-18T10:28:39Z</time></trkpt><trkpt lat="44.43284018260839" lon="10.414490399433976"><ele>710.6666666666666</ele><time>2026-04-18T10:28:40Z</time></trkpt><trkpt lat="44.43285457134606" lon="10.41471817569104"><ele>711.0</ele><time>2026-04-18T10:28:41Z</time></trkpt><trkpt lat="44.432860678147826" lon="10.41493404435817"><ele>711.0</ele><time>2026-04-18T10:28:42Z</time></trkpt><trkpt lat="44.43287397700836" lon="10.415126255966468"><ele>711.0</ele><time>2026-04-18T10:28:43Z</time></trkpt><trkpt lat="44.43289656519081" lon="10.41530189718735"><ele>711.0</ele><time>2026-04-18T10:28:44Z</time></trkpt><trkpt lat="44.432934344644856" lon="10.415470116653891"><ele>711.0</ele><time>2026-04-18T10:28:45Z</time></trkpt><trkpt lat="44.432986650637716" lon="10.415629371607539"><ele>707.5999999999999</ele><time>2026-04-18T10:28:46Z</time></trkpt><trkpt lat="44.433048373567125" lon="10.415776614915659"><ele>704.2</ele><time>2026-04-18T10:28:47Z</time></trkpt><trkpt lat="44.433113877029754" lon="10.41590202936978"><ele>700.8</ele><time>2026-04-18T10:28:48Z</time></trkpt><trkpt lat="44.43317671366864" lon="10.416011073023565"><ele>697.4000000000001</ele><time>2026-04-18T10:28:49Z</time></trkpt><trkpt lat="44.43323134958122" lon="10.41615442385661"><ele>694.0</ele><time>2026-04-18T10:28:50Z</time></trkpt><trkpt lat="44.43328176880888" lon="10.41635184289844"><ele>694.0</ele><time>2026-04-18T10:28:51Z</time></trkpt><trkpt lat="44.43333440500827" lon="10.416578938779699"><ele>694.0</ele><time>2026-04-18T10:28:52Z</time></trkpt><trkpt lat="44.4333621945275" lon="10.41676991598803"><ele>694.0</ele><time>2026-04-18T10:28:53Z</time></trkpt><trkpt lat="44.433396208341264" lon="10.416966437616663"><ele>695.3333333333334</ele><time>2026-04-18T10:28:54Z</time></trkpt><trkpt lat="44.43346308656263" lon="10.417182809985409"><ele>696.6666666666666</ele><time>2026-04-18T10:28:55Z</time></trkpt><trkpt lat="44.43356784298833" lon="10.417433424032685"><ele>698.0</ele><time>2026-04-18T10:28:56Z</time></trkpt><trkpt lat="44.43367448363096" lon="10.41767811156684"><ele>698.0</ele><time>2026-04-18T10:28:57Z</time></trkpt><trkpt lat="44.433780010860666" lon="10.417895297081477"><ele>698.0</ele><time>2026-04-18T10:28:58Z</time></trkpt><trkpt lat="44.433875839745305" lon="10.418115883488614"><ele>698.0</ele><time>2026-04-18T10:28:59Z</time></trkpt><trkpt lat="44.43397060817325" lon="10.418356141745749"><ele>692.6666666666666</ele><time>2026-04-18T10:29:00Z</time></trkpt><trkpt lat="44.43405976325806" lon="10.418617561705448"><ele>687.3333333333334</ele><time>2026-04-18T10:29:01Z</time></trkpt><trkpt lat="44.43413226780652" lon="10.418874809004615"><ele>682.0</ele><time>2026-04-18T10:29:02Z</time></trkpt><trkpt lat="44.43418231506082" lon="10.419100259406997"><ele>682.0</ele><time>2026-04-18T10:29:03Z</time></trkpt><trkpt lat="44.43422998176583" lon="10.419329415474234"><ele>682.0</ele><time>2026-04-18T10:29:04Z</time></trkpt><trkpt lat="44.43427234659252" lon="10.4195362926822"><ele>682.0</ele><time>2026-04-18T10:29:05Z</time></trkpt><trkpt lat="44.434332232693805" lon="10.419755527171786"><ele>681.6666666666667</ele><time>2026-04-18T10:29:06Z</time></trkpt><trkpt lat="44.43439421489586" lon="10.419996894302242"><ele>681.3333333333334</ele><time>2026-04-18T10:29:07Z</time></trkpt><trkpt lat="44.43450231952466" lon="10.42021684935034"><ele>681.0</ele><time>2026-04-18T10:29:08Z</time></trkpt><trkpt lat="44.43460595969553" lon="10.420443792241194"><ele>676.0</ele><time>2026-04-18T10:29:09Z</time></trkpt><trkpt lat="44.43470775189391" lon="10.420678309568522"><ele>671.0</ele><time>2026-04-18T10:29:10Z</time></trkpt><trkpt lat="44.43479141131059" lon="10.420945363639227"><ele>666.0</ele><time>2026-04-18T10:29:11Z</time></trkpt><trkpt lat="44.43485976757269" lon="10.421238942770568"><ele>666.6666666666666</ele><time>2026-04-18T10:29:12Z</time></trkpt><trkpt lat="44.43491189469649" lon="10.421488039935468"><ele>667.3333333333333</ele><time>2026-04-18T10:29:13Z</time></trkpt><trkpt lat="44.43495653548521" lon="10.421730545438452"><ele>668.0</ele><time>2026-04-18T10:29:14Z</time></trkpt><trkpt lat="44.43500714364312" lon="10.421992329217414"><ele>668.6666666666666</ele><time>2026-04-18T10:29:15Z</time></trkpt><trkpt lat="44.43505311508777" lon="10.42223067376787"><ele>669.3333333333334</ele><time>2026-04-18T10:29:16Z</time></trkpt><trkpt lat="44.43510111027947" lon="10.422467725544182"><ele>670.0</ele><time>2026-04-18T10:29:17Z</time></trkpt><trkpt lat="44.435154607357276" lon="10.422706800718192"><ele>670.0</ele><time>2026-04-18T10:29:18Z</time></trkpt><trkpt lat="44.435216044606214" lon="10.42294648505493"><ele>670.0</ele><time>2026-04-18T10:29:19Z</time></trkpt><trkpt lat="44.43528220751179" lon="10.423150911699238"><ele>670.0</ele><time>2026-04-18T10:29:20Z</time></trkpt><trkpt lat="44.43534843192125" lon="10.42333375364292"><ele>671.0</ele><time>2026-04-18T10:29:21Z</time></trkpt><trkpt lat="44.43540331429212" lon="10.423504432510649"><ele>672.0</ele><time>2026-04-18T10:29:22Z</time></trkpt><trkpt lat="44.43544843280149" lon="10.423661257380877"><ele>673.0</ele><time>2026-04-18T10:29:23Z</time></trkpt><trkpt lat="44.43549424681714" lon="10.42381938353417"><ele>674.0</ele><time>2026-04-18T10:29:24Z</time></trkpt><trkpt lat="44.43551399348989" lon="10.42399110045463"><ele>669.75</ele><time>2026-04-18T10:29:25Z</time></trkpt><trkpt lat="44.435528914142765" lon="10.424157663899999"><ele>665.5</ele><time>2026-04-18T10:29:26Z</time></trkpt><trkpt lat="44.43552413507701" lon="10.424326909176385"><ele>661.25</ele><time>2026-04-18T10:29:27Z</time></trkpt><trkpt lat="44.43550522352552" lon="10.424481778272828"><ele>657.0</ele><time>2026-04-18T10:29:28Z</time></trkpt><trkpt lat="44.43547914524294" lon="10.424613068451178"><ele>658.5</ele><time>2026-04-18T10:29:29Z</time></trkpt><trkpt lat="44.43545045818269" lon="10.424719998042372"><ele>660.0</ele><time>2026-04-18T10:29:30Z</time></trkpt><trkpt lat="44.4354331755227" lon="10.424826261771639"><ele>661.5</ele><time>2026-04-18T10:29:31Z</time></trkpt><trkpt lat="44.435371183250226" lon="10.424895469276473"><ele>663.0</ele><time>2026-04-18T10:29:32Z</time></trkpt><trkpt lat="44.43531702561277" lon="10.42495305650384"><ele>664.5</ele><time>2026-04-18T10:29:33Z</time></trkpt><trkpt lat="44.43527988061774" lon="10.425127896470265"><ele>666.0</ele><time>2026-04-18T10:29:35Z</time></trkpt><trkpt lat="44.435315958525884" lon="10.425233061421503"><ele>666.0</ele><time>2026-04-18T10:29:36Z</time></trkpt><trkpt lat="44.43539171853013" lon="10.425338547799006"><ele>666.0</ele><time>2026-04-18T10:29:37Z</time></trkpt><trkpt lat="44.43547988846567" lon="10.425509588741479"><ele>666.0</ele><time>2026-04-18T10:29:38Z</time></trkpt><trkpt lat="44.435635301003956" lon="10.425721690102215"><ele>663.0</ele><time>2026-04-18T10:29:39Z</time></trkpt><trkpt lat="44.435811660883644" lon="10.425971761859966"><ele>660.0</ele><time>2026-04-18T10:29:40Z</time></trkpt><trkpt lat="44.43592566719254" lon="10.42625027398211"><ele>660.0</ele><time>2026-04-18T10:29:41Z</time></trkpt><trkpt lat="44.43603722391373" lon="10.426519745476908"><ele>660.0</ele><time>2026-04-18T10:29:42Z</time></trkpt><trkpt lat="44.43617726355298" lon="10.426780841593084"><ele>660.0</ele><time>2026-04-18T10:29:43Z</time></trkpt><trkpt lat="44.43624299303654" lon="10.427073496182317"><ele>660.0</ele><time>2026-04-18T10:29:44Z</time></trkpt><trkpt lat="44.436264923342165" lon="10.427389072469854"><ele>660.0</ele><time>2026-04-18T10:29:45Z</time></trkpt><trkpt lat="44.436284470543576" lon="10.427789059110298"><ele>658.5</ele><time>2026-04-18T10:29:46Z</time></trkpt><trkpt lat="44.43626859367914" lon="10.428220004654214"><ele>657.0</ele><time>2026-04-18T10:29:47Z</time></trkpt><trkpt lat="44.43629067854974" lon="10.428573712873895"><ele>661.0</ele><time>2026-04-18T10:29:48Z</time></trkpt><trkpt lat="44.436310639563764" lon="10.428885649100408"><ele>665.0</ele><time>2026-04-18T10:29:49Z</time></trkpt><trkpt lat="44.43633048846375" lon="10.429173839599521"><ele>669.0</ele><time>2026-04-18T10:29:50Z</time></trkpt><trkpt lat="44.43636355152762" lon="10.429444127834437"><ele>668.3333333333334</ele><time>2026-04-18T10:29:51Z</time></trkpt><trkpt lat="44.43641750875269" lon="10.429734628092744"><ele>667.6666666666667</ele><time>2026-04-18T10:29:52Z</time></trkpt><trkpt lat="44.43651724245161" lon="10.430020511813222"><ele>667.0</ele><time>2026-04-18T10:29:53Z</time></trkpt><trkpt lat="44.436628371386" lon="10.430267126630008"><ele>665.6666666666667</ele><time>2026-04-18T10:29:54Z</time></trkpt><trkpt lat="44.43672552645469" lon="10.430509567991749"><ele>664.3333333333334</ele><time>2026-04-18T10:29:55Z</time></trkpt><trkpt lat="44.43681074131938" lon="10.430777804274301"><ele>663.0</ele><time>2026-04-18T10:29:56Z</time></trkpt><trkpt lat="44.43687478642944" lon="10.431052443415743"><ele>662.0</ele><time>2026-04-18T10:29:57Z</time></trkpt><trkpt lat="44.43690353164781" lon="10.431323672591338"><ele>661.0</ele><time>2026-04-18T10:29:58Z</time></trkpt><trkpt lat="44.43690512368486" lon="10.431585738860383"><ele>660.0</ele><time>2026-04-18T10:29:59Z</time></trkpt><trkpt lat="44.43692581723141" lon="10.431871043389894"><ele>659.3333333333334</ele><time>2026-04-18T10:30:00Z</time></trkpt><trkpt lat="44.43693540673086" lon="10.43214952664592"><ele>658.6666666666667</ele><time>2026-04-18T10:30:01Z</time></trkpt><trkpt lat="44.436961717378175" lon="10.432411222070657"><ele>658.0</ele><time>2026-04-18T10:30:02Z</time></trkpt><trkpt lat="44.43699451433778" lon="10.432673595601353"><ele>658.0</ele><time>2026-04-18T10:30:03Z</time></trkpt><trkpt lat="44.43703055620206" lon="10.43293079380938"><ele>658.0</ele><time>2026-04-18T10:30:04Z</time></trkpt><trkpt lat="44.43707440522055" lon="10.433194177133645"><ele>658.0</ele><time>2026-04-18T10:30:05Z</time></trkpt><trkpt lat="44.43713424091162" lon="10.433451523930609"><ele>662.3333333333334</ele><time>2026-04-18T10:30:06Z</time></trkpt><trkpt lat="44.43720700543694" lon="10.433700187900067"><ele>666.6666666666666</ele><time>2026-04-18T10:30:07Z</time></trkpt><trkpt lat="44.43729125787998" lon="10.433952657293624"><ele>671.0</ele><time>2026-04-18T10:30:08Z</time></trkpt><trkpt lat="44.43738346037023" lon="10.434201818458813"><ele>671.6666666666666</ele><time>2026-04-18T10:30:09Z</time></trkpt><trkpt lat="44.43748825617622" lon="10.43442167095972"><ele>672.3333333333334</ele><time>2026-04-18T10:30:10Z</time></trkpt><trkpt lat="44.437584907049505" lon="10.434630431911414"><ele>673.0</ele><time>2026-04-18T10:30:11Z</time></trkpt><trkpt lat="44.43767974096449" lon="10.434851262770348"><ele>675.3333333333334</ele><time>2026-04-18T10:30:12Z</time></trkpt><trkpt lat="44.43778126857093" lon="10.435126056658651"><ele>677.6666666666666</ele><time>2026-04-18T10:30:13Z</time></trkpt><trkpt lat="44.43790751940576" lon="10.435316108390662"><ele>680.0</ele><time>2026-04-18T10:30:14Z</time></trkpt><trkpt lat="44.43803678790755" lon="10.435488545636728"><ele>680.0</ele><time>2026-04-18T10:30:15Z</time></trkpt><trkpt lat="44.4381639938516" lon="10.43564807180602"><ele>680.0</ele><time>2026-04-18T10:30:16.058Z</time></trkpt><trkpt lat="44.438313032656986" lon="10.435831514149214"><ele>680.0</ele><time>2026-04-18T10:30:17.053Z</time></trkpt><trkpt lat="44.4384487307856" lon="10.43599853723825"><ele>680.0</ele><time>2026-04-18T10:30:18.054Z</time></trkpt><trkpt lat="44.438582280431724" lon="10.436162915803827"><ele>680.0</ele><time>2026-04-18T10:30:19.048Z</time></trkpt><trkpt lat="44.43966221430055" lon="10.437315273738733"><ele>668.0</ele><time>2026-04-18T10:30:22.054Z</time></trkpt><trkpt lat="44.43999959913432" lon="10.437730829460245"><ele>656.0</ele><time>2026-04-18T10:30:23.054Z</time></trkpt><trkpt lat="44.440681696382164" lon="10.438690280116148"><ele>650.0</ele><time>2026-04-18T10:30:31Z</time></trkpt><trkpt lat="44.44081041975797" lon="10.43895052992085"><ele>644.0</ele><time>2026-04-18T10:30:32Z</time></trkpt><trkpt lat="44.44091494798198" lon="10.439181541346294"><ele>638.0</ele><time>2026-04-18T10:30:33Z</time></trkpt><trkpt lat="44.441016304604666" lon="10.439430220342036"><ele>635.3333333333333</ele><time>2026-04-18T10:30:34Z</time></trkpt><trkpt lat="44.44111518739485" lon="10.439659003234633"><ele>632.6666666666666</ele><time>2026-04-18T10:30:35Z</time></trkpt><trkpt lat="44.44116394516347" lon="10.43990600349187"><ele>630.0</ele><time>2026-04-18T10:30:36Z</time></trkpt><trkpt lat="44.4412174347967" lon="10.440157555316187"><ele>630.0</ele><time>2026-04-18T10:30:37Z</time></trkpt><trkpt lat="44.441264682276454" lon="10.440387286782558"><ele>630.0</ele><time>2026-04-18T10:30:38Z</time></trkpt><trkpt lat="44.44132088691138" lon="10.440599465672868"><ele>630.0</ele><time>2026-04-18T10:30:39Z</time></trkpt><trkpt lat="44.44143601981632" lon="10.440796362510548"><ele>631.6666666666666</ele><time>2026-04-18T10:30:40Z</time></trkpt><trkpt lat="44.44153688157255" lon="10.441022349884832"><ele>633.3333333333333</ele><time>2026-04-18T10:30:41Z</time></trkpt><trkpt lat="44.44164185818886" lon="10.441226599536419"><ele>635.0</ele><time>2026-04-18T10:30:42Z</time></trkpt><trkpt lat="44.44172721878093" lon="10.441439188046438"><ele>635.0</ele><time>2026-04-18T10:30:43Z</time></trkpt><trkpt lat="44.44178955015674" lon="10.441675295393344"><ele>635.0</ele><time>2026-04-18T10:30:44Z</time></trkpt><trkpt lat="44.44181553722141" lon="10.441922023011267"><ele>635.0</ele><time>2026-04-18T10:30:45Z</time></trkpt><trkpt lat="44.44183045625841" lon="10.442167683570938"><ele>632.6666666666666</ele><time>2026-04-18T10:30:46Z</time></trkpt><trkpt lat="44.44187453488702" lon="10.442387022381173"><ele>630.3333333333334</ele><time>2026-04-18T10:30:47Z</time></trkpt><trkpt lat="44.441927134915765" lon="10.44260852503693"><ele>628.0</ele><time>2026-04-18T10:30:48Z</time></trkpt><trkpt lat="44.44203937653886" lon="10.442770190945495"><ele>629.3333333333334</ele><time>2026-04-18T10:30:49Z</time></trkpt><trkpt lat="44.44216954520854" lon="10.442911438579182"><ele>630.6666666666666</ele><time>2026-04-18T10:30:50Z</time></trkpt><trkpt lat="44.4423316595861" lon="10.44302826109829"><ele>632.0</ele><time>2026-04-18T10:30:51Z</time></trkpt><trkpt lat="44.44250561857277" lon="10.443122051910889"><ele>632.0</ele><time>2026-04-18T10:30:52Z</time></trkpt><trkpt lat="44.44268511360058" lon="10.443237137325324"><ele>632.0</ele><time>2026-04-18T10:30:53Z</time></trkpt><trkpt lat="44.442828725183446" lon="10.443437201210688"><ele>632.0</ele><time>2026-04-18T10:30:54Z</time></trkpt><trkpt lat="44.44298151993583" lon="10.443657445153567"><ele>632.3333333333333</ele><time>2026-04-18T10:30:55Z</time></trkpt><trkpt lat="44.44312126834606" lon="10.4438680125544"><ele>632.6666666666666</ele><time>2026-04-18T10:30:56Z</time></trkpt><trkpt lat="44.443255112102534" lon="10.444069683244864"><ele>633.0</ele><time>2026-04-18T10:30:57Z</time></trkpt><trkpt lat="44.44339147658731" lon="10.444275152356894"><ele>633.0</ele><time>2026-04-18T10:30:58Z</time></trkpt><trkpt lat="44.44353103938235" lon="10.444486424808902"><ele>633.0</ele><time>2026-04-18T10:30:59Z</time></trkpt><trkpt lat="44.44367948263982" lon="10.444708518669302"><ele>633.0</ele><time>2026-04-18T10:31:00Z</time></trkpt><trkpt lat="44.44383108826001" lon="10.444929232082215"><ele>633.3333333333334</ele><time>2026-04-18T10:31:01Z</time></trkpt><trkpt lat="44.44397599216839" lon="10.445137692192947"><ele>633.6666666666667</ele><time>2026-04-18T10:31:02Z</time></trkpt><trkpt lat="44.44413162821382" lon="10.445320604232904"><ele>634.0</ele><time>2026-04-18T10:31:03Z</time></trkpt><trkpt lat="44.44428591520538" lon="10.445519575855526"><ele>635.5</ele><time>2026-04-18T10:31:04Z</time></trkpt><trkpt lat="44.44446875779087" lon="10.445759700736067"><ele>637.0</ele><time>2026-04-18T10:31:05Z</time></trkpt><trkpt lat="44.444662204457735" lon="10.44604376550376"><ele>633.0</ele><time>2026-04-18T10:31:06Z</time></trkpt><trkpt lat="44.44482029130762" lon="10.446304453373958"><ele>629.0</ele><time>2026-04-18T10:31:07Z</time></trkpt><trkpt lat="44.44495711177085" lon="10.446526318988276"><ele>629.0</ele><time>2026-04-18T10:31:08Z</time></trkpt><trkpt lat="44.44509779923467" lon="10.446726585540615"><ele>629.0</ele><time>2026-04-18T10:31:09Z</time></trkpt><trkpt lat="44.4452861651886" lon="10.446907214939868"><ele>629.0</ele><time>2026-04-18T10:31:10Z</time></trkpt><trkpt lat="44.445527317837694" lon="10.447071793050357"><ele>625.0</ele><time>2026-04-18T10:31:11Z</time></trkpt><trkpt lat="44.4457604781428" lon="10.447227806102696"><ele>621.0</ele><time>2026-04-18T10:31:12Z</time></trkpt><trkpt lat="44.445952211185826" lon="10.447361442136389"><ele>621.0</ele><time>2026-04-18T10:31:13Z</time></trkpt><trkpt lat="44.446108972261925" lon="10.44747435674302"><ele>621.0</ele><time>2026-04-18T10:31:14Z</time></trkpt><trkpt lat="44.44624967475903" lon="10.447576217511902"><ele>621.0</ele><time>2026-04-18T10:31:15Z</time></trkpt><trkpt lat="44.44638144169216" lon="10.447663828894527"><ele>623.0</ele><time>2026-04-18T10:31:16Z</time></trkpt><trkpt lat="44.44651383847758" lon="10.447745501168907"><ele>625.0</ele><time>2026-04-18T10:31:17Z</time></trkpt><trkpt lat="44.44663581918144" lon="10.447818736025893"><ele>627.0</ele><time>2026-04-18T10:31:18Z</time></trkpt><trkpt lat="44.44673783672245" lon="10.447876367640404"><ele>629.0</ele><time>2026-04-18T10:31:19Z</time></trkpt><trkpt lat="44.446818121966324" lon="10.447936560918095"><ele>629.0</ele><time>2026-04-18T10:31:20Z</time></trkpt><trkpt lat="44.44687616263548" lon="10.44798645527747"><ele>629.0</ele><time>2026-04-18T10:31:21Z</time></trkpt><trkpt lat="44.44696980788884" lon="10.447851547403209"><ele>629.0</ele><time>2026-04-18T10:31:23Z</time></trkpt><trkpt lat="44.446985264343084" lon="10.447686451311641"><ele>629.0</ele><time>2026-04-18T10:31:24Z</time></trkpt><trkpt lat="44.44704107075242" lon="10.44751619061329"><ele>630.75</ele><time>2026-04-18T10:31:25Z</time></trkpt><trkpt lat="44.44713761142023" lon="10.447351208448556"><ele>632.5</ele><time>2026-04-18T10:31:26Z</time></trkpt><trkpt lat="44.44724950910994" lon="10.447254187888182"><ele>634.25</ele><time>2026-04-18T10:31:27Z</time></trkpt><trkpt lat="44.4473615014275" lon="10.447222391902528"><ele>636.0</ele><time>2026-04-18T10:31:28Z</time></trkpt><trkpt lat="44.44744828053954" lon="10.447234871922763"><ele>636.0</ele><time>2026-04-18T10:31:29Z</time></trkpt><trkpt lat="44.44753617974033" lon="10.447286105680158"><ele>636.0</ele><time>2026-04-18T10:31:30Z</time></trkpt><trkpt lat="44.44763224773162" lon="10.44738350333066"><ele>636.0</ele><time>2026-04-18T10:31:31Z</time></trkpt><trkpt lat="44.44769791420164" lon="10.447523155773183"><ele>636.0</ele><time>2026-04-18T10:31:32Z</time></trkpt><trkpt lat="44.447711068160054" lon="10.447700479688264"><ele>636.0</ele><time>2026-04-18T10:31:33Z</time></trkpt><trkpt lat="44.44771369184413" lon="10.447866458530163"><ele>636.0</ele><time>2026-04-18T10:31:34Z</time></trkpt><trkpt lat="44.447638623827835" lon="10.44800201614436"><ele>636.0</ele><time>2026-04-18T10:31:35Z</time></trkpt><trkpt lat="44.44755290073428" lon="10.448115862932756"><ele>636.0</ele><time>2026-04-18T10:31:36Z</time></trkpt><trkpt lat="44.4474401464119" lon="10.44820041735706"><ele>632.0</ele><time>2026-04-18T10:31:37Z</time></trkpt><trkpt lat="44.447274567255974" lon="10.44829711800004"><ele>628.0</ele><time>2026-04-18T10:31:38Z</time></trkpt><trkpt lat="44.44707150790139" lon="10.448396500695448"><ele>624.0</ele><time>2026-04-18T10:31:39Z</time></trkpt><trkpt lat="44.44681641684186" lon="10.44846137482333"><ele>619.5</ele><time>2026-04-18T10:31:40Z</time></trkpt><trkpt lat="44.446495410020894" lon="10.448539233372333"><ele>615.0</ele><time>2026-04-18T10:31:41Z</time></trkpt><trkpt lat="44.4461843964166" lon="10.44858798261184"><ele>612.0</ele><time>2026-04-18T10:31:42Z</time></trkpt><trkpt lat="44.44592702005572" lon="10.448617055738405"><ele>609.0</ele><time>2026-04-18T10:31:43Z</time></trkpt><trkpt lat="44.445685272516045" lon="10.448666865026091"><ele>608.3333333333334</ele><time>2026-04-18T10:31:44Z</time></trkpt><trkpt lat="44.44545751383007" lon="10.44870718424754"><ele>607.6666666666667</ele><time>2026-04-18T10:31:45Z</time></trkpt><trkpt lat="44.4452409517651" lon="10.448752338042697"><ele>607.0</ele><time>2026-04-18T10:31:46Z</time></trkpt><trkpt lat="44.44504456678647" lon="10.4487951752914"><ele>605.6666666666667</ele><time>2026-04-18T10:31:47Z</time></trkpt><trkpt lat="44.44486412695751" lon="10.44881887801302"><ele>604.3333333333334</ele><time>2026-04-18T10:31:48Z</time></trkpt><trkpt lat="44.44470193766553" lon="10.448806581204039"><ele>603.0</ele><time>2026-04-18T10:31:49Z</time></trkpt><trkpt lat="44.44453592811193" lon="10.44876180326876"><ele>603.0</ele><time>2026-04-18T10:31:50Z</time></trkpt><trkpt lat="44.44438352709497" lon="10.448684256687155"><ele>603.0</ele><time>2026-04-18T10:31:51Z</time></trkpt><trkpt lat="44.44425225688312" lon="10.448614478967153"><ele>603.0</ele><time>2026-04-18T10:31:52Z</time></trkpt><trkpt lat="44.444146294462065" lon="10.44850422351272"><ele>603.0</ele><time>2026-04-18T10:31:53Z</time></trkpt><trkpt lat="44.44406976622501" lon="10.448324616407772"><ele>603.0</ele><time>2026-04-18T10:31:54Z</time></trkpt><trkpt lat="44.443983377424196" lon="10.448141894878919"><ele>603.0</ele><time>2026-04-18T10:31:55Z</time></trkpt><trkpt lat="44.443894091519745" lon="10.448028281473139"><ele>603.0</ele><time>2026-04-18T10:31:56Z</time></trkpt><trkpt lat="44.44377496512659" lon="10.448026939832925"><ele>603.0</ele><time>2026-04-18T10:31:57Z</time></trkpt><trkpt lat="44.44364156531799" lon="10.448088298542757"><ele>601.3333333333334</ele><time>2026-04-18T10:31:58Z</time></trkpt><trkpt lat="44.44351672395958" lon="10.448221557631598"><ele>599.6666666666667</ele><time>2026-04-18T10:31:59Z</time></trkpt><trkpt lat="44.44340538457537" lon="10.448456838816924"><ele>598.0</ele><time>2026-04-18T10:32:00Z</time></trkpt><trkpt lat="44.44330696784273" lon="10.44871575402097"><ele>594.3333333333334</ele><time>2026-04-18T10:32:01Z</time></trkpt><trkpt lat="44.443186160178676" lon="10.44888004887565"><ele>590.6666666666666</ele><time>2026-04-18T10:32:02Z</time></trkpt><trkpt lat="44.44304796897738" lon="10.44903304704878"><ele>587.0</ele><time>2026-04-18T10:32:03Z</time></trkpt><trkpt lat="44.44289962485675" lon="10.449178299248763"><ele>586.3333333333333</ele><time>2026-04-18T10:32:04Z</time></trkpt><trkpt lat="44.442718469621994" lon="10.449305282199932"><ele>585.6666666666666</ele><time>2026-04-18T10:32:05Z</time></trkpt><trkpt lat="44.44253244332048" lon="10.44940449503844"><ele>585.0</ele><time>2026-04-18T10:32:06Z</time></trkpt><trkpt lat="44.442302242881574" lon="10.449473761071438"><ele>583.3333333333334</ele><time>2026-04-18T10:32:07Z</time></trkpt><trkpt lat="44.44209550955723" lon="10.449519523916209"><ele>581.6666666666667</ele><time>2026-04-18T10:32:08Z</time></trkpt><trkpt lat="44.441928588357676" lon="10.449535736799849"><ele>580.0</ele><time>2026-04-18T10:32:09Z</time></trkpt><trkpt lat="44.441773223609296" lon="10.449579731792408"><ele>577.5</ele><time>2026-04-18T10:32:10Z</time></trkpt><trkpt lat="44.44155891275173" lon="10.44964216469368"><ele>575.0</ele><time>2026-04-18T10:32:11Z</time></trkpt><trkpt lat="44.4412969174314" lon="10.449647474865207"><ele>572.6666666666666</ele><time>2026-04-18T10:32:12Z</time></trkpt><trkpt lat="44.44106973268509" lon="10.449707557800853"><ele>570.3333333333334</ele><time>2026-04-18T10:32:13Z</time></trkpt><trkpt lat="44.440892095020416" lon="10.449761246561296"><ele>568.0</ele><time>2026-04-18T10:32:14Z</time></trkpt><trkpt lat="44.44074189023273" lon="10.449831807103813"><ele>568.0</ele><time>2026-04-18T10:32:15Z</time></trkpt><trkpt lat="44.44059637724475" lon="10.449858094807782"><ele>568.0</ele><time>2026-04-18T10:32:16Z</time></trkpt><trkpt lat="44.44044303487689" lon="10.449836489132071"><ele>568.0</ele><time>2026-04-18T10:32:17Z</time></trkpt><trkpt lat="44.44028110166739" lon="10.449762494352854"><ele>567.0</ele><time>2026-04-18T10:32:18Z</time></trkpt><trkpt lat="44.44011003676472" lon="10.449658597787492"><ele>566.0</ele><time>2026-04-18T10:32:19Z</time></trkpt><trkpt lat="44.43995224042426" lon="10.449561519832477"><ele>565.0</ele><time>2026-04-18T10:32:20Z</time></trkpt><trkpt lat="44.4397882948807" lon="10.449473017018004"><ele>562.6666666666667</ele><time>2026-04-18T10:32:21Z</time></trkpt><trkpt lat="44.43960267473453" lon="10.44942778827985"><ele>560.3333333333334</ele><time>2026-04-18T10:32:22Z</time></trkpt><trkpt lat="44.43940562324346" lon="10.449441285098013"><ele>558.0</ele><time>2026-04-18T10:32:23Z</time></trkpt><trkpt lat="44.43922765076928" lon="10.449481285233801"><ele>558.0</ele><time>2026-04-18T10:32:24Z</time></trkpt><trkpt lat="44.439075292979105" lon="10.449434556229184"><ele>558.0</ele><time>2026-04-18T10:32:25Z</time></trkpt><trkpt lat="44.43892402350646" lon="10.449355128317174"><ele>558.0</ele><time>2026-04-18T10:32:26Z</time></trkpt><trkpt lat="44.43873968508365" lon="10.449238162624503"><ele>553.0</ele><time>2026-04-18T10:32:27Z</time></trkpt><trkpt lat="44.438559245235666" lon="10.4490761004423"><ele>548.0</ele><time>2026-04-18T10:32:28Z</time></trkpt><trkpt lat="44.4384269849137" lon="10.448914419559305"><ele>543.0</ele><time>2026-04-18T10:32:29Z</time></trkpt><trkpt lat="44.43833738162522" lon="10.44881000552451"><ele>543.0</ele><time>2026-04-18T10:32:30Z</time></trkpt><trkpt lat="44.43826701444542" lon="10.448754020490892"><ele>543.0</ele><time>2026-04-18T10:32:31Z</time></trkpt><trkpt lat="44.43813760347339" lon="10.448781238973497"><ele>543.0</ele><time>2026-04-18T10:32:32Z</time></trkpt><trkpt lat="44.43799160424492" lon="10.448892232557323"><ele>543.0</ele><time>2026-04-18T10:32:33Z</time></trkpt><trkpt lat="44.43781006515177" lon="10.449051896574476"><ele>542.3333333333334</ele><time>2026-04-18T10:32:34Z</time></trkpt><trkpt lat="44.43763238448424" lon="10.44919336977421"><ele>541.6666666666667</ele><time>2026-04-18T10:32:35Z</time></trkpt><trkpt lat="44.43748421520075" lon="10.449277806080394"><ele>541.0</ele><time>2026-04-18T10:32:36Z</time></trkpt><trkpt lat="44.437300199946975" lon="10.4493151168404"><ele>539.0</ele><time>2026-04-18T10:32:37Z</time></trkpt><trkpt lat="44.437062224637216" lon="10.449321975493751"><ele>537.0</ele><time>2026-04-18T10:32:38Z</time></trkpt><trkpt lat="44.4367465300845" lon="10.449322200119816"><ele>537.0</ele><time>2026-04-18T10:32:39Z</time></trkpt><trkpt lat="44.43644308938073" lon="10.449331503028272"><ele>537.0</ele><time>2026-04-18T10:32:40Z</time></trkpt><trkpt lat="44.43618732171082" lon="10.449337027525491"><ele>535.3333333333334</ele><time>2026-04-18T10:32:41Z</time></trkpt><trkpt lat="44.4359634222803" lon="10.449356843275671"><ele>533.6666666666667</ele><time>2026-04-18T10:32:42Z</time></trkpt><trkpt lat="44.435744025976135" lon="10.449367102365798"><ele>532.0</ele><time>2026-04-18T10:32:43Z</time></trkpt><trkpt lat="44.43553576586378" lon="10.449379216972337"><ele>528.6666666666667</ele><time>2026-04-18T10:32:44Z</time></trkpt><trkpt lat="44.43535363932009" lon="10.449422790551289"><ele>525.3333333333334</ele><time>2026-04-18T10:32:45Z</time></trkpt><trkpt lat="44.43517104053911" lon="10.449467822091187"><ele>522.0</ele><time>2026-04-18T10:32:46Z</time></trkpt><trkpt lat="44.435008014392466" lon="10.449516697171468"><ele>522.0</ele><time>2026-04-18T10:32:47Z</time></trkpt><trkpt lat="44.43485041801093" lon="10.449610391216314"><ele>522.0</ele><time>2026-04-18T10:32:48Z</time></trkpt><trkpt lat="44.43468157703248" lon="10.449755642635122"><ele>522.0</ele><time>2026-04-18T10:32:49Z</time></trkpt><trkpt lat="44.43452813819823" lon="10.449915744571085"><ele>520.25</ele><time>2026-04-18T10:32:50Z</time></trkpt><trkpt lat="44.43440526141722" lon="10.450050839614692"><ele>518.5</ele><time>2026-04-18T10:32:51Z</time></trkpt><trkpt lat="44.4343062238025" lon="10.450188206937739"><ele>516.75</ele><time>2026-04-18T10:32:52Z</time></trkpt><trkpt lat="44.434245906722005" lon="10.450369753613893"><ele>515.0</ele><time>2026-04-18T10:32:53Z</time></trkpt><trkpt lat="44.434236471733556" lon="10.45060314724255"><ele>514.3333333333333</ele><time>2026-04-18T10:32:54Z</time></trkpt><trkpt lat="44.434249116688854" lon="10.450910997052135"><ele>513.6666666666666</ele><time>2026-04-18T10:32:55Z</time></trkpt><trkpt lat="44.43422134991274" lon="10.451207159131991"><ele>513.0</ele><time>2026-04-18T10:32:56Z</time></trkpt><trkpt lat="44.43420064739828" lon="10.451423569276985"><ele>512.25</ele><time>2026-04-18T10:32:57Z</time></trkpt><trkpt lat="44.43414791146041" lon="10.451572266511594"><ele>511.5</ele><time>2026-04-18T10:32:58Z</time></trkpt><trkpt lat="44.43405812602643" lon="10.451667235639409"><ele>510.75</ele><time>2026-04-18T10:32:59Z</time></trkpt><trkpt lat="44.43396493697723" lon="10.451735507342605"><ele>510.0</ele><time>2026-04-18T10:33:00Z</time></trkpt><trkpt lat="44.433817882928864" lon="10.451773150534537"><ele>513.25</ele><time>2026-04-18T10:33:01Z</time></trkpt><trkpt lat="44.43366627934901" lon="10.451776331791628"><ele>516.5</ele><time>2026-04-18T10:33:02Z</time></trkpt><trkpt lat="44.43354258752089" lon="10.451795654391328"><ele>519.75</ele><time>2026-04-18T10:33:03Z</time></trkpt><trkpt lat="44.43347302254494" lon="10.4518666491867"><ele>523.0</ele><time>2026-04-18T10:33:04Z</time></trkpt><trkpt lat="44.43340096201008" lon="10.452052972566172"><ele>520.0</ele><time>2026-04-18T10:33:05Z</time></trkpt><trkpt lat="44.43331561725096" lon="10.452288707675812"><ele>517.0</ele><time>2026-04-18T10:33:06Z</time></trkpt><trkpt lat="44.43322516884326" lon="10.452492646773903"><ele>514.0</ele><time>2026-04-18T10:33:07Z</time></trkpt><trkpt lat="44.43312765170093" lon="10.4526323423618"><ele>513.3333333333334</ele><time>2026-04-18T10:33:08Z</time></trkpt><trkpt lat="44.43296960071737" lon="10.452810770508005"><ele>512.6666666666666</ele><time>2026-04-18T10:33:09Z</time></trkpt><trkpt lat="44.43280258312779" lon="10.453000834775112"><ele>512.0</ele><time>2026-04-18T10:33:10Z</time></trkpt><trkpt lat="44.432668137821636" lon="10.45315037901915"><ele>512.0</ele><time>2026-04-18T10:33:11Z</time></trkpt><trkpt lat="44.43253004935971" lon="10.453283899285312"><ele>512.0</ele><time>2026-04-18T10:33:12Z</time></trkpt><trkpt lat="44.43236726262601" lon="10.453383546341616"><ele>512.0</ele><time>2026-04-18T10:33:13Z</time></trkpt><trkpt lat="44.432164554834664" lon="10.453419196806793"><ele>513.0</ele><time>2026-04-18T10:33:14Z</time></trkpt><trkpt lat="44.431959130258875" lon="10.453458331696293"><ele>514.0</ele><time>2026-04-18T10:33:15Z</time></trkpt><trkpt lat="44.43180165404697" lon="10.453559060211962"><ele>515.0</ele><time>2026-04-18T10:33:16Z</time></trkpt><trkpt lat="44.43161253924322" lon="10.45374361333573"><ele>513.0</ele><time>2026-04-18T10:33:17Z</time></trkpt><trkpt lat="44.43135720656252" lon="10.453939285345358"><ele>511.0</ele><time>2026-04-18T10:33:18Z</time></trkpt><trkpt lat="44.43110698705121" lon="10.454123579536061"><ele>511.0</ele><time>2026-04-18T10:33:19Z</time></trkpt><trkpt lat="44.43090522818136" lon="10.454290478948387"><ele>511.0</ele><time>2026-04-18T10:33:20Z</time></trkpt><trkpt lat="44.43071935966058" lon="10.45443529557302"><ele>511.0</ele><time>2026-04-18T10:33:21Z</time></trkpt><trkpt lat="44.430550567265236" lon="10.454590756312458"><ele>512.3333333333334</ele><time>2026-04-18T10:33:22Z</time></trkpt><trkpt lat="44.43037635725821" lon="10.454764862979527"><ele>513.6666666666666</ele><time>2026-04-18T10:33:23Z</time></trkpt><trkpt lat="44.43020205167622" lon="10.454937202051624"><ele>515.0</ele><time>2026-04-18T10:33:24Z</time></trkpt><trkpt lat="44.430053111831235" lon="10.455091447452268"><ele>515.0</ele><time>2026-04-18T10:33:25Z</time></trkpt><trkpt lat="44.42992841411599" lon="10.455258429372986"><ele>515.0</ele><time>2026-04-18T10:33:26Z</time></trkpt><trkpt lat="44.42980756780191" lon="10.455475579041979"><ele>515.0</ele><time>2026-04-18T10:33:27Z</time></trkpt><trkpt lat="44.42970476234379" lon="10.455681073201308"><ele>513.75</ele><time>2026-04-18T10:33:28Z</time></trkpt><trkpt lat="44.42961765659332" lon="10.455835045768739"><ele>512.5</ele><time>2026-04-18T10:33:29Z</time></trkpt><trkpt lat="44.429525168424206" lon="10.455961992609504"><ele>511.25</ele><time>2026-04-18T10:33:30Z</time></trkpt><trkpt lat="44.429396312064725" lon="10.456013410015338"><ele>510.0</ele><time>2026-04-18T10:33:31Z</time></trkpt><trkpt lat="44.429265599127866" lon="10.455994763837568"><ele>510.0</ele><time>2026-04-18T10:33:32Z</time></trkpt><trkpt lat="44.42911057826283" lon="10.45594473189575"><ele>510.0</ele><time>2026-04-18T10:33:33Z</time></trkpt><trkpt lat="44.428955601576604" lon="10.455929775519905"><ele>510.0</ele><time>2026-04-18T10:33:34Z</time></trkpt><trkpt lat="44.428821150186074" lon="10.456003380758224"><ele>511.0</ele><time>2026-04-18T10:33:35Z</time></trkpt><trkpt lat="44.42870030776631" lon="10.456165281582885"><ele>512.0</ele><time>2026-04-18T10:33:36Z</time></trkpt><trkpt lat="44.42861473313325" lon="10.456381139597248"><ele>513.0</ele><time>2026-04-18T10:33:37Z</time></trkpt><trkpt lat="44.42852694715975" lon="10.456605165388366"><ele>509.25</ele><time>2026-04-18T10:33:38Z</time></trkpt><trkpt lat="44.42842692872029" lon="10.456788933001574"><ele>505.5</ele><time>2026-04-18T10:33:39Z</time></trkpt><trkpt lat="44.4283128815125" lon="10.456898363274869"><ele>501.75</ele><time>2026-04-18T10:33:40Z</time></trkpt><trkpt lat="44.428172533434335" lon="10.456954126044229"><ele>498.0</ele><time>2026-04-18T10:33:41Z</time></trkpt><trkpt lat="44.42801180705893" lon="10.456977773788196"><ele>501.5</ele><time>2026-04-18T10:33:42Z</time></trkpt><trkpt lat="44.42780722166483" lon="10.457015364478062"><ele>505.0</ele><time>2026-04-18T10:33:43Z</time></trkpt><trkpt lat="44.427538748909484" lon="10.457053348317631"><ele>497.0</ele><time>2026-04-18T10:33:44Z</time></trkpt><trkpt lat="44.42724015841" lon="10.457141034185641"><ele>489.0</ele><time>2026-04-18T10:33:45Z</time></trkpt><trkpt lat="44.42698416960136" lon="10.457255463181623"><ele>487.33333333333337</ele><time>2026-04-18T10:33:46Z</time></trkpt><trkpt lat="44.42676360936707" lon="10.457350998841594"><ele>485.6666666666667</ele><time>2026-04-18T10:33:46.999Z</time></trkpt><trkpt lat="44.42656345237371" lon="10.457428455904045"><ele>484.0</ele><time>2026-04-18T10:33:47.999Z</time></trkpt><trkpt lat="44.42634385219584" lon="10.457490575307817"><ele>486.6666666666667</ele><time>2026-04-18T10:33:48.999Z</time></trkpt><trkpt lat="44.42612291519809" lon="10.457556450220073"><ele>489.33333333333337</ele><time>2026-04-18T10:33:49.999Z</time></trkpt><trkpt lat="44.42591976941543" lon="10.457652313608907"><ele>492.0</ele><time>2026-04-18T10:33:50.999Z</time></trkpt><trkpt lat="44.42572680302771" lon="10.457726407831"><ele>492.0</ele><time>2026-04-18T10:33:51.999Z</time></trkpt><trkpt lat="44.4255550893924" lon="10.457783644151185"><ele>492.0</ele><time>2026-04-18T10:33:52.999Z</time></trkpt><trkpt lat="44.42538189625888" lon="10.457802609946592"><ele>492.0</ele><time>2026-04-18T10:33:53.999Z</time></trkpt><trkpt lat="44.4252312264541" lon="10.457794845751465"><ele>492.66666666666663</ele><time>2026-04-18T10:33:54.999Z</time></trkpt><trkpt lat="44.425065698561106" lon="10.457823882445442"><ele>493.3333333333333</ele><time>2026-04-18T10:33:55.999Z</time></trkpt><trkpt lat="44.42488970736944" lon="10.457944696534556"><ele>494.0</ele><time>2026-04-18T10:33:56.999Z</time></trkpt><trkpt lat="44.42474918026552" lon="10.458111441279197"><ele>486.66666666666663</ele><time>2026-04-18T10:33:57.999Z</time></trkpt><trkpt lat="44.424637828079305" lon="10.458259978319992"><ele>479.33333333333337</ele><time>2026-04-18T10:33:58.999Z</time></trkpt><trkpt lat="44.42451564786453" lon="10.458335273951247"><ele>472.0</ele><time>2026-04-18T10:33:59.999Z</time></trkpt><trkpt lat="44.42433003947849" lon="10.458335277797799"><ele>472.0</ele><time>2026-04-18T10:34:00.999Z</time></trkpt><trkpt lat="44.42410258648226" lon="10.458340832930949"><ele>472.0</ele><time>2026-04-18T10:34:01.999Z</time></trkpt><trkpt lat="44.423882161293" lon="10.458325878445482"><ele>472.0</ele><time>2026-04-18T10:34:02.999Z</time></trkpt><trkpt lat="44.42369667184204" lon="10.458325341347628"><ele>469.33333333333337</ele><time>2026-04-18T10:34:03.999Z</time></trkpt><trkpt lat="44.42353385247123" lon="10.458332051219134"><ele>466.66666666666663</ele><time>2026-04-18T10:34:04.999Z</time></trkpt><trkpt lat="44.42338107886104" lon="10.45833310528942"><ele>464.0</ele><time>2026-04-18T10:34:05.999Z</time></trkpt><trkpt lat="44.42321960323507" lon="10.458324263854646"><ele>464.0</ele><time>2026-04-18T10:34:06.999Z</time></trkpt><trkpt lat="44.423050240040126" lon="10.45831227898965"><ele>464.0</ele><time>2026-04-18T10:34:07.999Z</time></trkpt><trkpt lat="44.42288207475656" lon="10.458300495008876"><ele>464.0</ele><time>2026-04-18T10:34:08.999Z</time></trkpt><trkpt lat="44.42272485465634" lon="10.458303225203489"><ele>462.66666666666663</ele><time>2026-04-18T10:34:09.999Z</time></trkpt><trkpt lat="44.422564898462426" lon="10.458296388401289"><ele>461.33333333333337</ele><time>2026-04-18T10:34:10.999Z</time></trkpt><trkpt lat="44.42240287818935" lon="10.458261781001719"><ele>460.0</ele><time>2026-04-18T10:34:11.999Z</time></trkpt><trkpt lat="44.42223846013527" lon="10.458185878382903"><ele>458.33333333333337</ele><time>2026-04-18T10:34:12.999Z</time></trkpt><trkpt lat="44.42208667088347" lon="10.458061638118004"><ele>456.66666666666663</ele><time>2026-04-18T10:34:13.999Z</time></trkpt><trkpt lat="44.42195078843851" lon="10.457867144379337"><ele>455.0</ele><time>2026-04-18T10:34:14.999Z</time></trkpt><trkpt lat="44.421829756776305" lon="10.45774314692767"><ele>455.0</ele><time>2026-04-18T10:34:15.999Z</time></trkpt><trkpt lat="44.42169926756555" lon="10.457656183398708"><ele>455.0</ele><time>2026-04-18T10:34:16.999Z</time></trkpt><trkpt lat="44.42157818356562" lon="10.457572494821305"><ele>455.0</ele><time>2026-04-18T10:34:17.999Z</time></trkpt><trkpt lat="44.42149024220819" lon="10.457456236046534"><ele>455.0</ele><time>2026-04-18T10:34:18.999Z</time></trkpt><trkpt lat="44.42142140797358" lon="10.457306920845813"><ele>455.0</ele><time>2026-04-18T10:34:19.999Z</time></trkpt><trkpt lat="44.421372340785084" lon="10.457135787451005"><ele>455.0</ele><time>2026-04-18T10:34:20.999Z</time></trkpt><trkpt lat="44.421324696050455" lon="10.456969745359913"><ele>455.0</ele><time>2026-04-18T10:34:21.999Z</time></trkpt><trkpt lat="44.4212389263901" lon="10.456818758728414"><ele>455.0</ele><time>2026-04-18T10:34:22.999Z</time></trkpt><trkpt lat="44.42112805946621" lon="10.456725166537424"><ele>453.25</ele><time>2026-04-18T10:34:23.999Z</time></trkpt><trkpt lat="44.421026259555795" lon="10.456640052986918"><ele>451.5</ele><time>2026-04-18T10:34:24.999Z</time></trkpt><trkpt lat="44.42092797654348" lon="10.45655893815242"><ele>449.75</ele><time>2026-04-18T10:34:25.998Z</time></trkpt><trkpt lat="44.4208248649006" lon="10.45650118656819"><ele>448.0</ele><time>2026-04-18T10:34:26.998Z</time></trkpt><trkpt lat="44.420715287657174" lon="10.456484251852311"><ele>448.0</ele><time>2026-04-18T10:34:27.998Z</time></trkpt><trkpt lat="44.420602542067236" lon="10.456502323826609"><ele>447.99999999999994</ele><time>2026-04-18T10:34:28.998Z</time></trkpt><trkpt lat="44.420497755843066" lon="10.456538744230352"><ele>447.99999999999994</ele><time>2026-04-18T10:34:29.998Z</time></trkpt><trkpt lat="44.420398946534384" lon="10.456589648718431"><ele>448.0</ele><time>2026-04-18T10:34:30.998Z</time></trkpt><trkpt lat="44.42030492974182" lon="10.456626012033855"><ele>448.0</ele><time>2026-04-18T10:34:31.998Z</time></trkpt><trkpt lat="44.420205044430126" lon="10.456667585394223"><ele>444.25</ele><time>2026-04-18T10:34:32.998Z</time></trkpt><trkpt lat="44.42010682168545" lon="10.456683737097409"><ele>440.5</ele><time>2026-04-18T10:34:33.998Z</time></trkpt><trkpt lat="44.42000189144828" lon="10.456649797093302"><ele>436.75</ele><time>2026-04-18T10:34:34.998Z</time></trkpt><trkpt lat="44.41988269782874" lon="10.45655491103914"><ele>433.0</ele><time>2026-04-18T10:34:35.998Z</time></trkpt><trkpt lat="44.4197345610442" lon="10.456422567287968"><ele>432.0</ele><time>2026-04-18T10:34:36.998Z</time></trkpt><trkpt lat="44.419519501858154" lon="10.456359903327428"><ele>431.0</ele><time>2026-04-18T10:34:37.998Z</time></trkpt><trkpt lat="44.419291762986774" lon="10.456270908943571"><ele>431.0</ele><time>2026-04-18T10:34:38.998Z</time></trkpt><trkpt lat="44.419080610092315" lon="10.456164338119436"><ele>431.0</ele><time>2026-04-18T10:34:39.998Z</time></trkpt><trkpt lat="44.418879429019675" lon="10.456043158002675"><ele>431.0</ele><time>2026-04-18T10:34:40.998Z</time></trkpt><trkpt lat="44.41869206522967" lon="10.455922811280402"><ele>431.0</ele><time>2026-04-18T10:34:41.998Z</time></trkpt><trkpt lat="44.41845969256246" lon="10.455856442668715"><ele>431.0</ele><time>2026-04-18T10:34:42.998Z</time></trkpt><trkpt lat="44.41823767484886" lon="10.45582363904142"><ele>431.0</ele><time>2026-04-18T10:34:43.998Z</time></trkpt><trkpt lat="44.41806419585238" lon="10.455805403292878"><ele>431.0</ele><time>2026-04-18T10:34:44.998Z</time></trkpt><trkpt lat="44.41790769272319" lon="10.45583131143167"><ele>431.0</ele><time>2026-04-18T10:34:45.998Z</time></trkpt><trkpt lat="44.41773985006485" lon="10.455918781927235"><ele>430.0</ele><time>2026-04-18T10:34:46.998Z</time></trkpt><trkpt lat="44.41758517673109" lon="10.456086771419676"><ele>429.0</ele><time>2026-04-18T10:34:47.998Z</time></trkpt><trkpt lat="44.41743602500311" lon="10.456302681092364"><ele>428.0</ele><time>2026-04-18T10:34:48.998Z</time></trkpt><trkpt lat="44.417305749513076" lon="10.45646136530724"><ele>426.66666666666663</ele><time>2026-04-18T10:34:49.998Z</time></trkpt><trkpt lat="44.4172082845458" lon="10.456632251386626"><ele>425.33333333333337</ele><time>2026-04-18T10:34:50.998Z</time></trkpt><trkpt lat="44.41712376005244" lon="10.456922169644502"><ele>424.0</ele><time>2026-04-18T10:34:51.998Z</time></trkpt><trkpt lat="44.41705454089579" lon="10.457210577165677"><ele>424.0</ele><time>2026-04-18T10:34:52.998Z</time></trkpt><trkpt lat="44.41693404470507" lon="10.457478318410345"><ele>424.0</ele><time>2026-04-18T10:34:53.998Z</time></trkpt><trkpt lat="44.4167844038887" lon="10.457739779016013"><ele>428.33333333333337</ele><time>2026-04-18T10:34:54.998Z</time></trkpt><trkpt lat="44.41664462864946" lon="10.457964453518663"><ele>432.66666666666663</ele><time>2026-04-18T10:34:55.998Z</time></trkpt><trkpt lat="44.41656350077148" lon="10.458066573142553"><ele>437.0</ele><time>2026-04-18T10:34:56.998Z</time></trkpt><trkpt lat="44.41645193526962" lon="10.458153737407194"><ele>433.0</ele><time>2026-04-18T10:34:57.998Z</time></trkpt><trkpt lat="44.41630414741043" lon="10.458212715051841"><ele>429.0</ele><time>2026-04-18T10:34:58.999Z</time></trkpt><trkpt lat="44.41610388227903" lon="10.458220493870845"><ele>425.0</ele><time>2026-04-18T10:34:59.999Z</time></trkpt><trkpt lat="44.41588110284894" lon="10.458211791422247"><ele>425.0</ele><time>2026-04-18T10:35:00.999Z</time></trkpt><trkpt lat="44.415701752506266" lon="10.45820044715501"><ele>425.0</ele><time>2026-04-18T10:35:01.999Z</time></trkpt><trkpt lat="44.415539456425904" lon="10.458235300579148"><ele>425.0</ele><time>2026-04-18T10:35:02.999Z</time></trkpt><trkpt lat="44.415368619403495" lon="10.45836503700211"><ele>425.5</ele><time>2026-04-18T10:35:03.999Z</time></trkpt><trkpt lat="44.41519053521901" lon="10.458559827267203"><ele>426.0</ele><time>2026-04-18T10:35:04.999Z</time></trkpt><trkpt lat="44.41503809012259" lon="10.458798573001271"><ele>426.0</ele><time>2026-04-18T10:35:05.999Z</time></trkpt><trkpt lat="44.414905548138684" lon="10.459005566761439"><ele>426.0</ele><time>2026-04-18T10:35:06.999Z</time></trkpt><trkpt lat="44.41479131680097" lon="10.45911312191454"><ele>426.0</ele><time>2026-04-18T10:35:07.999Z</time></trkpt><trkpt lat="44.41468682320464" lon="10.459209623291514"><ele>423.33333333333337</ele><time>2026-04-18T10:35:08.999Z</time></trkpt><trkpt lat="44.41451893576129" lon="10.459192189965426"><ele>420.6666666666667</ele><time>2026-04-18T10:35:09.999Z</time></trkpt><trkpt lat="44.41430286255689" lon="10.45918647301301"><ele>418.0</ele><time>2026-04-18T10:35:10.999Z</time></trkpt><trkpt lat="44.41405060544161" lon="10.459208790979194"><ele>415.6666666666667</ele><time>2026-04-18T10:35:11.999Z</time></trkpt><trkpt lat="44.413817733607544" lon="10.459257706392671"><ele>413.33333333333337</ele><time>2026-04-18T10:35:12.999Z</time></trkpt><trkpt lat="44.413645522107416" lon="10.45932443317118"><ele>411.0</ele><time>2026-04-18T10:35:13.999Z</time></trkpt><trkpt lat="44.413524121480336" lon="10.459374000402981"><ele>411.0</ele><time>2026-04-18T10:35:14.999Z</time></trkpt><trkpt lat="44.41339358776261" lon="10.459456177489448"><ele>411.0</ele><time>2026-04-18T10:35:15.999Z</time></trkpt><trkpt lat="44.413277173544856" lon="10.459618939950172"><ele>411.0</ele><time>2026-04-18T10:35:16.999Z</time></trkpt><trkpt lat="44.41316535759577" lon="10.459877778418454"><ele>410.33333333333337</ele><time>2026-04-18T10:35:17.999Z</time></trkpt><trkpt lat="44.41300199064743" lon="10.460067079669017"><ele>409.6666666666667</ele><time>2026-04-18T10:35:18.999Z</time></trkpt><trkpt lat="44.412822602535215" lon="10.460245329494473"><ele>409.0</ele><time>2026-04-18T10:35:19.999Z</time></trkpt><trkpt lat="44.4125835657495" lon="10.460440468816158"><ele>407.5</ele><time>2026-04-18T10:35:20.999Z</time></trkpt><trkpt lat="44.41232527465066" lon="10.460656703777396"><ele>406.0</ele><time>2026-04-18T10:35:21.999Z</time></trkpt><trkpt lat="44.41208872581023" lon="10.460836715009739"><ele>406.0</ele><time>2026-04-18T10:35:22.999Z</time></trkpt><trkpt lat="44.41192491325723" lon="10.460961450096061"><ele>406.0</ele><time>2026-04-18T10:35:23.999Z</time></trkpt><trkpt lat="44.411762711866935" lon="10.461142159255319"><ele>406.0</ele><time>2026-04-18T10:35:24.999Z</time></trkpt><trkpt lat="44.41163943688819" lon="10.46134108337192"><ele>407.6666666666667</ele><time>2026-04-18T10:35:25.999Z</time></trkpt><trkpt lat="44.411526802213295" lon="10.461546921794596"><ele>409.33333333333337</ele><time>2026-04-18T10:35:26.999Z</time></trkpt><trkpt lat="44.41140637203172" lon="10.461747370166"><ele>411.0</ele><time>2026-04-18T10:35:27.999Z</time></trkpt><trkpt lat="44.411254063554495" lon="10.461903345179163"><ele>411.0</ele><time>2026-04-18T10:35:28.999Z</time></trkpt><trkpt lat="44.41111440559832" lon="10.462001087518795"><ele>411.0</ele><time>2026-04-18T10:35:29.999Z</time></trkpt><trkpt lat="44.411026429181334" lon="10.462084949629665"><ele>411.0</ele><time>2026-04-18T10:35:30.999Z</time></trkpt><trkpt lat="44.41094764948589" lon="10.462129133175326"><ele>411.0</ele><time>2026-04-18T10:35:31.999Z</time></trkpt><trkpt lat="44.41086676465666" lon="10.462178054101587"><ele>411.0</ele><time>2026-04-18T10:35:33.998Z</time></trkpt><trkpt lat="44.41080481683412" lon="10.462237756092986"><ele>413.33333333333337</ele><time>2026-04-18T10:35:38.999Z</time></trkpt><trkpt lat="44.41072293982388" lon="10.462361556539594"><ele>415.6666666666667</ele><time>2026-04-18T10:35:39.999Z</time></trkpt><trkpt lat="44.41061940143066" lon="10.462580160520883"><ele>418.0</ele><time>2026-04-18T10:35:40.999Z</time></trkpt><trkpt lat="44.41048574162053" lon="10.462835263378985"><ele>414.0</ele><time>2026-04-18T10:35:41.999Z</time></trkpt><trkpt lat="44.410337861716215" lon="10.463133318680141"><ele>410.0</ele><time>2026-04-18T10:35:42.999Z</time></trkpt><trkpt lat="44.410209617442725" lon="10.4632937414891"><ele>406.0</ele><time>2026-04-18T10:35:43.999Z</time></trkpt><trkpt lat="44.41006137874401" lon="10.463410500299087"><ele>406.0</ele><time>2026-04-18T10:35:44.999Z</time></trkpt><trkpt lat="44.409877530618125" lon="10.463572529798284"><ele>406.0</ele><time>2026-04-18T10:35:45.999Z</time></trkpt><trkpt lat="44.40971688554155" lon="10.463686034540459"><ele>406.0</ele><time>2026-04-18T10:35:46.999Z</time></trkpt><trkpt lat="44.409552112203684" lon="10.46379042806376"><ele>404.5</ele><time>2026-04-18T10:35:47.999Z</time></trkpt><trkpt lat="44.40941646588144" lon="10.463886373170466"><ele>403.0</ele><time>2026-04-18T10:35:48.999Z</time></trkpt><trkpt lat="44.40928868355617" lon="10.463945044459752"><ele>401.5</ele><time>2026-04-18T10:35:49.999Z</time></trkpt><trkpt lat="44.40915204952224" lon="10.463969955238184"><ele>400.0</ele><time>2026-04-18T10:35:50.999Z</time></trkpt><trkpt lat="44.409000542830626" lon="10.463979729414786"><ele>400.0</ele><time>2026-04-18T10:35:52Z</time></trkpt><trkpt lat="44.40885029985131" lon="10.464004932997629"><ele>400.0</ele><time>2026-04-18T10:35:53Z</time></trkpt><trkpt lat="44.40873755643571" lon="10.464069512273285"><ele>400.0</ele><time>2026-04-18T10:35:54Z</time></trkpt><trkpt lat="44.40863438972602" lon="10.464180114133688"><ele>400.0</ele><time>2026-04-18T10:35:55Z</time></trkpt><trkpt lat="44.4085386837216" lon="10.464304052246346"><ele>401.5</ele><time>2026-04-18T10:35:56Z</time></trkpt><trkpt lat="44.408438908017786" lon="10.464428260567422"><ele>403.0</ele><time>2026-04-18T10:35:57Z</time></trkpt><trkpt lat="44.40834159735592" lon="10.464550860551364"><ele>404.5</ele><time>2026-04-18T10:35:58Z</time></trkpt><trkpt lat="44.40824501167498" lon="10.464668548073476"><ele>406.0</ele><time>2026-04-18T10:35:59Z</time></trkpt><trkpt lat="44.408141089728566" lon="10.464790561051002"><ele>406.0</ele><time>2026-04-18T10:36:00Z</time></trkpt><trkpt lat="44.40803654831725" lon="10.46491672076237"><ele>406.0</ele><time>2026-04-18T10:36:01Z</time></trkpt><trkpt lat="44.40792849949926" lon="10.465038722389142"><ele>406.0</ele><time>2026-04-18T10:36:02Z</time></trkpt><trkpt lat="44.407815570337824" lon="10.4651591097494"><ele>406.0</ele><time>2026-04-18T10:36:03Z</time></trkpt><trkpt lat="44.40770793684251" lon="10.465265615727672"><ele>406.0</ele><time>2026-04-18T10:36:04Z</time></trkpt><trkpt lat="44.40760197325337" lon="10.465362294307708"><ele>406.0</ele><time>2026-04-18T10:36:05Z</time></trkpt><trkpt lat="44.40750093290361" lon="10.465457253826674"><ele>406.0</ele><time>2026-04-18T10:36:06Z</time></trkpt><trkpt lat="44.40739557296094" lon="10.465546373248626"><ele>406.0</ele><time>2026-04-18T10:36:07Z</time></trkpt><trkpt lat="44.40726951067285" lon="10.465607964459316"><ele>404.33333333333337</ele><time>2026-04-18T10:36:08Z</time></trkpt><trkpt lat="44.40711442499037" lon="10.46563351652717"><ele>402.66666666666663</ele><time>2026-04-18T10:36:09Z</time></trkpt><trkpt lat="44.40694603105813" lon="10.46563966520444"><ele>401.0</ele><time>2026-04-18T10:36:10Z</time></trkpt><trkpt lat="44.40677007314607" lon="10.465686709116728"><ele>401.0</ele><time>2026-04-18T10:36:11Z</time></trkpt><trkpt lat="44.40656421755175" lon="10.46578388720137"><ele>401.0</ele><time>2026-04-18T10:36:12Z</time></trkpt><trkpt lat="44.406362927084295" lon="10.46587875124856"><ele>401.0</ele><time>2026-04-18T10:36:13Z</time></trkpt><trkpt lat="44.406189840975266" lon="10.46594103869485"><ele>402.3333333333333</ele><time>2026-04-18T10:36:14Z</time></trkpt><trkpt lat="44.40602407189102" lon="10.466023260064773"><ele>403.66666666666663</ele><time>2026-04-18T10:36:15Z</time></trkpt><trkpt lat="44.40585892105163" lon="10.466129573962396"><ele>405.0</ele><time>2026-04-18T10:36:16Z</time></trkpt><trkpt lat="44.405696875537984" lon="10.466233743759457"><ele>400.0</ele><time>2026-04-18T10:36:17Z</time></trkpt><trkpt lat="44.40553831190373" lon="10.466326332992216"><ele>395.0</ele><time>2026-04-18T10:36:18Z</time></trkpt><trkpt lat="44.4053985118969" lon="10.466401528099746"><ele>390.0</ele><time>2026-04-18T10:36:19Z</time></trkpt><trkpt lat="44.40526968108863" lon="10.466442462632337"><ele>389.75</ele><time>2026-04-18T10:36:20Z</time></trkpt><trkpt lat="44.40513050610037" lon="10.466436801085326"><ele>389.5</ele><time>2026-04-18T10:36:21Z</time></trkpt><trkpt lat="44.40499890420357" lon="10.466371415377894"><ele>389.25</ele><time>2026-04-18T10:36:22Z</time></trkpt><trkpt lat="44.404858072575905" lon="10.466239049093389"><ele>389.0</ele><time>2026-04-18T10:36:23Z</time></trkpt><trkpt lat="44.40468593729395" lon="10.466029706489014"><ele>391.0</ele><time>2026-04-18T10:36:24Z</time></trkpt><trkpt lat="44.404519130933004" lon="10.465833316092885"><ele>393.0</ele><time>2026-04-18T10:36:25Z</time></trkpt><trkpt lat="44.40438420622931" lon="10.465687866769308"><ele>395.0</ele><time>2026-04-18T10:36:26Z</time></trkpt><trkpt lat="44.40427310578809" lon="10.465588122921332"><ele>395.0</ele><time>2026-04-18T10:36:27Z</time></trkpt><trkpt lat="44.404137899188086" lon="10.465542989799689"><ele>395.0</ele><time>2026-04-18T10:36:28Z</time></trkpt><trkpt lat="44.40394314279366" lon="10.46553720008418"><ele>395.0</ele><time>2026-04-18T10:36:29Z</time></trkpt><trkpt lat="44.403737950313015" lon="10.46555697562538"><ele>391.3333333333333</ele><time>2026-04-18T10:36:30Z</time></trkpt><trkpt lat="44.40357254156526" lon="10.465572931772083"><ele>387.66666666666663</ele><time>2026-04-18T10:36:31Z</time></trkpt><trkpt lat="44.40342323231688" lon="10.465637560221946"><ele>384.0</ele><time>2026-04-18T10:36:32Z</time></trkpt><trkpt lat="44.40324852463277" lon="10.465768166930271"><ele>384.0</ele><time>2026-04-18T10:36:33Z</time></trkpt><trkpt lat="44.40304315201493" lon="10.46596850183395"><ele>384.0</ele><time>2026-04-18T10:36:34Z</time></trkpt><trkpt lat="44.402798343448104" lon="10.466209106518882"><ele>384.0</ele><time>2026-04-18T10:36:35Z</time></trkpt><trkpt lat="44.402551108859086" lon="10.466445871981707"><ele>384.0</ele><time>2026-04-18T10:36:36Z</time></trkpt><trkpt lat="44.40234960523129" lon="10.466621761087652"><ele>384.0</ele><time>2026-04-18T10:36:37Z</time></trkpt><trkpt lat="44.4021721462668" lon="10.466783919038498"><ele>384.0</ele><time>2026-04-18T10:36:38Z</time></trkpt><trkpt lat="44.40200830319403" lon="10.466931396744187"><ele>384.0</ele><time>2026-04-18T10:36:39Z</time></trkpt><trkpt lat="44.4018727007014" lon="10.467056371374179"><ele>387.75</ele><time>2026-04-18T10:36:40Z</time></trkpt><trkpt lat="44.40177617391166" lon="10.467200016085343"><ele>391.5</ele><time>2026-04-18T10:36:41Z</time></trkpt><trkpt lat="44.4017201017106" lon="10.467378161439482"><ele>395.25</ele><time>2026-04-18T10:36:42Z</time></trkpt><trkpt lat="44.401695989604626" lon="10.467602585173424"><ele>399.0</ele><time>2026-04-18T10:36:43Z</time></trkpt><trkpt lat="44.40170034541661" lon="10.467832947878225"><ele>400.0</ele><time>2026-04-18T10:36:44Z</time></trkpt><trkpt lat="44.40174786843873" lon="10.468048758325146"><ele>401.0</ele><time>2026-04-18T10:36:45Z</time></trkpt><trkpt lat="44.401747244185806" lon="10.468282458549542"><ele>402.0</ele><time>2026-04-18T10:36:46Z</time></trkpt><trkpt lat="44.401736571368836" lon="10.468508293001483"><ele>402.0</ele><time>2026-04-18T10:36:47Z</time></trkpt><trkpt lat="44.401720083183946" lon="10.468749882478516"><ele>402.0</ele><time>2026-04-18T10:36:48Z</time></trkpt><trkpt lat="44.4016167276986" lon="10.468969830303761"><ele>402.0</ele><time>2026-04-18T10:36:49Z</time></trkpt><trkpt lat="44.4015421123618" lon="10.469204286134953"><ele>402.66666666666663</ele><time>2026-04-18T10:36:50Z</time></trkpt><trkpt lat="44.401482952689754" lon="10.469441883080233"><ele>403.3333333333333</ele><time>2026-04-18T10:36:51Z</time></trkpt><trkpt lat="44.401406990999796" lon="10.469662651252564"><ele>404.0</ele><time>2026-04-18T10:36:52Z</time></trkpt><trkpt lat="44.40133103687453" lon="10.469886297536803"><ele>404.0</ele><time>2026-04-18T10:36:53Z</time></trkpt><trkpt lat="44.401248194204776" lon="10.47013387072454"><ele>404.0</ele><time>2026-04-18T10:36:54Z</time></trkpt><trkpt lat="44.40116591540774" lon="10.470381574202294"><ele>404.0</ele><time>2026-04-18T10:36:55Z</time></trkpt><trkpt lat="44.40109202007397" lon="10.470607908394928"><ele>400.3333333333333</ele><time>2026-04-18T10:36:56Z</time></trkpt><trkpt lat="44.40102189562312" lon="10.470820218549143"><ele>396.66666666666663</ele><time>2026-04-18T10:36:57Z</time></trkpt><trkpt lat="44.40095900561136" lon="10.471017777248115"><ele>393.0</ele><time>2026-04-18T10:36:58Z</time></trkpt><trkpt lat="44.40088799358531" lon="10.471232935834095"><ele>391.33333333333337</ele><time>2026-04-18T10:36:59Z</time></trkpt><trkpt lat="44.40080834616756" lon="10.471477397031315"><ele>389.6666666666667</ele><time>2026-04-18T10:37:00Z</time></trkpt><trkpt lat="44.4007268795033" lon="10.471732065684227"><ele>388.0</ele><time>2026-04-18T10:37:01Z</time></trkpt><trkpt lat="44.40064296404393" lon="10.471992622723866"><ele>388.0</ele><time>2026-04-18T10:37:02Z</time></trkpt><trkpt lat="44.400554784151836" lon="10.472260424974056"><ele>388.0</ele><time>2026-04-18T10:37:03Z</time></trkpt><trkpt lat="44.400464418009925" lon="10.472526461873066"><ele>388.0</ele><time>2026-04-18T10:37:04Z</time></trkpt><trkpt lat="44.40037665211496" lon="10.472791071183881"><ele>392.6666666666667</ele><time>2026-04-18T10:37:05Z</time></trkpt><trkpt lat="44.40029358996755" lon="10.473043382559508"><ele>397.33333333333337</ele><time>2026-04-18T10:37:06Z</time></trkpt><trkpt lat="44.40022744123664" lon="10.473278531824649"><ele>402.0</ele><time>2026-04-18T10:37:07Z</time></trkpt><trkpt lat="44.40018958308537" lon="10.47353237809617"><ele>403.66666666666663</ele><time>2026-04-18T10:37:08Z</time></trkpt><trkpt lat="44.400193623883965" lon="10.473795294857853"><ele>405.3333333333333</ele><time>2026-04-18T10:37:09Z</time></trkpt><trkpt lat="44.40023303730912" lon="10.474062966060378"><ele>407.0</ele><time>2026-04-18T10:37:10Z</time></trkpt><trkpt lat="44.40031655152884" lon="10.47434234888949"><ele>410.5</ele><time>2026-04-18T10:37:11Z</time></trkpt><trkpt lat="44.40043766399317" lon="10.474646659381945"><ele>414.0</ele><time>2026-04-18T10:37:12Z</time></trkpt><trkpt lat="44.40057513506852" lon="10.474965232965026"><ele>409.0</ele><time>2026-04-18T10:37:13Z</time></trkpt><trkpt lat="44.40068848927837" lon="10.475254388647524"><ele>404.0</ele><time>2026-04-18T10:37:14Z</time></trkpt><trkpt lat="44.400780637092865" lon="10.475499266629223"><ele>399.0</ele><time>2026-04-18T10:37:15Z</time></trkpt><trkpt lat="44.400857928914924" lon="10.475750359320307"><ele>399.0</ele><time>2026-04-18T10:37:16Z</time></trkpt><trkpt lat="44.40095061056647" lon="10.475995555556715"><ele>399.0</ele><time>2026-04-18T10:37:17Z</time></trkpt><trkpt lat="44.40106031574444" lon="10.476245844540024"><ele>399.0</ele><time>2026-04-18T10:37:18Z</time></trkpt><trkpt lat="44.40116078833254" lon="10.476521859910356"><ele>401.0</ele><time>2026-04-18T10:37:19Z</time></trkpt><trkpt lat="44.40126032255904" lon="10.476788701369273"><ele>403.0</ele><time>2026-04-18T10:37:20Z</time></trkpt><trkpt lat="44.40136944054525" lon="10.477041060377845"><ele>405.0</ele><time>2026-04-18T10:37:21Z</time></trkpt><trkpt lat="44.40150319922017" lon="10.477285952371345"><ele>401.66666666666663</ele><time>2026-04-18T10:37:22Z</time></trkpt><trkpt lat="44.40165208643097" lon="10.47751741560279"><ele>398.3333333333333</ele><time>2026-04-18T10:37:23Z</time></trkpt><trkpt lat="44.40180443685565" lon="10.477743791178362"><ele>395.0</ele><time>2026-04-18T10:37:24Z</time></trkpt><trkpt lat="44.40195509430409" lon="10.477971024532826"><ele>395.0</ele><time>2026-04-18T10:37:25Z</time></trkpt><trkpt lat="44.40210332625895" lon="10.478193764736476"><ele>395.0</ele><time>2026-04-18T10:37:26Z</time></trkpt><trkpt lat="44.40223953705115" lon="10.478399138356167"><ele>395.0</ele><time>2026-04-18T10:37:27Z</time></trkpt><trkpt lat="44.40236923878365" lon="10.478604842475272"><ele>393.0</ele><time>2026-04-18T10:37:28Z</time></trkpt><trkpt lat="44.40249669919714" lon="10.478805876629865"><ele>391.0</ele><time>2026-04-18T10:37:29Z</time></trkpt><trkpt lat="44.40262967944991" lon="10.479005277647325"><ele>389.0</ele><time>2026-04-18T10:37:30Z</time></trkpt><trkpt lat="44.40275936669895" lon="10.479208624816847"><ele>389.0</ele><time>2026-04-18T10:37:31Z</time></trkpt><trkpt lat="44.402882186850725" lon="10.47942871604481"><ele>389.0</ele><time>2026-04-18T10:37:32Z</time></trkpt><trkpt lat="44.40296728220185" lon="10.479671395631916"><ele>389.0</ele><time>2026-04-18T10:37:33Z</time></trkpt><trkpt lat="44.40303810014765" lon="10.479934308357246"><ele>386.3333333333333</ele><time>2026-04-18T10:37:34Z</time></trkpt><trkpt lat="44.4030879415937" lon="10.480228272214468"><ele>383.66666666666663</ele><time>2026-04-18T10:37:35Z</time></trkpt><trkpt lat="44.40313664001647" lon="10.480547117279992"><ele>381.0</ele><time>2026-04-18T10:37:36Z</time></trkpt><trkpt lat="44.403201486324804" lon="10.480858826720747"><ele>381.0</ele><time>2026-04-18T10:37:37Z</time></trkpt><trkpt lat="44.40324862708272" lon="10.481164291185655"><ele>381.0</ele><time>2026-04-18T10:37:38Z</time></trkpt><trkpt lat="44.40329532074215" lon="10.48146855966946"><ele>381.0</ele><time>2026-04-18T10:37:39Z</time></trkpt><trkpt lat="44.40334115525758" lon="10.481769314193917"><ele>380.6666666666667</ele><time>2026-04-18T10:37:40Z</time></trkpt><trkpt lat="44.40337260120049" lon="10.4820775304905"><ele>380.33333333333337</ele><time>2026-04-18T10:37:41Z</time></trkpt><trkpt lat="44.403409848390716" lon="10.482359248470923"><ele>380.0</ele><time>2026-04-18T10:37:42Z</time></trkpt><trkpt lat="44.403449939851676" lon="10.482640901584675"><ele>379.33333333333337</ele><time>2026-04-18T10:37:43Z</time></trkpt><trkpt lat="44.40345439559888" lon="10.482928364491011"><ele>378.6666666666667</ele><time>2026-04-18T10:37:44Z</time></trkpt><trkpt lat="44.403431190923264" lon="10.48321955975265"><ele>378.0</ele><time>2026-04-18T10:37:45Z</time></trkpt><trkpt lat="44.40340427192682" lon="10.483507691990804"><ele>375.0</ele><time>2026-04-18T10:37:46Z</time></trkpt><trkpt lat="44.40336522483847" lon="10.483838279467362"><ele>372.0</ele><time>2026-04-18T10:37:47Z</time></trkpt><trkpt lat="44.4033256571429" lon="10.484160358360832"><ele>372.0</ele><time>2026-04-18T10:37:48Z</time></trkpt><trkpt lat="44.40328146596745" lon="10.484510060753122"><ele>372.0</ele><time>2026-04-18T10:37:49Z</time></trkpt><trkpt lat="44.40322927406156" lon="10.484917060602907"><ele>370.5</ele><time>2026-04-18T10:37:50Z</time></trkpt><trkpt lat="44.403167567896055" lon="10.485400352205563"><ele>369.0</ele><time>2026-04-18T10:37:51Z</time></trkpt><trkpt lat="44.40310399861746" lon="10.485898236061647"><ele>367.5</ele><time>2026-04-18T10:37:52Z</time></trkpt><trkpt lat="44.4030498965515" lon="10.486324785406751"><ele>366.0</ele><time>2026-04-18T10:37:53Z</time></trkpt><trkpt lat="44.402999586226414" lon="10.486724265621053"><ele>365.0</ele><time>2026-04-18T10:37:54Z</time></trkpt><trkpt lat="44.40295012898595" lon="10.487116972477008"><ele>364.0</ele><time>2026-04-18T10:37:55Z</time></trkpt><trkpt lat="44.40289782004811" lon="10.487532322455944"><ele>364.0</ele><time>2026-04-18T10:37:56Z</time></trkpt><trkpt lat="44.40283462552497" lon="10.488034108132252"><ele>364.0</ele><time>2026-04-18T10:37:57Z</time></trkpt><trkpt lat="44.40276570045164" lon="10.488581395632677"><ele>365.5</ele><time>2026-04-18T10:37:58Z</time></trkpt><trkpt lat="44.402700540584455" lon="10.489097497562152"><ele>367.0</ele><time>2026-04-18T10:37:59Z</time></trkpt><trkpt lat="44.402644808585805" lon="10.489537985807372"><ele>367.5</ele><time>2026-04-18T10:38:00Z</time></trkpt><trkpt lat="44.40259382862802" lon="10.489940915006223"><ele>368.0</ele><time>2026-04-18T10:38:01Z</time></trkpt><trkpt lat="44.40254253610409" lon="10.490343096306816"><ele>367.5</ele><time>2026-04-18T10:38:02Z</time></trkpt><trkpt lat="44.40249426978006" lon="10.490721021955212"><ele>367.0</ele><time>2026-04-18T10:38:03Z</time></trkpt><trkpt lat="44.40244569923097" lon="10.491101329227964"><ele>365.5</ele><time>2026-04-18T10:38:04Z</time></trkpt><trkpt lat="44.402401794752" lon="10.491438916590898"><ele>364.0</ele><time>2026-04-18T10:38:05Z</time></trkpt><trkpt lat="44.4023594779206" lon="10.491760650551049"><ele>364.0</ele><time>2026-04-18T10:38:06Z</time></trkpt><trkpt lat="44.40232205263319" lon="10.492045062521811"><ele>364.0</ele><time>2026-04-18T10:38:07Z</time></trkpt><trkpt lat="44.40228697933089" lon="10.492310898613695"><ele>364.0</ele><time>2026-04-18T10:38:08Z</time></trkpt><trkpt lat="44.402267304850376" lon="10.492586754895981"><ele>364.0</ele><time>2026-04-18T10:38:09Z</time></trkpt><trkpt lat="44.402248920500305" lon="10.492901671616076"><ele>364.0</ele><time>2026-04-18T10:38:10Z</time></trkpt><trkpt lat="44.402269096566734" lon="10.493206428567316"><ele>364.0</ele><time>2026-04-18T10:38:11Z</time></trkpt><trkpt lat="44.40232821836286" lon="10.493510835110094"><ele>366.5</ele><time>2026-04-18T10:38:12Z</time></trkpt><trkpt lat="44.402430706044484" lon="10.493848563175872"><ele>369.0</ele><time>2026-04-18T10:38:13Z</time></trkpt><trkpt lat="44.402564505766165" lon="10.494210275508024"><ele>372.5</ele><time>2026-04-18T10:38:14Z</time></trkpt><trkpt lat="44.402705283673" lon="10.494637128635521"><ele>376.0</ele><time>2026-04-18T10:38:15Z</time></trkpt><trkpt lat="44.40286504743548" lon="10.49507503158119"><ele>370.0</ele><time>2026-04-18T10:38:16Z</time></trkpt><trkpt lat="44.4030222620347" lon="10.495505475662947"><ele>364.0</ele><time>2026-04-18T10:38:17Z</time></trkpt><trkpt lat="44.40317764990675" lon="10.495929222884433"><ele>368.0</ele><time>2026-04-18T10:38:18Z</time></trkpt><trkpt lat="44.40331733282425" lon="10.49631014187523"><ele>372.0</ele><time>2026-04-18T10:38:19Z</time></trkpt><trkpt lat="44.403449860082524" lon="10.49667268889871"><ele>372.0</ele><time>2026-04-18T10:38:20Z</time></trkpt><trkpt lat="44.40357349429333" lon="10.497012541683521"><ele>372.0</ele><time>2026-04-18T10:38:21Z</time></trkpt><trkpt lat="44.403688603986076" lon="10.497328961391688"><ele>367.0</ele><time>2026-04-18T10:38:22Z</time></trkpt><trkpt lat="44.403798657391256" lon="10.497631482104163"><ele>362.0</ele><time>2026-04-18T10:38:23Z</time></trkpt><trkpt lat="44.403906638607225" lon="10.497928191362046"><ele>362.0</ele><time>2026-04-18T10:38:24Z</time></trkpt><trkpt lat="44.404006901469856" lon="10.49820214217158"><ele>362.0</ele><time>2026-04-18T10:38:25Z</time></trkpt><trkpt lat="44.404104227098266" lon="10.49842596476863"><ele>362.0</ele><time>2026-04-18T10:38:26Z</time></trkpt><trkpt lat="44.40417689416737" lon="10.498669422713805"><ele>366.0</ele><time>2026-04-18T10:38:27Z</time></trkpt><trkpt lat="44.40427002321689" lon="10.498926519473315"><ele>370.0</ele><time>2026-04-18T10:38:28Z</time></trkpt><trkpt lat="44.404395684274355" lon="10.499271065258206"><ele>375.0</ele><time>2026-04-18T10:38:29Z</time></trkpt><trkpt lat="44.404526397132855" lon="10.499629085239725"><ele>380.0</ele><time>2026-04-18T10:38:30Z</time></trkpt><trkpt lat="44.40463431003503" lon="10.49992446455962"><ele>374.6666666666667</ele><time>2026-04-18T10:38:31Z</time></trkpt><trkpt lat="44.404734908523025" lon="10.500199663861558"><ele>369.3333333333333</ele><time>2026-04-18T10:38:32Z</time></trkpt><trkpt lat="44.40483566622995" lon="10.500480631724798"><ele>364.0</ele><time>2026-04-18T10:38:33Z</time></trkpt><trkpt lat="44.404922248285175" lon="10.500753498536081"><ele>364.0</ele><time>2026-04-18T10:38:34Z</time></trkpt><trkpt lat="44.404985065933396" lon="10.501043881756914"><ele>364.0</ele><time>2026-04-18T10:38:35Z</time></trkpt><trkpt lat="44.40501934786973" lon="10.501320914318162"><ele>364.0</ele><time>2026-04-18T10:38:36Z</time></trkpt><trkpt lat="44.40503006851287" lon="10.50160787533"><ele>364.0</ele><time>2026-04-18T10:38:37Z</time></trkpt><trkpt lat="44.40502696465114" lon="10.501918646522128"><ele>364.0</ele><time>2026-04-18T10:38:38Z</time></trkpt><trkpt lat="44.405020740068146" lon="10.502218091651644"><ele>364.0</ele><time>2026-04-18T10:38:39Z</time></trkpt><trkpt lat="44.40501476670671" lon="10.502480763543563"><ele>363.66666666666663</ele><time>2026-04-18T10:38:40Z</time></trkpt><trkpt lat="44.405008209664345" lon="10.50275017307845"><ele>363.3333333333333</ele><time>2026-04-18T10:38:41Z</time></trkpt><trkpt lat="44.40500109951276" lon="10.50302927423736"><ele>363.0</ele><time>2026-04-18T10:38:42Z</time></trkpt><trkpt lat="44.40501062202883" lon="10.503307470779346"><ele>363.0</ele><time>2026-04-18T10:38:43Z</time></trkpt><trkpt lat="44.40499837204782" lon="10.503591668530053"><ele>363.0</ele><time>2026-04-18T10:38:44Z</time></trkpt><trkpt lat="44.40497950376327" lon="10.503869696218217"><ele>363.0</ele><time>2026-04-18T10:38:45Z</time></trkpt><trkpt lat="44.404917381731586" lon="10.504131086842543"><ele>362.6666666666667</ele><time>2026-04-18T10:38:46Z</time></trkpt><trkpt lat="44.404861655497804" lon="10.504393755732908"><ele>362.33333333333337</ele><time>2026-04-18T10:38:47Z</time></trkpt><trkpt lat="44.40480315447155" lon="10.504650175949806"><ele>362.0</ele><time>2026-04-18T10:38:48Z</time></trkpt><trkpt lat="44.404760089410715" lon="10.504909601557236"><ele>361.33333333333337</ele><time>2026-04-18T10:38:49Z</time></trkpt><trkpt lat="44.40470498473504" lon="10.505154216592718"><ele>360.6666666666667</ele><time>2026-04-18T10:38:50Z</time></trkpt><trkpt lat="44.404636725707256" lon="10.505414183831569"><ele>360.0</ele><time>2026-04-18T10:38:51Z</time></trkpt><trkpt lat="44.40460187280248" lon="10.505708099109809"><ele>373.0</ele><time>2026-04-18T10:38:52Z</time></trkpt><trkpt lat="44.40459185413532" lon="10.506044063200944"><ele>386.0</ele><time>2026-04-18T10:38:53Z</time></trkpt><trkpt lat="44.40459436774064" lon="10.50645683715593"><ele>386.0</ele><time>2026-04-18T10:38:54Z</time></trkpt><trkpt lat="44.40460099882854" lon="10.506821892803496"><ele>386.0</ele><time>2026-04-18T10:38:55Z</time></trkpt><trkpt lat="44.40460215230501" lon="10.507130420596877"><ele>383.66666666666663</ele><time>2026-04-18T10:38:56Z</time></trkpt><trkpt lat="44.404619024494075" lon="10.507402307566759"><ele>381.3333333333333</ele><time>2026-04-18T10:38:57Z</time></trkpt><trkpt lat="44.4046201893854" lon="10.50769665709496"><ele>379.0</ele><time>2026-04-18T10:38:58Z</time></trkpt><trkpt lat="44.404703372285994" lon="10.508039402992639"><ele>370.0</ele><time>2026-04-18T10:38:59Z</time></trkpt><trkpt lat="44.404827892235005" lon="10.50836551474177"><ele>361.0</ele><time>2026-04-18T10:39:00Z</time></trkpt><trkpt lat="44.40489427248519" lon="10.508713168172605"><ele>363.0</ele><time>2026-04-18T10:39:01Z</time></trkpt><trkpt lat="44.40495521404647" lon="10.509095307229533"><ele>365.0</ele><time>2026-04-18T10:39:02Z</time></trkpt><trkpt lat="44.40500852118469" lon="10.509488297264951"><ele>368.0</ele><time>2026-04-18T10:39:03Z</time></trkpt><trkpt lat="44.40504017095106" lon="10.509822297489524"><ele>371.0</ele><time>2026-04-18T10:39:04Z</time></trkpt><trkpt lat="44.40507542762874" lon="10.51011477990667"><ele>376.0</ele><time>2026-04-18T10:39:05Z</time></trkpt><trkpt lat="44.40509705556363" lon="10.51042776244381"><ele>381.0</ele><time>2026-04-18T10:39:06Z</time></trkpt><trkpt lat="44.40516296854167" lon="10.510767384531352"><ele>381.0</ele><time>2026-04-18T10:39:07Z</time></trkpt><trkpt lat="44.40526391111839" lon="10.511119399030715"><ele>381.0</ele><time>2026-04-18T10:39:08Z</time></trkpt><trkpt lat="44.405396330827415" lon="10.511461852540307"><ele>375.5</ele><time>2026-04-18T10:39:09Z</time></trkpt><trkpt lat="44.40552205763097" lon="10.51182778469323"><ele>370.0</ele><time>2026-04-18T10:39:10Z</time></trkpt><trkpt lat="44.40563332979047" lon="10.512163436489802"><ele>370.0</ele><time>2026-04-18T10:39:11Z</time></trkpt><trkpt lat="44.40573964832682" lon="10.512456040329901"><ele>370.0</ele><time>2026-04-18T10:39:12Z</time></trkpt><trkpt lat="44.405833060317306" lon="10.512728780585588"><ele>372.3333333333333</ele><time>2026-04-18T10:39:13Z</time></trkpt><trkpt lat="44.40596286300116" lon="10.512974720681566"><ele>374.6666666666667</ele><time>2026-04-18T10:39:14Z</time></trkpt><trkpt lat="44.40607849477949" lon="10.513177614197952"><ele>377.0</ele><time>2026-04-18T10:39:15Z</time></trkpt><trkpt lat="44.40619233294181" lon="10.513355746130644"><ele>377.0</ele><time>2026-04-18T10:39:16Z</time></trkpt><trkpt lat="44.40626969815205" lon="10.513575647838335"><ele>377.0</ele><time>2026-04-18T10:39:17Z</time></trkpt><trkpt lat="44.40632124473286" lon="10.513814185358141"><ele>377.0</ele><time>2026-04-18T10:39:18Z</time></trkpt><trkpt lat="44.40634924208761" lon="10.514059389179149"><ele>377.0</ele><time>2026-04-18T10:39:19Z</time></trkpt><trkpt lat="44.40634700443473" lon="10.514284916001735"><ele>377.0</ele><time>2026-04-18T10:39:20Z</time></trkpt><trkpt lat="44.40631510216748" lon="10.514532446275748"><ele>377.0</ele><time>2026-04-18T10:39:21Z</time></trkpt><trkpt lat="44.40624621960541" lon="10.514803611749693"><ele>375.0</ele><time>2026-04-18T10:39:22Z</time></trkpt><trkpt lat="44.40614816221606" lon="10.515096555659614"><ele>373.0</ele><time>2026-04-18T10:39:23Z</time></trkpt><trkpt lat="44.406060182190096" lon="10.515380665058242"><ele>370.5</ele><time>2026-04-18T10:39:24Z</time></trkpt><trkpt lat="44.40599816386216" lon="10.515675895967249"><ele>368.0</ele><time>2026-04-18T10:39:25Z</time></trkpt><trkpt lat="44.40596476378592" lon="10.516037742160723"><ele>370.0</ele><time>2026-04-18T10:39:26Z</time></trkpt><trkpt lat="44.40596436296624" lon="10.516436888667885"><ele>372.0</ele><time>2026-04-18T10:39:27Z</time></trkpt><trkpt lat="44.40596940774611" lon="10.516868477862078"><ele>373.0</ele><time>2026-04-18T10:39:28Z</time></trkpt><trkpt lat="44.40596639706401" lon="10.5172583170736"><ele>374.0</ele><time>2026-04-18T10:39:29Z</time></trkpt><trkpt lat="44.40596481324391" lon="10.517649636601229"><ele>374.0</ele><time>2026-04-18T10:39:30Z</time></trkpt><trkpt lat="44.40595984800249" lon="10.518046295909649"><ele>374.0</ele><time>2026-04-18T10:39:31Z</time></trkpt><trkpt lat="44.40595737495038" lon="10.518405700976114"><ele>374.5</ele><time>2026-04-18T10:39:32Z</time></trkpt><trkpt lat="44.40595492234723" lon="10.518739022527122"><ele>375.0</ele><time>2026-04-18T10:39:33Z</time></trkpt><trkpt lat="44.405961667276934" lon="10.519064161246265"><ele>375.0</ele><time>2026-04-18T10:39:34Z</time></trkpt><trkpt lat="44.4059856939149" lon="10.519413898421874"><ele>375.0</ele><time>2026-04-18T10:39:35Z</time></trkpt><trkpt lat="44.40606802698221" lon="10.519774937260648"><ele>375.5</ele><time>2026-04-18T10:39:36Z</time></trkpt><trkpt lat="44.40610982362725" lon="10.520107734388414"><ele>376.0</ele><time>2026-04-18T10:39:37Z</time></trkpt><trkpt lat="44.40616060337496" lon="10.520398982094335"><ele>376.0</ele><time>2026-04-18T10:39:38Z</time></trkpt><trkpt lat="44.406218132543415" lon="10.520671197719977"><ele>376.0</ele><time>2026-04-18T10:39:39Z</time></trkpt><trkpt lat="44.40629192739709" lon="10.520914191525824"><ele>376.0</ele><time>2026-04-18T10:39:40Z</time></trkpt><trkpt lat="44.406366723769764" lon="10.521124552221414"><ele>371.25</ele><time>2026-04-18T10:39:41Z</time></trkpt><trkpt lat="44.4064305642337" lon="10.521307334628396"><ele>366.5</ele><time>2026-04-18T10:39:42Z</time></trkpt><trkpt lat="44.406500852124594" lon="10.521467697873094"><ele>361.75</ele><time>2026-04-18T10:39:43Z</time></trkpt><trkpt lat="44.406562776344636" lon="10.521655022139932"><ele>357.0</ele><time>2026-04-18T10:39:44Z</time></trkpt><trkpt lat="44.406629027651825" lon="10.521825890256325"><ele>357.0</ele><time>2026-04-18T10:39:45Z</time></trkpt><trkpt lat="44.406710591141376" lon="10.52198306876343"><ele>357.0</ele><time>2026-04-18T10:39:46Z</time></trkpt><trkpt lat="44.40681045344343" lon="10.522149198727076"><ele>357.0</ele><time>2026-04-18T10:39:47Z</time></trkpt><trkpt lat="44.40695941864866" lon="10.5222864442091"><ele>359.5</ele><time>2026-04-18T10:39:48Z</time></trkpt><trkpt lat="44.40715875368833" lon="10.522451814389083"><ele>362.0</ele><time>2026-04-18T10:39:49Z</time></trkpt><trkpt lat="44.407361259785624" lon="10.522632570082408"><ele>360.0</ele><time>2026-04-18T10:39:50Z</time></trkpt><trkpt lat="44.40755301127695" lon="10.52281385711634"><ele>358.0</ele><time>2026-04-18T10:39:51Z</time></trkpt><trkpt lat="44.40772912112283" lon="10.522958453292096"><ele>356.0</ele><time>2026-04-18T10:39:52Z</time></trkpt><trkpt lat="44.40787724436602" lon="10.523104701698461"><ele>353.25</ele><time>2026-04-18T10:39:53Z</time></trkpt><trkpt lat="44.408010120055174" lon="10.523233049995788"><ele>350.5</ele><time>2026-04-18T10:39:54Z</time></trkpt><trkpt lat="44.40811808496985" lon="10.52334362732208"><ele>347.75</ele><time>2026-04-18T10:39:55Z</time></trkpt><trkpt lat="44.40820698530581" lon="10.523462468763082"><ele>345.0</ele><time>2026-04-18T10:39:56Z</time></trkpt><trkpt lat="44.40827917073568" lon="10.523564344816497"><ele>345.0</ele><time>2026-04-18T10:39:57Z</time></trkpt><trkpt lat="44.408319280392526" lon="10.523669314758372"><ele>345.0</ele><time>2026-04-18T10:39:58Z</time></trkpt><trkpt lat="44.408438723458296" lon="10.523545108171106"><ele>345.0</ele><time>2026-04-18T10:39:59Z</time></trkpt><trkpt lat="44.40855501971735" lon="10.52348720726038"><ele>345.0</ele><time>2026-04-18T10:39:59.999Z</time></trkpt><trkpt lat="44.40868803276094" lon="10.523488011413583"><ele>345.0</ele><time>2026-04-18T10:40:00.999Z</time></trkpt><trkpt lat="44.40882452230158" lon="10.523559068224584"><ele>345.0</ele><time>2026-04-18T10:40:01.999Z</time></trkpt><trkpt lat="44.408969729984484" lon="10.523730707273586"><ele>345.0</ele><time>2026-04-18T10:40:02.999Z</time></trkpt><trkpt lat="44.40918388923878" lon="10.52389756614227"><ele>345.0</ele><time>2026-04-18T10:40:03.999Z</time></trkpt><trkpt lat="44.40942540033538" lon="10.524099907425152"><ele>345.0</ele><time>2026-04-18T10:40:04.999Z</time></trkpt><trkpt lat="44.40971319886336" lon="10.524336850981733"><ele>351.0</ele><time>2026-04-18T10:40:05.999Z</time></trkpt><trkpt lat="44.40998597778813" lon="10.524565742762293"><ele>357.0</ele><time>2026-04-18T10:40:06.998Z</time></trkpt><trkpt lat="44.41022319414746" lon="10.524768302427407"><ele>357.0</ele><time>2026-04-18T10:40:07.998Z</time></trkpt><trkpt lat="44.410445557330206" lon="10.524953107598654"><ele>357.0</ele><time>2026-04-18T10:40:08.998Z</time></trkpt><trkpt lat="44.410667764082646" lon="10.525135466783816"><ele>355.5</ele><time>2026-04-18T10:40:09.998Z</time></trkpt><trkpt lat="44.41089137802117" lon="10.52531991637209"><ele>354.0</ele><time>2026-04-18T10:40:10.998Z</time></trkpt><trkpt lat="44.41109744527841" lon="10.525490879328936"><ele>354.0</ele><time>2026-04-18T10:40:11.998Z</time></trkpt><trkpt lat="44.41130162607067" lon="10.525659901335429"><ele>354.0</ele><time>2026-04-18T10:40:12.998Z</time></trkpt><trkpt lat="44.41150030660262" lon="10.525838583479457"><ele>350.0</ele><time>2026-04-18T10:40:13.998Z</time></trkpt><trkpt lat="44.41170633003385" lon="10.526019825366912"><ele>346.0</ele><time>2026-04-18T10:40:14.998Z</time></trkpt><trkpt lat="44.4119083591226" lon="10.52622561400674"><ele>344.5</ele><time>2026-04-18T10:40:15.998Z</time></trkpt><trkpt lat="44.41211913828134" lon="10.526473123980061"><ele>343.0</ele><time>2026-04-18T10:40:16.998Z</time></trkpt><trkpt lat="44.41233558351353" lon="10.526757182411348"><ele>343.0</ele><time>2026-04-18T10:40:17.998Z</time></trkpt><trkpt lat="44.41256160944198" lon="10.527058832287855"><ele>343.0</ele><time>2026-04-18T10:40:18.998Z</time></trkpt><trkpt lat="44.412784380448684" lon="10.52735064390848"><ele>342.5</ele><time>2026-04-18T10:40:19.997Z</time></trkpt><trkpt lat="44.41298443763213" lon="10.527613402432316"><ele>342.0</ele><time>2026-04-18T10:40:20.997Z</time></trkpt><trkpt lat="44.41316809675248" lon="10.52785561266723"><ele>345.0</ele><time>2026-04-18T10:40:21.997Z</time></trkpt><trkpt lat="44.41334769981334" lon="10.528093467772342"><ele>348.0</ele><time>2026-04-18T10:40:22.997Z</time></trkpt><trkpt lat="44.41351528928435" lon="10.52831380754725"><ele>348.0</ele><time>2026-04-18T10:40:23.997Z</time></trkpt><trkpt lat="44.41369369856102" lon="10.528531895976558"><ele>348.0</ele><time>2026-04-18T10:40:24.997Z</time></trkpt><trkpt lat="44.41385869968668" lon="10.528774856263835"><ele>346.5</ele><time>2026-04-18T10:40:25.997Z</time></trkpt><trkpt lat="44.414028513936735" lon="10.528991360005731"><ele>345.0</ele><time>2026-04-18T10:40:26.997Z</time></trkpt><trkpt lat="44.414175247747" lon="10.529242613434677"><ele>345.0</ele><time>2026-04-18T10:40:27.997Z</time></trkpt><trkpt lat="44.414284507622185" lon="10.529519967558846"><ele>345.0</ele><time>2026-04-18T10:40:28.997Z</time></trkpt><trkpt lat="44.41440624780579" lon="10.529799390266973"><ele>347.0</ele><time>2026-04-18T10:40:29.997Z</time></trkpt><trkpt lat="44.41450088369948" lon="10.530127140680747"><ele>349.0</ele><time>2026-04-18T10:40:30.997Z</time></trkpt><trkpt lat="44.41454744862116" lon="10.53047462450884"><ele>350.5</ele><time>2026-04-18T10:40:31.997Z</time></trkpt><trkpt lat="44.414604762337795" lon="10.530866119295764"><ele>352.0</ele><time>2026-04-18T10:40:32.997Z</time></trkpt><trkpt lat="44.41468508806057" lon="10.531328818210811"><ele>346.0</ele><time>2026-04-18T10:40:33.997Z</time></trkpt><trkpt lat="44.41475359917536" lon="10.531806862208033"><ele>340.0</ele><time>2026-04-18T10:40:34.997Z</time></trkpt><trkpt lat="44.414813730345166" lon="10.532247780032447"><ele>340.0</ele><time>2026-04-18T10:40:35.997Z</time></trkpt><trkpt lat="44.414851637223684" lon="10.532584954552075"><ele>340.0</ele><time>2026-04-18T10:40:36.997Z</time></trkpt><trkpt lat="44.41489896762793" lon="10.5329151861128"><ele>340.0</ele><time>2026-04-18T10:40:37.997Z</time></trkpt><trkpt lat="44.414956867455096" lon="10.533224943582372"><ele>340.0</ele><time>2026-04-18T10:40:38.997Z</time></trkpt><trkpt lat="44.41500006152982" lon="10.533514368773472"><ele>340.0</ele><time>2026-04-18T10:40:39.997Z</time></trkpt><trkpt lat="44.41504795780283" lon="10.533784166116801"><ele>340.3333333333333</ele><time>2026-04-18T10:40:40.997Z</time></trkpt><trkpt lat="44.41509648452868" lon="10.534065424472725"><ele>340.6666666666667</ele><time>2026-04-18T10:40:41.997Z</time></trkpt><trkpt lat="44.41521295874124" lon="10.534353421760537"><ele>341.0</ele><time>2026-04-18T10:40:42.997Z</time></trkpt><trkpt lat="44.41546342179117" lon="10.534481952110788"><ele>338.33333333333337</ele><time>2026-04-18T10:40:43.997Z</time></trkpt><trkpt lat="44.41559969125519" lon="10.534592474540677"><ele>335.6666666666667</ele><time>2026-04-18T10:40:44.997Z</time></trkpt><trkpt lat="44.415782974688" lon="10.534719784424977"><ele>333.0</ele><time>2026-04-18T10:40:45.997Z</time></trkpt><trkpt lat="44.416031156097816" lon="10.534899546347486"><ele>333.0</ele><time>2026-04-18T10:40:46.997Z</time></trkpt><trkpt lat="44.416331270509" lon="10.535100269812506"><ele>333.0</ele><time>2026-04-18T10:40:47.997Z</time></trkpt><trkpt lat="44.41659313673629" lon="10.535283745708865"><ele>332.0</ele><time>2026-04-18T10:40:48.997Z</time></trkpt><trkpt lat="44.41681849804532" lon="10.5354428862968"><ele>331.0</ele><time>2026-04-18T10:40:49.997Z</time></trkpt><trkpt lat="44.417012237430285" lon="10.535570195939794"><ele>333.3333333333333</ele><time>2026-04-18T10:40:50.997Z</time></trkpt><trkpt lat="44.41718571733589" lon="10.535683040321988"><ele>335.6666666666667</ele><time>2026-04-18T10:40:51.997Z</time></trkpt><trkpt lat="44.4173389493107" lon="10.535839072931045"><ele>338.0</ele><time>2026-04-18T10:40:52.997Z</time></trkpt><trkpt lat="44.41749143395559" lon="10.536046057982643"><ele>335.5</ele><time>2026-04-18T10:40:53.997Z</time></trkpt><trkpt lat="44.41762107378242" lon="10.536284465488125"><ele>333.0</ele><time>2026-04-18T10:40:54.997Z</time></trkpt><trkpt lat="44.417740556432356" lon="10.53657589519695"><ele>333.0</ele><time>2026-04-18T10:40:55.997Z</time></trkpt><trkpt lat="44.41785995179727" lon="10.536948246773843"><ele>333.0</ele><time>2026-04-18T10:40:56.997Z</time></trkpt><trkpt lat="44.4180124349978" lon="10.537457040153711"><ele>333.5</ele><time>2026-04-18T10:40:57.997Z</time></trkpt><trkpt lat="44.41816971470965" lon="10.537949452783904"><ele>334.0</ele><time>2026-04-18T10:40:58.997Z</time></trkpt><trkpt lat="44.41832628348474" lon="10.538416872709025"><ele>331.0</ele><time>2026-04-18T10:40:59.997Z</time></trkpt><trkpt lat="44.418464002805315" lon="10.538888100411057"><ele>328.0</ele><time>2026-04-18T10:41:00.997Z</time></trkpt><trkpt lat="44.41860074533754" lon="10.539299039497473"><ele>327.0</ele><time>2026-04-18T10:41:01.997Z</time></trkpt><trkpt lat="44.41870494810126" lon="10.539612189965947"><ele>326.0</ele><time>2026-04-18T10:41:02.997Z</time></trkpt><trkpt lat="44.418836047228694" lon="10.539954486625893"><ele>329.5</ele><time>2026-04-18T10:41:03.997Z</time></trkpt><trkpt lat="44.41893852870944" lon="10.540264985222715"><ele>333.0</ele><time>2026-04-18T10:41:04.997Z</time></trkpt><trkpt lat="44.419019452020386" lon="10.540562792645137"><ele>333.0</ele><time>2026-04-18T10:41:05.997Z</time></trkpt><trkpt lat="44.41910576520813" lon="10.540826805014664"><ele>333.0</ele><time>2026-04-18T10:41:06.997Z</time></trkpt><trkpt lat="44.41918210069101" lon="10.54108354822177"><ele>333.0</ele><time>2026-04-18T10:41:07.997Z</time></trkpt><trkpt lat="44.41924172142681" lon="10.541351935169017"><ele>332.3333333333333</ele><time>2026-04-18T10:41:08.997Z</time></trkpt><trkpt lat="44.41927703501688" lon="10.541644718788985"><ele>331.66666666666663</ele><time>2026-04-18T10:41:09.997Z</time></trkpt><trkpt lat="44.419284487528245" lon="10.541961910631036"><ele>331.0</ele><time>2026-04-18T10:41:10.997Z</time></trkpt><trkpt lat="44.419261187615405" lon="10.542305951901984"><ele>330.5</ele><time>2026-04-18T10:41:11.997Z</time></trkpt><trkpt lat="44.41921886033523" lon="10.542681951219825"><ele>330.0</ele><time>2026-04-18T10:41:12.997Z</time></trkpt><trkpt lat="44.41917466488771" lon="10.543067107165905"><ele>330.0</ele><time>2026-04-18T10:41:13.997Z</time></trkpt><trkpt lat="44.41913196990352" lon="10.543438652616848"><ele>330.0</ele><time>2026-04-18T10:41:14.997Z</time></trkpt><trkpt lat="44.419103172326174" lon="10.543802216982172"><ele>330.5</ele><time>2026-04-18T10:41:15.997Z</time></trkpt><trkpt lat="44.41906400626523" lon="10.5441382966469"><ele>331.0</ele><time>2026-04-18T10:41:16.997Z</time></trkpt><trkpt lat="44.41903057551212" lon="10.544439981118755"><ele>330.3333333333333</ele><time>2026-04-18T10:41:17.997Z</time></trkpt><trkpt lat="44.419008770820014" lon="10.544737339650663"><ele>329.6666666666667</ele><time>2026-04-18T10:41:18.997Z</time></trkpt><trkpt lat="44.41900973913211" lon="10.545044370600623"><ele>329.0</ele><time>2026-04-18T10:41:19.997Z</time></trkpt><trkpt lat="44.419033191569675" lon="10.545325469375424"><ele>328.33333333333337</ele><time>2026-04-18T10:41:20.997Z</time></trkpt><trkpt lat="44.4190835357613" lon="10.54560677361901"><ele>327.6666666666667</ele><time>2026-04-18T10:41:21.997Z</time></trkpt><trkpt lat="44.41916731404831" lon="10.545907339477834"><ele>327.0</ele><time>2026-04-18T10:41:22.997Z</time></trkpt><trkpt lat="44.4192846192219" lon="10.546209443464026"><ele>325.0</ele><time>2026-04-18T10:41:23.997Z</time></trkpt><trkpt lat="44.4194115622263" lon="10.546565365625487"><ele>323.0</ele><time>2026-04-18T10:41:24.997Z</time></trkpt><trkpt lat="44.41955171270697" lon="10.546964990821046"><ele>323.5</ele><time>2026-04-18T10:41:25.997Z</time></trkpt><trkpt lat="44.41970556560278" lon="10.547401303789417"><ele>324.0</ele><time>2026-04-18T10:41:26.997Z</time></trkpt><trkpt lat="44.419868093886045" lon="10.547857048093013"><ele>324.0</ele><time>2026-04-18T10:41:27.997Z</time></trkpt><trkpt lat="44.42001463200297" lon="10.548304922162032"><ele>324.0</ele><time>2026-04-18T10:41:28.997Z</time></trkpt><trkpt lat="44.42014247508586" lon="10.548696604615408"><ele>323.0</ele><time>2026-04-18T10:41:29.997Z</time></trkpt><trkpt lat="44.420245572057354" lon="10.549059030537055"><ele>322.0</ele><time>2026-04-18T10:41:30.997Z</time></trkpt><trkpt lat="44.420348833978004" lon="10.549375372017725"><ele>322.66666666666663</ele><time>2026-04-18T10:41:31.997Z</time></trkpt><trkpt lat="44.420425363820975" lon="10.549667160560968"><ele>323.3333333333333</ele><time>2026-04-18T10:41:32.997Z</time></trkpt><trkpt lat="44.42047513400956" lon="10.549961595188998"><ele>324.0</ele><time>2026-04-18T10:41:33.997Z</time></trkpt><trkpt lat="44.4204976860904" lon="10.550258772483765"><ele>324.0</ele><time>2026-04-18T10:41:34.997Z</time></trkpt><trkpt lat="44.42049298997839" lon="10.550587385942082"><ele>324.0</ele><time>2026-04-18T10:41:35.997Z</time></trkpt><trkpt lat="44.420457293359675" lon="10.55092544294376"><ele>324.5</ele><time>2026-04-18T10:41:36.997Z</time></trkpt><trkpt lat="44.42038595851121" lon="10.551284141599401"><ele>325.0</ele><time>2026-04-18T10:41:37.997Z</time></trkpt><trkpt lat="44.420292848124426" lon="10.551699603844314"><ele>324.5</ele><time>2026-04-18T10:41:38.997Z</time></trkpt><trkpt lat="44.420195414672655" lon="10.552129655755822"><ele>324.0</ele><time>2026-04-18T10:41:39.997Z</time></trkpt><trkpt lat="44.42013140691032" lon="10.552551608405231"><ele>324.5</ele><time>2026-04-18T10:41:40.997Z</time></trkpt><trkpt lat="44.42008410691258" lon="10.552974296547312"><ele>325.0</ele><time>2026-04-18T10:41:41.997Z</time></trkpt><trkpt lat="44.42006419168632" lon="10.553433330599882"><ele>324.5</ele><time>2026-04-18T10:41:42.997Z</time></trkpt><trkpt lat="44.4200558910595" lon="10.553917763709936"><ele>324.0</ele><time>2026-04-18T10:41:43.997Z</time></trkpt><trkpt lat="44.420043794001444" lon="10.554404789419415"><ele>326.0</ele><time>2026-04-18T10:41:44.997Z</time></trkpt><trkpt lat="44.42003405204254" lon="10.554842343893446"><ele>328.0</ele><time>2026-04-18T10:41:45.997Z</time></trkpt><trkpt lat="44.42000731535388" lon="10.555241145998144"><ele>328.0</ele><time>2026-04-18T10:41:46.997Z</time></trkpt><trkpt lat="44.419994325413874" lon="10.555618051435687"><ele>328.0</ele><time>2026-04-18T10:41:47.997Z</time></trkpt><trkpt lat="44.419982016320176" lon="10.55597520202167"><ele>328.0</ele><time>2026-04-18T10:41:48.997Z</time></trkpt><trkpt lat="44.41997150312" lon="10.556280244439181"><ele>328.0</ele><time>2026-04-18T10:41:49.997Z</time></trkpt><trkpt lat="44.41995555394439" lon="10.556556637304363"><ele>328.0</ele><time>2026-04-18T10:41:50.997Z</time></trkpt><trkpt lat="44.41991788696045" lon="10.556838044340006"><ele>328.5</ele><time>2026-04-18T10:41:51.997Z</time></trkpt><trkpt lat="44.41982879283614" lon="10.557127585939504"><ele>329.0</ele><time>2026-04-18T10:41:52.997Z</time></trkpt><trkpt lat="44.41970552945311" lon="10.557453148985877"><ele>324.5</ele><time>2026-04-18T10:41:53.997Z</time></trkpt><trkpt lat="44.419574043416425" lon="10.557799067415617"><ele>320.0</ele><time>2026-04-18T10:41:54.997Z</time></trkpt><trkpt lat="44.41941269103516" lon="10.558131546042905"><ele>320.0</ele><time>2026-04-18T10:41:55.997Z</time></trkpt><trkpt lat="44.419270108411716" lon="10.558420102377394"><ele>320.0</ele><time>2026-04-18T10:41:56.998Z</time></trkpt><trkpt lat="44.41915317929039" lon="10.558671298262926"><ele>322.33333333333337</ele><time>2026-04-18T10:41:57.998Z</time></trkpt><trkpt lat="44.419056618761445" lon="10.558906778141845"><ele>324.6666666666667</ele><time>2026-04-18T10:41:58.998Z</time></trkpt><trkpt lat="44.41896703220553" lon="10.559207658708683"><ele>327.0</ele><time>2026-04-18T10:41:59.998Z</time></trkpt><trkpt lat="44.41889571656887" lon="10.559525131191643"><ele>328.5</ele><time>2026-04-18T10:42:00.998Z</time></trkpt><trkpt lat="44.41883663846102" lon="10.559857517718058"><ele>330.0</ele><time>2026-04-18T10:42:01.998Z</time></trkpt><trkpt lat="44.41879189532798" lon="10.560169610958042"><ele>324.0</ele><time>2026-04-18T10:42:02.998Z</time></trkpt><trkpt lat="44.41877170762584" lon="10.560480138373892"><ele>318.0</ele><time>2026-04-18T10:42:03.999Z</time></trkpt><trkpt lat="44.41876892679494" lon="10.5608053732571"><ele>318.0</ele><time>2026-04-18T10:42:04.999Z</time></trkpt><trkpt lat="44.4187765274646" lon="10.561138609721006"><ele>318.0</ele><time>2026-04-18T10:42:05.999Z</time></trkpt><trkpt lat="44.41880405487108" lon="10.561483694345466"><ele>321.5</ele><time>2026-04-18T10:42:06.999Z</time></trkpt><trkpt lat="44.41884883643761" lon="10.561809252158701"><ele>325.0</ele><time>2026-04-18T10:42:07.999Z</time></trkpt><trkpt lat="44.418907875443864" lon="10.562138189195958"><ele>325.5</ele><time>2026-04-18T10:42:08.999Z</time></trkpt><trkpt lat="44.418997328890484" lon="10.562514724469496"><ele>326.0</ele><time>2026-04-18T10:42:09.999Z</time></trkpt><trkpt lat="44.41910718739973" lon="10.562941273566095"><ele>324.5</ele><time>2026-04-18T10:42:10.999Z</time></trkpt><trkpt lat="44.419206567093255" lon="10.563345598522481"><ele>323.0</ele><time>2026-04-18T10:42:11.999Z</time></trkpt><trkpt lat="44.419295056109185" lon="10.563717014917696"><ele>321.0</ele><time>2026-04-18T10:42:12.999Z</time></trkpt><trkpt lat="44.419378596622366" lon="10.564037553546017"><ele>319.0</ele><time>2026-04-18T10:42:13.999Z</time></trkpt><trkpt lat="44.41944045956176" lon="10.564348404785658"><ele>318.3333333333333</ele><time>2026-04-18T10:42:14.999Z</time></trkpt><trkpt lat="44.41950760202939" lon="10.564630498219563"><ele>317.6666666666667</ele><time>2026-04-18T10:42:15.999Z</time></trkpt><trkpt lat="44.4195644148434" lon="10.564912111897552"><ele>317.0</ele><time>2026-04-18T10:42:16.999Z</time></trkpt><trkpt lat="44.4195949175661" lon="10.565205635405476"><ele>315.5</ele><time>2026-04-18T10:42:18Z</time></trkpt><trkpt lat="44.419592680989176" lon="10.56552939232366"><ele>314.0</ele><time>2026-04-18T10:42:19Z</time></trkpt><trkpt lat="44.41953960940811" lon="10.565858007379953"><ele>313.0</ele><time>2026-04-18T10:42:20Z</time></trkpt><trkpt lat="44.41945123027665" lon="10.56621967431293"><ele>312.0</ele><time>2026-04-18T10:42:21Z</time></trkpt><trkpt lat="44.41935955316803" lon="10.56663982790869"><ele>312.0</ele><time>2026-04-18T10:42:22Z</time></trkpt><trkpt lat="44.41923711393283" lon="10.567096788849845"><ele>312.0</ele><time>2026-04-18T10:42:23Z</time></trkpt><trkpt lat="44.41912406295193" lon="10.567556482725223"><ele>312.0</ele><time>2026-04-18T10:42:24Z</time></trkpt><trkpt lat="44.419022118737665" lon="10.567962567193723"><ele>312.0</ele><time>2026-04-18T10:42:25Z</time></trkpt><trkpt lat="44.41893177049616" lon="10.568317487848214"><ele>312.0</ele><time>2026-04-18T10:42:26Z</time></trkpt><trkpt lat="44.41883987458562" lon="10.568674969186088"><ele>312.0</ele><time>2026-04-18T10:42:27Z</time></trkpt><trkpt lat="44.41874614346823" lon="10.569037162391169"><ele>313.0</ele><time>2026-04-18T10:42:28Z</time></trkpt><trkpt lat="44.41866082415148" lon="10.569367166994128"><ele>314.0</ele><time>2026-04-18T10:42:29Z</time></trkpt><trkpt lat="44.41858009926258" lon="10.569678821578576"><ele>314.0</ele><time>2026-04-18T10:42:30Z</time></trkpt><trkpt lat="44.41846945135767" lon="10.570019073669132"><ele>314.0</ele><time>2026-04-18T10:42:31Z</time></trkpt><trkpt lat="44.418330194057056" lon="10.570400770161946"><ele>312.0</ele><time>2026-04-18T10:42:32Z</time></trkpt><trkpt lat="44.418170518333504" lon="10.570795677374072"><ele>310.0</ele><time>2026-04-18T10:42:33Z</time></trkpt><trkpt lat="44.41799545204951" lon="10.571206214379183"><ele>309.5</ele><time>2026-04-18T10:42:34Z</time></trkpt><trkpt lat="44.41780697886194" lon="10.571639903474866"><ele>309.0</ele><time>2026-04-18T10:42:35Z</time></trkpt><trkpt lat="44.41763102784092" lon="10.572067114811585"><ele>309.0</ele><time>2026-04-18T10:42:36Z</time></trkpt><trkpt lat="44.41747159314183" lon="10.572463862351524"><ele>309.0</ele><time>2026-04-18T10:42:37Z</time></trkpt><trkpt lat="44.41733010542594" lon="10.57280957248257"><ele>308.0</ele><time>2026-04-18T10:42:38Z</time></trkpt><trkpt lat="44.417196256149005" lon="10.57313226680978"><ele>307.0</ele><time>2026-04-18T10:42:39Z</time></trkpt><trkpt lat="44.41706289617611" lon="10.573447677430847"><ele>308.0</ele><time>2026-04-18T10:42:40Z</time></trkpt><trkpt lat="44.41692722547843" lon="10.573768136798224"><ele>309.0</ele><time>2026-04-18T10:42:41Z</time></trkpt><trkpt lat="44.41680664737292" lon="10.57406149339307"><ele>309.0</ele><time>2026-04-18T10:42:42Z</time></trkpt><trkpt lat="44.41670195313328" lon="10.574329535025724"><ele>309.0</ele><time>2026-04-18T10:42:43Z</time></trkpt><trkpt lat="44.416600755829656" lon="10.574630717295673"><ele>309.0</ele><time>2026-04-18T10:42:44Z</time></trkpt><trkpt lat="44.41652086310986" lon="10.57497733576612"><ele>309.0</ele><time>2026-04-18T10:42:45Z</time></trkpt><trkpt lat="44.41647932322541" lon="10.575361355886686"><ele>311.0</ele><time>2026-04-18T10:42:46Z</time></trkpt><trkpt lat="44.4164624592007" lon="10.575782860822898"><ele>313.0</ele><time>2026-04-18T10:42:47Z</time></trkpt><trkpt lat="44.41644906203512" lon="10.576241920654535"><ele>313.5</ele><time>2026-04-18T10:42:48Z</time></trkpt><trkpt lat="44.416420853517764" lon="10.576684345755833"><ele>314.0</ele><time>2026-04-18T10:42:49Z</time></trkpt><trkpt lat="44.41640154702102" lon="10.577054853424706"><ele>314.0</ele><time>2026-04-18T10:42:50Z</time></trkpt><trkpt lat="44.41638642198233" lon="10.577394673300516"><ele>314.0</ele><time>2026-04-18T10:42:51Z</time></trkpt><trkpt lat="44.41637778603322" lon="10.577707528253633"><ele>312.5</ele><time>2026-04-18T10:42:52Z</time></trkpt><trkpt lat="44.41635430887014" lon="10.578015058913245"><ele>311.0</ele><time>2026-04-18T10:42:53Z</time></trkpt><trkpt lat="44.416299571276284" lon="10.578346026210102"><ele>313.0</ele><time>2026-04-18T10:42:54Z</time></trkpt><trkpt lat="44.416215493951746" lon="10.57867882945441"><ele>315.0</ele><time>2026-04-18T10:42:55Z</time></trkpt><trkpt lat="44.416093141766126" lon="10.579031150402269"><ele>315.0</ele><time>2026-04-18T10:42:56Z</time></trkpt><trkpt lat="44.41594217886453" lon="10.579419428039246"><ele>315.0</ele><time>2026-04-18T10:42:57Z</time></trkpt><trkpt lat="44.415808350974956" lon="10.579784652152947"><ele>313.5</ele><time>2026-04-18T10:42:58Z</time></trkpt><trkpt lat="44.415692885447946" lon="10.580107837938172"><ele>312.0</ele><time>2026-04-18T10:42:59Z</time></trkpt><trkpt lat="44.415585877314456" lon="10.580391593003656"><ele>310.3333333333333</ele><time>2026-04-18T10:43:00Z</time></trkpt><trkpt lat="44.41549189926973" lon="10.580656842969185"><ele>308.66666666666663</ele><time>2026-04-18T10:43:01Z</time></trkpt><trkpt lat="44.41538916254659" lon="10.58091522256325"><ele>307.0</ele><time>2026-04-18T10:43:02Z</time></trkpt><trkpt lat="44.41524872145158" lon="10.581131895071618"><ele>308.3333333333333</ele><time>2026-04-18T10:43:03Z</time></trkpt><trkpt lat="44.41509164515203" lon="10.581336123033179"><ele>309.6666666666667</ele><time>2026-04-18T10:43:04Z</time></trkpt><trkpt lat="44.41491037866557" lon="10.581507218511453"><ele>311.0</ele><time>2026-04-18T10:43:05Z</time></trkpt><trkpt lat="44.41469862577394" lon="10.581630420565096"><ele>313.0</ele><time>2026-04-18T10:43:06Z</time></trkpt><trkpt lat="44.41447004174023" lon="10.581742631309249"><ele>315.0</ele><time>2026-04-18T10:43:07Z</time></trkpt><trkpt lat="44.4141973611941" lon="10.58179449563877"><ele>315.0</ele><time>2026-04-18T10:43:08Z</time></trkpt><trkpt lat="44.413887026910196" lon="10.581828571750927"><ele>315.0</ele><time>2026-04-18T10:43:09Z</time></trkpt><trkpt lat="44.41361459232308" lon="10.581858702191115"><ele>316.3333333333333</ele><time>2026-04-18T10:43:10Z</time></trkpt><trkpt lat="44.413397628991184" lon="10.58189253989033"><ele>317.66666666666663</ele><time>2026-04-18T10:43:11Z</time></trkpt><trkpt lat="44.41322050549666" lon="10.581942731734216"><ele>319.0</ele><time>2026-04-18T10:43:12Z</time></trkpt><trkpt lat="44.413072771571876" lon="10.582037544613202"><ele>317.3333333333333</ele><time>2026-04-18T10:43:13Z</time></trkpt><trkpt lat="44.41294967788418" lon="10.582180873180848"><ele>315.6666666666667</ele><time>2026-04-18T10:43:14Z</time></trkpt><trkpt lat="44.412844939097745" lon="10.582367735519394"><ele>314.0</ele><time>2026-04-18T10:43:15Z</time></trkpt><trkpt lat="44.412766273802276" lon="10.582596593376195"><ele>312.33333333333337</ele><time>2026-04-18T10:43:16Z</time></trkpt><trkpt lat="44.412733948406796" lon="10.58284912470399"><ele>310.6666666666667</ele><time>2026-04-18T10:43:17Z</time></trkpt><trkpt lat="44.41273335451949" lon="10.583163914978416"><ele>309.0</ele><time>2026-04-18T10:43:18Z</time></trkpt><trkpt lat="44.41274582524692" lon="10.583528604058374"><ele>307.5</ele><time>2026-04-18T10:43:19Z</time></trkpt><trkpt lat="44.41274809923302" lon="10.583946852995298"><ele>306.0</ele><time>2026-04-18T10:43:20Z</time></trkpt><trkpt lat="44.41272203744426" lon="10.584406466990385"><ele>303.5</ele><time>2026-04-18T10:43:21Z</time></trkpt><trkpt lat="44.4127201699392" lon="10.58489999889022"><ele>301.0</ele><time>2026-04-18T10:43:22Z</time></trkpt><trkpt lat="44.41271641675281" lon="10.585339999065175"><ele>302.5</ele><time>2026-04-18T10:43:23Z</time></trkpt><trkpt lat="44.412713088196384" lon="10.585730218298496"><ele>304.0</ele><time>2026-04-18T10:43:24Z</time></trkpt><trkpt lat="44.412710269018675" lon="10.58610699662321"><ele>305.5</ele><time>2026-04-18T10:43:25Z</time></trkpt><trkpt lat="44.4127078652148" lon="10.586495494478525"><ele>307.0</ele><time>2026-04-18T10:43:26Z</time></trkpt><trkpt lat="44.41269819417015" lon="10.586916787932482"><ele>308.5</ele><time>2026-04-18T10:43:27Z</time></trkpt><trkpt lat="44.41266561728475" lon="10.587330140557542"><ele>310.0</ele><time>2026-04-18T10:43:28Z</time></trkpt><trkpt lat="44.41261577564692" lon="10.587774075550707"><ele>310.5</ele><time>2026-04-18T10:43:29Z</time></trkpt><trkpt lat="44.412584948975564" lon="10.588182361092363"><ele>311.0</ele><time>2026-04-18T10:43:30Z</time></trkpt><trkpt lat="44.41254756155383" lon="10.588550854551896"><ele>312.0</ele><time>2026-04-18T10:43:31Z</time></trkpt><trkpt lat="44.41251216310251" lon="10.58892267593229"><ele>313.0</ele><time>2026-04-18T10:43:32Z</time></trkpt><trkpt lat="44.41248100285645" lon="10.589311634668645"><ele>315.5</ele><time>2026-04-18T10:43:33Z</time></trkpt><trkpt lat="44.4124444941778" lon="10.589702395039543"><ele>318.0</ele><time>2026-04-18T10:43:34Z</time></trkpt><trkpt lat="44.41246038976603" lon="10.590086855025778"><ele>317.5</ele><time>2026-04-18T10:43:35Z</time></trkpt><trkpt lat="44.412461680613276" lon="10.59047995917131"><ele>317.0</ele><time>2026-04-18T10:43:36Z</time></trkpt><trkpt lat="44.41248081523692" lon="10.5908755260023"><ele>320.0</ele><time>2026-04-18T10:43:37Z</time></trkpt><trkpt lat="44.41249844774369" lon="10.591250216710916"><ele>323.0</ele><time>2026-04-18T10:43:38Z</time></trkpt><trkpt lat="44.41251462167764" lon="10.59158776318956"><ele>323.0</ele><time>2026-04-18T10:43:39Z</time></trkpt><trkpt lat="44.41253106776006" lon="10.591884769643832"><ele>323.0</ele><time>2026-04-18T10:43:40Z</time></trkpt><trkpt lat="44.41253793275796" lon="10.592161951814006"><ele>323.0</ele><time>2026-04-18T10:43:41Z</time></trkpt><trkpt lat="44.412520071427934" lon="10.592424278062843"><ele>323.6666666666667</ele><time>2026-04-18T10:43:42Z</time></trkpt><trkpt lat="44.41247018874819" lon="10.59267414879259"><ele>324.3333333333333</ele><time>2026-04-18T10:43:43Z</time></trkpt><trkpt lat="44.41238500049416" lon="10.59291965680383"><ele>325.0</ele><time>2026-04-18T10:43:44Z</time></trkpt><trkpt lat="44.41226644259794" lon="10.593197122209169"><ele>322.3333333333333</ele><time>2026-04-18T10:43:45Z</time></trkpt><trkpt lat="44.41217930938701" lon="10.593437454603578"><ele>319.6666666666667</ele><time>2026-04-18T10:43:46Z</time></trkpt><trkpt lat="44.4121093976853" lon="10.593628801899868"><ele>317.0</ele><time>2026-04-18T10:43:47Z</time></trkpt><trkpt lat="44.412095429007145" lon="10.593863929824666"><ele>317.0</ele><time>2026-04-18T10:43:48Z</time></trkpt><trkpt lat="44.41210135136848" lon="10.594136748258597"><ele>317.0</ele><time>2026-04-18T10:43:49Z</time></trkpt><trkpt lat="44.41214545599634" lon="10.594431408239721"><ele>317.0</ele><time>2026-04-18T10:43:50Z</time></trkpt><trkpt lat="44.41217680084426" lon="10.594741026200873"><ele>325.0</ele><time>2026-04-18T10:43:51Z</time></trkpt><trkpt lat="44.41221296721571" lon="10.59501078966914"><ele>333.0</ele><time>2026-04-18T10:43:52Z</time></trkpt><trkpt lat="44.41222689009324" lon="10.595243395004614"><ele>341.0</ele><time>2026-04-18T10:43:53Z</time></trkpt><trkpt lat="44.41221306826831" lon="10.595493146041091"><ele>336.0</ele><time>2026-04-18T10:43:54Z</time></trkpt><trkpt lat="44.41215529354487" lon="10.595746919022837"><ele>331.0</ele><time>2026-04-18T10:43:55Z</time></trkpt><trkpt lat="44.41206954506356" lon="10.595952152819434"><ele>326.0</ele><time>2026-04-18T10:43:56Z</time></trkpt><trkpt lat="44.41195464019266" lon="10.596132387154146"><ele>335.0</ele><time>2026-04-18T10:43:57Z</time></trkpt><trkpt lat="44.411780059032985" lon="10.596357362175237"><ele>344.0</ele><time>2026-04-18T10:43:58Z</time></trkpt><trkpt lat="44.411562259084306" lon="10.596633464455767"><ele>344.0</ele><time>2026-04-18T10:43:59Z</time></trkpt><trkpt lat="44.41132403350865" lon="10.596938164478638"><ele>344.0</ele><time>2026-04-18T10:44:00Z</time></trkpt><trkpt lat="44.41111479356022" lon="10.597203712966179"><ele>343.5</ele><time>2026-04-18T10:44:01Z</time></trkpt><trkpt lat="44.41095411666481" lon="10.597454432435871"><ele>343.0</ele><time>2026-04-18T10:44:02Z</time></trkpt><trkpt lat="44.41079257928429" lon="10.597644088442314"><ele>345.3333333333333</ele><time>2026-04-18T10:44:03Z</time></trkpt><trkpt lat="44.41064597537441" lon="10.597835300433392"><ele>347.6666666666667</ele><time>2026-04-18T10:44:04Z</time></trkpt><trkpt lat="44.41051075196756" lon="10.59805846648546"><ele>350.0</ele><time>2026-04-18T10:44:05Z</time></trkpt><trkpt lat="44.41039890416334" lon="10.598298099655144"><ele>347.0</ele><time>2026-04-18T10:44:06Z</time></trkpt><trkpt lat="44.410293068270704" lon="10.598575396759903"><ele>344.0</ele><time>2026-04-18T10:44:07Z</time></trkpt><trkpt lat="44.41020754639792" lon="10.598851500961805"><ele>341.0</ele><time>2026-04-18T10:44:08Z</time></trkpt><trkpt lat="44.41015597995696" lon="10.599118967387591"><ele>341.0</ele><time>2026-04-18T10:44:09Z</time></trkpt><trkpt lat="44.410137538403134" lon="10.599386334219083"><ele>341.0</ele><time>2026-04-18T10:44:10Z</time></trkpt><trkpt lat="44.41014040147164" lon="10.599682981407264"><ele>341.0</ele><time>2026-04-18T10:44:11Z</time></trkpt><trkpt lat="44.41018889977122" lon="10.60002549313512"><ele>337.5</ele><time>2026-04-18T10:44:12Z</time></trkpt><trkpt lat="44.410260125196" lon="10.600418433395422"><ele>334.0</ele><time>2026-04-18T10:44:13Z</time></trkpt><trkpt lat="44.41032723709727" lon="10.600773174048955"><ele>334.0</ele><time>2026-04-18T10:44:14Z</time></trkpt><trkpt lat="44.41038853633174" lon="10.60110782013237"><ele>334.0</ele><time>2026-04-18T10:44:15Z</time></trkpt><trkpt lat="44.41044170562819" lon="10.601398083102678"><ele>333.66666666666663</ele><time>2026-04-18T10:44:16Z</time></trkpt><trkpt lat="44.41048324001086" lon="10.601669029963178"><ele>333.3333333333333</ele><time>2026-04-18T10:44:17Z</time></trkpt><trkpt lat="44.410513455251625" lon="10.601933505653006"><ele>333.0</ele><time>2026-04-18T10:44:18Z</time></trkpt><trkpt lat="44.410465049079114" lon="10.602187525771612"><ele>333.0</ele><time>2026-04-18T10:44:19Z</time></trkpt><trkpt lat="44.41040749346288" lon="10.60244647585937"><ele>333.0</ele><time>2026-04-18T10:44:20Z</time></trkpt><trkpt lat="44.41031445069994" lon="10.602699754736044"><ele>333.0</ele><time>2026-04-18T10:44:21Z</time></trkpt><trkpt lat="44.410176881003125" lon="10.602914398983739"><ele>339.0</ele><time>2026-04-18T10:44:22Z</time></trkpt><trkpt lat="44.41000156004439" lon="10.603107053845138"><ele>345.0</ele><time>2026-04-18T10:44:23Z</time></trkpt><trkpt lat="44.40980460766253" lon="10.6033035896097"><ele>340.5</ele><time>2026-04-18T10:44:24Z</time></trkpt><trkpt lat="44.40958366455391" lon="10.603524928327598"><ele>336.0</ele><time>2026-04-18T10:44:25Z</time></trkpt><trkpt lat="44.409360987305604" lon="10.603744763651934"><ele>336.0</ele><time>2026-04-18T10:44:26Z</time></trkpt><trkpt lat="44.409187559923325" lon="10.603920222918314"><ele>336.0</ele><time>2026-04-18T10:44:27Z</time></trkpt><trkpt lat="44.40902435083917" lon="10.604079733069911"><ele>336.0</ele><time>2026-04-18T10:44:28Z</time></trkpt><trkpt lat="44.40888005355581" lon="10.604228967517948"><ele>332.6666666666667</ele><time>2026-04-18T10:44:29Z</time></trkpt><trkpt lat="44.40876845622545" lon="10.604383804051352"><ele>329.33333333333337</ele><time>2026-04-18T10:44:30Z</time></trkpt><trkpt lat="44.408681913696796" lon="10.604561485143243"><ele>326.0</ele><time>2026-04-18T10:44:31Z</time></trkpt><trkpt lat="44.408614974521285" lon="10.604753805269857"><ele>326.0</ele><time>2026-04-18T10:44:32Z</time></trkpt><trkpt lat="44.408579883603444" lon="10.605000986617299"><ele>326.0</ele><time>2026-04-18T10:44:33Z</time></trkpt><trkpt lat="44.40856275578663" lon="10.605293790291427"><ele>326.0</ele><time>2026-04-18T10:44:34Z</time></trkpt><trkpt lat="44.408618205429" lon="10.605610716675626"><ele>325.5</ele><time>2026-04-18T10:44:35Z</time></trkpt><trkpt lat="44.40866170029807" lon="10.60595256801861"><ele>325.0</ele><time>2026-04-18T10:44:36Z</time></trkpt><trkpt lat="44.408713928219356" lon="10.606256164802623"><ele>323.3333333333333</ele><time>2026-04-18T10:44:37Z</time></trkpt><trkpt lat="44.40875444970712" lon="10.606512355825434"><ele>321.6666666666667</ele><time>2026-04-18T10:44:38Z</time></trkpt><trkpt lat="44.408771252213995" lon="10.606743947909376"><ele>320.0</ele><time>2026-04-18T10:44:39Z</time></trkpt><trkpt lat="44.40877066854684" lon="10.606968922466699"><ele>321.33333333333337</ele><time>2026-04-18T10:44:40Z</time></trkpt><trkpt lat="44.408704673205584" lon="10.607173034946275"><ele>322.6666666666667</ele><time>2026-04-18T10:44:41Z</time></trkpt><trkpt lat="44.40861027380743" lon="10.607365257146709"><ele>324.0</ele><time>2026-04-18T10:44:42Z</time></trkpt><trkpt lat="44.408492613816456" lon="10.607521033624446"><ele>324.0</ele><time>2026-04-18T10:44:43Z</time></trkpt><trkpt lat="44.40834613881263" lon="10.60763764152688"><ele>324.0</ele><time>2026-04-18T10:44:44Z</time></trkpt><trkpt lat="44.40818506245626" lon="10.607772376487484"><ele>324.0</ele><time>2026-04-18T10:44:45Z</time></trkpt><trkpt lat="44.40802631387876" lon="10.607906648948047"><ele>321.0</ele><time>2026-04-18T10:44:46Z</time></trkpt><trkpt lat="44.407912995532314" lon="10.608100854380938"><ele>318.0</ele><time>2026-04-18T10:44:47Z</time></trkpt><trkpt lat="44.40783093063762" lon="10.608296130445163"><ele>315.0</ele><time>2026-04-18T10:44:48Z</time></trkpt><trkpt lat="44.407787731661514" lon="10.608517529333241"><ele>312.3333333333333</ele><time>2026-04-18T10:44:49Z</time></trkpt><trkpt lat="44.40777533693815" lon="10.608762322928536"><ele>309.66666666666663</ele><time>2026-04-18T10:44:50Z</time></trkpt><trkpt lat="44.40781496952183" lon="10.609014583392494"><ele>307.0</ele><time>2026-04-18T10:44:51Z</time></trkpt><trkpt lat="44.407927111073114" lon="10.609281108211762"><ele>312.3333333333333</ele><time>2026-04-18T10:44:52Z</time></trkpt><trkpt lat="44.40806305448746" lon="10.609539031895451"><ele>317.6666666666667</ele><time>2026-04-18T10:44:53Z</time></trkpt><trkpt lat="44.40816504542731" lon="10.60977391362849"><ele>323.0</ele><time>2026-04-18T10:44:54Z</time></trkpt><trkpt lat="44.40828428271021" lon="10.61002119686204"><ele>323.0</ele><time>2026-04-18T10:44:55Z</time></trkpt><trkpt lat="44.408354207205136" lon="10.61029425049737"><ele>323.0</ele><time>2026-04-18T10:44:56Z</time></trkpt><trkpt lat="44.408417847784285" lon="10.610611771925393"><ele>323.0</ele><time>2026-04-18T10:44:57Z</time></trkpt><trkpt lat="44.40845799218764" lon="10.610994002680775"><ele>314.0</ele><time>2026-04-18T10:44:58Z</time></trkpt><trkpt lat="44.40850453164763" lon="10.61145035914437"><ele>305.0</ele><time>2026-04-18T10:44:59Z</time></trkpt><trkpt lat="44.40854712820717" lon="10.611864305234604"><ele>302.5</ele><time>2026-04-18T10:45:00Z</time></trkpt><trkpt lat="44.40858448678243" lon="10.612225343526099"><ele>300.0</ele><time>2026-04-18T10:45:01Z</time></trkpt><trkpt lat="44.40861630103989" lon="10.612533238333327"><ele>298.6666666666667</ele><time>2026-04-18T10:45:02Z</time></trkpt><trkpt lat="44.4086474731594" lon="10.612843410015055"><ele>297.33333333333337</ele><time>2026-04-18T10:45:03Z</time></trkpt><trkpt lat="44.40867286031507" lon="10.61311560984323"><ele>296.0</ele><time>2026-04-18T10:45:04Z</time></trkpt><trkpt lat="44.40867772086721" lon="10.613355883574625"><ele>296.0</ele><time>2026-04-18T10:45:05Z</time></trkpt><trkpt lat="44.408648523451774" lon="10.61358812791156"><ele>296.0</ele><time>2026-04-18T10:45:06Z</time></trkpt><trkpt lat="44.408639357670395" lon="10.61385098722111"><ele>296.0</ele><time>2026-04-18T10:45:07Z</time></trkpt><trkpt lat="44.4085494452097" lon="10.614060417497836"><ele>297.33333333333337</ele><time>2026-04-18T10:45:08Z</time></trkpt><trkpt lat="44.408439593206175" lon="10.614228478786474"><ele>298.6666666666667</ele><time>2026-04-18T10:45:09Z</time></trkpt><trkpt lat="44.40830065218482" lon="10.61437186966424"><ele>300.0</ele><time>2026-04-18T10:45:10Z</time></trkpt><trkpt lat="44.4081235837208" lon="10.614448678318446"><ele>300.75</ele><time>2026-04-18T10:45:11Z</time></trkpt><trkpt lat="44.40799344547127" lon="10.614577876486468"><ele>301.5</ele><time>2026-04-18T10:45:12Z</time></trkpt><trkpt lat="44.407889557650904" lon="10.61469836852636"><ele>302.25</ele><time>2026-04-18T10:45:13Z</time></trkpt><trkpt lat="44.40778489765549" lon="10.614794074944859"><ele>303.0</ele><time>2026-04-18T10:45:14Z</time></trkpt><trkpt lat="44.40768548499201" lon="10.614891715202509"><ele>300.0</ele><time>2026-04-18T10:45:15Z</time></trkpt><trkpt lat="44.407587293229724" lon="10.6149813883941"><ele>297.0</ele><time>2026-04-18T10:45:16Z</time></trkpt><trkpt lat="44.40749664104525" lon="10.615071683518329"><ele>294.0</ele><time>2026-04-18T10:45:17Z</time></trkpt><trkpt lat="44.40740492198394" lon="10.615160534832649"><ele>291.0</ele><time>2026-04-18T10:45:18Z</time></trkpt><trkpt lat="44.40730820625726" lon="10.615252525243394"><ele>290.2</ele><time>2026-04-18T10:45:19Z</time></trkpt><trkpt lat="44.40721672682894" lon="10.61534893240625"><ele>289.40000000000003</ele><time>2026-04-18T10:45:20Z</time></trkpt><trkpt lat="44.40712046771377" lon="10.61544361646152"><ele>288.6</ele><time>2026-04-18T10:45:21Z</time></trkpt><trkpt lat="44.40702078897146" lon="10.615515057209967"><ele>287.8</ele><time>2026-04-18T10:45:22Z</time></trkpt><trkpt lat="44.40693354687388" lon="10.615533924356292"><ele>287.0</ele><time>2026-04-18T10:45:23Z</time></trkpt><trkpt lat="44.406871656715445" lon="10.615583501033719"><ele>287.0</ele><time>2026-04-18T10:45:24Z</time></trkpt><trkpt lat="44.406854707746035" lon="10.615685046398683"><ele>287.0</ele><time>2026-04-18T10:45:25Z</time></trkpt><trkpt lat="44.4068617429253" lon="10.61582873490571"><ele>287.0</ele><time>2026-04-18T10:45:26Z</time></trkpt><trkpt lat="44.40687971944472" lon="10.616080065984649"><ele>287.0</ele><time>2026-04-18T10:45:27Z</time></trkpt><trkpt lat="44.406872837477" lon="10.616445627892036"><ele>287.33333333333337</ele><time>2026-04-18T10:45:28Z</time></trkpt><trkpt lat="44.40689703849386" lon="10.616709838852387"><ele>287.6666666666667</ele><time>2026-04-18T10:45:29Z</time></trkpt><trkpt lat="44.406947234526264" lon="10.616943690438198"><ele>288.0</ele><time>2026-04-18T10:45:30Z</time></trkpt><trkpt lat="44.40697993397811" lon="10.617155674079502"><ele>287.0</ele><time>2026-04-18T10:45:31Z</time></trkpt><trkpt lat="44.40700864236777" lon="10.617280537576729"><ele>286.0</ele><time>2026-04-18T10:45:32Z</time></trkpt><trkpt lat="44.40703640839406" lon="10.617438991395115"><ele>285.0</ele><time>2026-04-18T10:45:33Z</time></trkpt><trkpt lat="44.40706678830133" lon="10.61761676794054"><ele>284.0</ele><time>2026-04-18T10:45:34Z</time></trkpt><trkpt lat="44.407108577360326" lon="10.617832076572299"><ele>282.0</ele><time>2026-04-18T10:45:35Z</time></trkpt><trkpt lat="44.40715765278637" lon="10.61812474952214"><ele>280.0</ele><time>2026-04-18T10:45:36Z</time></trkpt><trkpt lat="44.40720670816471" lon="10.618477483825426"><ele>282.0</ele><time>2026-04-18T10:45:37Z</time></trkpt><trkpt lat="44.407271066376516" lon="10.618864035330372"><ele>284.0</ele><time>2026-04-18T10:45:38Z</time></trkpt><trkpt lat="44.40734530752038" lon="10.619289306113405"><ele>282.0</ele><time>2026-04-18T10:45:39Z</time></trkpt><trkpt lat="44.40741988831545" lon="10.619710067655587"><ele>280.0</ele><time>2026-04-18T10:45:40Z</time></trkpt><trkpt lat="44.407483029186906" lon="10.620075364323004"><ele>279.0</ele><time>2026-04-18T10:45:41Z</time></trkpt><trkpt lat="44.40752861951493" lon="10.620410561205219"><ele>278.0</ele><time>2026-04-18T10:45:42Z</time></trkpt><trkpt lat="44.40759694053807" lon="10.620743303386407"><ele>278.0</ele><time>2026-04-18T10:45:43Z</time></trkpt><trkpt lat="44.40767430290863" lon="10.62107574145823"><ele>278.0</ele><time>2026-04-18T10:45:44Z</time></trkpt><trkpt lat="44.40776619938825" lon="10.621437022849783"><ele>277.0</ele><time>2026-04-18T10:45:45Z</time></trkpt><trkpt lat="44.40787375852034" lon="10.621791755607926"><ele>276.0</ele><time>2026-04-18T10:45:46Z</time></trkpt><trkpt lat="44.40799259311213" lon="10.622141457380028"><ele>276.0</ele><time>2026-04-18T10:45:47Z</time></trkpt><trkpt lat="44.408124818018955" lon="10.622481820082834"><ele>276.0</ele><time>2026-04-18T10:45:48Z</time></trkpt><trkpt lat="44.40828149502829" lon="10.622804373811935"><ele>276.5</ele><time>2026-04-18T10:45:49Z</time></trkpt><trkpt lat="44.408436364727265" lon="10.623143602877633"><ele>277.0</ele><time>2026-04-18T10:45:50Z</time></trkpt><trkpt lat="44.40860691221932" lon="10.623489318915153"><ele>276.5</ele><time>2026-04-18T10:45:51Z</time></trkpt><trkpt lat="44.40877302472116" lon="10.623843481322886"><ele>276.0</ele><time>2026-04-18T10:45:52Z</time></trkpt><trkpt lat="44.408958101092274" lon="10.624180023687138"><ele>277.0</ele><time>2026-04-18T10:45:53Z</time></trkpt><trkpt lat="44.40916090941283" lon="10.62449915352466"><ele>278.0</ele><time>2026-04-18T10:45:54Z</time></trkpt><trkpt lat="44.40935494760901" lon="10.62482016809324"><ele>278.0</ele><time>2026-04-18T10:45:55Z</time></trkpt><trkpt lat="44.40956181225085" lon="10.625127258565911"><ele>278.0</ele><time>2026-04-18T10:45:56Z</time></trkpt><trkpt lat="44.4097691696088" lon="10.625408628811146"><ele>277.0</ele><time>2026-04-18T10:45:57Z</time></trkpt><trkpt lat="44.40997841342739" lon="10.625673617466237"><ele>276.0</ele><time>2026-04-18T10:45:58Z</time></trkpt><trkpt lat="44.41019178425867" lon="10.625905287371367"><ele>276.0</ele><time>2026-04-18T10:45:59Z</time></trkpt><trkpt lat="44.41040886433416" lon="10.626119936666255"><ele>276.0</ele><time>2026-04-18T10:46:00Z</time></trkpt><trkpt lat="44.41064338155054" lon="10.62633043179054"><ele>273.5</ele><time>2026-04-18T10:46:01Z</time></trkpt><trkpt lat="44.41088632272298" lon="10.626519990822434"><ele>271.0</ele><time>2026-04-18T10:46:02Z</time></trkpt><trkpt lat="44.411139417396434" lon="10.626694249467874"><ele>269.5</ele><time>2026-04-18T10:46:03Z</time></trkpt><trkpt lat="44.41140346603501" lon="10.626855631624382"><ele>268.0</ele><time>2026-04-18T10:46:04Z</time></trkpt><trkpt lat="44.411676085832326" lon="10.626995312502698"><ele>268.0</ele><time>2026-04-18T10:46:05Z</time></trkpt><trkpt lat="44.41195991673533" lon="10.627120201509895"><ele>268.0</ele><time>2026-04-18T10:46:06Z</time></trkpt><trkpt lat="44.41224957639689" lon="10.627225332056039"><ele>270.0</ele><time>2026-04-18T10:46:07Z</time></trkpt><trkpt lat="44.412533960668476" lon="10.62730641683463"><ele>272.0</ele><time>2026-04-18T10:46:08Z</time></trkpt><trkpt lat="44.412814271115195" lon="10.627360306946601"><ele>270.5</ele><time>2026-04-18T10:46:09Z</time></trkpt><trkpt lat="44.41310709428873" lon="10.627391794805384"><ele>269.0</ele><time>2026-04-18T10:46:10Z</time></trkpt><trkpt lat="44.4134223653037" lon="10.62741651159441"><ele>269.0</ele><time>2026-04-18T10:46:11Z</time></trkpt><trkpt lat="44.41374024177147" lon="10.627429966476798"><ele>269.0</ele><time>2026-04-18T10:46:12Z</time></trkpt><trkpt lat="44.41403004888295" lon="10.627436339386472"><ele>268.5</ele><time>2026-04-18T10:46:13Z</time></trkpt><trkpt lat="44.414303642999414" lon="10.627442129601818"><ele>268.0</ele><time>2026-04-18T10:46:14Z</time></trkpt><trkpt lat="44.41455577059161" lon="10.627448512345218"><ele>267.0</ele><time>2026-04-18T10:46:15Z</time></trkpt><trkpt lat="44.41478957502907" lon="10.627459832304528"><ele>266.0</ele><time>2026-04-18T10:46:16Z</time></trkpt><trkpt lat="44.41499892691293" lon="10.627469117357975"><ele>265.0</ele><time>2026-04-18T10:46:17Z</time></trkpt><trkpt lat="44.41516867817795" lon="10.62748481948871"><ele>265.0</ele><time>2026-04-18T10:46:18Z</time></trkpt><trkpt lat="44.415316600505456" lon="10.627494815247406"><ele>265.0</ele><time>2026-04-18T10:46:19Z</time></trkpt><trkpt lat="44.41545422924471" lon="10.627504598802796"><ele>265.0</ele><time>2026-04-18T10:46:20Z</time></trkpt><trkpt lat="44.41557973654092" lon="10.627542148547949"><ele>265.0</ele><time>2026-04-18T10:46:21Z</time></trkpt><trkpt lat="44.415716936076564" lon="10.627566512009277"><ele>265.0</ele><time>2026-04-18T10:46:22Z</time></trkpt><trkpt lat="44.41585858969847" lon="10.627594247448151"><ele>265.0</ele><time>2026-04-18T10:46:23Z</time></trkpt><trkpt lat="44.41600975873198" lon="10.627626815349778"><ele>265.0</ele><time>2026-04-18T10:46:24Z</time></trkpt><trkpt lat="44.41617158391555" lon="10.627667825474377"><ele>265.0</ele><time>2026-04-18T10:46:25Z</time></trkpt><trkpt lat="44.41636029594169" lon="10.627722588323422"><ele>265.0</ele><time>2026-04-18T10:46:26Z</time></trkpt><trkpt lat="44.416551220233295" lon="10.627785799149708"><ele>265.0</ele><time>2026-04-18T10:46:26.999Z</time></trkpt><trkpt lat="44.416710500675165" lon="10.627845921219736"><ele>263.66666666666663</ele><time>2026-04-18T10:46:27.999Z</time></trkpt><trkpt lat="44.41686921525646" lon="10.627908119099356"><ele>262.3333333333333</ele><time>2026-04-18T10:46:28.999Z</time></trkpt><trkpt lat="44.417030493153355" lon="10.627975504130843"><ele>261.0</ele><time>2026-04-18T10:46:29.999Z</time></trkpt><trkpt lat="44.41721377750166" lon="10.628057521121331"><ele>261.0</ele><time>2026-04-18T10:46:30.999Z</time></trkpt><trkpt lat="44.41744249273674" lon="10.628175107476444"><ele>261.0</ele><time>2026-04-18T10:46:31.999Z</time></trkpt><trkpt lat="44.41770345400593" lon="10.628320754574998"><ele>262.0</ele><time>2026-04-18T10:46:32.999Z</time></trkpt><trkpt lat="44.4179984773297" lon="10.62849498076552"><ele>263.0</ele><time>2026-04-18T10:46:33.999Z</time></trkpt><trkpt lat="44.41833320268525" lon="10.62867662773134"><ele>262.0</ele><time>2026-04-18T10:46:34.999Z</time></trkpt><trkpt lat="44.41866121411649" lon="10.628923567646579"><ele>261.0</ele><time>2026-04-18T10:46:35.999Z</time></trkpt><trkpt lat="44.41894936926862" lon="10.629142781738906"><ele>261.0</ele><time>2026-04-18T10:46:36.999Z</time></trkpt><trkpt lat="44.41923013127878" lon="10.629381342887848"><ele>261.0</ele><time>2026-04-18T10:46:37.999Z</time></trkpt><trkpt lat="44.41951114570403" lon="10.629634568977716"><ele>261.0</ele><time>2026-04-18T10:46:38.999Z</time></trkpt><trkpt lat="44.419801896956564" lon="10.629905589726539"><ele>261.0</ele><time>2026-04-18T10:46:39.999Z</time></trkpt><trkpt lat="44.42009157831809" lon="10.630188241593352"><ele>260.5</ele><time>2026-04-18T10:46:40.999Z</time></trkpt><trkpt lat="44.42036878846625" lon="10.630480448549884"><ele>260.0</ele><time>2026-04-18T10:46:41.999Z</time></trkpt><trkpt lat="44.4206489671632" lon="10.630784029021841"><ele>260.0</ele><time>2026-04-18T10:46:42.999Z</time></trkpt><trkpt lat="44.420932027337685" lon="10.631108281022899"><ele>260.0</ele><time>2026-04-18T10:46:43.999Z</time></trkpt><trkpt lat="44.42121225713436" lon="10.631444219102853"><ele>261.0</ele><time>2026-04-18T10:46:44.999Z</time></trkpt><trkpt lat="44.42149433959652" lon="10.631790491157712"><ele>262.0</ele><time>2026-04-18T10:46:45.999Z</time></trkpt><trkpt lat="44.42177604946375" lon="10.632147661784149"><ele>261.0</ele><time>2026-04-18T10:46:46.999Z</time></trkpt><trkpt lat="44.42206010625403" lon="10.63251903682628"><ele>260.0</ele><time>2026-04-18T10:46:47.999Z</time></trkpt><trkpt lat="44.42234274791719" lon="10.632898501823643"><ele>260.0</ele><time>2026-04-18T10:46:48.999Z</time></trkpt><trkpt lat="44.42262358537043" lon="10.633279849422436"><ele>260.0</ele><time>2026-04-18T10:46:49.999Z</time></trkpt><trkpt lat="44.422910196233154" lon="10.633671048116883"><ele>259.0</ele><time>2026-04-18T10:46:50.999Z</time></trkpt><trkpt lat="44.423184690411944" lon="10.634053692399998"><ele>258.0</ele><time>2026-04-18T10:46:51.999Z</time></trkpt><trkpt lat="44.423460849110306" lon="10.634435838162055"><ele>257.0</ele><time>2026-04-18T10:46:52.999Z</time></trkpt><trkpt lat="44.42373696073055" lon="10.634817126246022"><ele>256.0</ele><time>2026-04-18T10:46:53.999Z</time></trkpt><trkpt lat="44.42401474707203" lon="10.635205484902196"><ele>256.5</ele><time>2026-04-18T10:46:54.999Z</time></trkpt><trkpt lat="44.42426083258327" lon="10.635560921326022"><ele>257.0</ele><time>2026-04-18T10:46:55.999Z</time></trkpt><trkpt lat="44.42449625304116" lon="10.635903521729794"><ele>256.5</ele><time>2026-04-18T10:46:56.999Z</time></trkpt><trkpt lat="44.42472799470219" lon="10.636247706433924"><ele>256.0</ele><time>2026-04-18T10:46:57.999Z</time></trkpt><trkpt lat="44.42498463540145" lon="10.636632243963627"><ele>254.0</ele><time>2026-04-18T10:46:58.999Z</time></trkpt><trkpt lat="44.42522099096491" lon="10.637000201383229"><ele>252.0</ele><time>2026-04-18T10:46:59.999Z</time></trkpt><trkpt lat="44.425444620694115" lon="10.637343894181576"><ele>252.5</ele><time>2026-04-18T10:47:00.999Z</time></trkpt><trkpt lat="44.425652898446565" lon="10.637674702192351"><ele>253.0</ele><time>2026-04-18T10:47:01.999Z</time></trkpt><trkpt lat="44.425859561753995" lon="10.638015029321132"><ele>253.5</ele><time>2026-04-18T10:47:02.999Z</time></trkpt><trkpt lat="44.42606917798574" lon="10.63836954486595"><ele>254.0</ele><time>2026-04-18T10:47:03.999Z</time></trkpt><trkpt lat="44.42627867365353" lon="10.638731082252725"><ele>252.5</ele><time>2026-04-18T10:47:04.999Z</time></trkpt><trkpt lat="44.426489351718665" lon="10.639093392802241"><ele>251.0</ele><time>2026-04-18T10:47:05.999Z</time></trkpt><trkpt lat="44.42669328873228" lon="10.639445507124734"><ele>252.0</ele><time>2026-04-18T10:47:06.999Z</time></trkpt><trkpt lat="44.4268942227575" lon="10.63980685510658"><ele>253.0</ele><time>2026-04-18T10:47:07.999Z</time></trkpt><trkpt lat="44.427097744674604" lon="10.640188222815809"><ele>251.0</ele><time>2026-04-18T10:47:08.999Z</time></trkpt><trkpt lat="44.427293895239984" lon="10.640569627232644"><ele>249.0</ele><time>2026-04-18T10:47:09.999Z</time></trkpt><trkpt lat="44.427493105126175" lon="10.640954756820555"><ele>249.5</ele><time>2026-04-18T10:47:10.999Z</time></trkpt><trkpt lat="44.427692429472735" lon="10.641338973020698"><ele>250.0</ele><time>2026-04-18T10:47:11.999Z</time></trkpt><trkpt lat="44.42789350230457" lon="10.641729348623377"><ele>247.5</ele><time>2026-04-18T10:47:12.999Z</time></trkpt><trkpt lat="44.428093679871985" lon="10.642116755778053"><ele>245.0</ele><time>2026-04-18T10:47:13.999Z</time></trkpt><trkpt lat="44.428292950389846" lon="10.642503836110938"><ele>244.5</ele><time>2026-04-18T10:47:14.999Z</time></trkpt><trkpt lat="44.42849591042772" lon="10.642895581284145"><ele>244.0</ele><time>2026-04-18T10:47:15.999Z</time></trkpt><trkpt lat="44.4286991152512" lon="10.643283830181115"><ele>245.5</ele><time>2026-04-18T10:47:16.999Z</time></trkpt><trkpt lat="44.42890672484722" lon="10.643683561428722"><ele>247.0</ele><time>2026-04-18T10:47:17.999Z</time></trkpt><trkpt lat="44.42911266197158" lon="10.644086508796896"><ele>246.0</ele><time>2026-04-18T10:47:18.999Z</time></trkpt><trkpt lat="44.429317761243674" lon="10.644481841133267"><ele>245.0</ele><time>2026-04-18T10:47:19.999Z</time></trkpt><trkpt lat="44.42953812206242" lon="10.64489684170172"><ele>246.5</ele><time>2026-04-18T10:47:20.999Z</time></trkpt><trkpt lat="44.42974742245306" lon="10.645298563184628"><ele>248.0</ele><time>2026-04-18T10:47:21.999Z</time></trkpt><trkpt lat="44.42995161151341" lon="10.645690919314859"><ele>248.0</ele><time>2026-04-18T10:47:22.999Z</time></trkpt><trkpt lat="44.430156210750525" lon="10.646086010669364"><ele>248.0</ele><time>2026-04-18T10:47:23.999Z</time></trkpt><trkpt lat="44.43036446608642" lon="10.646467614709318"><ele>247.5</ele><time>2026-04-18T10:47:24.999Z</time></trkpt><trkpt lat="44.43057573878836" lon="10.646837833604236"><ele>247.0</ele><time>2026-04-18T10:47:25.999Z</time></trkpt><trkpt lat="44.43078532809681" lon="10.647182842930322"><ele>247.0</ele><time>2026-04-18T10:47:26.999Z</time></trkpt><trkpt lat="44.43100645894068" lon="10.647534290463495"><ele>247.0</ele><time>2026-04-18T10:47:27.999Z</time></trkpt><trkpt lat="44.43121377513389" lon="10.647828971440218"><ele>246.0</ele><time>2026-04-18T10:47:28.999Z</time></trkpt><trkpt lat="44.431404445137595" lon="10.648078312663559"><ele>245.0</ele><time>2026-04-18T10:47:29.999Z</time></trkpt><trkpt lat="44.43157799717064" lon="10.64829866842121"><ele>245.0</ele><time>2026-04-18T10:47:30.999Z</time></trkpt><trkpt lat="44.43176476904278" lon="10.648508365085952"><ele>245.0</ele><time>2026-04-18T10:47:31.999Z</time></trkpt><trkpt lat="44.43196750236873" lon="10.648719529538381"><ele>243.5</ele><time>2026-04-18T10:47:32.999Z</time></trkpt><trkpt lat="44.43216453193838" lon="10.648909773458296"><ele>242.0</ele><time>2026-04-18T10:47:33.999Z</time></trkpt><trkpt lat="44.43238390206171" lon="10.649092821957561"><ele>242.0</ele><time>2026-04-18T10:47:34.999Z</time></trkpt><trkpt lat="44.43257101316997" lon="10.649245446146924"><ele>242.0</ele><time>2026-04-18T10:47:35.999Z</time></trkpt><trkpt lat="44.4327497624206" lon="10.649374904746363"><ele>242.0</ele><time>2026-04-18T10:47:36.999Z</time></trkpt><trkpt lat="44.43291353699169" lon="10.649515064981948"><ele>242.66666666666669</ele><time>2026-04-18T10:47:37.999Z</time></trkpt><trkpt lat="44.43306717352816" lon="10.649618975427524"><ele>243.33333333333331</ele><time>2026-04-18T10:47:38.999Z</time></trkpt><trkpt lat="44.43319862903362" lon="10.64970573448486"><ele>244.0</ele><time>2026-04-18T10:47:39.999Z</time></trkpt><trkpt lat="44.43334435284655" lon="10.649778347557406"><ele>244.0</ele><time>2026-04-18T10:47:40.999Z</time></trkpt><trkpt lat="44.433489003104505" lon="10.64986450119312"><ele>244.0</ele><time>2026-04-18T10:47:41.999Z</time></trkpt><trkpt lat="44.43363975636933" lon="10.649954950937186"><ele>244.0</ele><time>2026-04-18T10:47:42.999Z</time></trkpt><trkpt lat="44.43379310367411" lon="10.6500454999744"><ele>252.0</ele><time>2026-04-18T10:47:43.999Z</time></trkpt><trkpt lat="44.43395453000053" lon="10.650138970880377"><ele>260.0</ele><time>2026-04-18T10:47:44.999Z</time></trkpt><trkpt lat="44.43412576542408" lon="10.650241888683022"><ele>268.0</ele><time>2026-04-18T10:47:45.999Z</time></trkpt><trkpt lat="44.434294480089164" lon="10.650345860736344"><ele>268.0</ele><time>2026-04-18T10:47:46.999Z</time></trkpt><trkpt lat="44.43446138849367" lon="10.65044892564765"><ele>268.0</ele><time>2026-04-18T10:47:47.999Z</time></trkpt><trkpt lat="44.434626805639866" lon="10.650557238867702"><ele>268.0</ele><time>2026-04-18T10:47:48.999Z</time></trkpt><trkpt lat="44.43479393328156" lon="10.650661569579528"><ele>279.0</ele><time>2026-04-18T10:47:49.999Z</time></trkpt><trkpt lat="44.43495949839869" lon="10.650767610511794"><ele>290.0</ele><time>2026-04-18T10:47:50.999Z</time></trkpt><trkpt lat="44.43513079527845" lon="10.650880558004266"><ele>301.0</ele><time>2026-04-18T10:47:52.052Z</time></trkpt><trkpt lat="44.43529106317807" lon="10.650990472508237"><ele>301.0</ele><time>2026-04-18T10:47:53.055Z</time></trkpt><trkpt lat="44.43545019337958" lon="10.651099738913938"><ele>301.0</ele><time>2026-04-18T10:47:54.055Z</time></trkpt><trkpt lat="44.43674171864977" lon="10.651657454159313"><ele>271.0</ele><time>2026-04-18T10:47:57.056Z</time></trkpt><trkpt lat="44.43716029082191" lon="10.651886825096668"><ele>241.0</ele><time>2026-04-18T10:47:58.055Z</time></trkpt><trkpt lat="44.4376455921028" lon="10.652137954074519"><ele>240.0</ele><time>2026-04-18T10:48:05.999Z</time></trkpt><trkpt lat="44.43784348309404" lon="10.652231551009937"><ele>239.0</ele><time>2026-04-18T10:48:06.999Z</time></trkpt><trkpt lat="44.436879579178196" lon="10.652942765156153"><ele>236.5</ele><time>2026-04-18T10:48:07.999Z</time></trkpt><trkpt lat="44.437188064618674" lon="10.653032439332529"><ele>234.0</ele><time>2026-04-18T10:48:08.999Z</time></trkpt><trkpt lat="44.437421981633236" lon="10.653132752533766"><ele>234.0</ele><time>2026-04-18T10:48:09.999Z</time></trkpt><trkpt lat="44.43778788822863" lon="10.653133594717852"><ele>234.0</ele><time>2026-04-18T10:48:10.999Z</time></trkpt><trkpt lat="44.43802903311179" lon="10.653194733312684"><ele>230.0</ele><time>2026-04-18T10:48:11.999Z</time></trkpt><trkpt lat="44.439179959503015" lon="10.65279945814691"><ele>230.0</ele><time>2026-04-18T10:48:12.999Z</time></trkpt><trkpt lat="44.43935212082149" lon="10.65284052474173"><ele>230.0</ele><time>2026-04-18T10:48:13.999Z</time></trkpt><trkpt lat="44.43951600408138" lon="10.652875015742929"><ele>230.0</ele><time>2026-04-18T10:48:14.999Z</time></trkpt><trkpt lat="44.43968558238316" lon="10.652897082694166"><ele>229.66666666666669</ele><time>2026-04-18T10:48:15.999Z</time></trkpt><trkpt lat="44.43985489213921" lon="10.652902412123614"><ele>229.33333333333331</ele><time>2026-04-18T10:48:16.999Z</time></trkpt><trkpt lat="44.44001338565999" lon="10.65292750515167"><ele>229.0</ele><time>2026-04-18T10:48:17.999Z</time></trkpt><trkpt lat="44.440178448489156" lon="10.652931307072341"><ele>229.0</ele><time>2026-04-18T10:48:18.999Z</time></trkpt><trkpt lat="44.44034919453312" lon="10.652921125253524"><ele>229.0</ele><time>2026-04-18T10:48:19.999Z</time></trkpt><trkpt lat="44.44053156835174" lon="10.652895944975302"><ele>229.0</ele><time>2026-04-18T10:48:20.999Z</time></trkpt><trkpt lat="44.44073808453364" lon="10.652865254664322"><ele>228.66666666666666</ele><time>2026-04-18T10:48:21.999Z</time></trkpt><trkpt lat="44.440950173370105" lon="10.652858158839468"><ele>228.33333333333331</ele><time>2026-04-18T10:48:22.999Z</time></trkpt><trkpt lat="44.44115371820858" lon="10.652796637949436"><ele>228.0</ele><time>2026-04-18T10:48:23.999Z</time></trkpt><trkpt lat="44.44135253231746" lon="10.652750617604545"><ele>228.0</ele><time>2026-04-18T10:48:24.999Z</time></trkpt><trkpt lat="44.44154216029351" lon="10.65269719018248"><ele>228.0</ele><time>2026-04-18T10:48:25.999Z</time></trkpt><trkpt lat="44.441724806395825" lon="10.652648850483162"><ele>228.0</ele><time>2026-04-18T10:48:26.999Z</time></trkpt><trkpt lat="44.441904623147025" lon="10.652593318372398"><ele>228.0</ele><time>2026-04-18T10:48:28Z</time></trkpt><trkpt lat="44.4420858003062" lon="10.652532467780334"><ele>228.0</ele><time>2026-04-18T10:48:29Z</time></trkpt><trkpt lat="44.44226439831342" lon="10.65246876310003"><ele>228.0</ele><time>2026-04-18T10:48:30Z</time></trkpt><trkpt lat="44.44244361573601" lon="10.65239926466035"><ele>227.33333333333331</ele><time>2026-04-18T10:48:31Z</time></trkpt><trkpt lat="44.44261659880906" lon="10.652325933659926"><ele>226.66666666666666</ele><time>2026-04-18T10:48:32Z</time></trkpt><trkpt lat="44.44278143438597" lon="10.65225560678418"><ele>226.0</ele><time>2026-04-18T10:48:33Z</time></trkpt><trkpt lat="44.44294471420692" lon="10.65217607356031"><ele>226.33333333333331</ele><time>2026-04-18T10:48:34Z</time></trkpt><trkpt lat="44.44310115218555" lon="10.652102778385855"><ele>226.66666666666669</ele><time>2026-04-18T10:48:35Z</time></trkpt><trkpt lat="44.44326667091261" lon="10.65202083154536"><ele>227.0</ele><time>2026-04-18T10:48:36Z</time></trkpt><trkpt lat="44.44343383061156" lon="10.651935510463195"><ele>228.33333333333334</ele><time>2026-04-18T10:48:37Z</time></trkpt><trkpt lat="44.44359446997506" lon="10.651858573267406"><ele>229.66666666666669</ele><time>2026-04-18T10:48:38Z</time></trkpt><trkpt lat="44.44375790368625" lon="10.651778072839676"><ele>231.0</ele><time>2026-04-18T10:48:39Z</time></trkpt><trkpt lat="44.443919344538955" lon="10.651698770362835"><ele>231.0</ele><time>2026-04-18T10:48:40Z</time></trkpt><trkpt lat="44.44407863438717" lon="10.651615042668837"><ele>231.0</ele><time>2026-04-18T10:48:41Z</time></trkpt><trkpt lat="44.444232412287654" lon="10.651531752048818"><ele>231.0</ele><time>2026-04-18T10:48:42Z</time></trkpt><trkpt lat="44.44439781783526" lon="10.651439061168755"><ele>231.0</ele><time>2026-04-18T10:48:43Z</time></trkpt><trkpt lat="44.44460404823386" lon="10.651340509958704"><ele>231.0</ele><time>2026-04-18T10:48:44Z</time></trkpt><trkpt lat="44.4448558472498" lon="10.651202579519357"><ele>234.0</ele><time>2026-04-18T10:48:45Z</time></trkpt><trkpt lat="44.445131116004724" lon="10.651044209652136"><ele>237.0</ele><time>2026-04-18T10:48:46Z</time></trkpt><trkpt lat="44.445377432004044" lon="10.650902769082519"><ele>236.0</ele><time>2026-04-18T10:48:47Z</time></trkpt><trkpt lat="44.44558771703533" lon="10.650788646227523"><ele>235.0</ele><time>2026-04-18T10:48:48Z</time></trkpt><trkpt lat="44.44579305405652" lon="10.65068429733589"><ele>234.0</ele><time>2026-04-18T10:48:49Z</time></trkpt><trkpt lat="44.44598185404964" lon="10.65057820389015"><ele>234.0</ele><time>2026-04-18T10:48:50Z</time></trkpt><trkpt lat="44.44617199055501" lon="10.65051017775498"><ele>234.0</ele><time>2026-04-18T10:48:51Z</time></trkpt><trkpt lat="44.44634967101923" lon="10.650448513549042"><ele>234.0</ele><time>2026-04-18T10:48:52Z</time></trkpt><trkpt lat="44.446522701334246" lon="10.650383559212276"><ele>234.33333333333331</ele><time>2026-04-18T10:48:53Z</time></trkpt><trkpt lat="44.446700193138156" lon="10.650321342783947"><ele>234.66666666666666</ele><time>2026-04-18T10:48:54Z</time></trkpt><trkpt lat="44.44691865580791" lon="10.650263828254229"><ele>235.0</ele><time>2026-04-18T10:48:55Z</time></trkpt><trkpt lat="44.447155961675854" lon="10.650183630724019"><ele>237.0</ele><time>2026-04-18T10:48:56Z</time></trkpt><trkpt lat="44.447370563970374" lon="10.650112442039937"><ele>239.0</ele><time>2026-04-18T10:48:57Z</time></trkpt><trkpt lat="44.4475681609566" lon="10.650048353089822"><ele>241.0</ele><time>2026-04-18T10:48:58Z</time></trkpt><trkpt lat="44.44773666359854" lon="10.649993700637438"><ele>241.0</ele><time>2026-04-18T10:48:59Z</time></trkpt><trkpt lat="44.447886288285424" lon="10.64994566089204"><ele>241.0</ele><time>2026-04-18T10:49:00Z</time></trkpt><trkpt lat="44.448016131912674" lon="10.649884062683586"><ele>241.0</ele><time>2026-04-18T10:49:01Z</time></trkpt><trkpt lat="44.448146313135325" lon="10.649850074611033"><ele>241.0</ele><time>2026-04-18T10:49:02Z</time></trkpt><trkpt lat="44.44828098596604" lon="10.649816772311675"><ele>240.0</ele><time>2026-04-18T10:49:03Z</time></trkpt><trkpt lat="44.448420116751684" lon="10.64978111442937"><ele>239.0</ele><time>2026-04-18T10:49:04Z</time></trkpt><trkpt lat="44.44854972353952" lon="10.64975503422843"><ele>238.0</ele><time>2026-04-18T10:49:05Z</time></trkpt><trkpt lat="44.448668462323745" lon="10.649747159952382"><ele>237.0</ele><time>2026-04-18T10:49:06Z</time></trkpt><trkpt lat="44.44878688755057" lon="10.649771571811437"><ele>237.25</ele><time>2026-04-18T10:49:07Z</time></trkpt><trkpt lat="44.44891311152662" lon="10.649840244450708"><ele>237.5</ele><time>2026-04-18T10:49:08Z</time></trkpt><trkpt lat="44.44900182792274" lon="10.649985196432635"><ele>237.75</ele><time>2026-04-18T10:49:09Z</time></trkpt><trkpt lat="44.44909510316829" lon="10.650137825091276"><ele>238.0</ele><time>2026-04-18T10:49:10Z</time></trkpt><trkpt lat="44.449192396987016" lon="10.650303665637503"><ele>236.5</ele><time>2026-04-18T10:49:11Z</time></trkpt><trkpt lat="44.44928693334107" lon="10.650470607311478"><ele>235.0</ele><time>2026-04-18T10:49:12Z</time></trkpt><trkpt lat="44.44939434383789" lon="10.650614915145281"><ele>233.5</ele><time>2026-04-18T10:49:13Z</time></trkpt><trkpt lat="44.44948443549738" lon="10.650760215513037"><ele>232.0</ele><time>2026-04-18T10:49:14Z</time></trkpt><trkpt lat="44.44957635071924" lon="10.650906953722064"><ele>231.0</ele><time>2026-04-18T10:49:15Z</time></trkpt><trkpt lat="44.449684194529745" lon="10.651042942839558"><ele>230.0</ele><time>2026-04-18T10:49:16Z</time></trkpt><trkpt lat="44.449804483479234" lon="10.651151870897248"><ele>229.0</ele><time>2026-04-18T10:49:17Z</time></trkpt><trkpt lat="44.44993108033738" lon="10.65123874170228"><ele>228.0</ele><time>2026-04-18T10:49:18Z</time></trkpt><trkpt lat="44.450057229151334" lon="10.651304527107294"><ele>228.0</ele><time>2026-04-18T10:49:19Z</time></trkpt><trkpt lat="44.450178210413085" lon="10.651379913711262"><ele>228.0</ele><time>2026-04-18T10:49:20Z</time></trkpt><trkpt lat="44.45029737287717" lon="10.651426301936329"><ele>228.0</ele><time>2026-04-18T10:49:21Z</time></trkpt><trkpt lat="44.45040876330064" lon="10.6514703281523"><ele>228.0</ele><time>2026-04-18T10:49:22Z</time></trkpt><trkpt lat="44.45052284698018" lon="10.651516887483194"><ele>229.75</ele><time>2026-04-18T10:49:23Z</time></trkpt><trkpt lat="44.45064001392916" lon="10.651564705243368"><ele>231.5</ele><time>2026-04-18T10:49:24Z</time></trkpt><trkpt lat="44.45076130434108" lon="10.651614205848617"><ele>233.25</ele><time>2026-04-18T10:49:25Z</time></trkpt><trkpt lat="44.450882653057405" lon="10.65166398944551"><ele>235.0</ele><time>2026-04-18T10:49:26Z</time></trkpt><trkpt lat="44.45099981593805" lon="10.651710197609741"><ele>235.0</ele><time>2026-04-18T10:49:27Z</time></trkpt><trkpt lat="44.45111091587143" lon="10.651753912902418"><ele>235.0</ele><time>2026-04-18T10:49:28Z</time></trkpt><trkpt lat="44.451218369607844" lon="10.65179626141433"><ele>235.0</ele><time>2026-04-18T10:49:29Z</time></trkpt><trkpt lat="44.45132626284355" lon="10.651837116925696"><ele>235.0</ele><time>2026-04-18T10:49:30Z</time></trkpt><trkpt lat="44.4514333258874" lon="10.651877658056607"><ele>235.25</ele><time>2026-04-18T10:49:31Z</time></trkpt><trkpt lat="44.45154629829163" lon="10.651919086054333"><ele>235.5</ele><time>2026-04-18T10:49:32Z</time></trkpt><trkpt lat="44.45166012644103" lon="10.651959132867578"><ele>235.75</ele><time>2026-04-18T10:49:33Z</time></trkpt><trkpt lat="44.451782525782434" lon="10.652002195088926"><ele>236.0</ele><time>2026-04-18T10:49:34Z</time></trkpt><trkpt lat="44.4519203541985" lon="10.652050685678766"><ele>233.33333333333334</ele><time>2026-04-18T10:49:35Z</time></trkpt><trkpt lat="44.45208730960781" lon="10.652109423606136"><ele>230.66666666666669</ele><time>2026-04-18T10:49:36Z</time></trkpt><trkpt lat="44.45223545410281" lon="10.652162295701794"><ele>228.0</ele><time>2026-04-18T10:49:37Z</time></trkpt><trkpt lat="44.45236174837612" lon="10.652207421428388"><ele>228.0</ele><time>2026-04-18T10:49:38Z</time></trkpt><trkpt lat="44.452485931272825" lon="10.65225179274813"><ele>228.0</ele><time>2026-04-18T10:49:39Z</time></trkpt><trkpt lat="44.45261916827033" lon="10.65229939919664"><ele>228.0</ele><time>2026-04-18T10:49:40Z</time></trkpt><trkpt lat="44.45274816343985" lon="10.65232470438802"><ele>228.0</ele><time>2026-04-18T10:49:41Z</time></trkpt><trkpt lat="44.45287219840731" lon="10.652368287890058"><ele>228.5</ele><time>2026-04-18T10:49:42Z</time></trkpt><trkpt lat="44.45299483534642" lon="10.652399413082973"><ele>229.0</ele><time>2026-04-18T10:49:43Z</time></trkpt><trkpt lat="44.45310663807847" lon="10.652446573413792"><ele>229.5</ele><time>2026-04-18T10:49:44Z</time></trkpt><trkpt lat="44.45324362844122" lon="10.652471126278568"><ele>230.0</ele><time>2026-04-18T10:49:45Z</time></trkpt><trkpt lat="44.45343745468142" lon="10.652488614300477"><ele>230.0</ele><time>2026-04-18T10:49:46Z</time></trkpt><trkpt lat="44.45370434040997" lon="10.652500186914246"><ele>230.0</ele><time>2026-04-18T10:49:47Z</time></trkpt><trkpt lat="44.454024187639526" lon="10.652506514283637"><ele>232.0</ele><time>2026-04-18T10:49:48Z</time></trkpt><trkpt lat="44.45435066344351" lon="10.652495112003812"><ele>234.0</ele><time>2026-04-18T10:49:49Z</time></trkpt><trkpt lat="44.45462370558149" lon="10.652515668443364"><ele>235.0</ele><time>2026-04-18T10:49:50Z</time></trkpt><trkpt lat="44.45485549474279" lon="10.652522479818064"><ele>236.0</ele><time>2026-04-18T10:49:51Z</time></trkpt><trkpt lat="44.45507681761511" lon="10.652520563651931"><ele>236.0</ele><time>2026-04-18T10:49:52Z</time></trkpt><trkpt lat="44.45527592437224" lon="10.652532315048932"><ele>236.0</ele><time>2026-04-18T10:49:53Z</time></trkpt><trkpt lat="44.45545445296044" lon="10.6525764363379"><ele>236.0</ele><time>2026-04-18T10:49:54Z</time></trkpt><trkpt lat="44.4556330982586" lon="10.65268766183869"><ele>227.5</ele><time>2026-04-18T10:49:55Z</time></trkpt><trkpt lat="44.45582338985469" lon="10.652847771386881"><ele>219.0</ele><time>2026-04-18T10:49:56Z</time></trkpt><trkpt lat="44.45605317915637" lon="10.653051479947601"><ele>219.0</ele><time>2026-04-18T10:49:57Z</time></trkpt><trkpt lat="44.45629055008711" lon="10.653262961267881"><ele>219.0</ele><time>2026-04-18T10:49:58Z</time></trkpt><trkpt lat="44.45649902079033" lon="10.65342531262397"><ele>219.0</ele><time>2026-04-18T10:49:59Z</time></trkpt><trkpt lat="44.45667620022161" lon="10.653580289054732"><ele>219.0</ele><time>2026-04-18T10:50:00Z</time></trkpt><trkpt lat="44.456870732257784" lon="10.653717436280681"><ele>219.0</ele><time>2026-04-18T10:50:01Z</time></trkpt><trkpt lat="44.457110252750475" lon="10.653839823286084"><ele>218.0</ele><time>2026-04-18T10:50:02Z</time></trkpt><trkpt lat="44.45738257066491" lon="10.653927727041188"><ele>217.0</ele><time>2026-04-18T10:50:03Z</time></trkpt><trkpt lat="44.45766659896633" lon="10.653978517576046"><ele>217.0</ele><time>2026-04-18T10:50:04Z</time></trkpt><trkpt lat="44.457937362438464" lon="10.654003062590181"><ele>217.0</ele><time>2026-04-18T10:50:05Z</time></trkpt><trkpt lat="44.45820717409096" lon="10.654023362729903"><ele>216.5</ele><time>2026-04-18T10:50:06Z</time></trkpt><trkpt lat="44.458450027089306" lon="10.65405688947997"><ele>216.0</ele><time>2026-04-18T10:50:07Z</time></trkpt><trkpt lat="44.45868111881185" lon="10.654089327987812"><ele>216.0</ele><time>2026-04-18T10:50:08Z</time></trkpt><trkpt lat="44.45890166086692" lon="10.654117328219566"><ele>216.0</ele><time>2026-04-18T10:50:09Z</time></trkpt><trkpt lat="44.4591061794264" lon="10.654141234658345"><ele>216.0</ele><time>2026-04-18T10:50:10Z</time></trkpt><trkpt lat="44.45929586879264" lon="10.654165617140235"><ele>216.0</ele><time>2026-04-18T10:50:11Z</time></trkpt><trkpt lat="44.45946070709007" lon="10.654185763813297"><ele>216.0</ele><time>2026-04-18T10:50:12Z</time></trkpt><trkpt lat="44.45960083578762" lon="10.654204520632378"><ele>216.0</ele><time>2026-04-18T10:50:13Z</time></trkpt><trkpt lat="44.45971768308733" lon="10.65423758488918"><ele>216.0</ele><time>2026-04-18T10:50:14Z</time></trkpt><trkpt lat="44.45981300695519" lon="10.654308279236805"><ele>215.5</ele><time>2026-04-18T10:50:15Z</time></trkpt><trkpt lat="44.45987985259178" lon="10.65439586548791"><ele>215.0</ele><time>2026-04-18T10:50:16Z</time></trkpt><trkpt lat="44.4599689737739" lon="10.6544616011602"><ele>214.5</ele><time>2026-04-18T10:50:17Z</time></trkpt><trkpt lat="44.46009450082452" lon="10.654467114151311"><ele>214.0</ele><time>2026-04-18T10:50:18Z</time></trkpt><trkpt lat="44.460254293395295" lon="10.654450232092207"><ele>213.66666666666666</ele><time>2026-04-18T10:50:19Z</time></trkpt><trkpt lat="44.46041294569884" lon="10.654504452896424"><ele>213.33333333333331</ele><time>2026-04-18T10:50:20Z</time></trkpt><trkpt lat="44.46054456239229" lon="10.654648557539272"><ele>213.0</ele><time>2026-04-18T10:50:21Z</time></trkpt><trkpt lat="44.4606947410288" lon="10.654777379371515"><ele>213.0</ele><time>2026-04-18T10:50:22Z</time></trkpt><trkpt lat="44.46082254888735" lon="10.654893989408345"><ele>213.0</ele><time>2026-04-18T10:50:23Z</time></trkpt><trkpt lat="44.460957189783414" lon="10.655003405485179"><ele>213.0</ele><time>2026-04-18T10:50:24Z</time></trkpt><trkpt lat="44.461087270060965" lon="10.655129625086902"><ele>213.0</ele><time>2026-04-18T10:50:25Z</time></trkpt><trkpt lat="44.461220448424726" lon="10.65525999049375"><ele>213.0</ele><time>2026-04-18T10:50:26Z</time></trkpt><trkpt lat="44.461348613013186" lon="10.655411913937352"><ele>213.0</ele><time>2026-04-18T10:50:27Z</time></trkpt><trkpt lat="44.46148621183615" lon="10.655547153672456"><ele>212.33333333333331</ele><time>2026-04-18T10:50:28Z</time></trkpt><trkpt lat="44.461645051250244" lon="10.655674573800964"><ele>211.66666666666666</ele><time>2026-04-18T10:50:29Z</time></trkpt><trkpt lat="44.46179380985527" lon="10.6558494755149"><ele>211.0</ele><time>2026-04-18T10:50:30Z</time></trkpt><trkpt lat="44.46196068914512" lon="10.656015478099782"><ele>211.66666666666666</ele><time>2026-04-18T10:50:31Z</time></trkpt><trkpt lat="44.46214039534957" lon="10.656162571404627"><ele>212.33333333333331</ele><time>2026-04-18T10:50:32Z</time></trkpt><trkpt lat="44.462298576919714" lon="10.65634529049984"><ele>213.0</ele><time>2026-04-18T10:50:33Z</time></trkpt><trkpt lat="44.46246013102113" lon="10.656504271885773"><ele>213.0</ele><time>2026-04-18T10:50:34Z</time></trkpt><trkpt lat="44.462604902404344" lon="10.656620974547666"><ele>213.0</ele><time>2026-04-18T10:50:35Z</time></trkpt><trkpt lat="44.46273192463216" lon="10.656750752977104"><ele>213.0</ele><time>2026-04-18T10:50:36Z</time></trkpt><trkpt lat="44.46283868297317" lon="10.656859206425077"><ele>212.5</ele><time>2026-04-18T10:50:37Z</time></trkpt><trkpt lat="44.462936410571025" lon="10.656956681262876"><ele>212.0</ele><time>2026-04-18T10:50:38Z</time></trkpt><trkpt lat="44.463024786791465" lon="10.657045744192903"><ele>211.5</ele><time>2026-04-18T10:50:39Z</time></trkpt><trkpt lat="44.463114427357375" lon="10.657130335462037"><ele>211.0</ele><time>2026-04-18T10:50:40Z</time></trkpt><trkpt lat="44.46320933909218" lon="10.65722144484474"><ele>210.75</ele><time>2026-04-18T10:50:41Z</time></trkpt><trkpt lat="44.46331856653857" lon="10.657322936481412"><ele>210.5</ele><time>2026-04-18T10:50:42Z</time></trkpt><trkpt lat="44.46342041428515" lon="10.657450344109986"><ele>210.25</ele><time>2026-04-18T10:50:43Z</time></trkpt><trkpt lat="44.4635344263182" lon="10.657562707939524"><ele>210.0</ele><time>2026-04-18T10:50:44Z</time></trkpt><trkpt lat="44.463652168800046" lon="10.657678748279265"><ele>210.0</ele><time>2026-04-18T10:50:45Z</time></trkpt><trkpt lat="44.46378707908264" lon="10.657811849204284"><ele>210.0</ele><time>2026-04-18T10:50:46Z</time></trkpt><trkpt lat="44.46395028111208" lon="10.657972550062034"><ele>210.0</ele><time>2026-04-18T10:50:47Z</time></trkpt><trkpt lat="44.46415401644611" lon="10.658173274807558"><ele>210.0</ele><time>2026-04-18T10:50:48Z</time></trkpt><trkpt lat="44.46438113522635" lon="10.65839703996095"><ele>210.0</ele><time>2026-04-18T10:50:49Z</time></trkpt><trkpt lat="44.464590836180946" lon="10.658578604616567"><ele>210.0</ele><time>2026-04-18T10:50:50Z</time></trkpt><trkpt lat="44.46477570141199" lon="10.658782694899514"><ele>210.0</ele><time>2026-04-18T10:50:51Z</time></trkpt><trkpt lat="44.46496077176288" lon="10.658965148348658"><ele>210.0</ele><time>2026-04-18T10:50:52Z</time></trkpt><trkpt lat="44.4651450760969" lon="10.659147020291625"><ele>210.0</ele><time>2026-04-18T10:50:53Z</time></trkpt><trkpt lat="44.46531720282666" lon="10.6593224563432"><ele>210.0</ele><time>2026-04-18T10:50:54Z</time></trkpt><trkpt lat="44.465506474096195" lon="10.65952772029354"><ele>208.5</ele><time>2026-04-18T10:50:55Z</time></trkpt><trkpt lat="44.46568968667967" lon="10.659722349168636"><ele>207.0</ele><time>2026-04-18T10:50:56Z</time></trkpt><trkpt lat="44.46585178137061" lon="10.65993574634898"><ele>207.0</ele><time>2026-04-18T10:50:57Z</time></trkpt><trkpt lat="44.466019558530675" lon="10.660147890032821"><ele>207.0</ele><time>2026-04-18T10:50:58Z</time></trkpt><trkpt lat="44.46618628804368" lon="10.660361378248597"><ele>207.33333333333331</ele><time>2026-04-18T10:50:59Z</time></trkpt><trkpt lat="44.46635381680296" lon="10.660566740164056"><ele>207.66666666666666</ele><time>2026-04-18T10:51:00Z</time></trkpt><trkpt lat="44.466522804702066" lon="10.660775155761455"><ele>208.0</ele><time>2026-04-18T10:51:01Z</time></trkpt><trkpt lat="44.46667384190377" lon="10.660964532068032"><ele>207.33333333333331</ele><time>2026-04-18T10:51:02Z</time></trkpt><trkpt lat="44.466807278834565" lon="10.66113512924529"><ele>206.66666666666669</ele><time>2026-04-18T10:51:03Z</time></trkpt><trkpt lat="44.46692454140547" lon="10.66129183928336"><ele>206.0</ele><time>2026-04-18T10:51:04Z</time></trkpt><trkpt lat="44.46704383736563" lon="10.661462243578349"><ele>206.33333333333334</ele><time>2026-04-18T10:51:05Z</time></trkpt><trkpt lat="44.46718459249766" lon="10.661670497571233"><ele>206.66666666666669</ele><time>2026-04-18T10:51:06Z</time></trkpt><trkpt lat="44.46736751539082" lon="10.661838226057336"><ele>207.0</ele><time>2026-04-18T10:51:07Z</time></trkpt><trkpt lat="44.46754357096599" lon="10.662072621227269"><ele>207.0</ele><time>2026-04-18T10:51:08Z</time></trkpt><trkpt lat="44.467675424735035" lon="10.662236559020544"><ele>207.0</ele><time>2026-04-18T10:51:09Z</time></trkpt><trkpt lat="44.46788280710007" lon="10.662504908748334"><ele>207.0</ele><time>2026-04-18T10:51:10Z</time></trkpt><trkpt lat="44.46809009836732" lon="10.662772866259969"><ele>207.0</ele><time>2026-04-18T10:51:11Z</time></trkpt><trkpt lat="44.46825027737574" lon="10.663019419326096"><ele>207.0</ele><time>2026-04-18T10:51:12Z</time></trkpt><trkpt lat="44.468412682401905" lon="10.663262703216914"><ele>207.0</ele><time>2026-04-18T10:51:13Z</time></trkpt><trkpt lat="44.46857290458276" lon="10.663552569827736"><ele>206.5</ele><time>2026-04-18T10:51:14Z</time></trkpt><trkpt lat="44.468726386623246" lon="10.663873271900844"><ele>206.0</ele><time>2026-04-18T10:51:15Z</time></trkpt><trkpt lat="44.4688797734769" lon="10.664200710955281"><ele>206.0</ele><time>2026-04-18T10:51:16Z</time></trkpt><trkpt lat="44.469029699495586" lon="10.664516107059688"><ele>206.0</ele><time>2026-04-18T10:51:17Z</time></trkpt><trkpt lat="44.469189548679665" lon="10.664817827400494"><ele>206.0</ele><time>2026-04-18T10:51:18Z</time></trkpt><trkpt lat="44.46933695305288" lon="10.665134549551338"><ele>206.0</ele><time>2026-04-18T10:51:19Z</time></trkpt><trkpt lat="44.46948147920586" lon="10.665453206475098"><ele>207.0</ele><time>2026-04-18T10:51:20Z</time></trkpt><trkpt lat="44.46963087447751" lon="10.665776088210787"><ele>208.0</ele><time>2026-04-18T10:51:21Z</time></trkpt><trkpt lat="44.4697878703714" lon="10.666096901021158"><ele>206.5</ele><time>2026-04-18T10:51:22Z</time></trkpt><trkpt lat="44.46993966396385" lon="10.666424325890468"><ele>205.0</ele><time>2026-04-18T10:51:23Z</time></trkpt><trkpt lat="44.47009425376492" lon="10.666747931240701"><ele>203.5</ele><time>2026-04-18T10:51:24Z</time></trkpt><trkpt lat="44.47024558387746" lon="10.667057927719686"><ele>202.0</ele><time>2026-04-18T10:51:25Z</time></trkpt><trkpt lat="44.47037728929536" lon="10.667378878639806"><ele>201.5</ele><time>2026-04-18T10:51:26Z</time></trkpt><trkpt lat="44.470517541449254" lon="10.667675779847299"><ele>201.0</ele><time>2026-04-18T10:51:27Z</time></trkpt><trkpt lat="44.470657243829926" lon="10.667967001099777"><ele>201.0</ele><time>2026-04-18T10:51:28Z</time></trkpt><trkpt lat="44.470804538276994" lon="10.668274050050242"><ele>201.0</ele><time>2026-04-18T10:51:29Z</time></trkpt><trkpt lat="44.470959959479735" lon="10.668589310358197"><ele>201.0</ele><time>2026-04-18T10:51:30Z</time></trkpt><trkpt lat="44.471198914400155" lon="10.668828559586917"><ele>201.0</ele><time>2026-04-18T10:51:31Z</time></trkpt><trkpt lat="44.47140191319634" lon="10.669095682310518"><ele>201.0</ele><time>2026-04-18T10:51:32Z</time></trkpt><trkpt lat="44.47160507188561" lon="10.669366760140013"><ele>201.0</ele><time>2026-04-18T10:51:33Z</time></trkpt><trkpt lat="44.47180981532864" lon="10.669647394504507"><ele>200.5</ele><time>2026-04-18T10:51:34Z</time></trkpt><trkpt lat="44.47202013506034" lon="10.669937484036438"><ele>200.0</ele><time>2026-04-18T10:51:35Z</time></trkpt><trkpt lat="44.47223528357566" lon="10.670237414440317"><ele>198.0</ele><time>2026-04-18T10:51:36Z</time></trkpt><trkpt lat="44.47245954980833" lon="10.670549506881413"><ele>196.0</ele><time>2026-04-18T10:51:37Z</time></trkpt><trkpt lat="44.47267225244269" lon="10.670862735504448"><ele>196.0</ele><time>2026-04-18T10:51:38Z</time></trkpt><trkpt lat="44.472886191354426" lon="10.671194206052126"><ele>196.0</ele><time>2026-04-18T10:51:39Z</time></trkpt><trkpt lat="44.47309697006576" lon="10.67153435796832"><ele>196.0</ele><time>2026-04-18T10:51:40Z</time></trkpt><trkpt lat="44.47330512417164" lon="10.671869571977709"><ele>196.0</ele><time>2026-04-18T10:51:41Z</time></trkpt><trkpt lat="44.473506790544626" lon="10.67219477127521"><ele>197.0</ele><time>2026-04-18T10:51:42Z</time></trkpt><trkpt lat="44.473706325534025" lon="10.672514627874728"><ele>198.0</ele><time>2026-04-18T10:51:43Z</time></trkpt><trkpt lat="44.473902798627655" lon="10.672828452180338"><ele>198.0</ele><time>2026-04-18T10:51:44Z</time></trkpt><trkpt lat="44.474090641238305" lon="10.673128350888394"><ele>198.0</ele><time>2026-04-18T10:51:45Z</time></trkpt><trkpt lat="44.474275314395435" lon="10.673424130203223"><ele>197.5</ele><time>2026-04-18T10:51:46Z</time></trkpt><trkpt lat="44.474442884907475" lon="10.673688463224783"><ele>197.0</ele><time>2026-04-18T10:51:47Z</time></trkpt><trkpt lat="44.474595725012364" lon="10.673934582350547"><ele>197.0</ele><time>2026-04-18T10:51:48Z</time></trkpt><trkpt lat="44.47474371310995" lon="10.6741737189265"><ele>197.0</ele><time>2026-04-18T10:51:49Z</time></trkpt><trkpt lat="44.47489406823533" lon="10.674412075937562"><ele>197.0</ele><time>2026-04-18T10:51:50Z</time></trkpt><trkpt lat="44.47505031484455" lon="10.674657833951573"><ele>197.0</ele><time>2026-04-18T10:51:51Z</time></trkpt><trkpt lat="44.47522317442796" lon="10.67491503223776"><ele>197.0</ele><time>2026-04-18T10:51:52Z</time></trkpt><trkpt lat="44.475426253974334" lon="10.675214999658719"><ele>197.0</ele><time>2026-04-18T10:51:53Z</time></trkpt><trkpt lat="44.47563744895952" lon="10.675551794089234"><ele>197.0</ele><time>2026-04-18T10:51:54Z</time></trkpt><trkpt lat="44.47584790732936" lon="10.675913910397828"><ele>197.0</ele><time>2026-04-18T10:51:55Z</time></trkpt><trkpt lat="44.47604188617942" lon="10.67624937261771"><ele>196.5</ele><time>2026-04-18T10:51:56Z</time></trkpt><trkpt lat="44.47622900491144" lon="10.676557446541473"><ele>196.0</ele><time>2026-04-18T10:51:57Z</time></trkpt><trkpt lat="44.47640846181334" lon="10.676850899942135"><ele>195.5</ele><time>2026-04-18T10:51:58Z</time></trkpt><trkpt lat="44.47657750072626" lon="10.677130050561626"><ele>195.0</ele><time>2026-04-18T10:51:59Z</time></trkpt><trkpt lat="44.47674736216189" lon="10.677413206478105"><ele>195.0</ele><time>2026-04-18T10:52:00Z</time></trkpt><trkpt lat="44.476918994795355" lon="10.677691766383102"><ele>195.0</ele><time>2026-04-18T10:52:01Z</time></trkpt><trkpt lat="44.47709140467745" lon="10.677965945792591"><ele>194.0</ele><time>2026-04-18T10:52:02Z</time></trkpt><trkpt lat="44.4772513168441" lon="10.678217581207521"><ele>193.0</ele><time>2026-04-18T10:52:03Z</time></trkpt><trkpt lat="44.477402449273676" lon="10.678451738010516"><ele>192.66666666666666</ele><time>2026-04-18T10:52:04Z</time></trkpt><trkpt lat="44.47753751866354" lon="10.67867046164701"><ele>192.33333333333331</ele><time>2026-04-18T10:52:05Z</time></trkpt><trkpt lat="44.47767002650754" lon="10.67888979386122"><ele>192.0</ele><time>2026-04-18T10:52:06Z</time></trkpt><trkpt lat="44.477793077525924" lon="10.679091254305416"><ele>192.0</ele><time>2026-04-18T10:52:07Z</time></trkpt><trkpt lat="44.47791815005649" lon="10.679297367663581"><ele>192.0</ele><time>2026-04-18T10:52:08Z</time></trkpt><trkpt lat="44.47804217175098" lon="10.67949926268513"><ele>192.0</ele><time>2026-04-18T10:52:09Z</time></trkpt><trkpt lat="44.47816316132922" lon="10.679693453093092"><ele>191.33333333333334</ele><time>2026-04-18T10:52:10Z</time></trkpt><trkpt lat="44.478278317857544" lon="10.679888432888072"><ele>190.66666666666669</ele><time>2026-04-18T10:52:11Z</time></trkpt><trkpt lat="44.47839484642995" lon="10.68007403694099"><ele>190.0</ele><time>2026-04-18T10:52:12Z</time></trkpt><trkpt lat="44.47851269114795" lon="10.680265398620904"><ele>190.0</ele><time>2026-04-18T10:52:13Z</time></trkpt><trkpt lat="44.47862524605723" lon="10.68045233919094"><ele>190.0</ele><time>2026-04-18T10:52:14Z</time></trkpt><trkpt lat="44.47873646468644" lon="10.680633533850692"><ele>190.0</ele><time>2026-04-18T10:52:15Z</time></trkpt><trkpt lat="44.47885053212476" lon="10.680822143875195"><ele>189.66666666666669</ele><time>2026-04-18T10:52:16Z</time></trkpt><trkpt lat="44.47896431001816" lon="10.680996981347198"><ele>189.33333333333334</ele><time>2026-04-18T10:52:17Z</time></trkpt><trkpt lat="44.47907158728142" lon="10.681165339083353"><ele>189.0</ele><time>2026-04-18T10:52:18Z</time></trkpt><trkpt lat="44.47918014792796" lon="10.681344131805643"><ele>188.66666666666666</ele><time>2026-04-18T10:52:19Z</time></trkpt><trkpt lat="44.479287091141146" lon="10.681518467362228"><ele>188.33333333333331</ele><time>2026-04-18T10:52:20Z</time></trkpt><trkpt lat="44.47939483902848" lon="10.681690714701997"><ele>188.0</ele><time>2026-04-18T10:52:21Z</time></trkpt><trkpt lat="44.479502051418194" lon="10.68186633017482"><ele>188.0</ele><time>2026-04-18T10:52:22Z</time></trkpt><trkpt lat="44.47960792323509" lon="10.682043178725003"><ele>188.0</ele><time>2026-04-18T10:52:23Z</time></trkpt><trkpt lat="44.47971357358883" lon="10.682218920149245"><ele>188.0</ele><time>2026-04-18T10:52:24Z</time></trkpt><trkpt lat="44.47981984054161" lon="10.682385881365013"><ele>188.0</ele><time>2026-04-18T10:52:25Z</time></trkpt><trkpt lat="44.479914917768205" lon="10.682535068015877"><ele>188.0</ele><time>2026-04-18T10:52:26Z</time></trkpt><trkpt lat="44.48000087190802" lon="10.682673444164275"><ele>188.0</ele><time>2026-04-18T10:52:27Z</time></trkpt><trkpt lat="44.48007777728136" lon="10.682796451008864"><ele>188.0</ele><time>2026-04-18T10:52:28Z</time></trkpt><trkpt lat="44.480146619714155" lon="10.682907914020994"><ele>188.0</ele><time>2026-04-18T10:52:29Z</time></trkpt><trkpt lat="44.48020750675067" lon="10.683011372876214"><ele>188.0</ele><time>2026-04-18T10:52:30Z</time></trkpt><trkpt lat="44.480260187236226" lon="10.68310499142904"><ele>188.0</ele><time>2026-04-18T10:52:31Z</time></trkpt><trkpt lat="44.4803059129229" lon="10.683214459275892"><ele>188.0</ele><time>2026-04-18T10:52:32Z</time></trkpt><trkpt lat="44.480331179966846" lon="10.683333072563416"><ele>188.0</ele><time>2026-04-18T10:52:33Z</time></trkpt><trkpt lat="44.4803536430276" lon="10.683442713776033"><ele>188.0</ele><time>2026-04-18T10:52:34Z</time></trkpt><trkpt lat="44.48039434790108" lon="10.683527632131819"><ele>187.8</ele><time>2026-04-18T10:52:35Z</time></trkpt><trkpt lat="44.48046379642106" lon="10.68358070611873"><ele>187.60000000000002</ele><time>2026-04-18T10:52:36Z</time></trkpt><trkpt lat="44.48054655577357" lon="10.683619966259961"><ele>187.39999999999998</ele><time>2026-04-18T10:52:37Z</time></trkpt><trkpt lat="44.48062480724493" lon="10.683683699180406"><ele>187.2</ele><time>2026-04-18T10:52:38Z</time></trkpt><trkpt lat="44.48067771713384" lon="10.683794298132886"><ele>187.0</ele><time>2026-04-18T10:52:39Z</time></trkpt><trkpt lat="44.48074480578022" lon="10.683901842120354"><ele>187.0</ele><time>2026-04-18T10:52:40Z</time></trkpt><trkpt lat="44.480820675416474" lon="10.684023572318493"><ele>187.0</ele><time>2026-04-18T10:52:41Z</time></trkpt><trkpt lat="44.48090650820385" lon="10.684162185413125"><ele>187.0</ele><time>2026-04-18T10:52:42Z</time></trkpt><trkpt lat="44.48102157439061" lon="10.684348590975516"><ele>187.0</ele><time>2026-04-18T10:52:43Z</time></trkpt><trkpt lat="44.48117704354606" lon="10.684600332382955"><ele>185.5</ele><time>2026-04-18T10:52:44Z</time></trkpt><trkpt lat="44.48135039352299" lon="10.68488102653938"><ele>184.0</ele><time>2026-04-18T10:52:45Z</time></trkpt><trkpt lat="44.48154724416475" lon="10.685167086169107"><ele>185.0</ele><time>2026-04-18T10:52:46Z</time></trkpt><trkpt lat="44.481718494452" lon="10.685470886411803"><ele>186.0</ele><time>2026-04-18T10:52:47Z</time></trkpt><trkpt lat="44.48189422069832" lon="10.685747665120118"><ele>186.0</ele><time>2026-04-18T10:52:48Z</time></trkpt><trkpt lat="44.48206535387535" lon="10.686025489967188"><ele>186.0</ele><time>2026-04-18T10:52:49Z</time></trkpt><trkpt lat="44.48223340500525" lon="10.686290252352396"><ele>186.5</ele><time>2026-04-18T10:52:50Z</time></trkpt><trkpt lat="44.482395570867105" lon="10.686560387125681"><ele>187.0</ele><time>2026-04-18T10:52:51Z</time></trkpt><trkpt lat="44.482562091526354" lon="10.686822165318645"><ele>187.0</ele><time>2026-04-18T10:52:52Z</time></trkpt><trkpt lat="44.482732445669775" lon="10.68708614980837"><ele>187.0</ele><time>2026-04-18T10:52:53Z</time></trkpt><trkpt lat="44.482910735818834" lon="10.687353882650157"><ele>186.0</ele><time>2026-04-18T10:52:54Z</time></trkpt><trkpt lat="44.48308782449298" lon="10.687599334159668"><ele>185.0</ele><time>2026-04-18T10:52:55Z</time></trkpt><trkpt lat="44.48324844946591" lon="10.687821856159296"><ele>185.0</ele><time>2026-04-18T10:52:56Z</time></trkpt><trkpt lat="44.48339905949756" lon="10.68802620282067"><ele>185.0</ele><time>2026-04-18T10:52:57Z</time></trkpt><trkpt lat="44.48353931450175" lon="10.688212917799"><ele>185.0</ele><time>2026-04-18T10:52:58Z</time></trkpt><trkpt lat="44.483681496848504" lon="10.68839659402146"><ele>185.0</ele><time>2026-04-18T10:52:59Z</time></trkpt><trkpt lat="44.48382827990674" lon="10.688581347154397"><ele>185.0</ele><time>2026-04-18T10:53:00Z</time></trkpt><trkpt lat="44.483955253673955" lon="10.688749875274826"><ele>185.0</ele><time>2026-04-18T10:53:01Z</time></trkpt><trkpt lat="44.4840792286716" lon="10.688910746412542"><ele>184.33333333333331</ele><time>2026-04-18T10:53:02Z</time></trkpt><trkpt lat="44.48419517020029" lon="10.689065759549546"><ele>183.66666666666666</ele><time>2026-04-18T10:53:03Z</time></trkpt><trkpt lat="44.48432103512843" lon="10.68922443003292"><ele>183.0</ele><time>2026-04-18T10:53:04Z</time></trkpt><trkpt lat="44.48445081103796" lon="10.689417834743782"><ele>182.5</ele><time>2026-04-18T10:53:05Z</time></trkpt><trkpt lat="44.48461951369543" lon="10.689637746133297"><ele>182.0</ele><time>2026-04-18T10:53:06Z</time></trkpt><trkpt lat="44.48482193129528" lon="10.689902044134636"><ele>182.0</ele><time>2026-04-18T10:53:07Z</time></trkpt><trkpt lat="44.48506422018524" lon="10.6902186164285"><ele>182.0</ele><time>2026-04-18T10:53:08Z</time></trkpt><trkpt lat="44.485318079389714" lon="10.690550571097605"><ele>183.5</ele><time>2026-04-18T10:53:09Z</time></trkpt><trkpt lat="44.48555169736988" lon="10.69084060860186"><ele>185.0</ele><time>2026-04-18T10:53:10Z</time></trkpt><trkpt lat="44.48574238017382" lon="10.691085276949066"><ele>183.5</ele><time>2026-04-18T10:53:11Z</time></trkpt><trkpt lat="44.48592582225773" lon="10.69132421639465"><ele>182.0</ele><time>2026-04-18T10:53:12Z</time></trkpt><trkpt lat="44.4861007485852" lon="10.691595371098753"><ele>183.0</ele><time>2026-04-18T10:53:13Z</time></trkpt><trkpt lat="44.486276586429604" lon="10.691854552580878"><ele>184.0</ele><time>2026-04-18T10:53:14Z</time></trkpt><trkpt lat="44.48644040605146" lon="10.69210176674447"><ele>184.0</ele><time>2026-04-18T10:53:15Z</time></trkpt><trkpt lat="44.48660633900459" lon="10.692366141973462"><ele>184.0</ele><time>2026-04-18T10:53:16Z</time></trkpt><trkpt lat="44.48677773621263" lon="10.692645262424897"><ele>184.0</ele><time>2026-04-18T10:53:17Z</time></trkpt><trkpt lat="44.48695396062566" lon="10.692932434736404"><ele>184.0</ele><time>2026-04-18T10:53:18Z</time></trkpt><trkpt lat="44.48713055171381" lon="10.693220821252789"><ele>185.5</ele><time>2026-04-18T10:53:19Z</time></trkpt><trkpt lat="44.487293733144774" lon="10.693487308972255"><ele>187.0</ele><time>2026-04-18T10:53:20Z</time></trkpt><trkpt lat="44.48746459654521" lon="10.693732025817319"><ele>187.33333333333334</ele><time>2026-04-18T10:53:21Z</time></trkpt><trkpt lat="44.487608310283356" lon="10.693965870887045"><ele>187.66666666666666</ele><time>2026-04-18T10:53:22Z</time></trkpt><trkpt lat="44.48772857033742" lon="10.694197428887914"><ele>188.0</ele><time>2026-04-18T10:53:23Z</time></trkpt><trkpt lat="44.48784436405569" lon="10.694386526139686"><ele>188.5</ele><time>2026-04-18T10:53:24Z</time></trkpt><trkpt lat="44.48794070710737" lon="10.694543859428327"><ele>189.0</ele><time>2026-04-18T10:53:25Z</time></trkpt><trkpt lat="44.488070565658425" lon="10.694652903800732"><ele>189.5</ele><time>2026-04-18T10:53:26Z</time></trkpt><trkpt lat="44.48817149199053" lon="10.69476609048301"><ele>190.0</ele><time>2026-04-18T10:53:27Z</time></trkpt><trkpt lat="44.4882705269328" lon="10.694888618706496"><ele>190.0</ele><time>2026-04-18T10:53:28Z</time></trkpt><trkpt lat="44.48839038813298" lon="10.695069313078411"><ele>190.0</ele><time>2026-04-18T10:53:29Z</time></trkpt><trkpt lat="44.48849778362535" lon="10.695297898017797"><ele>190.0</ele><time>2026-04-18T10:53:30Z</time></trkpt><trkpt lat="44.48860787608167" lon="10.695566832244904"><ele>190.0</ele><time>2026-04-18T10:53:31Z</time></trkpt><trkpt lat="44.48875140044651" lon="10.695845780207435"><ele>190.0</ele><time>2026-04-18T10:53:32Z</time></trkpt><trkpt lat="44.48890025448395" lon="10.696085366633671"><ele>190.33333333333334</ele><time>2026-04-18T10:53:33Z</time></trkpt><trkpt lat="44.48903130527863" lon="10.69630533390969"><ele>190.66666666666666</ele><time>2026-04-18T10:53:34Z</time></trkpt><trkpt lat="44.48915985234828" lon="10.696521627724257"><ele>191.0</ele><time>2026-04-18T10:53:35Z</time></trkpt><trkpt lat="44.48929292069584" lon="10.696739455293155"><ele>190.66666666666666</ele><time>2026-04-18T10:53:36Z</time></trkpt><trkpt lat="44.48943493861657" lon="10.69696886498258"><ele>190.33333333333334</ele><time>2026-04-18T10:53:37Z</time></trkpt><trkpt lat="44.489573909561756" lon="10.697206825132785"><ele>190.0</ele><time>2026-04-18T10:53:38Z</time></trkpt><trkpt lat="44.48971880692057" lon="10.697453965557616"><ele>189.66666666666669</ele><time>2026-04-18T10:53:39Z</time></trkpt><trkpt lat="44.4898664672586" lon="10.69769771425314"><ele>189.33333333333334</ele><time>2026-04-18T10:53:40Z</time></trkpt><trkpt lat="44.490006373058975" lon="10.697925439683909"><ele>189.0</ele><time>2026-04-18T10:53:41Z</time></trkpt><trkpt lat="44.4901303142064" lon="10.698122930843454"><ele>189.0</ele><time>2026-04-18T10:53:42Z</time></trkpt><trkpt lat="44.49025528202391" lon="10.698333103108551"><ele>189.0</ele><time>2026-04-18T10:53:43Z</time></trkpt><trkpt lat="44.490354861219636" lon="10.69849888791746"><ele>189.0</ele><time>2026-04-18T10:53:44Z</time></trkpt><trkpt lat="44.49044800420402" lon="10.698659780867349"><ele>188.79999999999998</ele><time>2026-04-18T10:53:45Z</time></trkpt><trkpt lat="44.490527097691384" lon="10.698790520391944"><ele>188.6</ele><time>2026-04-18T10:53:46Z</time></trkpt><trkpt lat="44.490599152310004" lon="10.69889589132606"><ele>188.4</ele><time>2026-04-18T10:53:47Z</time></trkpt><trkpt lat="44.49065758365246" lon="10.69898921102654"><ele>188.2</ele><time>2026-04-18T10:53:48Z</time></trkpt><trkpt lat="44.49072097370161" lon="10.699116243434853"><ele>188.0</ele><time>2026-04-18T10:53:49Z</time></trkpt><trkpt lat="44.490760342258355" lon="10.69924259016962"><ele>188.0</ele><time>2026-04-18T10:53:50Z</time></trkpt><trkpt lat="44.49081765335842" lon="10.69936350840061"><ele>188.0</ele><time>2026-04-18T10:53:51Z</time></trkpt><trkpt lat="44.490891030153506" lon="10.699480300405176"><ele>188.0</ele><time>2026-04-18T10:53:52Z</time></trkpt><trkpt lat="44.490956316596154" lon="10.699605650889968"><ele>188.0</ele><time>2026-04-18T10:53:53Z</time></trkpt><trkpt lat="44.49102241288431" lon="10.699746749182589"><ele>188.0</ele><time>2026-04-18T10:53:54Z</time></trkpt><trkpt lat="44.49110525170164" lon="10.69990099880489"><ele>187.33333333333331</ele><time>2026-04-18T10:53:55Z</time></trkpt><trkpt lat="44.49118902715228" lon="10.700057416050251"><ele>186.66666666666666</ele><time>2026-04-18T10:53:56Z</time></trkpt><trkpt lat="44.491285490362465" lon="10.70023860840312"><ele>186.0</ele><time>2026-04-18T10:53:57Z</time></trkpt><trkpt lat="44.491411960639276" lon="10.70047370595775"><ele>187.5</ele><time>2026-04-18T10:53:58Z</time></trkpt><trkpt lat="44.49156701299489" lon="10.70078522250937"><ele>189.0</ele><time>2026-04-18T10:53:59Z</time></trkpt><trkpt lat="44.49172584196324" lon="10.701123573826866"><ele>189.0</ele><time>2026-04-18T10:54:00Z</time></trkpt><trkpt lat="44.49186988105186" lon="10.701409005038474"><ele>189.0</ele><time>2026-04-18T10:54:01Z</time></trkpt><trkpt lat="44.49202033249518" lon="10.701697534542465"><ele>191.0</ele><time>2026-04-18T10:54:02Z</time></trkpt><trkpt lat="44.49217209025084" lon="10.701997351887986"><ele>193.0</ele><time>2026-04-18T10:54:03Z</time></trkpt><trkpt lat="44.49232118363424" lon="10.70228971365675"><ele>193.0</ele><time>2026-04-18T10:54:04Z</time></trkpt><trkpt lat="44.49246711307344" lon="10.702569532544077"><ele>193.0</ele><time>2026-04-18T10:54:05Z</time></trkpt><trkpt lat="44.49260859802124" lon="10.702840087811373"><ele>191.0</ele><time>2026-04-18T10:54:06Z</time></trkpt><trkpt lat="44.492750136963046" lon="10.703099231027974"><ele>189.0</ele><time>2026-04-18T10:54:07Z</time></trkpt><trkpt lat="44.492887543216064" lon="10.703361365460804"><ele>190.33333333333331</ele><time>2026-04-18T10:54:08Z</time></trkpt><trkpt lat="44.493008150262156" lon="10.70358812915395"><ele>191.66666666666666</ele><time>2026-04-18T10:54:09Z</time></trkpt><trkpt lat="44.493099319645" lon="10.70380945997292"><ele>193.0</ele><time>2026-04-18T10:54:10Z</time></trkpt><trkpt lat="44.49320173554997" lon="10.704009991391342"><ele>193.0</ele><time>2026-04-18T10:54:11Z</time></trkpt><trkpt lat="44.49327129764319" lon="10.704259404529695"><ele>193.0</ele><time>2026-04-18T10:54:12Z</time></trkpt><trkpt lat="44.493303108132686" lon="10.704533072159077"><ele>193.0</ele><time>2026-04-18T10:54:13Z</time></trkpt><trkpt lat="44.493308077133285" lon="10.704822291126323"><ele>194.0</ele><time>2026-04-18T10:54:14Z</time></trkpt><trkpt lat="44.493289138137875" lon="10.705131133639098"><ele>195.0</ele><time>2026-04-18T10:54:15Z</time></trkpt><trkpt lat="44.493257075293144" lon="10.705489826048048"><ele>197.0</ele><time>2026-04-18T10:54:16Z</time></trkpt><trkpt lat="44.493214231108254" lon="10.705834356657267"><ele>199.0</ele><time>2026-04-18T10:54:17Z</time></trkpt><trkpt lat="44.4931437041011" lon="10.70614719953682"><ele>202.5</ele><time>2026-04-18T10:54:18Z</time></trkpt><trkpt lat="44.493046631071714" lon="10.706476029836772"><ele>206.0</ele><time>2026-04-18T10:54:19Z</time></trkpt><trkpt lat="44.49293561671574" lon="10.706831764923896"><ele>198.5</ele><time>2026-04-18T10:54:20Z</time></trkpt><trkpt lat="44.49283581606562" lon="10.707150289261953"><ele>191.0</ele><time>2026-04-18T10:54:21Z</time></trkpt><trkpt lat="44.49275530786158" lon="10.707415280153402"><ele>191.0</ele><time>2026-04-18T10:54:22Z</time></trkpt><trkpt lat="44.49268195669891" lon="10.707658410373297"><ele>191.0</ele><time>2026-04-18T10:54:23Z</time></trkpt><trkpt lat="44.492626091246066" lon="10.707875576939143"><ele>191.0</ele><time>2026-04-18T10:54:24Z</time></trkpt><trkpt lat="44.49258273379648" lon="10.708100550029943"><ele>192.0</ele><time>2026-04-18T10:54:25Z</time></trkpt><trkpt lat="44.49258252328222" lon="10.708377093897946"><ele>193.0</ele><time>2026-04-18T10:54:26Z</time></trkpt><trkpt lat="44.49262585829037" lon="10.708691587096833"><ele>194.0</ele><time>2026-04-18T10:54:27Z</time></trkpt><trkpt lat="44.49268686507642" lon="10.709050810509375"><ele>189.5</ele><time>2026-04-18T10:54:28Z</time></trkpt><trkpt lat="44.49272676003163" lon="10.709451902734191"><ele>185.0</ele><time>2026-04-18T10:54:29Z</time></trkpt><trkpt lat="44.49279909636455" lon="10.709858832145597"><ele>184.5</ele><time>2026-04-18T10:54:30Z</time></trkpt><trkpt lat="44.49283689501692" lon="10.710242637291726"><ele>184.0</ele><time>2026-04-18T10:54:31Z</time></trkpt><trkpt lat="44.49288991890587" lon="10.710613171172325"><ele>200.5</ele><time>2026-04-18T10:54:32Z</time></trkpt><trkpt lat="44.492941051345454" lon="10.710970873823012"><ele>217.0</ele><time>2026-04-18T10:54:33Z</time></trkpt><trkpt lat="44.49299897812431" lon="10.711274163799853"><ele>217.33333333333331</ele><time>2026-04-18T10:54:34Z</time></trkpt><trkpt lat="44.493034102949565" lon="10.711554686541726"><ele>217.66666666666669</ele><time>2026-04-18T10:54:35Z</time></trkpt><trkpt lat="44.49306957125719" lon="10.711818885649201"><ele>218.0</ele><time>2026-04-18T10:54:36Z</time></trkpt><trkpt lat="44.493123740104224" lon="10.712051692718314"><ele>217.33333333333334</ele><time>2026-04-18T10:54:37Z</time></trkpt><trkpt lat="44.4932144726242" lon="10.712283877670252"><ele>216.66666666666669</ele><time>2026-04-18T10:54:38Z</time></trkpt><trkpt lat="44.49333446571028" lon="10.712510692916421"><ele>216.0</ele><time>2026-04-18T10:54:39Z</time></trkpt><trkpt lat="44.49349467984711" lon="10.712711210172019"><ele>214.5</ele><time>2026-04-18T10:54:40Z</time></trkpt><trkpt lat="44.493699052451646" lon="10.712903125435279"><ele>213.0</ele><time>2026-04-18T10:54:41Z</time></trkpt><trkpt lat="44.493933117261996" lon="10.713120242954849"><ele>213.0</ele><time>2026-04-18T10:54:42Z</time></trkpt><trkpt lat="44.49416314443868" lon="10.713335437473244"><ele>213.0</ele><time>2026-04-18T10:54:43Z</time></trkpt><trkpt lat="44.494356389791854" lon="10.713539082069556"><ele>214.66666666666669</ele><time>2026-04-18T10:54:44Z</time></trkpt><trkpt lat="44.49451482744801" lon="10.713758071296654"><ele>216.33333333333334</ele><time>2026-04-18T10:54:45Z</time></trkpt><trkpt lat="44.49464631200684" lon="10.713988272418973"><ele>218.0</ele><time>2026-04-18T10:54:46Z</time></trkpt><trkpt lat="44.49478055062417" lon="10.71423419142575"><ele>213.0</ele><time>2026-04-18T10:54:47Z</time></trkpt><trkpt lat="44.49490332359759" lon="10.714464593664983"><ele>208.0</ele><time>2026-04-18T10:54:48Z</time></trkpt><trkpt lat="44.4950380874522" lon="10.714633210223301"><ele>203.0</ele><time>2026-04-18T10:54:49Z</time></trkpt><trkpt lat="44.495169394491484" lon="10.714771607378728"><ele>203.0</ele><time>2026-04-18T10:54:50Z</time></trkpt><trkpt lat="44.49532123249052" lon="10.714832421971291"><ele>203.0</ele><time>2026-04-18T10:54:51Z</time></trkpt><trkpt lat="44.4954827242512" lon="10.714846608949513"><ele>203.0</ele><time>2026-04-18T10:54:52Z</time></trkpt><trkpt lat="44.495637220009186" lon="10.714841677505271"><ele>203.25</ele><time>2026-04-18T10:54:53Z</time></trkpt><trkpt lat="44.49579103668468" lon="10.714835056930948"><ele>203.5</ele><time>2026-04-18T10:54:54Z</time></trkpt><trkpt lat="44.4958987077285" lon="10.714870917353327"><ele>203.75</ele><time>2026-04-18T10:54:55Z</time></trkpt><trkpt lat="44.49601037288306" lon="10.71487122513973"><ele>204.0</ele><time>2026-04-18T10:54:56Z</time></trkpt><trkpt lat="44.49610893052633" lon="10.71489020970575"><ele>204.0</ele><time>2026-04-18T10:54:57Z</time></trkpt><trkpt lat="44.496194760682776" lon="10.71494298603816"><ele>204.0</ele><time>2026-04-18T10:54:58Z</time></trkpt><trkpt lat="44.49629221558351" lon="10.714993001297195"><ele>204.0</ele><time>2026-04-18T10:54:59Z</time></trkpt><trkpt lat="44.49640268315396" lon="10.715062794829066"><ele>204.0</ele><time>2026-04-18T10:55:00Z</time></trkpt><trkpt lat="44.49652184546657" lon="10.715148342567641"><ele>205.2</ele><time>2026-04-18T10:55:01Z</time></trkpt><trkpt lat="44.49663327301173" lon="10.715212007969454"><ele>206.39999999999998</ele><time>2026-04-18T10:55:02Z</time></trkpt><trkpt lat="44.49673629023938" lon="10.715290120055363"><ele>207.6</ele><time>2026-04-18T10:55:03Z</time></trkpt><trkpt lat="44.496836166800634" lon="10.715360075145826"><ele>208.8</ele><time>2026-04-18T10:55:04Z</time></trkpt><trkpt lat="44.496922485912435" lon="10.715425018783593"><ele>210.0</ele><time>2026-04-18T10:55:05Z</time></trkpt><trkpt lat="44.49700960254123" lon="10.715469502823815"><ele>209.0</ele><time>2026-04-18T10:55:06Z</time></trkpt><trkpt lat="44.497108880216395" lon="10.715518222258039"><ele>208.0</ele><time>2026-04-18T10:55:07Z</time></trkpt><trkpt lat="44.49722386133638" lon="10.715587720061775"><ele>207.0</ele><time>2026-04-18T10:55:08Z</time></trkpt><trkpt lat="44.49738909161347" lon="10.715650010162076"><ele>206.0</ele><time>2026-04-18T10:55:09Z</time></trkpt><trkpt lat="44.49756872193995" lon="10.715707513450372"><ele>206.0</ele><time>2026-04-18T10:55:10Z</time></trkpt><trkpt lat="44.497693556676275" lon="10.715723686864989"><ele>206.0</ele><time>2026-04-18T10:55:11Z</time></trkpt><trkpt lat="44.49777233293855" lon="10.71575193043007"><ele>206.0</ele><time>2026-04-18T10:55:12Z</time></trkpt><trkpt lat="44.49784231593233" lon="10.715767492166043"><ele>206.0</ele><time>2026-04-18T10:55:13Z</time></trkpt><trkpt lat="44.49791394903612" lon="10.715798893297748"><ele>206.0</ele><time>2026-04-18T10:55:14Z</time></trkpt><trkpt lat="44.49801047752959" lon="10.71585380367536"><ele>205.5</ele><time>2026-04-18T10:55:15Z</time></trkpt><trkpt lat="44.49810866370709" lon="10.715928314324541"><ele>205.0</ele><time>2026-04-18T10:55:16Z</time></trkpt><trkpt lat="44.49820450441887" lon="10.716023333342848"><ele>204.5</ele><time>2026-04-18T10:55:17Z</time></trkpt><trkpt lat="44.49829662178419" lon="10.716143449361393"><ele>204.0</ele><time>2026-04-18T10:55:18Z</time></trkpt><trkpt lat="44.49838584029178" lon="10.716272104761911"><ele>201.5</ele><time>2026-04-18T10:55:19Z</time></trkpt><trkpt lat="44.49847187179904" lon="10.71639986178803"><ele>199.0</ele><time>2026-04-18T10:55:20Z</time></trkpt><trkpt lat="44.49854662741558" lon="10.716525367074935"><ele>196.5</ele><time>2026-04-18T10:55:21Z</time></trkpt><trkpt lat="44.49861709529281" lon="10.71665467622655"><ele>194.0</ele><time>2026-04-18T10:55:22Z</time></trkpt><trkpt lat="44.49868591005008" lon="10.716792025885384"><ele>195.0</ele><time>2026-04-18T10:55:23Z</time></trkpt><trkpt lat="44.498745171055205" lon="10.71693068433458"><ele>196.0</ele><time>2026-04-18T10:55:24Z</time></trkpt><trkpt lat="44.49879655270356" lon="10.7170710142796"><ele>197.0</ele><time>2026-04-18T10:55:25Z</time></trkpt><trkpt lat="44.498837488025906" lon="10.717198080756086"><ele>198.0</ele><time>2026-04-18T10:55:26Z</time></trkpt><trkpt lat="44.49889488011775" lon="10.71731999492079"><ele>199.0</ele><time>2026-04-18T10:55:27Z</time></trkpt><trkpt lat="44.49893493916784" lon="10.717446898550776"><ele>199.0</ele><time>2026-04-18T10:55:28Z</time></trkpt><trkpt lat="44.498985973602935" lon="10.717568820850868"><ele>199.0</ele><time>2026-04-18T10:55:29Z</time></trkpt><trkpt lat="44.49905202692511" lon="10.717690428369663"><ele>199.0</ele><time>2026-04-18T10:55:30Z</time></trkpt><trkpt lat="44.499136160638216" lon="10.717802572912165"><ele>199.0</ele><time>2026-04-18T10:55:31Z</time></trkpt><trkpt lat="44.49922842079774" lon="10.717892970104108"><ele>199.0</ele><time>2026-04-18T10:55:32Z</time></trkpt><trkpt lat="44.499321205214166" lon="10.717966496918804"><ele>197.2</ele><time>2026-04-18T10:55:33Z</time></trkpt><trkpt lat="44.499414392332866" lon="10.718028916953346"><ele>195.39999999999998</ele><time>2026-04-18T10:55:34Z</time></trkpt><trkpt lat="44.49951174165313" lon="10.718087731307424"><ele>193.6</ele><time>2026-04-18T10:55:35Z</time></trkpt><trkpt lat="44.49959786143587" lon="10.718134990383643"><ele>191.8</ele><time>2026-04-18T10:55:36Z</time></trkpt><trkpt lat="44.499677337416095" lon="10.718178325328672"><ele>190.0</ele><time>2026-04-18T10:55:37Z</time></trkpt><trkpt lat="44.499762276420505" lon="10.718248740308388"><ele>190.0</ele><time>2026-04-18T10:55:38Z</time></trkpt><trkpt lat="44.49986566498823" lon="10.718303110340322"><ele>190.0</ele><time>2026-04-18T10:55:39Z</time></trkpt><trkpt lat="44.499977632988454" lon="10.718361572716654"><ele>190.0</ele><time>2026-04-18T10:55:40Z</time></trkpt><trkpt lat="44.50008953775157" lon="10.718419715596909"><ele>190.0</ele><time>2026-04-18T10:55:41Z</time></trkpt><trkpt lat="44.50019818814661" lon="10.718451438693645"><ele>190.0</ele><time>2026-04-18T10:55:42Z</time></trkpt><trkpt lat="44.50029148116811" lon="10.718524640388855"><ele>190.0</ele><time>2026-04-18T10:55:43Z</time></trkpt><trkpt lat="44.50039477204299" lon="10.71857833803867"><ele>190.0</ele><time>2026-04-18T10:55:44Z</time></trkpt><trkpt lat="44.500500090005595" lon="10.718633965792044"><ele>190.0</ele><time>2026-04-18T10:55:45Z</time></trkpt><trkpt lat="44.500610330380276" lon="10.7186922452848"><ele>190.0</ele><time>2026-04-18T10:55:46Z</time></trkpt><trkpt lat="44.500722269748124" lon="10.71872844322147"><ele>187.0</ele><time>2026-04-18T10:55:47Z</time></trkpt><trkpt lat="44.50082832341673" lon="10.718790181828693"><ele>184.0</ele><time>2026-04-18T10:55:48Z</time></trkpt><trkpt lat="44.50094212897381" lon="10.71884841540456"><ele>181.0</ele><time>2026-04-18T10:55:49Z</time></trkpt><trkpt lat="44.50104743559091" lon="10.718910287665942"><ele>178.0</ele><time>2026-04-18T10:55:50Z</time></trkpt><trkpt lat="44.50114756679205" lon="10.718955231541955"><ele>178.0</ele><time>2026-04-18T10:55:51Z</time></trkpt><trkpt lat="44.50124490594931" lon="10.719008133119328"><ele>178.0</ele><time>2026-04-18T10:55:52Z</time></trkpt><trkpt lat="44.50135331922595" lon="10.719062229298121"><ele>178.0</ele><time>2026-04-18T10:55:53Z</time></trkpt><trkpt lat="44.501464259882795" lon="10.719119570600256"><ele>178.0</ele><time>2026-04-18T10:55:54Z</time></trkpt><trkpt lat="44.50157956173432" lon="10.719174993578203"><ele>177.2</ele><time>2026-04-18T10:55:55Z</time></trkpt><trkpt lat="44.50168840097101" lon="10.719236785760007"><ele>176.4</ele><time>2026-04-18T10:55:56Z</time></trkpt><trkpt lat="44.50179826216932" lon="10.719290482378149"><ele>175.6</ele><time>2026-04-18T10:55:57Z</time></trkpt><trkpt lat="44.501895301079585" lon="10.719348184001177"><ele>174.79999999999998</ele><time>2026-04-18T10:55:58Z</time></trkpt><trkpt lat="44.5019767407925" lon="10.7193895541803"><ele>174.0</ele><time>2026-04-18T10:55:59Z</time></trkpt><trkpt lat="44.502050780708124" lon="10.719432788029184"><ele>175.2</ele><time>2026-04-18T10:56:00Z</time></trkpt><trkpt lat="44.502136788522144" lon="10.719480805410871"><ele>176.39999999999998</ele><time>2026-04-18T10:56:01Z</time></trkpt><trkpt lat="44.502232298174675" lon="10.719533845710663"><ele>177.6</ele><time>2026-04-18T10:56:02Z</time></trkpt><trkpt lat="44.50233532837702" lon="10.719597136559964"><ele>178.8</ele><time>2026-04-18T10:56:03Z</time></trkpt><trkpt lat="44.5024417235869" lon="10.719680299593055"><ele>180.0</ele><time>2026-04-18T10:56:04Z</time></trkpt><trkpt lat="44.50254353719309" lon="10.719779036675446"><ele>180.0</ele><time>2026-04-18T10:56:05Z</time></trkpt><trkpt lat="44.50263289843699" lon="10.719915893550835"><ele>180.0</ele><time>2026-04-18T10:56:06Z</time></trkpt><trkpt lat="44.50272763879849" lon="10.72006596097799"><ele>180.0</ele><time>2026-04-18T10:56:07Z</time></trkpt><trkpt lat="44.50283060160106" lon="10.72022405033811"><ele>180.0</ele><time>2026-04-18T10:56:08Z</time></trkpt><trkpt lat="44.502916578046126" lon="10.720426316226046"><ele>180.66666666666666</ele><time>2026-04-18T10:56:09Z</time></trkpt><trkpt lat="44.50299612692308" lon="10.720626621200234"><ele>181.33333333333331</ele><time>2026-04-18T10:56:10Z</time></trkpt><trkpt lat="44.503070036738464" lon="10.720811669334813"><ele>182.0</ele><time>2026-04-18T10:56:11Z</time></trkpt><trkpt lat="44.503138675307014" lon="10.720983345654343"><ele>181.0</ele><time>2026-04-18T10:56:12Z</time></trkpt><trkpt lat="44.503204216689184" lon="10.72115172308099"><ele>180.0</ele><time>2026-04-18T10:56:13Z</time></trkpt><trkpt lat="44.503266334491606" lon="10.72131054729929"><ele>179.0</ele><time>2026-04-18T10:56:14Z</time></trkpt><trkpt lat="44.50332840646911" lon="10.72146147527694"><ele>178.0</ele><time>2026-04-18T10:56:15Z</time></trkpt><trkpt lat="44.503379643083754" lon="10.721633589500536"><ele>178.0</ele><time>2026-04-18T10:56:16Z</time></trkpt><trkpt lat="44.503446955971484" lon="10.721801682904486"><ele>178.0</ele><time>2026-04-18T10:56:17Z</time></trkpt><trkpt lat="44.50350946125017" lon="10.721961575135063"><ele>178.0</ele><time>2026-04-18T10:56:18Z</time></trkpt><trkpt lat="44.50356737077322" lon="10.722111979375576"><ele>178.0</ele><time>2026-04-18T10:56:19Z</time></trkpt><trkpt lat="44.503626429034874" lon="10.722268751198092"><ele>178.0</ele><time>2026-04-18T10:56:20Z</time></trkpt><trkpt lat="44.50368960129374" lon="10.722436443769812"><ele>178.0</ele><time>2026-04-18T10:56:21Z</time></trkpt><trkpt lat="44.503756429907114" lon="10.722613842129483"><ele>178.0</ele><time>2026-04-18T10:56:22Z</time></trkpt><trkpt lat="44.503824033957294" lon="10.722793903183822"><ele>178.0</ele><time>2026-04-18T10:56:23Z</time></trkpt><trkpt lat="44.503892212189285" lon="10.7229757502245"><ele>178.0</ele><time>2026-04-18T10:56:24Z</time></trkpt><trkpt lat="44.503960674446525" lon="10.72316083775387"><ele>178.0</ele><time>2026-04-18T10:56:25Z</time></trkpt><trkpt lat="44.50402987885719" lon="10.723348043605045"><ele>178.0</ele><time>2026-04-18T10:56:26Z</time></trkpt><trkpt lat="44.50409962536055" lon="10.723536929435099"><ele>176.0</ele><time>2026-04-18T10:56:27Z</time></trkpt><trkpt lat="44.50417150333201" lon="10.723731905857841"><ele>174.0</ele><time>2026-04-18T10:56:28Z</time></trkpt><trkpt lat="44.504257558353004" lon="10.723919723023478"><ele>172.0</ele><time>2026-04-18T10:56:29Z</time></trkpt><trkpt lat="44.50432612950952" lon="10.724125620282543"><ele>172.0</ele><time>2026-04-18T10:56:30Z</time></trkpt><trkpt lat="44.50439548781312" lon="10.7243285349734"><ele>172.0</ele><time>2026-04-18T10:56:31Z</time></trkpt><trkpt lat="44.50446316026334" lon="10.72451599321367"><ele>172.0</ele><time>2026-04-18T10:56:32Z</time></trkpt><trkpt lat="44.50452531639163" lon="10.724697323850448"><ele>171.75</ele><time>2026-04-18T10:56:33Z</time></trkpt><trkpt lat="44.504581616266776" lon="10.724861315674254"><ele>171.5</ele><time>2026-04-18T10:56:34Z</time></trkpt><trkpt lat="44.5046428261452" lon="10.725026505362656"><ele>171.25</ele><time>2026-04-18T10:56:35Z</time></trkpt><trkpt lat="44.504696723075774" lon="10.725197205271648"><ele>171.0</ele><time>2026-04-18T10:56:36Z</time></trkpt><trkpt lat="44.504742373492654" lon="10.725378604651967"><ele>168.0</ele><time>2026-04-18T10:56:37Z</time></trkpt><trkpt lat="44.50479011967063" lon="10.725571032591832"><ele>165.0</ele><time>2026-04-18T10:56:38Z</time></trkpt><trkpt lat="44.5048275743569" lon="10.725799147391546"><ele>162.0</ele><time>2026-04-18T10:56:39Z</time></trkpt><trkpt lat="44.50485448205249" lon="10.726070332686428"><ele>161.0</ele><time>2026-04-18T10:56:40Z</time></trkpt><trkpt lat="44.50487966028721" lon="10.726335949727936"><ele>160.0</ele><time>2026-04-18T10:56:41Z</time></trkpt><trkpt lat="44.504902248840594" lon="10.726589981940943"><ele>159.0</ele><time>2026-04-18T10:56:42Z</time></trkpt><trkpt lat="44.504920113798924" lon="10.726848545520268"><ele>158.66666666666666</ele><time>2026-04-18T10:56:43Z</time></trkpt><trkpt lat="44.50494729407751" lon="10.727105394093924"><ele>158.33333333333331</ele><time>2026-04-18T10:56:44Z</time></trkpt><trkpt lat="44.50499760195331" lon="10.727371512928064"><ele>158.0</ele><time>2026-04-18T10:56:45Z</time></trkpt><trkpt lat="44.505062713597" lon="10.727626336281311"><ele>157.0</ele><time>2026-04-18T10:56:46Z</time></trkpt><trkpt lat="44.50512953540304" lon="10.727879767253723"><ele>156.0</ele><time>2026-04-18T10:56:47Z</time></trkpt><trkpt lat="44.505202057439206" lon="10.728151383846589"><ele>155.0</ele><time>2026-04-18T10:56:48Z</time></trkpt><trkpt lat="44.50527694950383" lon="10.728458246926017"><ele>155.0</ele><time>2026-04-18T10:56:49Z</time></trkpt><trkpt lat="44.50537402555835" lon="10.728771010465678"><ele>155.0</ele><time>2026-04-18T10:56:50Z</time></trkpt><trkpt lat="44.505487732297524" lon="10.729132886851847"><ele>154.5</ele><time>2026-04-18T10:56:51Z</time></trkpt><trkpt lat="44.50561800236069" lon="10.729546479505041"><ele>154.0</ele><time>2026-04-18T10:56:52Z</time></trkpt><trkpt lat="44.505754112803444" lon="10.729979882715611"><ele>153.0</ele><time>2026-04-18T10:56:53Z</time></trkpt><trkpt lat="44.50586867018655" lon="10.730344656791187"><ele>152.0</ele><time>2026-04-18T10:56:54Z</time></trkpt><trkpt lat="44.50598523660036" lon="10.730665173362326"><ele>152.0</ele><time>2026-04-18T10:56:55Z</time></trkpt><trkpt lat="44.506086654662916" lon="10.730988348789896"><ele>152.0</ele><time>2026-04-18T10:56:56Z</time></trkpt><trkpt lat="44.50618510853671" lon="10.731300405073755"><ele>152.5</ele><time>2026-04-18T10:56:57Z</time></trkpt><trkpt lat="44.506282777815144" lon="10.731608784422617"><ele>153.0</ele><time>2026-04-18T10:56:58Z</time></trkpt><trkpt lat="44.50637160130761" lon="10.731896156397413"><ele>153.0</ele><time>2026-04-18T10:56:59Z</time></trkpt><trkpt lat="44.50645462130816" lon="10.732165463203442"><ele>153.0</ele><time>2026-04-18T10:57:00Z</time></trkpt><trkpt lat="44.506532315958104" lon="10.732408214666679"><ele>153.0</ele><time>2026-04-18T10:57:01Z</time></trkpt><trkpt lat="44.50661456545286" lon="10.732662886509361"><ele>151.33333333333334</ele><time>2026-04-18T10:57:02Z</time></trkpt><trkpt lat="44.50670165648974" lon="10.732914975079414"><ele>149.66666666666669</ele><time>2026-04-18T10:57:03Z</time></trkpt><trkpt lat="44.506798720850405" lon="10.733167569183419"><ele>148.0</ele><time>2026-04-18T10:57:04Z</time></trkpt><trkpt lat="44.50690387634428" lon="10.733425075315699"><ele>148.66666666666669</ele><time>2026-04-18T10:57:05Z</time></trkpt><trkpt lat="44.50701625720812" lon="10.733684248368151"><ele>149.33333333333334</ele><time>2026-04-18T10:57:06Z</time></trkpt><trkpt lat="44.50713196773575" lon="10.733934059250867"><ele>150.0</ele><time>2026-04-18T10:57:07Z</time></trkpt><trkpt lat="44.507254867384916" lon="10.734185127747176"><ele>149.0</ele><time>2026-04-18T10:57:08Z</time></trkpt><trkpt lat="44.507373450517775" lon="10.734432592155999"><ele>148.0</ele><time>2026-04-18T10:57:09Z</time></trkpt><trkpt lat="44.50750530989074" lon="10.734666710696176"><ele>147.0</ele><time>2026-04-18T10:57:10Z</time></trkpt><trkpt lat="44.50763827081983" lon="10.734906513637155"><ele>147.0</ele><time>2026-04-18T10:57:11Z</time></trkpt><trkpt lat="44.507771659438134" lon="10.735138332453953"><ele>147.0</ele><time>2026-04-18T10:57:12Z</time></trkpt><trkpt lat="44.507907062828984" lon="10.735356550499484"><ele>147.0</ele><time>2026-04-18T10:57:13Z</time></trkpt><trkpt lat="44.5080514312241" lon="10.735578650219272"><ele>147.33333333333334</ele><time>2026-04-18T10:57:14Z</time></trkpt><trkpt lat="44.508204256725215" lon="10.735802039764227"><ele>147.66666666666669</ele><time>2026-04-18T10:57:15Z</time></trkpt><trkpt lat="44.50835499692031" lon="10.73601326850834"><ele>148.0</ele><time>2026-04-18T10:57:16Z</time></trkpt><trkpt lat="44.50851043028529" lon="10.736218012059652"><ele>148.0</ele><time>2026-04-18T10:57:17Z</time></trkpt><trkpt lat="44.50866011533021" lon="10.736412498879739"><ele>148.0</ele><time>2026-04-18T10:57:18Z</time></trkpt><trkpt lat="44.508815577531905" lon="10.736603948665605"><ele>148.0</ele><time>2026-04-18T10:57:19Z</time></trkpt><trkpt lat="44.508976052582675" lon="10.736790098138501"><ele>146.66666666666669</ele><time>2026-04-18T10:57:20Z</time></trkpt><trkpt lat="44.509140013966004" lon="10.736972449237449"><ele>145.33333333333334</ele><time>2026-04-18T10:57:21Z</time></trkpt><trkpt lat="44.50929953784776" lon="10.737147655307265"><ele>144.0</ele><time>2026-04-18T10:57:22Z</time></trkpt><trkpt lat="44.50946906153581" lon="10.737321352745186"><ele>144.66666666666666</ele><time>2026-04-18T10:57:23Z</time></trkpt><trkpt lat="44.50963862899203" lon="10.737486302212687"><ele>145.33333333333331</ele><time>2026-04-18T10:57:24Z</time></trkpt><trkpt lat="44.50980757592406" lon="10.737644446960887"><ele>146.0</ele><time>2026-04-18T10:57:25Z</time></trkpt><trkpt lat="44.50998339389082" lon="10.737800977613462"><ele>146.0</ele><time>2026-04-18T10:57:26Z</time></trkpt><trkpt lat="44.51016267217043" lon="10.737958306344488"><ele>146.0</ele><time>2026-04-18T10:57:27Z</time></trkpt><trkpt lat="44.510332376842264" lon="10.738115733172405"><ele>146.0</ele><time>2026-04-18T10:57:28Z</time></trkpt><trkpt lat="44.510505133728714" lon="10.738274822736694"><ele>146.33333333333331</ele><time>2026-04-18T10:57:29Z</time></trkpt><trkpt lat="44.510681002706974" lon="10.738434703236141"><ele>146.66666666666666</ele><time>2026-04-18T10:57:30Z</time></trkpt><trkpt lat="44.510855516639765" lon="10.738593064612788"><ele>147.0</ele><time>2026-04-18T10:57:31Z</time></trkpt><trkpt lat="44.51103239145355" lon="10.738750701954535"><ele>147.33333333333334</ele><time>2026-04-18T10:57:32Z</time></trkpt><trkpt lat="44.511202664248486" lon="10.738908388465164"><ele>147.66666666666669</ele><time>2026-04-18T10:57:33Z</time></trkpt><trkpt lat="44.51137494139025" lon="10.739066756796381"><ele>148.0</ele><time>2026-04-18T10:57:34Z</time></trkpt><trkpt lat="44.511549999260914" lon="10.73922317866461"><ele>148.0</ele><time>2026-04-18T10:57:35Z</time></trkpt><trkpt lat="44.51172405651957" lon="10.739380083524697"><ele>148.0</ele><time>2026-04-18T10:57:36Z</time></trkpt><trkpt lat="44.511898267867686" lon="10.739536432738387"><ele>148.0</ele><time>2026-04-18T10:57:37Z</time></trkpt><trkpt lat="44.51207278898386" lon="10.739694315623867"><ele>147.33333333333334</ele><time>2026-04-18T10:57:38Z</time></trkpt><trkpt lat="44.512248430900925" lon="10.739852786230477"><ele>146.66666666666666</ele><time>2026-04-18T10:57:39Z</time></trkpt><trkpt lat="44.51242100614793" lon="10.740008694798059"><ele>146.0</ele><time>2026-04-18T10:57:40Z</time></trkpt><trkpt lat="44.51259698638667" lon="10.740167708666672"><ele>145.0</ele><time>2026-04-18T10:57:41Z</time></trkpt><trkpt lat="44.51277412307652" lon="10.740324432563717"><ele>144.0</ele><time>2026-04-18T10:57:42Z</time></trkpt><trkpt lat="44.512948066964405" lon="10.740479172898938"><ele>143.0</ele><time>2026-04-18T10:57:43Z</time></trkpt><trkpt lat="44.51312084119284" lon="10.740636820627406"><ele>143.0</ele><time>2026-04-18T10:57:44Z</time></trkpt><trkpt lat="44.51329348863465" lon="10.740792321552304"><ele>143.0</ele><time>2026-04-18T10:57:45Z</time></trkpt><trkpt lat="44.5134683027618" lon="10.740948014818112"><ele>143.0</ele><time>2026-04-18T10:57:46Z</time></trkpt><trkpt lat="44.51364505635389" lon="10.741105832771574"><ele>143.0</ele><time>2026-04-18T10:57:47Z</time></trkpt><trkpt lat="44.513820865040785" lon="10.741262252958252"><ele>143.0</ele><time>2026-04-18T10:57:48Z</time></trkpt><trkpt lat="44.51399360557946" lon="10.741417127938597"><ele>143.0</ele><time>2026-04-18T10:57:49Z</time></trkpt><trkpt lat="44.514168293348455" lon="10.741571933005693"><ele>143.0</ele><time>2026-04-18T10:57:50Z</time></trkpt><trkpt lat="44.51433757745348" lon="10.741727136107938"><ele>143.0</ele><time>2026-04-18T10:57:51Z</time></trkpt><trkpt lat="44.51450970980429" lon="10.741883520763594"><ele>143.0</ele><time>2026-04-18T10:57:52Z</time></trkpt><trkpt lat="44.51468318609176" lon="10.74203761481837"><ele>143.0</ele><time>2026-04-18T10:57:53Z</time></trkpt><trkpt lat="44.514860774400624" lon="10.742187676746488"><ele>143.0</ele><time>2026-04-18T10:57:54Z</time></trkpt><trkpt lat="44.51504116368865" lon="10.742335444585224"><ele>143.0</ele><time>2026-04-18T10:57:55Z</time></trkpt><trkpt lat="44.51522280712533" lon="10.742476957532512"><ele>143.33333333333331</ele><time>2026-04-18T10:57:56Z</time></trkpt><trkpt lat="44.51540652526604" lon="10.742610812810891"><ele>143.66666666666666</ele><time>2026-04-18T10:57:57Z</time></trkpt><trkpt lat="44.515579554035725" lon="10.74273223097093"><ele>144.0</ele><time>2026-04-18T10:57:58Z</time></trkpt><trkpt lat="44.51575895624754" lon="10.742852855711323"><ele>143.33333333333334</ele><time>2026-04-18T10:57:59Z</time></trkpt><trkpt lat="44.51593796488157" lon="10.742967786864366"><ele>142.66666666666669</ele><time>2026-04-18T10:58:00Z</time></trkpt><trkpt lat="44.51611210078073" lon="10.743078092960497"><ele>142.0</ele><time>2026-04-18T10:58:01Z</time></trkpt><trkpt lat="44.5162894771443" lon="10.743189438590155"><ele>142.0</ele><time>2026-04-18T10:58:02Z</time></trkpt><trkpt lat="44.516469844330636" lon="10.743298868482363"><ele>142.0</ele><time>2026-04-18T10:58:03Z</time></trkpt><trkpt lat="44.51665586417703" lon="10.743412373561249"><ele>142.0</ele><time>2026-04-18T10:58:04Z</time></trkpt><trkpt lat="44.516843031696105" lon="10.743520698143463"><ele>141.33333333333334</ele><time>2026-04-18T10:58:05Z</time></trkpt><trkpt lat="44.51704136292651" lon="10.74363447205758"><ele>140.66666666666666</ele><time>2026-04-18T10:58:06Z</time></trkpt><trkpt lat="44.517242791267755" lon="10.743748698662873"><ele>140.0</ele><time>2026-04-18T10:58:07Z</time></trkpt><trkpt lat="44.517446557460886" lon="10.743859209204663"><ele>140.0</ele><time>2026-04-18T10:58:08Z</time></trkpt><trkpt lat="44.51765377706319" lon="10.743969275988112"><ele>140.0</ele><time>2026-04-18T10:58:09Z</time></trkpt><trkpt lat="44.51786273395405" lon="10.744078030745793"><ele>140.0</ele><time>2026-04-18T10:58:10Z</time></trkpt><trkpt lat="44.518079536338945" lon="10.7441872877508"><ele>140.5</ele><time>2026-04-18T10:58:11Z</time></trkpt><trkpt lat="44.518295521191945" lon="10.744303323221324"><ele>141.0</ele><time>2026-04-18T10:58:12Z</time></trkpt><trkpt lat="44.51851787756677" lon="10.744420547847861"><ele>139.0</ele><time>2026-04-18T10:58:13Z</time></trkpt><trkpt lat="44.51874048487365" lon="10.74454211516564"><ele>137.0</ele><time>2026-04-18T10:58:14Z</time></trkpt><trkpt lat="44.51895583763896" lon="10.74466380813619"><ele>137.0</ele><time>2026-04-18T10:58:15Z</time></trkpt><trkpt lat="44.519169356427575" lon="10.744772932869248"><ele>137.0</ele><time>2026-04-18T10:58:16Z</time></trkpt><trkpt lat="44.51938236437354" lon="10.744886464221489"><ele>137.5</ele><time>2026-04-18T10:58:17Z</time></trkpt><trkpt lat="44.51959721906175" lon="10.745002137603167"><ele>138.0</ele><time>2026-04-18T10:58:18Z</time></trkpt><trkpt lat="44.51981160084645" lon="10.745119344764003"><ele>136.0</ele><time>2026-04-18T10:58:19Z</time></trkpt><trkpt lat="44.52002977261582" lon="10.74522985155612"><ele>134.0</ele><time>2026-04-18T10:58:20Z</time></trkpt><trkpt lat="44.52024916173834" lon="10.745340248888185"><ele>136.5</ele><time>2026-04-18T10:58:21Z</time></trkpt><trkpt lat="44.520462266157466" lon="10.74544946715475"><ele>139.0</ele><time>2026-04-18T10:58:22Z</time></trkpt><trkpt lat="44.520679949447334" lon="10.745557091064786"><ele>139.0</ele><time>2026-04-18T10:58:23Z</time></trkpt><trkpt lat="44.52089220776505" lon="10.745668109073888"><ele>139.0</ele><time>2026-04-18T10:58:24Z</time></trkpt><trkpt lat="44.52110621530104" lon="10.745781742023325"><ele>138.0</ele><time>2026-04-18T10:58:25Z</time></trkpt><trkpt lat="44.521328677283" lon="10.745893042168174"><ele>137.0</ele><time>2026-04-18T10:58:26Z</time></trkpt><trkpt lat="44.521549046647024" lon="10.746001102051066"><ele>136.0</ele><time>2026-04-18T10:58:27Z</time></trkpt><trkpt lat="44.52176191832114" lon="10.74610068200452"><ele>135.0</ele><time>2026-04-18T10:58:28Z</time></trkpt><trkpt lat="44.521967995859356" lon="10.746202454914506"><ele>134.0</ele><time>2026-04-18T10:58:29Z</time></trkpt><trkpt lat="44.52217686044921" lon="10.746296041404475"><ele>134.0</ele><time>2026-04-18T10:58:30Z</time></trkpt><trkpt lat="44.522375746223375" lon="10.746397112266386"><ele>134.0</ele><time>2026-04-18T10:58:31Z</time></trkpt><trkpt lat="44.522571351149594" lon="10.746493103926623"><ele>134.0</ele><time>2026-04-18T10:58:32Z</time></trkpt><trkpt lat="44.522767510693185" lon="10.746590989199362"><ele>134.33333333333331</ele><time>2026-04-18T10:58:33Z</time></trkpt><trkpt lat="44.522967848622336" lon="10.74668701523326"><ele>134.66666666666666</ele><time>2026-04-18T10:58:34Z</time></trkpt><trkpt lat="44.523162139693916" lon="10.746788514374481"><ele>135.0</ele><time>2026-04-18T10:58:35Z</time></trkpt><trkpt lat="44.52335335380847" lon="10.746893892549247"><ele>135.0</ele><time>2026-04-18T10:58:36Z</time></trkpt><trkpt lat="44.52353102870049" lon="10.746995445287185"><ele>135.0</ele><time>2026-04-18T10:58:37Z</time></trkpt><trkpt lat="44.523703281373166" lon="10.747103242185851"><ele>135.0</ele><time>2026-04-18T10:58:38Z</time></trkpt><trkpt lat="44.523860567340655" lon="10.747209914334462"><ele>135.33333333333334</ele><time>2026-04-18T10:58:39Z</time></trkpt><trkpt lat="44.52402265548779" lon="10.74730889696241"><ele>135.66666666666669</ele><time>2026-04-18T10:58:40Z</time></trkpt><trkpt lat="44.524181666006584" lon="10.74741017825286"><ele>136.0</ele><time>2026-04-18T10:58:41Z</time></trkpt><trkpt lat="44.52432935439299" lon="10.747505782672816"><ele>136.0</ele><time>2026-04-18T10:58:42Z</time></trkpt><trkpt lat="44.5244616539219" lon="10.747597435462115"><ele>136.0</ele><time>2026-04-18T10:58:43Z</time></trkpt><trkpt lat="44.5245985773436" lon="10.747691535060278"><ele>136.0</ele><time>2026-04-18T10:58:44Z</time></trkpt><trkpt lat="44.524735576308636" lon="10.747788444414345"><ele>136.0</ele><time>2026-04-18T10:58:45Z</time></trkpt><trkpt lat="44.52487728711159" lon="10.747891339186884"><ele>136.0</ele><time>2026-04-18T10:58:46Z</time></trkpt><trkpt lat="44.52502059090754" lon="10.747998764925926"><ele>136.0</ele><time>2026-04-18T10:58:47Z</time></trkpt><trkpt lat="44.5251685923812" lon="10.748112447716489"><ele>136.0</ele><time>2026-04-18T10:58:48Z</time></trkpt><trkpt lat="44.52531844558843" lon="10.748230166365861"><ele>136.0</ele><time>2026-04-18T10:58:49Z</time></trkpt><trkpt lat="44.52546821951169" lon="10.74834753392823"><ele>136.0</ele><time>2026-04-18T10:58:50Z</time></trkpt><trkpt lat="44.52560514681655" lon="10.748455794025816"><ele>135.33333333333334</ele><time>2026-04-18T10:58:51Z</time></trkpt><trkpt lat="44.52575234001187" lon="10.748576528372194"><ele>134.66666666666666</ele><time>2026-04-18T10:58:52Z</time></trkpt><trkpt lat="44.52589445653912" lon="10.748693857393187"><ele>134.0</ele><time>2026-04-18T10:58:53Z</time></trkpt><trkpt lat="44.52603972858212" lon="10.748819008431703"><ele>134.0</ele><time>2026-04-18T10:58:54Z</time></trkpt><trkpt lat="44.52618009706345" lon="10.74894574563394"><ele>134.0</ele><time>2026-04-18T10:58:55Z</time></trkpt><trkpt lat="44.5263200168535" lon="10.749076581586547"><ele>134.0</ele><time>2026-04-18T10:58:56Z</time></trkpt><trkpt lat="44.52645094769694" lon="10.749200010908785"><ele>134.0</ele><time>2026-04-18T10:58:57Z</time></trkpt><trkpt lat="44.52658593426572" lon="10.749325716188704"><ele>134.0</ele><time>2026-04-18T10:58:58Z</time></trkpt><trkpt lat="44.52672512057056" lon="10.74945517252951"><ele>134.0</ele><time>2026-04-18T10:58:59Z</time></trkpt><trkpt lat="44.52686484648839" lon="10.749590852645277"><ele>134.0</ele><time>2026-04-18T10:59:00Z</time></trkpt><trkpt lat="44.5270039068946" lon="10.749729867485526"><ele>134.0</ele><time>2026-04-18T10:59:01Z</time></trkpt><trkpt lat="44.52714371826088" lon="10.749873554917729"><ele>134.0</ele><time>2026-04-18T10:59:02Z</time></trkpt><trkpt lat="44.52728697845731" lon="10.750022604152527"><ele>134.0</ele><time>2026-04-18T10:59:03Z</time></trkpt><trkpt lat="44.5274323508135" lon="10.750168553063794"><ele>134.0</ele><time>2026-04-18T10:59:04Z</time></trkpt><trkpt lat="44.527578939930365" lon="10.750317082739283"><ele>134.0</ele><time>2026-04-18T10:59:05Z</time></trkpt><trkpt lat="44.52772394657697" lon="10.750460380279382"><ele>133.66666666666666</ele><time>2026-04-18T10:59:06Z</time></trkpt><trkpt lat="44.52787454730193" lon="10.75060613053211"><ele>133.33333333333334</ele><time>2026-04-18T10:59:07Z</time></trkpt><trkpt lat="44.52802917239385" lon="10.75075997692704"><ele>133.0</ele><time>2026-04-18T10:59:08Z</time></trkpt><trkpt lat="44.528187210927314" lon="10.75091665441387"><ele>132.33333333333334</ele><time>2026-04-18T10:59:09Z</time></trkpt><trkpt lat="44.528354584705596" lon="10.751082627592517"><ele>131.66666666666666</ele><time>2026-04-18T10:59:10Z</time></trkpt><trkpt lat="44.528533304335916" lon="10.751260686688815"><ele>131.0</ele><time>2026-04-18T10:59:11Z</time></trkpt><trkpt lat="44.52871583796176" lon="10.751439643867718"><ele>131.5</ele><time>2026-04-18T10:59:12Z</time></trkpt><trkpt lat="44.52890579045335" lon="10.75162181081808"><ele>132.0</ele><time>2026-04-18T10:59:13Z</time></trkpt><trkpt lat="44.529089718206045" lon="10.751798059192367"><ele>131.5</ele><time>2026-04-18T10:59:14Z</time></trkpt><trkpt lat="44.529293999303434" lon="10.75199542148613"><ele>131.0</ele><time>2026-04-18T10:59:15Z</time></trkpt><trkpt lat="44.529504479125315" lon="10.752201242026027"><ele>130.5</ele><time>2026-04-18T10:59:16Z</time></trkpt><trkpt lat="44.529700418138326" lon="10.752396839143083"><ele>130.0</ele><time>2026-04-18T10:59:17Z</time></trkpt><trkpt lat="44.529884089802565" lon="10.752591584166712"><ele>130.33333333333334</ele><time>2026-04-18T10:59:18Z</time></trkpt><trkpt lat="44.53006104138831" lon="10.752775793762222"><ele>130.66666666666666</ele><time>2026-04-18T10:59:19Z</time></trkpt><trkpt lat="44.53022988927492" lon="10.75294965202478"><ele>131.0</ele><time>2026-04-18T10:59:20Z</time></trkpt><trkpt lat="44.530398069878025" lon="10.753113626738635"><ele>129.0</ele><time>2026-04-18T10:59:21Z</time></trkpt><trkpt lat="44.530588090499116" lon="10.753294731588468"><ele>127.0</ele><time>2026-04-18T10:59:22Z</time></trkpt><trkpt lat="44.530785606886305" lon="10.753515976081674"><ele>126.5</ele><time>2026-04-18T10:59:23Z</time></trkpt><trkpt lat="44.53103918976451" lon="10.75377126359738"><ele>126.0</ele><time>2026-04-18T10:59:24Z</time></trkpt><trkpt lat="44.53133467357078" lon="10.754068733744562"><ele>126.5</ele><time>2026-04-18T10:59:25Z</time></trkpt><trkpt lat="44.531631211535554" lon="10.7543431510179"><ele>127.0</ele><time>2026-04-18T10:59:26Z</time></trkpt><trkpt lat="44.53187086483419" lon="10.754593833023096"><ele>126.0</ele><time>2026-04-18T10:59:27Z</time></trkpt><trkpt lat="44.532105081535" lon="10.75483082358528"><ele>125.0</ele><time>2026-04-18T10:59:28Z</time></trkpt><trkpt lat="44.532342583934685" lon="10.755067587817619"><ele>124.0</ele><time>2026-04-18T10:59:29Z</time></trkpt><trkpt lat="44.5325737699843" lon="10.755301704688401"><ele>123.0</ele><time>2026-04-18T10:59:30Z</time></trkpt><trkpt lat="44.53279756451391" lon="10.755530494334367"><ele>125.0</ele><time>2026-04-18T10:59:31Z</time></trkpt><trkpt lat="44.53301995136737" lon="10.755756546391813"><ele>127.0</ele><time>2026-04-18T10:59:32Z</time></trkpt><trkpt lat="44.53324000843022" lon="10.755977750126155"><ele>124.5</ele><time>2026-04-18T10:59:33Z</time></trkpt><trkpt lat="44.53344499291991" lon="10.756185805462284"><ele>122.0</ele><time>2026-04-18T10:59:34Z</time></trkpt><trkpt lat="44.533646358806486" lon="10.75638720473327"><ele>122.0</ele><time>2026-04-18T10:59:35Z</time></trkpt><trkpt lat="44.53382714232407" lon="10.756570142643026"><ele>122.0</ele><time>2026-04-18T10:59:36Z</time></trkpt><trkpt lat="44.533997178238586" lon="10.75673879192003"><ele>122.0</ele><time>2026-04-18T10:59:37Z</time></trkpt><trkpt lat="44.53415014852906" lon="10.756892701641723"><ele>122.0</ele><time>2026-04-18T10:59:38Z</time></trkpt><trkpt lat="44.534299043295896" lon="10.757043377806372"><ele>122.0</ele><time>2026-04-18T10:59:39Z</time></trkpt><trkpt lat="44.53445005269301" lon="10.757198258682596"><ele>122.0</ele><time>2026-04-18T10:59:40Z</time></trkpt><trkpt lat="44.53459921321268" lon="10.757343210992449"><ele>122.0</ele><time>2026-04-18T10:59:41Z</time></trkpt><trkpt lat="44.53474595704783" lon="10.7574873123558"><ele>122.0</ele><time>2026-04-18T10:59:42Z</time></trkpt><trkpt lat="44.534888053958106" lon="10.757626957801667"><ele>122.0</ele><time>2026-04-18T10:59:43Z</time></trkpt><trkpt lat="44.53502468981069" lon="10.757761626053188"><ele>122.0</ele><time>2026-04-18T10:59:44Z</time></trkpt><trkpt lat="44.53515640525037" lon="10.757894875367404"><ele>122.0</ele><time>2026-04-18T10:59:45Z</time></trkpt><trkpt lat="44.53529792863847" lon="10.758039591918724"><ele>122.0</ele><time>2026-04-18T10:59:46Z</time></trkpt><trkpt lat="44.53544769264776" lon="10.758191442501928"><ele>122.0</ele><time>2026-04-18T10:59:47Z</time></trkpt><trkpt lat="44.53562960755057" lon="10.758360905930681"><ele>122.0</ele><time>2026-04-18T10:59:48Z</time></trkpt><trkpt lat="44.53586633226503" lon="10.758588152444544"><ele>123.0</ele><time>2026-04-18T10:59:49Z</time></trkpt><trkpt lat="44.536147880862636" lon="10.758870286251884"><ele>124.0</ele><time>2026-04-18T10:59:50Z</time></trkpt><trkpt lat="44.53642316294936" lon="10.759165352722972"><ele>123.0</ele><time>2026-04-18T10:59:51Z</time></trkpt><trkpt lat="44.5366711994204" lon="10.759435141889874"><ele>122.0</ele><time>2026-04-18T10:59:52Z</time></trkpt><trkpt lat="44.53691515175197" lon="10.759684810991377"><ele>122.0</ele><time>2026-04-18T10:59:53Z</time></trkpt><trkpt lat="44.537145150526996" lon="10.759914677156468"><ele>122.0</ele><time>2026-04-18T10:59:54Z</time></trkpt><trkpt lat="44.537360516043854" lon="10.760131694906532"><ele>120.0</ele><time>2026-04-18T10:59:55Z</time></trkpt><trkpt lat="44.53755561540257" lon="10.760335053174297"><ele>118.0</ele><time>2026-04-18T10:59:56Z</time></trkpt><trkpt lat="44.537756750135486" lon="10.760538749736716"><ele>119.0</ele><time>2026-04-18T10:59:57Z</time></trkpt><trkpt lat="44.537964157512505" lon="10.760746032053493"><ele>120.0</ele><time>2026-04-18T10:59:58Z</time></trkpt><trkpt lat="44.538171039619115" lon="10.760955697428992"><ele>120.33333333333334</ele><time>2026-04-18T10:59:59Z</time></trkpt><trkpt lat="44.53836342480721" lon="10.761151999113734"><ele>120.66666666666667</ele><time>2026-04-18T11:00:00Z</time></trkpt><trkpt lat="44.53853097114208" lon="10.761323606626165"><ele>121.0</ele><time>2026-04-18T11:00:01Z</time></trkpt><trkpt lat="44.53869607691969" lon="10.761486013808822"><ele>121.0</ele><time>2026-04-18T11:00:02Z</time></trkpt><trkpt lat="44.538859122747446" lon="10.76164616800783"><ele>121.0</ele><time>2026-04-18T11:00:03Z</time></trkpt><trkpt lat="44.5390130882481" lon="10.761800523001837"><ele>121.0</ele><time>2026-04-18T11:00:04Z</time></trkpt><trkpt lat="44.539158679137266" lon="10.761950294300389"><ele>121.0</ele><time>2026-04-18T11:00:05Z</time></trkpt><trkpt lat="44.53929829063453" lon="10.762089124327876"><ele>121.0</ele><time>2026-04-18T11:00:06Z</time></trkpt><trkpt lat="44.53943586602347" lon="10.762226658872587"><ele>121.0</ele><time>2026-04-18T11:00:07Z</time></trkpt><trkpt lat="44.53955964028415" lon="10.762345525769385"><ele>120.0</ele><time>2026-04-18T11:00:08Z</time></trkpt><trkpt lat="44.53967546416204" lon="10.762454236906887"><ele>119.0</ele><time>2026-04-18T11:00:09Z</time></trkpt><trkpt lat="44.53979785315973" lon="10.762562030296907"><ele>118.0</ele><time>2026-04-18T11:00:10Z</time></trkpt><trkpt lat="44.539919346809086" lon="10.762668856140413"><ele>117.0</ele><time>2026-04-18T11:00:11Z</time></trkpt><trkpt lat="44.54002947303883" lon="10.762767851404337"><ele>116.8</ele><time>2026-04-18T11:00:12Z</time></trkpt><trkpt lat="44.54012665024191" lon="10.762857325708634"><ele>116.6</ele><time>2026-04-18T11:00:13Z</time></trkpt><trkpt lat="44.54021868769336" lon="10.762943735332298"><ele>116.39999999999999</ele><time>2026-04-18T11:00:14Z</time></trkpt><trkpt lat="44.54031374433868" lon="10.763024116694387"><ele>116.19999999999999</ele><time>2026-04-18T11:00:15Z</time></trkpt><trkpt lat="44.54040178496409" lon="10.763097342225151"><ele>116.0</ele><time>2026-04-18T11:00:16Z</time></trkpt><trkpt lat="44.540478586304026" lon="10.763155518571478"><ele>116.8</ele><time>2026-04-18T11:00:17Z</time></trkpt><trkpt lat="44.54056218149992" lon="10.763212349556856"><ele>117.6</ele><time>2026-04-18T11:00:18Z</time></trkpt><trkpt lat="44.54064983381361" lon="10.763264726441463"><ele>118.4</ele><time>2026-04-18T11:00:19Z</time></trkpt><trkpt lat="44.540730913310625" lon="10.763315323973787"><ele>119.2</ele><time>2026-04-18T11:00:20Z</time></trkpt><trkpt lat="44.54080433402605" lon="10.763383105892352"><ele>120.0</ele><time>2026-04-18T11:00:21Z</time></trkpt><trkpt lat="44.54086832269381" lon="10.763467193225358"><ele>119.2</ele><time>2026-04-18T11:00:22Z</time></trkpt><trkpt lat="44.54093026086696" lon="10.76355735247904"><ele>118.4</ele><time>2026-04-18T11:00:23Z</time></trkpt><trkpt lat="44.54101773224449" lon="10.763631583652096"><ele>117.6</ele><time>2026-04-18T11:00:24Z</time></trkpt><trkpt lat="44.541117548172075" lon="10.763684209229588"><ele>116.8</ele><time>2026-04-18T11:00:25Z</time></trkpt><trkpt lat="44.54123285913862" lon="10.763754118284403"><ele>116.0</ele><time>2026-04-18T11:00:26Z</time></trkpt><trkpt lat="44.54135252885094" lon="10.763846592366717"><ele>115.33333333333333</ele><time>2026-04-18T11:00:27Z</time></trkpt><trkpt lat="44.54147609395909" lon="10.763953901300797"><ele>114.66666666666666</ele><time>2026-04-18T11:00:28Z</time></trkpt><trkpt lat="44.54159655683552" lon="10.764093224065837"><ele>114.0</ele><time>2026-04-18T11:00:29Z</time></trkpt><trkpt lat="44.5417428263757" lon="10.764257484085475"><ele>113.5</ele><time>2026-04-18T11:00:30Z</time></trkpt><trkpt lat="44.54194755260422" lon="10.764434214043293"><ele>113.0</ele><time>2026-04-18T11:00:31Z</time></trkpt><trkpt lat="44.54219715852601" lon="10.76460951838057"><ele>115.5</ele><time>2026-04-18T11:00:32Z</time></trkpt><trkpt lat="44.54244325647972" lon="10.76482197805586"><ele>118.0</ele><time>2026-04-18T11:00:33Z</time></trkpt><trkpt lat="44.542674895476" lon="10.765008388407676"><ele>118.0</ele><time>2026-04-18T11:00:34Z</time></trkpt><trkpt lat="44.54290772810755" lon="10.765172169626453"><ele>118.0</ele><time>2026-04-18T11:00:35Z</time></trkpt><trkpt lat="44.54313121182115" lon="10.765345353450428"><ele>118.0</ele><time>2026-04-18T11:00:36Z</time></trkpt><trkpt lat="44.54334036628256" lon="10.765512192764186"><ele>118.0</ele><time>2026-04-18T11:00:37Z</time></trkpt><trkpt lat="44.5435399628081" lon="10.765670124516811"><ele>117.5</ele><time>2026-04-18T11:00:38Z</time></trkpt><trkpt lat="44.543747574159255" lon="10.765822541510502"><ele>117.0</ele><time>2026-04-18T11:00:39Z</time></trkpt><trkpt lat="44.54395239908601" lon="10.76597161650468"><ele>116.0</ele><time>2026-04-18T11:00:40Z</time></trkpt><trkpt lat="44.544155249226364" lon="10.76610977698305"><ele>115.0</ele><time>2026-04-18T11:00:41Z</time></trkpt><trkpt lat="44.54435637938744" lon="10.766264347886347"><ele>115.33333333333334</ele><time>2026-04-18T11:00:42Z</time></trkpt><trkpt lat="44.54456468907723" lon="10.76638667056743"><ele>115.66666666666666</ele><time>2026-04-18T11:00:43Z</time></trkpt><trkpt lat="44.54477357311468" lon="10.766478982274881"><ele>116.0</ele><time>2026-04-18T11:00:44Z</time></trkpt><trkpt lat="44.54497256571693" lon="10.766583895014039"><ele>116.0</ele><time>2026-04-18T11:00:45Z</time></trkpt><trkpt lat="44.54517081430705" lon="10.766677785617144"><ele>116.0</ele><time>2026-04-18T11:00:46Z</time></trkpt><trkpt lat="44.545362145908015" lon="10.766761170210442"><ele>116.0</ele><time>2026-04-18T11:00:47Z</time></trkpt><trkpt lat="44.5455591015744" lon="10.766848375651152"><ele>116.0</ele><time>2026-04-18T11:00:48Z</time></trkpt><trkpt lat="44.545774713290115" lon="10.766933535805617"><ele>116.0</ele><time>2026-04-18T11:00:49Z</time></trkpt><trkpt lat="44.54598253406861" lon="10.767019418332708"><ele>116.0</ele><time>2026-04-18T11:00:50Z</time></trkpt><trkpt lat="44.54619987142939" lon="10.767112350619449"><ele>116.33333333333333</ele><time>2026-04-18T11:00:51Z</time></trkpt><trkpt lat="44.54638966110888" lon="10.767191188256355"><ele>116.66666666666666</ele><time>2026-04-18T11:00:52Z</time></trkpt><trkpt lat="44.54656616482802" lon="10.767266091602574"><ele>117.0</ele><time>2026-04-18T11:00:53Z</time></trkpt><trkpt lat="44.54672994171337" lon="10.767336954724238"><ele>117.0</ele><time>2026-04-18T11:00:54Z</time></trkpt><trkpt lat="44.54689183515189" lon="10.767405668083933"><ele>117.0</ele><time>2026-04-18T11:00:55Z</time></trkpt><trkpt lat="44.54706487532421" lon="10.767474734210953"><ele>117.0</ele><time>2026-04-18T11:00:56Z</time></trkpt><trkpt lat="44.547253847470074" lon="10.767554047960683"><ele>116.66666666666666</ele><time>2026-04-18T11:00:57Z</time></trkpt><trkpt lat="44.54745523346292" lon="10.767658701685173"><ele>116.33333333333333</ele><time>2026-04-18T11:00:58Z</time></trkpt><trkpt lat="44.547664328374914" lon="10.767747843663102"><ele>116.0</ele><time>2026-04-18T11:00:59Z</time></trkpt><trkpt lat="44.5478719683578" lon="10.76781594193468"><ele>114.66666666666666</ele><time>2026-04-18T11:01:00Z</time></trkpt><trkpt lat="44.54805513088808" lon="10.767897944749748"><ele>113.33333333333334</ele><time>2026-04-18T11:01:01Z</time></trkpt><trkpt lat="44.54822988228843" lon="10.767969297192652"><ele>112.0</ele><time>2026-04-18T11:01:02Z</time></trkpt><trkpt lat="44.548397259079834" lon="10.768039281432015"><ele>112.0</ele><time>2026-04-18T11:01:03Z</time></trkpt><trkpt lat="44.54856265300226" lon="10.768109371811661"><ele>112.0</ele><time>2026-04-18T11:01:04Z</time></trkpt><trkpt lat="44.548723381621265" lon="10.768176633239507"><ele>112.0</ele><time>2026-04-18T11:01:05Z</time></trkpt><trkpt lat="44.548861149922764" lon="10.768240571120172"><ele>112.66666666666667</ele><time>2026-04-18T11:01:06Z</time></trkpt><trkpt lat="44.549006629111275" lon="10.768312895499019"><ele>113.33333333333334</ele><time>2026-04-18T11:01:07Z</time></trkpt><trkpt lat="44.54916296690981" lon="10.768383506892082"><ele>114.0</ele><time>2026-04-18T11:01:08Z</time></trkpt><trkpt lat="44.5493239196669" lon="10.768451721604047"><ele>114.0</ele><time>2026-04-18T11:01:09Z</time></trkpt><trkpt lat="44.54947770121126" lon="10.768517740004471"><ele>114.0</ele><time>2026-04-18T11:01:10Z</time></trkpt><trkpt lat="44.54963193584472" lon="10.768575304467753"><ele>114.0</ele><time>2026-04-18T11:01:11Z</time></trkpt><trkpt lat="44.549789800784936" lon="10.768635094906507"><ele>112.0</ele><time>2026-04-18T11:01:12Z</time></trkpt><trkpt lat="44.54996272928635" lon="10.768703718663915"><ele>110.0</ele><time>2026-04-18T11:01:13Z</time></trkpt><trkpt lat="44.550149386350256" lon="10.768780911324436"><ele>108.0</ele><time>2026-04-18T11:01:14Z</time></trkpt><trkpt lat="44.55038331482672" lon="10.76886988153274"><ele>108.0</ele><time>2026-04-18T11:01:15Z</time></trkpt><trkpt lat="44.55064743975842" lon="10.76896442242625"><ele>108.0</ele><time>2026-04-18T11:01:16Z</time></trkpt><trkpt lat="44.55089154212537" lon="10.769055447244249"><ele>108.0</ele><time>2026-04-18T11:01:17Z</time></trkpt><trkpt lat="44.55112422807642" lon="10.7691160449842"><ele>108.0</ele><time>2026-04-18T11:01:18Z</time></trkpt><trkpt lat="44.55133429075998" lon="10.769147128047887"><ele>108.0</ele><time>2026-04-18T11:01:19Z</time></trkpt><trkpt lat="44.55153462396125" lon="10.769163541216118"><ele>107.66666666666666</ele><time>2026-04-18T11:01:20Z</time></trkpt><trkpt lat="44.55172903024189" lon="10.7691826682856"><ele>107.33333333333333</ele><time>2026-04-18T11:01:21Z</time></trkpt><trkpt lat="44.55191445706219" lon="10.769198133021904"><ele>107.0</ele><time>2026-04-18T11:01:22Z</time></trkpt><trkpt lat="44.55209828981777" lon="10.769213845166439"><ele>106.75</ele><time>2026-04-18T11:01:23Z</time></trkpt><trkpt lat="44.55218541681476" lon="10.769246914071138"><ele>106.5</ele><time>2026-04-18T11:01:24Z</time></trkpt><trkpt lat="44.55233195187168" lon="10.769279588908011"><ele>106.25</ele><time>2026-04-18T11:01:25Z</time></trkpt><trkpt lat="44.55248510063537" lon="10.769229541245103"><ele>106.0</ele><time>2026-04-18T11:01:26Z</time></trkpt><trkpt lat="44.552684575340635" lon="10.769111059716801"><ele>107.0</ele><time>2026-04-18T11:01:27Z</time></trkpt><trkpt lat="44.552933837044996" lon="10.768994135940199"><ele>108.0</ele><time>2026-04-18T11:01:28Z</time></trkpt><trkpt lat="44.553209360511026" lon="10.768882506753695"><ele>108.0</ele><time>2026-04-18T11:01:29Z</time></trkpt><trkpt lat="44.55349285514653" lon="10.768748603985943"><ele>108.0</ele><time>2026-04-18T11:01:30Z</time></trkpt><trkpt lat="44.55376816360989" lon="10.768591724184612"><ele>108.5</ele><time>2026-04-18T11:01:31Z</time></trkpt><trkpt lat="44.5540455336349" lon="10.768422459382354"><ele>109.0</ele><time>2026-04-18T11:01:32Z</time></trkpt><trkpt lat="44.55430275227694" lon="10.768267282917831"><ele>109.0</ele><time>2026-04-18T11:01:33Z</time></trkpt><trkpt lat="44.5545294243243" lon="10.768131891472905"><ele>109.0</ele><time>2026-04-18T11:01:34Z</time></trkpt><trkpt lat="44.55475353786763" lon="10.767996712390532"><ele>108.5</ele><time>2026-04-18T11:01:35Z</time></trkpt><trkpt lat="44.55498326847822" lon="10.767856833870917"><ele>108.0</ele><time>2026-04-18T11:01:36Z</time></trkpt><trkpt lat="44.55519211452857" lon="10.76772911967328"><ele>108.0</ele><time>2026-04-18T11:01:37Z</time></trkpt><trkpt lat="44.555395362171" lon="10.767613765054177"><ele>108.0</ele><time>2026-04-18T11:01:38Z</time></trkpt><trkpt lat="44.55559736770357" lon="10.767492450627454"><ele>108.0</ele><time>2026-04-18T11:01:39Z</time></trkpt><trkpt lat="44.555816451408745" lon="10.767389328262398"><ele>108.0</ele><time>2026-04-18T11:01:40Z</time></trkpt><trkpt lat="44.5560509226192" lon="10.76730700935256"><ele>108.0</ele><time>2026-04-18T11:01:41Z</time></trkpt><trkpt lat="44.5562832200049" lon="10.76723831340262"><ele>107.66666666666666</ele><time>2026-04-18T11:01:42Z</time></trkpt><trkpt lat="44.55650549830157" lon="10.767184269898928"><ele>107.33333333333333</ele><time>2026-04-18T11:01:43Z</time></trkpt><trkpt lat="44.55671223479162" lon="10.767130716021292"><ele>107.0</ele><time>2026-04-18T11:01:44Z</time></trkpt><trkpt lat="44.5568986498294" lon="10.767094477386765"><ele>107.0</ele><time>2026-04-18T11:01:45Z</time></trkpt><trkpt lat="44.557070127262804" lon="10.767073800816673"><ele>107.0</ele><time>2026-04-18T11:01:46Z</time></trkpt><trkpt lat="44.55722573554935" lon="10.767075352549577"><ele>107.0</ele><time>2026-04-18T11:01:47Z</time></trkpt><trkpt lat="44.55738791160511" lon="10.767096186459785"><ele>107.0</ele><time>2026-04-18T11:01:48Z</time></trkpt><trkpt lat="44.55755275515401" lon="10.767142287731827"><ele>107.0</ele><time>2026-04-18T11:01:49Z</time></trkpt><trkpt lat="44.55772301482196" lon="10.767220562353776"><ele>107.0</ele><time>2026-04-18T11:01:50Z</time></trkpt><trkpt lat="44.55789132857837" lon="10.76731823988532"><ele>107.66666666666666</ele><time>2026-04-18T11:01:51Z</time></trkpt><trkpt lat="44.558052966630264" lon="10.767438325579011"><ele>108.33333333333334</ele><time>2026-04-18T11:01:52Z</time></trkpt><trkpt lat="44.55822056086558" lon="10.767593405778273"><ele>109.0</ele><time>2026-04-18T11:01:53Z</time></trkpt><trkpt lat="44.55838918699071" lon="10.76777877191686"><ele>109.0</ele><time>2026-04-18T11:01:54Z</time></trkpt><trkpt lat="44.55856231246802" lon="10.767992488690124"><ele>109.0</ele><time>2026-04-18T11:01:55Z</time></trkpt><trkpt lat="44.55874455422498" lon="10.768235495661806"><ele>110.0</ele><time>2026-04-18T11:01:56Z</time></trkpt><trkpt lat="44.55892105327996" lon="10.76846532620746"><ele>111.0</ele><time>2026-04-18T11:01:57Z</time></trkpt><trkpt lat="44.55908973093365" lon="10.768669875665083"><ele>109.66666666666666</ele><time>2026-04-18T11:01:58Z</time></trkpt><trkpt lat="44.55923821394999" lon="10.76884815111437"><ele>108.33333333333333</ele><time>2026-04-18T11:01:59Z</time></trkpt><trkpt lat="44.559372115277384" lon="10.769026667466694"><ele>107.0</ele><time>2026-04-18T11:02:00Z</time></trkpt><trkpt lat="44.55945896316933" lon="10.769203125473675"><ele>106.33333333333333</ele><time>2026-04-18T11:02:01Z</time></trkpt><trkpt lat="44.559539953889754" lon="10.769397570858112"><ele>105.66666666666666</ele><time>2026-04-18T11:02:02Z</time></trkpt><trkpt lat="44.559601461358305" lon="10.769613529063031"><ele>105.0</ele><time>2026-04-18T11:02:03Z</time></trkpt><trkpt lat="44.55963550680333" lon="10.769838437633522"><ele>105.0</ele><time>2026-04-18T11:02:04Z</time></trkpt><trkpt lat="44.55964622487528" lon="10.770080111651454"><ele>105.0</ele><time>2026-04-18T11:02:05Z</time></trkpt><trkpt lat="44.559631123631895" lon="10.770343247739929"><ele>105.0</ele><time>2026-04-18T11:02:06Z</time></trkpt><trkpt lat="44.55959784168263" lon="10.770642486997067"><ele>103.5</ele><time>2026-04-18T11:02:07Z</time></trkpt><trkpt lat="44.559558410124126" lon="10.770995754683756"><ele>102.0</ele><time>2026-04-18T11:02:08Z</time></trkpt><trkpt lat="44.559521459528746" lon="10.771400820249259"><ele>101.5</ele><time>2026-04-18T11:02:09Z</time></trkpt><trkpt lat="44.5594812499273" lon="10.771834533897287"><ele>101.0</ele><time>2026-04-18T11:02:10Z</time></trkpt><trkpt lat="44.55944102982374" lon="10.772262952169024"><ele>99.5</ele><time>2026-04-18T11:02:11Z</time></trkpt><trkpt lat="44.559401414726544" lon="10.772662459093274"><ele>98.0</ele><time>2026-04-18T11:02:12Z</time></trkpt><trkpt lat="44.55936414426806" lon="10.773046021720779"><ele>98.0</ele><time>2026-04-18T11:02:13Z</time></trkpt><trkpt lat="44.559331492687434" lon="10.773421129381479"><ele>98.0</ele><time>2026-04-18T11:02:14Z</time></trkpt><trkpt lat="44.55930234519426" lon="10.773763830582226"><ele>99.0</ele><time>2026-04-18T11:02:15Z</time></trkpt><trkpt lat="44.55927275159894" lon="10.774110469380842"><ele>100.0</ele><time>2026-04-18T11:02:16Z</time></trkpt><trkpt lat="44.559243884504205" lon="10.774443743595688"><ele>101.5</ele><time>2026-04-18T11:02:17Z</time></trkpt><trkpt lat="44.559212746073214" lon="10.774791266393805"><ele>103.0</ele><time>2026-04-18T11:02:18Z</time></trkpt><trkpt lat="44.559185301970096" lon="10.775108804916542"><ele>106.0</ele><time>2026-04-18T11:02:19Z</time></trkpt><trkpt lat="44.559158047477176" lon="10.77544265464362"><ele>109.0</ele><time>2026-04-18T11:02:20Z</time></trkpt><trkpt lat="44.55913083288234" lon="10.775776893583888"><ele>110.0</ele><time>2026-04-18T11:02:21Z</time></trkpt><trkpt lat="44.55910080557028" lon="10.776109465278324"><ele>111.0</ele><time>2026-04-18T11:02:22Z</time></trkpt><trkpt lat="44.55907135532417" lon="10.776439206395336"><ele>111.0</ele><time>2026-04-18T11:02:23Z</time></trkpt><trkpt lat="44.55904187308404" lon="10.77677155682332"><ele>111.0</ele><time>2026-04-18T11:02:24Z</time></trkpt><trkpt lat="44.559013873413846" lon="10.777099337191547"><ele>109.0</ele><time>2026-04-18T11:02:25Z</time></trkpt><trkpt lat="44.558987589615846" lon="10.777413923981884"><ele>107.0</ele><time>2026-04-18T11:02:26Z</time></trkpt><trkpt lat="44.558965302515205" lon="10.777723062415573"><ele>105.0</ele><time>2026-04-18T11:02:27Z</time></trkpt><trkpt lat="44.558946700262204" lon="10.778034343599243"><ele>104.33333333333334</ele><time>2026-04-18T11:02:28Z</time></trkpt><trkpt lat="44.55894055579723" lon="10.778332001027835"><ele>103.66666666666667</ele><time>2026-04-18T11:02:29Z</time></trkpt><trkpt lat="44.558947652073925" lon="10.778623251325385"><ele>103.0</ele><time>2026-04-18T11:02:30Z</time></trkpt><trkpt lat="44.558967888292" lon="10.778912308058858"><ele>103.33333333333334</ele><time>2026-04-18T11:02:31Z</time></trkpt><trkpt lat="44.55899151797904" lon="10.779193691737516"><ele>103.66666666666666</ele><time>2026-04-18T11:02:32Z</time></trkpt><trkpt lat="44.55901961175671" lon="10.779479429922715"><ele>104.0</ele><time>2026-04-18T11:02:33Z</time></trkpt><trkpt lat="44.55904625667178" lon="10.779744473523042"><ele>104.0</ele><time>2026-04-18T11:02:34Z</time></trkpt><trkpt lat="44.55907632805546" lon="10.780003949209034"><ele>104.0</ele><time>2026-04-18T11:02:35Z</time></trkpt><trkpt lat="44.5591020219348" lon="10.78026081519425"><ele>104.0</ele><time>2026-04-18T11:02:36Z</time></trkpt><trkpt lat="44.559128417331564" lon="10.780515297407113"><ele>104.0</ele><time>2026-04-18T11:02:37Z</time></trkpt><trkpt lat="44.55915540858729" lon="10.780773012766439"><ele>104.0</ele><time>2026-04-18T11:02:38Z</time></trkpt><trkpt lat="44.55918410537822" lon="10.781043155639907"><ele>104.0</ele><time>2026-04-18T11:02:39Z</time></trkpt><trkpt lat="44.55921115685393" lon="10.781310709987466"><ele>104.0</ele><time>2026-04-18T11:02:40Z</time></trkpt><trkpt lat="44.559233359756405" lon="10.78158861291227"><ele>104.0</ele><time>2026-04-18T11:02:41Z</time></trkpt><trkpt lat="44.55925550179521" lon="10.781856212818745"><ele>104.0</ele><time>2026-04-18T11:02:42Z</time></trkpt><trkpt lat="44.55927011188273" lon="10.782142185392024"><ele>103.66666666666666</ele><time>2026-04-18T11:02:43Z</time></trkpt><trkpt lat="44.5592745228627" lon="10.782387651648406"><ele>103.33333333333334</ele><time>2026-04-18T11:02:44Z</time></trkpt><trkpt lat="44.55927695672057" lon="10.782607557109692"><ele>103.0</ele><time>2026-04-18T11:02:45Z</time></trkpt><trkpt lat="44.55927383653963" lon="10.782820867478666"><ele>103.66666666666667</ele><time>2026-04-18T11:02:46Z</time></trkpt><trkpt lat="44.55926176653115" lon="10.783037635708153"><ele>104.33333333333334</ele><time>2026-04-18T11:02:47Z</time></trkpt><trkpt lat="44.55924219068323" lon="10.783239512674552"><ele>105.0</ele><time>2026-04-18T11:02:48Z</time></trkpt><trkpt lat="44.55921552715108" lon="10.78345600355664"><ele>105.0</ele><time>2026-04-18T11:02:49Z</time></trkpt><trkpt lat="44.55918359248769" lon="10.783683009825937"><ele>105.0</ele><time>2026-04-18T11:02:50Z</time></trkpt><trkpt lat="44.559150342403484" lon="10.783909209989268"><ele>105.0</ele><time>2026-04-18T11:02:51Z</time></trkpt><trkpt lat="44.559112327520346" lon="10.784124592078234"><ele>105.0</ele><time>2026-04-18T11:02:52Z</time></trkpt><trkpt lat="44.55906601405981" lon="10.78434477081487"><ele>105.0</ele><time>2026-04-18T11:02:53Z</time></trkpt><trkpt lat="44.559009914249245" lon="10.784569563065311"><ele>105.0</ele><time>2026-04-18T11:02:54Z</time></trkpt><trkpt lat="44.55895145917851" lon="10.784789675979198"><ele>105.0</ele><time>2026-04-18T11:02:55Z</time></trkpt><trkpt lat="44.55889026556664" lon="10.78500320876516"><ele>105.0</ele><time>2026-04-18T11:02:56Z</time></trkpt><trkpt lat="44.55882557504129" lon="10.785219937735874"><ele>105.0</ele><time>2026-04-18T11:02:57Z</time></trkpt><trkpt lat="44.558755474705606" lon="10.785441359837106"><ele>105.0</ele><time>2026-04-18T11:02:58Z</time></trkpt><trkpt lat="44.5586844292495" lon="10.785665469440486"><ele>105.0</ele><time>2026-04-18T11:02:58.999Z</time></trkpt><trkpt lat="44.55860470603378" lon="10.785908597479386"><ele>105.0</ele><time>2026-04-18T11:02:59.999Z</time></trkpt><trkpt lat="44.55852386888534" lon="10.78614847454149"><ele>105.0</ele><time>2026-04-18T11:03:00.999Z</time></trkpt><trkpt lat="44.55844129609076" lon="10.786389046015497"><ele>105.0</ele><time>2026-04-18T11:03:01.999Z</time></trkpt><trkpt lat="44.558359427830766" lon="10.78664601659291"><ele>105.0</ele><time>2026-04-18T11:03:02.999Z</time></trkpt><trkpt lat="44.55827054302343" lon="10.786907068020035"><ele>105.0</ele><time>2026-04-18T11:03:03.999Z</time></trkpt><trkpt lat="44.55818489854774" lon="10.787149954719816"><ele>105.0</ele><time>2026-04-18T11:03:04.999Z</time></trkpt><trkpt lat="44.558110546854145" lon="10.787353774238548"><ele>105.0</ele><time>2026-04-18T11:03:05.999Z</time></trkpt><trkpt lat="44.558042412175105" lon="10.787517367967823"><ele>105.0</ele><time>2026-04-18T11:03:06.999Z</time></trkpt><trkpt lat="44.557985194335835" lon="10.787626696517211"><ele>105.0</ele><time>2026-04-18T11:03:07.999Z</time></trkpt><trkpt lat="44.55791992478746" lon="10.787691769925592"><ele>105.0</ele><time>2026-04-18T11:03:09Z</time></trkpt><trkpt lat="44.557849641687916" lon="10.787727628249582"><ele>105.0</ele><time>2026-04-18T11:03:10Z</time></trkpt><trkpt lat="44.55777489666624" lon="10.78777888230981"><ele>105.0</ele><time>2026-04-18T11:03:11Z</time></trkpt><trkpt lat="44.55766365244423" lon="10.787834537739043"><ele>104.8</ele><time>2026-04-18T11:03:12Z</time></trkpt><trkpt lat="44.5575783958705" lon="10.78794478423323"><ele>104.6</ele><time>2026-04-18T11:03:13Z</time></trkpt><trkpt lat="44.55751322958018" lon="10.788019768956117"><ele>104.4</ele><time>2026-04-18T11:03:14Z</time></trkpt><trkpt lat="44.557518612945906" lon="10.78816738555744"><ele>104.2</ele><time>2026-04-18T11:03:15Z</time></trkpt><trkpt lat="44.557538238744485" lon="10.788323349909296"><ele>104.0</ele><time>2026-04-18T11:03:16Z</time></trkpt><trkpt lat="44.557588051440796" lon="10.788473780889356"><ele>103.75</ele><time>2026-04-18T11:03:17Z</time></trkpt><trkpt lat="44.5576369539428" lon="10.788638912800387"><ele>103.5</ele><time>2026-04-18T11:03:18Z</time></trkpt><trkpt lat="44.5576374632204" lon="10.788807884150874"><ele>103.25</ele><time>2026-04-18T11:03:19Z</time></trkpt><trkpt lat="44.55758358504882" lon="10.789003437592676"><ele>103.0</ele><time>2026-04-18T11:03:20Z</time></trkpt><trkpt lat="44.557501358331336" lon="10.78922042710209"><ele>103.0</ele><time>2026-04-18T11:03:21Z</time></trkpt><trkpt lat="44.55741222528208" lon="10.789457565686078"><ele>103.0</ele><time>2026-04-18T11:03:22Z</time></trkpt><trkpt lat="44.55733249151046" lon="10.789719970297716"><ele>103.0</ele><time>2026-04-18T11:03:23Z</time></trkpt><trkpt lat="44.55726909051032" lon="10.789983434352855"><ele>103.0</ele><time>2026-04-18T11:03:24Z</time></trkpt><trkpt lat="44.55721272465858" lon="10.790260210103764"><ele>103.0</ele><time>2026-04-18T11:03:25Z</time></trkpt><trkpt lat="44.557155067159066" lon="10.790562502173959"><ele>103.0</ele><time>2026-04-18T11:03:26Z</time></trkpt><trkpt lat="44.55710040227592" lon="10.790845477688988"><ele>103.33333333333334</ele><time>2026-04-18T11:03:27Z</time></trkpt><trkpt lat="44.557062125754314" lon="10.791122385067448"><ele>103.66666666666666</ele><time>2026-04-18T11:03:28Z</time></trkpt><trkpt lat="44.557037465978674" lon="10.791378559660478"><ele>104.0</ele><time>2026-04-18T11:03:29Z</time></trkpt><trkpt lat="44.55702266907485" lon="10.791611237085926"><ele>104.66666666666666</ele><time>2026-04-18T11:03:30Z</time></trkpt><trkpt lat="44.557010025914906" lon="10.791829283526665"><ele>105.33333333333334</ele><time>2026-04-18T11:03:31Z</time></trkpt><trkpt lat="44.55699862331591" lon="10.792037205821645"><ele>106.0</ele><time>2026-04-18T11:03:32Z</time></trkpt><trkpt lat="44.55698903187665" lon="10.79225023642959"><ele>106.0</ele><time>2026-04-18T11:03:33Z</time></trkpt><trkpt lat="44.55698180579876" lon="10.792449269046603"><ele>106.0</ele><time>2026-04-18T11:03:34Z</time></trkpt><trkpt lat="44.55697394966997" lon="10.792649718177822"><ele>106.0</ele><time>2026-04-18T11:03:35Z</time></trkpt><trkpt lat="44.55696642852122" lon="10.792851737733399"><ele>106.0</ele><time>2026-04-18T11:03:36Z</time></trkpt><trkpt lat="44.5569587889977" lon="10.793040603296536"><ele>106.25</ele><time>2026-04-18T11:03:37Z</time></trkpt><trkpt lat="44.55694860675516" lon="10.793229399486648"><ele>106.5</ele><time>2026-04-18T11:03:38Z</time></trkpt><trkpt lat="44.55694093159021" lon="10.79341919591439"><ele>106.75</ele><time>2026-04-18T11:03:39Z</time></trkpt><trkpt lat="44.55693265147059" lon="10.793611435512046"><ele>107.0</ele><time>2026-04-18T11:03:40Z</time></trkpt><trkpt lat="44.556924342757" lon="10.793810562218589"><ele>107.0</ele><time>2026-04-18T11:03:41Z</time></trkpt><trkpt lat="44.556918781902496" lon="10.794011255639473"><ele>107.0</ele><time>2026-04-18T11:03:42Z</time></trkpt><trkpt lat="44.55690271748297" lon="10.79424159412994"><ele>107.0</ele><time>2026-04-18T11:03:43Z</time></trkpt><trkpt lat="44.556891127051" lon="10.794514268805248"><ele>107.33333333333333</ele><time>2026-04-18T11:03:44Z</time></trkpt><trkpt lat="44.556877909968" lon="10.794784077873883"><ele>107.66666666666666</ele><time>2026-04-18T11:03:45Z</time></trkpt><trkpt lat="44.556880813741294" lon="10.79502881025499"><ele>108.0</ele><time>2026-04-18T11:03:46Z</time></trkpt><trkpt lat="44.55686470605436" lon="10.795243063726707"><ele>108.0</ele><time>2026-04-18T11:03:47Z</time></trkpt><trkpt lat="44.55685052958697" lon="10.795444017712239"><ele>108.0</ele><time>2026-04-18T11:03:48Z</time></trkpt><trkpt lat="44.556836372605844" lon="10.795634231452045"><ele>108.0</ele><time>2026-04-18T11:03:49Z</time></trkpt><trkpt lat="44.55680260391563" lon="10.795815556134492"><ele>108.0</ele><time>2026-04-18T11:03:50Z</time></trkpt><trkpt lat="44.556794352163436" lon="10.795992943634301"><ele>107.5</ele><time>2026-04-18T11:03:51Z</time></trkpt><trkpt lat="44.55676504613967" lon="10.796159237709741"><ele>107.0</ele><time>2026-04-18T11:03:52Z</time></trkpt><trkpt lat="44.55673791834107" lon="10.796328704698277"><ele>106.5</ele><time>2026-04-18T11:03:53Z</time></trkpt><trkpt lat="44.556707398983995" lon="10.796500777019967"><ele>106.0</ele><time>2026-04-18T11:03:54Z</time></trkpt><trkpt lat="44.55667535999083" lon="10.796670288534"><ele>106.0</ele><time>2026-04-18T11:03:55Z</time></trkpt><trkpt lat="44.55664035718088" lon="10.796831273604257"><ele>106.0</ele><time>2026-04-18T11:03:56Z</time></trkpt><trkpt lat="44.55660714997252" lon="10.796976343026866"><ele>106.0</ele><time>2026-04-18T11:03:57Z</time></trkpt><trkpt lat="44.556579463610426" lon="10.797103946536277"><ele>106.0</ele><time>2026-04-18T11:03:58Z</time></trkpt><trkpt lat="44.556550500169244" lon="10.79722373663294"><ele>106.0</ele><time>2026-04-18T11:03:59Z</time></trkpt><trkpt lat="44.556519214492276" lon="10.797342047636498"><ele>106.19999999999999</ele><time>2026-04-18T11:04:00Z</time></trkpt><trkpt lat="44.556485030126275" lon="10.79747018933151"><ele>106.39999999999999</ele><time>2026-04-18T11:04:01Z</time></trkpt><trkpt lat="44.556449272041945" lon="10.797591211273213"><ele>106.6</ele><time>2026-04-18T11:04:02Z</time></trkpt><trkpt lat="44.55640793119138" lon="10.797709707337544"><ele>106.8</ele><time>2026-04-18T11:04:03Z</time></trkpt><trkpt lat="44.556351521674486" lon="10.797842417918213"><ele>107.0</ele><time>2026-04-18T11:04:04Z</time></trkpt><trkpt lat="44.55629705257221" lon="10.797936841620299"><ele>106.99999999999999</ele><time>2026-04-18T11:04:05Z</time></trkpt><trkpt lat="44.55624262363984" lon="10.797998854264604"><ele>107.0</ele><time>2026-04-18T11:04:06Z</time></trkpt><trkpt lat="44.556168092665715" lon="10.79805061826271"><ele>107.0</ele><time>2026-04-18T11:04:08Z</time></trkpt><trkpt lat="44.556081531107644" lon="10.798105881578614"><ele>107.0</ele><time>2026-04-18T11:04:10Z</time></trkpt><trkpt lat="44.55601977062456" lon="10.798151042716759"><ele>106.99999999999999</ele><time>2026-04-18T11:04:11Z</time></trkpt><trkpt lat="44.55596520003173" lon="10.798232503243057"><ele>107.0</ele><time>2026-04-18T11:04:12Z</time></trkpt><trkpt lat="44.555922076753745" lon="10.798320524382671"><ele>107.39999999999999</ele><time>2026-04-18T11:04:13Z</time></trkpt><trkpt lat="44.555897224827895" lon="10.798419192918429"><ele>107.79999999999998</ele><time>2026-04-18T11:04:14Z</time></trkpt><trkpt lat="44.5558827828696" lon="10.798529734349597"><ele>108.2</ele><time>2026-04-18T11:04:15Z</time></trkpt><trkpt lat="44.55588774962358" lon="10.798659606604966"><ele>108.6</ele><time>2026-04-18T11:04:16Z</time></trkpt><trkpt lat="44.55590381515859" lon="10.798831071053021"><ele>109.0</ele><time>2026-04-18T11:04:17Z</time></trkpt><trkpt lat="44.555897173561576" lon="10.799050540115246"><ele>109.33333333333334</ele><time>2026-04-18T11:04:18Z</time></trkpt><trkpt lat="44.555851637700115" lon="10.799274080366043"><ele>109.66666666666666</ele><time>2026-04-18T11:04:19Z</time></trkpt><trkpt lat="44.555772368145256" lon="10.799488485196841"><ele>110.0</ele><time>2026-04-18T11:04:20Z</time></trkpt><trkpt lat="44.555669459007035" lon="10.799720579218619"><ele>110.0</ele><time>2026-04-18T11:04:21Z</time></trkpt><trkpt lat="44.55554576331009" lon="10.79999376654516"><ele>110.0</ele><time>2026-04-18T11:04:22Z</time></trkpt><trkpt lat="44.555444954317316" lon="10.800224868215553"><ele>110.0</ele><time>2026-04-18T11:04:23Z</time></trkpt><trkpt lat="44.55535589343589" lon="10.800430488582407"><ele>109.0</ele><time>2026-04-18T11:04:24Z</time></trkpt><trkpt lat="44.55526897747236" lon="10.800594028387936"><ele>108.0</ele><time>2026-04-18T11:04:25Z</time></trkpt><trkpt lat="44.55517244553822" lon="10.800733288186771"><ele>107.0</ele><time>2026-04-18T11:04:26Z</time></trkpt><trkpt lat="44.555073191526105" lon="10.800836807268402"><ele>106.0</ele><time>2026-04-18T11:04:27Z</time></trkpt><trkpt lat="44.554984630101025" lon="10.800907512714348"><ele>106.0</ele><time>2026-04-18T11:04:28Z</time></trkpt><trkpt lat="44.554906176762046" lon="10.800979213235115"><ele>106.0</ele><time>2026-04-18T11:04:29Z</time></trkpt><trkpt lat="44.55483657322042" lon="10.80108423811057"><ele>106.0</ele><time>2026-04-18T11:04:30Z</time></trkpt><trkpt lat="44.554785805100494" lon="10.801191444569032"><ele>106.0</ele><time>2026-04-18T11:04:31Z</time></trkpt><trkpt lat="44.55472311804814" lon="10.801318162221124"><ele>106.0</ele><time>2026-04-18T11:04:33Z</time></trkpt><trkpt lat="44.554661191180216" lon="10.801388807401155"><ele>106.0</ele><time>2026-04-18T11:04:35Z</time></trkpt><trkpt lat="44.55458978460672" lon="10.801434304796663"><ele>106.0</ele><time>2026-04-18T11:04:36Z</time></trkpt><trkpt lat="44.55448078415731" lon="10.801478460935384"><ele>106.0</ele><time>2026-04-18T11:04:37Z</time></trkpt><trkpt lat="44.55439681994098" lon="10.801531104329007"><ele>106.0</ele><time>2026-04-18T11:04:38Z</time></trkpt><trkpt lat="44.55433557102683" lon="10.801616006541988"><ele>106.0</ele><time>2026-04-18T11:04:39Z</time></trkpt><trkpt lat="44.554291491708845" lon="10.80172628779421"><ele>105.83333333333334</ele><time>2026-04-18T11:04:40Z</time></trkpt><trkpt lat="44.55427690257339" lon="10.801854373161111"><ele>105.66666666666667</ele><time>2026-04-18T11:04:41Z</time></trkpt><trkpt lat="44.55429579222141" lon="10.801978122158717"><ele>105.5</ele><time>2026-04-18T11:04:42Z</time></trkpt><trkpt lat="44.55434444147225" lon="10.80208026284665"><ele>105.33333333333334</ele><time>2026-04-18T11:04:43Z</time></trkpt><trkpt lat="44.55440574460874" lon="10.80216500908049"><ele>105.16666666666667</ele><time>2026-04-18T11:04:44Z</time></trkpt><trkpt lat="44.554459437807225" lon="10.802219839107057"><ele>105.0</ele><time>2026-04-18T11:04:45Z</time></trkpt><trkpt lat="44.55453034989873" lon="10.802292385691363"><ele>105.0</ele><time>2026-04-18T11:04:46Z</time></trkpt><trkpt lat="44.554606680897045" lon="10.802423447042116"><ele>105.0</ele><time>2026-04-18T11:04:47Z</time></trkpt><trkpt lat="44.55466516617924" lon="10.802566677457786"><ele>105.0</ele><time>2026-04-18T11:04:48Z</time></trkpt><trkpt lat="44.55469205735896" lon="10.802786830665818"><ele>105.0</ele><time>2026-04-18T11:04:49Z</time></trkpt><trkpt lat="44.554671121080915" lon="10.802996649484244"><ele>105.0</ele><time>2026-04-18T11:04:50Z</time></trkpt><trkpt lat="44.554629089711895" lon="10.803255573688768"><ele>105.0</ele><time>2026-04-18T11:04:51Z</time></trkpt><trkpt lat="44.554582124256186" lon="10.803550420523083"><ele>105.0</ele><time>2026-04-18T11:04:52Z</time></trkpt><trkpt lat="44.5545452633405" lon="10.803874304202104"><ele>105.5</ele><time>2026-04-18T11:04:53Z</time></trkpt><trkpt lat="44.55450265342805" lon="10.804206317858094"><ele>106.0</ele><time>2026-04-18T11:04:54Z</time></trkpt><trkpt lat="44.55445668369805" lon="10.80453852707243"><ele>105.5</ele><time>2026-04-18T11:04:55Z</time></trkpt><trkpt lat="44.55441249088686" lon="10.804864961548196"><ele>105.0</ele><time>2026-04-18T11:04:56Z</time></trkpt><trkpt lat="44.55436820618821" lon="10.805187274328329"><ele>105.0</ele><time>2026-04-18T11:04:57Z</time></trkpt><trkpt lat="44.554324665853095" lon="10.805509296678341"><ele>105.0</ele><time>2026-04-18T11:04:58Z</time></trkpt><trkpt lat="44.55428428605517" lon="10.805818137951661"><ele>105.0</ele><time>2026-04-18T11:04:59Z</time></trkpt><trkpt lat="44.554244053519156" lon="10.806130488173014"><ele>105.0</ele><time>2026-04-18T11:05:00Z</time></trkpt><trkpt lat="44.55420266943114" lon="10.806430521120939"><ele>105.0</ele><time>2026-04-18T11:05:01Z</time></trkpt><trkpt lat="44.55416351521995" lon="10.806721985924012"><ele>105.0</ele><time>2026-04-18T11:05:02Z</time></trkpt><trkpt lat="44.55412385354307" lon="10.807013828021827"><ele>105.0</ele><time>2026-04-18T11:05:03Z</time></trkpt><trkpt lat="44.55408299245607" lon="10.807300744483733"><ele>105.0</ele><time>2026-04-18T11:05:04Z</time></trkpt><trkpt lat="44.55404480627753" lon="10.807584198243372"><ele>105.0</ele><time>2026-04-18T11:05:05Z</time></trkpt><trkpt lat="44.554004916048044" lon="10.80785408051276"><ele>105.0</ele><time>2026-04-18T11:05:06Z</time></trkpt><trkpt lat="44.553962528089784" lon="10.808106664732064"><ele>105.0</ele><time>2026-04-18T11:05:07Z</time></trkpt><trkpt lat="44.55391809179041" lon="10.808352540830525"><ele>105.33333333333334</ele><time>2026-04-18T11:05:08Z</time></trkpt><trkpt lat="44.55387567861157" lon="10.808590416630304"><ele>105.66666666666667</ele><time>2026-04-18T11:05:09Z</time></trkpt><trkpt lat="44.55383204568917" lon="10.808815771661338"><ele>106.0</ele><time>2026-04-18T11:05:10Z</time></trkpt><trkpt lat="44.55379309401664" lon="10.80902147338711"><ele>106.0</ele><time>2026-04-18T11:05:11Z</time></trkpt><trkpt lat="44.55375673573338" lon="10.809216101260022"><ele>106.0</ele><time>2026-04-18T11:05:12Z</time></trkpt><trkpt lat="44.553719965905195" lon="10.809410976903077"><ele>106.0</ele><time>2026-04-18T11:05:13Z</time></trkpt><trkpt lat="44.55368602109591" lon="10.809579963225648"><ele>106.0</ele><time>2026-04-18T11:05:14Z</time></trkpt><trkpt lat="44.55365804262956" lon="10.809726240094081"><ele>106.33333333333334</ele><time>2026-04-18T11:05:15Z</time></trkpt><trkpt lat="44.55363480640782" lon="10.809856230850208"><ele>106.66666666666667</ele><time>2026-04-18T11:05:16Z</time></trkpt><trkpt lat="44.55361146167057" lon="10.80996550394291"><ele>107.0</ele><time>2026-04-18T11:05:17Z</time></trkpt><trkpt lat="44.55358588034675" lon="10.810059270665247"><ele>107.33333333333334</ele><time>2026-04-18T11:05:18Z</time></trkpt><trkpt lat="44.55354969209383" lon="10.810162618002465"><ele>107.66666666666667</ele><time>2026-04-18T11:05:19Z</time></trkpt><trkpt lat="44.55349337094041" lon="10.810257502272075"><ele>108.0</ele><time>2026-04-18T11:05:20Z</time></trkpt><trkpt lat="44.55343388656739" lon="10.810336354532913"><ele>107.2</ele><time>2026-04-18T11:05:21Z</time></trkpt><trkpt lat="44.553392628122324" lon="10.810423240534424"><ele>106.4</ele><time>2026-04-18T11:05:22Z</time></trkpt><trkpt lat="44.55336790123359" lon="10.810526120112593"><ele>105.60000000000001</ele><time>2026-04-18T11:05:23Z</time></trkpt><trkpt lat="44.55336073950003" lon="10.810644650077625"><ele>104.80000000000001</ele><time>2026-04-18T11:05:24Z</time></trkpt><trkpt lat="44.55337164603143" lon="10.810782962773201"><ele>104.0</ele><time>2026-04-18T11:05:25Z</time></trkpt><trkpt lat="44.553374407692644" lon="10.810943048873677"><ele>104.75</ele><time>2026-04-18T11:05:26Z</time></trkpt><trkpt lat="44.55334360588028" lon="10.811117211167938"><ele>105.5</ele><time>2026-04-18T11:05:27Z</time></trkpt><trkpt lat="44.55328299575179" lon="10.811305546085505"><ele>106.25</ele><time>2026-04-18T11:05:28Z</time></trkpt><trkpt lat="44.55320513221674" lon="10.811497701331845"><ele>107.0</ele><time>2026-04-18T11:05:29Z</time></trkpt><trkpt lat="44.55312371505666" lon="10.811736050320771"><ele>107.0</ele><time>2026-04-18T11:05:30Z</time></trkpt><trkpt lat="44.553047790349254" lon="10.811971685800792"><ele>107.0</ele><time>2026-04-18T11:05:31Z</time></trkpt><trkpt lat="44.55298104090595" lon="10.812190153622426"><ele>107.0</ele><time>2026-04-18T11:05:32Z</time></trkpt><trkpt lat="44.55291259929997" lon="10.812422134454177"><ele>106.66666666666666</ele><time>2026-04-18T11:05:33Z</time></trkpt><trkpt lat="44.552841868939176" lon="10.812670375315202"><ele>106.33333333333334</ele><time>2026-04-18T11:05:34Z</time></trkpt><trkpt lat="44.55277419186776" lon="10.812917179000127"><ele>106.0</ele><time>2026-04-18T11:05:35Z</time></trkpt><trkpt lat="44.55270618735411" lon="10.813171510040098"><ele>106.0</ele><time>2026-04-18T11:05:36Z</time></trkpt><trkpt lat="44.552639598893805" lon="10.813431802789"><ele>106.0</ele><time>2026-04-18T11:05:37Z</time></trkpt><trkpt lat="44.55257582529696" lon="10.81369755974155"><ele>106.0</ele><time>2026-04-18T11:05:38Z</time></trkpt><trkpt lat="44.552520323055184" lon="10.81395439784368"><ele>106.75</ele><time>2026-04-18T11:05:39Z</time></trkpt><trkpt lat="44.55246977124692" lon="10.814186947880952"><ele>107.5</ele><time>2026-04-18T11:05:40Z</time></trkpt><trkpt lat="44.552428153471986" lon="10.814384180019577"><ele>108.25</ele><time>2026-04-18T11:05:41Z</time></trkpt><trkpt lat="44.552396328019036" lon="10.814555518561216"><ele>109.0</ele><time>2026-04-18T11:05:42Z</time></trkpt><trkpt lat="44.5523765964861" lon="10.814701389095443"><ele>109.0</ele><time>2026-04-18T11:05:43Z</time></trkpt><trkpt lat="44.55237094067359" lon="10.814842871005506"><ele>109.0</ele><time>2026-04-18T11:05:44Z</time></trkpt><trkpt lat="44.55237392802057" lon="10.814982792363198"><ele>109.0</ele><time>2026-04-18T11:05:45Z</time></trkpt><trkpt lat="44.55238859003243" lon="10.815122903419544"><ele>109.0</ele><time>2026-04-18T11:05:46Z</time></trkpt><trkpt lat="44.55240743682718" lon="10.815247837106588"><ele>109.0</ele><time>2026-04-18T11:05:47Z</time></trkpt><trkpt lat="44.5524035669849" lon="10.815368044182428"><ele>109.2</ele><time>2026-04-18T11:05:48Z</time></trkpt><trkpt lat="44.552372237381725" lon="10.815492984451778"><ele>109.4</ele><time>2026-04-18T11:05:49Z</time></trkpt><trkpt lat="44.552324655006245" lon="10.815625166284457"><ele>109.6</ele><time>2026-04-18T11:05:50Z</time></trkpt><trkpt lat="44.552264170757944" lon="10.815740946591614"><ele>109.8</ele><time>2026-04-18T11:05:51Z</time></trkpt><trkpt lat="44.55221135720195" lon="10.815854687331704"><ele>110.0</ele><time>2026-04-18T11:05:52Z</time></trkpt><trkpt lat="44.55219163890677" lon="10.815983220937763"><ele>110.0</ele><time>2026-04-18T11:05:53Z</time></trkpt><trkpt lat="44.55220019668078" lon="10.816113195781556"><ele>110.0</ele><time>2026-04-18T11:05:54Z</time></trkpt><trkpt lat="44.55223864467965" lon="10.816229664815818"><ele>110.0</ele><time>2026-04-18T11:05:55Z</time></trkpt><trkpt lat="44.55230269041006" lon="10.816335809101112"><ele>110.0</ele><time>2026-04-18T11:05:56Z</time></trkpt><trkpt lat="44.55238649371899" lon="10.81641668256007"><ele>110.0</ele><time>2026-04-18T11:05:57Z</time></trkpt><trkpt lat="44.552482870180846" lon="10.816459760282333"><ele>110.0</ele><time>2026-04-18T11:05:58Z</time></trkpt><trkpt lat="44.5525888826476" lon="10.816460525563405"><ele>110.0</ele><time>2026-04-18T11:05:59Z</time></trkpt><trkpt lat="44.55271166763587" lon="10.816429898787566"><ele>110.0</ele><time>2026-04-18T11:06:00Z</time></trkpt><trkpt lat="44.5528393010386" lon="10.81637021050891"><ele>110.0</ele><time>2026-04-18T11:06:01Z</time></trkpt><trkpt lat="44.552981278469666" lon="10.816329311927344"><ele>108.66666666666666</ele><time>2026-04-18T11:06:02Z</time></trkpt><trkpt lat="44.55314830700444" lon="10.816329725710318"><ele>107.33333333333334</ele><time>2026-04-18T11:06:03Z</time></trkpt><trkpt lat="44.553332941309165" lon="10.816372450211572"><ele>106.0</ele><time>2026-04-18T11:06:04Z</time></trkpt><trkpt lat="44.55354612156185" lon="10.816425462011892"><ele>104.0</ele><time>2026-04-18T11:06:05Z</time></trkpt><trkpt lat="44.553788450279065" lon="10.816491660013485"><ele>102.0</ele><time>2026-04-18T11:06:06Z</time></trkpt><trkpt lat="44.55407053867324" lon="10.816566895100198"><ele>102.0</ele><time>2026-04-18T11:06:07Z</time></trkpt><trkpt lat="44.554385436437805" lon="10.816651821924166"><ele>102.0</ele><time>2026-04-18T11:06:08Z</time></trkpt><trkpt lat="44.554731987404026" lon="10.8167492802482"><ele>102.5</ele><time>2026-04-18T11:06:09Z</time></trkpt><trkpt lat="44.5551087900102" lon="10.816858237730946"><ele>103.0</ele><time>2026-04-18T11:06:10Z</time></trkpt><trkpt lat="44.55550460015589" lon="10.816973309012816"><ele>103.0</ele><time>2026-04-18T11:06:11Z</time></trkpt><trkpt lat="44.55588505082609" lon="10.817084310796533"><ele>103.0</ele><time>2026-04-18T11:06:12Z</time></trkpt><trkpt lat="44.55625009983187" lon="10.817188543593597"><ele>103.0</ele><time>2026-04-18T11:06:13Z</time></trkpt><trkpt lat="44.55661580158895" lon="10.81729263199713"><ele>103.0</ele><time>2026-04-18T11:06:14Z</time></trkpt><trkpt lat="44.55697311998041" lon="10.817392850057285"><ele>103.5</ele><time>2026-04-18T11:06:15Z</time></trkpt><trkpt lat="44.5573216384212" lon="10.817496930677851"><ele>104.0</ele><time>2026-04-18T11:06:16Z</time></trkpt><trkpt lat="44.55768012753889" lon="10.817613455725125"><ele>104.5</ele><time>2026-04-18T11:06:17Z</time></trkpt><trkpt lat="44.55803122190538" lon="10.817737600454574"><ele>105.0</ele><time>2026-04-18T11:06:18Z</time></trkpt><trkpt lat="44.558376481483194" lon="10.817874296678655"><ele>103.5</ele><time>2026-04-18T11:06:19Z</time></trkpt><trkpt lat="44.55871490441969" lon="10.818001015097213"><ele>102.0</ele><time>2026-04-18T11:06:20Z</time></trkpt><trkpt lat="44.559070546006936" lon="10.81812532772562"><ele>102.0</ele><time>2026-04-18T11:06:21Z</time></trkpt><trkpt lat="44.55943560096781" lon="10.818252179046684"><ele>102.0</ele><time>2026-04-18T11:06:22Z</time></trkpt><trkpt lat="44.559796974761724" lon="10.818387437223395"><ele>102.0</ele><time>2026-04-18T11:06:23Z</time></trkpt><trkpt lat="44.560143355489615" lon="10.818521572981929"><ele>102.0</ele><time>2026-04-18T11:06:24Z</time></trkpt><trkpt lat="44.56047139933511" lon="10.81865408709471"><ele>101.0</ele><time>2026-04-18T11:06:25Z</time></trkpt><trkpt lat="44.56079103889548" lon="10.818789496642637"><ele>100.0</ele><time>2026-04-18T11:06:26Z</time></trkpt><trkpt lat="44.56111404831868" lon="10.818925485798147"><ele>100.0</ele><time>2026-04-18T11:06:27Z</time></trkpt><trkpt lat="44.56143846632563" lon="10.819068056446678"><ele>100.0</ele><time>2026-04-18T11:06:28Z</time></trkpt><trkpt lat="44.56176210876591" lon="10.819220484954696"><ele>99.0</ele><time>2026-04-18T11:06:29Z</time></trkpt><trkpt lat="44.562082358341705" lon="10.819388639358154"><ele>98.0</ele><time>2026-04-18T11:06:30Z</time></trkpt><trkpt lat="44.56239305244874" lon="10.819566598822174"><ele>98.0</ele><time>2026-04-18T11:06:31Z</time></trkpt><trkpt lat="44.56269128327012" lon="10.819753497934503"><ele>98.0</ele><time>2026-04-18T11:06:32Z</time></trkpt><trkpt lat="44.562985724132396" lon="10.819956074988335"><ele>98.5</ele><time>2026-04-18T11:06:33Z</time></trkpt><trkpt lat="44.56328949057805" lon="10.820173255414277"><ele>99.0</ele><time>2026-04-18T11:06:34Z</time></trkpt><trkpt lat="44.56357794209072" lon="10.820403354021149"><ele>98.0</ele><time>2026-04-18T11:06:35Z</time></trkpt><trkpt lat="44.56386302252238" lon="10.820644335617075"><ele>97.0</ele><time>2026-04-18T11:06:36Z</time></trkpt><trkpt lat="44.564138503160336" lon="10.820890834199437"><ele>96.5</ele><time>2026-04-18T11:06:37Z</time></trkpt><trkpt lat="44.56440205937025" lon="10.82113675653548"><ele>96.0</ele><time>2026-04-18T11:06:38Z</time></trkpt><trkpt lat="44.5646386310273" lon="10.821364379057671"><ele>96.5</ele><time>2026-04-18T11:06:39Z</time></trkpt><trkpt lat="44.564873071199514" lon="10.821587964419443"><ele>97.0</ele><time>2026-04-18T11:06:40Z</time></trkpt><trkpt lat="44.56510991406661" lon="10.82181676841414"><ele>97.0</ele><time>2026-04-18T11:06:41Z</time></trkpt><trkpt lat="44.56534651016009" lon="10.822051460463701"><ele>97.0</ele><time>2026-04-18T11:06:42Z</time></trkpt><trkpt lat="44.565584646200456" lon="10.822288615182485"><ele>95.5</ele><time>2026-04-18T11:06:43Z</time></trkpt><trkpt lat="44.56582411170815" lon="10.822520133141639"><ele>94.0</ele><time>2026-04-18T11:06:44Z</time></trkpt><trkpt lat="44.566061416945786" lon="10.82274623702503"><ele>93.0</ele><time>2026-04-18T11:06:45Z</time></trkpt><trkpt lat="44.566301058875744" lon="10.822979149840233"><ele>92.0</ele><time>2026-04-18T11:06:46Z</time></trkpt><trkpt lat="44.56651101588902" lon="10.823186948532188"><ele>92.0</ele><time>2026-04-18T11:06:47Z</time></trkpt><trkpt lat="44.56671286193831" lon="10.823384653082957"><ele>92.0</ele><time>2026-04-18T11:06:48Z</time></trkpt><trkpt lat="44.56691281434408" lon="10.823576330952978"><ele>91.5</ele><time>2026-04-18T11:06:49Z</time></trkpt><trkpt lat="44.567112967128004" lon="10.823756582271407"><ele>91.0</ele><time>2026-04-18T11:06:50Z</time></trkpt><trkpt lat="44.56730594483817" lon="10.823935487541723"><ele>91.0</ele><time>2026-04-18T11:06:51Z</time></trkpt><trkpt lat="44.567490029559536" lon="10.824099876912127"><ele>91.0</ele><time>2026-04-18T11:06:52Z</time></trkpt><trkpt lat="44.56767634313974" lon="10.824258125703198"><ele>91.0</ele><time>2026-04-18T11:06:53Z</time></trkpt><trkpt lat="44.56786064908891" lon="10.824411257636795"><ele>90.66666666666666</ele><time>2026-04-18T11:06:54Z</time></trkpt><trkpt lat="44.56804827974718" lon="10.82456180075581"><ele>90.33333333333333</ele><time>2026-04-18T11:06:55Z</time></trkpt><trkpt lat="44.56823372404735" lon="10.824704258489609"><ele>90.0</ele><time>2026-04-18T11:06:56Z</time></trkpt><trkpt lat="44.56842057893551" lon="10.824848868801116"><ele>90.0</ele><time>2026-04-18T11:06:57Z</time></trkpt><trkpt lat="44.5686060323196" lon="10.82498656941568"><ele>90.0</ele><time>2026-04-18T11:06:58Z</time></trkpt><trkpt lat="44.56878612883359" lon="10.825121148256697"><ele>90.0</ele><time>2026-04-18T11:06:59Z</time></trkpt><trkpt lat="44.56897118009285" lon="10.825260142906634"><ele>89.66666666666667</ele><time>2026-04-18T11:07:00Z</time></trkpt><trkpt lat="44.56915698283698" lon="10.825404833046585"><ele>89.33333333333334</ele><time>2026-04-18T11:07:01Z</time></trkpt><trkpt lat="44.56934089221674" lon="10.825546449411329"><ele>89.0</ele><time>2026-04-18T11:07:02Z</time></trkpt><trkpt lat="44.56952869789986" lon="10.825696118317827"><ele>89.0</ele><time>2026-04-18T11:07:03Z</time></trkpt><trkpt lat="44.569716918722335" lon="10.825845170049488"><ele>89.0</ele><time>2026-04-18T11:07:04Z</time></trkpt><trkpt lat="44.56990616470558" lon="10.825994339301587"><ele>89.0</ele><time>2026-04-18T11:07:05Z</time></trkpt><trkpt lat="44.57009514916509" lon="10.826144627994871"><ele>88.33333333333334</ele><time>2026-04-18T11:07:06Z</time></trkpt><trkpt lat="44.570281152870436" lon="10.826294059198931"><ele>87.66666666666667</ele><time>2026-04-18T11:07:07Z</time></trkpt><trkpt lat="44.57046704815884" lon="10.826438365824586"><ele>87.0</ele><time>2026-04-18T11:07:08Z</time></trkpt><trkpt lat="44.570656215414886" lon="10.826584436960061"><ele>87.0</ele><time>2026-04-18T11:07:09Z</time></trkpt><trkpt lat="44.570844234281964" lon="10.826731132086783"><ele>87.0</ele><time>2026-04-18T11:07:10Z</time></trkpt><trkpt lat="44.57103066741851" lon="10.826879373197476"><ele>87.0</ele><time>2026-04-18T11:07:11Z</time></trkpt><trkpt lat="44.57121943117745" lon="10.827028235610106"><ele>86.66666666666667</ele><time>2026-04-18T11:07:12Z</time></trkpt><trkpt lat="44.57140545505353" lon="10.827174411352036"><ele>86.33333333333334</ele><time>2026-04-18T11:07:13Z</time></trkpt><trkpt lat="44.57159101241476" lon="10.827320636926853"><ele>86.0</ele><time>2026-04-18T11:07:14Z</time></trkpt><trkpt lat="44.5717752173701" lon="10.827465109956972"><ele>86.0</ele><time>2026-04-18T11:07:15Z</time></trkpt><trkpt lat="44.57196444087996" lon="10.827615518253532"><ele>86.0</ele><time>2026-04-18T11:07:16Z</time></trkpt><trkpt lat="44.572153488127434" lon="10.827765476476369"><ele>86.0</ele><time>2026-04-18T11:07:17Z</time></trkpt><trkpt lat="44.57233877469757" lon="10.827910869412218"><ele>86.0</ele><time>2026-04-18T11:07:18Z</time></trkpt><trkpt lat="44.57252375203847" lon="10.828055307137092"><ele>86.0</ele><time>2026-04-18T11:07:19Z</time></trkpt><trkpt lat="44.57271015884286" lon="10.8282003378137"><ele>86.0</ele><time>2026-04-18T11:07:20Z</time></trkpt><trkpt lat="44.57289850153162" lon="10.828349444147138"><ele>85.66666666666667</ele><time>2026-04-18T11:07:21Z</time></trkpt><trkpt lat="44.57308176947936" lon="10.828496411564903"><ele>85.33333333333333</ele><time>2026-04-18T11:07:22Z</time></trkpt><trkpt lat="44.57326816955512" lon="10.828644631067696"><ele>85.0</ele><time>2026-04-18T11:07:23Z</time></trkpt><trkpt lat="44.57345622705451" lon="10.828792675540402"><ele>85.0</ele><time>2026-04-18T11:07:24Z</time></trkpt><trkpt lat="44.57364106158879" lon="10.828939407390338"><ele>85.0</ele><time>2026-04-18T11:07:25Z</time></trkpt><trkpt lat="44.57382899206541" lon="10.829087754993378"><ele>85.0</ele><time>2026-04-18T11:07:26Z</time></trkpt><trkpt lat="44.574017239348365" lon="10.829234540233479"><ele>84.66666666666666</ele><time>2026-04-18T11:07:27Z</time></trkpt><trkpt lat="44.57420292579338" lon="10.829379963505444"><ele>84.33333333333333</ele><time>2026-04-18T11:07:28Z</time></trkpt><trkpt lat="44.574391869056704" lon="10.829528496235898"><ele>84.0</ele><time>2026-04-18T11:07:29Z</time></trkpt><trkpt lat="44.574575990148894" lon="10.82967843785937"><ele>84.66666666666667</ele><time>2026-04-18T11:07:30Z</time></trkpt><trkpt lat="44.57476472461025" lon="10.829829390990106"><ele>85.33333333333334</ele><time>2026-04-18T11:07:31Z</time></trkpt><trkpt lat="44.574952426111395" lon="10.829976750383095"><ele>86.0</ele><time>2026-04-18T11:07:32Z</time></trkpt><trkpt lat="44.57513933791795" lon="10.830120946532258"><ele>85.66666666666667</ele><time>2026-04-18T11:07:33Z</time></trkpt><trkpt lat="44.57532126054124" lon="10.830265663973423"><ele>85.33333333333333</ele><time>2026-04-18T11:07:34Z</time></trkpt><trkpt lat="44.57550591005781" lon="10.830412539131249"><ele>85.0</ele><time>2026-04-18T11:07:35Z</time></trkpt><trkpt lat="44.5756916221267" lon="10.830559742924265"><ele>83.66666666666666</ele><time>2026-04-18T11:07:36Z</time></trkpt><trkpt lat="44.57587941821444" lon="10.830707869107101"><ele>82.33333333333333</ele><time>2026-04-18T11:07:37Z</time></trkpt><trkpt lat="44.576068209661685" lon="10.830857075577724"><ele>81.0</ele><time>2026-04-18T11:07:38Z</time></trkpt><trkpt lat="44.576253639446236" lon="10.831001882251314"><ele>81.0</ele><time>2026-04-18T11:07:39Z</time></trkpt><trkpt lat="44.576442143558815" lon="10.83114848928434"><ele>81.0</ele><time>2026-04-18T11:07:40Z</time></trkpt><trkpt lat="44.57662765449272" lon="10.831295116976714"><ele>81.0</ele><time>2026-04-18T11:07:41Z</time></trkpt><trkpt lat="44.57681241335422" lon="10.831442633575437"><ele>81.0</ele><time>2026-04-18T11:07:42Z</time></trkpt><trkpt lat="44.5769946715881" lon="10.831591249033355"><ele>81.0</ele><time>2026-04-18T11:07:43Z</time></trkpt><trkpt lat="44.57717850473417" lon="10.831740905142386"><ele>81.0</ele><time>2026-04-18T11:07:44Z</time></trkpt><trkpt lat="44.57736280824384" lon="10.831888370017014"><ele>81.0</ele><time>2026-04-18T11:07:45Z</time></trkpt><trkpt lat="44.577547316043834" lon="10.832034534310846"><ele>81.0</ele><time>2026-04-18T11:07:46Z</time></trkpt><trkpt lat="44.57774043042625" lon="10.832183727388292"><ele>81.0</ele><time>2026-04-18T11:07:47Z</time></trkpt><trkpt lat="44.57792818813544" lon="10.832331452983203"><ele>81.0</ele><time>2026-04-18T11:07:48Z</time></trkpt><trkpt lat="44.57811428141579" lon="10.83248045174773"><ele>81.0</ele><time>2026-04-18T11:07:49Z</time></trkpt><trkpt lat="44.57830226592449" lon="10.832632945862152"><ele>81.0</ele><time>2026-04-18T11:07:50Z</time></trkpt><trkpt lat="44.57848901842285" lon="10.83278801653093"><ele>81.0</ele><time>2026-04-18T11:07:51Z</time></trkpt><trkpt lat="44.57867016972907" lon="10.832948070280333"><ele>81.0</ele><time>2026-04-18T11:07:52Z</time></trkpt><trkpt lat="44.5788443742216" lon="10.833103801875366"><ele>81.0</ele><time>2026-04-18T11:07:53Z</time></trkpt><trkpt lat="44.57902221747394" lon="10.833270215747442"><ele>81.0</ele><time>2026-04-18T11:07:54Z</time></trkpt><trkpt lat="44.57920027501229" lon="10.833444153856366"><ele>81.0</ele><time>2026-04-18T11:07:55Z</time></trkpt><trkpt lat="44.57937478992079" lon="10.833620338000834"><ele>81.0</ele><time>2026-04-18T11:07:56Z</time></trkpt><trkpt lat="44.579544367931454" lon="10.833795922437833"><ele>80.33333333333333</ele><time>2026-04-18T11:07:57Z</time></trkpt><trkpt lat="44.57972062149282" lon="10.833980594254982"><ele>79.66666666666666</ele><time>2026-04-18T11:07:58Z</time></trkpt><trkpt lat="44.57989198354197" lon="10.834162509718732"><ele>79.0</ele><time>2026-04-18T11:07:59Z</time></trkpt><trkpt lat="44.58005683258614" lon="10.834349023189008"><ele>79.0</ele><time>2026-04-18T11:08:00Z</time></trkpt><trkpt lat="44.5802180380118" lon="10.834544632640627"><ele>79.0</ele><time>2026-04-18T11:08:01Z</time></trkpt><trkpt lat="44.580381243488475" lon="10.83474780108495"><ele>79.0</ele><time>2026-04-18T11:08:02Z</time></trkpt><trkpt lat="44.58054063506103" lon="10.83495005212888"><ele>78.0</ele><time>2026-04-18T11:08:03Z</time></trkpt><trkpt lat="44.580700488208315" lon="10.835155788157216"><ele>77.0</ele><time>2026-04-18T11:08:04Z</time></trkpt><trkpt lat="44.58085340780767" lon="10.835360583115644"><ele>76.0</ele><time>2026-04-18T11:08:05Z</time></trkpt><trkpt lat="44.581003233767184" lon="10.835570070730517"><ele>76.0</ele><time>2026-04-18T11:08:06Z</time></trkpt><trkpt lat="44.58115216733852" lon="10.835783413920602"><ele>76.0</ele><time>2026-04-18T11:08:07Z</time></trkpt><trkpt lat="44.581298314586036" lon="10.83600010335347"><ele>76.0</ele><time>2026-04-18T11:08:08Z</time></trkpt><trkpt lat="44.58144345044965" lon="10.836217226369923"><ele>75.66666666666666</ele><time>2026-04-18T11:08:09Z</time></trkpt><trkpt lat="44.58158992051416" lon="10.836434473678464"><ele>75.33333333333333</ele><time>2026-04-18T11:08:10Z</time></trkpt><trkpt lat="44.58173887545898" lon="10.836652583943428"><ele>75.0</ele><time>2026-04-18T11:08:11Z</time></trkpt><trkpt lat="44.581883879499294" lon="10.836875008292225"><ele>75.33333333333333</ele><time>2026-04-18T11:08:12Z</time></trkpt><trkpt lat="44.58202584535905" lon="10.837101786681012"><ele>75.66666666666666</ele><time>2026-04-18T11:08:13Z</time></trkpt><trkpt lat="44.58216920305192" lon="10.83732852812123"><ele>76.0</ele><time>2026-04-18T11:08:14Z</time></trkpt><trkpt lat="44.582308036635894" lon="10.837555221146701"><ele>75.66666666666666</ele><time>2026-04-18T11:08:15Z</time></trkpt><trkpt lat="44.582450635854734" lon="10.837779175926942"><ele>75.33333333333333</ele><time>2026-04-18T11:08:16Z</time></trkpt><trkpt lat="44.582595141404234" lon="10.838000519497239"><ele>75.0</ele><time>2026-04-18T11:08:17Z</time></trkpt><trkpt lat="44.58274154030365" lon="10.83822129591776"><ele>75.0</ele><time>2026-04-18T11:08:18Z</time></trkpt><trkpt lat="44.58288651227401" lon="10.83843894291062"><ele>75.0</ele><time>2026-04-18T11:08:19Z</time></trkpt><trkpt lat="44.583032542792715" lon="10.838657117031772"><ele>75.0</ele><time>2026-04-18T11:08:20Z</time></trkpt><trkpt lat="44.583181980046156" lon="10.838870159651592"><ele>75.0</ele><time>2026-04-18T11:08:21Z</time></trkpt><trkpt lat="44.583336907546034" lon="10.83908409718944"><ele>75.0</ele><time>2026-04-18T11:08:22Z</time></trkpt><trkpt lat="44.58349647441373" lon="10.83928965208314"><ele>75.0</ele><time>2026-04-18T11:08:23Z</time></trkpt><trkpt lat="44.58365879833198" lon="10.839482383738353"><ele>75.66666666666667</ele><time>2026-04-18T11:08:24Z</time></trkpt><trkpt lat="44.583826542177974" lon="10.839672443001326"><ele>76.33333333333334</ele><time>2026-04-18T11:08:25Z</time></trkpt><trkpt lat="44.58399564773174" lon="10.839860898610613"><ele>77.0</ele><time>2026-04-18T11:08:26Z</time></trkpt><trkpt lat="44.5841644135377" lon="10.840043114161906"><ele>76.0</ele><time>2026-04-18T11:08:27Z</time></trkpt><trkpt lat="44.584340292253714" lon="10.840217075127606"><ele>75.0</ele><time>2026-04-18T11:08:28Z</time></trkpt><trkpt lat="44.58451837073096" lon="10.840383337820564"><ele>74.0</ele><time>2026-04-18T11:08:29Z</time></trkpt><trkpt lat="44.58470283358236" lon="10.84054772056088"><ele>73.33333333333334</ele><time>2026-04-18T11:08:30Z</time></trkpt><trkpt lat="44.58488684521351" lon="10.840703209539175"><ele>72.66666666666667</ele><time>2026-04-18T11:08:31Z</time></trkpt><trkpt lat="44.585073219800755" lon="10.840852725527974"><ele>72.0</ele><time>2026-04-18T11:08:32Z</time></trkpt><trkpt lat="44.58526564856144" lon="10.840996100298659"><ele>71.66666666666667</ele><time>2026-04-18T11:08:33Z</time></trkpt><trkpt lat="44.58545972380402" lon="10.841129675792764"><ele>71.33333333333334</ele><time>2026-04-18T11:08:34Z</time></trkpt><trkpt lat="44.58566025652947" lon="10.8412573433824"><ele>71.0</ele><time>2026-04-18T11:08:35Z</time></trkpt><trkpt lat="44.58585030749641" lon="10.841372379022168"><ele>71.0</ele><time>2026-04-18T11:08:36Z</time></trkpt><trkpt lat="44.5860462096044" lon="10.841485438228728"><ele>71.0</ele><time>2026-04-18T11:08:37Z</time></trkpt><trkpt lat="44.58624391363228" lon="10.84159173537715"><ele>71.0</ele><time>2026-04-18T11:08:38Z</time></trkpt><trkpt lat="44.58644951381311" lon="10.841692572878964"><ele>70.66666666666667</ele><time>2026-04-18T11:08:39Z</time></trkpt><trkpt lat="44.586653674373785" lon="10.841788077688195"><ele>70.33333333333333</ele><time>2026-04-18T11:08:40Z</time></trkpt><trkpt lat="44.58685790704636" lon="10.841879672263886"><ele>70.0</ele><time>2026-04-18T11:08:41Z</time></trkpt><trkpt lat="44.587060860995116" lon="10.841970658110949"><ele>70.0</ele><time>2026-04-18T11:08:42Z</time></trkpt><trkpt lat="44.5872656434282" lon="10.842059092634896"><ele>70.0</ele><time>2026-04-18T11:08:43Z</time></trkpt><trkpt lat="44.58747196166739" lon="10.842149161947289"><ele>70.0</ele><time>2026-04-18T11:08:44Z</time></trkpt><trkpt lat="44.58767453742496" lon="10.842240475137523"><ele>69.66666666666666</ele><time>2026-04-18T11:08:45Z</time></trkpt><trkpt lat="44.587876833581774" lon="10.842329533667689"><ele>69.33333333333333</ele><time>2026-04-18T11:08:46Z</time></trkpt><trkpt lat="44.58808140854451" lon="10.842417331997051"><ele>69.0</ele><time>2026-04-18T11:08:47Z</time></trkpt><trkpt lat="44.588282140588134" lon="10.842504882905352"><ele>69.0</ele><time>2026-04-18T11:08:48Z</time></trkpt><trkpt lat="44.588475210354346" lon="10.842592132980101"><ele>69.0</ele><time>2026-04-18T11:08:49Z</time></trkpt><trkpt lat="44.58867164584982" lon="10.842688846852498"><ele>69.0</ele><time>2026-04-18T11:08:50Z</time></trkpt><trkpt lat="44.58885822083816" lon="10.842783460304197"><ele>69.0</ele><time>2026-04-18T11:08:51Z</time></trkpt><trkpt lat="44.589041676469705" lon="10.842876923862388"><ele>69.0</ele><time>2026-04-18T11:08:52Z</time></trkpt><trkpt lat="44.58931400362418" lon="10.842956722742548"><ele>69.0</ele><time>2026-04-18T11:08:53Z</time></trkpt><trkpt lat="44.58952103358362" lon="10.843047145465938"><ele>69.0</ele><time>2026-04-18T11:08:54Z</time></trkpt><trkpt lat="44.58972766825478" lon="10.843140551752661"><ele>69.0</ele><time>2026-04-18T11:08:55Z</time></trkpt><trkpt lat="44.589932890351534" lon="10.843228428592433"><ele>69.0</ele><time>2026-04-18T11:08:56Z</time></trkpt><trkpt lat="44.590140088079856" lon="10.843313890416917"><ele>69.0</ele><time>2026-04-18T11:08:57Z</time></trkpt><trkpt lat="44.59034420347138" lon="10.843408742588757"><ele>69.0</ele><time>2026-04-18T11:08:58Z</time></trkpt><trkpt lat="44.59054857972196" lon="10.843504211302738"><ele>68.66666666666667</ele><time>2026-04-18T11:08:59Z</time></trkpt><trkpt lat="44.59075123713563" lon="10.843595391051467"><ele>68.33333333333334</ele><time>2026-04-18T11:09:00Z</time></trkpt><trkpt lat="44.590953217732384" lon="10.843684272611469"><ele>68.0</ele><time>2026-04-18T11:09:01Z</time></trkpt><trkpt lat="44.59115947294041" lon="10.843770293538789"><ele>68.66666666666667</ele><time>2026-04-18T11:09:02Z</time></trkpt><trkpt lat="44.59136592811888" lon="10.843854988177776"><ele>69.33333333333333</ele><time>2026-04-18T11:09:03Z</time></trkpt><trkpt lat="44.591573098503844" lon="10.843944662253904"><ele>70.0</ele><time>2026-04-18T11:09:04Z</time></trkpt><trkpt lat="44.5917776932486" lon="10.844030388932442"><ele>70.0</ele><time>2026-04-18T11:09:05Z</time></trkpt><trkpt lat="44.59197996693283" lon="10.844120959989866"><ele>70.0</ele><time>2026-04-18T11:09:06Z</time></trkpt><trkpt lat="44.5921815757151" lon="10.844212918618599"><ele>70.0</ele><time>2026-04-18T11:09:07Z</time></trkpt><trkpt lat="44.59238251410118" lon="10.844304491710387"><ele>68.66666666666666</ele><time>2026-04-18T11:09:08Z</time></trkpt><trkpt lat="44.59258561215723" lon="10.844392073553822"><ele>67.33333333333333</ele><time>2026-04-18T11:09:09Z</time></trkpt><trkpt lat="44.59279244969846" lon="10.844478124466727"><ele>66.0</ele><time>2026-04-18T11:09:10Z</time></trkpt><trkpt lat="44.592995107815575" lon="10.844572148545206"><ele>64.5</ele><time>2026-04-18T11:09:11Z</time></trkpt><trkpt lat="44.59320355679782" lon="10.844664527484467"><ele>63.0</ele><time>2026-04-18T11:09:12Z</time></trkpt><trkpt lat="44.59343670633905" lon="10.844766449471024"><ele>64.0</ele><time>2026-04-18T11:09:13Z</time></trkpt><trkpt lat="44.593675115965375" lon="10.844873747118541"><ele>65.0</ele><time>2026-04-18T11:09:14Z</time></trkpt><trkpt lat="44.593935987406674" lon="10.844992587425137"><ele>65.0</ele><time>2026-04-18T11:09:15Z</time></trkpt><trkpt lat="44.59419622563695" lon="10.845110461436388"><ele>65.0</ele><time>2026-04-18T11:09:16Z</time></trkpt><trkpt lat="44.59446867168987" lon="10.845227450276008"><ele>64.5</ele><time>2026-04-18T11:09:17Z</time></trkpt><trkpt lat="44.59474923572105" lon="10.845346833085287"><ele>64.0</ele><time>2026-04-18T11:09:18Z</time></trkpt><trkpt lat="44.59502582746652" lon="10.845464450030354"><ele>64.0</ele><time>2026-04-18T11:09:19Z</time></trkpt><trkpt lat="44.595292919343485" lon="10.845582301510689"><ele>64.0</ele><time>2026-04-18T11:09:20Z</time></trkpt><trkpt lat="44.59554302543751" lon="10.845689703756856"><ele>64.5</ele><time>2026-04-18T11:09:21Z</time></trkpt><trkpt lat="44.59580004717848" lon="10.845799918842587"><ele>65.0</ele><time>2026-04-18T11:09:22Z</time></trkpt><trkpt lat="44.596058954082764" lon="10.84591133935149"><ele>64.5</ele><time>2026-04-18T11:09:23Z</time></trkpt><trkpt lat="44.5963257157582" lon="10.846019691751565"><ele>64.0</ele><time>2026-04-18T11:09:24Z</time></trkpt><trkpt lat="44.59659539495159" lon="10.846131554892345"><ele>64.0</ele><time>2026-04-18T11:09:25Z</time></trkpt><trkpt lat="44.59686816554006" lon="10.84625368696383"><ele>64.0</ele><time>2026-04-18T11:09:26Z</time></trkpt><trkpt lat="44.59714569475261" lon="10.846371260117875"><ele>63.5</ele><time>2026-04-18T11:09:27Z</time></trkpt><trkpt lat="44.59742049362482" lon="10.846493021913151"><ele>63.0</ele><time>2026-04-18T11:09:28Z</time></trkpt><trkpt lat="44.59769250767109" lon="10.846614845159609"><ele>63.0</ele><time>2026-04-18T11:09:29Z</time></trkpt><trkpt lat="44.59796573870464" lon="10.846736314297"><ele>63.0</ele><time>2026-04-18T11:09:30Z</time></trkpt><trkpt lat="44.59824392008056" lon="10.846859239263408"><ele>63.0</ele><time>2026-04-18T11:09:31Z</time></trkpt><trkpt lat="44.598515272456304" lon="10.846978011663285"><ele>63.0</ele><time>2026-04-18T11:09:32Z</time></trkpt><trkpt lat="44.59878952079158" lon="10.847099784869274"><ele>62.5</ele><time>2026-04-18T11:09:33Z</time></trkpt><trkpt lat="44.59906849527744" lon="10.847220101935433"><ele>62.0</ele><time>2026-04-18T11:09:34Z</time></trkpt><trkpt lat="44.59935280799887" lon="10.84734272214658"><ele>61.5</ele><time>2026-04-18T11:09:35Z</time></trkpt><trkpt lat="44.59963633363219" lon="10.84746723424646"><ele>61.0</ele><time>2026-04-18T11:09:36Z</time></trkpt><trkpt lat="44.59991695812289" lon="10.847597844215999"><ele>61.0</ele><time>2026-04-18T11:09:37Z</time></trkpt><trkpt lat="44.60019175216974" lon="10.847721420722003"><ele>61.0</ele><time>2026-04-18T11:09:38Z</time></trkpt><trkpt lat="44.600462122319115" lon="10.847840542497519"><ele>60.5</ele><time>2026-04-18T11:09:39Z</time></trkpt><trkpt lat="44.600741762725406" lon="10.84797014183332"><ele>60.0</ele><time>2026-04-18T11:09:40Z</time></trkpt><trkpt lat="44.60102023894911" lon="10.848108480978144"><ele>59.5</ele><time>2026-04-18T11:09:41Z</time></trkpt><trkpt lat="44.60129939220344" lon="10.848263007066077"><ele>59.0</ele><time>2026-04-18T11:09:42Z</time></trkpt><trkpt lat="44.60157417992089" lon="10.84843816649717"><ele>58.5</ele><time>2026-04-18T11:09:43Z</time></trkpt><trkpt lat="44.60184579448913" lon="10.848628966157243"><ele>58.0</ele><time>2026-04-18T11:09:44Z</time></trkpt><trkpt lat="44.60211547896763" lon="10.848837678749677"><ele>58.0</ele><time>2026-04-18T11:09:45Z</time></trkpt><trkpt lat="44.60237745403783" lon="10.849070456078485"><ele>58.0</ele><time>2026-04-18T11:09:46Z</time></trkpt><trkpt lat="44.60264277198794" lon="10.849326903685286"><ele>57.5</ele><time>2026-04-18T11:09:47Z</time></trkpt><trkpt lat="44.60290490754814" lon="10.849603031799948"><ele>57.0</ele><time>2026-04-18T11:09:48Z</time></trkpt><trkpt lat="44.603167609156664" lon="10.849897581554934"><ele>57.0</ele><time>2026-04-18T11:09:49Z</time></trkpt><trkpt lat="44.603431719153505" lon="10.850200928736202"><ele>57.0</ele><time>2026-04-18T11:09:50Z</time></trkpt><trkpt lat="44.60370008436246" lon="10.85050422992519"><ele>57.0</ele><time>2026-04-18T11:09:51Z</time></trkpt><trkpt lat="44.60397116585705" lon="10.850805805192346"><ele>57.0</ele><time>2026-04-18T11:09:52Z</time></trkpt><trkpt lat="44.604242889109365" lon="10.851110884374856"><ele>57.5</ele><time>2026-04-18T11:09:53Z</time></trkpt><trkpt lat="44.60451485222419" lon="10.851419890916844"><ele>58.0</ele><time>2026-04-18T11:09:54Z</time></trkpt><trkpt lat="44.60479003042283" lon="10.851729541159852"><ele>58.0</ele><time>2026-04-18T11:09:55Z</time></trkpt><trkpt lat="44.60506540938001" lon="10.852034234406718"><ele>58.0</ele><time>2026-04-18T11:09:56Z</time></trkpt><trkpt lat="44.60533897874759" lon="10.852343013712046"><ele>57.5</ele><time>2026-04-18T11:09:57Z</time></trkpt><trkpt lat="44.605615440744856" lon="10.85265387079725"><ele>57.0</ele><time>2026-04-18T11:09:58Z</time></trkpt><trkpt lat="44.60589053826384" lon="10.852963328925874"><ele>57.0</ele><time>2026-04-18T11:09:59Z</time></trkpt><trkpt lat="44.60616674771619" lon="10.853273859389175"><ele>57.0</ele><time>2026-04-18T11:10:00Z</time></trkpt><trkpt lat="44.60643927159461" lon="10.853577874805318"><ele>57.5</ele><time>2026-04-18T11:10:01Z</time></trkpt><trkpt lat="44.60671285959205" lon="10.853888401966955"><ele>58.0</ele><time>2026-04-18T11:10:02Z</time></trkpt><trkpt lat="44.60697862875987" lon="10.854187457269635"><ele>57.5</ele><time>2026-04-18T11:10:03Z</time></trkpt><trkpt lat="44.607240157680614" lon="10.854481256378737"><ele>57.0</ele><time>2026-04-18T11:10:04Z</time></trkpt><trkpt lat="44.60750292924143" lon="10.854774495330302"><ele>57.0</ele><time>2026-04-18T11:10:05Z</time></trkpt><trkpt lat="44.60776602639229" lon="10.855068086673288"><ele>57.0</ele><time>2026-04-18T11:10:06Z</time></trkpt><trkpt lat="44.60802766819753" lon="10.855359512254354"><ele>57.0</ele><time>2026-04-18T11:10:07Z</time></trkpt><trkpt lat="44.608300066498366" lon="10.855663139191575"><ele>57.0</ele><time>2026-04-18T11:10:08Z</time></trkpt><trkpt lat="44.60856283143379" lon="10.855955246599963"><ele>57.5</ele><time>2026-04-18T11:10:09Z</time></trkpt><trkpt lat="44.60881953197118" lon="10.856246295982746"><ele>58.0</ele><time>2026-04-18T11:10:10Z</time></trkpt><trkpt lat="44.6090835362397" lon="10.856544691694621"><ele>58.0</ele><time>2026-04-18T11:10:11Z</time></trkpt><trkpt lat="44.609351723935994" lon="10.856849295476117"><ele>58.0</ele><time>2026-04-18T11:10:12Z</time></trkpt><trkpt lat="44.609619126132664" lon="10.8571493940542"><ele>56.5</ele><time>2026-04-18T11:10:13Z</time></trkpt><trkpt lat="44.60988869809397" lon="10.857449347315901"><ele>55.0</ele><time>2026-04-18T11:10:14Z</time></trkpt><trkpt lat="44.61015903536885" lon="10.857754516090681"><ele>53.5</ele><time>2026-04-18T11:10:15Z</time></trkpt><trkpt lat="44.610428336184384" lon="10.858056584393056"><ele>52.0</ele><time>2026-04-18T11:10:16Z</time></trkpt><trkpt lat="44.61069787869492" lon="10.858356803736152"><ele>53.0</ele><time>2026-04-18T11:10:17Z</time></trkpt><trkpt lat="44.61096914764205" lon="10.858655686682171"><ele>54.0</ele><time>2026-04-18T11:10:18Z</time></trkpt><trkpt lat="44.61123731744769" lon="10.858958246644358"><ele>54.0</ele><time>2026-04-18T11:10:19Z</time></trkpt><trkpt lat="44.61150166706361" lon="10.85925678185508"><ele>54.0</ele><time>2026-04-18T11:10:20Z</time></trkpt><trkpt lat="44.61175907515688" lon="10.859549545221732"><ele>53.0</ele><time>2026-04-18T11:10:21Z</time></trkpt><trkpt lat="44.61201960408339" lon="10.859845541655893"><ele>52.0</ele><time>2026-04-18T11:10:22Z</time></trkpt><trkpt lat="44.61228102121397" lon="10.860146530310328"><ele>52.0</ele><time>2026-04-18T11:10:23Z</time></trkpt><trkpt lat="44.61253727545" lon="10.86044229892433"><ele>52.0</ele><time>2026-04-18T11:10:24Z</time></trkpt><trkpt lat="44.61279414899584" lon="10.86073417298826"><ele>53.5</ele><time>2026-04-18T11:10:25Z</time></trkpt><trkpt lat="44.613041488941946" lon="10.861015296157246"><ele>55.0</ele><time>2026-04-18T11:10:26Z</time></trkpt><trkpt lat="44.613284567605994" lon="10.861292651084886"><ele>55.0</ele><time>2026-04-18T11:10:27Z</time></trkpt><trkpt lat="44.61350652985503" lon="10.861545899860158"><ele>55.0</ele><time>2026-04-18T11:10:28Z</time></trkpt><trkpt lat="44.61372988424548" lon="10.861799861963629"><ele>54.5</ele><time>2026-04-18T11:10:29Z</time></trkpt><trkpt lat="44.61395213208249" lon="10.862049923091865"><ele>54.0</ele><time>2026-04-18T11:10:30Z</time></trkpt><trkpt lat="44.61417893186758" lon="10.862306026143873"><ele>54.0</ele><time>2026-04-18T11:10:31Z</time></trkpt><trkpt lat="44.614403602229366" lon="10.862558951353531"><ele>54.0</ele><time>2026-04-18T11:10:32Z</time></trkpt><trkpt lat="44.614630891976134" lon="10.86280887638023"><ele>52.5</ele><time>2026-04-18T11:10:33Z</time></trkpt><trkpt lat="44.61486254715261" lon="10.863047037026384"><ele>51.0</ele><time>2026-04-18T11:10:34Z</time></trkpt><trkpt lat="44.61509890807923" lon="10.86327850820974"><ele>51.0</ele><time>2026-04-18T11:10:35Z</time></trkpt><trkpt lat="44.615338557983456" lon="10.86350557935408"><ele>51.0</ele><time>2026-04-18T11:10:36Z</time></trkpt><trkpt lat="44.61558871027196" lon="10.863738282015264"><ele>51.0</ele><time>2026-04-18T11:10:37Z</time></trkpt><trkpt lat="44.615834003376264" lon="10.863960222808059"><ele>51.0</ele><time>2026-04-18T11:10:38Z</time></trkpt><trkpt lat="44.61607758514261" lon="10.864172949759922"><ele>51.0</ele><time>2026-04-18T11:10:39Z</time></trkpt><trkpt lat="44.61631721399222" lon="10.864374707718923"><ele>51.0</ele><time>2026-04-18T11:10:40Z</time></trkpt><trkpt lat="44.61655854281192" lon="10.86457608891431"><ele>51.0</ele><time>2026-04-18T11:10:41Z</time></trkpt><trkpt lat="44.616793565367104" lon="10.864774291313418"><ele>51.0</ele><time>2026-04-18T11:10:42Z</time></trkpt><trkpt lat="44.617031223623314" lon="10.864974369727946"><ele>50.5</ele><time>2026-04-18T11:10:43Z</time></trkpt><trkpt lat="44.61727394977008" lon="10.865180613369898"><ele>50.0</ele><time>2026-04-18T11:10:44Z</time></trkpt><trkpt lat="44.61751789818033" lon="10.86539048113227"><ele>50.0</ele><time>2026-04-18T11:10:45Z</time></trkpt><trkpt lat="44.61776012673015" lon="10.86559964227386"><ele>50.0</ele><time>2026-04-18T11:10:46Z</time></trkpt><trkpt lat="44.618004860392986" lon="10.865811449800184"><ele>49.5</ele><time>2026-04-18T11:10:47Z</time></trkpt><trkpt lat="44.6182526824918" lon="10.86601676983936"><ele>49.0</ele><time>2026-04-18T11:10:48Z</time></trkpt><trkpt lat="44.61849931584934" lon="10.866224380002679"><ele>48.0</ele><time>2026-04-18T11:10:49Z</time></trkpt><trkpt lat="44.61874857686279" lon="10.866433280442617"><ele>47.0</ele><time>2026-04-18T11:10:50Z</time></trkpt><trkpt lat="44.618997980423934" lon="10.866644269685857"><ele>47.5</ele><time>2026-04-18T11:10:51Z</time></trkpt><trkpt lat="44.61925831849599" lon="10.866866205399212"><ele>48.0</ele><time>2026-04-18T11:10:52Z</time></trkpt><trkpt lat="44.61951527912397" lon="10.86709164342305"><ele>48.0</ele><time>2026-04-18T11:10:53Z</time></trkpt><trkpt lat="44.6197769492666" lon="10.867326572822053"><ele>48.0</ele><time>2026-04-18T11:10:54Z</time></trkpt><trkpt lat="44.62003421085406" lon="10.86757496638003"><ele>48.0</ele><time>2026-04-18T11:10:55Z</time></trkpt><trkpt lat="44.62028624168946" lon="10.867836185696758"><ele>48.0</ele><time>2026-04-18T11:10:56Z</time></trkpt><trkpt lat="44.6205301565518" lon="10.868102643754696"><ele>47.5</ele><time>2026-04-18T11:10:57Z</time></trkpt><trkpt lat="44.620768673939054" lon="10.868367789820983"><ele>47.0</ele><time>2026-04-18T11:10:58Z</time></trkpt><trkpt lat="44.621006906343496" lon="10.868636847569402"><ele>47.0</ele><time>2026-04-18T11:10:59Z</time></trkpt><trkpt lat="44.621237101430275" lon="10.868913883868519"><ele>47.0</ele><time>2026-04-18T11:11:00Z</time></trkpt><trkpt lat="44.6214574836902" lon="10.869199069232929"><ele>47.5</ele><time>2026-04-18T11:11:01Z</time></trkpt><trkpt lat="44.62168208270707" lon="10.869497134343293"><ele>48.0</ele><time>2026-04-18T11:11:02Z</time></trkpt><trkpt lat="44.62190363907846" lon="10.869801124927164"><ele>45.5</ele><time>2026-04-18T11:11:03Z</time></trkpt><trkpt lat="44.62212068574591" lon="10.870108351586346"><ele>43.0</ele><time>2026-04-18T11:11:04Z</time></trkpt><trkpt lat="44.622336939494076" lon="10.870418672511821"><ele>43.0</ele><time>2026-04-18T11:11:05Z</time></trkpt><trkpt lat="44.62254840094481" lon="10.87072197878455"><ele>43.0</ele><time>2026-04-18T11:11:06Z</time></trkpt><trkpt lat="44.622769019903195" lon="10.87104210577463"><ele>43.5</ele><time>2026-04-18T11:11:07Z</time></trkpt><trkpt lat="44.623012779139" lon="10.871388134007525"><ele>44.0</ele><time>2026-04-18T11:11:08Z</time></trkpt><trkpt lat="44.62328086081173" lon="10.871772694699805"><ele>44.5</ele><time>2026-04-18T11:11:09Z</time></trkpt><trkpt lat="44.623562639940495" lon="10.872180471930688"><ele>45.0</ele><time>2026-04-18T11:11:10Z</time></trkpt><trkpt lat="44.62384066621454" lon="10.872582026112138"><ele>44.0</ele><time>2026-04-18T11:11:11Z</time></trkpt><trkpt lat="44.6241024483686" lon="10.872954787302936"><ele>43.0</ele><time>2026-04-18T11:11:12Z</time></trkpt><trkpt lat="44.62435950950017" lon="10.873318306362158"><ele>43.5</ele><time>2026-04-18T11:11:13Z</time></trkpt><trkpt lat="44.62461149186616" lon="10.873671892949059"><ele>44.0</ele><time>2026-04-18T11:11:14Z</time></trkpt><trkpt lat="44.62487166978996" lon="10.874025915601358"><ele>43.5</ele><time>2026-04-18T11:11:15Z</time></trkpt><trkpt lat="44.62512962371844" lon="10.87436548698479"><ele>43.0</ele><time>2026-04-18T11:11:16Z</time></trkpt><trkpt lat="44.625382898982856" lon="10.874681265211786"><ele>43.0</ele><time>2026-04-18T11:11:17Z</time></trkpt><trkpt lat="44.62564230515817" lon="10.87500462675513"><ele>43.0</ele><time>2026-04-18T11:11:17.999Z</time></trkpt><trkpt lat="44.625889870368" lon="10.875306835513795"><ele>43.0</ele><time>2026-04-18T11:11:19Z</time></trkpt><trkpt lat="44.62613793402555" lon="10.875604431139296"><ele>43.0</ele><time>2026-04-18T11:11:20Z</time></trkpt><trkpt lat="44.626375986287634" lon="10.875887106151533"><ele>42.5</ele><time>2026-04-18T11:11:21Z</time></trkpt><trkpt lat="44.626606883076334" lon="10.876166217623583"><ele>42.0</ele><time>2026-04-18T11:11:22Z</time></trkpt><trkpt lat="44.62682852780237" lon="10.876438803410357"><ele>44.0</ele><time>2026-04-18T11:11:23Z</time></trkpt><trkpt lat="44.62704710879145" lon="10.876706255444363"><ele>46.0</ele><time>2026-04-18T11:11:24Z</time></trkpt><trkpt lat="44.62725686245755" lon="10.876964830668923"><ele>46.0</ele><time>2026-04-18T11:11:25Z</time></trkpt><trkpt lat="44.627480517519416" lon="10.877230760706126"><ele>46.0</ele><time>2026-04-18T11:11:26Z</time></trkpt><trkpt lat="44.62769320882678" lon="10.877485179121907"><ele>46.0</ele><time>2026-04-18T11:11:27Z</time></trkpt><trkpt lat="44.627905518554556" lon="10.877739444705298"><ele>46.0</ele><time>2026-04-18T11:11:28Z</time></trkpt><trkpt lat="44.62811315724015" lon="10.877987872098336"><ele>46.0</ele><time>2026-04-18T11:11:29Z</time></trkpt><trkpt lat="44.6283217679468" lon="10.878241350808944"><ele>46.0</ele><time>2026-04-18T11:11:30Z</time></trkpt><trkpt lat="44.62852906348453" lon="10.878495716927851"><ele>46.0</ele><time>2026-04-18T11:11:31Z</time></trkpt><trkpt lat="44.62873933675331" lon="10.87875078606067"><ele>46.0</ele><time>2026-04-18T11:11:32Z</time></trkpt><trkpt lat="44.628950066542046" lon="10.879005202117607"><ele>46.0</ele><time>2026-04-18T11:11:33Z</time></trkpt><trkpt lat="44.62917094142216" lon="10.879264380789046"><ele>46.0</ele><time>2026-04-18T11:11:34Z</time></trkpt><trkpt lat="44.629383468132964" lon="10.879509585219425"><ele>45.0</ele><time>2026-04-18T11:11:35Z</time></trkpt><trkpt lat="44.62959276065236" lon="10.87975616800974"><ele>44.0</ele><time>2026-04-18T11:11:36Z</time></trkpt><trkpt lat="44.62982519057593" lon="10.879997743473625"><ele>44.5</ele><time>2026-04-18T11:11:37Z</time></trkpt><trkpt lat="44.630030414377984" lon="10.880236823815759"><ele>45.0</ele><time>2026-04-18T11:11:38Z</time></trkpt><trkpt lat="44.630286247287955" lon="10.88048564996491"><ele>44.5</ele><time>2026-04-18T11:11:39Z</time></trkpt><trkpt lat="44.63055781239992" lon="10.8807228538215"><ele>44.0</ele><time>2026-04-18T11:11:40Z</time></trkpt><trkpt lat="44.63083629375844" lon="10.880958607306063"><ele>44.0</ele><time>2026-04-18T11:11:41Z</time></trkpt><trkpt lat="44.63110961317454" lon="10.881171203576164"><ele>44.0</ele><time>2026-04-18T11:11:42Z</time></trkpt><trkpt lat="44.63141186511194" lon="10.881382379258314"><ele>42.5</ele><time>2026-04-18T11:11:43Z</time></trkpt><trkpt lat="44.63172753947356" lon="10.881572229354937"><ele>41.0</ele><time>2026-04-18T11:11:44Z</time></trkpt><trkpt lat="44.63205139619058" lon="10.88174062656829"><ele>40.5</ele><time>2026-04-18T11:11:45Z</time></trkpt><trkpt lat="44.6323832449683" lon="10.88188364908245"><ele>40.0</ele><time>2026-04-18T11:11:46Z</time></trkpt><trkpt lat="44.63271914899719" lon="10.88201366792133"><ele>40.0</ele><time>2026-04-18T11:11:47Z</time></trkpt><trkpt lat="44.63305934880469" lon="10.882114222955906"><ele>40.0</ele><time>2026-04-18T11:11:48Z</time></trkpt><trkpt lat="44.63339488795964" lon="10.882203755161283"><ele>40.0</ele><time>2026-04-18T11:11:49Z</time></trkpt><trkpt lat="44.63373078902334" lon="10.882271633795837"><ele>40.0</ele><time>2026-04-18T11:11:50Z</time></trkpt><trkpt lat="44.634051764342836" lon="10.882314060328007"><ele>40.0</ele><time>2026-04-18T11:11:51Z</time></trkpt><trkpt lat="44.63435694555383" lon="10.882335400198702"><ele>40.0</ele><time>2026-04-18T11:11:52Z</time></trkpt><trkpt lat="44.634650375533106" lon="10.882343790384597"><ele>40.5</ele><time>2026-04-18T11:11:53Z</time></trkpt><trkpt lat="44.63493862192555" lon="10.882334620035145"><ele>41.0</ele><time>2026-04-18T11:11:54Z</time></trkpt><trkpt lat="44.63522466431694" lon="10.882314937843999"><ele>40.5</ele><time>2026-04-18T11:11:55Z</time></trkpt><trkpt lat="44.635514659352815" lon="10.882283124647229"><ele>40.0</ele><time>2026-04-18T11:11:56Z</time></trkpt><trkpt lat="44.635799974139545" lon="10.882231403038466"><ele>40.0</ele><time>2026-04-18T11:11:57Z</time></trkpt><trkpt lat="44.6360937624747" lon="10.882166960550007"><ele>40.0</ele><time>2026-04-18T11:11:58Z</time></trkpt><trkpt lat="44.63637816674851" lon="10.882089157609672"><ele>39.5</ele><time>2026-04-18T11:11:59Z</time></trkpt><trkpt lat="44.636659277433445" lon="10.88198986223002"><ele>39.0</ele><time>2026-04-18T11:12:00Z</time></trkpt><trkpt lat="44.636930682513125" lon="10.881884280932494"><ele>38.5</ele><time>2026-04-18T11:12:01Z</time></trkpt><trkpt lat="44.637193666432516" lon="10.881774053029181"><ele>38.0</ele><time>2026-04-18T11:12:02Z</time></trkpt><trkpt lat="44.63745215164422" lon="10.881645993271022"><ele>38.0</ele><time>2026-04-18T11:12:03Z</time></trkpt><trkpt lat="44.63771533648318" lon="10.881503406000057"><ele>38.0</ele><time>2026-04-18T11:12:04Z</time></trkpt><trkpt lat="44.63797537092625" lon="10.881353390181681"><ele>39.0</ele><time>2026-04-18T11:12:05Z</time></trkpt><trkpt lat="44.63822442024001" lon="10.881184721654153"><ele>40.0</ele><time>2026-04-18T11:12:06Z</time></trkpt><trkpt lat="44.63847272143177" lon="10.881004648744534"><ele>40.0</ele><time>2026-04-18T11:12:07Z</time></trkpt><trkpt lat="44.63872470964674" lon="10.880804584367233"><ele>40.0</ele><time>2026-04-18T11:12:08Z</time></trkpt><trkpt lat="44.638990307290065" lon="10.880580011060323"><ele>40.0</ele><time>2026-04-18T11:12:09Z</time></trkpt><trkpt lat="44.63925642581573" lon="10.880323948059731"><ele>40.0</ele><time>2026-04-18T11:12:10Z</time></trkpt><trkpt lat="44.6395325849627" lon="10.880053528794274"><ele>39.0</ele><time>2026-04-18T11:12:11Z</time></trkpt><trkpt lat="44.63978732263858" lon="10.879774939219685"><ele>38.0</ele><time>2026-04-18T11:12:12Z</time></trkpt><trkpt lat="44.64002614521593" lon="10.8794754580636"><ele>38.5</ele><time>2026-04-18T11:12:13Z</time></trkpt><trkpt lat="44.64024524916209" lon="10.879196084687166"><ele>39.0</ele><time>2026-04-18T11:12:14Z</time></trkpt><trkpt lat="44.64044065077209" lon="10.878927030448212"><ele>39.0</ele><time>2026-04-18T11:12:15Z</time></trkpt><trkpt lat="44.64062836802309" lon="10.878644628994262"><ele>39.0</ele><time>2026-04-18T11:12:16Z</time></trkpt><trkpt lat="44.64080695824682" lon="10.87838070905818"><ele>39.5</ele><time>2026-04-18T11:12:17Z</time></trkpt><trkpt lat="44.640976403845585" lon="10.87814963678737"><ele>40.0</ele><time>2026-04-18T11:12:18Z</time></trkpt><trkpt lat="44.64113581889927" lon="10.877929567375416"><ele>38.5</ele><time>2026-04-18T11:12:19Z</time></trkpt><trkpt lat="44.64131699536724" lon="10.877711516120554"><ele>37.0</ele><time>2026-04-18T11:12:20Z</time></trkpt><trkpt lat="44.641516622265726" lon="10.877524476178989"><ele>37.0</ele><time>2026-04-18T11:12:21Z</time></trkpt><trkpt lat="44.64173311290066" lon="10.877370632785711"><ele>37.0</ele><time>2026-04-18T11:12:22Z</time></trkpt><trkpt lat="44.641967173391336" lon="10.87724506538389"><ele>36.0</ele><time>2026-04-18T11:12:23Z</time></trkpt><trkpt lat="44.64221773768314" lon="10.877144159091449"><ele>35.0</ele><time>2026-04-18T11:12:24Z</time></trkpt><trkpt lat="44.64251193099234" lon="10.877061500377005"><ele>35.5</ele><time>2026-04-18T11:12:25Z</time></trkpt><trkpt lat="44.642865030885794" lon="10.87696899902102"><ele>36.0</ele><time>2026-04-18T11:12:26Z</time></trkpt><trkpt lat="44.64321539378521" lon="10.876858453609474"><ele>37.0</ele><time>2026-04-18T11:12:27Z</time></trkpt><trkpt lat="44.64352684897813" lon="10.876758968317631"><ele>38.0</ele><time>2026-04-18T11:12:28Z</time></trkpt><trkpt lat="44.643823559158456" lon="10.876662276707462"><ele>38.0</ele><time>2026-04-18T11:12:29Z</time></trkpt><trkpt lat="44.64410676714274" lon="10.876571097638285"><ele>38.0</ele><time>2026-04-18T11:12:30Z</time></trkpt><trkpt lat="44.64438641919175" lon="10.876471872956916"><ele>38.5</ele><time>2026-04-18T11:12:31Z</time></trkpt><trkpt lat="44.64464974841784" lon="10.876369299292225"><ele>39.0</ele><time>2026-04-18T11:12:32Z</time></trkpt><trkpt lat="44.644898537924625" lon="10.876258251053743"><ele>39.0</ele><time>2026-04-18T11:12:33Z</time></trkpt><trkpt lat="44.645127915101654" lon="10.876151935870283"><ele>39.0</ele><time>2026-04-18T11:12:34Z</time></trkpt><trkpt lat="44.64534534674953" lon="10.876050913746065"><ele>39.0</ele><time>2026-04-18T11:12:35Z</time></trkpt><trkpt lat="44.64554408273715" lon="10.87596020957973"><ele>39.0</ele><time>2026-04-18T11:12:36Z</time></trkpt><trkpt lat="44.645735524093645" lon="10.875878462160621"><ele>39.0</ele><time>2026-04-18T11:12:37Z</time></trkpt><trkpt lat="44.64592875692316" lon="10.8757950882916"><ele>39.0</ele><time>2026-04-18T11:12:38Z</time></trkpt><trkpt lat="44.64612561800594" lon="10.875709636794552"><ele>39.0</ele><time>2026-04-18T11:12:39Z</time></trkpt><trkpt lat="44.64631997711741" lon="10.875625824432392"><ele>39.0</ele><time>2026-04-18T11:12:40Z</time></trkpt><trkpt lat="44.64652950495323" lon="10.875534128851692"><ele>39.333333333333336</ele><time>2026-04-18T11:12:41Z</time></trkpt><trkpt lat="44.6467357710028" lon="10.875441456106877"><ele>39.66666666666667</ele><time>2026-04-18T11:12:42Z</time></trkpt><trkpt lat="44.64694205300495" lon="10.87535146603584"><ele>40.0</ele><time>2026-04-18T11:12:43Z</time></trkpt><trkpt lat="44.64714495265083" lon="10.875261960295882"><ele>39.0</ele><time>2026-04-18T11:12:44Z</time></trkpt><trkpt lat="44.647354019618255" lon="10.875170955104474"><ele>38.0</ele><time>2026-04-18T11:12:45Z</time></trkpt><trkpt lat="44.64755631527017" lon="10.875080264066776"><ele>37.0</ele><time>2026-04-18T11:12:46Z</time></trkpt><trkpt lat="44.647758839182586" lon="10.874989121145815"><ele>37.0</ele><time>2026-04-18T11:12:47Z</time></trkpt><trkpt lat="44.64795932735769" lon="10.874899015617617"><ele>37.0</ele><time>2026-04-18T11:12:48Z</time></trkpt><trkpt lat="44.64815540685999" lon="10.874811134205894"><ele>37.0</ele><time>2026-04-18T11:12:49Z</time></trkpt><trkpt lat="44.64835732525071" lon="10.874726959287763"><ele>37.0</ele><time>2026-04-18T11:12:50Z</time></trkpt><trkpt lat="44.64855070752062" lon="10.874638942104369"><ele>37.0</ele><time>2026-04-18T11:12:51Z</time></trkpt><trkpt lat="44.64873814286524" lon="10.874542196933913"><ele>37.0</ele><time>2026-04-18T11:12:52Z</time></trkpt><trkpt lat="44.64892357570294" lon="10.874434290461267"><ele>37.0</ele><time>2026-04-18T11:12:53Z</time></trkpt><trkpt lat="44.6491100639498" lon="10.874311922530287"><ele>37.0</ele><time>2026-04-18T11:12:54Z</time></trkpt><trkpt lat="44.649290075062936" lon="10.874175357269875"><ele>37.0</ele><time>2026-04-18T11:12:55Z</time></trkpt><trkpt lat="44.649467822881" lon="10.874027737182042"><ele>36.66666666666667</ele><time>2026-04-18T11:12:56Z</time></trkpt><trkpt lat="44.64964205168469" lon="10.873871083551283"><ele>36.333333333333336</ele><time>2026-04-18T11:12:57Z</time></trkpt><trkpt lat="44.64981265276867" lon="10.873704868909183"><ele>36.0</ele><time>2026-04-18T11:12:58Z</time></trkpt><trkpt lat="44.6499796902321" lon="10.873524151363547"><ele>36.5</ele><time>2026-04-18T11:12:59Z</time></trkpt><trkpt lat="44.65015295106252" lon="10.873319410951469"><ele>37.0</ele><time>2026-04-18T11:13:00Z</time></trkpt><trkpt lat="44.6503463255331" lon="10.87306292048931"><ele>37.5</ele><time>2026-04-18T11:13:01Z</time></trkpt><trkpt lat="44.650530464403666" lon="10.872792642709205"><ele>38.0</ele><time>2026-04-18T11:13:02Z</time></trkpt><trkpt lat="44.65068145409682" lon="10.872547966985689"><ele>40.0</ele><time>2026-04-18T11:13:03Z</time></trkpt><trkpt lat="44.650818229063375" lon="10.87230689237904"><ele>42.0</ele><time>2026-04-18T11:13:04Z</time></trkpt><trkpt lat="44.65097544165291" lon="10.872030655456001"><ele>43.0</ele><time>2026-04-18T11:13:05Z</time></trkpt><trkpt lat="44.65115860716115" lon="10.871750519552704"><ele>44.0</ele><time>2026-04-18T11:13:06Z</time></trkpt><trkpt lat="44.65135485862522" lon="10.871478419550892"><ele>44.0</ele><time>2026-04-18T11:13:07Z</time></trkpt><trkpt lat="44.65155524296672" lon="10.871239008387903"><ele>44.0</ele><time>2026-04-18T11:13:08Z</time></trkpt><trkpt lat="44.65175233267124" lon="10.871017161545664"><ele>43.5</ele><time>2026-04-18T11:13:09Z</time></trkpt><trkpt lat="44.651952075189115" lon="10.870807615379142"><ele>43.0</ele><time>2026-04-18T11:13:10Z</time></trkpt><trkpt lat="44.65215182715708" lon="10.870618837266175"><ele>42.333333333333336</ele><time>2026-04-18T11:13:11Z</time></trkpt><trkpt lat="44.65234228168525" lon="10.870451890956941"><ele>41.666666666666664</ele><time>2026-04-18T11:13:12Z</time></trkpt><trkpt lat="44.65253513252491" lon="10.870298668771829"><ele>41.0</ele><time>2026-04-18T11:13:13Z</time></trkpt><trkpt lat="44.65272363194129" lon="10.870156546973906"><ele>40.666666666666664</ele><time>2026-04-18T11:13:14Z</time></trkpt><trkpt lat="44.652919407663404" lon="10.870019587499506"><ele>40.333333333333336</ele><time>2026-04-18T11:13:15Z</time></trkpt><trkpt lat="44.65312227043847" lon="10.869894218362651"><ele>40.0</ele><time>2026-04-18T11:13:16Z</time></trkpt><trkpt lat="44.65332008640446" lon="10.869778402708814"><ele>40.0</ele><time>2026-04-18T11:13:17Z</time></trkpt><trkpt lat="44.653522165891175" lon="10.869667003235246"><ele>40.0</ele><time>2026-04-18T11:13:18Z</time></trkpt><trkpt lat="44.6537198127189" lon="10.869570317877946"><ele>40.0</ele><time>2026-04-18T11:13:19Z</time></trkpt><trkpt lat="44.65392045069443" lon="10.869488619514273"><ele>39.0</ele><time>2026-04-18T11:13:20Z</time></trkpt><trkpt lat="44.6541177928341" lon="10.869424102807175"><ele>38.0</ele><time>2026-04-18T11:13:21Z</time></trkpt><trkpt lat="44.65431228297391" lon="10.869371941953421"><ele>37.0</ele><time>2026-04-18T11:13:22Z</time></trkpt><trkpt lat="44.65451256570216" lon="10.869325262163098"><ele>37.0</ele><time>2026-04-18T11:13:22.999Z</time></trkpt><trkpt lat="44.65471779781451" lon="10.869289445400769"><ele>37.0</ele><time>2026-04-18T11:13:23.999Z</time></trkpt><trkpt lat="44.654924820544366" lon="10.869262450027222"><ele>37.0</ele><time>2026-04-18T11:13:24.999Z</time></trkpt><trkpt lat="44.65513154624579" lon="10.869241976973788"><ele>36.66666666666667</ele><time>2026-04-18T11:13:25.999Z</time></trkpt><trkpt lat="44.655348002846424" lon="10.869233684741511"><ele>36.333333333333336</ele><time>2026-04-18T11:13:26.999Z</time></trkpt><trkpt lat="44.655560719610435" lon="10.869236671962149"><ele>36.0</ele><time>2026-04-18T11:13:27.999Z</time></trkpt><trkpt lat="44.65577645546479" lon="10.869259028323386"><ele>36.0</ele><time>2026-04-18T11:13:28.999Z</time></trkpt><trkpt lat="44.65598597095933" lon="10.869298009782264"><ele>36.0</ele><time>2026-04-18T11:13:29.999Z</time></trkpt><trkpt lat="44.656190211375495" lon="10.869351418110595"><ele>36.0</ele><time>2026-04-18T11:13:30.999Z</time></trkpt><trkpt lat="44.656395781666774" lon="10.86941151852426"><ele>36.0</ele><time>2026-04-18T11:13:31.999Z</time></trkpt><trkpt lat="44.65660185317884" lon="10.869484870902085"><ele>36.0</ele><time>2026-04-18T11:13:33Z</time></trkpt><trkpt lat="44.65680413652991" lon="10.869571868508757"><ele>36.0</ele><time>2026-04-18T11:13:34Z</time></trkpt><trkpt lat="44.65699233688025" lon="10.869661495094116"><ele>35.5</ele><time>2026-04-18T11:13:35Z</time></trkpt><trkpt lat="44.65719413648689" lon="10.869762248816224"><ele>35.0</ele><time>2026-04-18T11:13:36Z</time></trkpt><trkpt lat="44.65741717468256" lon="10.869898295407323"><ele>35.0</ele><time>2026-04-18T11:13:37Z</time></trkpt><trkpt lat="44.657637614111444" lon="10.870056501743893"><ele>35.0</ele><time>2026-04-18T11:13:38Z</time></trkpt><trkpt lat="44.65785874734491" lon="10.870232639587538"><ele>35.0</ele><time>2026-04-18T11:13:39Z</time></trkpt><trkpt lat="44.6580792762925" lon="10.870427213004698"><ele>35.0</ele><time>2026-04-18T11:13:40Z</time></trkpt><trkpt lat="44.6582899788607" lon="10.870629261571342"><ele>35.0</ele><time>2026-04-18T11:13:41Z</time></trkpt><trkpt lat="44.658496508323914" lon="10.870853336328246"><ele>35.0</ele><time>2026-04-18T11:13:42Z</time></trkpt><trkpt lat="44.65869640655611" lon="10.871102214934266"><ele>36.5</ele><time>2026-04-18T11:13:43Z</time></trkpt><trkpt lat="44.658894010401546" lon="10.871369591834307"><ele>38.0</ele><time>2026-04-18T11:13:44Z</time></trkpt><trkpt lat="44.6590790369261" lon="10.871644323576653"><ele>38.5</ele><time>2026-04-18T11:13:45Z</time></trkpt><trkpt lat="44.659243905857416" lon="10.871926053005287"><ele>39.0</ele><time>2026-04-18T11:13:46Z</time></trkpt><trkpt lat="44.65939381567393" lon="10.872214869973142"><ele>38.5</ele><time>2026-04-18T11:13:47Z</time></trkpt><trkpt lat="44.65952819811142" lon="10.872507056303835"><ele>38.0</ele><time>2026-04-18T11:13:48Z</time></trkpt><trkpt lat="44.659650718204006" lon="10.87279524691839"><ele>37.0</ele><time>2026-04-18T11:13:49Z</time></trkpt><trkpt lat="44.6597610775189" lon="10.873082371106063"><ele>36.0</ele><time>2026-04-18T11:13:50Z</time></trkpt><trkpt lat="44.65986581348443" lon="10.873362706164288"><ele>36.5</ele><time>2026-04-18T11:13:51Z</time></trkpt><trkpt lat="44.65996240935162" lon="10.873679094843544"><ele>37.0</ele><time>2026-04-18T11:13:52Z</time></trkpt><trkpt lat="44.66005877614925" lon="10.874044879516795"><ele>36.5</ele><time>2026-04-18T11:13:53Z</time></trkpt><trkpt lat="44.660142654653825" lon="10.874433134242828"><ele>36.0</ele><time>2026-04-18T11:13:54Z</time></trkpt><trkpt lat="44.660214251297774" lon="10.874876543285994"><ele>36.0</ele><time>2026-04-18T11:13:55Z</time></trkpt><trkpt lat="44.66028304270072" lon="10.875395252324"><ele>36.0</ele><time>2026-04-18T11:13:56Z</time></trkpt><trkpt lat="44.660356520479866" lon="10.875937128227983"><ele>36.0</ele><time>2026-04-18T11:13:57Z</time></trkpt><trkpt lat="44.66043587818595" lon="10.876486020766238"><ele>36.0</ele><time>2026-04-18T11:13:58Z</time></trkpt><trkpt lat="44.66050316627434" lon="10.876979772170417"><ele>36.0</ele><time>2026-04-18T11:13:59Z</time></trkpt><trkpt lat="44.660561766452766" lon="10.877423116719777"><ele>36.0</ele><time>2026-04-18T11:14:00Z</time></trkpt><trkpt lat="44.66061961311052" lon="10.877847715901849"><ele>36.0</ele><time>2026-04-18T11:14:01Z</time></trkpt><trkpt lat="44.66067995179834" lon="10.878272569011303"><ele>36.0</ele><time>2026-04-18T11:14:02Z</time></trkpt><trkpt lat="44.660741376618226" lon="10.878681271520112"><ele>36.0</ele><time>2026-04-18T11:14:03Z</time></trkpt><trkpt lat="44.66081102223478" lon="10.879082900697142"><ele>36.0</ele><time>2026-04-18T11:14:04Z</time></trkpt><trkpt lat="44.66088646866242" lon="10.87948200074136"><ele>36.0</ele><time>2026-04-18T11:14:05Z</time></trkpt><trkpt lat="44.660969654391465" lon="10.879864117819377"><ele>36.0</ele><time>2026-04-18T11:14:06Z</time></trkpt><trkpt lat="44.661059369505466" lon="10.880230850840553"><ele>34.5</ele><time>2026-04-18T11:14:07Z</time></trkpt><trkpt lat="44.66115719521085" lon="10.880582975890903"><ele>33.0</ele><time>2026-04-18T11:14:08Z</time></trkpt><trkpt lat="44.66126450241566" lon="10.880932498434014"><ele>33.5</ele><time>2026-04-18T11:14:09Z</time></trkpt><trkpt lat="44.66136870797487" lon="10.881262799879948"><ele>34.0</ele><time>2026-04-18T11:14:10Z</time></trkpt><trkpt lat="44.66148032315642" lon="10.881579498233705"><ele>34.0</ele><time>2026-04-18T11:14:11Z</time></trkpt><trkpt lat="44.661594439903325" lon="10.881884042866991"><ele>34.0</ele><time>2026-04-18T11:14:12Z</time></trkpt><trkpt lat="44.66171116434602" lon="10.882184896680167"><ele>34.0</ele><time>2026-04-18T11:14:13Z</time></trkpt><trkpt lat="44.66183196819115" lon="10.88246863753328"><ele>34.0</ele><time>2026-04-18T11:14:14Z</time></trkpt><trkpt lat="44.66196129351771" lon="10.882750506763244"><ele>35.0</ele><time>2026-04-18T11:14:15Z</time></trkpt><trkpt lat="44.6620972646837" lon="10.883031114692445"><ele>36.0</ele><time>2026-04-18T11:14:16Z</time></trkpt><trkpt lat="44.66223738760929" lon="10.883310168701989"><ele>36.0</ele><time>2026-04-18T11:14:17Z</time></trkpt><trkpt lat="44.66237951289169" lon="10.883583345928033"><ele>36.0</ele><time>2026-04-18T11:14:18Z</time></trkpt><trkpt lat="44.66252317882622" lon="10.883854967477395"><ele>36.0</ele><time>2026-04-18T11:14:19Z</time></trkpt><trkpt lat="44.66266216201152" lon="10.884117622919415"><ele>36.0</ele><time>2026-04-18T11:14:20Z</time></trkpt><trkpt lat="44.66280297162175" lon="10.884388475872063"><ele>37.5</ele><time>2026-04-18T11:14:21Z</time></trkpt><trkpt lat="44.66294064537353" lon="10.884657247188276"><ele>39.0</ele><time>2026-04-18T11:14:22Z</time></trkpt><trkpt lat="44.66307777860192" lon="10.884926766063248"><ele>37.333333333333336</ele><time>2026-04-18T11:14:23Z</time></trkpt><trkpt lat="44.66320094330898" lon="10.885183191380586"><ele>35.66666666666667</ele><time>2026-04-18T11:14:24Z</time></trkpt><trkpt lat="44.66330022372741" lon="10.885415726388159"><ele>34.0</ele><time>2026-04-18T11:14:25Z</time></trkpt><trkpt lat="44.66339198760002" lon="10.885661471842514"><ele>34.0</ele><time>2026-04-18T11:14:26Z</time></trkpt><trkpt lat="44.66348738155714" lon="10.885918827276518"><ele>34.0</ele><time>2026-04-18T11:14:27Z</time></trkpt><trkpt lat="44.66357323580817" lon="10.886184381980925"><ele>34.0</ele><time>2026-04-18T11:14:28Z</time></trkpt><trkpt lat="44.663657159199126" lon="10.88646087384288"><ele>34.0</ele><time>2026-04-18T11:14:29Z</time></trkpt><trkpt lat="44.663739555126504" lon="10.886758947910106"><ele>34.0</ele><time>2026-04-18T11:14:30Z</time></trkpt><trkpt lat="44.663811533882644" lon="10.887056711557072"><ele>34.0</ele><time>2026-04-18T11:14:31Z</time></trkpt><trkpt lat="44.66387346549832" lon="10.887342158199882"><ele>34.0</ele><time>2026-04-18T11:14:32Z</time></trkpt><trkpt lat="44.66392503140422" lon="10.887628964192496"><ele>34.0</ele><time>2026-04-18T11:14:33Z</time></trkpt><trkpt lat="44.66397121195209" lon="10.88793386534096"><ele>34.5</ele><time>2026-04-18T11:14:34Z</time></trkpt><trkpt lat="44.66401182991158" lon="10.88825116672968"><ele>35.0</ele><time>2026-04-18T11:14:35Z</time></trkpt><trkpt lat="44.66404022069917" lon="10.888560102608801"><ele>35.0</ele><time>2026-04-18T11:14:36Z</time></trkpt><trkpt lat="44.664063223581955" lon="10.888872007507212"><ele>35.0</ele><time>2026-04-18T11:14:37Z</time></trkpt><trkpt lat="44.664077183318774" lon="10.889181703705031"><ele>35.0</ele><time>2026-04-18T11:14:38Z</time></trkpt><trkpt lat="44.66408335945787" lon="10.889492239545044"><ele>34.666666666666664</ele><time>2026-04-18T11:14:39Z</time></trkpt><trkpt lat="44.664079962498256" lon="10.889799428517438"><ele>34.333333333333336</ele><time>2026-04-18T11:14:40Z</time></trkpt><trkpt lat="44.66406846458371" lon="10.890104324601262"><ele>34.0</ele><time>2026-04-18T11:14:41Z</time></trkpt><trkpt lat="44.6640487423743" lon="10.890405544693731"><ele>34.0</ele><time>2026-04-18T11:14:42Z</time></trkpt><trkpt lat="44.664020855881205" lon="10.890714092494749"><ele>34.0</ele><time>2026-04-18T11:14:43Z</time></trkpt><trkpt lat="44.66398263709375" lon="10.891031467088691"><ele>33.0</ele><time>2026-04-18T11:14:44Z</time></trkpt><trkpt lat="44.66393796889201" lon="10.89135175624821"><ele>32.0</ele><time>2026-04-18T11:14:45Z</time></trkpt><trkpt lat="44.66388946066011" lon="10.891670498234893"><ele>32.5</ele><time>2026-04-18T11:14:46Z</time></trkpt><trkpt lat="44.66383801863223" lon="10.891991977364057"><ele>33.0</ele><time>2026-04-18T11:14:47Z</time></trkpt><trkpt lat="44.6637901584119" lon="10.892312766276312"><ele>34.5</ele><time>2026-04-18T11:14:48Z</time></trkpt><trkpt lat="44.66374193612823" lon="10.892632979583334"><ele>36.0</ele><time>2026-04-18T11:14:49Z</time></trkpt><trkpt lat="44.66369543236038" lon="10.89295268026763"><ele>36.0</ele><time>2026-04-18T11:14:50Z</time></trkpt><trkpt lat="44.66364771439859" lon="10.893267559065041"><ele>36.0</ele><time>2026-04-18T11:14:51Z</time></trkpt><trkpt lat="44.66359743684879" lon="10.893615739052558"><ele>36.0</ele><time>2026-04-18T11:14:52Z</time></trkpt><trkpt lat="44.66355201612608" lon="10.894028601299578"><ele>36.0</ele><time>2026-04-18T11:14:53Z</time></trkpt><trkpt lat="44.66352644375525" lon="10.894504527891284"><ele>36.0</ele><time>2026-04-18T11:14:54Z</time></trkpt><trkpt lat="44.66352067419742" lon="10.895003749899361"><ele>36.0</ele><time>2026-04-18T11:14:55Z</time></trkpt><trkpt lat="44.663537526571695" lon="10.895470795636763"><ele>36.0</ele><time>2026-04-18T11:14:56Z</time></trkpt><trkpt lat="44.66356990093172" lon="10.89593636619791"><ele>36.0</ele><time>2026-04-18T11:14:57Z</time></trkpt><trkpt lat="44.663618089618346" lon="10.896406365851664"><ele>37.0</ele><time>2026-04-18T11:14:58Z</time></trkpt><trkpt lat="44.663690178422684" lon="10.896873546451598"><ele>38.0</ele><time>2026-04-18T11:14:59Z</time></trkpt><trkpt lat="44.66378385834878" lon="10.89733512661484"><ele>37.5</ele><time>2026-04-18T11:15:00Z</time></trkpt><trkpt lat="44.663906755116024" lon="10.89785014219381"><ele>37.0</ele><time>2026-04-18T11:15:01Z</time></trkpt><trkpt lat="44.66403330475568" lon="10.898364851377957"><ele>37.0</ele><time>2026-04-18T11:15:02Z</time></trkpt><trkpt lat="44.66416448467735" lon="10.898845943758428"><ele>37.0</ele><time>2026-04-18T11:15:03Z</time></trkpt><trkpt lat="44.664289249084455" lon="10.899300636489476"><ele>37.0</ele><time>2026-04-18T11:15:04Z</time></trkpt><trkpt lat="44.66440791836244" lon="10.899737597285734"><ele>37.0</ele><time>2026-04-18T11:15:05Z</time></trkpt><trkpt lat="44.66451862212223" lon="10.900166256743914"><ele>36.0</ele><time>2026-04-18T11:15:06Z</time></trkpt><trkpt lat="44.66462911450147" lon="10.900583027679083"><ele>35.0</ele><time>2026-04-18T11:15:07Z</time></trkpt><trkpt lat="44.6647350406176" lon="10.900985990794993"><ele>35.0</ele><time>2026-04-18T11:15:08Z</time></trkpt><trkpt lat="44.66484023678534" lon="10.901379299512442"><ele>35.0</ele><time>2026-04-18T11:15:09Z</time></trkpt><trkpt lat="44.664947569306335" lon="10.9017552815764"><ele>35.5</ele><time>2026-04-18T11:15:10Z</time></trkpt><trkpt lat="44.66506204241009" lon="10.90212791722849"><ele>36.0</ele><time>2026-04-18T11:15:11Z</time></trkpt><trkpt lat="44.66519003717973" lon="10.902497639178426"><ele>36.0</ele><time>2026-04-18T11:15:12Z</time></trkpt><trkpt lat="44.66531817752084" lon="10.902845359343798"><ele>36.0</ele><time>2026-04-18T11:15:13Z</time></trkpt><trkpt lat="44.665448613699034" lon="10.903186499043834"><ele>36.0</ele><time>2026-04-18T11:15:14Z</time></trkpt><trkpt lat="44.66558117748749" lon="10.903507393256666"><ele>36.0</ele><time>2026-04-18T11:15:15Z</time></trkpt><trkpt lat="44.66572110239914" lon="10.90382463181954"><ele>36.0</ele><time>2026-04-18T11:15:16Z</time></trkpt><trkpt lat="44.66586304124302" lon="10.90412854955807"><ele>36.0</ele><time>2026-04-18T11:15:17Z</time></trkpt><trkpt lat="44.66603038767073" lon="10.90447132024197"><ele>35.0</ele><time>2026-04-18T11:15:18Z</time></trkpt><trkpt lat="44.666222381400985" lon="10.904826504522863"><ele>34.0</ele><time>2026-04-18T11:15:19Z</time></trkpt><trkpt lat="44.6664277609766" lon="10.905170669907163"><ele>34.0</ele><time>2026-04-18T11:15:20Z</time></trkpt><trkpt lat="44.66664997477205" lon="10.905519330961926"><ele>34.0</ele><time>2026-04-18T11:15:21Z</time></trkpt><trkpt lat="44.66687924471469" lon="10.905853289147084"><ele>34.5</ele><time>2026-04-18T11:15:22Z</time></trkpt><trkpt lat="44.6671177000599" lon="10.906174696906554"><ele>35.0</ele><time>2026-04-18T11:15:23Z</time></trkpt><trkpt lat="44.667369900245475" lon="10.90648945564345"><ele>34.0</ele><time>2026-04-18T11:15:24Z</time></trkpt><trkpt lat="44.667634808705216" lon="10.906792289038618"><ele>33.0</ele><time>2026-04-18T11:15:25Z</time></trkpt><trkpt lat="44.66790495628226" lon="10.907076959921449"><ele>33.0</ele><time>2026-04-18T11:15:26Z</time></trkpt><trkpt lat="44.668182702669675" lon="10.907349561259556"><ele>33.0</ele><time>2026-04-18T11:15:27Z</time></trkpt><trkpt lat="44.66846255696436" lon="10.907603961184416"><ele>33.0</ele><time>2026-04-18T11:15:27.999Z</time></trkpt><trkpt lat="44.66874416585994" lon="10.907841991841188"><ele>33.0</ele><time>2026-04-18T11:15:28.999Z</time></trkpt><trkpt lat="44.66902374015357" lon="10.908060153942543"><ele>33.0</ele><time>2026-04-18T11:15:29.999Z</time></trkpt><trkpt lat="44.669302188136996" lon="10.90826365404499"><ele>33.0</ele><time>2026-04-18T11:15:30.999Z</time></trkpt><trkpt lat="44.669580158046244" lon="10.908462465819959"><ele>34.0</ele><time>2026-04-18T11:15:31.999Z</time></trkpt><trkpt lat="44.66978051843761" lon="10.908585589315779"><ele>35.0</ele><time>2026-04-18T11:15:32.999Z</time></trkpt><trkpt lat="44.67000473507181" lon="10.908744931055784"><ele>35.0</ele><time>2026-04-18T11:15:33.999Z</time></trkpt><trkpt lat="44.67022936086928" lon="10.90892526298081"><ele>35.0</ele><time>2026-04-18T11:15:34.999Z</time></trkpt><trkpt lat="44.67045894260439" lon="10.90912752015684"><ele>37.5</ele><time>2026-04-18T11:15:35.999Z</time></trkpt><trkpt lat="44.67068516415578" lon="10.909355269623953"><ele>40.0</ele><time>2026-04-18T11:15:36.999Z</time></trkpt><trkpt lat="44.67089963165064" lon="10.909609659999164"><ele>40.0</ele><time>2026-04-18T11:15:37.999Z</time></trkpt><trkpt lat="44.67109453460114" lon="10.909875460056549"><ele>40.0</ele><time>2026-04-18T11:15:38.999Z</time></trkpt><trkpt lat="44.67127302509239" lon="10.910158784746804"><ele>39.5</ele><time>2026-04-18T11:15:39.999Z</time></trkpt><trkpt lat="44.6714430126965" lon="10.910466915987346"><ele>39.0</ele><time>2026-04-18T11:15:40.999Z</time></trkpt><trkpt lat="44.671596230948026" lon="10.910786987464396"><ele>39.0</ele><time>2026-04-18T11:15:42Z</time></trkpt><trkpt lat="44.67173007226669" lon="10.911117847489695"><ele>39.0</ele><time>2026-04-18T11:15:43Z</time></trkpt><trkpt lat="44.67185545104508" lon="10.911469141367652"><ele>38.5</ele><time>2026-04-18T11:15:44Z</time></trkpt><trkpt lat="44.67195719051016" lon="10.911824160591161"><ele>38.0</ele><time>2026-04-18T11:15:45Z</time></trkpt><trkpt lat="44.67204569355757" lon="10.912204434222462"><ele>36.5</ele><time>2026-04-18T11:15:46Z</time></trkpt><trkpt lat="44.672116869282625" lon="10.912594933492787"><ele>35.0</ele><time>2026-04-18T11:15:47Z</time></trkpt><trkpt lat="44.67216662012379" lon="10.912989723219406"><ele>35.0</ele><time>2026-04-18T11:15:48Z</time></trkpt><trkpt lat="44.672194032618684" lon="10.913390446398669"><ele>35.0</ele><time>2026-04-18T11:15:49Z</time></trkpt><trkpt lat="44.6722085757847" lon="10.913801235274546"><ele>35.5</ele><time>2026-04-18T11:15:50Z</time></trkpt><trkpt lat="44.67222009244919" lon="10.914218522242113"><ele>36.0</ele><time>2026-04-18T11:15:51Z</time></trkpt><trkpt lat="44.67223104126256" lon="10.914639398610312"><ele>37.0</ele><time>2026-04-18T11:15:52Z</time></trkpt><trkpt lat="44.67223711977166" lon="10.915052312840277"><ele>38.0</ele><time>2026-04-18T11:15:53Z</time></trkpt><trkpt lat="44.672245651718335" lon="10.915451298976176"><ele>36.0</ele><time>2026-04-18T11:15:54Z</time></trkpt><trkpt lat="44.67225550270302" lon="10.91589505641483"><ele>34.0</ele><time>2026-04-18T11:15:55Z</time></trkpt><trkpt lat="44.67226177412824" lon="10.916302081832242"><ele>33.0</ele><time>2026-04-18T11:15:56Z</time></trkpt><trkpt lat="44.672268455453626" lon="10.916710251745108"><ele>32.0</ele><time>2026-04-18T11:15:57Z</time></trkpt><trkpt lat="44.67227504876922" lon="10.917113731164637"><ele>32.0</ele><time>2026-04-18T11:15:58Z</time></trkpt><trkpt lat="44.6722826489505" lon="10.917516111657967"><ele>32.0</ele><time>2026-04-18T11:15:59Z</time></trkpt><trkpt lat="44.67229230089267" lon="10.917919541821371"><ele>32.0</ele><time>2026-04-18T11:16:00Z</time></trkpt><trkpt lat="44.672306024646" lon="10.918318284588825"><ele>32.0</ele><time>2026-04-18T11:16:01Z</time></trkpt><trkpt lat="44.672313262658136" lon="10.91871614587296"><ele>32.0</ele><time>2026-04-18T11:16:02Z</time></trkpt><trkpt lat="44.67232331213006" lon="10.919102414145858"><ele>32.0</ele><time>2026-04-18T11:16:03Z</time></trkpt><trkpt lat="44.672330111754135" lon="10.919484932746183"><ele>32.5</ele><time>2026-04-18T11:16:04Z</time></trkpt><trkpt lat="44.67233696427676" lon="10.919867706930166"><ele>33.0</ele><time>2026-04-18T11:16:05Z</time></trkpt><trkpt lat="44.672343891689785" lon="10.920257219417419"><ele>33.0</ele><time>2026-04-18T11:16:06Z</time></trkpt><trkpt lat="44.67235087791825" lon="10.920649239623076"><ele>33.0</ele><time>2026-04-18T11:16:07Z</time></trkpt><trkpt lat="44.67235886545157" lon="10.921042575061321"><ele>33.5</ele><time>2026-04-18T11:16:08Z</time></trkpt><trkpt lat="44.6723653717953" lon="10.921439030915435"><ele>34.0</ele><time>2026-04-18T11:16:09Z</time></trkpt><trkpt lat="44.67237417284449" lon="10.921829672786586"><ele>34.0</ele><time>2026-04-18T11:16:10Z</time></trkpt><trkpt lat="44.672382670086364" lon="10.922209813610156"><ele>34.0</ele><time>2026-04-18T11:16:11Z</time></trkpt><trkpt lat="44.67238817528489" lon="10.922578674139059"><ele>33.5</ele><time>2026-04-18T11:16:12Z</time></trkpt><trkpt lat="44.672386173181486" lon="10.922949298819795"><ele>33.0</ele><time>2026-04-18T11:16:13Z</time></trkpt><trkpt lat="44.67236921698975" lon="10.923314831198704"><ele>32.0</ele><time>2026-04-18T11:16:14Z</time></trkpt><trkpt lat="44.672326158239784" lon="10.923683857665466"><ele>31.0</ele><time>2026-04-18T11:16:15Z</time></trkpt><trkpt lat="44.67226171501448" lon="10.924053392694546"><ele>31.5</ele><time>2026-04-18T11:16:16Z</time></trkpt><trkpt lat="44.672170627233896" lon="10.924408350332104"><ele>32.0</ele><time>2026-04-18T11:16:17Z</time></trkpt><trkpt lat="44.67208056974024" lon="10.924748281406213"><ele>32.5</ele><time>2026-04-18T11:16:18Z</time></trkpt><trkpt lat="44.67197719306469" lon="10.925071152460085"><ele>33.0</ele><time>2026-04-18T11:16:19Z</time></trkpt><trkpt lat="44.671854468285765" lon="10.925393439049552"><ele>33.0</ele><time>2026-04-18T11:16:20Z</time></trkpt><trkpt lat="44.6717118082832" lon="10.925702989518356"><ele>33.0</ele><time>2026-04-18T11:16:21Z</time></trkpt><trkpt lat="44.67155652377513" lon="10.926011769340787"><ele>33.5</ele><time>2026-04-18T11:16:22Z</time></trkpt><trkpt lat="44.6713910802391" lon="10.926292266199628"><ele>34.0</ele><time>2026-04-18T11:16:23Z</time></trkpt><trkpt lat="44.67120530143374" lon="10.926557037394499"><ele>34.5</ele><time>2026-04-18T11:16:24Z</time></trkpt><trkpt lat="44.67102534087818" lon="10.926813156614653"><ele>35.0</ele><time>2026-04-18T11:16:25Z</time></trkpt><trkpt lat="44.6708327486934" lon="10.927039304290616"><ele>35.0</ele><time>2026-04-18T11:16:26Z</time></trkpt><trkpt lat="44.67063250611183" lon="10.927243113985169"><ele>35.0</ele><time>2026-04-18T11:16:27Z</time></trkpt><trkpt lat="44.67043678815624" lon="10.92743428889247"><ele>35.0</ele><time>2026-04-18T11:16:28Z</time></trkpt><trkpt lat="44.67024308633978" lon="10.927626731465356"><ele>35.0</ele><time>2026-04-18T11:16:29Z</time></trkpt><trkpt lat="44.67005513131104" lon="10.927828009115716"><ele>35.0</ele><time>2026-04-18T11:16:30Z</time></trkpt><trkpt lat="44.66987619726878" lon="10.928043325375814"><ele>35.0</ele><time>2026-04-18T11:16:31Z</time></trkpt><trkpt lat="44.6697008084959" lon="10.928269580536284"><ele>33.5</ele><time>2026-04-18T11:16:32Z</time></trkpt><trkpt lat="44.66952760045026" lon="10.928503006486673"><ele>32.0</ele><time>2026-04-18T11:16:33Z</time></trkpt><trkpt lat="44.66936060392345" lon="10.928748642619599"><ele>32.0</ele><time>2026-04-18T11:16:34Z</time></trkpt><trkpt lat="44.669197691550835" lon="10.929008721187511"><ele>32.0</ele><time>2026-04-18T11:16:35Z</time></trkpt><trkpt lat="44.66903667258502" lon="10.929280501983714"><ele>32.5</ele><time>2026-04-18T11:16:36Z</time></trkpt><trkpt lat="44.66887607382263" lon="10.929569136009665"><ele>33.0</ele><time>2026-04-18T11:16:37Z</time></trkpt><trkpt lat="44.66871340383251" lon="10.929872200636858"><ele>32.0</ele><time>2026-04-18T11:16:38Z</time></trkpt><trkpt lat="44.66854676563853" lon="10.930173126100375"><ele>31.0</ele><time>2026-04-18T11:16:39Z</time></trkpt><trkpt lat="44.66838687174645" lon="10.930463186617759"><ele>31.0</ele><time>2026-04-18T11:16:40Z</time></trkpt><trkpt lat="44.66822121743252" lon="10.930766633504016"><ele>31.0</ele><time>2026-04-18T11:16:41Z</time></trkpt><trkpt lat="44.668056564935405" lon="10.931072393263475"><ele>31.0</ele><time>2026-04-18T11:16:42Z</time></trkpt><trkpt lat="44.667887046017334" lon="10.931384800319373"><ele>31.0</ele><time>2026-04-18T11:16:43Z</time></trkpt><trkpt lat="44.667714855401655" lon="10.931695928556294"><ele>32.0</ele><time>2026-04-18T11:16:44Z</time></trkpt><trkpt lat="44.6675380115792" lon="10.93201966144137"><ele>33.0</ele><time>2026-04-18T11:16:45Z</time></trkpt><trkpt lat="44.66736577115858" lon="10.932344212422374"><ele>33.0</ele><time>2026-04-18T11:16:46Z</time></trkpt><trkpt lat="44.667196430012446" lon="10.932654794033434"><ele>33.0</ele><time>2026-04-18T11:16:47Z</time></trkpt><trkpt lat="44.66703406288018" lon="10.932955517503947"><ele>32.5</ele><time>2026-04-18T11:16:48Z</time></trkpt><trkpt lat="44.66686884202841" lon="10.933256204693064"><ele>32.0</ele><time>2026-04-18T11:16:49Z</time></trkpt><trkpt lat="44.6667038707217" lon="10.933556242441767"><ele>32.0</ele><time>2026-04-18T11:16:50Z</time></trkpt><trkpt lat="44.66654345816811" lon="10.933852445563442"><ele>32.0</ele><time>2026-04-18T11:16:51Z</time></trkpt><trkpt lat="44.666380387429875" lon="10.934146843833423"><ele>32.0</ele><time>2026-04-18T11:16:52Z</time></trkpt><trkpt lat="44.66623268740084" lon="10.934414554807512"><ele>32.0</ele><time>2026-04-18T11:16:53Z</time></trkpt><trkpt lat="44.66609428038319" lon="10.934667657154073"><ele>32.0</ele><time>2026-04-18T11:16:54Z</time></trkpt><trkpt lat="44.665954873758146" lon="10.934920575304568"><ele>32.0</ele><time>2026-04-18T11:16:55Z</time></trkpt><trkpt lat="44.665800109795384" lon="10.93521031679349"><ele>31.5</ele><time>2026-04-18T11:16:56Z</time></trkpt><trkpt lat="44.66562018447709" lon="10.935551264412439"><ele>31.0</ele><time>2026-04-18T11:16:57Z</time></trkpt><trkpt lat="44.665432149209735" lon="10.935896236367753"><ele>32.0</ele><time>2026-04-18T11:16:58Z</time></trkpt><trkpt lat="44.6652620460473" lon="10.936202681564756"><ele>33.0</ele><time>2026-04-18T11:16:59Z</time></trkpt><trkpt lat="44.66510969256589" lon="10.936475271691448"><ele>32.333333333333336</ele><time>2026-04-18T11:17:00Z</time></trkpt><trkpt lat="44.6649634505089" lon="10.936738614457786"><ele>31.666666666666668</ele><time>2026-04-18T11:17:01Z</time></trkpt><trkpt lat="44.66483370923392" lon="10.936966079828569"><ele>31.0</ele><time>2026-04-18T11:17:02Z</time></trkpt><trkpt lat="44.66471225646652" lon="10.937179283668037"><ele>31.0</ele><time>2026-04-18T11:17:03Z</time></trkpt><trkpt lat="44.66459555951542" lon="10.937392982141574"><ele>31.0</ele><time>2026-04-18T11:17:04Z</time></trkpt><trkpt lat="44.66447916940514" lon="10.937601536916716"><ele>31.0</ele><time>2026-04-18T11:17:05Z</time></trkpt><trkpt lat="44.66436019064221" lon="10.937809528359296"><ele>31.0</ele><time>2026-04-18T11:17:06Z</time></trkpt><trkpt lat="44.66424805252864" lon="10.938005985543045"><ele>31.0</ele><time>2026-04-18T11:17:07Z</time></trkpt><trkpt lat="44.664138845252864" lon="10.93820224258405"><ele>31.0</ele><time>2026-04-18T11:17:08Z</time></trkpt><trkpt lat="44.66403153225822" lon="10.93838939974782"><ele>31.0</ele><time>2026-04-18T11:17:09Z</time></trkpt><trkpt lat="44.663921325798725" lon="10.938582923330493"><ele>31.0</ele><time>2026-04-18T11:17:10Z</time></trkpt><trkpt lat="44.663812218969625" lon="10.9387782646652"><ele>31.0</ele><time>2026-04-18T11:17:11Z</time></trkpt><trkpt lat="44.66370277929241" lon="10.938976186945693"><ele>31.333333333333336</ele><time>2026-04-18T11:17:12Z</time></trkpt><trkpt lat="44.66359268193253" lon="10.93917572323536"><ele>31.666666666666664</ele><time>2026-04-18T11:17:13Z</time></trkpt><trkpt lat="44.66347911753986" lon="10.939376947762275"><ele>32.0</ele><time>2026-04-18T11:17:14Z</time></trkpt><trkpt lat="44.663361393357086" lon="10.939578615794352"><ele>32.0</ele><time>2026-04-18T11:17:15Z</time></trkpt><trkpt lat="44.663253080531085" lon="10.939764018131825"><ele>32.0</ele><time>2026-04-18T11:17:16Z</time></trkpt><trkpt lat="44.663161121541066" lon="10.939931163562006"><ele>32.0</ele><time>2026-04-18T11:17:17Z</time></trkpt><trkpt lat="44.66307513464989" lon="10.94009038427823"><ele>32.0</ele><time>2026-04-18T11:17:18Z</time></trkpt><trkpt lat="44.662988460421154" lon="10.940231904550533"><ele>32.0</ele><time>2026-04-18T11:17:19Z</time></trkpt><trkpt lat="44.66291261871239" lon="10.940306033723726"><ele>32.0</ele><time>2026-04-18T11:17:20Z</time></trkpt><trkpt lat="44.66288641454198" lon="10.940392774881598"><ele>32.0</ele><time>2026-04-18T11:17:21Z</time></trkpt><trkpt lat="44.66272812922468" lon="10.940282848319665"><ele>31.5</ele><time>2026-04-18T11:17:22Z</time></trkpt><trkpt lat="44.66261822553163" lon="10.94024797053135"><ele>31.0</ele><time>2026-04-18T11:17:23Z</time></trkpt><trkpt lat="44.6625287186043" lon="10.9401442635633"><ele>30.5</ele><time>2026-04-18T11:17:24Z</time></trkpt><trkpt lat="44.6624927338969" lon="10.9399843926951"><ele>30.0</ele><time>2026-04-18T11:17:25Z</time></trkpt><trkpt lat="44.662461463112564" lon="10.93981602560513"><ele>30.0</ele><time>2026-04-18T11:17:26Z</time></trkpt><trkpt lat="44.662424603922986" lon="10.939623777798346"><ele>30.0</ele><time>2026-04-18T11:17:27Z</time></trkpt><trkpt lat="44.66236115580513" lon="10.93944883733213"><ele>30.0</ele><time>2026-04-18T11:17:28Z</time></trkpt><trkpt lat="44.662264671501" lon="10.939294559976164"><ele>30.0</ele><time>2026-04-18T11:17:29Z</time></trkpt><trkpt lat="44.6621254089423" lon="10.939172176543128"><ele>30.333333333333336</ele><time>2026-04-18T11:17:30Z</time></trkpt><trkpt lat="44.661982210369665" lon="10.939056960970571"><ele>30.666666666666668</ele><time>2026-04-18T11:17:31Z</time></trkpt><trkpt lat="44.66186452120603" lon="10.938938044554668"><ele>31.0</ele><time>2026-04-18T11:17:32Z</time></trkpt><trkpt lat="44.661716995764806" lon="10.938795215495599"><ele>32.5</ele><time>2026-04-18T11:17:33Z</time></trkpt><trkpt lat="44.66152137360642" lon="10.938614166752654"><ele>34.0</ele><time>2026-04-18T11:17:34Z</time></trkpt><trkpt lat="44.66134439134725" lon="10.93841397980962"><ele>33.5</ele><time>2026-04-18T11:17:35Z</time></trkpt><trkpt lat="44.66119984994364" lon="10.93827360369291"><ele>33.0</ele><time>2026-04-18T11:17:36Z</time></trkpt><trkpt lat="44.66108244965645" lon="10.938159038692142"><ele>32.5</ele><time>2026-04-18T11:17:37Z</time></trkpt><trkpt lat="44.66097703868535" lon="10.938056178837007"><ele>32.0</ele><time>2026-04-18T11:17:38Z</time></trkpt><trkpt lat="44.66088318356169" lon="10.93796458659506"><ele>32.0</ele><time>2026-04-18T11:17:39Z</time></trkpt><trkpt lat="44.66080584120458" lon="10.937889029493197"><ele>32.0</ele><time>2026-04-18T11:17:40Z</time></trkpt><trkpt lat="44.66073694377662" lon="10.93782212770638"><ele>32.0</ele><time>2026-04-18T11:17:41Z</time></trkpt><trkpt lat="44.66066689039786" lon="10.937753833896943"><ele>32.0</ele><time>2026-04-18T11:17:42Z</time></trkpt><trkpt lat="44.66059002518981" lon="10.937678504930442"><ele>32.0</ele><time>2026-04-18T11:17:43Z</time></trkpt><trkpt lat="44.66050511354126" lon="10.937595651456233"><ele>32.0</ele><time>2026-04-18T11:17:44Z</time></trkpt><trkpt lat="44.66041592276744" lon="10.937508932919533"><ele>32.0</ele><time>2026-04-18T11:17:45Z</time></trkpt><trkpt lat="44.660322257308486" lon="10.937439426100758"><ele>32.0</ele><time>2026-04-18T11:17:46Z</time></trkpt><trkpt lat="44.66023988942381" lon="10.937352103703248"><ele>32.0</ele><time>2026-04-18T11:17:47Z</time></trkpt><trkpt lat="44.660160466580116" lon="10.937271950122055"><ele>32.0</ele><time>2026-04-18T11:17:48Z</time></trkpt><trkpt lat="44.66008613949083" lon="10.937205010490759"><ele>32.0</ele><time>2026-04-18T11:17:49Z</time></trkpt><trkpt lat="44.66001374256432" lon="10.937133311886072"><ele>32.0</ele><time>2026-04-18T11:17:50Z</time></trkpt><trkpt lat="44.65993222459864" lon="10.937055607956022"><ele>32.0</ele><time>2026-04-18T11:17:51Z</time></trkpt><trkpt lat="44.65984779209646" lon="10.936974370632331"><ele>32.0</ele><time>2026-04-18T11:17:52Z</time></trkpt><trkpt lat="44.659767761780614" lon="10.93689026381481"><ele>32.0</ele><time>2026-04-18T11:17:53Z</time></trkpt><trkpt lat="44.6596921394261" lon="10.93681099443069"><ele>31.999999999999996</ele><time>2026-04-18T11:17:54Z</time></trkpt><trkpt lat="44.6596254658749" lon="10.93674382360906"><ele>32.0</ele><time>2026-04-18T11:17:55Z</time></trkpt><trkpt lat="44.65957514186101" lon="10.936689105209972"><ele>32.0</ele><time>2026-04-18T11:17:56Z</time></trkpt><trkpt lat="44.65948576258132" lon="10.936588279001395"><ele>32.0</ele><time>2026-04-18T11:17:58Z</time></trkpt><trkpt lat="44.65943731513249" lon="10.93652651150568"><ele>31.999999999999996</ele><time>2026-04-18T11:17:59Z</time></trkpt><trkpt lat="44.65936701927003" lon="10.93647108198522"><ele>32.0</ele><time>2026-04-18T11:18:00Z</time></trkpt><trkpt lat="44.65927074528847" lon="10.93639875220075"><ele>31.666666666666664</ele><time>2026-04-18T11:18:01Z</time></trkpt><trkpt lat="44.65916331891179" lon="10.936294452771273"><ele>31.333333333333336</ele><time>2026-04-18T11:18:02Z</time></trkpt><trkpt lat="44.65902841580645" lon="10.936163476268622"><ele>31.0</ele><time>2026-04-18T11:18:03Z</time></trkpt><trkpt lat="44.65883248230746" lon="10.935995151242864"><ele>31.5</ele><time>2026-04-18T11:18:04Z</time></trkpt><trkpt lat="44.65861978118582" lon="10.935771704814963"><ele>32.0</ele><time>2026-04-18T11:18:05Z</time></trkpt><trkpt lat="44.65841822312089" lon="10.935568077803977"><ele>32.33333333333333</ele><time>2026-04-18T11:18:06Z</time></trkpt><trkpt lat="44.658255100169846" lon="10.935412035239516"><ele>32.666666666666664</ele><time>2026-04-18T11:18:07Z</time></trkpt><trkpt lat="44.65811277710093" lon="10.93527476167265"><ele>33.0</ele><time>2026-04-18T11:18:08Z</time></trkpt><trkpt lat="44.657985187166666" lon="10.935147952877948"><ele>33.0</ele><time>2026-04-18T11:18:09Z</time></trkpt><trkpt lat="44.65788154294509" lon="10.935047062779377"><ele>33.0</ele><time>2026-04-18T11:18:10Z</time></trkpt><trkpt lat="44.657787894329196" lon="10.934960768623613"><ele>33.0</ele><time>2026-04-18T11:18:11Z</time></trkpt><trkpt lat="44.65769871565433" lon="10.934874702908676"><ele>33.0</ele><time>2026-04-18T11:18:12Z</time></trkpt><trkpt lat="44.657616696150725" lon="10.934792821133481"><ele>33.0</ele><time>2026-04-18T11:18:13Z</time></trkpt><trkpt lat="44.657541498315474" lon="10.934714134183915"><ele>33.333333333333336</ele><time>2026-04-18T11:18:14Z</time></trkpt><trkpt lat="44.65746226295457" lon="10.93463701889612"><ele>33.666666666666664</ele><time>2026-04-18T11:18:15Z</time></trkpt><trkpt lat="44.65738614006964" lon="10.934564953765351"><ele>34.0</ele><time>2026-04-18T11:18:16Z</time></trkpt><trkpt lat="44.65729285471512" lon="10.934474171742611"><ele>34.33333333333333</ele><time>2026-04-18T11:18:18Z</time></trkpt><trkpt lat="44.657231262024474" lon="10.934415762254789"><ele>34.666666666666664</ele><time>2026-04-18T11:18:20Z</time></trkpt><trkpt lat="44.65717916297093" lon="10.934361388792302"><ele>35.0</ele><time>2026-04-18T11:18:22Z</time></trkpt><trkpt lat="44.65711532473148" lon="10.934286238377297"><ele>35.0</ele><time>2026-04-18T11:18:26Z</time></trkpt><trkpt lat="44.65701888193773" lon="10.934446649231676"><ele>35.0</ele><time>2026-04-18T11:18:28Z</time></trkpt><trkpt lat="44.65697575743419" lon="10.934577894407871"><ele>35.0</ele><time>2026-04-18T11:18:30Z</time></trkpt><trkpt lat="44.656902877845226" lon="10.934726184226097"><ele>35.0</ele><time>2026-04-18T11:18:32Z</time></trkpt><trkpt lat="44.656837083003325" lon="10.93486314246657"><ele>35.166666666666664</ele><time>2026-04-18T11:18:33Z</time></trkpt><trkpt lat="44.65677430396718" lon="10.934991472971992"><ele>35.33333333333333</ele><time>2026-04-18T11:18:34Z</time></trkpt><trkpt lat="44.656726832659345" lon="10.935076649457983"><ele>35.5</ele><time>2026-04-18T11:18:35Z</time></trkpt><trkpt lat="44.65667756468015" lon="10.935159186795282"><ele>35.666666666666664</ele><time>2026-04-18T11:18:37Z</time></trkpt><trkpt lat="44.656652675874795" lon="10.935246353722475"><ele>35.833333333333336</ele><time>2026-04-18T11:18:42Z</time></trkpt><trkpt lat="44.6565985257935" lon="10.935320890770393"><ele>36.0</ele><time>2026-04-18T11:18:43Z</time></trkpt><trkpt lat="44.65651431298955" lon="10.935453657277682"><ele>36.0</ele><time>2026-04-18T11:18:44Z</time></trkpt><trkpt lat="44.656450540253374" lon="10.935564610013794"><ele>36.0</ele><time>2026-04-18T11:18:45Z</time></trkpt><trkpt lat="44.656439784797875" lon="10.935653341431808"><ele>36.0</ele><time>2026-04-18T11:18:46Z</time></trkpt><trkpt lat="44.65640536062719" lon="10.93574735051735"><ele>36.0</ele><time>2026-04-18T11:18:50Z</time></trkpt><trkpt lat="44.65632806825044" lon="10.935865018692468"><ele>36.0</ele><time>2026-04-18T11:18:53Z</time></trkpt><trkpt lat="44.65628508117834" lon="10.935964819686918"><ele>36.0</ele><time>2026-04-18T11:18:54Z</time></trkpt><trkpt lat="44.65619966366567" lon="10.936149979363782"><ele>36.2</ele><time>2026-04-18T11:18:55Z</time></trkpt><trkpt lat="44.656121612036344" lon="10.936282857959512"><ele>36.400000000000006</ele><time>2026-04-18T11:18:56Z</time></trkpt><trkpt lat="44.65606715345408" lon="10.936390911556959"><ele>36.6</ele><time>2026-04-18T11:18:57Z</time></trkpt><trkpt lat="44.65602391672467" lon="10.93647385073584"><ele>36.800000000000004</ele><time>2026-04-18T11:18:58Z</time></trkpt><trkpt lat="44.65598558971148" lon="10.9365473723393"><ele>37.0</ele><time>2026-04-18T11:19:03Z</time></trkpt><trkpt lat="44.65610457225385" lon="10.936649349700144"><ele>36.0</ele><time>2026-04-18T11:19:04Z</time></trkpt><trkpt lat="44.65618316770476" lon="10.936729598615477"><ele>35.0</ele><time>2026-04-18T11:19:05Z</time></trkpt><trkpt lat="44.65631383717303" lon="10.936857520214366"><ele>34.0</ele><time>2026-04-18T11:19:06Z</time></trkpt><trkpt lat="44.656459852481404" lon="10.93699516767755"><ele>33.0</ele><time>2026-04-18T11:19:07Z</time></trkpt><trkpt lat="44.65658021092797" lon="10.937119533783454"><ele>33.0</ele><time>2026-04-18T11:19:08Z</time></trkpt><trkpt lat="44.656672911225975" lon="10.93721652730971"><ele>33.0</ele><time>2026-04-18T11:19:09Z</time></trkpt><trkpt lat="44.656738420903345" lon="10.937291193231268"><ele>33.0</ele><time>2026-04-18T11:19:10Z</time></trkpt><trkpt lat="44.656797418351125" lon="10.937360379225613"><ele>33.0</ele><time>2026-04-18T11:19:11Z</time></trkpt><trkpt lat="44.656849511896745" lon="10.937418548392694"><ele>33.0</ele><time>2026-04-18T11:19:12Z</time></trkpt><trkpt lat="44.65694218393877" lon="10.937510380376986"><ele>34.0</ele><time>2026-04-18T11:19:13Z</time></trkpt><trkpt lat="44.65705229545424" lon="10.937616380690882"><ele>35.0</ele><time>2026-04-18T11:19:14Z</time></trkpt><trkpt lat="44.657177192643346" lon="10.937719043232391"><ele>36.0</ele><time>2026-04-18T11:19:15Z</time></trkpt><trkpt lat="44.657286648771134" lon="10.937821810463802"><ele>37.0</ele><time>2026-04-18T11:19:16Z</time></trkpt><trkpt lat="44.6573927528822" lon="10.937926629576475"><ele>37.0</ele><time>2026-04-18T11:19:17Z</time></trkpt><trkpt lat="44.657492975803464" lon="10.938026125443054"><ele>37.0</ele><time>2026-04-18T11:19:18Z</time></trkpt><trkpt lat="44.65758456471103" lon="10.938118724659278"><ele>37.0</ele><time>2026-04-18T11:19:19Z</time></trkpt><trkpt lat="44.65766925136589" lon="10.938194835312204"><ele>37.0</ele><time>2026-04-18T11:19:20Z</time></trkpt><trkpt lat="44.657725796607735" lon="10.938253706930757"><ele>37.0</ele><time>2026-04-18T11:19:21Z</time></trkpt><trkpt lat="44.65778485470257" lon="10.93832060845915"><ele>36.75</ele><time>2026-04-18T11:19:22Z</time></trkpt><trkpt lat="44.65784846674161" lon="10.938372640155979"><ele>36.5</ele><time>2026-04-18T11:19:23Z</time></trkpt><trkpt lat="44.65797610213814" lon="10.938469879303652"><ele>36.25</ele><time>2026-04-18T11:19:25Z</time></trkpt><trkpt lat="44.65808710479839" lon="10.938580861390243"><ele>36.0</ele><time>2026-04-18T11:19:26Z</time></trkpt><trkpt lat="44.65820546283075" lon="10.938696436894272"><ele>36.0</ele><time>2026-04-18T11:19:27Z</time></trkpt><trkpt lat="44.65830230756419" lon="10.938781417172779"><ele>36.0</ele><time>2026-04-18T11:19:28Z</time></trkpt><trkpt lat="44.65838530667062" lon="10.938860930832348"><ele>36.0</ele><time>2026-04-18T11:19:29Z</time></trkpt><trkpt lat="44.65849867813202" lon="10.938984582124657"><ele>36.0</ele><time>2026-04-18T11:19:30Z</time></trkpt><trkpt lat="44.65867173366915" lon="10.939162528037032"><ele>35.666666666666664</ele><time>2026-04-18T11:19:31Z</time></trkpt><trkpt lat="44.65882918493951" lon="10.939319549649232"><ele>35.33333333333333</ele><time>2026-04-18T11:19:32Z</time></trkpt><trkpt lat="44.65895622357959" lon="10.939452645815118"><ele>35.0</ele><time>2026-04-18T11:19:33Z</time></trkpt><trkpt lat="44.659063352316835" lon="10.939558303631477"><ele>35.0</ele><time>2026-04-18T11:19:34Z</time></trkpt><trkpt lat="44.659153231091416" lon="10.939646034939674"><ele>35.0</ele><time>2026-04-18T11:19:35Z</time></trkpt><trkpt lat="44.659208239936156" lon="10.939706828452087"><ele>35.0</ele><time>2026-04-18T11:19:36Z</time></trkpt><trkpt lat="44.659324990654014" lon="10.939815225005399"><ele>35.0</ele><time>2026-04-18T11:19:38Z</time></trkpt><trkpt lat="44.659419898581056" lon="10.939921810436317"><ele>35.0</ele><time>2026-04-18T11:19:39Z</time></trkpt><trkpt lat="44.65954619948296" lon="10.940034502660946"><ele>34.8</ele><time>2026-04-18T11:19:40Z</time></trkpt><trkpt lat="44.65964878978575" lon="10.940149412948625"><ele>34.6</ele><time>2026-04-18T11:19:41Z</time></trkpt><trkpt lat="44.659731112844916" lon="10.940226736967109"><ele>34.4</ele><time>2026-04-18T11:19:42Z</time></trkpt><trkpt lat="44.65979329158712" lon="10.940291332996903"><ele>34.2</ele><time>2026-04-18T11:19:43Z</time></trkpt><trkpt lat="44.6598812588847" lon="10.940351028372486"><ele>34.0</ele><time>2026-04-18T11:19:45Z</time></trkpt><trkpt lat="44.65995770013938" lon="10.940425480941808"><ele>34.0</ele><time>2026-04-18T11:19:46Z</time></trkpt><trkpt lat="44.66005614600085" lon="10.940521420464107"><ele>34.0</ele><time>2026-04-18T11:19:47Z</time></trkpt><trkpt lat="44.660150478159196" lon="10.940613350977884"><ele>34.0</ele><time>2026-04-18T11:19:48Z</time></trkpt><trkpt lat="44.66024640899274" lon="10.94072360250396"><ele>34.0</ele><time>2026-04-18T11:19:49Z</time></trkpt><trkpt lat="44.66036225109151" lon="10.94083499732567"><ele>34.25</ele><time>2026-04-18T11:19:50Z</time></trkpt><trkpt lat="44.66047775101879" lon="10.940952824597105"><ele>34.5</ele><time>2026-04-18T11:19:51Z</time></trkpt><trkpt lat="44.660603267725016" lon="10.941071201066029"><ele>34.75</ele><time>2026-04-18T11:19:52Z</time></trkpt><trkpt lat="44.660720165968826" lon="10.941188529999092"><ele>35.0</ele><time>2026-04-18T11:19:53Z</time></trkpt><trkpt lat="44.66082244034504" lon="10.941288169594982"><ele>35.0</ele><time>2026-04-18T11:19:54Z</time></trkpt><trkpt lat="44.66091396017897" lon="10.941388190152725"><ele>35.0</ele><time>2026-04-18T11:19:55Z</time></trkpt><trkpt lat="44.66100088652041" lon="10.941469756586358"><ele>35.0</ele><time>2026-04-18T11:19:56Z</time></trkpt><trkpt lat="44.661071651217775" lon="10.941541863857356"><ele>35.0</ele><time>2026-04-18T11:19:57Z</time></trkpt><trkpt lat="44.6611306842739" lon="10.941589263450908"><ele>35.0</ele><time>2026-04-18T11:19:58Z</time></trkpt><trkpt lat="44.66121735380829" lon="10.941667518843472"><ele>35.0</ele><time>2026-04-18T11:20:00Z</time></trkpt><trkpt lat="44.661113268436054" lon="10.941852031232875"><ele>35.0</ele><time>2026-04-18T11:20:03Z</time></trkpt><trkpt lat="44.661058017439515" lon="10.94196331400215"><ele>35.0</ele><time>2026-04-18T11:20:04Z</time></trkpt><trkpt lat="44.660996002104724" lon="10.942088221271534"><ele>35.0</ele><time>2026-04-18T11:20:05Z</time></trkpt><trkpt lat="44.66092105940395" lon="10.942239166000533"><ele>35.0</ele><time>2026-04-18T11:20:06Z</time></trkpt><trkpt lat="44.66086371350582" lon="10.942354668947669"><ele>35.0</ele><time>2026-04-18T11:20:07Z</time></trkpt><trkpt lat="44.66083734551785" lon="10.942446606059605"><ele>35.0</ele><time>2026-04-18T11:20:08Z</time></trkpt><trkpt lat="44.660751315334174" lon="10.94257255120889"><ele>35.0</ele><time>2026-04-18T11:20:10Z</time></trkpt><trkpt lat="44.66071333378075" lon="10.942644655198096"><ele>35.0</ele><time>2026-04-18T11:20:12Z</time></trkpt><trkpt lat="44.66080884525725" lon="10.942806085443511"><ele>34.4</ele><time>2026-04-18T11:20:20Z</time></trkpt><trkpt lat="44.6607859049548" lon="10.942913245325451"><ele>33.8</ele><time>2026-04-18T11:20:35Z</time></trkpt><trkpt lat="44.660785419582005" lon="10.943013142839236"><ele>33.2</ele><time>2026-04-18T11:20:40.055Z</time></trkpt><trkpt lat="44.66069290515213" lon="10.943036695271248"><ele>32.6</ele><time>2026-04-18T11:25:43.011Z</time></trkpt><trkpt lat="44.66076268469675" lon="10.942927733595946"><ele>32.0</ele><time>2026-04-18T11:25:46.016Z</time></trkpt><trkpt lat="44.660718009874" lon="10.942729021025082"><ele>32.0</ele><time>2026-04-18T11:25:51.002Z</time></trkpt><trkpt lat="44.66070649243193" lon="10.942816336052456"><ele>31.999999999999996</ele><time>2026-04-18T11:25:59Z</time></trkpt><trkpt lat="44.66071012551051" lon="10.942906231163432"><ele>32.0</ele><time>2026-04-18T11:26:04Z</time></trkpt><trkpt lat="44.66065607081452" lon="10.942953348921257"><ele>32.0</ele><time>2026-04-18T11:26:24Z</time></trkpt><trkpt lat="44.66059169302649" lon="10.942924980412444"><ele>31.999999999999996</ele><time>2026-04-18T11:26:27Z</time></trkpt><trkpt lat="44.66058298380641" lon="10.943021525775208"><ele>32.0</ele><time>2026-04-18T11:26:30Z</time></trkpt><trkpt lat="44.66061474113082" lon="10.943098556341162"><ele>32.0</ele><time>2026-04-18T11:26:33Z</time></trkpt><trkpt lat="44.66065426149531" lon="10.94292958315912"><ele>32.0</ele><time>2026-04-18T11:27:05.605Z</time></trkpt><trkpt lat="44.66077112369432" lon="10.942916083131598"><ele>32.0</ele><time>2026-04-18T11:28:29.585Z</time></trkpt><trkpt lat="44.66086203709695" lon="10.943045736799128"><ele>32.0</ele><time>2026-04-18T11:42:55.028Z</time></trkpt><trkpt lat="44.66082628239517" lon="10.943142652421544"><ele>32.0</ele><time>2026-04-18T11:43:09.026Z</time></trkpt><trkpt lat="44.66075441455886" lon="10.943163181843424"><ele>32.0</ele><time>2026-04-18T11:43:13.024Z</time></trkpt><trkpt lat="44.66067870392531" lon="10.943029860988206"><ele>32.0</ele><time>2026-04-18T11:43:45.006Z</time></trkpt><trkpt lat="44.66075739825173" lon="10.943008026199148"><ele>32.0</ele><time>2026-04-18T11:43:55.008Z</time></trkpt><trkpt lat="44.66074289548644" lon="10.943283949477157"><ele>32.0</ele><time>2026-04-18T11:44:41.056Z</time></trkpt><trkpt lat="44.66077677818956" lon="10.943109205074268"><ele>32.0</ele><time>2026-04-18T11:44:46Z</time></trkpt><trkpt lat="44.660715546375705" lon="10.94307578210208"><ele>32.0</ele><time>2026-04-18T11:44:58.999Z</time></trkpt><trkpt lat="44.66068950751214" lon="10.94285628335034"><ele>32.0</ele><time>2026-04-18T11:45:56.999Z</time></trkpt><trkpt lat="44.66067528902822" lon="10.942721464650932"><ele>32.0</ele><time>2026-04-18T11:46:00.999Z</time></trkpt><trkpt lat="44.66074942143742" lon="10.94274464901211"><ele>32.0</ele><time>2026-04-18T11:46:11Z</time></trkpt><trkpt lat="44.660742148067584" lon="10.94293083206916"><ele>33.5</ele><time>2026-04-18T11:50:00.209Z</time></trkpt><trkpt lat="44.660710367071275" lon="10.94247408737989"><ele>35.0</ele><time>2026-04-18T11:51:07.531Z</time></trkpt><trkpt lat="44.66086703623663" lon="10.94241725474788"><ele>35.0</ele><time>2026-04-18T11:51:11.997Z</time></trkpt><trkpt lat="44.660944295840594" lon="10.94234423215032"><ele>35.0</ele><time>2026-04-18T11:51:13.997Z</time></trkpt><trkpt lat="44.66087617079082" lon="10.942314374486372"><ele>35.0</ele><time>2026-04-18T11:51:15.997Z</time></trkpt><trkpt lat="44.66077190087221" lon="10.942329940124424"><ele>35.0</ele><time>2026-04-18T11:51:16.999Z</time></trkpt><trkpt lat="44.66065883911781" lon="10.942335650082734"><ele>35.0</ele><time>2026-04-18T11:51:17.999Z</time></trkpt><trkpt lat="44.66056449984034" lon="10.942351237055291"><ele>35.0</ele><time>2026-04-18T11:51:18.999Z</time></trkpt><trkpt lat="44.66042233410016" lon="10.941764444106623"><ele>35.0</ele><time>2026-04-18T11:51:19.999Z</time></trkpt><trkpt lat="44.66030947365995" lon="10.941680316253777"><ele>34.8</ele><time>2026-04-18T11:51:20.999Z</time></trkpt><trkpt lat="44.66023059096962" lon="10.941602389707393"><ele>34.6</ele><time>2026-04-18T11:51:21.999Z</time></trkpt><trkpt lat="44.66017343255265" lon="10.94154014093919"><ele>34.4</ele><time>2026-04-18T11:51:22.999Z</time></trkpt><trkpt lat="44.66011226252835" lon="10.941482204785524"><ele>34.2</ele><time>2026-04-18T11:51:23.999Z</time></trkpt><trkpt lat="44.66001952059594" lon="10.941407317185472"><ele>34.0</ele><time>2026-04-18T11:51:24.999Z</time></trkpt><trkpt lat="44.65990768187913" lon="10.941296538321252"><ele>34.0</ele><time>2026-04-18T11:51:25.999Z</time></trkpt><trkpt lat="44.659789056300276" lon="10.941185759055596"><ele>34.0</ele><time>2026-04-18T11:51:26.999Z</time></trkpt><trkpt lat="44.659699411669" lon="10.94109961702987"><ele>34.0</ele><time>2026-04-18T11:51:27.999Z</time></trkpt><trkpt lat="44.65963424800732" lon="10.941037287369916"><ele>34.0</ele><time>2026-04-18T11:51:28.999Z</time></trkpt><trkpt lat="44.659580466156335" lon="10.94098796095452"><ele>34.0</ele><time>2026-04-18T11:51:29.999Z</time></trkpt><trkpt lat="44.65953713941477" lon="10.940917577430405"><ele>34.0</ele><time>2026-04-18T11:51:32.999Z</time></trkpt><trkpt lat="44.65966154343854" lon="10.94077208240499"><ele>34.0</ele><time>2026-04-18T11:51:35.999Z</time></trkpt><trkpt lat="44.659704803682125" lon="10.940682736606018"><ele>34.0</ele><time>2026-04-18T11:51:36.999Z</time></trkpt><trkpt lat="44.65974431976223" lon="10.940601123793115"><ele>34.0</ele><time>2026-04-18T11:51:37.999Z</time></trkpt><trkpt lat="44.6597790218993" lon="10.940499107982843"><ele>34.0</ele><time>2026-04-18T11:51:38.999Z</time></trkpt><trkpt lat="44.65982435148718" lon="10.940427711747367"><ele>34.0</ele><time>2026-04-18T11:51:39.999Z</time></trkpt><trkpt lat="44.65987738394989" lon="10.940317836588454"><ele>34.0</ele><time>2026-04-18T11:51:41.999Z</time></trkpt><trkpt lat="44.659954868003695" lon="10.9401356471855"><ele>34.0</ele><time>2026-04-18T11:51:43.999Z</time></trkpt><trkpt lat="44.660032270887754" lon="10.940018653016018"><ele>34.0</ele><time>2026-04-18T11:51:44.999Z</time></trkpt><trkpt lat="44.66009054623333" lon="10.939902150671363"><ele>33.8</ele><time>2026-04-18T11:51:45.999Z</time></trkpt><trkpt lat="44.660132239446966" lon="10.939818522360419"><ele>33.599999999999994</ele><time>2026-04-18T11:51:46.999Z</time></trkpt><trkpt lat="44.6601738365574" lon="10.939735087010837"><ele>33.4</ele><time>2026-04-18T11:51:47.999Z</time></trkpt><trkpt lat="44.66024243282681" lon="10.939597496623456"><ele>33.199999999999996</ele><time>2026-04-18T11:51:49.999Z</time></trkpt><trkpt lat="44.66027358506973" lon="10.93951820129774"><ele>33.0</ele><time>2026-04-18T11:51:51.999Z</time></trkpt><trkpt lat="44.66017949035365" lon="10.939354823407824"><ele>33.0</ele><time>2026-04-18T11:51:57.999Z</time></trkpt><trkpt lat="44.660113700048406" lon="10.939284368130886"><ele>33.0</ele><time>2026-04-18T11:51:58.999Z</time></trkpt><trkpt lat="44.66004330628099" lon="10.93922477498386"><ele>33.0</ele><time>2026-04-18T11:52:00.999Z</time></trkpt><trkpt lat="44.65998665170106" lon="10.939141245229324"><ele>33.0</ele><time>2026-04-18T11:52:03.999Z</time></trkpt><trkpt lat="44.65993335133526" lon="10.939085006812954"><ele>33.0</ele><time>2026-04-18T11:52:04.999Z</time></trkpt><trkpt lat="44.659866031542315" lon="10.939042195650169"><ele>33.0</ele><time>2026-04-18T11:52:05.999Z</time></trkpt><trkpt lat="44.659791006283506" lon="10.938971280679047"><ele>33.6</ele><time>2026-04-18T11:52:06.999Z</time></trkpt><trkpt lat="44.659690635920136" lon="10.938882864355934"><ele>34.199999999999996</ele><time>2026-04-18T11:52:07.999Z</time></trkpt><trkpt lat="44.659590456484956" lon="10.93878159647935"><ele>34.8</ele><time>2026-04-18T11:52:08.999Z</time></trkpt><trkpt lat="44.65950720755161" lon="10.93870039346562"><ele>35.4</ele><time>2026-04-18T11:52:09.999Z</time></trkpt><trkpt lat="44.65942349146403" lon="10.938629830669552"><ele>36.0</ele><time>2026-04-18T11:52:10.999Z</time></trkpt><trkpt lat="44.659293280424215" lon="10.938498525985288"><ele>35.666666666666664</ele><time>2026-04-18T11:52:11.999Z</time></trkpt><trkpt lat="44.65912762604462" lon="10.93833358703345"><ele>35.33333333333333</ele><time>2026-04-18T11:52:12.999Z</time></trkpt><trkpt lat="44.658991553682355" lon="10.938183091570014"><ele>35.0</ele><time>2026-04-18T11:52:13.999Z</time></trkpt><trkpt lat="44.658870753598094" lon="10.93806661120131"><ele>35.0</ele><time>2026-04-18T11:52:14.999Z</time></trkpt><trkpt lat="44.658749259340965" lon="10.937942052262859"><ele>35.0</ele><time>2026-04-18T11:52:15.999Z</time></trkpt><trkpt lat="44.6586196474573" lon="10.937827920394602"><ele>35.0</ele><time>2026-04-18T11:52:16.999Z</time></trkpt><trkpt lat="44.658492395517584" lon="10.937708745240123"><ele>35.0</ele><time>2026-04-18T11:52:17.999Z</time></trkpt><trkpt lat="44.65835333796501" lon="10.93757357327588"><ele>35.0</ele><time>2026-04-18T11:52:18.999Z</time></trkpt><trkpt lat="44.65823585327207" lon="10.93745937136516"><ele>35.0</ele><time>2026-04-18T11:52:19.999Z</time></trkpt><trkpt lat="44.65812237267898" lon="10.937349061136855"><ele>35.0</ele><time>2026-04-18T11:52:20.999Z</time></trkpt><trkpt lat="44.65799936165055" lon="10.937229714635714"><ele>35.0</ele><time>2026-04-18T11:52:21.999Z</time></trkpt><trkpt lat="44.65788471034725" lon="10.937118424949258"><ele>35.0</ele><time>2026-04-18T11:52:22.999Z</time></trkpt><trkpt lat="44.657778650490336" lon="10.937015474770956"><ele>35.0</ele><time>2026-04-18T11:52:23.999Z</time></trkpt><trkpt lat="44.657671454793594" lon="10.936911421891644"><ele>35.0</ele><time>2026-04-18T11:52:24.999Z</time></trkpt><trkpt lat="44.6575592093834" lon="10.936803430598985"><ele>35.0</ele><time>2026-04-18T11:52:25.999Z</time></trkpt><trkpt lat="44.657449366939986" lon="10.936693018431809"><ele>35.0</ele><time>2026-04-18T11:52:26.999Z</time></trkpt><trkpt lat="44.65733670063309" lon="10.936580082795755"><ele>35.0</ele><time>2026-04-18T11:52:27.999Z</time></trkpt><trkpt lat="44.65722639950421" lon="10.93647203174793"><ele>35.0</ele><time>2026-04-18T11:52:28.999Z</time></trkpt><trkpt lat="44.657132893751864" lon="10.936380652853702"><ele>35.0</ele><time>2026-04-18T11:52:29.999Z</time></trkpt><trkpt lat="44.65703894389922" lon="10.936288639879287"><ele>35.0</ele><time>2026-04-18T11:52:30.999Z</time></trkpt><trkpt lat="44.65695566977772" lon="10.936207082523808"><ele>35.0</ele><time>2026-04-18T11:52:31.999Z</time></trkpt><trkpt lat="44.65684806798113" lon="10.936094636268454"><ele>35.2</ele><time>2026-04-18T11:52:33.999Z</time></trkpt><trkpt lat="44.65677437027464" lon="10.93602388531003"><ele>35.4</ele><time>2026-04-18T11:52:34.999Z</time></trkpt><trkpt lat="44.656702879796825" lon="10.935941686253708"><ele>35.6</ele><time>2026-04-18T11:52:35.999Z</time></trkpt><trkpt lat="44.656626284451754" lon="10.935880158816364"><ele>35.8</ele><time>2026-04-18T11:52:36.999Z</time></trkpt><trkpt lat="44.656552607261055" lon="10.935811446448904"><ele>36.0</ele><time>2026-04-18T11:52:37.999Z</time></trkpt><trkpt lat="44.656472044581975" lon="10.93573626170245"><ele>36.0</ele><time>2026-04-18T11:52:38.999Z</time></trkpt><trkpt lat="44.6563896643294" lon="10.935661002971978"><ele>36.0</ele><time>2026-04-18T11:52:39.999Z</time></trkpt><trkpt lat="44.65630469329546" lon="10.935572924711776"><ele>36.0</ele><time>2026-04-18T11:52:40.999Z</time></trkpt><trkpt lat="44.65622608619306" lon="10.935493638820313"><ele>36.0</ele><time>2026-04-18T11:52:41.999Z</time></trkpt><trkpt lat="44.65613746550512" lon="10.93541909386986"><ele>36.0</ele><time>2026-04-18T11:52:42.999Z</time></trkpt><trkpt lat="44.65605890128598" lon="10.9353341228584"><ele>36.0</ele><time>2026-04-18T11:52:43.999Z</time></trkpt><trkpt lat="44.65598322367862" lon="10.935259948410849"><ele>36.0</ele><time>2026-04-18T11:52:44.999Z</time></trkpt><trkpt lat="44.65589795239409" lon="10.935177974773437"><ele>36.0</ele><time>2026-04-18T11:52:45.999Z</time></trkpt><trkpt lat="44.65581105857829" lon="10.935118403539898"><ele>36.0</ele><time>2026-04-18T11:52:46.999Z</time></trkpt><trkpt lat="44.655746304910686" lon="10.935052054463261"><ele>36.0</ele><time>2026-04-18T11:52:47.999Z</time></trkpt><trkpt lat="44.65569397986197" lon="10.934977160811188"><ele>36.0</ele><time>2026-04-18T11:52:48.999Z</time></trkpt><trkpt lat="44.655638946348866" lon="10.934924266637958"><ele>36.0</ele><time>2026-04-18T11:52:49.999Z</time></trkpt><trkpt lat="44.65558414933518" lon="10.934857009870276"><ele>36.0</ele><time>2026-04-18T11:52:50.999Z</time></trkpt><trkpt lat="44.655499954231544" lon="10.9347626613909"><ele>36.0</ele><time>2026-04-18T11:52:52.999Z</time></trkpt><trkpt lat="44.65542721351074" lon="10.934689493471526"><ele>36.0</ele><time>2026-04-18T11:52:55.999Z</time></trkpt><trkpt lat="44.655384914317544" lon="10.934589313115874"><ele>36.0</ele><time>2026-04-18T11:52:57.999Z</time></trkpt><trkpt lat="44.65545538634971" lon="10.934466520703511"><ele>36.0</ele><time>2026-04-18T11:52:59.999Z</time></trkpt><trkpt lat="44.65551947429798" lon="10.934422334013268"><ele>36.0</ele><time>2026-04-18T11:53:00.999Z</time></trkpt><trkpt lat="44.6555993753725" lon="10.934369673181774"><ele>36.0</ele><time>2026-04-18T11:53:01.999Z</time></trkpt><trkpt lat="44.65565916093746" lon="10.934299205529943"><ele>36.0</ele><time>2026-04-18T11:53:02.999Z</time></trkpt><trkpt lat="44.6557244800791" lon="10.934281731986372"><ele>36.0</ele><time>2026-04-18T11:53:03.999Z</time></trkpt><trkpt lat="44.65580639099352" lon="10.934208965798705"><ele>36.0</ele><time>2026-04-18T11:53:05.999Z</time></trkpt><trkpt lat="44.655887535442844" lon="10.934125752827565"><ele>35.6</ele><time>2026-04-18T11:53:07.999Z</time></trkpt><trkpt lat="44.65594815932622" lon="10.934063583563036"><ele>35.2</ele><time>2026-04-18T11:53:09.999Z</time></trkpt><trkpt lat="44.65604386544206" lon="10.934216393811328"><ele>34.8</ele><time>2026-04-18T11:53:10.999Z</time></trkpt><trkpt lat="44.65602751933145" lon="10.934113125267048"><ele>34.4</ele><time>2026-04-18T11:54:00.999Z</time></trkpt><trkpt lat="44.65602567929269" lon="10.93421346105051"><ele>34.0</ele><time>2026-04-18T11:54:23.999Z</time></trkpt><trkpt lat="44.656053745742014" lon="10.934094418259336"><ele>34.0</ele><time>2026-04-18T11:56:28.999Z</time></trkpt><trkpt lat="44.65605977256762" lon="10.933955467445838"><ele>34.0</ele><time>2026-04-18T11:56:30.999Z</time></trkpt><trkpt lat="44.656025999117006" lon="10.933848703763932"><ele>34.0</ele><time>2026-04-18T11:56:32.999Z</time></trkpt><trkpt lat="44.65607379030158" lon="10.933710425745586"><ele>34.0</ele><time>2026-04-18T11:56:34.999Z</time></trkpt><trkpt lat="44.656150773201674" lon="10.93364766706531"><ele>34.0</ele><time>2026-04-18T11:56:35.999Z</time></trkpt><trkpt lat="44.6562240690618" lon="10.933574865954856"><ele>33.8</ele><time>2026-04-18T11:56:36.999Z</time></trkpt><trkpt lat="44.656282740722176" lon="10.933477888571037"><ele>33.599999999999994</ele><time>2026-04-18T11:56:37.999Z</time></trkpt><trkpt lat="44.65635260136677" lon="10.933372993074109"><ele>33.4</ele><time>2026-04-18T11:56:38.999Z</time></trkpt><trkpt lat="44.656400500253625" lon="10.933262620904786"><ele>33.199999999999996</ele><time>2026-04-18T11:56:39.999Z</time></trkpt><trkpt lat="44.656460944840696" lon="10.933155671353475"><ele>33.0</ele><time>2026-04-18T11:56:40.999Z</time></trkpt><trkpt lat="44.65652802409851" lon="10.933050344846338"><ele>33.4</ele><time>2026-04-18T11:56:41.999Z</time></trkpt><trkpt lat="44.656585333295865" lon="10.932928383967994"><ele>33.8</ele><time>2026-04-18T11:56:42.999Z</time></trkpt><trkpt lat="44.65666095105067" lon="10.932825222779623"><ele>34.2</ele><time>2026-04-18T11:56:43.999Z</time></trkpt><trkpt lat="44.6567315118719" lon="10.932715137694398"><ele>34.6</ele><time>2026-04-18T11:56:44.999Z</time></trkpt><trkpt lat="44.65680004655236" lon="10.932603702030145"><ele>35.0</ele><time>2026-04-18T11:56:45.999Z</time></trkpt><trkpt lat="44.65686401814591" lon="10.93250676717333"><ele>35.0</ele><time>2026-04-18T11:56:46.999Z</time></trkpt><trkpt lat="44.656915139368934" lon="10.932428076574036"><ele>35.0</ele><time>2026-04-18T11:56:47.999Z</time></trkpt><trkpt lat="44.65695769058301" lon="10.932355947553482"><ele>35.0</ele><time>2026-04-18T11:56:48.999Z</time></trkpt><trkpt lat="44.656999697009475" lon="10.932289632666938"><ele>35.0</ele><time>2026-04-18T11:56:49.999Z</time></trkpt><trkpt lat="44.65705489906541" lon="10.932233073199201"><ele>35.0</ele><time>2026-04-18T11:56:50.999Z</time></trkpt><trkpt lat="44.65709891363463" lon="10.93216597864038"><ele>35.0</ele><time>2026-04-18T11:56:51.999Z</time></trkpt><trkpt lat="44.65714198105838" lon="10.932100327361423"><ele>35.0</ele><time>2026-04-18T11:56:52.999Z</time></trkpt><trkpt lat="44.657207792968805" lon="10.931946197756515"><ele>35.0</ele><time>2026-04-18T11:56:54.999Z</time></trkpt><trkpt lat="44.65725116312223" lon="10.931881777581973"><ele>35.0</ele><time>2026-04-18T11:56:55.999Z</time></trkpt><trkpt lat="44.65729770550437" lon="10.931817815921786"><ele>35.0</ele><time>2026-04-18T11:56:56.999Z</time></trkpt><trkpt lat="44.65734707876253" lon="10.931739957625869"><ele>35.0</ele><time>2026-04-18T11:56:57.999Z</time></trkpt><trkpt lat="44.65741552384365" lon="10.93167951442357"><ele>35.0</ele><time>2026-04-18T11:56:58.999Z</time></trkpt><trkpt lat="44.657470853460694" lon="10.931593444010977"><ele>35.0</ele><time>2026-04-18T11:56:59.999Z</time></trkpt><trkpt lat="44.65752504940985" lon="10.93150777107884"><ele>35.0</ele><time>2026-04-18T11:57:00.999Z</time></trkpt><trkpt lat="44.65757662938528" lon="10.93142864999921"><ele>35.0</ele><time>2026-04-18T11:57:01.999Z</time></trkpt><trkpt lat="44.65762518012256" lon="10.931352452957524"><ele>35.0</ele><time>2026-04-18T11:57:02.999Z</time></trkpt><trkpt lat="44.657703245415895" lon="10.93122817758003"><ele>35.0</ele><time>2026-04-18T11:57:04.999Z</time></trkpt><trkpt lat="44.657763462462995" lon="10.931114119296776"><ele>35.0</ele><time>2026-04-18T11:57:06.999Z</time></trkpt><trkpt lat="44.657829825845866" lon="10.931011516302586"><ele>35.0</ele><time>2026-04-18T11:57:08.999Z</time></trkpt><trkpt lat="44.65791006096858" lon="10.930885220330063"><ele>34.4</ele><time>2026-04-18T11:57:10.999Z</time></trkpt><trkpt lat="44.65801009194501" lon="10.930778745881925"><ele>33.8</ele><time>2026-04-18T11:57:12.999Z</time></trkpt><trkpt lat="44.6581268413508" lon="10.930758859973151"><ele>33.2</ele><time>2026-04-18T11:57:14.999Z</time></trkpt><trkpt lat="44.65818928081545" lon="10.930746317370538"><ele>32.6</ele><time>2026-04-18T11:57:15.999Z</time></trkpt><trkpt lat="44.658294740207594" lon="10.930647088067609"><ele>32.0</ele><time>2026-04-18T11:57:17.999Z</time></trkpt><trkpt lat="44.65832505658458" lon="10.930568912636403"><ele>31.999999999999996</ele><time>2026-04-18T11:57:18.999Z</time></trkpt><trkpt lat="44.65833121147965" lon="10.930476382790259"><ele>32.0</ele><time>2026-04-18T11:57:19.999Z</time></trkpt><trkpt lat="44.6583141262641" lon="10.930339743156562"><ele>32.0</ele><time>2026-04-18T11:57:21.999Z</time></trkpt><trkpt lat="44.65834333572826" lon="10.930238242180266"><ele>32.0</ele><time>2026-04-18T11:57:23.999Z</time></trkpt><trkpt lat="44.65839568455613" lon="10.930155041347303"><ele>31.999999999999996</ele><time>2026-04-18T11:57:25.999Z</time></trkpt><trkpt lat="44.6584487667099" lon="10.930070674271093"><ele>32.0</ele><time>2026-04-18T11:57:27.999Z</time></trkpt><trkpt lat="44.65849643769241" lon="10.92999595846135"><ele>32.0</ele><time>2026-04-18T11:57:29.999Z</time></trkpt><trkpt lat="44.65856512158767" lon="10.929889439769484"><ele>32.0</ele><time>2026-04-18T11:57:31.999Z</time></trkpt><trkpt lat="44.658625851131326" lon="10.929794408645277"><ele>32.0</ele><time>2026-04-18T11:57:32.999Z</time></trkpt><trkpt lat="44.658699209472466" lon="10.929677562394318"><ele>32.0</ele><time>2026-04-18T11:57:33.999Z</time></trkpt><trkpt lat="44.658778411667306" lon="10.929528732662215"><ele>32.0</ele><time>2026-04-18T11:57:34.999Z</time></trkpt><trkpt lat="44.65883008251055" lon="10.929364564251696"><ele>32.2</ele><time>2026-04-18T11:57:35.999Z</time></trkpt><trkpt lat="44.658895036469495" lon="10.929233770442247"><ele>32.400000000000006</ele><time>2026-04-18T11:57:36.999Z</time></trkpt><trkpt lat="44.658948770312385" lon="10.92910142504239"><ele>32.599999999999994</ele><time>2026-04-18T11:57:37.999Z</time></trkpt><trkpt lat="44.65899615141995" lon="10.92897735314581"><ele>32.8</ele><time>2026-04-18T11:57:38.999Z</time></trkpt><trkpt lat="44.65903829696325" lon="10.928858121969318"><ele>33.0</ele><time>2026-04-18T11:57:39.999Z</time></trkpt><trkpt lat="44.659081744710754" lon="10.928751748044068"><ele>33.0</ele><time>2026-04-18T11:57:40.999Z</time></trkpt><trkpt lat="44.65913784777129" lon="10.928660417052273"><ele>33.0</ele><time>2026-04-18T11:57:41.999Z</time></trkpt><trkpt lat="44.659173279012784" lon="10.92855923817758"><ele>33.0</ele><time>2026-04-18T11:57:42.999Z</time></trkpt><trkpt lat="44.65920901603078" lon="10.92847099673052"><ele>33.0</ele><time>2026-04-18T11:57:43.999Z</time></trkpt><trkpt lat="44.659243188132514" lon="10.928385416346083"><ele>33.0</ele><time>2026-04-18T11:57:44.999Z</time></trkpt><trkpt lat="44.659280537742106" lon="10.928299089914184"><ele>33.0</ele><time>2026-04-18T11:57:45.999Z</time></trkpt><trkpt lat="44.65931770749272" lon="10.928212539218645"><ele>32.714285714285715</ele><time>2026-04-18T11:57:46.999Z</time></trkpt><trkpt lat="44.65935556448233" lon="10.928121799359875"><ele>32.42857142857143</ele><time>2026-04-18T11:57:47.999Z</time></trkpt><trkpt lat="44.659392768853586" lon="10.92803796713621"><ele>32.142857142857146</ele><time>2026-04-18T11:57:48.999Z</time></trkpt><trkpt lat="44.659426853483204" lon="10.92795712577914"><ele>31.857142857142858</ele><time>2026-04-18T11:57:49.999Z</time></trkpt><trkpt lat="44.65946110255326" lon="10.927880125277248"><ele>31.571428571428577</ele><time>2026-04-18T11:57:50.999Z</time></trkpt><trkpt lat="44.6595027511402" lon="10.927807125302342"><ele>31.28571428571429</ele><time>2026-04-18T11:57:51.999Z</time></trkpt><trkpt lat="44.659546224663174" lon="10.92773460378756"><ele>31.0</ele><time>2026-04-18T11:57:52.999Z</time></trkpt><trkpt lat="44.659580728705265" lon="10.927655877310547"><ele>31.000000000000004</ele><time>2026-04-18T11:57:53.999Z</time></trkpt><trkpt lat="44.65961451795194" lon="10.927569941092907"><ele>31.0</ele><time>2026-04-18T11:57:54.999Z</time></trkpt><trkpt lat="44.659651783699886" lon="10.927475374968369"><ele>31.0</ele><time>2026-04-18T11:57:55.999Z</time></trkpt><trkpt lat="44.659708760017125" lon="10.927386366320526"><ele>31.0</ele><time>2026-04-18T11:57:56.999Z</time></trkpt><trkpt lat="44.65975839805693" lon="10.927280437732714"><ele>31.000000000000004</ele><time>2026-04-18T11:57:57.999Z</time></trkpt><trkpt lat="44.65980453514025" lon="10.92716475749496"><ele>31.0</ele><time>2026-04-18T11:57:58.999Z</time></trkpt><trkpt lat="44.65985452264775" lon="10.927050094594168"><ele>31.000000000000004</ele><time>2026-04-18T11:57:59.999Z</time></trkpt><trkpt lat="44.65990720019256" lon="10.926938953851204"><ele>31.0</ele><time>2026-04-18T11:58:00.999Z</time></trkpt><trkpt lat="44.65995978069135" lon="10.926834036647458"><ele>31.0</ele><time>2026-04-18T11:58:01.999Z</time></trkpt><trkpt lat="44.660007273737975" lon="10.926723906027247"><ele>31.0</ele><time>2026-04-18T11:58:02.999Z</time></trkpt><trkpt lat="44.66005257124956" lon="10.926620167881367"><ele>31.000000000000004</ele><time>2026-04-18T11:58:03.999Z</time></trkpt><trkpt lat="44.66008980186831" lon="10.926535514934438"><ele>31.0</ele><time>2026-04-18T11:58:04.999Z</time></trkpt><trkpt lat="44.66012794374921" lon="10.926457248099355"><ele>30.833333333333336</ele><time>2026-04-18T11:58:05.999Z</time></trkpt><trkpt lat="44.66016939725344" lon="10.926371186033629"><ele>30.666666666666668</ele><time>2026-04-18T11:58:06.999Z</time></trkpt><trkpt lat="44.66021117422092" lon="10.92628451963048"><ele>30.5</ele><time>2026-04-18T11:58:07.999Z</time></trkpt><trkpt lat="44.660252627968426" lon="10.926190309414485"><ele>30.333333333333336</ele><time>2026-04-18T11:58:08.999Z</time></trkpt><trkpt lat="44.66029965870585" lon="10.926088311705746"><ele>30.166666666666668</ele><time>2026-04-18T11:58:09.999Z</time></trkpt><trkpt lat="44.66034681378335" lon="10.925979903348116"><ele>30.0</ele><time>2026-04-18T11:58:10.999Z</time></trkpt><trkpt lat="44.66039762161101" lon="10.925870740494075"><ele>30.5</ele><time>2026-04-18T11:58:11.999Z</time></trkpt><trkpt lat="44.66044681263915" lon="10.925768470911827"><ele>31.0</ele><time>2026-04-18T11:58:12.999Z</time></trkpt><trkpt lat="44.66049283141298" lon="10.925668844734815"><ele>31.5</ele><time>2026-04-18T11:58:13.999Z</time></trkpt><trkpt lat="44.66053893707324" lon="10.925571520604947"><ele>32.0</ele><time>2026-04-18T11:58:14.999Z</time></trkpt><trkpt lat="44.66058629812029" lon="10.925472808585727"><ele>32.5</ele><time>2026-04-18T11:58:15.999Z</time></trkpt><trkpt lat="44.660625793055814" lon="10.925377014202363"><ele>33.0</ele><time>2026-04-18T11:58:16.999Z</time></trkpt><trkpt lat="44.66067630854803" lon="10.925310859135523"><ele>33.0</ele><time>2026-04-18T11:58:17.999Z</time></trkpt><trkpt lat="44.66073637790708" lon="10.925181837064729"><ele>33.0</ele><time>2026-04-18T11:58:19.999Z</time></trkpt><trkpt lat="44.66077950026046" lon="10.92505492789323"><ele>33.0</ele><time>2026-04-18T11:58:21.999Z</time></trkpt><trkpt lat="44.660849290503315" lon="10.924909867634117"><ele>33.0</ele><time>2026-04-18T11:58:23.999Z</time></trkpt><trkpt lat="44.66088756947329" lon="10.92482587992173"><ele>33.0</ele><time>2026-04-18T11:58:24.999Z</time></trkpt><trkpt lat="44.66091928874632" lon="10.924729768150362"><ele>33.166666666666664</ele><time>2026-04-18T11:58:25.999Z</time></trkpt><trkpt lat="44.660960703170346" lon="10.924636557327528"><ele>33.333333333333336</ele><time>2026-04-18T11:58:26.999Z</time></trkpt><trkpt lat="44.66098651807349" lon="10.924536485952295"><ele>33.5</ele><time>2026-04-18T11:58:27.999Z</time></trkpt><trkpt lat="44.66101128273411" lon="10.924438948047563"><ele>33.66666666666667</ele><time>2026-04-18T11:58:28.999Z</time></trkpt><trkpt lat="44.661036400276714" lon="10.924341534391358"><ele>33.833333333333336</ele><time>2026-04-18T11:58:29.999Z</time></trkpt><trkpt lat="44.661049022854286" lon="10.924245600460795"><ele>34.0</ele><time>2026-04-18T11:58:30.999Z</time></trkpt><trkpt lat="44.66108738413932" lon="10.924086972244828"><ele>33.833333333333336</ele><time>2026-04-18T11:58:32.999Z</time></trkpt><trkpt lat="44.66112838320226" lon="10.923931998922605"><ele>33.66666666666667</ele><time>2026-04-18T11:58:34.999Z</time></trkpt><trkpt lat="44.66115099895057" lon="10.923847346556292"><ele>33.5</ele><time>2026-04-18T11:58:35.999Z</time></trkpt><trkpt lat="44.66117318161577" lon="10.923761189699043"><ele>33.333333333333336</ele><time>2026-04-18T11:58:36.999Z</time></trkpt><trkpt lat="44.661197339062554" lon="10.923671286697372"><ele>33.166666666666664</ele><time>2026-04-18T11:58:37.999Z</time></trkpt><trkpt lat="44.661223764668165" lon="10.923577170667196"><ele>33.0</ele><time>2026-04-18T11:58:38.999Z</time></trkpt><trkpt lat="44.661249611675544" lon="10.923486181126435"><ele>33.0</ele><time>2026-04-18T11:58:39.999Z</time></trkpt><trkpt lat="44.66127261634993" lon="10.92339763621836"><ele>33.0</ele><time>2026-04-18T11:58:40.999Z</time></trkpt><trkpt lat="44.66129785247438" lon="10.923306041734259"><ele>33.0</ele><time>2026-04-18T11:58:41.999Z</time></trkpt><trkpt lat="44.661321859674416" lon="10.923212982079367"><ele>33.0</ele><time>2026-04-18T11:58:42.999Z</time></trkpt><trkpt lat="44.661349329944485" lon="10.923118137808956"><ele>33.0</ele><time>2026-04-18T11:58:43.999Z</time></trkpt><trkpt lat="44.661378096125354" lon="10.923021418631086"><ele>33.0</ele><time>2026-04-18T11:58:44.999Z</time></trkpt><trkpt lat="44.661400131942884" lon="10.92292241609014"><ele>33.0</ele><time>2026-04-18T11:58:45.999Z</time></trkpt><trkpt lat="44.661428382548195" lon="10.922819680426585"><ele>32.833333333333336</ele><time>2026-04-18T11:58:46.999Z</time></trkpt><trkpt lat="44.66145770952679" lon="10.922713902199595"><ele>32.666666666666664</ele><time>2026-04-18T11:58:47.999Z</time></trkpt><trkpt lat="44.66148410385462" lon="10.92260817816802"><ele>32.5</ele><time>2026-04-18T11:58:48.999Z</time></trkpt><trkpt lat="44.66150897991251" lon="10.922508754319285"><ele>32.33333333333333</ele><time>2026-04-18T11:58:49.999Z</time></trkpt><trkpt lat="44.66153250107276" lon="10.922421120523557"><ele>32.166666666666664</ele><time>2026-04-18T11:58:50.999Z</time></trkpt><trkpt lat="44.66157106470794" lon="10.922277649684412"><ele>32.0</ele><time>2026-04-18T11:58:52.999Z</time></trkpt><trkpt lat="44.66160390259826" lon="10.922176060434563"><ele>32.166666666666664</ele><time>2026-04-18T11:58:54.999Z</time></trkpt><trkpt lat="44.66163656261034" lon="10.922081035842826"><ele>32.33333333333333</ele><time>2026-04-18T11:58:56.999Z</time></trkpt><trkpt lat="44.66166792955628" lon="10.921973185284225"><ele>32.5</ele><time>2026-04-18T11:58:58.999Z</time></trkpt><trkpt lat="44.661725003062095" lon="10.921830799188475"><ele>32.666666666666664</ele><time>2026-04-18T11:59:00.999Z</time></trkpt><trkpt lat="44.66176029138671" lon="10.921750994050528"><ele>32.833333333333336</ele><time>2026-04-18T11:59:01.999Z</time></trkpt><trkpt lat="44.66179882353241" lon="10.921665694950775"><ele>33.0</ele><time>2026-04-18T11:59:02.999Z</time></trkpt><trkpt lat="44.66184474663103" lon="10.921565339814979"><ele>33.0</ele><time>2026-04-18T11:59:03.999Z</time></trkpt><trkpt lat="44.66190545460767" lon="10.92143417746203"><ele>33.0</ele><time>2026-04-18T11:59:04.999Z</time></trkpt><trkpt lat="44.661975446395665" lon="10.921292210367405"><ele>33.0</ele><time>2026-04-18T11:59:05.999Z</time></trkpt><trkpt lat="44.66203987287712" lon="10.92115818303728"><ele>33.0</ele><time>2026-04-18T11:59:06.999Z</time></trkpt><trkpt lat="44.66211069201878" lon="10.921055959525646"><ele>32.833333333333336</ele><time>2026-04-18T11:59:07.999Z</time></trkpt><trkpt lat="44.662163714388264" lon="10.920948952422112"><ele>32.666666666666664</ele><time>2026-04-18T11:59:08.999Z</time></trkpt><trkpt lat="44.66221249837751" lon="10.920850499010523"><ele>32.5</ele><time>2026-04-18T11:59:09.999Z</time></trkpt><trkpt lat="44.66225350207051" lon="10.920767867710923"><ele>32.33333333333333</ele><time>2026-04-18T11:59:10.999Z</time></trkpt><trkpt lat="44.66229041806627" lon="10.920693728578032"><ele>32.166666666666664</ele><time>2026-04-18T11:59:11.999Z</time></trkpt><trkpt lat="44.662351391947716" lon="10.920582259569628"><ele>32.0</ele><time>2026-04-18T11:59:13.999Z</time></trkpt><trkpt lat="44.66241501003905" lon="10.92048595352025"><ele>31.8</ele><time>2026-04-18T11:59:15.999Z</time></trkpt><trkpt lat="44.66251836031317" lon="10.920413403667013"><ele>31.6</ele><time>2026-04-18T11:59:17.999Z</time></trkpt><trkpt lat="44.662593684370556" lon="10.920296382187548"><ele>31.400000000000002</ele><time>2026-04-18T11:59:19.999Z</time></trkpt><trkpt lat="44.66264479219044" lon="10.920144599850405"><ele>31.200000000000003</ele><time>2026-04-18T11:59:21.999Z</time></trkpt><trkpt lat="44.66259995214559" lon="10.920043336752174"><ele>31.0</ele><time>2026-04-18T11:59:22.999Z</time></trkpt><trkpt lat="44.66254403407873" lon="10.91998868579408"><ele>31.333333333333336</ele><time>2026-04-18T11:59:23.999Z</time></trkpt><trkpt lat="44.66248656637152" lon="10.919945941950735"><ele>31.666666666666668</ele><time>2026-04-18T11:59:24.999Z</time></trkpt><trkpt lat="44.66241678428814" lon="10.919929499206187"><ele>32.0</ele><time>2026-04-18T11:59:25.999Z</time></trkpt><trkpt lat="44.662343943022805" lon="10.91994276498445"><ele>32.333333333333336</ele><time>2026-04-18T11:59:26.999Z</time></trkpt><trkpt lat="44.66226716655757" lon="10.919972370029772"><ele>32.666666666666664</ele><time>2026-04-18T11:59:27.999Z</time></trkpt><trkpt lat="44.66219982196414" lon="10.920018653883828"><ele>33.0</ele><time>2026-04-18T11:59:28.999Z</time></trkpt><trkpt lat="44.66208923670188" lon="10.9199715245922"><ele>33.0</ele><time>2026-04-18T11:59:29.999Z</time></trkpt><trkpt lat="44.661965668902084" lon="10.919926537033788"><ele>33.0</ele><time>2026-04-18T11:59:30.999Z</time></trkpt><trkpt lat="44.66180430957279" lon="10.919851254110736"><ele>33.0</ele><time>2026-04-18T11:59:31.999Z</time></trkpt><trkpt lat="44.66161292033488" lon="10.919773206717355"><ele>32.5</ele><time>2026-04-18T11:59:32.999Z</time></trkpt><trkpt lat="44.66137446472681" lon="10.919662077249967"><ele>32.0</ele><time>2026-04-18T11:59:33.999Z</time></trkpt><trkpt lat="44.661110424721535" lon="10.919539648772938"><ele>33.0</ele><time>2026-04-18T11:59:34.999Z</time></trkpt><trkpt lat="44.66082395522491" lon="10.919404735314767"><ele>34.0</ele><time>2026-04-18T11:59:35.999Z</time></trkpt><trkpt lat="44.66053086557154" lon="10.919266535549433"><ele>34.0</ele><time>2026-04-18T11:59:36.999Z</time></trkpt><trkpt lat="44.66023688752808" lon="10.91913934975915"><ele>34.0</ele><time>2026-04-18T11:59:37.999Z</time></trkpt><trkpt lat="44.65993542936314" lon="10.919034890898343"><ele>34.0</ele><time>2026-04-18T11:59:38.999Z</time></trkpt><trkpt lat="44.65963090885628" lon="10.918944258786999"><ele>34.0</ele><time>2026-04-18T11:59:39.999Z</time></trkpt><trkpt lat="44.6593355367928" lon="10.918868097356874"><ele>34.0</ele><time>2026-04-18T11:59:40.999Z</time></trkpt><trkpt lat="44.65904707833384" lon="10.91880840020487"><ele>34.0</ele><time>2026-04-18T11:59:41.999Z</time></trkpt><trkpt lat="44.6587644484434" lon="10.918762494959763"><ele>34.0</ele><time>2026-04-18T11:59:42.999Z</time></trkpt><trkpt lat="44.658488166485334" lon="10.918723154685392"><ele>34.0</ele><time>2026-04-18T11:59:43.999Z</time></trkpt><trkpt lat="44.658230704806975" lon="10.918687122293907"><ele>34.0</ele><time>2026-04-18T11:59:44.999Z</time></trkpt><trkpt lat="44.657989823570816" lon="10.918659644086674"><ele>34.0</ele><time>2026-04-18T11:59:45.999Z</time></trkpt><trkpt lat="44.65775284909098" lon="10.918625717755539"><ele>34.5</ele><time>2026-04-18T11:59:46.999Z</time></trkpt><trkpt lat="44.657523034873144" lon="10.918562840818556"><ele>35.0</ele><time>2026-04-18T11:59:47.999Z</time></trkpt><trkpt lat="44.65729757521297" lon="10.918475540823662"><ele>34.5</ele><time>2026-04-18T11:59:48.999Z</time></trkpt><trkpt lat="44.657080206036404" lon="10.918364152460303"><ele>34.0</ele><time>2026-04-18T11:59:49.999Z</time></trkpt><trkpt lat="44.656870660678344" lon="10.918230266753252"><ele>34.0</ele><time>2026-04-18T11:59:50.999Z</time></trkpt><trkpt lat="44.656669908635074" lon="10.918076067670075"><ele>34.0</ele><time>2026-04-18T11:59:51.999Z</time></trkpt><trkpt lat="44.656477501329775" lon="10.917899788865414"><ele>34.0</ele><time>2026-04-18T11:59:52.999Z</time></trkpt><trkpt lat="44.65629397671251" lon="10.917705706764595"><ele>34.0</ele><time>2026-04-18T11:59:53.999Z</time></trkpt><trkpt lat="44.65613060774841" lon="10.917505006875473"><ele>34.0</ele><time>2026-04-18T11:59:54.999Z</time></trkpt><trkpt lat="44.655978119527724" lon="10.917291014046928"><ele>35.66666666666667</ele><time>2026-04-18T11:59:55.999Z</time></trkpt><trkpt lat="44.65584624672509" lon="10.9170427240103"><ele>37.333333333333336</ele><time>2026-04-18T11:59:56.999Z</time></trkpt><trkpt lat="44.65568955723102" lon="10.916818464039835"><ele>39.0</ele><time>2026-04-18T11:59:57.999Z</time></trkpt><trkpt lat="44.65556485283384" lon="10.91657114346934"><ele>38.666666666666664</ele><time>2026-04-18T11:59:58.999Z</time></trkpt><trkpt lat="44.65544128190535" lon="10.916327013601913"><ele>38.33333333333333</ele><time>2026-04-18T11:59:59.999Z</time></trkpt><trkpt lat="44.65531634400133" lon="10.916091514039378"><ele>38.0</ele><time>2026-04-18T12:00:00.999Z</time></trkpt><trkpt lat="44.65518868102381" lon="10.915860474202232"><ele>38.0</ele><time>2026-04-18T12:00:01.999Z</time></trkpt><trkpt lat="44.65506852135967" lon="10.915659085169317"><ele>38.0</ele><time>2026-04-18T12:00:02.999Z</time></trkpt><trkpt lat="44.65497030048954" lon="10.915491012319952"><ele>38.0</ele><time>2026-04-18T12:00:03.999Z</time></trkpt><trkpt lat="44.654880870386435" lon="10.915344394175438"><ele>38.0</ele><time>2026-04-18T12:00:04.999Z</time></trkpt><trkpt lat="44.65481316284341" lon="10.915240251407766"><ele>38.0</ele><time>2026-04-18T12:00:05.999Z</time></trkpt><trkpt lat="44.65475855208632" lon="10.915149930136018"><ele>38.0</ele><time>2026-04-18T12:00:06.999Z</time></trkpt><trkpt lat="44.65471455768042" lon="10.915073892544239"><ele>38.0</ele><time>2026-04-18T12:00:07.999Z</time></trkpt><trkpt lat="44.65464990253302" lon="10.914976542037161"><ele>38.0</ele><time>2026-04-18T12:00:09.999Z</time></trkpt><trkpt lat="44.654594075996016" lon="10.914898378742611"><ele>38.0</ele><time>2026-04-18T12:01:13.999Z</time></trkpt><trkpt lat="44.65452873256533" lon="10.914815987206158"><ele>38.0</ele><time>2026-04-18T12:01:14.999Z</time></trkpt><trkpt lat="44.65443255439803" lon="10.914688226007527"><ele>38.0</ele><time>2026-04-18T12:01:15.999Z</time></trkpt><trkpt lat="44.65450837366876" lon="10.914703165940342"><ele>38.0</ele><time>2026-04-18T12:01:16.999Z</time></trkpt><trkpt lat="44.654427496979785" lon="10.914549401199537"><ele>38.0</ele><time>2026-04-18T12:01:17.999Z</time></trkpt><trkpt lat="44.654253707809744" lon="10.914332408045276"><ele>38.5</ele><time>2026-04-18T12:01:18.999Z</time></trkpt><trkpt lat="44.65402672303267" lon="10.91406658871219"><ele>39.0</ele><time>2026-04-18T12:01:19.999Z</time></trkpt><trkpt lat="44.65378468493881" lon="10.913818559100038"><ele>38.5</ele><time>2026-04-18T12:01:20.999Z</time></trkpt><trkpt lat="44.6535641631753" lon="10.913625027940633"><ele>38.0</ele><time>2026-04-18T12:01:21.999Z</time></trkpt><trkpt lat="44.653396473606044" lon="10.91346624260977"><ele>39.0</ele><time>2026-04-18T12:01:22.999Z</time></trkpt><trkpt lat="44.65319682437684" lon="10.91329636595363"><ele>40.0</ele><time>2026-04-18T12:01:23.999Z</time></trkpt><trkpt lat="44.65298175256383" lon="10.913119615281609"><ele>39.66666666666667</ele><time>2026-04-18T12:01:24.999Z</time></trkpt><trkpt lat="44.652787688470774" lon="10.91297711377405"><ele>39.333333333333336</ele><time>2026-04-18T12:01:25.999Z</time></trkpt><trkpt lat="44.6526190311589" lon="10.912842322419547"><ele>39.0</ele><time>2026-04-18T12:01:26.999Z</time></trkpt><trkpt lat="44.65245423375757" lon="10.91272615320176"><ele>39.0</ele><time>2026-04-18T12:01:27.999Z</time></trkpt><trkpt lat="44.652302401527734" lon="10.91261397709952"><ele>39.0</ele><time>2026-04-18T12:01:28.999Z</time></trkpt><trkpt lat="44.65214051260351" lon="10.912549708426402"><ele>39.0</ele><time>2026-04-18T12:01:29.999Z</time></trkpt><trkpt lat="44.651997720534844" lon="10.912457794776317"><ele>37.0</ele><time>2026-04-18T12:01:30.999Z</time></trkpt><trkpt lat="44.651861484221115" lon="10.9123704537694"><ele>35.0</ele><time>2026-04-18T12:01:31.999Z</time></trkpt><trkpt lat="44.651726150019634" lon="10.912283691109822"><ele>33.0</ele><time>2026-04-18T12:01:32.999Z</time></trkpt><trkpt lat="44.651599791105674" lon="10.912202682544791"><ele>31.0</ele><time>2026-04-18T12:01:33.999Z</time></trkpt><trkpt lat="44.65147280108496" lon="10.912121227299833"><ele>31.0</ele><time>2026-04-18T12:01:34.999Z</time></trkpt><trkpt lat="44.65135370695005" lon="10.91202076763556"><ele>31.0</ele><time>2026-04-18T12:01:35.999Z</time></trkpt><trkpt lat="44.65123330383968" lon="10.9119547777782"><ele>31.0</ele><time>2026-04-18T12:01:36.999Z</time></trkpt><trkpt lat="44.65112202463767" lon="10.911883701820338"><ele>31.0</ele><time>2026-04-18T12:01:37.999Z</time></trkpt><trkpt lat="44.65100367016343" lon="10.911813772251007"><ele>31.25</ele><time>2026-04-18T12:01:38.999Z</time></trkpt><trkpt lat="44.650893628031405" lon="10.911738330947479"><ele>31.5</ele><time>2026-04-18T12:01:39.999Z</time></trkpt><trkpt lat="44.65078832347491" lon="10.911670679205129"><ele>31.75</ele><time>2026-04-18T12:01:40.999Z</time></trkpt><trkpt lat="44.65066501239174" lon="10.911603731483622"><ele>32.0</ele><time>2026-04-18T12:01:41.999Z</time></trkpt><trkpt lat="44.65055675776582" lon="10.911537557916793"><ele>32.0</ele><time>2026-04-18T12:01:42.999Z</time></trkpt><trkpt lat="44.65044037693005" lon="10.911468162040972"><ele>32.0</ele><time>2026-04-18T12:01:43.999Z</time></trkpt><trkpt lat="44.65032784495944" lon="10.911396066428289"><ele>32.0</ele><time>2026-04-18T12:01:44.999Z</time></trkpt><trkpt lat="44.65021371436211" lon="10.91132504790148"><ele>32.0</ele><time>2026-04-18T12:01:45.999Z</time></trkpt><trkpt lat="44.65010518570662" lon="10.911254158358709"><ele>32.75</ele><time>2026-04-18T12:01:46.999Z</time></trkpt><trkpt lat="44.649996880549104" lon="10.91117967687765"><ele>33.5</ele><time>2026-04-18T12:01:47.999Z</time></trkpt><trkpt lat="44.64988655826345" lon="10.911108688853616"><ele>34.25</ele><time>2026-04-18T12:01:48.999Z</time></trkpt><trkpt lat="44.64977966952563" lon="10.911036710234985"><ele>35.0</ele><time>2026-04-18T12:01:49.999Z</time></trkpt><trkpt lat="44.649673049496535" lon="10.910959650678723"><ele>35.0</ele><time>2026-04-18T12:01:50.999Z</time></trkpt><trkpt lat="44.64956527271005" lon="10.910882991586755"><ele>35.0</ele><time>2026-04-18T12:01:51.999Z</time></trkpt><trkpt lat="44.64946072900921" lon="10.910804748231737"><ele>35.0</ele><time>2026-04-18T12:01:52.999Z</time></trkpt><trkpt lat="44.64935333520903" lon="10.910725678766319"><ele>35.0</ele><time>2026-04-18T12:01:53.999Z</time></trkpt><trkpt lat="44.649249785985745" lon="10.910643717186787"><ele>34.5</ele><time>2026-04-18T12:01:54.999Z</time></trkpt><trkpt lat="44.64914538064265" lon="10.910557656261965"><ele>34.0</ele><time>2026-04-18T12:01:55.999Z</time></trkpt><trkpt lat="44.64904289414776" lon="10.910473744542044"><ele>33.5</ele><time>2026-04-18T12:01:56.999Z</time></trkpt><trkpt lat="44.648940920123906" lon="10.910385769284318"><ele>33.0</ele><time>2026-04-18T12:01:57.999Z</time></trkpt><trkpt lat="44.648834769531014" lon="10.910297787167766"><ele>33.0</ele><time>2026-04-18T12:01:58.999Z</time></trkpt><trkpt lat="44.64873455137335" lon="10.910207568407024"><ele>33.0</ele><time>2026-04-18T12:01:59.999Z</time></trkpt><trkpt lat="44.64863307229203" lon="10.910116407708452"><ele>33.0</ele><time>2026-04-18T12:02:00.999Z</time></trkpt><trkpt lat="44.648525025868096" lon="10.910020849141034"><ele>33.0</ele><time>2026-04-18T12:02:01.999Z</time></trkpt><trkpt lat="44.64843111199853" lon="10.909930760409987"><ele>33.5</ele><time>2026-04-18T12:02:02.999Z</time></trkpt><trkpt lat="44.64833212607217" lon="10.909837967325371"><ele>34.0</ele><time>2026-04-18T12:02:03.999Z</time></trkpt><trkpt lat="44.64823490656399" lon="10.909739683677959"><ele>34.5</ele><time>2026-04-18T12:02:04.999Z</time></trkpt><trkpt lat="44.64813596411192" lon="10.909643707901683"><ele>35.0</ele><time>2026-04-18T12:02:05.999Z</time></trkpt><trkpt lat="44.648040537196124" lon="10.909545612095076"><ele>35.0</ele><time>2026-04-18T12:02:06.999Z</time></trkpt><trkpt lat="44.647944939433856" lon="10.909450372217046"><ele>35.0</ele><time>2026-04-18T12:02:07.999Z</time></trkpt><trkpt lat="44.64784759002718" lon="10.909350378919983"><ele>35.0</ele><time>2026-04-18T12:02:08.999Z</time></trkpt><trkpt lat="44.647754734390794" lon="10.909249874944633"><ele>35.0</ele><time>2026-04-18T12:02:09.999Z</time></trkpt><trkpt lat="44.64766322540369" lon="10.909148385509221"><ele>35.0</ele><time>2026-04-18T12:02:10.999Z</time></trkpt><trkpt lat="44.64757108970757" lon="10.90903893994696"><ele>35.0</ele><time>2026-04-18T12:02:11.999Z</time></trkpt><trkpt lat="44.64747994202327" lon="10.908932722242065"><ele>35.0</ele><time>2026-04-18T12:02:12.999Z</time></trkpt><trkpt lat="44.647388424505635" lon="10.908826638760699"><ele>35.0</ele><time>2026-04-18T12:02:13.999Z</time></trkpt><trkpt lat="44.64729978075712" lon="10.908713352105739"><ele>35.0</ele><time>2026-04-18T12:02:14.999Z</time></trkpt><trkpt lat="44.647208260369226" lon="10.908607976371748"><ele>35.0</ele><time>2026-04-18T12:02:15.999Z</time></trkpt><trkpt lat="44.64711965363585" lon="10.908495657710995"><ele>35.0</ele><time>2026-04-18T12:02:16.999Z</time></trkpt><trkpt lat="44.64702947896556" lon="10.908386762935319"><ele>35.0</ele><time>2026-04-18T12:02:17.999Z</time></trkpt><trkpt lat="44.64693887929169" lon="10.908278536497592"><ele>34.25</ele><time>2026-04-18T12:02:18.999Z</time></trkpt><trkpt lat="44.64684279729521" lon="10.908163382416669"><ele>33.5</ele><time>2026-04-18T12:02:19.999Z</time></trkpt><trkpt lat="44.646754460288555" lon="10.908060648350276"><ele>32.75</ele><time>2026-04-18T12:02:20.999Z</time></trkpt><trkpt lat="44.646665825405606" lon="10.907951054752743"><ele>32.0</ele><time>2026-04-18T12:02:21.999Z</time></trkpt><trkpt lat="44.646578584127376" lon="10.90783973676774"><ele>32.0</ele><time>2026-04-18T12:02:22.999Z</time></trkpt><trkpt lat="44.64648814832132" lon="10.907732036273233"><ele>32.0</ele><time>2026-04-18T12:02:23.999Z</time></trkpt><trkpt lat="44.646398122487795" lon="10.907619721181852"><ele>32.0</ele><time>2026-04-18T12:02:24.999Z</time></trkpt><trkpt lat="44.64631012981208" lon="10.907511402845634"><ele>32.0</ele><time>2026-04-18T12:02:25.999Z</time></trkpt><trkpt lat="44.646219416342554" lon="10.90739836689568"><ele>32.25</ele><time>2026-04-18T12:02:26.999Z</time></trkpt><trkpt lat="44.646129746446356" lon="10.907289655924519"><ele>32.5</ele><time>2026-04-18T12:02:27.999Z</time></trkpt><trkpt lat="44.64603693123898" lon="10.90718242624955"><ele>32.75</ele><time>2026-04-18T12:02:28.999Z</time></trkpt><trkpt lat="44.64594638161052" lon="10.907072440042722"><ele>33.0</ele><time>2026-04-18T12:02:29.999Z</time></trkpt><trkpt lat="44.64585525409821" lon="10.906964482522838"><ele>33.199999999999996</ele><time>2026-04-18T12:02:30.999Z</time></trkpt><trkpt lat="44.6457615575959" lon="10.906859129470627"><ele>33.4</ele><time>2026-04-18T12:02:31.999Z</time></trkpt><trkpt lat="44.645683033940436" lon="10.906757966890662"><ele>33.599999999999994</ele><time>2026-04-18T12:02:32.999Z</time></trkpt><trkpt lat="44.64561103660725" lon="10.906670067356611"><ele>33.8</ele><time>2026-04-18T12:02:33.999Z</time></trkpt><trkpt lat="44.645548690676854" lon="10.906588986072075"><ele>34.0</ele><time>2026-04-18T12:02:34.999Z</time></trkpt><trkpt lat="44.64548974542779" lon="10.906523871785776"><ele>33.99999999999999</ele><time>2026-04-18T12:02:35.999Z</time></trkpt><trkpt lat="44.64543450485967" lon="10.906446756717244"><ele>34.0</ele><time>2026-04-18T12:02:36.999Z</time></trkpt><trkpt lat="44.64538693207096" lon="10.90638831082051"><ele>34.0</ele><time>2026-04-18T12:02:37.999Z</time></trkpt><trkpt lat="44.64533710788817" lon="10.906327735875053"><ele>34.0</ele><time>2026-04-18T12:02:38.999Z</time></trkpt><trkpt lat="44.64528600930105" lon="10.906267307634455"><ele>34.0</ele><time>2026-04-18T12:02:39.999Z</time></trkpt><trkpt lat="44.645229429851234" lon="10.906193625901182"><ele>33.99999999999999</ele><time>2026-04-18T12:02:40.999Z</time></trkpt><trkpt lat="44.64515694089124" lon="10.906105914822108"><ele>34.0</ele><time>2026-04-18T12:02:41.999Z</time></trkpt><trkpt lat="44.64508074142146" lon="10.906015242903011"><ele>34.0</ele><time>2026-04-18T12:02:42.999Z</time></trkpt><trkpt lat="44.64499865471586" lon="10.905920627206353"><ele>34.0</ele><time>2026-04-18T12:02:43.999Z</time></trkpt><trkpt lat="44.644911375598234" lon="10.905818258219506"><ele>34.0</ele><time>2026-04-18T12:02:44.999Z</time></trkpt><trkpt lat="44.64481710017721" lon="10.905710873250008"><ele>34.0</ele><time>2026-04-18T12:02:45.999Z</time></trkpt><trkpt lat="44.64471986493632" lon="10.905595932320404"><ele>34.0</ele><time>2026-04-18T12:02:46.999Z</time></trkpt><trkpt lat="44.6446148727358" lon="10.905481054104095"><ele>34.0</ele><time>2026-04-18T12:02:47.999Z</time></trkpt><trkpt lat="44.64449802085116" lon="10.905350964592493"><ele>34.0</ele><time>2026-04-18T12:02:48.999Z</time></trkpt><trkpt lat="44.644388677032005" lon="10.90520827242317"><ele>34.0</ele><time>2026-04-18T12:02:49.999Z</time></trkpt><trkpt lat="44.64427066684523" lon="10.905078963713127"><ele>35.0</ele><time>2026-04-18T12:02:50.999Z</time></trkpt><trkpt lat="44.64415768160917" lon="10.904944543631148"><ele>36.0</ele><time>2026-04-18T12:02:51.999Z</time></trkpt><trkpt lat="44.644037662164074" lon="10.904805121005268"><ele>37.0</ele><time>2026-04-18T12:02:52.999Z</time></trkpt><trkpt lat="44.64390344000423" lon="10.904654463126816"><ele>37.0</ele><time>2026-04-18T12:02:53.999Z</time></trkpt><trkpt lat="44.643780671396094" lon="10.904477205904314"><ele>37.0</ele><time>2026-04-18T12:02:54.999Z</time></trkpt><trkpt lat="44.643651593143886" lon="10.90432245146863"><ele>37.0</ele><time>2026-04-18T12:02:55.999Z</time></trkpt><trkpt lat="44.64352641528136" lon="10.904172373275111"><ele>36.333333333333336</ele><time>2026-04-18T12:02:56.999Z</time></trkpt><trkpt lat="44.64340670652421" lon="10.904028947367555"><ele>35.666666666666664</ele><time>2026-04-18T12:02:57.999Z</time></trkpt><trkpt lat="44.643283589278795" lon="10.903881589825723"><ele>35.0</ele><time>2026-04-18T12:02:58.999Z</time></trkpt><trkpt lat="44.64315697514631" lon="10.903730046855404"><ele>35.0</ele><time>2026-04-18T12:02:59.999Z</time></trkpt><trkpt lat="44.64302313491048" lon="10.903595224645878"><ele>35.0</ele><time>2026-04-18T12:03:00.999Z</time></trkpt><trkpt lat="44.6428974133583" lon="10.903442040076955"><ele>35.0</ele><time>2026-04-18T12:03:01.999Z</time></trkpt><trkpt lat="44.64276347649437" lon="10.903290233139254"><ele>35.33333333333333</ele><time>2026-04-18T12:03:02.999Z</time></trkpt><trkpt lat="44.64263852828584" lon="10.903144822784977"><ele>35.666666666666664</ele><time>2026-04-18T12:03:03.999Z</time></trkpt><trkpt lat="44.6425158046849" lon="10.903008704279312"><ele>36.0</ele><time>2026-04-18T12:03:04.999Z</time></trkpt><trkpt lat="44.642391140079575" lon="10.902873806293945"><ele>36.0</ele><time>2026-04-18T12:03:05.999Z</time></trkpt><trkpt lat="44.64227149616069" lon="10.902748358978775"><ele>36.0</ele><time>2026-04-18T12:03:06.999Z</time></trkpt><trkpt lat="44.642165434201736" lon="10.902638961223078"><ele>36.0</ele><time>2026-04-18T12:03:07.999Z</time></trkpt><trkpt lat="44.64207373644966" lon="10.902544860799987"><ele>36.0</ele><time>2026-04-18T12:03:08.999Z</time></trkpt><trkpt lat="44.641990044705125" lon="10.902465940299063"><ele>36.0</ele><time>2026-04-18T12:03:09.999Z</time></trkpt><trkpt lat="44.64191859284438" lon="10.902398739558704"><ele>36.0</ele><time>2026-04-18T12:03:10.999Z</time></trkpt><trkpt lat="44.64185446434928" lon="10.90234626274656"><ele>36.0</ele><time>2026-04-18T12:03:11.999Z</time></trkpt><trkpt lat="44.64179623009427" lon="10.902308028539268"><ele>36.0</ele><time>2026-04-18T12:03:12.999Z</time></trkpt><trkpt lat="44.64171448365246" lon="10.902227302569967"><ele>36.0</ele><time>2026-04-18T12:03:14.999Z</time></trkpt><trkpt lat="44.64161881918766" lon="10.902183994756205"><ele>36.0</ele><time>2026-04-18T12:03:29.999Z</time></trkpt><trkpt lat="44.641557414345314" lon="10.902122839758578"><ele>36.0</ele><time>2026-04-18T12:03:30.999Z</time></trkpt><trkpt lat="44.64145640865249" lon="10.901983370940155"><ele>36.0</ele><time>2026-04-18T12:03:31.999Z</time></trkpt><trkpt lat="44.641297166034384" lon="10.901862280634917"><ele>36.0</ele><time>2026-04-18T12:03:32.999Z</time></trkpt><trkpt lat="44.64113718995213" lon="10.901662279935879"><ele>35.5</ele><time>2026-04-18T12:03:34.999Z</time></trkpt><trkpt lat="44.64086218123426" lon="10.901389011322284"><ele>35.0</ele><time>2026-04-18T12:03:35.999Z</time></trkpt><trkpt lat="44.64059325551953" lon="10.901171303064192"><ele>35.0</ele><time>2026-04-18T12:03:36.999Z</time></trkpt><trkpt lat="44.64034186832509" lon="10.900989683066141"><ele>35.0</ele><time>2026-04-18T12:03:37.999Z</time></trkpt><trkpt lat="44.64005771722915" lon="10.900824802016118"><ele>35.0</ele><time>2026-04-18T12:03:38.999Z</time></trkpt><trkpt lat="44.63973875703482" lon="10.900689624134161"><ele>35.0</ele><time>2026-04-18T12:03:39.999Z</time></trkpt><trkpt lat="44.639427166346195" lon="10.900503027437484"><ele>35.0</ele><time>2026-04-18T12:03:40.999Z</time></trkpt><trkpt lat="44.63912449316755" lon="10.900349508357012"><ele>35.0</ele><time>2026-04-18T12:03:41.999Z</time></trkpt><trkpt lat="44.63887937225011" lon="10.900227927014742"><ele>36.5</ele><time>2026-04-18T12:03:42.999Z</time></trkpt><trkpt lat="44.63862526038299" lon="10.900085296470504"><ele>38.0</ele><time>2026-04-18T12:03:43.999Z</time></trkpt><trkpt lat="44.63841322170223" lon="10.899979936684565"><ele>38.5</ele><time>2026-04-18T12:03:44.999Z</time></trkpt><trkpt lat="44.638276196405315" lon="10.899913978426682"><ele>39.0</ele><time>2026-04-18T12:03:45.999Z</time></trkpt><trkpt lat="44.63814552696972" lon="10.899874847320866"><ele>39.5</ele><time>2026-04-18T12:03:46.999Z</time></trkpt><trkpt lat="44.638027062762305" lon="10.899830407506812"><ele>40.0</ele><time>2026-04-18T12:03:47.999Z</time></trkpt><trkpt lat="44.63796278888862" lon="10.899805756235597"><ele>40.0</ele><time>2026-04-18T12:03:48.999Z</time></trkpt><trkpt lat="44.63820872197306" lon="10.899923309096886"><ele>40.0</ele><time>2026-04-18T12:03:57.999Z</time></trkpt><trkpt lat="44.6378404662626" lon="10.899748975299255"><ele>40.0</ele><time>2026-04-18T12:04:15.999Z</time></trkpt><trkpt lat="44.6376109101029" lon="10.899616037324128"><ele>40.0</ele><time>2026-04-18T12:04:16.999Z</time></trkpt><trkpt lat="44.637349900857906" lon="10.89944810771384"><ele>40.0</ele><time>2026-04-18T12:04:17.999Z</time></trkpt><trkpt lat="44.6370995346822" lon="10.899276002699605"><ele>40.0</ele><time>2026-04-18T12:04:18.999Z</time></trkpt><trkpt lat="44.63687214543284" lon="10.899099950599389"><ele>40.5</ele><time>2026-04-18T12:04:19.999Z</time></trkpt><trkpt lat="44.63665146908664" lon="10.898952527128037"><ele>41.0</ele><time>2026-04-18T12:04:20.999Z</time></trkpt><trkpt lat="44.63644729366289" lon="10.898808525262732"><ele>41.0</ele><time>2026-04-18T12:04:21.999Z</time></trkpt><trkpt lat="44.63626715778917" lon="10.898663244550923"><ele>41.0</ele><time>2026-04-18T12:04:22.999Z</time></trkpt><trkpt lat="44.63609880063955" lon="10.89852672251782"><ele>41.0</ele><time>2026-04-18T12:04:23.999Z</time></trkpt><trkpt lat="44.63591303954909" lon="10.898393730235808"><ele>40.5</ele><time>2026-04-18T12:04:24.999Z</time></trkpt><trkpt lat="44.635766315266046" lon="10.898287606673758"><ele>40.0</ele><time>2026-04-18T12:04:25.999Z</time></trkpt><trkpt lat="44.63562634648118" lon="10.898206221287195"><ele>39.5</ele><time>2026-04-18T12:04:26.999Z</time></trkpt><trkpt lat="44.63554928184159" lon="10.898135114750607"><ele>39.0</ele><time>2026-04-18T12:04:27.999Z</time></trkpt><trkpt lat="44.6354528319054" lon="10.898058423924116"><ele>39.0</ele><time>2026-04-18T12:04:28.999Z</time></trkpt><trkpt lat="44.635351727378364" lon="10.898000757497863"><ele>39.0</ele><time>2026-04-18T12:04:29.999Z</time></trkpt><trkpt lat="44.63528789078073" lon="10.897950763391572"><ele>39.0</ele><time>2026-04-18T12:04:30.999Z</time></trkpt><trkpt lat="44.63544771648062" lon="10.897652529380116"><ele>39.0</ele><time>2026-04-18T12:04:31.999Z</time></trkpt><trkpt lat="44.635433726487776" lon="10.897467552774577"><ele>39.25</ele><time>2026-04-18T12:04:32.999Z</time></trkpt><trkpt lat="44.63548069143779" lon="10.897345315102683"><ele>39.5</ele><time>2026-04-18T12:04:33.999Z</time></trkpt><trkpt lat="44.63553700625721" lon="10.897118979894978"><ele>39.75</ele><time>2026-04-18T12:04:34.999Z</time></trkpt><trkpt lat="44.63559013705573" lon="10.896929270120651"><ele>40.0</ele><time>2026-04-18T12:04:35.999Z</time></trkpt><trkpt lat="44.63578258455994" lon="10.896340345336778"><ele>41.0</ele><time>2026-04-18T12:04:36.999Z</time></trkpt><trkpt lat="44.635900322591645" lon="10.896016976066187"><ele>42.0</ele><time>2026-04-18T12:04:37.999Z</time></trkpt><trkpt lat="44.636012624855645" lon="10.895709072912657"><ele>42.0</ele><time>2026-04-18T12:04:38.999Z</time></trkpt><trkpt lat="44.636108927659116" lon="10.895445843208094"><ele>42.0</ele><time>2026-04-18T12:04:39.999Z</time></trkpt><trkpt lat="44.63620658083309" lon="10.895178921823195"><ele>42.0</ele><time>2026-04-18T12:04:40.999Z</time></trkpt><trkpt lat="44.63628749246411" lon="10.894958731232895"><ele>41.75</ele><time>2026-04-18T12:04:41.999Z</time></trkpt><trkpt lat="44.63636181309561" lon="10.894758971226455"><ele>41.5</ele><time>2026-04-18T12:04:42.999Z</time></trkpt><trkpt lat="44.63642266042773" lon="10.894579706216987"><ele>41.25</ele><time>2026-04-18T12:04:43.999Z</time></trkpt><trkpt lat="44.63645563104734" lon="10.894454199306114"><ele>41.0</ele><time>2026-04-18T12:04:44.999Z</time></trkpt><trkpt lat="44.636473991492046" lon="10.894300758840787"><ele>41.0</ele><time>2026-04-18T12:04:45.999Z</time></trkpt><trkpt lat="44.63650105196295" lon="10.894220085209495"><ele>41.0</ele><time>2026-04-18T12:04:46.999Z</time></trkpt><trkpt lat="44.636513712319505" lon="10.894091138714867"><ele>41.0</ele><time>2026-04-18T12:04:48.999Z</time></trkpt><trkpt lat="44.63658705371703" lon="10.89394990174492"><ele>41.0</ele><time>2026-04-18T12:04:50.999Z</time></trkpt><trkpt lat="44.63664959583488" lon="10.893891201602695"><ele>41.0</ele><time>2026-04-18T12:04:51.999Z</time></trkpt><trkpt lat="44.636697297184774" lon="10.893801845688856"><ele>41.0</ele><time>2026-04-18T12:04:52.999Z</time></trkpt><trkpt lat="44.63670667699721" lon="10.893700291190171"><ele>41.0</ele><time>2026-04-18T12:04:53.999Z</time></trkpt><trkpt lat="44.63671266491747" lon="10.893603144097316"><ele>41.0</ele><time>2026-04-18T12:04:54.999Z</time></trkpt><trkpt lat="44.636678447283586" lon="10.89350356562657"><ele>41.0</ele><time>2026-04-18T12:04:55.999Z</time></trkpt><trkpt lat="44.63662294730016" lon="10.893423670506198"><ele>41.0</ele><time>2026-04-18T12:04:56.999Z</time></trkpt><trkpt lat="44.63650459544252" lon="10.893412598466211"><ele>41.0</ele><time>2026-04-18T12:04:57.999Z</time></trkpt><trkpt lat="44.63635095400818" lon="10.8934638330008"><ele>41.0</ele><time>2026-04-18T12:04:58.999Z</time></trkpt><trkpt lat="44.63626819385886" lon="10.89357819728982"><ele>41.0</ele><time>2026-04-18T12:04:59.999Z</time></trkpt><trkpt lat="44.63613095544568" lon="10.893577382557165"><ele>41.0</ele><time>2026-04-18T12:05:00.999Z</time></trkpt><trkpt lat="44.6359890482457" lon="10.893579131569535"><ele>41.0</ele><time>2026-04-18T12:05:01.999Z</time></trkpt><trkpt lat="44.63583106498778" lon="10.893562709433517"><ele>42.0</ele><time>2026-04-18T12:05:02.999Z</time></trkpt><trkpt lat="44.63563596488269" lon="10.893550666264307"><ele>43.0</ele><time>2026-04-18T12:05:03.999Z</time></trkpt><trkpt lat="44.6354106908971" lon="10.893538170578863"><ele>44.0</ele><time>2026-04-18T12:05:04.999Z</time></trkpt><trkpt lat="44.635229493871826" lon="10.893510411248315"><ele>44.33333333333333</ele><time>2026-04-18T12:05:05.999Z</time></trkpt><trkpt lat="44.635084440227025" lon="10.893439726594758"><ele>44.666666666666664</ele><time>2026-04-18T12:05:06.999Z</time></trkpt><trkpt lat="44.634941766890734" lon="10.89332738790164"><ele>45.0</ele><time>2026-04-18T12:05:07.999Z</time></trkpt><trkpt lat="44.63477470686863" lon="10.893214754381303"><ele>44.333333333333336</ele><time>2026-04-18T12:05:08.999Z</time></trkpt><trkpt lat="44.63459352419786" lon="10.8930863344153"><ele>43.66666666666667</ele><time>2026-04-18T12:05:09.999Z</time></trkpt><trkpt lat="44.63440605465311" lon="10.892953190801277"><ele>43.0</ele><time>2026-04-18T12:05:10.999Z</time></trkpt><trkpt lat="44.6342374067576" lon="10.892833828669838"><ele>42.66666666666667</ele><time>2026-04-18T12:05:11.999Z</time></trkpt><trkpt lat="44.63407286525261" lon="10.892735021005063"><ele>42.333333333333336</ele><time>2026-04-18T12:05:12.999Z</time></trkpt><trkpt lat="44.63391358769337" lon="10.892616555119165"><ele>42.0</ele><time>2026-04-18T12:05:13.999Z</time></trkpt><trkpt lat="44.63374234627561" lon="10.892500573055834"><ele>42.0</ele><time>2026-04-18T12:05:14.999Z</time></trkpt><trkpt lat="44.63355984089419" lon="10.89238118677912"><ele>42.0</ele><time>2026-04-18T12:05:15.999Z</time></trkpt><trkpt lat="44.633365161407205" lon="10.892256334094714"><ele>42.0</ele><time>2026-04-18T12:05:16.999Z</time></trkpt><trkpt lat="44.63315723947135" lon="10.89212358154269"><ele>42.0</ele><time>2026-04-18T12:05:17.999Z</time></trkpt><trkpt lat="44.632947337866526" lon="10.891980560891437"><ele>42.0</ele><time>2026-04-18T12:05:18.999Z</time></trkpt><trkpt lat="44.632782012695145" lon="10.89181805447835"><ele>42.0</ele><time>2026-04-18T12:05:19.999Z</time></trkpt><trkpt lat="44.63263359943337" lon="10.891684132437229"><ele>41.75</ele><time>2026-04-18T12:05:20.999Z</time></trkpt><trkpt lat="44.632505177170124" lon="10.891592593005903"><ele>41.5</ele><time>2026-04-18T12:05:21.999Z</time></trkpt><trkpt lat="44.63239640692696" lon="10.891515211618845"><ele>41.25</ele><time>2026-04-18T12:05:22.999Z</time></trkpt><trkpt lat="44.632261641299756" lon="10.89141803102707"><ele>41.0</ele><time>2026-04-18T12:05:23.999Z</time></trkpt><trkpt lat="44.632102891000216" lon="10.891325332418786"><ele>41.666666666666664</ele><time>2026-04-18T12:05:24.999Z</time></trkpt><trkpt lat="44.63194198324444" lon="10.891246659699318"><ele>42.333333333333336</ele><time>2026-04-18T12:05:25.999Z</time></trkpt><trkpt lat="44.63176673417467" lon="10.891153979697869"><ele>43.0</ele><time>2026-04-18T12:05:26.999Z</time></trkpt><trkpt lat="44.631582106985064" lon="10.891014703283263"><ele>42.5</ele><time>2026-04-18T12:05:27.999Z</time></trkpt><trkpt lat="44.63140171771904" lon="10.890886030332863"><ele>42.0</ele><time>2026-04-18T12:05:28.999Z</time></trkpt><trkpt lat="44.63115410316141" lon="10.890689768770782"><ele>43.5</ele><time>2026-04-18T12:05:29.999Z</time></trkpt><trkpt lat="44.63095060723247" lon="10.890503509286773"><ele>45.0</ele><time>2026-04-18T12:05:30.999Z</time></trkpt><trkpt lat="44.63076936577147" lon="10.89029533641937"><ele>45.0</ele><time>2026-04-18T12:05:31.999Z</time></trkpt><trkpt lat="44.630600054692266" lon="10.890097661609516"><ele>45.0</ele><time>2026-04-18T12:05:32.999Z</time></trkpt><trkpt lat="44.630440171482846" lon="10.889933170925245"><ele>45.0</ele><time>2026-04-18T12:05:33.999Z</time></trkpt><trkpt lat="44.63030016050126" lon="10.889785725531176"><ele>45.0</ele><time>2026-04-18T12:05:34.999Z</time></trkpt><trkpt lat="44.63017082224171" lon="10.889642784077452"><ele>45.0</ele><time>2026-04-18T12:05:35.999Z</time></trkpt><trkpt lat="44.630059457001686" lon="10.889519706303206"><ele>45.0</ele><time>2026-04-18T12:05:36.999Z</time></trkpt><trkpt lat="44.629962107329774" lon="10.889422415362375"><ele>45.0</ele><time>2026-04-18T12:05:37.999Z</time></trkpt><trkpt lat="44.62986971785371" lon="10.889351821123222"><ele>45.0</ele><time>2026-04-18T12:05:38.999Z</time></trkpt><trkpt lat="44.629802860155905" lon="10.889346140248472"><ele>45.0</ele><time>2026-04-18T12:05:39.999Z</time></trkpt><trkpt lat="44.62976235696528" lon="10.889179020910168"><ele>45.0</ele><time>2026-04-18T12:05:40.999Z</time></trkpt><trkpt lat="44.629665626797646" lon="10.88909398491539"><ele>45.0</ele><time>2026-04-18T12:05:41.999Z</time></trkpt><trkpt lat="44.629510679263454" lon="10.889019853360198"><ele>44.0</ele><time>2026-04-18T12:05:42.999Z</time></trkpt><trkpt lat="44.629335537998145" lon="10.888910015707221"><ele>43.0</ele><time>2026-04-18T12:05:43.999Z</time></trkpt><trkpt lat="44.62913517548723" lon="10.888781970618322"><ele>42.0</ele><time>2026-04-18T12:05:44.999Z</time></trkpt><trkpt lat="44.6289179241976" lon="10.88864827870485"><ele>42.0</ele><time>2026-04-18T12:05:45.999Z</time></trkpt><trkpt lat="44.628695571642155" lon="10.888537018930109"><ele>42.0</ele><time>2026-04-18T12:05:46.999Z</time></trkpt><trkpt lat="44.62845933769886" lon="10.88837749284873"><ele>42.0</ele><time>2026-04-18T12:05:47.999Z</time></trkpt><trkpt lat="44.628225721866784" lon="10.888238641957598"><ele>42.0</ele><time>2026-04-18T12:05:48.999Z</time></trkpt><trkpt lat="44.62799633774347" lon="10.88810077201418"><ele>42.0</ele><time>2026-04-18T12:05:49.999Z</time></trkpt><trkpt lat="44.62776221986392" lon="10.887968236582738"><ele>42.0</ele><time>2026-04-18T12:05:50.999Z</time></trkpt><trkpt lat="44.62753864035658" lon="10.887832882850894"><ele>42.0</ele><time>2026-04-18T12:05:51.999Z</time></trkpt><trkpt lat="44.62730927604268" lon="10.887697275940676"><ele>42.0</ele><time>2026-04-18T12:05:52.999Z</time></trkpt><trkpt lat="44.6270835387575" lon="10.887569946847325"><ele>41.5</ele><time>2026-04-18T12:05:53.999Z</time></trkpt><trkpt lat="44.62685724105196" lon="10.887450988646316"><ele>41.0</ele><time>2026-04-18T12:05:54.999Z</time></trkpt><trkpt lat="44.626629088502234" lon="10.887338149291534"><ele>41.0</ele><time>2026-04-18T12:05:55.999Z</time></trkpt><trkpt lat="44.62641526355743" lon="10.887224808433047"><ele>41.0</ele><time>2026-04-18T12:05:56.999Z</time></trkpt><trkpt lat="44.626201027097025" lon="10.887119804911164"><ele>41.666666666666664</ele><time>2026-04-18T12:05:57.999Z</time></trkpt><trkpt lat="44.6260128491893" lon="10.887021414437369"><ele>42.333333333333336</ele><time>2026-04-18T12:05:58.999Z</time></trkpt><trkpt lat="44.62583712946198" lon="10.88692930114748"><ele>43.0</ele><time>2026-04-18T12:05:59.999Z</time></trkpt><trkpt lat="44.62567884632096" lon="10.886839766043327"><ele>43.75</ele><time>2026-04-18T12:06:00.999Z</time></trkpt><trkpt lat="44.62553685133568" lon="10.886757933877304"><ele>44.5</ele><time>2026-04-18T12:06:01.999Z</time></trkpt><trkpt lat="44.62541292808691" lon="10.886692919556383"><ele>45.25</ele><time>2026-04-18T12:06:02.999Z</time></trkpt><trkpt lat="44.62531918357118" lon="10.886634545768482"><ele>46.0</ele><time>2026-04-18T12:06:03.999Z</time></trkpt><trkpt lat="44.62525335077139" lon="10.886609000011148"><ele>46.0</ele><time>2026-04-18T12:06:04.999Z</time></trkpt><trkpt lat="44.62517388768132" lon="10.886643966426801"><ele>46.0</ele><time>2026-04-18T12:06:06.999Z</time></trkpt><trkpt lat="44.62515962144661" lon="10.886771719059837"><ele>46.0</ele><time>2026-04-18T12:06:08.999Z</time></trkpt><trkpt lat="44.62515523296846" lon="10.886874399161446"><ele>46.0</ele><time>2026-04-18T12:06:09.999Z</time></trkpt><trkpt lat="44.625137891419925" lon="10.887062365860693"><ele>46.0</ele><time>2026-04-18T12:06:10.999Z</time></trkpt><trkpt lat="44.62511935731012" lon="10.887270354581837"><ele>46.0</ele><time>2026-04-18T12:06:11.999Z</time></trkpt><trkpt lat="44.625090935042095" lon="10.887522119074713"><ele>46.0</ele><time>2026-04-18T12:06:12.999Z</time></trkpt><trkpt lat="44.62506005248496" lon="10.887758610900724"><ele>46.0</ele><time>2026-04-18T12:06:13.999Z</time></trkpt><trkpt lat="44.62503298539851" lon="10.888061171116158"><ele>46.0</ele><time>2026-04-18T12:06:14.999Z</time></trkpt><trkpt lat="44.62501847210948" lon="10.88829059704547"><ele>46.0</ele><time>2026-04-18T12:06:15.999Z</time></trkpt><trkpt lat="44.624996646280316" lon="10.888504016647268"><ele>46.0</ele><time>2026-04-18T12:06:16.999Z</time></trkpt><trkpt lat="44.62498207685905" lon="10.888711393418905"><ele>45.8</ele><time>2026-04-18T12:06:18Z</time></trkpt><trkpt lat="44.62495976911101" lon="10.888907749989329"><ele>45.599999999999994</ele><time>2026-04-18T12:06:19Z</time></trkpt><trkpt lat="44.62494433679509" lon="10.88904632791719"><ele>45.4</ele><time>2026-04-18T12:06:20Z</time></trkpt><trkpt lat="44.624955648589925" lon="10.889134323617506"><ele>45.2</ele><time>2026-04-18T12:06:21Z</time></trkpt><trkpt lat="44.62493988932366" lon="10.889240097723112"><ele>45.0</ele><time>2026-04-18T12:06:26Z</time></trkpt><trkpt lat="44.625003267730406" lon="10.88930005758423"><ele>44.666666666666664</ele><time>2026-04-18T12:06:28Z</time></trkpt><trkpt lat="44.625070564607995" lon="10.889302757384188"><ele>44.333333333333336</ele><time>2026-04-18T12:06:32Z</time></trkpt><trkpt lat="44.625083651462276" lon="10.889424392181063"><ele>44.0</ele><time>2026-04-18T12:06:34Z</time></trkpt><trkpt lat="44.62505457156754" lon="10.889525624477674"><ele>43.66666666666667</ele><time>2026-04-18T12:06:42Z</time></trkpt><trkpt lat="44.62502190520339" lon="10.889650472701451"><ele>43.333333333333336</ele><time>2026-04-18T12:06:44Z</time></trkpt><trkpt lat="44.62501255747669" lon="10.889752149913337"><ele>43.0</ele><time>2026-04-18T12:06:46Z</time></trkpt><trkpt lat="44.625104545375464" lon="10.889792175753358"><ele>43.0</ele><time>2026-04-18T12:06:47.999Z</time></trkpt><trkpt lat="44.625130410084296" lon="10.889682938538332"><ele>43.0</ele><time>2026-04-18T12:06:48.999Z</time></trkpt><trkpt lat="44.62517924091391" lon="10.889544858814507"><ele>43.0</ele><time>2026-04-18T12:06:50.999Z</time></trkpt><trkpt lat="44.62518551702474" lon="10.88944472212677"><ele>43.0</ele><time>2026-04-18T12:06:52.999Z</time></trkpt><trkpt lat="44.625233686651605" lon="10.889360860536858"><ele>43.0</ele><time>2026-04-18T12:06:56.999Z</time></trkpt><trkpt lat="44.625292523609296" lon="10.889397952772253"><ele>43.0</ele><time>2026-04-18T12:09:27Z</time></trkpt><trkpt lat="44.62536260083636" lon="10.88940818109005"><ele>43.0</ele><time>2026-04-18T12:09:32.999Z</time></trkpt><trkpt lat="44.62542909420769" lon="10.889443199174048"><ele>43.0</ele><time>2026-04-18T12:09:38.999Z</time></trkpt><trkpt lat="44.62549909354915" lon="10.889456173927362"><ele>43.0</ele><time>2026-04-18T12:09:43.999Z</time></trkpt><trkpt lat="44.62557442362336" lon="10.889466140659291"><ele>43.0</ele><time>2026-04-18T12:09:48.999Z</time></trkpt><trkpt lat="44.625636926838204" lon="10.889504575501816"><ele>43.0</ele><time>2026-04-18T12:09:55.999Z</time></trkpt><trkpt lat="44.625582111133404" lon="10.889632412506858"><ele>43.0</ele><time>2026-04-18T12:10:48.234Z</time></trkpt><trkpt lat="44.62520731471313" lon="10.889591405645852"><ele>43.0</ele><time>2026-04-18T12:10:52.999Z</time></trkpt><trkpt lat="44.62530924603355" lon="10.889605688271006"><ele>43.0</ele><time>2026-04-18T12:10:53.999Z</time></trkpt><trkpt lat="44.62541374039857" lon="10.889678024752115"><ele>43.0</ele><time>2026-04-18T12:10:54.999Z</time></trkpt><trkpt lat="44.625507435531546" lon="10.889923256320424"><ele>43.0</ele><time>2026-04-18T12:11:05.999Z</time></trkpt><trkpt lat="44.625550411160965" lon="10.889988003613459"><ele>43.0</ele><time>2026-04-18T12:11:07.999Z</time></trkpt><trkpt lat="44.625623884760834" lon="10.890087010320753"><ele>43.0</ele><time>2026-04-18T12:11:09.999Z</time></trkpt><trkpt lat="44.62582406905806" lon="10.89032305114139"><ele>43.0</ele><time>2026-04-18T12:11:11.999Z</time></trkpt><trkpt lat="44.62574541543509" lon="10.89023890795577"><ele>43.0</ele><time>2026-04-18T12:11:15.999Z</time></trkpt><trkpt lat="44.6256896238283" lon="10.890166768685697"><ele>43.0</ele><time>2026-04-18T12:11:21.999Z</time></trkpt><trkpt lat="44.625611869320956" lon="10.890014888501565"><ele>43.0</ele><time>2026-04-18T12:17:31Z</time></trkpt><trkpt lat="44.6255192903249" lon="10.8899451624408"><ele>43.0</ele><time>2026-04-18T12:17:36Z</time></trkpt><trkpt lat="44.625513145869725" lon="10.889854412632088"><ele>43.0</ele><time>2026-04-18T12:17:42Z</time></trkpt><trkpt lat="44.62547258835394" lon="10.889776263668361"><ele>43.0</ele><time>2026-04-18T12:17:44Z</time></trkpt><trkpt lat="44.62538430635033" lon="10.88979533719203"><ele>43.0</ele><time>2026-04-18T12:17:49Z</time></trkpt><trkpt lat="44.625321550351806" lon="10.889771755357462"><ele>43.0</ele><time>2026-04-18T12:17:54Z</time></trkpt><trkpt lat="44.62552470749452" lon="10.889795830565204"><ele>43.0</ele><time>2026-04-18T12:18:07Z</time></trkpt><trkpt lat="44.625587351813174" lon="10.889864463385836"><ele>43.0</ele><time>2026-04-18T12:18:08Z</time></trkpt><trkpt lat="44.62568983013432" lon="10.889830797803759"><ele>43.0</ele><time>2026-04-18T12:18:12Z</time></trkpt><trkpt lat="44.62571406488195" lon="10.889748932023098"><ele>43.0</ele><time>2026-04-18T12:18:13Z</time></trkpt><trkpt lat="44.62585356742706" lon="10.889741851328926"><ele>43.0</ele><time>2026-04-18T12:18:15Z</time></trkpt><trkpt lat="44.62566175737493" lon="10.889530596966543"><ele>43.0</ele><time>2026-04-18T12:18:54.586Z</time></trkpt><trkpt lat="44.62559937584515" lon="10.889616138387733"><ele>43.0</ele><time>2026-04-18T12:18:55.825Z</time></trkpt><trkpt lat="44.625745996403005" lon="10.889705446989142"><ele>43.0</ele><time>2026-04-18T12:19:20Z</time></trkpt><trkpt lat="44.62582206479441" lon="10.889744751855888"><ele>43.0</ele><time>2026-04-18T12:19:21Z</time></trkpt><trkpt lat="44.62595106918418" lon="10.889657908405221"><ele>43.0</ele><time>2026-04-18T12:19:25Z</time></trkpt><trkpt lat="44.625898864391566" lon="10.889591339362278"><ele>43.00000000000001</ele><time>2026-04-18T12:19:29Z</time></trkpt><trkpt lat="44.62584167764736" lon="10.889534997048237"><ele>43.0</ele><time>2026-04-18T12:19:34Z</time></trkpt><trkpt lat="44.62577557940941" lon="10.889522611365834"><ele>43.0</ele><time>2026-04-18T12:19:40Z</time></trkpt><trkpt lat="44.625715437327905" lon="10.889495867493252"><ele>43.0</ele><time>2026-04-18T12:19:45Z</time></trkpt><trkpt lat="44.625667524078814" lon="10.889436374519411"><ele>43.0</ele><time>2026-04-18T12:19:51Z</time></trkpt><trkpt lat="44.62567849191646" lon="10.889345220991869"><ele>43.00000000000001</ele><time>2026-04-18T12:19:57Z</time></trkpt><trkpt lat="44.625680955617206" lon="10.889248245336928"><ele>43.0</ele><time>2026-04-18T12:20:02Z</time></trkpt><trkpt lat="44.62569112858411" lon="10.889147613340215"><ele>43.142857142857146</ele><time>2026-04-18T12:20:08Z</time></trkpt><trkpt lat="44.62569707199954" lon="10.88904511289768"><ele>43.285714285714285</ele><time>2026-04-18T12:20:14Z</time></trkpt><trkpt lat="44.625748971619075" lon="10.888988037498288"><ele>43.42857142857143</ele><time>2026-04-18T12:20:21Z</time></trkpt><trkpt lat="44.625817639694176" lon="10.888985581454298"><ele>43.57142857142857</ele><time>2026-04-18T12:20:27Z</time></trkpt><trkpt lat="44.62589222909622" lon="10.888989374030034"><ele>43.714285714285715</ele><time>2026-04-18T12:20:33Z</time></trkpt><trkpt lat="44.62595859390744" lon="10.888964265280102"><ele>43.85714285714286</ele><time>2026-04-18T12:20:55Z</time></trkpt><trkpt lat="44.62601458931646" lon="10.889005538573993"><ele>44.0</ele><time>2026-04-18T12:21:01Z</time></trkpt><trkpt lat="44.6259525303193" lon="10.888964062089208"><ele>44.0</ele><time>2026-04-18T12:21:14Z</time></trkpt><trkpt lat="44.62588568251426" lon="10.888996671450833"><ele>44.0</ele><time>2026-04-18T12:21:22Z</time></trkpt><trkpt lat="44.62581920134854" lon="10.888998100525479"><ele>44.0</ele><time>2026-04-18T12:21:30Z</time></trkpt><trkpt lat="44.62575109631306" lon="10.889027107385385"><ele>44.0</ele><time>2026-04-18T12:22:34Z</time></trkpt><trkpt lat="44.62581791595219" lon="10.888992011028412"><ele>44.0</ele><time>2026-04-18T12:22:43.998Z</time></trkpt><trkpt lat="44.62587373979911" lon="10.88895004552952"><ele>44.0</ele><time>2026-04-18T12:22:51.998Z</time></trkpt><trkpt lat="44.625933038950116" lon="10.88898065767418"><ele>44.0</ele><time>2026-04-18T12:23:02.999Z</time></trkpt><trkpt lat="44.62599826120469" lon="10.888987389384933"><ele>44.0</ele><time>2026-04-18T12:23:07.999Z</time></trkpt><trkpt lat="44.62594387567456" lon="10.889038831790048"><ele>44.0</ele><time>2026-04-18T12:23:26.999Z</time></trkpt><trkpt lat="44.625875831727434" lon="10.889009848991556"><ele>44.0</ele><time>2026-04-18T12:23:37.999Z</time></trkpt><trkpt lat="44.6258042715567" lon="10.888990536448151"><ele>44.0</ele><time>2026-04-18T12:23:45.999Z</time></trkpt><trkpt lat="44.62574008827959" lon="10.888995863099407"><ele>44.0</ele><time>2026-04-18T12:23:52.999Z</time></trkpt><trkpt lat="44.62570203841101" lon="10.88906735738342"><ele>44.0</ele><time>2026-04-18T12:23:59.999Z</time></trkpt><trkpt lat="44.62568315922702" lon="10.889162701235161"><ele>44.0</ele><time>2026-04-18T12:24:33.999Z</time></trkpt><trkpt lat="44.625770351674234" lon="10.889173159693977"><ele>43.85714285714286</ele><time>2026-04-18T12:25:06.999Z</time></trkpt><trkpt lat="44.62575182662831" lon="10.889269066374013"><ele>43.714285714285715</ele><time>2026-04-18T14:02:00.999Z</time></trkpt><trkpt lat="44.62573925011655" lon="10.889363172885714"><ele>43.57142857142857</ele><time>2026-04-18T14:02:07.999Z</time></trkpt><trkpt lat="44.62575994406239" lon="10.889451539230725"><ele>43.42857142857143</ele><time>2026-04-18T14:02:17.999Z</time></trkpt><trkpt lat="44.625829441291586" lon="10.889483071028595"><ele>43.285714285714285</ele><time>2026-04-18T14:02:22.999Z</time></trkpt><trkpt lat="44.62587652692054" lon="10.889555809056535"><ele>43.142857142857146</ele><time>2026-04-18T14:02:30.999Z</time></trkpt><trkpt lat="44.62588953928621" lon="10.889644900926234"><ele>43.0</ele><time>2026-04-18T14:02:37.999Z</time></trkpt><trkpt lat="44.62595078471685" lon="10.889753497636192"><ele>43.0</ele><time>2026-04-18T14:02:46.999Z</time></trkpt><trkpt lat="44.62588789667853" lon="10.889775080234562"><ele>43.0</ele><time>2026-04-18T14:02:49.999Z</time></trkpt><trkpt lat="44.62582581751515" lon="10.88974613634697"><ele>43.0</ele><time>2026-04-18T14:02:55.999Z</time></trkpt><trkpt lat="44.625454575173656" lon="10.88981056475138"><ele>43.0</ele><time>2026-04-18T14:03:16.467Z</time></trkpt><trkpt lat="44.62541593629922" lon="10.8899447498314"><ele>43.0</ele><time>2026-04-18T14:03:27.394Z</time></trkpt><trkpt lat="44.625439568271254" lon="10.8898225501638"><ele>43.0</ele><time>2026-04-18T14:04:59.459Z</time></trkpt><trkpt lat="44.62557676210551" lon="10.889636245178192"><ele>43.0</ele><time>2026-04-18T14:05:02.328Z</time></trkpt><trkpt lat="44.625629353356615" lon="10.889564802338834"><ele>43.0</ele><time>2026-04-18T14:05:08.636Z</time></trkpt><trkpt lat="44.625483291763935" lon="10.8897615118268"><ele>43.0</ele><time>2026-04-18T14:05:48.38Z</time></trkpt><trkpt lat="44.625584628700366" lon="10.889982349373797"><ele>43.0</ele><time>2026-04-18T14:06:39.938Z</time></trkpt><trkpt lat="44.62567849086178" lon="10.890011020253514"><ele>43.0</ele><time>2026-04-18T14:06:46.72Z</time></trkpt><trkpt lat="44.625462290953905" lon="10.889938473012855"><ele>43.0</ele><time>2026-04-18T14:06:53.486Z</time></trkpt><trkpt lat="44.62574110876502" lon="10.889918131801661"><ele>43.0</ele><time>2026-04-18T14:07:14.69Z</time></trkpt><trkpt lat="44.62541392355409" lon="10.889963755321997"><ele>43.0</ele><time>2026-04-18T14:07:48.449Z</time></trkpt><trkpt lat="44.62544658379119" lon="10.889846690546925"><ele>43.0</ele><time>2026-04-18T14:18:16.004Z</time></trkpt><trkpt lat="44.62540709833779" lon="10.889954749190752"><ele>43.0</ele><time>2026-04-18T15:13:34.003Z</time></trkpt><trkpt lat="44.6254544572857" lon="10.889807370786379"><ele>43.0</ele><time>2026-04-18T15:13:59.53Z</time></trkpt><trkpt lat="44.62557706980774" lon="10.889637755833457"><ele>43.0</ele><time>2026-04-18T15:14:05.541Z</time></trkpt><trkpt lat="44.62565427553072" lon="10.889531240794753"><ele>43.0</ele><time>2026-04-18T15:14:08.352Z</time></trkpt><trkpt lat="44.62579207488838" lon="10.889696959061261"><ele>43.0</ele><time>2026-04-18T15:14:16.43Z</time></trkpt><trkpt lat="44.62584023360151" lon="10.889755366095152"><ele>43.0</ele><time>2026-04-18T15:14:22.748Z</time></trkpt><trkpt lat="44.62596686839913" lon="10.889678698265554"><ele>43.0</ele><time>2026-04-18T15:17:22Z</time></trkpt></trkseg></trk></gpx>